<?xml version='1.0' encoding='UTF-8'?><gpx version="1.1" creator="JPX - https://github.com/jenetics/jpx" xmlns="http://www.topografix.com/GPX/1/1"><trk><trkseg><trkpt lat="44.52154903606723" lon="8.70166698544425"><ele>366.0</ele><time>2026-05-01T10:29:07Z</time></trkpt><trkpt lat="44.52170211530821" lon="8.701470684979032"><ele>366.0</ele><time>2026-05-01T10:29:08Z</time></trkpt><trkpt lat="44.52180283714778" lon="8.701393368694763"><ele>366.0</ele><time>2026-05-01T10:29:10Z</time></trkpt><trkpt lat="44.52188305279728" lon="8.70129089668032"><ele>366.0</ele><time>2026-05-01T10:29:12Z</time></trkpt><trkpt lat="44.521938149007156" lon="8.70118902298491"><ele>366.6666666666667</ele><time>2026-05-01T10:29:14Z</time></trkpt><trkpt lat="44.5218559689254" lon="8.700977787241417"><ele>367.33333333333337</ele><time>2026-05-01T10:29:20Z</time></trkpt><trkpt lat="44.5217430293648" lon="8.700890979373165"><ele>368.0</ele><time>2026-05-01T10:29:21Z</time></trkpt><trkpt lat="44.521592443135" lon="8.700828532071801"><ele>368.0</ele><time>2026-05-01T10:29:22Z</time></trkpt><trkpt lat="44.521425331458815" lon="8.700790914472623"><ele>368.0</ele><time>2026-05-01T10:29:23Z</time></trkpt><trkpt lat="44.52124296512366" lon="8.700773543555668"><ele>368.0</ele><time>2026-05-01T10:29:24Z</time></trkpt><trkpt lat="44.521058615471546" lon="8.700762204065008"><ele>367.33333333333337</ele><time>2026-05-01T10:29:25Z</time></trkpt><trkpt lat="44.52085834389811" lon="8.700753757072293"><ele>366.6666666666667</ele><time>2026-05-01T10:29:26Z</time></trkpt><trkpt lat="44.52066267857927" lon="8.700690384641057"><ele>366.0</ele><time>2026-05-01T10:29:27Z</time></trkpt><trkpt lat="44.520470180688825" lon="8.700561887973329"><ele>366.0</ele><time>2026-05-01T10:29:28Z</time></trkpt><trkpt lat="44.52027757571101" lon="8.700402853671916"><ele>366.0</ele><time>2026-05-01T10:29:29Z</time></trkpt><trkpt lat="44.520080530508864" lon="8.700228307253566"><ele>366.0</ele><time>2026-05-01T10:29:30Z</time></trkpt><trkpt lat="44.519869179909534" lon="8.70008721854097"><ele>366.0</ele><time>2026-05-01T10:29:31Z</time></trkpt><trkpt lat="44.519649654198304" lon="8.700012006781105"><ele>366.0</ele><time>2026-05-01T10:29:32Z</time></trkpt><trkpt lat="44.51944964338035" lon="8.699979666981426"><ele>366.0</ele><time>2026-05-01T10:29:33Z</time></trkpt><trkpt lat="44.51926515726569" lon="8.699962582718072"><ele>366.0</ele><time>2026-05-01T10:29:34Z</time></trkpt><trkpt lat="44.519080096606544" lon="8.699939081973257"><ele>366.0</ele><time>2026-05-01T10:29:35Z</time></trkpt><trkpt lat="44.51889004227587" lon="8.69990765985747"><ele>366.0</ele><time>2026-05-01T10:29:36Z</time></trkpt><trkpt lat="44.51870651781276" lon="8.699871701886892"><ele>366.0</ele><time>2026-05-01T10:29:37Z</time></trkpt><trkpt lat="44.51853784675549" lon="8.699840345254142"><ele>366.6666666666667</ele><time>2026-05-01T10:29:38Z</time></trkpt><trkpt lat="44.51837969810113" lon="8.69980854240632"><ele>367.33333333333337</ele><time>2026-05-01T10:29:39Z</time></trkpt><trkpt lat="44.51820971632168" lon="8.699774581877982"><ele>368.0</ele><time>2026-05-01T10:29:40Z</time></trkpt><trkpt lat="44.51802385096163" lon="8.699736616106653"><ele>373.33333333333337</ele><time>2026-05-01T10:29:41Z</time></trkpt><trkpt lat="44.51783008807564" lon="8.699692986931389"><ele>378.6666666666667</ele><time>2026-05-01T10:29:42Z</time></trkpt><trkpt lat="44.51762638620644" lon="8.699662288273208"><ele>384.0</ele><time>2026-05-01T10:29:43Z</time></trkpt><trkpt lat="44.517416930535845" lon="8.69964819338478"><ele>384.0</ele><time>2026-05-01T10:29:44Z</time></trkpt><trkpt lat="44.51721103971653" lon="8.699683837636439"><ele>384.0</ele><time>2026-05-01T10:29:45Z</time></trkpt><trkpt lat="44.517001008523906" lon="8.699780573973213"><ele>384.0</ele><time>2026-05-01T10:29:46Z</time></trkpt><trkpt lat="44.51677792698837" lon="8.699913053589006"><ele>382.5</ele><time>2026-05-01T10:29:47Z</time></trkpt><trkpt lat="44.516534657649416" lon="8.70001793303171"><ele>381.0</ele><time>2026-05-01T10:29:48Z</time></trkpt><trkpt lat="44.516293098297375" lon="8.700151071362036"><ele>377.6666666666667</ele><time>2026-05-01T10:29:49Z</time></trkpt><trkpt lat="44.51607231487437" lon="8.700243768656811"><ele>374.33333333333337</ele><time>2026-05-01T10:29:50Z</time></trkpt><trkpt lat="44.51587221963137" lon="8.700320984020495"><ele>371.0</ele><time>2026-05-01T10:29:51Z</time></trkpt><trkpt lat="44.515660039413014" lon="8.700364857357858"><ele>377.5</ele><time>2026-05-01T10:29:52Z</time></trkpt><trkpt lat="44.51544981404051" lon="8.700400555760664"><ele>384.0</ele><time>2026-05-01T10:29:53Z</time></trkpt><trkpt lat="44.5152118229361" lon="8.700427184094911"><ele>384.0</ele><time>2026-05-01T10:29:54Z</time></trkpt><trkpt lat="44.51494581082034" lon="8.700461411903431"><ele>384.0</ele><time>2026-05-01T10:29:55Z</time></trkpt><trkpt lat="44.51468868448381" lon="8.700537090605254"><ele>382.0</ele><time>2026-05-01T10:29:56Z</time></trkpt><trkpt lat="44.514419747893825" lon="8.70059760099499"><ele>380.0</ele><time>2026-05-01T10:29:57Z</time></trkpt><trkpt lat="44.51414370023479" lon="8.700665319863448"><ele>380.0</ele><time>2026-05-01T10:29:58Z</time></trkpt><trkpt lat="44.513880559558515" lon="8.70074309637057"><ele>380.0</ele><time>2026-05-01T10:29:59Z</time></trkpt><trkpt lat="44.513629050252604" lon="8.700808960951823"><ele>379.5</ele><time>2026-05-01T10:30:00Z</time></trkpt><trkpt lat="44.513406534186664" lon="8.700866048109313"><ele>379.0</ele><time>2026-05-01T10:30:01Z</time></trkpt><trkpt lat="44.5131848985634" lon="8.70092635907799"><ele>379.0</ele><time>2026-05-01T10:30:02Z</time></trkpt><trkpt lat="44.51297214208607" lon="8.700997331585086"><ele>379.0</ele><time>2026-05-01T10:30:03Z</time></trkpt><trkpt lat="44.51276929018614" lon="8.701108397038219"><ele>379.0</ele><time>2026-05-01T10:30:04Z</time></trkpt><trkpt lat="44.51256837892971" lon="8.701270511265633"><ele>390.0</ele><time>2026-05-01T10:30:05Z</time></trkpt><trkpt lat="44.512381740083036" lon="8.701451607278397"><ele>401.0</ele><time>2026-05-01T10:30:06Z</time></trkpt><trkpt lat="44.512201206411774" lon="8.701643203558822"><ele>401.3333333333333</ele><time>2026-05-01T10:30:07Z</time></trkpt><trkpt lat="44.512040705601386" lon="8.70182220799225"><ele>401.66666666666663</ele><time>2026-05-01T10:30:08Z</time></trkpt><trkpt lat="44.51189062618468" lon="8.70198930587914"><ele>402.0</ele><time>2026-05-01T10:30:09Z</time></trkpt><trkpt lat="44.511748732878914" lon="8.702140956980534"><ele>402.0</ele><time>2026-05-01T10:30:10Z</time></trkpt><trkpt lat="44.51160777175989" lon="8.70227493752404"><ele>402.0</ele><time>2026-05-01T10:30:11Z</time></trkpt><trkpt lat="44.51146627457463" lon="8.702420472255"><ele>402.0</ele><time>2026-05-01T10:30:12Z</time></trkpt><trkpt lat="44.511318683141866" lon="8.70256908027186"><ele>401.75</ele><time>2026-05-01T10:30:13Z</time></trkpt><trkpt lat="44.511183511816576" lon="8.702699999502595"><ele>401.5</ele><time>2026-05-01T10:30:14Z</time></trkpt><trkpt lat="44.51107709436018" lon="8.702810144859635"><ele>401.25</ele><time>2026-05-01T10:30:15Z</time></trkpt><trkpt lat="44.51099532465066" lon="8.702901059446129"><ele>401.0</ele><time>2026-05-01T10:30:16Z</time></trkpt><trkpt lat="44.51090278471894" lon="8.702994441424012"><ele>401.0</ele><time>2026-05-01T10:30:17Z</time></trkpt><trkpt lat="44.51081030396448" lon="8.703092916841767"><ele>401.0</ele><time>2026-05-01T10:30:18Z</time></trkpt><trkpt lat="44.51070398530383" lon="8.703179176742726"><ele>401.0</ele><time>2026-05-01T10:30:19Z</time></trkpt><trkpt lat="44.510597140785364" lon="8.703284671754595"><ele>401.0</ele><time>2026-05-01T10:30:20Z</time></trkpt><trkpt lat="44.51047962778861" lon="8.703407092581157"><ele>399.66666666666663</ele><time>2026-05-01T10:30:21Z</time></trkpt><trkpt lat="44.510347684273746" lon="8.703511989646792"><ele>398.33333333333337</ele><time>2026-05-01T10:30:22Z</time></trkpt><trkpt lat="44.510209839901876" lon="8.703619908858505"><ele>397.0</ele><time>2026-05-01T10:30:23Z</time></trkpt><trkpt lat="44.510073354647346" lon="8.703718109835263"><ele>397.0</ele><time>2026-05-01T10:30:24Z</time></trkpt><trkpt lat="44.509935200475596" lon="8.703824158941885"><ele>397.0</ele><time>2026-05-01T10:30:25Z</time></trkpt><trkpt lat="44.50979588585914" lon="8.703934201520488"><ele>397.0</ele><time>2026-05-01T10:30:26Z</time></trkpt><trkpt lat="44.50965882927692" lon="8.704040275404902"><ele>393.25</ele><time>2026-05-01T10:30:27Z</time></trkpt><trkpt lat="44.50953087289649" lon="8.704137430426448"><ele>389.5</ele><time>2026-05-01T10:30:28Z</time></trkpt><trkpt lat="44.50940339098799" lon="8.704225041603781"><ele>385.75</ele><time>2026-05-01T10:30:29Z</time></trkpt><trkpt lat="44.50926517696898" lon="8.70431053839141"><ele>382.0</ele><time>2026-05-01T10:30:30Z</time></trkpt><trkpt lat="44.509120525867935" lon="8.70439851914586"><ele>386.0</ele><time>2026-05-01T10:30:31Z</time></trkpt><trkpt lat="44.50897212336656" lon="8.704487922845923"><ele>390.0</ele><time>2026-05-01T10:30:32Z</time></trkpt><trkpt lat="44.50882534956344" lon="8.70456360164222"><ele>394.0</ele><time>2026-05-01T10:30:33Z</time></trkpt><trkpt lat="44.50869800543395" lon="8.704635963502499"><ele>394.0</ele><time>2026-05-01T10:30:34Z</time></trkpt><trkpt lat="44.50854883249705" lon="8.704687910113345"><ele>394.0</ele><time>2026-05-01T10:30:35Z</time></trkpt><trkpt lat="44.508401889442986" lon="8.704742664607638"><ele>394.0</ele><time>2026-05-01T10:30:36Z</time></trkpt><trkpt lat="44.50825438862527" lon="8.704798789482657"><ele>394.0</ele><time>2026-05-01T10:30:37Z</time></trkpt><trkpt lat="44.508107777333294" lon="8.704855519176723"><ele>394.0</ele><time>2026-05-01T10:30:38Z</time></trkpt><trkpt lat="44.507965076882236" lon="8.704909988367733"><ele>394.0</ele><time>2026-05-01T10:30:39Z</time></trkpt><trkpt lat="44.507837416749794" lon="8.704961271183672"><ele>394.0</ele><time>2026-05-01T10:30:40Z</time></trkpt><trkpt lat="44.50771850486997" lon="8.705008291115238"><ele>392.75</ele><time>2026-05-01T10:30:41Z</time></trkpt><trkpt lat="44.50760403962938" lon="8.705053568274195"><ele>391.5</ele><time>2026-05-01T10:30:42Z</time></trkpt><trkpt lat="44.50748643777541" lon="8.705098339728151"><ele>390.25</ele><time>2026-05-01T10:30:43Z</time></trkpt><trkpt lat="44.50737953587512" lon="8.70513958339403"><ele>389.0</ele><time>2026-05-01T10:30:44Z</time></trkpt><trkpt lat="44.50728458053547" lon="8.705176612347124"><ele>388.99999999999994</ele><time>2026-05-01T10:30:45Z</time></trkpt><trkpt lat="44.50719892222997" lon="8.705208324374839"><ele>389.0</ele><time>2026-05-01T10:30:46Z</time></trkpt><trkpt lat="44.507122964305616" lon="8.705233159679453"><ele>389.0</ele><time>2026-05-01T10:30:47Z</time></trkpt><trkpt lat="44.50705562683118" lon="8.705258955426881"><ele>389.0</ele><time>2026-05-01T10:30:48Z</time></trkpt><trkpt lat="44.506978021102846" lon="8.705257069647532"><ele>388.99999999999994</ele><time>2026-05-01T10:30:49Z</time></trkpt><trkpt lat="44.506882997040925" lon="8.705268617240563"><ele>389.0</ele><time>2026-05-01T10:30:50Z</time></trkpt><trkpt lat="44.50678493926225" lon="8.705323931975698"><ele>391.66666666666663</ele><time>2026-05-01T10:30:51Z</time></trkpt><trkpt lat="44.50668032067986" lon="8.705431378102409"><ele>394.33333333333337</ele><time>2026-05-01T10:30:52Z</time></trkpt><trkpt lat="44.50655494440633" lon="8.705558295627787"><ele>397.0</ele><time>2026-05-01T10:30:53Z</time></trkpt><trkpt lat="44.50640264938945" lon="8.705682299465993"><ele>393.6666666666667</ele><time>2026-05-01T10:30:54Z</time></trkpt><trkpt lat="44.50623756668627" lon="8.705793547043351"><ele>390.33333333333337</ele><time>2026-05-01T10:30:55Z</time></trkpt><trkpt lat="44.50606723528803" lon="8.705920467720299"><ele>387.0</ele><time>2026-05-01T10:30:56Z</time></trkpt><trkpt lat="44.50590371802704" lon="8.706062459836193"><ele>391.66666666666663</ele><time>2026-05-01T10:30:57Z</time></trkpt><trkpt lat="44.505745952456216" lon="8.706226522882064"><ele>396.3333333333333</ele><time>2026-05-01T10:30:58Z</time></trkpt><trkpt lat="44.505592140160815" lon="8.706405061019456"><ele>401.0</ele><time>2026-05-01T10:30:59Z</time></trkpt><trkpt lat="44.50546266677776" lon="8.706571957275061"><ele>399.0</ele><time>2026-05-01T10:31:00Z</time></trkpt><trkpt lat="44.505346706695704" lon="8.706741146021857"><ele>397.0</ele><time>2026-05-01T10:31:01Z</time></trkpt><trkpt lat="44.50524520758378" lon="8.706923829717947"><ele>395.0</ele><time>2026-05-01T10:31:02Z</time></trkpt><trkpt lat="44.50516551900141" lon="8.70711859429002"><ele>395.0</ele><time>2026-05-01T10:31:03Z</time></trkpt><trkpt lat="44.505110968300336" lon="8.707311086162477"><ele>395.0</ele><time>2026-05-01T10:31:04Z</time></trkpt><trkpt lat="44.50507844789954" lon="8.707504076871482"><ele>395.0</ele><time>2026-05-01T10:31:05Z</time></trkpt><trkpt lat="44.50507333885066" lon="8.70769302669014"><ele>395.0</ele><time>2026-05-01T10:31:06Z</time></trkpt><trkpt lat="44.50509294703048" lon="8.70787368926525"><ele>394.0</ele><time>2026-05-01T10:31:07Z</time></trkpt><trkpt lat="44.50513312584231" lon="8.708039957422695"><ele>393.0</ele><time>2026-05-01T10:31:08Z</time></trkpt><trkpt lat="44.505176008320355" lon="8.708195693721695"><ele>392.0</ele><time>2026-05-01T10:31:09Z</time></trkpt><trkpt lat="44.50520825233686" lon="8.708325883273679"><ele>391.0</ele><time>2026-05-01T10:31:10Z</time></trkpt><trkpt lat="44.50523515136717" lon="8.708419284122149"><ele>390.0</ele><time>2026-05-01T10:31:11Z</time></trkpt><trkpt lat="44.50528099244396" lon="8.708501704037033"><ele>390.0</ele><time>2026-05-01T10:31:52Z</time></trkpt><trkpt lat="44.50533519166103" lon="8.708655065682082"><ele>390.0</ele><time>2026-05-01T10:31:54Z</time></trkpt><trkpt lat="44.505375406077874" lon="8.708735319775592"><ele>390.0</ele><time>2026-05-01T10:31:56Z</time></trkpt><trkpt lat="44.50543175592189" lon="8.708561394087418"><ele>390.0</ele><time>2026-05-01T10:32:00Z</time></trkpt><trkpt lat="44.50539244677662" lon="8.70843282554132"><ele>390.0</ele><time>2026-05-01T10:32:01Z</time></trkpt><trkpt lat="44.50537900304039" lon="8.708314104026138"><ele>390.0</ele><time>2026-05-01T10:32:02Z</time></trkpt><trkpt lat="44.505384172263064" lon="8.708201901482271"><ele>390.0</ele><time>2026-05-01T10:32:03Z</time></trkpt><trkpt lat="44.50538204521469" lon="8.708110651451376"><ele>390.0</ele><time>2026-05-01T10:32:04Z</time></trkpt><trkpt lat="44.505448749380655" lon="8.707937196479056"><ele>390.0</ele><time>2026-05-01T10:32:05Z</time></trkpt><trkpt lat="44.50505467207651" lon="8.70804220099745"><ele>390.0</ele><time>2026-05-01T10:32:11Z</time></trkpt><trkpt lat="44.504945425992226" lon="8.70814361609066"><ele>390.0</ele><time>2026-05-01T10:32:13Z</time></trkpt><trkpt lat="44.504860906065325" lon="8.708182046662941"><ele>390.0</ele><time>2026-05-01T10:32:14Z</time></trkpt><trkpt lat="44.50478168918134" lon="8.708245510831961"><ele>390.0</ele><time>2026-05-01T10:32:15Z</time></trkpt><trkpt lat="44.50469918977132" lon="8.708312019570089"><ele>390.0</ele><time>2026-05-01T10:32:16Z</time></trkpt><trkpt lat="44.504627079295965" lon="8.708369165766078"><ele>391.1666666666667</ele><time>2026-05-01T10:32:17Z</time></trkpt><trkpt lat="44.50456837880198" lon="8.708414297302514"><ele>392.33333333333337</ele><time>2026-05-01T10:32:18Z</time></trkpt><trkpt lat="44.504492727838354" lon="8.70847370338683"><ele>393.5</ele><time>2026-05-01T10:32:20Z</time></trkpt><trkpt lat="44.50445261622683" lon="8.70861264293485"><ele>394.6666666666667</ele><time>2026-05-01T10:32:26Z</time></trkpt><trkpt lat="44.50445912955505" lon="8.708717627196894"><ele>395.83333333333337</ele><time>2026-05-01T10:32:27Z</time></trkpt><trkpt lat="44.504456608716914" lon="8.708827335759796"><ele>397.0</ele><time>2026-05-01T10:32:28Z</time></trkpt><trkpt lat="44.5044672456686" lon="8.70900310500949"><ele>397.40000000000003</ele><time>2026-05-01T10:32:30Z</time></trkpt><trkpt lat="44.5045374236904" lon="8.709083101810373"><ele>397.8</ele><time>2026-05-01T10:32:31Z</time></trkpt><trkpt lat="44.50460065507417" lon="8.709197343286137"><ele>398.2</ele><time>2026-05-01T10:32:32Z</time></trkpt><trkpt lat="44.50467024682016" lon="8.709322030288037"><ele>398.6</ele><time>2026-05-01T10:32:33Z</time></trkpt><trkpt lat="44.50475364905318" lon="8.709453317237065"><ele>399.0</ele><time>2026-05-01T10:32:34Z</time></trkpt><trkpt lat="44.50485160265861" lon="8.709583075619188"><ele>401.6</ele><time>2026-05-01T10:32:35Z</time></trkpt><trkpt lat="44.50494034350989" lon="8.709680780920353"><ele>404.2</ele><time>2026-05-01T10:32:36Z</time></trkpt><trkpt lat="44.5049991553542" lon="8.709790796412925"><ele>406.8</ele><time>2026-05-01T10:32:37Z</time></trkpt><trkpt lat="44.505046831043614" lon="8.709891023485204"><ele>409.40000000000003</ele><time>2026-05-01T10:32:38Z</time></trkpt><trkpt lat="44.50504674154179" lon="8.710018385432603"><ele>412.0</ele><time>2026-05-01T10:32:39Z</time></trkpt><trkpt lat="44.50503030063187" lon="8.710116961901797"><ele>413.5</ele><time>2026-05-01T10:32:40Z</time></trkpt><trkpt lat="44.504960893208256" lon="8.710290731717425"><ele>415.0</ele><time>2026-05-01T10:32:42Z</time></trkpt><trkpt lat="44.504875902835266" lon="8.71038089471219"><ele>416.5</ele><time>2026-05-01T10:32:43Z</time></trkpt><trkpt lat="44.50480437628863" lon="8.710477680328559"><ele>418.0</ele><time>2026-05-01T10:32:44Z</time></trkpt><trkpt lat="44.504827153224134" lon="8.710710042155123"><ele>418.0</ele><time>2026-05-01T10:32:45Z</time></trkpt><trkpt lat="44.50482850465436" lon="8.710942755700163"><ele>418.0</ele><time>2026-05-01T10:32:46Z</time></trkpt><trkpt lat="44.50483658453042" lon="8.711149297500187"><ele>418.0</ele><time>2026-05-01T10:32:47Z</time></trkpt><trkpt lat="44.504838679351025" lon="8.7113054942179"><ele>418.0</ele><time>2026-05-01T10:32:48Z</time></trkpt><trkpt lat="44.504804037047656" lon="8.711086009713883"><ele>418.0</ele><time>2026-05-01T10:32:55Z</time></trkpt><trkpt lat="44.504801796049954" lon="8.710930924963131"><ele>418.0</ele><time>2026-05-01T10:32:56Z</time></trkpt><trkpt lat="44.504788988374266" lon="8.710767783453942"><ele>418.0</ele><time>2026-05-01T10:32:57Z</time></trkpt><trkpt lat="44.504789484810594" lon="8.710595511631844"><ele>418.0</ele><time>2026-05-01T10:32:58Z</time></trkpt><trkpt lat="44.50477837766167" lon="8.710426229568675"><ele>418.0</ele><time>2026-05-01T10:32:59Z</time></trkpt><trkpt lat="44.50477727052493" lon="8.710269200882202"><ele>418.0</ele><time>2026-05-01T10:33:00Z</time></trkpt><trkpt lat="44.50475567801719" lon="8.710142875678113"><ele>418.0</ele><time>2026-05-01T10:33:01Z</time></trkpt><trkpt lat="44.50473026538111" lon="8.710018660823108"><ele>418.0</ele><time>2026-05-01T10:33:02Z</time></trkpt><trkpt lat="44.504668272638796" lon="8.70984924392717"><ele>418.0</ele><time>2026-05-01T10:33:03Z</time></trkpt><trkpt lat="44.50459267793542" lon="8.709744416331397"><ele>421.5</ele><time>2026-05-01T10:33:04Z</time></trkpt><trkpt lat="44.504507391669" lon="8.709663710783424"><ele>425.0</ele><time>2026-05-01T10:33:05Z</time></trkpt><trkpt lat="44.50441737873139" lon="8.709592289528969"><ele>428.5</ele><time>2026-05-01T10:33:06Z</time></trkpt><trkpt lat="44.50433968014721" lon="8.709534644918289"><ele>432.0</ele><time>2026-05-01T10:33:07Z</time></trkpt><trkpt lat="44.50416265209577" lon="8.71000997197206"><ele>432.0</ele><time>2026-05-01T10:33:10Z</time></trkpt><trkpt lat="44.5041664335466" lon="8.71014545776458"><ele>432.00000000000006</ele><time>2026-05-01T10:33:11Z</time></trkpt><trkpt lat="44.50415786418892" lon="8.710286186746425"><ele>432.00000000000006</ele><time>2026-05-01T10:33:12Z</time></trkpt><trkpt lat="44.50415433511241" lon="8.710419294398289"><ele>432.0</ele><time>2026-05-01T10:33:13Z</time></trkpt><trkpt lat="44.504119764960386" lon="8.710529296811607"><ele>432.0</ele><time>2026-05-01T10:33:15Z</time></trkpt><trkpt lat="44.50403224438206" lon="8.71059319209303"><ele>431.8</ele><time>2026-05-01T10:33:17Z</time></trkpt><trkpt lat="44.503957270065" lon="8.710610647685256"><ele>431.6</ele><time>2026-05-01T10:33:18Z</time></trkpt><trkpt lat="44.503873877039396" lon="8.710597149757294"><ele>431.40000000000003</ele><time>2026-05-01T10:33:19Z</time></trkpt><trkpt lat="44.50379307958637" lon="8.710562778342295"><ele>431.20000000000005</ele><time>2026-05-01T10:33:20Z</time></trkpt><trkpt lat="44.5037024044606" lon="8.710506491289177"><ele>431.0</ele><time>2026-05-01T10:33:21Z</time></trkpt><trkpt lat="44.50354140054265" lon="8.710334390443505"><ele>433.16666666666663</ele><time>2026-05-01T10:33:23Z</time></trkpt><trkpt lat="44.50348565803557" lon="8.710235447212156"><ele>435.3333333333333</ele><time>2026-05-01T10:33:24Z</time></trkpt><trkpt lat="44.50344444602834" lon="8.710160135336524"><ele>437.5</ele><time>2026-05-01T10:33:25Z</time></trkpt><trkpt lat="44.50340123507218" lon="8.71009114240867"><ele>439.66666666666663</ele><time>2026-05-01T10:33:26Z</time></trkpt><trkpt lat="44.50334734814631" lon="8.710025301327148"><ele>441.8333333333333</ele><time>2026-05-01T10:33:27Z</time></trkpt><trkpt lat="44.50326103212126" lon="8.709993178709398"><ele>444.0</ele><time>2026-05-01T10:33:29Z</time></trkpt><trkpt lat="44.50315920432888" lon="8.71012268059679"><ele>444.0</ele><time>2026-05-01T10:33:31Z</time></trkpt><trkpt lat="44.50310199920969" lon="8.710199002838431"><ele>444.0</ele><time>2026-05-01T10:33:32Z</time></trkpt><trkpt lat="44.50300955488068" lon="8.710281510031114"><ele>444.0</ele><time>2026-05-01T10:33:34Z</time></trkpt><trkpt lat="44.502949480326144" lon="8.710237810703374"><ele>444.0</ele><time>2026-05-01T10:33:37Z</time></trkpt><trkpt lat="44.502882817651" lon="8.710221591344087"><ele>444.0</ele><time>2026-05-01T10:33:39Z</time></trkpt><trkpt lat="44.50279741463893" lon="8.710273471107818"><ele>444.0</ele><time>2026-05-01T10:33:43Z</time></trkpt><trkpt lat="44.502685828716494" lon="8.710342565970668"><ele>442.4</ele><time>2026-05-01T10:33:45Z</time></trkpt><trkpt lat="44.502612510832876" lon="8.710378974436013"><ele>440.79999999999995</ele><time>2026-05-01T10:33:46Z</time></trkpt><trkpt lat="44.50253052264252" lon="8.710411255071495"><ele>439.20000000000005</ele><time>2026-05-01T10:33:47Z</time></trkpt><trkpt lat="44.502448168854514" lon="8.710427511258061"><ele>437.6</ele><time>2026-05-01T10:33:48Z</time></trkpt><trkpt lat="44.50234277271276" lon="8.710431235966526"><ele>436.0</ele><time>2026-05-01T10:33:49Z</time></trkpt><trkpt lat="44.50222267692036" lon="8.710413581228439"><ele>436.0</ele><time>2026-05-01T10:33:50Z</time></trkpt><trkpt lat="44.5020957332368" lon="8.71048416321163"><ele>436.0</ele><time>2026-05-01T10:33:51Z</time></trkpt><trkpt lat="44.50197783928861" lon="8.710544352540575"><ele>436.0</ele><time>2026-05-01T10:33:52Z</time></trkpt><trkpt lat="44.50187304291807" lon="8.71058945139326"><ele>436.0</ele><time>2026-05-01T10:33:53Z</time></trkpt><trkpt lat="44.50177556310564" lon="8.710658754514924"><ele>439.6</ele><time>2026-05-01T10:33:54Z</time></trkpt><trkpt lat="44.501694546635235" lon="8.710715534585777"><ele>443.20000000000005</ele><time>2026-05-01T10:33:55Z</time></trkpt><trkpt lat="44.50162055110209" lon="8.7107612370779"><ele>446.79999999999995</ele><time>2026-05-01T10:33:56Z</time></trkpt><trkpt lat="44.50154700218892" lon="8.71081825557681"><ele>450.4</ele><time>2026-05-01T10:33:57Z</time></trkpt><trkpt lat="44.50144705367053" lon="8.710849536585052"><ele>454.0</ele><time>2026-05-01T10:33:58Z</time></trkpt><trkpt lat="44.50134923318823" lon="8.710901935371897"><ele>454.0</ele><time>2026-05-01T10:33:59Z</time></trkpt><trkpt lat="44.50126219845885" lon="8.710947659796133"><ele>454.0</ele><time>2026-05-01T10:34:00Z</time></trkpt><trkpt lat="44.50116549304595" lon="8.710990597072643"><ele>454.0</ele><time>2026-05-01T10:34:01Z</time></trkpt><trkpt lat="44.501064926014074" lon="8.711015659629691"><ele>454.0</ele><time>2026-05-01T10:34:02Z</time></trkpt><trkpt lat="44.500945422168385" lon="8.71103046281128"><ele>454.0</ele><time>2026-05-01T10:34:03Z</time></trkpt><trkpt lat="44.50083271669525" lon="8.711035533057384"><ele>459.0</ele><time>2026-05-01T10:34:04Z</time></trkpt><trkpt lat="44.50073765895299" lon="8.711031405515637"><ele>464.0</ele><time>2026-05-01T10:34:05Z</time></trkpt><trkpt lat="44.500632629475454" lon="8.711003545826285"><ele>469.0</ele><time>2026-05-01T10:34:06Z</time></trkpt><trkpt lat="44.50053624987723" lon="8.710967854206922"><ele>474.0</ele><time>2026-05-01T10:34:07Z</time></trkpt><trkpt lat="44.500438374228644" lon="8.710992960531007"><ele>479.0</ele><time>2026-05-01T10:34:08Z</time></trkpt><trkpt lat="44.50033001173176" lon="8.711065405204442"><ele>479.25</ele><time>2026-05-01T10:34:09Z</time></trkpt><trkpt lat="44.50022028886923" lon="8.71115433674386"><ele>479.5</ele><time>2026-05-01T10:34:10Z</time></trkpt><trkpt lat="44.500111755401775" lon="8.71121690768495"><ele>479.75</ele><time>2026-05-01T10:34:11Z</time></trkpt><trkpt lat="44.500005137802816" lon="8.711282637667457"><ele>480.0</ele><time>2026-05-01T10:34:12Z</time></trkpt><trkpt lat="44.4998983441313" lon="8.711317896674402"><ele>480.0</ele><time>2026-05-01T10:34:13Z</time></trkpt><trkpt lat="44.499786450520304" lon="8.711324783323015"><ele>480.0</ele><time>2026-05-01T10:34:14Z</time></trkpt><trkpt lat="44.499659894177846" lon="8.711325789290125"><ele>480.0</ele><time>2026-05-01T10:34:15Z</time></trkpt><trkpt lat="44.499523598624734" lon="8.711340318767366"><ele>480.0</ele><time>2026-05-01T10:34:16Z</time></trkpt><trkpt lat="44.499405863225384" lon="8.711404393074247"><ele>483.0</ele><time>2026-05-01T10:34:17Z</time></trkpt><trkpt lat="44.499309280104406" lon="8.711417013356964"><ele>486.0</ele><time>2026-05-01T10:34:18Z</time></trkpt><trkpt lat="44.49924577380277" lon="8.711430073567698"><ele>489.0</ele><time>2026-05-01T10:34:19Z</time></trkpt><trkpt lat="44.499181046942624" lon="8.711448088979616"><ele>492.0</ele><time>2026-05-01T10:34:20Z</time></trkpt><trkpt lat="44.499080630518606" lon="8.711394685132372"><ele>495.0</ele><time>2026-05-01T10:34:21Z</time></trkpt><trkpt lat="44.498976047202255" lon="8.711385013040156"><ele>498.0</ele><time>2026-05-01T10:34:22Z</time></trkpt><trkpt lat="44.49888436620394" lon="8.711419677577938"><ele>498.0</ele><time>2026-05-01T10:34:23Z</time></trkpt><trkpt lat="44.49879603193657" lon="8.711517516585943"><ele>497.99999999999994</ele><time>2026-05-01T10:34:24Z</time></trkpt><trkpt lat="44.498702843599396" lon="8.711631839895555"><ele>497.99999999999994</ele><time>2026-05-01T10:34:25Z</time></trkpt><trkpt lat="44.49862293814649" lon="8.71168661488663"><ele>498.0</ele><time>2026-05-01T10:34:26Z</time></trkpt><trkpt lat="44.49854744916768" lon="8.711683438398712"><ele>498.0</ele><time>2026-05-01T10:34:27Z</time></trkpt><trkpt lat="44.498456972987135" lon="8.711649097094039"><ele>500.59999999999997</ele><time>2026-05-01T10:34:28Z</time></trkpt><trkpt lat="44.49834868878385" lon="8.711603344831353"><ele>503.19999999999993</ele><time>2026-05-01T10:34:29Z</time></trkpt><trkpt lat="44.49826185608216" lon="8.711535179848518"><ele>505.8</ele><time>2026-05-01T10:34:30Z</time></trkpt><trkpt lat="44.49819383629196" lon="8.71148779271352"><ele>508.4</ele><time>2026-05-01T10:34:31Z</time></trkpt><trkpt lat="44.498085271049774" lon="8.711469717044382"><ele>511.0</ele><time>2026-05-01T10:34:33Z</time></trkpt><trkpt lat="44.49801352860182" lon="8.711525846965783"><ele>511.0</ele><time>2026-05-01T10:34:34Z</time></trkpt><trkpt lat="44.49792426297883" lon="8.711622605008788"><ele>511.0</ele><time>2026-05-01T10:34:35Z</time></trkpt><trkpt lat="44.49784012952616" lon="8.711730286198605"><ele>511.0</ele><time>2026-05-01T10:34:36Z</time></trkpt><trkpt lat="44.4977445687436" lon="8.711830543160318"><ele>511.0</ele><time>2026-05-01T10:34:37Z</time></trkpt><trkpt lat="44.49762431103883" lon="8.711937983096256"><ele>516.6</ele><time>2026-05-01T10:34:38Z</time></trkpt><trkpt lat="44.49749947507353" lon="8.71205736819966"><ele>522.2</ele><time>2026-05-01T10:34:39Z</time></trkpt><trkpt lat="44.497404314451906" lon="8.712127259226847"><ele>527.8</ele><time>2026-05-01T10:34:40Z</time></trkpt><trkpt lat="44.497353938878945" lon="8.71221255832225"><ele>533.4</ele><time>2026-05-01T10:34:41Z</time></trkpt><trkpt lat="44.497307341108986" lon="8.712276548580535"><ele>539.0</ele><time>2026-05-01T10:34:43Z</time></trkpt><trkpt lat="44.497253563105396" lon="8.712334190404178"><ele>539.0</ele><time>2026-05-01T10:34:45Z</time></trkpt><trkpt lat="44.49720809680313" lon="8.712497198520296"><ele>539.0</ele><time>2026-05-01T10:34:47Z</time></trkpt><trkpt lat="44.497167684132016" lon="8.712706366229225"><ele>539.0</ele><time>2026-05-01T10:34:48Z</time></trkpt><trkpt lat="44.497159301481865" lon="8.712889418044591"><ele>539.0</ele><time>2026-05-01T10:34:49Z</time></trkpt><trkpt lat="44.49714133193662" lon="8.713054470278324"><ele>538.25</ele><time>2026-05-01T10:34:50Z</time></trkpt><trkpt lat="44.49712695147114" lon="8.713243996677193"><ele>537.5</ele><time>2026-05-01T10:34:51Z</time></trkpt><trkpt lat="44.49708556470233" lon="8.713421175875043"><ele>536.75</ele><time>2026-05-01T10:34:52Z</time></trkpt><trkpt lat="44.4970564508848" lon="8.713565180782822"><ele>536.0</ele><time>2026-05-01T10:34:53Z</time></trkpt><trkpt lat="44.49705343526968" lon="8.713690978908817"><ele>540.6</ele><time>2026-05-01T10:34:54Z</time></trkpt><trkpt lat="44.497066622329974" lon="8.713843477079084"><ele>545.2</ele><time>2026-05-01T10:34:55Z</time></trkpt><trkpt lat="44.49704682016346" lon="8.713969517037718"><ele>549.8</ele><time>2026-05-01T10:34:56Z</time></trkpt><trkpt lat="44.49699192296016" lon="8.714056650743668"><ele>554.4</ele><time>2026-05-01T10:34:57Z</time></trkpt><trkpt lat="44.49690970551355" lon="8.714125585687638"><ele>559.0</ele><time>2026-05-01T10:34:58Z</time></trkpt><trkpt lat="44.49680927510836" lon="8.71418021100996"><ele>559.0</ele><time>2026-05-01T10:34:59Z</time></trkpt><trkpt lat="44.49670419332004" lon="8.714159406923988"><ele>559.0</ele><time>2026-05-01T10:35:00Z</time></trkpt><trkpt lat="44.49660131969197" lon="8.714133424572953"><ele>559.0</ele><time>2026-05-01T10:35:01Z</time></trkpt><trkpt lat="44.49650908253833" lon="8.714126623486628"><ele>559.0</ele><time>2026-05-01T10:35:02Z</time></trkpt><trkpt lat="44.496420538813936" lon="8.714090009524632"><ele>559.0</ele><time>2026-05-01T10:35:03Z</time></trkpt><trkpt lat="44.49634342045154" lon="8.714078050036047"><ele>559.0</ele><time>2026-05-01T10:35:04Z</time></trkpt><trkpt lat="44.49626500162579" lon="8.714116764365977"><ele>559.0</ele><time>2026-05-01T10:35:05Z</time></trkpt><trkpt lat="44.49616382938122" lon="8.714195912029112"><ele>559.0</ele><time>2026-05-01T10:35:06Z</time></trkpt><trkpt lat="44.49605309031536" lon="8.714254859609033"><ele>559.0</ele><time>2026-05-01T10:35:07Z</time></trkpt><trkpt lat="44.4959244735414" lon="8.714305771789638"><ele>560.0</ele><time>2026-05-01T10:35:08Z</time></trkpt><trkpt lat="44.49578636637745" lon="8.714384608302023"><ele>561.0</ele><time>2026-05-01T10:35:09Z</time></trkpt><trkpt lat="44.49563843879761" lon="8.714477867999312"><ele>562.0</ele><time>2026-05-01T10:35:10Z</time></trkpt><trkpt lat="44.49548799844651" lon="8.714541568067038"><ele>573.0</ele><time>2026-05-01T10:35:11Z</time></trkpt><trkpt lat="44.495324507923094" lon="8.714583004760543"><ele>584.0</ele><time>2026-05-01T10:35:12Z</time></trkpt><trkpt lat="44.495178256679985" lon="8.714638771024383"><ele>595.0</ele><time>2026-05-01T10:35:13Z</time></trkpt><trkpt lat="44.495022839046676" lon="8.714695114109322"><ele>595.0</ele><time>2026-05-01T10:35:14Z</time></trkpt><trkpt lat="44.49488917361542" lon="8.714747641633254"><ele>595.0</ele><time>2026-05-01T10:35:15Z</time></trkpt><trkpt lat="44.49478516193393" lon="8.714793780538765"><ele>595.0</ele><time>2026-05-01T10:35:16Z</time></trkpt><trkpt lat="44.49468971927873" lon="8.714842470140033"><ele>595.0</ele><time>2026-05-01T10:35:17Z</time></trkpt><trkpt lat="44.49457769736294" lon="8.714893198233257"><ele>598.6</ele><time>2026-05-01T10:35:18Z</time></trkpt><trkpt lat="44.49447357421262" lon="8.714966341086724"><ele>602.2</ele><time>2026-05-01T10:35:19Z</time></trkpt><trkpt lat="44.494378839073406" lon="8.715054319441453"><ele>605.8</ele><time>2026-05-01T10:35:20Z</time></trkpt><trkpt lat="44.49428479317676" lon="8.715121546332671"><ele>609.4</ele><time>2026-05-01T10:35:21Z</time></trkpt><trkpt lat="44.49420726642265" lon="8.715237188285386"><ele>613.0</ele><time>2026-05-01T10:35:22Z</time></trkpt><trkpt lat="44.49413145610095" lon="8.715348616386551"><ele>613.0</ele><time>2026-05-01T10:35:23Z</time></trkpt><trkpt lat="44.49407606137423" lon="8.715455969376192"><ele>613.0</ele><time>2026-05-01T10:35:24Z</time></trkpt><trkpt lat="44.49405761096349" lon="8.71556268245425"><ele>613.0</ele><time>2026-05-01T10:35:25Z</time></trkpt><trkpt lat="44.494078674677134" lon="8.715693198289292"><ele>613.0</ele><time>2026-05-01T10:35:26Z</time></trkpt><trkpt lat="44.49409000825326" lon="8.71583028204388"><ele>613.0</ele><time>2026-05-01T10:35:27Z</time></trkpt><trkpt lat="44.49408782184378" lon="8.71598321765816"><ele>613.0</ele><time>2026-05-01T10:35:29Z</time></trkpt><trkpt lat="44.49403525942229" lon="8.716068440492124"><ele>613.0</ele><time>2026-05-01T10:35:30Z</time></trkpt><trkpt lat="44.49395339654261" lon="8.716137813693436"><ele>613.0</ele><time>2026-05-01T10:35:31Z</time></trkpt><trkpt lat="44.493876238670644" lon="8.716242278293983"><ele>613.0</ele><time>2026-05-01T10:35:32Z</time></trkpt><trkpt lat="44.493810366850816" lon="8.716270725018125"><ele>613.0</ele><time>2026-05-01T10:35:33Z</time></trkpt><trkpt lat="44.49368025753698" lon="8.716307338000181"><ele>613.8</ele><time>2026-05-01T10:35:35Z</time></trkpt><trkpt lat="44.49358995733926" lon="8.71629044198894"><ele>614.5999999999999</ele><time>2026-05-01T10:35:36Z</time></trkpt><trkpt lat="44.49348707315952" lon="8.716241558740721"><ele>615.4000000000001</ele><time>2026-05-01T10:35:37Z</time></trkpt><trkpt lat="44.49337524454413" lon="8.716203603019123"><ele>616.2</ele><time>2026-05-01T10:35:38Z</time></trkpt><trkpt lat="44.49325550949397" lon="8.716213884262187"><ele>617.0</ele><time>2026-05-01T10:35:39Z</time></trkpt><trkpt lat="44.49312375818034" lon="8.7162484463491"><ele>617.0</ele><time>2026-05-01T10:35:40Z</time></trkpt><trkpt lat="44.49299087424474" lon="8.716285275391424"><ele>617.0</ele><time>2026-05-01T10:35:41Z</time></trkpt><trkpt lat="44.49286278683189" lon="8.716314646324394"><ele>617.0</ele><time>2026-05-01T10:35:42Z</time></trkpt><trkpt lat="44.49276792649759" lon="8.716335952313354"><ele>617.0</ele><time>2026-05-01T10:35:43Z</time></trkpt><trkpt lat="44.49268780633534" lon="8.716346797924889"><ele>617.0</ele><time>2026-05-01T10:35:44Z</time></trkpt><trkpt lat="44.49257031730876" lon="8.716274688777576"><ele>620.0</ele><time>2026-05-01T10:35:46Z</time></trkpt><trkpt lat="44.49250704091448" lon="8.716242795960389"><ele>623.0</ele><time>2026-05-01T10:35:47Z</time></trkpt><trkpt lat="44.49243010447385" lon="8.716244632573057"><ele>626.0</ele><time>2026-05-01T10:35:49Z</time></trkpt><trkpt lat="44.492337107038" lon="8.716290284415162"><ele>629.0</ele><time>2026-05-01T10:35:51Z</time></trkpt><trkpt lat="44.492283595922736" lon="8.71635290453786"><ele>632.0</ele><time>2026-05-01T10:35:52Z</time></trkpt><trkpt lat="44.4922349123157" lon="8.716443881655858"><ele>635.0</ele><time>2026-05-01T10:35:53Z</time></trkpt><trkpt lat="44.49217588219718" lon="8.716507802793204"><ele>635.0</ele><time>2026-05-01T10:35:54Z</time></trkpt><trkpt lat="44.4921104275258" lon="8.716591405887966"><ele>635.0</ele><time>2026-05-01T10:35:56Z</time></trkpt><trkpt lat="44.49203329193907" lon="8.716643855991787"><ele>635.0</ele><time>2026-05-01T10:36:02Z</time></trkpt><trkpt lat="44.491956240094865" lon="8.716620535253416"><ele>635.0</ele><time>2026-05-01T10:36:06Z</time></trkpt><trkpt lat="44.491891521204955" lon="8.716569286224185"><ele>635.0</ele><time>2026-05-01T10:36:07Z</time></trkpt><trkpt lat="44.49179946688242" lon="8.7166256967464"><ele>635.0</ele><time>2026-05-01T10:36:08Z</time></trkpt><trkpt lat="44.491750600746826" lon="8.716692099989077"><ele>635.8</ele><time>2026-05-01T10:36:09Z</time></trkpt><trkpt lat="44.491689133541506" lon="8.716742607187262"><ele>636.6</ele><time>2026-05-01T10:36:10Z</time></trkpt><trkpt lat="44.49153710811517" lon="8.716774829880086"><ele>637.4</ele><time>2026-05-01T10:36:12Z</time></trkpt><trkpt lat="44.491468952713966" lon="8.716752086524071"><ele>638.2</ele><time>2026-05-01T10:36:13Z</time></trkpt><trkpt lat="44.49139306387759" lon="8.716741027833402"><ele>639.0</ele><time>2026-05-01T10:36:14Z</time></trkpt><trkpt lat="44.491306953265095" lon="8.71673554297328"><ele>641.0</ele><time>2026-05-01T10:36:15Z</time></trkpt><trkpt lat="44.491226978246914" lon="8.716735551134159"><ele>643.0</ele><time>2026-05-01T10:36:16Z</time></trkpt><trkpt lat="44.491124375733506" lon="8.716824916211054"><ele>645.0</ele><time>2026-05-01T10:36:18Z</time></trkpt><trkpt lat="44.49110728263242" lon="8.71703851036083"><ele>647.0</ele><time>2026-05-01T10:36:20Z</time></trkpt><trkpt lat="44.491108345008364" lon="8.71718459492565"><ele>647.2</ele><time>2026-05-01T10:36:21Z</time></trkpt><trkpt lat="44.49110463660441" lon="8.717326629344402"><ele>647.4000000000001</ele><time>2026-05-01T10:36:22Z</time></trkpt><trkpt lat="44.49108955274658" lon="8.717463007310378"><ele>647.5999999999999</ele><time>2026-05-01T10:36:23Z</time></trkpt><trkpt lat="44.49106755541196" lon="8.717603464982503"><ele>647.8</ele><time>2026-05-01T10:36:24Z</time></trkpt><trkpt lat="44.491039841615724" lon="8.717752563387515"><ele>648.0</ele><time>2026-05-01T10:36:25Z</time></trkpt><trkpt lat="44.49098882754068" lon="8.717910382669924"><ele>645.8</ele><time>2026-05-01T10:36:26Z</time></trkpt><trkpt lat="44.4909155374986" lon="8.71801768773324"><ele>643.5999999999999</ele><time>2026-05-01T10:36:27Z</time></trkpt><trkpt lat="44.490865645720845" lon="8.718149338369258"><ele>641.4000000000001</ele><time>2026-05-01T10:36:28Z</time></trkpt><trkpt lat="44.49080572125779" lon="8.718253840789131"><ele>639.2</ele><time>2026-05-01T10:36:29Z</time></trkpt><trkpt lat="44.4907461061737" lon="8.718374447196103"><ele>637.0</ele><time>2026-05-01T10:36:30Z</time></trkpt><trkpt lat="44.49067336396561" lon="8.718507061913186"><ele>632.3333333333334</ele><time>2026-05-01T10:36:31Z</time></trkpt><trkpt lat="44.490577904781986" lon="8.71865547444567"><ele>627.6666666666666</ele><time>2026-05-01T10:36:32Z</time></trkpt><trkpt lat="44.49047988361799" lon="8.718828921474957"><ele>623.0</ele><time>2026-05-01T10:36:33Z</time></trkpt><trkpt lat="44.49037136852691" lon="8.719032942819915"><ele>627.0</ele><time>2026-05-01T10:36:34Z</time></trkpt><trkpt lat="44.49028580322617" lon="8.719248689155387"><ele>631.0</ele><time>2026-05-01T10:36:35Z</time></trkpt><trkpt lat="44.49022782252438" lon="8.719436145421183"><ele>635.0</ele><time>2026-05-01T10:36:36Z</time></trkpt><trkpt lat="44.49017745961832" lon="8.71958665044923"><ele>639.0</ele><time>2026-05-01T10:36:37Z</time></trkpt><trkpt lat="44.490100408446466" lon="8.719677428731732"><ele>639.0</ele><time>2026-05-01T10:36:38Z</time></trkpt><trkpt lat="44.490028272850786" lon="8.719722408139177"><ele>639.0</ele><time>2026-05-01T10:36:39Z</time></trkpt><trkpt lat="44.48988224098184" lon="8.719670449773973"><ele>639.0</ele><time>2026-05-01T10:36:41Z</time></trkpt><trkpt lat="44.489758396858136" lon="8.719644430583752"><ele>639.0</ele><time>2026-05-01T10:36:42Z</time></trkpt><trkpt lat="44.489650558446336" lon="8.71971667700573"><ele>642.0</ele><time>2026-05-01T10:36:43Z</time></trkpt><trkpt lat="44.48956471179004" lon="8.719838786075195"><ele>645.0</ele><time>2026-05-01T10:36:44Z</time></trkpt><trkpt lat="44.48948442066871" lon="8.719994360927336"><ele>648.0</ele><time>2026-05-01T10:36:45Z</time></trkpt><trkpt lat="44.489386739962036" lon="8.720140716149894"><ele>651.0</ele><time>2026-05-01T10:36:46Z</time></trkpt><trkpt lat="44.48926953577192" lon="8.720265347127635"><ele>644.75</ele><time>2026-05-01T10:36:47Z</time></trkpt><trkpt lat="44.48915078628968" lon="8.720350622759852"><ele>638.5</ele><time>2026-05-01T10:36:48Z</time></trkpt><trkpt lat="44.48902575216085" lon="8.720409540882656"><ele>632.25</ele><time>2026-05-01T10:36:49Z</time></trkpt><trkpt lat="44.48890194243253" lon="8.720426852077313"><ele>626.0</ele><time>2026-05-01T10:36:50Z</time></trkpt><trkpt lat="44.488796702354705" lon="8.720452637424877"><ele>630.0</ele><time>2026-05-01T10:36:51Z</time></trkpt><trkpt lat="44.48872052964459" lon="8.720510708849426"><ele>634.0</ele><time>2026-05-01T10:36:52Z</time></trkpt><trkpt lat="44.488662311534036" lon="8.720633969367348"><ele>638.0</ele><time>2026-05-01T10:36:53Z</time></trkpt><trkpt lat="44.48860522360942" lon="8.720787160190229"><ele>642.0</ele><time>2026-05-01T10:36:54Z</time></trkpt><trkpt lat="44.48852770927253" lon="8.720948033911691"><ele>635.25</ele><time>2026-05-01T10:36:55Z</time></trkpt><trkpt lat="44.48841668405979" lon="8.721107686247443"><ele>628.5</ele><time>2026-05-01T10:36:56Z</time></trkpt><trkpt lat="44.48832497173457" lon="8.721177978758906"><ele>621.75</ele><time>2026-05-01T10:36:57Z</time></trkpt><trkpt lat="44.488231564260005" lon="8.721256406991568"><ele>615.0</ele><time>2026-05-01T10:36:58Z</time></trkpt><trkpt lat="44.48810530538663" lon="8.721249858803604"><ele>615.0</ele><time>2026-05-01T10:36:59Z</time></trkpt><trkpt lat="44.487978965790916" lon="8.7213244898533"><ele>615.0</ele><time>2026-05-01T10:37:00Z</time></trkpt><trkpt lat="44.487863226707596" lon="8.721431098520638"><ele>615.0</ele><time>2026-05-01T10:37:01Z</time></trkpt><trkpt lat="44.48777535630693" lon="8.721559284816609"><ele>615.0</ele><time>2026-05-01T10:37:02Z</time></trkpt><trkpt lat="44.48770058279408" lon="8.721689273485978"><ele>614.8333333333334</ele><time>2026-05-01T10:37:03Z</time></trkpt><trkpt lat="44.487636491672035" lon="8.721817103781582"><ele>614.6666666666666</ele><time>2026-05-01T10:37:04Z</time></trkpt><trkpt lat="44.48757203276684" lon="8.721928332825934"><ele>614.5</ele><time>2026-05-01T10:37:05Z</time></trkpt><trkpt lat="44.48752190909984" lon="8.722004363556438"><ele>614.3333333333333</ele><time>2026-05-01T10:37:06Z</time></trkpt><trkpt lat="44.48747291690603" lon="8.722064305270415"><ele>614.1666666666666</ele><time>2026-05-01T10:37:08Z</time></trkpt><trkpt lat="44.48740005632992" lon="8.72210431788766"><ele>614.0</ele><time>2026-05-01T10:37:42Z</time></trkpt><trkpt lat="44.48730484123581" lon="8.722002056652277"><ele>614.0</ele><time>2026-05-01T10:37:43Z</time></trkpt><trkpt lat="44.487180560576384" lon="8.721968617191637"><ele>614.0</ele><time>2026-05-01T10:37:44Z</time></trkpt><trkpt lat="44.48706063969024" lon="8.721908127976198"><ele>614.0</ele><time>2026-05-01T10:37:45Z</time></trkpt><trkpt lat="44.48696756034729" lon="8.721846985552583"><ele>614.0</ele><time>2026-05-01T10:37:46Z</time></trkpt><trkpt lat="44.486871421928754" lon="8.721751271752494"><ele>616.3333333333333</ele><time>2026-05-01T10:37:47Z</time></trkpt><trkpt lat="44.48674280490938" lon="8.721649205326122"><ele>618.6666666666666</ele><time>2026-05-01T10:37:48Z</time></trkpt><trkpt lat="44.4865791797677" lon="8.72153699507804"><ele>621.0</ele><time>2026-05-01T10:37:49Z</time></trkpt><trkpt lat="44.48645153038523" lon="8.721427406471236"><ele>621.0</ele><time>2026-05-01T10:37:50Z</time></trkpt><trkpt lat="44.48634988281166" lon="8.72131246927336"><ele>621.0</ele><time>2026-05-01T10:37:51Z</time></trkpt><trkpt lat="44.486304859787744" lon="8.721201389612169"><ele>621.0</ele><time>2026-05-01T10:37:52Z</time></trkpt><trkpt lat="44.48632304192269" lon="8.721044648270883"><ele>621.0</ele><time>2026-05-01T10:37:53Z</time></trkpt><trkpt lat="44.48630406496993" lon="8.720847167466765"><ele>626.5</ele><time>2026-05-01T10:37:54Z</time></trkpt><trkpt lat="44.48628720869968" lon="8.72064982460125"><ele>632.0</ele><time>2026-05-01T10:37:55Z</time></trkpt><trkpt lat="44.48628131573699" lon="8.720493586753852"><ele>637.5</ele><time>2026-05-01T10:37:56Z</time></trkpt><trkpt lat="44.48629554318946" lon="8.720333018458144"><ele>643.0</ele><time>2026-05-01T10:37:57Z</time></trkpt><trkpt lat="44.48636757154785" lon="8.720215198505105"><ele>643.5</ele><time>2026-05-01T10:37:58Z</time></trkpt><trkpt lat="44.48643975799093" lon="8.72009273282502"><ele>644.0</ele><time>2026-05-01T10:37:59Z</time></trkpt><trkpt lat="44.48651576665739" lon="8.719933299674285"><ele>644.5</ele><time>2026-05-01T10:38:00Z</time></trkpt><trkpt lat="44.486583084697024" lon="8.71971170382018"><ele>645.0</ele><time>2026-05-01T10:38:01Z</time></trkpt><trkpt lat="44.48665027448507" lon="8.719468421998055"><ele>640.3333333333334</ele><time>2026-05-01T10:38:02Z</time></trkpt><trkpt lat="44.486773390001815" lon="8.719251628489136"><ele>635.6666666666667</ele><time>2026-05-01T10:38:03Z</time></trkpt><trkpt lat="44.48686894336924" lon="8.719027885141534"><ele>631.0</ele><time>2026-05-01T10:38:04Z</time></trkpt><trkpt lat="44.486942984807285" lon="8.718874900427846"><ele>631.0</ele><time>2026-05-01T10:38:05Z</time></trkpt><trkpt lat="44.486944113340414" lon="8.718724339288652"><ele>631.0</ele><time>2026-05-01T10:38:06Z</time></trkpt><trkpt lat="44.48688150901757" lon="8.718561003033614"><ele>631.0</ele><time>2026-05-01T10:38:07Z</time></trkpt><trkpt lat="44.48678477167725" lon="8.71837459865316"><ele>631.0</ele><time>2026-05-01T10:38:08Z</time></trkpt><trkpt lat="44.48675955283142" lon="8.718164765037821"><ele>632.3333333333334</ele><time>2026-05-01T10:38:09Z</time></trkpt><trkpt lat="44.48676515232314" lon="8.71795029969473"><ele>633.6666666666666</ele><time>2026-05-01T10:38:10Z</time></trkpt><trkpt lat="44.48679141146373" lon="8.717698922973838"><ele>635.0</ele><time>2026-05-01T10:38:11Z</time></trkpt><trkpt lat="44.48681044665491" lon="8.717439997686679"><ele>637.6666666666666</ele><time>2026-05-01T10:38:12Z</time></trkpt><trkpt lat="44.4868324184612" lon="8.717182258684678"><ele>640.3333333333334</ele><time>2026-05-01T10:38:13Z</time></trkpt><trkpt lat="44.48681564143647" lon="8.71697884756254"><ele>643.0</ele><time>2026-05-01T10:38:14Z</time></trkpt><trkpt lat="44.486735838084094" lon="8.716831852862649"><ele>645.6666666666667</ele><time>2026-05-01T10:38:15Z</time></trkpt><trkpt lat="44.486602524595696" lon="8.716742795893332"><ele>648.3333333333334</ele><time>2026-05-01T10:38:16Z</time></trkpt><trkpt lat="44.486436728524296" lon="8.716712771940749"><ele>651.0</ele><time>2026-05-01T10:38:17Z</time></trkpt><trkpt lat="44.486241971718954" lon="8.716717484542508"><ele>651.0</ele><time>2026-05-01T10:38:18Z</time></trkpt><trkpt lat="44.486050561988584" lon="8.716695302062112"><ele>651.0</ele><time>2026-05-01T10:38:19Z</time></trkpt><trkpt lat="44.4858520700482" lon="8.716663212934437"><ele>651.0</ele><time>2026-05-01T10:38:20Z</time></trkpt><trkpt lat="44.485658273354574" lon="8.71664094690279"><ele>651.0</ele><time>2026-05-01T10:38:21Z</time></trkpt><trkpt lat="44.485519013245714" lon="8.716594562908245"><ele>651.0</ele><time>2026-05-01T10:38:22Z</time></trkpt><trkpt lat="44.485436415901376" lon="8.71656128353686"><ele>651.0</ele><time>2026-05-01T10:38:23Z</time></trkpt><trkpt lat="44.4854412318878" lon="8.716409783688588"><ele>651.0</ele><time>2026-05-01T10:38:24Z</time></trkpt><trkpt lat="44.48546568549842" lon="8.716281330151627"><ele>651.0</ele><time>2026-05-01T10:38:25Z</time></trkpt><trkpt lat="44.4855899979732" lon="8.716180058182001"><ele>653.6666666666666</ele><time>2026-05-01T10:38:26Z</time></trkpt><trkpt lat="44.485702542630975" lon="8.716034944296997"><ele>656.3333333333333</ele><time>2026-05-01T10:38:27Z</time></trkpt><trkpt lat="44.485829884815296" lon="8.715883762747291"><ele>659.0</ele><time>2026-05-01T10:38:28Z</time></trkpt><trkpt lat="44.48595043748847" lon="8.715723284577994"><ele>659.0</ele><time>2026-05-01T10:38:29Z</time></trkpt><trkpt lat="44.48602889243687" lon="8.715606301757788"><ele>659.0</ele><time>2026-05-01T10:38:30Z</time></trkpt><trkpt lat="44.48606575393558" lon="8.715373006699467"><ele>659.0</ele><time>2026-05-01T10:38:31Z</time></trkpt><trkpt lat="44.4860297510145" lon="8.715189145657526"><ele>659.0</ele><time>2026-05-01T10:38:32Z</time></trkpt><trkpt lat="44.485958991524214" lon="8.715003331141766"><ele>661.3333333333333</ele><time>2026-05-01T10:38:33Z</time></trkpt><trkpt lat="44.485845424129835" lon="8.714861522342941"><ele>663.6666666666666</ele><time>2026-05-01T10:38:34Z</time></trkpt><trkpt lat="44.4856904353356" lon="8.714814679967349"><ele>666.0</ele><time>2026-05-01T10:38:35Z</time></trkpt><trkpt lat="44.48550648757548" lon="8.714748964741249"><ele>663.0</ele><time>2026-05-01T10:38:36Z</time></trkpt><trkpt lat="44.48532517399957" lon="8.714713673287624"><ele>660.0</ele><time>2026-05-01T10:38:37Z</time></trkpt><trkpt lat="44.48519988097608" lon="8.714632803881871"><ele>657.0</ele><time>2026-05-01T10:38:38Z</time></trkpt><trkpt lat="44.48508512379288" lon="8.714529266656566"><ele>664.0</ele><time>2026-05-01T10:38:39Z</time></trkpt><trkpt lat="44.48497806130887" lon="8.714341521607212"><ele>671.0</ele><time>2026-05-01T10:38:40Z</time></trkpt><trkpt lat="44.48482157956742" lon="8.71421704611101"><ele>678.0</ele><time>2026-05-01T10:38:41Z</time></trkpt><trkpt lat="44.48466823322258" lon="8.714122451188967"><ele>681.3333333333334</ele><time>2026-05-01T10:38:42Z</time></trkpt><trkpt lat="44.484576540922845" lon="8.71398450645719"><ele>684.6666666666667</ele><time>2026-05-01T10:38:43Z</time></trkpt><trkpt lat="44.48451295923238" lon="8.71378462068019"><ele>688.0</ele><time>2026-05-01T10:38:44Z</time></trkpt><trkpt lat="44.48446946748235" lon="8.713553459126562"><ele>688.0</ele><time>2026-05-01T10:38:45Z</time></trkpt><trkpt lat="44.484460724553195" lon="8.713331232451036"><ele>688.0</ele><time>2026-05-01T10:38:46Z</time></trkpt><trkpt lat="44.484316037467494" lon="8.713288320531635"><ele>688.0</ele><time>2026-05-01T10:38:47Z</time></trkpt><trkpt lat="44.48416949239232" lon="8.713226887938552"><ele>688.0</ele><time>2026-05-01T10:38:48Z</time></trkpt><trkpt lat="44.484005174224016" lon="8.713164781103123"><ele>688.0</ele><time>2026-05-01T10:38:49Z</time></trkpt><trkpt lat="44.48382470619604" lon="8.713147128374029"><ele>688.0</ele><time>2026-05-01T10:38:50Z</time></trkpt><trkpt lat="44.48362185658424" lon="8.713130201501336"><ele>687.0</ele><time>2026-05-01T10:38:51Z</time></trkpt><trkpt lat="44.4834321829292" lon="8.713064993903876"><ele>686.0</ele><time>2026-05-01T10:38:52Z</time></trkpt><trkpt lat="44.48325274382484" lon="8.712988879800362"><ele>685.0</ele><time>2026-05-01T10:38:53Z</time></trkpt><trkpt lat="44.48308403500759" lon="8.713007199414838"><ele>689.6666666666667</ele><time>2026-05-01T10:38:54Z</time></trkpt><trkpt lat="44.48288891788657" lon="8.713071389893145"><ele>694.3333333333334</ele><time>2026-05-01T10:38:55Z</time></trkpt><trkpt lat="44.48267574741856" lon="8.713128919949638"><ele>699.0</ele><time>2026-05-01T10:38:56Z</time></trkpt><trkpt lat="44.48245333549572" lon="8.71321023397542"><ele>699.0</ele><time>2026-05-01T10:38:57Z</time></trkpt><trkpt lat="44.48225431475343" lon="8.713280648321488"><ele>699.0</ele><time>2026-05-01T10:38:58Z</time></trkpt><trkpt lat="44.48209688740944" lon="8.71333388037569"><ele>699.0</ele><time>2026-05-01T10:38:59Z</time></trkpt><trkpt lat="44.481968905405516" lon="8.713330484594753"><ele>697.75</ele><time>2026-05-01T10:39:00Z</time></trkpt><trkpt lat="44.481866823839546" lon="8.713260338511502"><ele>696.5</ele><time>2026-05-01T10:39:01Z</time></trkpt><trkpt lat="44.48179482829721" lon="8.713157673340824"><ele>695.25</ele><time>2026-05-01T10:39:02Z</time></trkpt><trkpt lat="44.48173071581127" lon="8.713021810737363"><ele>694.0</ele><time>2026-05-01T10:39:03Z</time></trkpt><trkpt lat="44.481655836630146" lon="8.712850186541285"><ele>696.5</ele><time>2026-05-01T10:39:04Z</time></trkpt><trkpt lat="44.48156510867746" lon="8.71269944585556"><ele>699.0</ele><time>2026-05-01T10:39:05Z</time></trkpt><trkpt lat="44.48143490191004" lon="8.71263629775493"><ele>701.5</ele><time>2026-05-01T10:39:06Z</time></trkpt><trkpt lat="44.48128979164821" lon="8.712599249438833"><ele>704.0</ele><time>2026-05-01T10:39:07Z</time></trkpt><trkpt lat="44.48116421272281" lon="8.712481320876792"><ele>704.0</ele><time>2026-05-01T10:39:08Z</time></trkpt><trkpt lat="44.48103246484191" lon="8.712320948068117"><ele>704.0</ele><time>2026-05-01T10:39:09Z</time></trkpt><trkpt lat="44.48085016064972" lon="8.712209394795591"><ele>704.0</ele><time>2026-05-01T10:39:10Z</time></trkpt><trkpt lat="44.48069933874083" lon="8.71211724557145"><ele>704.0</ele><time>2026-05-01T10:39:11Z</time></trkpt><trkpt lat="44.48057558885645" lon="8.712058495386758"><ele>704.0</ele><time>2026-05-01T10:39:12Z</time></trkpt><trkpt lat="44.48051255948166" lon="8.711993866758878"><ele>704.0</ele><time>2026-05-01T10:39:13Z</time></trkpt><trkpt lat="44.4804559720316" lon="8.711945338511248"><ele>704.0</ele><time>2026-05-01T10:39:14Z</time></trkpt><trkpt lat="44.48042899986343" lon="8.711847627635745"><ele>704.0</ele><time>2026-05-01T10:39:15Z</time></trkpt><trkpt lat="44.48040453081579" lon="8.71172843770817"><ele>704.0</ele><time>2026-05-01T10:39:16Z</time></trkpt><trkpt lat="44.48034189020143" lon="8.711631151038077"><ele>707.8000000000001</ele><time>2026-05-01T10:39:17Z</time></trkpt><trkpt lat="44.480277723289035" lon="8.711543313133511"><ele>711.6</ele><time>2026-05-01T10:39:18Z</time></trkpt><trkpt lat="44.480172074534096" lon="8.71145952390836"><ele>715.4</ele><time>2026-05-01T10:39:19Z</time></trkpt><trkpt lat="44.48007662550277" lon="8.71140491264356"><ele>719.2</ele><time>2026-05-01T10:39:20Z</time></trkpt><trkpt lat="44.479989963562005" lon="8.711367028735609"><ele>723.0</ele><time>2026-05-01T10:39:21Z</time></trkpt><trkpt lat="44.4799008721367" lon="8.711332757703955"><ele>723.0</ele><time>2026-05-01T10:39:22Z</time></trkpt><trkpt lat="44.47980611364178" lon="8.71130074322481"><ele>723.0</ele><time>2026-05-01T10:39:23Z</time></trkpt><trkpt lat="44.47972659293495" lon="8.711277921485983"><ele>723.0</ele><time>2026-05-01T10:39:24Z</time></trkpt><trkpt lat="44.47965872593165" lon="8.711296230641357"><ele>723.0</ele><time>2026-05-01T10:39:25Z</time></trkpt><trkpt lat="44.479576669318156" lon="8.711364002415428"><ele>723.0</ele><time>2026-05-01T10:39:26Z</time></trkpt><trkpt lat="44.479491010177405" lon="8.711471312780512"><ele>720.4</ele><time>2026-05-01T10:39:27Z</time></trkpt><trkpt lat="44.479407724325945" lon="8.711595094766386"><ele>717.8</ele><time>2026-05-01T10:39:28Z</time></trkpt><trkpt lat="44.4793231979176" lon="8.711709726003777"><ele>715.2</ele><time>2026-05-01T10:39:29Z</time></trkpt><trkpt lat="44.47925379529853" lon="8.711813299284598"><ele>712.6</ele><time>2026-05-01T10:39:30Z</time></trkpt><trkpt lat="44.47918498291348" lon="8.711906511874353"><ele>710.0</ele><time>2026-05-01T10:39:31Z</time></trkpt><trkpt lat="44.479115428333714" lon="8.712002671474794"><ele>710.0</ele><time>2026-05-01T10:39:32Z</time></trkpt><trkpt lat="44.479052591621645" lon="8.71208377349425"><ele>710.0</ele><time>2026-05-01T10:39:33Z</time></trkpt><trkpt lat="44.47896900227334" lon="8.712145850777855"><ele>710.0</ele><time>2026-05-01T10:39:34Z</time></trkpt><trkpt lat="44.47887487310579" lon="8.71219362051731"><ele>710.0</ele><time>2026-05-01T10:39:35Z</time></trkpt><trkpt lat="44.47876593508824" lon="8.712196371645694"><ele>710.0</ele><time>2026-05-01T10:39:36Z</time></trkpt><trkpt lat="44.4786428455238" lon="8.712203739506803"><ele>712.0</ele><time>2026-05-01T10:39:37Z</time></trkpt><trkpt lat="44.478542450822054" lon="8.712223724471468"><ele>714.0</ele><time>2026-05-01T10:39:38Z</time></trkpt><trkpt lat="44.47845452553542" lon="8.712229461201682"><ele>716.0</ele><time>2026-05-01T10:39:39Z</time></trkpt><trkpt lat="44.47836956456186" lon="8.712229010866494"><ele>718.0</ele><time>2026-05-01T10:39:40Z</time></trkpt><trkpt lat="44.47830147097273" lon="8.712230751636694"><ele>720.0</ele><time>2026-05-01T10:39:41Z</time></trkpt><trkpt lat="44.47817323229306" lon="8.71220810374337"><ele>720.0</ele><time>2026-05-01T10:39:43Z</time></trkpt><trkpt lat="44.478103140410354" lon="8.712119184295751"><ele>720.0</ele><time>2026-05-01T10:39:44Z</time></trkpt><trkpt lat="44.478046310288406" lon="8.712000550918352"><ele>720.0</ele><time>2026-05-01T10:39:45Z</time></trkpt><trkpt lat="44.47797920520401" lon="8.711872505799468"><ele>720.0</ele><time>2026-05-01T10:39:46Z</time></trkpt><trkpt lat="44.47789980008623" lon="8.711798976758772"><ele>720.0</ele><time>2026-05-01T10:39:47Z</time></trkpt><trkpt lat="44.477796065027945" lon="8.711814212137902"><ele>720.6666666666666</ele><time>2026-05-01T10:39:48Z</time></trkpt><trkpt lat="44.4777105331242" lon="8.711860735627084"><ele>721.3333333333334</ele><time>2026-05-01T10:39:49Z</time></trkpt><trkpt lat="44.47763557757924" lon="8.711917360967629"><ele>722.0</ele><time>2026-05-01T10:39:50Z</time></trkpt><trkpt lat="44.47756302786889" lon="8.711948034853698"><ele>722.6666666666667</ele><time>2026-05-01T10:39:51Z</time></trkpt><trkpt lat="44.47749497800113" lon="8.711948285458869"><ele>723.3333333333334</ele><time>2026-05-01T10:39:52Z</time></trkpt><trkpt lat="44.47741535955993" lon="8.711898609725896"><ele>724.0</ele><time>2026-05-01T10:39:53Z</time></trkpt><trkpt lat="44.47735049445839" lon="8.711818764239398"><ele>727.3333333333334</ele><time>2026-05-01T10:39:54Z</time></trkpt><trkpt lat="44.477321824187875" lon="8.71173906694006"><ele>730.6666666666667</ele><time>2026-05-01T10:39:55Z</time></trkpt><trkpt lat="44.47730987610048" lon="8.711607722655545"><ele>734.0</ele><time>2026-05-01T10:39:57Z</time></trkpt><trkpt lat="44.4773576167455" lon="8.711485135942393"><ele>737.3333333333334</ele><time>2026-05-01T10:39:59Z</time></trkpt><trkpt lat="44.47741251695068" lon="8.711394660865619"><ele>740.6666666666666</ele><time>2026-05-01T10:40:00Z</time></trkpt><trkpt lat="44.47746412039997" lon="8.711290122587629"><ele>744.0</ele><time>2026-05-01T10:40:01Z</time></trkpt><trkpt lat="44.47753844946963" lon="8.711170227133016"><ele>744.0</ele><time>2026-05-01T10:40:02Z</time></trkpt><trkpt lat="44.4776187609404" lon="8.71110794273315"><ele>744.0</ele><time>2026-05-01T10:40:03Z</time></trkpt><trkpt lat="44.47769415024187" lon="8.711083047328115"><ele>744.0</ele><time>2026-05-01T10:40:04Z</time></trkpt><trkpt lat="44.47777248657427" lon="8.711018955575394"><ele>744.0</ele><time>2026-05-01T10:40:05Z</time></trkpt><trkpt lat="44.47784379196663" lon="8.710896064381304"><ele>744.0</ele><time>2026-05-01T10:40:06Z</time></trkpt><trkpt lat="44.47787669059887" lon="8.710731060294888"><ele>747.3333333333334</ele><time>2026-05-01T10:40:07Z</time></trkpt><trkpt lat="44.47793848991325" lon="8.710527978811509"><ele>750.6666666666667</ele><time>2026-05-01T10:40:08Z</time></trkpt><trkpt lat="44.478002471109775" lon="8.710301991885151"><ele>754.0</ele><time>2026-05-01T10:40:09Z</time></trkpt><trkpt lat="44.47808479454737" lon="8.710113327349973"><ele>754.0</ele><time>2026-05-01T10:40:10Z</time></trkpt><trkpt lat="44.47815289531195" lon="8.70996333034609"><ele>754.0</ele><time>2026-05-01T10:40:11Z</time></trkpt><trkpt lat="44.47821240903402" lon="8.70984114729612"><ele>754.0</ele><time>2026-05-01T10:40:12Z</time></trkpt><trkpt lat="44.47831097958884" lon="8.70974719283486"><ele>754.0</ele><time>2026-05-01T10:40:13Z</time></trkpt><trkpt lat="44.47841271281429" lon="8.709608009873227"><ele>754.0</ele><time>2026-05-01T10:40:14Z</time></trkpt><trkpt lat="44.47853684059425" lon="8.709481695040674"><ele>754.0</ele><time>2026-05-01T10:40:15Z</time></trkpt><trkpt lat="44.47865808702042" lon="8.709341250775324"><ele>754.0</ele><time>2026-05-01T10:40:16Z</time></trkpt><trkpt lat="44.478752496370575" lon="8.709225325541624"><ele>754.0</ele><time>2026-05-01T10:40:17Z</time></trkpt><trkpt lat="44.47883627062001" lon="8.709134284056905"><ele>757.4000000000001</ele><time>2026-05-01T10:40:18Z</time></trkpt><trkpt lat="44.47889672760487" lon="8.70903835896983"><ele>760.8</ele><time>2026-05-01T10:40:19Z</time></trkpt><trkpt lat="44.4789189375753" lon="8.70889522887625"><ele>764.2</ele><time>2026-05-01T10:40:20Z</time></trkpt><trkpt lat="44.478909102581035" lon="8.708741011414931"><ele>767.5999999999999</ele><time>2026-05-01T10:40:21Z</time></trkpt><trkpt lat="44.47885266730201" lon="8.708604646548817"><ele>771.0</ele><time>2026-05-01T10:40:22Z</time></trkpt><trkpt lat="44.47881699858145" lon="8.708469537598845"><ele>771.0</ele><time>2026-05-01T10:40:23Z</time></trkpt><trkpt lat="44.47878967937473" lon="8.708344293170912"><ele>771.0</ele><time>2026-05-01T10:40:24Z</time></trkpt><trkpt lat="44.478862578030814" lon="8.708222055709442"><ele>771.0</ele><time>2026-05-01T10:40:25Z</time></trkpt><trkpt lat="44.478934671364954" lon="8.70809064506462"><ele>771.0</ele><time>2026-05-01T10:40:26Z</time></trkpt><trkpt lat="44.478985733572856" lon="8.70796261908647"><ele>771.0</ele><time>2026-05-01T10:40:27Z</time></trkpt><trkpt lat="44.479031365472906" lon="8.707852160154124"><ele>771.5999999999999</ele><time>2026-05-01T10:40:28Z</time></trkpt><trkpt lat="44.47903633320591" lon="8.707719649556179"><ele>772.2</ele><time>2026-05-01T10:40:29Z</time></trkpt><trkpt lat="44.47899584860271" lon="8.707582963428113"><ele>772.8</ele><time>2026-05-01T10:40:30Z</time></trkpt><trkpt lat="44.47893867053871" lon="8.70744614101137"><ele>773.4000000000001</ele><time>2026-05-01T10:40:31Z</time></trkpt><trkpt lat="44.478921148253015" lon="8.707297041757796"><ele>774.0</ele><time>2026-05-01T10:40:32Z</time></trkpt><trkpt lat="44.47898573431948" lon="8.707136192640311"><ele>774.0</ele><time>2026-05-01T10:40:33Z</time></trkpt><trkpt lat="44.479037395971055" lon="8.706945321465023"><ele>774.0</ele><time>2026-05-01T10:40:34Z</time></trkpt><trkpt lat="44.47910311092121" lon="8.706752371676254"><ele>774.0</ele><time>2026-05-01T10:40:35Z</time></trkpt><trkpt lat="44.47913243946591" lon="8.70657617454751"><ele>774.0</ele><time>2026-05-01T10:40:36Z</time></trkpt><trkpt lat="44.47912512665042" lon="8.706404440719279"><ele>773.75</ele><time>2026-05-01T10:40:37Z</time></trkpt><trkpt lat="44.479088357174184" lon="8.706252902176844"><ele>773.5</ele><time>2026-05-01T10:40:38Z</time></trkpt><trkpt lat="44.47904174243323" lon="8.706133314415368"><ele>773.25</ele><time>2026-05-01T10:40:39Z</time></trkpt><trkpt lat="44.47896468323582" lon="8.706028312630156"><ele>773.0</ele><time>2026-05-01T10:40:40Z</time></trkpt><trkpt lat="44.47885851059709" lon="8.705920365656617"><ele>770.0</ele><time>2026-05-01T10:40:41Z</time></trkpt><trkpt lat="44.478744180238955" lon="8.705803668191676"><ele>767.0</ele><time>2026-05-01T10:40:42Z</time></trkpt><trkpt lat="44.47864673257046" lon="8.705696329739167"><ele>764.0</ele><time>2026-05-01T10:40:43Z</time></trkpt><trkpt lat="44.47858513261763" lon="8.705593637158069"><ele>761.0</ele><time>2026-05-01T10:40:44Z</time></trkpt><trkpt lat="44.47854422532485" lon="8.705511761151605"><ele>758.0</ele><time>2026-05-01T10:40:45Z</time></trkpt><trkpt lat="44.478562057917074" lon="8.705403811312163"><ele>758.0</ele><time>2026-05-01T10:40:46Z</time></trkpt><trkpt lat="44.47861367617355" lon="8.705311257210198"><ele>758.0</ele><time>2026-05-01T10:40:47Z</time></trkpt><trkpt lat="44.47871018029206" lon="8.70526744667099"><ele>758.0</ele><time>2026-05-01T10:40:48Z</time></trkpt><trkpt lat="44.47883251207583" lon="8.705196459761112"><ele>758.0</ele><time>2026-05-01T10:40:49Z</time></trkpt><trkpt lat="44.47899628862382" lon="8.705103389458138"><ele>760.3333333333333</ele><time>2026-05-01T10:40:50Z</time></trkpt><trkpt lat="44.479180763863205" lon="8.704982872961546"><ele>762.6666666666666</ele><time>2026-05-01T10:40:51Z</time></trkpt><trkpt lat="44.47937884303412" lon="8.704860905647218"><ele>765.0</ele><time>2026-05-01T10:40:52Z</time></trkpt><trkpt lat="44.47957815401071" lon="8.704695175228276"><ele>767.3333333333333</ele><time>2026-05-01T10:40:53Z</time></trkpt><trkpt lat="44.47976024922696" lon="8.704500875689394"><ele>769.6666666666666</ele><time>2026-05-01T10:40:54Z</time></trkpt><trkpt lat="44.47991154991179" lon="8.70429245972463"><ele>772.0</ele><time>2026-05-01T10:40:55Z</time></trkpt><trkpt lat="44.480073253581644" lon="8.704062524303701"><ele>772.0</ele><time>2026-05-01T10:40:56Z</time></trkpt><trkpt lat="44.480230307075296" lon="8.703830661446824"><ele>772.0</ele><time>2026-05-01T10:40:57Z</time></trkpt><trkpt lat="44.48036695140702" lon="8.703608455701133"><ele>772.0</ele><time>2026-05-01T10:40:58Z</time></trkpt><trkpt lat="44.480475877938446" lon="8.70343269627577"><ele>774.25</ele><time>2026-05-01T10:40:59Z</time></trkpt><trkpt lat="44.480539268377676" lon="8.70327435644484"><ele>776.5</ele><time>2026-05-01T10:41:00Z</time></trkpt><trkpt lat="44.480538672412834" lon="8.703066071578926"><ele>778.75</ele><time>2026-05-01T10:41:01Z</time></trkpt><trkpt lat="44.48055018599738" lon="8.702890025246074"><ele>781.0</ele><time>2026-05-01T10:41:02Z</time></trkpt><trkpt lat="44.48063694014543" lon="8.702775477355805"><ele>774.6666666666666</ele><time>2026-05-01T10:41:03Z</time></trkpt><trkpt lat="44.48074001291395" lon="8.702629798800327"><ele>768.3333333333333</ele><time>2026-05-01T10:41:04Z</time></trkpt><trkpt lat="44.48086139967652" lon="8.702453032621754"><ele>762.0</ele><time>2026-05-01T10:41:05Z</time></trkpt><trkpt lat="44.48098687316239" lon="8.70226171993904"><ele>762.0</ele><time>2026-05-01T10:41:06Z</time></trkpt><trkpt lat="44.48105712997311" lon="8.702016297704045"><ele>762.0</ele><time>2026-05-01T10:41:07Z</time></trkpt><trkpt lat="44.481061571474186" lon="8.70172245658067"><ele>762.0</ele><time>2026-05-01T10:41:08Z</time></trkpt><trkpt lat="44.48104822038511" lon="8.701390763590272"><ele>764.0</ele><time>2026-05-01T10:41:09Z</time></trkpt><trkpt lat="44.481042290247586" lon="8.701059123178233"><ele>766.0</ele><time>2026-05-01T10:41:10Z</time></trkpt><trkpt lat="44.48103169880644" lon="8.700755928694548"><ele>766.0</ele><time>2026-05-01T10:41:11Z</time></trkpt><trkpt lat="44.48097620397595" lon="8.700485978865368"><ele>766.0</ele><time>2026-05-01T10:41:12Z</time></trkpt><trkpt lat="44.48086964010529" lon="8.700154046414873"><ele>767.3333333333334</ele><time>2026-05-01T10:41:13Z</time></trkpt><trkpt lat="44.48086612567636" lon="8.69978990653567"><ele>768.6666666666667</ele><time>2026-05-01T10:41:14Z</time></trkpt><trkpt lat="44.480953649792355" lon="8.699612953774711"><ele>770.0</ele><time>2026-05-01T10:41:16Z</time></trkpt><trkpt lat="44.48097598222005" lon="8.699401153530829"><ele>773.6666666666667</ele><time>2026-05-01T10:41:17Z</time></trkpt><trkpt lat="44.48097572209179" lon="8.699197346753158"><ele>777.3333333333333</ele><time>2026-05-01T10:41:18Z</time></trkpt><trkpt lat="44.480872832385444" lon="8.69901137908403"><ele>781.0</ele><time>2026-05-01T10:41:19Z</time></trkpt><trkpt lat="44.48072116092294" lon="8.698839708163149"><ele>781.0</ele><time>2026-05-01T10:41:20Z</time></trkpt><trkpt lat="44.48056208845617" lon="8.698658079874164"><ele>781.0</ele><time>2026-05-01T10:41:21Z</time></trkpt><trkpt lat="44.480455485063935" lon="8.698499598305931"><ele>781.0</ele><time>2026-05-01T10:41:22Z</time></trkpt><trkpt lat="44.4804561129858" lon="8.698316331695201"><ele>784.0</ele><time>2026-05-01T10:41:23Z</time></trkpt><trkpt lat="44.48049188741902" lon="8.698181323505935"><ele>787.0</ele><time>2026-05-01T10:41:24Z</time></trkpt><trkpt lat="44.48053075205642" lon="8.698088471368122"><ele>790.0</ele><time>2026-05-01T10:41:25Z</time></trkpt><trkpt lat="44.48061165403681" lon="8.697938675988524"><ele>793.0</ele><time>2026-05-01T10:41:26Z</time></trkpt><trkpt lat="44.480678070804885" lon="8.697773198795108"><ele>796.0</ele><time>2026-05-01T10:41:27Z</time></trkpt><trkpt lat="44.48077210865135" lon="8.697614800400565"><ele>797.0</ele><time>2026-05-01T10:41:28Z</time></trkpt><trkpt lat="44.480860438690414" lon="8.697428236833009"><ele>798.0</ele><time>2026-05-01T10:41:29Z</time></trkpt><trkpt lat="44.48091684909039" lon="8.69720543354909"><ele>799.0</ele><time>2026-05-01T10:41:30Z</time></trkpt><trkpt lat="44.480884075058185" lon="8.696966069992982"><ele>799.3333333333333</ele><time>2026-05-01T10:41:31Z</time></trkpt><trkpt lat="44.480859013744215" lon="8.696709996222687"><ele>799.6666666666667</ele><time>2026-05-01T10:41:32Z</time></trkpt><trkpt lat="44.48085211390711" lon="8.69648045342548"><ele>800.0</ele><time>2026-05-01T10:41:33Z</time></trkpt><trkpt lat="44.48093487391969" lon="8.696254513341659"><ele>796.6666666666667</ele><time>2026-05-01T10:41:34Z</time></trkpt><trkpt lat="44.4810305807698" lon="8.696026417273643"><ele>793.3333333333333</ele><time>2026-05-01T10:41:35Z</time></trkpt><trkpt lat="44.48115854248982" lon="8.695812579642713"><ele>790.0</ele><time>2026-05-01T10:41:36Z</time></trkpt><trkpt lat="44.481319824796216" lon="8.695602520778081"><ele>796.0</ele><time>2026-05-01T10:41:37Z</time></trkpt><trkpt lat="44.48150101124784" lon="8.695398018542933"><ele>802.0</ele><time>2026-05-01T10:41:38Z</time></trkpt><trkpt lat="44.481683787340195" lon="8.695229002171134"><ele>802.0</ele><time>2026-05-01T10:41:39Z</time></trkpt><trkpt lat="44.48186071128572" lon="8.695072271706229"><ele>802.0</ele><time>2026-05-01T10:41:40Z</time></trkpt><trkpt lat="44.482042034401296" lon="8.694900545094226"><ele>802.0</ele><time>2026-05-01T10:41:41Z</time></trkpt><trkpt lat="44.48221770227388" lon="8.69471094356956"><ele>808.3333333333333</ele><time>2026-05-01T10:41:42Z</time></trkpt><trkpt lat="44.48240205265442" lon="8.694530511462506"><ele>814.6666666666667</ele><time>2026-05-01T10:41:43Z</time></trkpt><trkpt lat="44.48257222535619" lon="8.694350536367365"><ele>821.0</ele><time>2026-05-01T10:41:44Z</time></trkpt><trkpt lat="44.48270085296039" lon="8.694207262703365"><ele>821.0</ele><time>2026-05-01T10:41:45Z</time></trkpt><trkpt lat="44.48278811285909" lon="8.694074152151002"><ele>821.0</ele><time>2026-05-01T10:41:46Z</time></trkpt><trkpt lat="44.48282451618913" lon="8.693936489688772"><ele>821.0</ele><time>2026-05-01T10:41:47Z</time></trkpt><trkpt lat="44.482805523224236" lon="8.693768038524661"><ele>821.0</ele><time>2026-05-01T10:41:48Z</time></trkpt><trkpt lat="44.482735707615674" lon="8.693582156283775"><ele>824.6666666666667</ele><time>2026-05-01T10:41:49Z</time></trkpt><trkpt lat="44.48260668376982" lon="8.693410864944449"><ele>828.3333333333333</ele><time>2026-05-01T10:41:50Z</time></trkpt><trkpt lat="44.482450890045484" lon="8.69323807555162"><ele>832.0</ele><time>2026-05-01T10:41:51Z</time></trkpt><trkpt lat="44.482298735306564" lon="8.693062843669999"><ele>832.0</ele><time>2026-05-01T10:41:52Z</time></trkpt><trkpt lat="44.48217333500051" lon="8.692849289512035"><ele>832.0</ele><time>2026-05-01T10:41:53Z</time></trkpt><trkpt lat="44.482062920865204" lon="8.692602870957984"><ele>832.0</ele><time>2026-05-01T10:41:54Z</time></trkpt><trkpt lat="44.48197618673905" lon="8.692314537927768"><ele>831.0</ele><time>2026-05-01T10:41:55Z</time></trkpt><trkpt lat="44.481897147520385" lon="8.692017898449484"><ele>830.0</ele><time>2026-05-01T10:41:56Z</time></trkpt><trkpt lat="44.48180110877772" lon="8.69171009193008"><ele>830.0</ele><time>2026-05-01T10:41:57Z</time></trkpt><trkpt lat="44.48171120236851" lon="8.691443366246865"><ele>830.0</ele><time>2026-05-01T10:41:58Z</time></trkpt><trkpt lat="44.48162526719761" lon="8.691240576064427"><ele>830.0</ele><time>2026-05-01T10:41:59Z</time></trkpt><trkpt lat="44.48160548395095" lon="8.691045169054924"><ele>834.0</ele><time>2026-05-01T10:42:00Z</time></trkpt><trkpt lat="44.4816058468199" lon="8.69082561075902"><ele>838.0</ele><time>2026-05-01T10:42:01Z</time></trkpt><trkpt lat="44.48165845385161" lon="8.690599187872156"><ele>842.0</ele><time>2026-05-01T10:42:02Z</time></trkpt><trkpt lat="44.48175435914705" lon="8.690395396915017"><ele>837.6666666666667</ele><time>2026-05-01T10:42:03Z</time></trkpt><trkpt lat="44.48188378366842" lon="8.690226700384034"><ele>833.3333333333333</ele><time>2026-05-01T10:42:04Z</time></trkpt><trkpt lat="44.48204641968661" lon="8.690067052164261"><ele>829.0</ele><time>2026-05-01T10:42:05Z</time></trkpt><trkpt lat="44.48219371566992" lon="8.689904440965721"><ele>837.0</ele><time>2026-05-01T10:42:06Z</time></trkpt><trkpt lat="44.48232149547988" lon="8.689772428395846"><ele>845.0</ele><time>2026-05-01T10:42:07Z</time></trkpt><trkpt lat="44.4824049940487" lon="8.689622407969555"><ele>853.0</ele><time>2026-05-01T10:42:08Z</time></trkpt><trkpt lat="44.48244414825195" lon="8.689455530930717"><ele>861.0</ele><time>2026-05-01T10:42:09Z</time></trkpt><trkpt lat="44.48246720133613" lon="8.689242154839636"><ele>861.0</ele><time>2026-05-01T10:42:10Z</time></trkpt><trkpt lat="44.48251320752419" lon="8.689022645278913"><ele>861.0</ele><time>2026-05-01T10:42:11Z</time></trkpt><trkpt lat="44.48256819667436" lon="8.688837075658306"><ele>861.0</ele><time>2026-05-01T10:42:12Z</time></trkpt><trkpt lat="44.4826115568065" lon="8.688710244449483"><ele>861.0</ele><time>2026-05-01T10:42:13Z</time></trkpt><trkpt lat="44.48268235323809" lon="8.688608136369531"><ele>858.5</ele><time>2026-05-01T10:42:14Z</time></trkpt><trkpt lat="44.48274331877731" lon="8.688457428216184"><ele>856.0</ele><time>2026-05-01T10:42:15Z</time></trkpt><trkpt lat="44.482794717191155" lon="8.688320294375899"><ele>853.5</ele><time>2026-05-01T10:42:16Z</time></trkpt><trkpt lat="44.48277244348696" lon="8.688113285157849"><ele>851.0</ele><time>2026-05-01T10:42:17Z</time></trkpt><trkpt lat="44.48271511132331" lon="8.687876267310005"><ele>855.3333333333334</ele><time>2026-05-01T10:42:18Z</time></trkpt><trkpt lat="44.4826190507473" lon="8.687646474501046"><ele>859.6666666666667</ele><time>2026-05-01T10:42:19Z</time></trkpt><trkpt lat="44.482508957769724" lon="8.687423108264815"><ele>864.0</ele><time>2026-05-01T10:42:20Z</time></trkpt><trkpt lat="44.4824778316397" lon="8.687207758369707"><ele>864.0</ele><time>2026-05-01T10:42:21Z</time></trkpt><trkpt lat="44.482493421133334" lon="8.686983987035715"><ele>864.0</ele><time>2026-05-01T10:42:22Z</time></trkpt><trkpt lat="44.48256630715227" lon="8.68677116405717"><ele>864.0</ele><time>2026-05-01T10:42:23Z</time></trkpt><trkpt lat="44.48267047898075" lon="8.686567532315195"><ele>860.6666666666667</ele><time>2026-05-01T10:42:24Z</time></trkpt><trkpt lat="44.48277962878297" lon="8.686342261356096"><ele>857.3333333333334</ele><time>2026-05-01T10:42:25Z</time></trkpt><trkpt lat="44.48289760519598" lon="8.686153873881352"><ele>854.0</ele><time>2026-05-01T10:42:26Z</time></trkpt><trkpt lat="44.48296171246018" lon="8.685977160967111"><ele>852.0</ele><time>2026-05-01T10:42:27Z</time></trkpt><trkpt lat="44.482968146322534" lon="8.685775387937136"><ele>850.0</ele><time>2026-05-01T10:42:28Z</time></trkpt><trkpt lat="44.48291022569847" lon="8.685556766778582"><ele>848.0</ele><time>2026-05-01T10:42:29Z</time></trkpt><trkpt lat="44.48279532554844" lon="8.685342884244248"><ele>857.0</ele><time>2026-05-01T10:42:30Z</time></trkpt><trkpt lat="44.482629165128564" lon="8.685160508391522"><ele>866.0</ele><time>2026-05-01T10:42:31Z</time></trkpt><trkpt lat="44.48247992413441" lon="8.684955658752278"><ele>875.0</ele><time>2026-05-01T10:42:32Z</time></trkpt><trkpt lat="44.48232216739468" lon="8.684763219390451"><ele>875.0</ele><time>2026-05-01T10:42:33Z</time></trkpt><trkpt lat="44.482189976058564" lon="8.68456807638892"><ele>875.0</ele><time>2026-05-01T10:42:34Z</time></trkpt><trkpt lat="44.482070713492384" lon="8.684405480492957"><ele>875.0</ele><time>2026-05-01T10:42:35Z</time></trkpt><trkpt lat="44.481968602775694" lon="8.684252765214497"><ele>875.25</ele><time>2026-05-01T10:42:36Z</time></trkpt><trkpt lat="44.48190392319831" lon="8.684057422748957"><ele>875.5</ele><time>2026-05-01T10:42:37Z</time></trkpt><trkpt lat="44.481829186681836" lon="8.68387545563468"><ele>875.75</ele><time>2026-05-01T10:42:38Z</time></trkpt><trkpt lat="44.481755167724344" lon="8.68372351895146"><ele>876.0</ele><time>2026-05-01T10:42:39Z</time></trkpt><trkpt lat="44.48169674120995" lon="8.683550856179547"><ele>876.0</ele><time>2026-05-01T10:42:40Z</time></trkpt><trkpt lat="44.48164505380782" lon="8.683361190685735"><ele>876.0</ele><time>2026-05-01T10:42:41Z</time></trkpt><trkpt lat="44.48164491362043" lon="8.683155672509141"><ele>876.0</ele><time>2026-05-01T10:42:42Z</time></trkpt><trkpt lat="44.4816502026152" lon="8.682964013092533"><ele>876.0</ele><time>2026-05-01T10:42:43Z</time></trkpt><trkpt lat="44.48169148487097" lon="8.682795506888485"><ele>877.6666666666667</ele><time>2026-05-01T10:42:44Z</time></trkpt><trkpt lat="44.481706865487155" lon="8.682605191849765"><ele>879.3333333333334</ele><time>2026-05-01T10:42:45Z</time></trkpt><trkpt lat="44.481683352995645" lon="8.682383874163971"><ele>881.0</ele><time>2026-05-01T10:42:46Z</time></trkpt><trkpt lat="44.48162921969865" lon="8.682151141741082"><ele>886.0</ele><time>2026-05-01T10:42:47Z</time></trkpt><trkpt lat="44.48158000300749" lon="8.681863533271585"><ele>891.0</ele><time>2026-05-01T10:42:48Z</time></trkpt><trkpt lat="44.48150645055278" lon="8.681568888347996"><ele>896.0</ele><time>2026-05-01T10:42:49Z</time></trkpt><trkpt lat="44.481460379183666" lon="8.681276418271157"><ele>894.3333333333334</ele><time>2026-05-01T10:42:50Z</time></trkpt><trkpt lat="44.481407562021694" lon="8.681005391188497"><ele>892.6666666666667</ele><time>2026-05-01T10:42:51Z</time></trkpt><trkpt lat="44.48132327112093" lon="8.6807862756372"><ele>891.0</ele><time>2026-05-01T10:42:52Z</time></trkpt><trkpt lat="44.48119984100564" lon="8.680596547539286"><ele>891.0</ele><time>2026-05-01T10:42:53Z</time></trkpt><trkpt lat="44.48103267356133" lon="8.680482608659041"><ele>891.0</ele><time>2026-05-01T10:42:54Z</time></trkpt><trkpt lat="44.48085223241264" lon="8.68042162321888"><ele>891.0</ele><time>2026-05-01T10:42:55Z</time></trkpt><trkpt lat="44.480734203965596" lon="8.680334025701885"><ele>900.6666666666667</ele><time>2026-05-01T10:42:56Z</time></trkpt><trkpt lat="44.48065640581206" lon="8.680191497084412"><ele>910.3333333333334</ele><time>2026-05-01T10:42:57Z</time></trkpt><trkpt lat="44.4806052918857" lon="8.679979353585423"><ele>920.0</ele><time>2026-05-01T10:42:58Z</time></trkpt><trkpt lat="44.48059538925285" lon="8.679704199226288"><ele>926.0</ele><time>2026-05-01T10:42:59Z</time></trkpt><trkpt lat="44.48058073308736" lon="8.67942574832325"><ele>932.0</ele><time>2026-05-01T10:43:00Z</time></trkpt><trkpt lat="44.48057413292346" lon="8.679137807420942"><ele>938.0</ele><time>2026-05-01T10:43:01Z</time></trkpt><trkpt lat="44.4804619721507" lon="8.678902022228064"><ele>931.0</ele><time>2026-05-01T10:43:02Z</time></trkpt><trkpt lat="44.48032454683155" lon="8.678652932821995"><ele>924.0</ele><time>2026-05-01T10:43:03Z</time></trkpt><trkpt lat="44.480153073843276" lon="8.678436120363436"><ele>924.0</ele><time>2026-05-01T10:43:04Z</time></trkpt><trkpt lat="44.479979329777024" lon="8.678256811945575"><ele>924.0</ele><time>2026-05-01T10:43:05Z</time></trkpt><trkpt lat="44.479791562045214" lon="8.678129627960814"><ele>924.0</ele><time>2026-05-01T10:43:06Z</time></trkpt><trkpt lat="44.4796450504739" lon="8.678040713769482"><ele>922.5</ele><time>2026-05-01T10:43:07Z</time></trkpt><trkpt lat="44.47955005506087" lon="8.677973586537219"><ele>921.0</ele><time>2026-05-01T10:43:08Z</time></trkpt><trkpt lat="44.47949466076631" lon="8.67791677612297"><ele>919.5</ele><time>2026-05-01T10:43:09Z</time></trkpt><trkpt lat="44.479453508656505" lon="8.677825386332575"><ele>918.0</ele><time>2026-05-01T10:43:10Z</time></trkpt><trkpt lat="44.47941901539877" lon="8.677705096056297"><ele>916.5</ele><time>2026-05-01T10:43:11Z</time></trkpt><trkpt lat="44.47938022774758" lon="8.677596775882504"><ele>915.0</ele><time>2026-05-01T10:43:12Z</time></trkpt><trkpt lat="44.47935980005887" lon="8.677457148214787"><ele>915.0</ele><time>2026-05-01T10:43:13Z</time></trkpt><trkpt lat="44.47938799119401" lon="8.677268941352992"><ele>915.0</ele><time>2026-05-01T10:43:14Z</time></trkpt><trkpt lat="44.47939666377419" lon="8.677035919801746"><ele>915.0</ele><time>2026-05-01T10:43:15Z</time></trkpt><trkpt lat="44.47943821328278" lon="8.676785863448517"><ele>917.0</ele><time>2026-05-01T10:43:16Z</time></trkpt><trkpt lat="44.47947250801338" lon="8.67652244846099"><ele>919.0</ele><time>2026-05-01T10:43:17Z</time></trkpt><trkpt lat="44.47949797942571" lon="8.676242531921336"><ele>921.0</ele><time>2026-05-01T10:43:18Z</time></trkpt><trkpt lat="44.479493457706205" lon="8.675964203682542"><ele>925.6666666666667</ele><time>2026-05-01T10:43:19Z</time></trkpt><trkpt lat="44.479401512416175" lon="8.67571542183159"><ele>930.3333333333334</ele><time>2026-05-01T10:43:20Z</time></trkpt><trkpt lat="44.47927663271522" lon="8.675446323625877"><ele>935.0</ele><time>2026-05-01T10:43:21Z</time></trkpt><trkpt lat="44.47923274025672" lon="8.675307919698522"><ele>936.25</ele><time>2026-05-01T10:43:22Z</time></trkpt><trkpt lat="44.47920895448166" lon="8.675161431869588"><ele>937.5</ele><time>2026-05-01T10:43:23Z</time></trkpt><trkpt lat="44.479311546195866" lon="8.67499802662633"><ele>938.75</ele><time>2026-05-01T10:43:24Z</time></trkpt><trkpt lat="44.47940396640086" lon="8.674860528827804"><ele>940.0</ele><time>2026-05-01T10:43:25Z</time></trkpt><trkpt lat="44.47949162626947" lon="8.674627879452618"><ele>944.6666666666666</ele><time>2026-05-01T10:43:26Z</time></trkpt><trkpt lat="44.479493862679405" lon="8.674399325263837"><ele>949.3333333333333</ele><time>2026-05-01T10:43:27Z</time></trkpt><trkpt lat="44.47941546275237" lon="8.674207819340927"><ele>954.0</ele><time>2026-05-01T10:43:28Z</time></trkpt><trkpt lat="44.47929540867097" lon="8.674047435940004"><ele>954.0</ele><time>2026-05-01T10:43:29Z</time></trkpt><trkpt lat="44.479157112453166" lon="8.673874478832635"><ele>954.0</ele><time>2026-05-01T10:43:30Z</time></trkpt><trkpt lat="44.47902474241116" lon="8.673660949338615"><ele>954.0</ele><time>2026-05-01T10:43:31Z</time></trkpt><trkpt lat="44.47898773647988" lon="8.673435400605296"><ele>961.0</ele><time>2026-05-01T10:43:32Z</time></trkpt><trkpt lat="44.47898116532285" lon="8.673192204616932"><ele>968.0</ele><time>2026-05-01T10:43:33Z</time></trkpt><trkpt lat="44.478930154848605" lon="8.672959731866419"><ele>975.0</ele><time>2026-05-01T10:43:34Z</time></trkpt><trkpt lat="44.478817916539185" lon="8.672743154888483"><ele>969.5</ele><time>2026-05-01T10:43:35Z</time></trkpt><trkpt lat="44.47865095392137" lon="8.672513911417882"><ele>964.0</ele><time>2026-05-01T10:43:36Z</time></trkpt><trkpt lat="44.4784493604559" lon="8.67234691173711"><ele>964.0</ele><time>2026-05-01T10:43:37Z</time></trkpt><trkpt lat="44.47825140406266" lon="8.672190941274712"><ele>964.0</ele><time>2026-05-01T10:43:38Z</time></trkpt><trkpt lat="44.47803759195916" lon="8.67205237629004"><ele>950.5</ele><time>2026-05-01T10:43:39Z</time></trkpt><trkpt lat="44.47781189866417" lon="8.671978343580808"><ele>937.0</ele><time>2026-05-01T10:43:40Z</time></trkpt><trkpt lat="44.47759071522653" lon="8.671952216024435"><ele>954.3333333333333</ele><time>2026-05-01T10:43:41Z</time></trkpt><trkpt lat="44.477421270374585" lon="8.671860152206728"><ele>971.6666666666667</ele><time>2026-05-01T10:43:42Z</time></trkpt><trkpt lat="44.4773054278053" lon="8.671708384614321"><ele>989.0</ele><time>2026-05-01T10:43:43Z</time></trkpt><trkpt lat="44.47717438797974" lon="8.671581279755026"><ele>985.3333333333334</ele><time>2026-05-01T10:43:44Z</time></trkpt><trkpt lat="44.47703127724141" lon="8.671513683039196"><ele>981.6666666666667</ele><time>2026-05-01T10:43:45Z</time></trkpt><trkpt lat="44.47687847720895" lon="8.671565322547071"><ele>978.0</ele><time>2026-05-01T10:43:46Z</time></trkpt><trkpt lat="44.47669824898217" lon="8.6716000644044"><ele>978.0</ele><time>2026-05-01T10:43:47Z</time></trkpt><trkpt lat="44.476535576156564" lon="8.6716553747372"><ele>978.0</ele><time>2026-05-01T10:43:48Z</time></trkpt><trkpt lat="44.476387776794034" lon="8.671593846428397"><ele>978.0</ele><time>2026-05-01T10:43:49Z</time></trkpt><trkpt lat="44.47620065207185" lon="8.671526895149048"><ele>971.6666666666667</ele><time>2026-05-01T10:43:50Z</time></trkpt><trkpt lat="44.47598166360929" lon="8.671440698549217"><ele>965.3333333333334</ele><time>2026-05-01T10:43:51Z</time></trkpt><trkpt lat="44.47586402002216" lon="8.671344685721635"><ele>959.0</ele><time>2026-05-01T10:43:52Z</time></trkpt><trkpt lat="44.47575804654325" lon="8.671209822778344"><ele>970.0</ele><time>2026-05-01T10:43:53Z</time></trkpt><trkpt lat="44.47566741384564" lon="8.671029127567422"><ele>981.0</ele><time>2026-05-01T10:43:54Z</time></trkpt><trkpt lat="44.47556888620034" lon="8.6707965157689"><ele>992.0</ele><time>2026-05-01T10:43:55Z</time></trkpt><trkpt lat="44.4754619897906" lon="8.670546751198573"><ele>983.0</ele><time>2026-05-01T10:43:56Z</time></trkpt><trkpt lat="44.47535347947688" lon="8.670291220332542"><ele>974.0</ele><time>2026-05-01T10:43:57Z</time></trkpt><trkpt lat="44.4752506435196" lon="8.670043182464758"><ele>965.0</ele><time>2026-05-01T10:43:58Z</time></trkpt><trkpt lat="44.475165176777324" lon="8.669820259782728"><ele>965.0</ele><time>2026-05-01T10:43:59Z</time></trkpt><trkpt lat="44.475132580083425" lon="8.669621223690521"><ele>965.0</ele><time>2026-05-01T10:44:00Z</time></trkpt><trkpt lat="44.47513634587326" lon="8.66945518706506"><ele>965.0</ele><time>2026-05-01T10:44:01Z</time></trkpt><trkpt lat="44.47521538340832" lon="8.669245470997545"><ele>965.0</ele><time>2026-05-01T10:44:02Z</time></trkpt><trkpt lat="44.475339484555775" lon="8.669044465313586"><ele>965.0</ele><time>2026-05-01T10:44:03Z</time></trkpt><trkpt lat="44.47550969489108" lon="8.668850628814132"><ele>965.0</ele><time>2026-05-01T10:44:04Z</time></trkpt><trkpt lat="44.47568517133049" lon="8.668653019380447"><ele>965.0</ele><time>2026-05-01T10:44:05Z</time></trkpt><trkpt lat="44.47584461386381" lon="8.668462062992896"><ele>965.0</ele><time>2026-05-01T10:44:06Z</time></trkpt><trkpt lat="44.47599330679859" lon="8.668311289703016"><ele>965.0</ele><time>2026-05-01T10:44:07Z</time></trkpt><trkpt lat="44.47611329399101" lon="8.668180379717215"><ele>965.0</ele><time>2026-05-01T10:44:08Z</time></trkpt><trkpt lat="44.476221136936935" lon="8.668051564089799"><ele>964.0</ele><time>2026-05-01T10:44:09Z</time></trkpt><trkpt lat="44.47632141625453" lon="8.66795155729236"><ele>963.0</ele><time>2026-05-01T10:44:10Z</time></trkpt><trkpt lat="44.47640777137466" lon="8.667851842149558"><ele>962.0</ele><time>2026-05-01T10:44:11Z</time></trkpt><trkpt lat="44.476465447617876" lon="8.66775927214254"><ele>961.0</ele><time>2026-05-01T10:44:12Z</time></trkpt><trkpt lat="44.476477451065925" lon="8.667637453250181"><ele>960.0</ele><time>2026-05-01T10:44:13Z</time></trkpt><trkpt lat="44.476437053082364" lon="8.667512239116697"><ele>960.0</ele><time>2026-05-01T10:44:14Z</time></trkpt><trkpt lat="44.4763647253498" lon="8.667424746289702"><ele>960.0</ele><time>2026-05-01T10:44:15Z</time></trkpt><trkpt lat="44.47624605999266" lon="8.667404691958026"><ele>960.0</ele><time>2026-05-01T10:44:16Z</time></trkpt><trkpt lat="44.4761304690225" lon="8.667476453189945"><ele>960.0</ele><time>2026-05-01T10:44:17Z</time></trkpt><trkpt lat="44.4760175972129" lon="8.667628704891817"><ele>961.25</ele><time>2026-05-01T10:44:18Z</time></trkpt><trkpt lat="44.47590367304589" lon="8.667792012894132"><ele>962.5</ele><time>2026-05-01T10:44:19Z</time></trkpt><trkpt lat="44.475797423756646" lon="8.667919627542858"><ele>963.75</ele><time>2026-05-01T10:44:20Z</time></trkpt><trkpt lat="44.47568550474095" lon="8.668011793442252"><ele>965.0</ele><time>2026-05-01T10:44:21Z</time></trkpt><trkpt lat="44.47558092694969" lon="8.668102018323916"><ele>965.0</ele><time>2026-05-01T10:44:22Z</time></trkpt><trkpt lat="44.47547720288136" lon="8.668188225818426"><ele>965.0</ele><time>2026-05-01T10:44:23Z</time></trkpt><trkpt lat="44.47536276871913" lon="8.668237104689007"><ele>965.0</ele><time>2026-05-01T10:44:24Z</time></trkpt><trkpt lat="44.475234723426816" lon="8.668280046909285"><ele>965.0</ele><time>2026-05-01T10:44:25Z</time></trkpt><trkpt lat="44.47508484540035" lon="8.668298753448092"><ele>960.6666666666667</ele><time>2026-05-01T10:44:26Z</time></trkpt><trkpt lat="44.47491755134388" lon="8.668261751328618"><ele>956.3333333333333</ele><time>2026-05-01T10:44:27Z</time></trkpt><trkpt lat="44.47474039497232" lon="8.668231918153833"><ele>952.0</ele><time>2026-05-01T10:44:28Z</time></trkpt><trkpt lat="44.47456584823262" lon="8.668141994606549"><ele>950.0</ele><time>2026-05-01T10:44:29Z</time></trkpt><trkpt lat="44.47440926692958" lon="8.668048274935554"><ele>948.0</ele><time>2026-05-01T10:44:30Z</time></trkpt><trkpt lat="44.47426134507322" lon="8.668012326841405"><ele>946.0</ele><time>2026-05-01T10:44:31Z</time></trkpt><trkpt lat="44.47411722941228" lon="8.668058994471506"><ele>946.0</ele><time>2026-05-01T10:44:32Z</time></trkpt><trkpt lat="44.47399937659836" lon="8.668184732543338"><ele>946.0</ele><time>2026-05-01T10:44:33Z</time></trkpt><trkpt lat="44.473920168608494" lon="8.668356822063473"><ele>946.0</ele><time>2026-05-01T10:44:34Z</time></trkpt><trkpt lat="44.473864356284324" lon="8.668533223530318"><ele>946.0</ele><time>2026-05-01T10:44:35Z</time></trkpt><trkpt lat="44.473778094685386" lon="8.668687862088502"><ele>943.0</ele><time>2026-05-01T10:44:36Z</time></trkpt><trkpt lat="44.47370244854121" lon="8.668872220236983"><ele>940.0</ele><time>2026-05-01T10:44:37Z</time></trkpt><trkpt lat="44.47358739373614" lon="8.66901154812043"><ele>937.0</ele><time>2026-05-01T10:44:38Z</time></trkpt><trkpt lat="44.47348173987196" lon="8.669126934778149"><ele>934.0</ele><time>2026-05-01T10:44:39Z</time></trkpt><trkpt lat="44.473379611484596" lon="8.669210535082637"><ele>934.0</ele><time>2026-05-01T10:44:40Z</time></trkpt><trkpt lat="44.473281838083736" lon="8.669277742917009"><ele>934.0</ele><time>2026-05-01T10:44:41Z</time></trkpt><trkpt lat="44.47318615399126" lon="8.669334894391904"><ele>934.0</ele><time>2026-05-01T10:44:42Z</time></trkpt><trkpt lat="44.47307365660096" lon="8.669385560795874"><ele>934.0</ele><time>2026-05-01T10:44:43Z</time></trkpt><trkpt lat="44.47295270910876" lon="8.66941867732538"><ele>934.25</ele><time>2026-05-01T10:44:44Z</time></trkpt><trkpt lat="44.47283499322086" lon="8.669431901130132"><ele>934.5</ele><time>2026-05-01T10:44:45Z</time></trkpt><trkpt lat="44.47271386932823" lon="8.669429829273728"><ele>934.75</ele><time>2026-05-01T10:44:46Z</time></trkpt><trkpt lat="44.47260245464212" lon="8.66942425505244"><ele>935.0</ele><time>2026-05-01T10:44:47Z</time></trkpt><trkpt lat="44.47249756018703" lon="8.669439807320835"><ele>935.0</ele><time>2026-05-01T10:44:48Z</time></trkpt><trkpt lat="44.47237776347505" lon="8.669428494540984"><ele>935.0</ele><time>2026-05-01T10:44:49Z</time></trkpt><trkpt lat="44.47223156536569" lon="8.669418330797336"><ele>935.0</ele><time>2026-05-01T10:44:50Z</time></trkpt><trkpt lat="44.472064434093134" lon="8.669408065497604"><ele>935.0</ele><time>2026-05-01T10:44:51Z</time></trkpt><trkpt lat="44.47187669902031" lon="8.669398400158885"><ele>934.6666666666667</ele><time>2026-05-01T10:44:52Z</time></trkpt><trkpt lat="44.47166636109787" lon="8.669360932148031"><ele>934.3333333333333</ele><time>2026-05-01T10:44:53Z</time></trkpt><trkpt lat="44.471431281875034" lon="8.669346875852256"><ele>934.0</ele><time>2026-05-01T10:44:54Z</time></trkpt><trkpt lat="44.471187644214496" lon="8.669330951214656"><ele>934.0</ele><time>2026-05-01T10:44:55Z</time></trkpt><trkpt lat="44.47095432380901" lon="8.66932341711275"><ele>934.0</ele><time>2026-05-01T10:44:56Z</time></trkpt><trkpt lat="44.470725605675135" lon="8.669306898348728"><ele>934.0</ele><time>2026-05-01T10:44:57Z</time></trkpt><trkpt lat="44.470508283986945" lon="8.669300152804198"><ele>934.0</ele><time>2026-05-01T10:44:58Z</time></trkpt><trkpt lat="44.47030939871718" lon="8.669288582404839"><ele>934.0</ele><time>2026-05-01T10:44:59Z</time></trkpt><trkpt lat="44.47012895376709" lon="8.669280263934423"><ele>935.6666666666666</ele><time>2026-05-01T10:45:00Z</time></trkpt><trkpt lat="44.469960290393004" lon="8.66930774804695"><ele>937.3333333333333</ele><time>2026-05-01T10:45:01Z</time></trkpt><trkpt lat="44.4698216585186" lon="8.669401334329171"><ele>939.0</ele><time>2026-05-01T10:45:02Z</time></trkpt><trkpt lat="44.46969321570189" lon="8.669534348160948"><ele>943.0</ele><time>2026-05-01T10:45:03Z</time></trkpt><trkpt lat="44.4695466273679" lon="8.669692903180891"><ele>947.0</ele><time>2026-05-01T10:45:04.001Z</time></trkpt><trkpt lat="44.469396225097384" lon="8.669849527838844"><ele>951.0</ele><time>2026-05-01T10:45:05Z</time></trkpt><trkpt lat="44.46922077119245" lon="8.669968236142306"><ele>951.0</ele><time>2026-05-01T10:45:06Z</time></trkpt><trkpt lat="44.46903277539378" lon="8.670080716841372"><ele>951.0</ele><time>2026-05-01T10:45:07Z</time></trkpt><trkpt lat="44.46883005403528" lon="8.670176074072176"><ele>951.0</ele><time>2026-05-01T10:45:08Z</time></trkpt><trkpt lat="44.468628743075435" lon="8.6702916936645"><ele>948.0</ele><time>2026-05-01T10:45:09Z</time></trkpt><trkpt lat="44.46842589230687" lon="8.670387565201192"><ele>945.0</ele><time>2026-05-01T10:45:10Z</time></trkpt><trkpt lat="44.468210739740044" lon="8.670488202047128"><ele>942.0</ele><time>2026-05-01T10:45:11Z</time></trkpt><trkpt lat="44.46798696352391" lon="8.67059273100406"><ele>952.0</ele><time>2026-05-01T10:45:12Z</time></trkpt><trkpt lat="44.467766545737874" lon="8.670704470615183"><ele>962.0</ele><time>2026-05-01T10:45:13Z</time></trkpt><trkpt lat="44.46754077584527" lon="8.670812776872275"><ele>962.0</ele><time>2026-05-01T10:45:14Z</time></trkpt><trkpt lat="44.46731616462903" lon="8.670901581550428"><ele>962.0</ele><time>2026-05-01T10:45:15Z</time></trkpt><trkpt lat="44.46713840522242" lon="8.67100188152301"><ele>962.0</ele><time>2026-05-01T10:45:16Z</time></trkpt><trkpt lat="44.46699875035246" lon="8.671011876728997"><ele>962.25</ele><time>2026-05-01T10:45:17Z</time></trkpt><trkpt lat="44.46686863939036" lon="8.670972561002111"><ele>962.5</ele><time>2026-05-01T10:45:18Z</time></trkpt><trkpt lat="44.466744356162806" lon="8.670905476795088"><ele>962.75</ele><time>2026-05-01T10:45:19Z</time></trkpt><trkpt lat="44.46666351603601" lon="8.67078247953919"><ele>963.0</ele><time>2026-05-01T10:45:20Z</time></trkpt><trkpt lat="44.466624968510025" lon="8.670607951898079"><ele>963.0</ele><time>2026-05-01T10:45:21Z</time></trkpt><trkpt lat="44.46662454591748" lon="8.670407688365405"><ele>963.0</ele><time>2026-05-01T10:45:22Z</time></trkpt><trkpt lat="44.46670446896252" lon="8.670221090347596"><ele>963.0</ele><time>2026-05-01T10:45:23Z</time></trkpt><trkpt lat="44.466798405223344" lon="8.669985973051244"><ele>967.3333333333333</ele><time>2026-05-01T10:45:24Z</time></trkpt><trkpt lat="44.46692498356063" lon="8.669760563955558"><ele>971.6666666666666</ele><time>2026-05-01T10:45:25Z</time></trkpt><trkpt lat="44.46703305438817" lon="8.669518336121861"><ele>976.0</ele><time>2026-05-01T10:45:26Z</time></trkpt><trkpt lat="44.467141537336026" lon="8.669277980376178"><ele>978.3333333333333</ele><time>2026-05-01T10:45:27Z</time></trkpt><trkpt lat="44.46726400554476" lon="8.669027572375203"><ele>980.6666666666667</ele><time>2026-05-01T10:45:28Z</time></trkpt><trkpt lat="44.46738942752099" lon="8.66875922370927"><ele>983.0</ele><time>2026-05-01T10:45:29Z</time></trkpt><trkpt lat="44.4675064859278" lon="8.66848215228156"><ele>987.0</ele><time>2026-05-01T10:45:30Z</time></trkpt><trkpt lat="44.46760324135907" lon="8.668182842640393"><ele>991.0</ele><time>2026-05-01T10:45:31Z</time></trkpt><trkpt lat="44.4676778217155" lon="8.667861121931557"><ele>990.3333333333333</ele><time>2026-05-01T10:45:32Z</time></trkpt><trkpt lat="44.46775465937307" lon="8.667565283338924"><ele>989.6666666666667</ele><time>2026-05-01T10:45:33Z</time></trkpt><trkpt lat="44.46784760161798" lon="8.667294945588841"><ele>989.0</ele><time>2026-05-01T10:45:34Z</time></trkpt><trkpt lat="44.46800179340632" lon="8.667067576963268"><ele>996.0</ele><time>2026-05-01T10:45:35Z</time></trkpt><trkpt lat="44.46814647711632" lon="8.666798418734611"><ele>1003.0</ele><time>2026-05-01T10:45:36Z</time></trkpt><trkpt lat="44.468313821008806" lon="8.66654802083053"><ele>1003.0</ele><time>2026-05-01T10:45:37Z</time></trkpt><trkpt lat="44.46848080561799" lon="8.666296627905272"><ele>1003.0</ele><time>2026-05-01T10:45:38Z</time></trkpt><trkpt lat="44.46864722469245" lon="8.66604723184163"><ele>1003.0</ele><time>2026-05-01T10:45:39Z</time></trkpt><trkpt lat="44.468815521317126" lon="8.665869354695056"><ele>1003.0</ele><time>2026-05-01T10:45:40Z</time></trkpt><trkpt lat="44.46899363976086" lon="8.665730338493217"><ele>1003.0</ele><time>2026-05-01T10:45:41Z</time></trkpt><trkpt lat="44.469143942624385" lon="8.665635500626395"><ele>1003.0</ele><time>2026-05-01T10:45:42Z</time></trkpt><trkpt lat="44.46925808241192" lon="8.66555156189447"><ele>1003.0</ele><time>2026-05-01T10:45:43Z</time></trkpt><trkpt lat="44.46932732506862" lon="8.665417260025986"><ele>1003.0</ele><time>2026-05-01T10:45:44Z</time></trkpt><trkpt lat="44.46932818446545" lon="8.665257777374768"><ele>1003.0</ele><time>2026-05-01T10:45:45Z</time></trkpt><trkpt lat="44.469273935798505" lon="8.665095906219213"><ele>1004.0</ele><time>2026-05-01T10:45:46Z</time></trkpt><trkpt lat="44.469157696948464" lon="8.664990569829168"><ele>1005.0</ele><time>2026-05-01T10:45:47Z</time></trkpt><trkpt lat="44.46901445993706" lon="8.664971612726369"><ele>1006.0</ele><time>2026-05-01T10:45:48Z</time></trkpt><trkpt lat="44.468870167279235" lon="8.66505883015578"><ele>1007.0</ele><time>2026-05-01T10:45:49Z</time></trkpt><trkpt lat="44.46872632215229" lon="8.665237407106671"><ele>1010.3333333333334</ele><time>2026-05-01T10:45:50Z</time></trkpt><trkpt lat="44.468556835617235" lon="8.665423616498497"><ele>1013.6666666666667</ele><time>2026-05-01T10:45:51Z</time></trkpt><trkpt lat="44.468359574979075" lon="8.665575773163255"><ele>1017.0</ele><time>2026-05-01T10:45:52Z</time></trkpt><trkpt lat="44.4681707250242" lon="8.665765668920526"><ele>1017.0</ele><time>2026-05-01T10:45:53Z</time></trkpt><trkpt lat="44.467975735036795" lon="8.665939829314233"><ele>1017.0</ele><time>2026-05-01T10:45:54Z</time></trkpt><trkpt lat="44.46775849622905" lon="8.666081357699763"><ele>1020.5</ele><time>2026-05-01T10:45:55Z</time></trkpt><trkpt lat="44.467535207968886" lon="8.666207669981413"><ele>1024.0</ele><time>2026-05-01T10:45:56Z</time></trkpt><trkpt lat="44.46730965075828" lon="8.666323921490374"><ele>1033.0</ele><time>2026-05-01T10:45:57Z</time></trkpt><trkpt lat="44.46706858851685" lon="8.666361068559498"><ele>1042.0</ele><time>2026-05-01T10:45:58Z</time></trkpt><trkpt lat="44.46683835409132" lon="8.666435518535216"><ele>1042.0</ele><time>2026-05-01T10:45:59Z</time></trkpt><trkpt lat="44.46661683048593" lon="8.666516423573091"><ele>1042.0</ele><time>2026-05-01T10:46:00Z</time></trkpt><trkpt lat="44.466407806659" lon="8.666677059333422"><ele>1040.3333333333333</ele><time>2026-05-01T10:46:01Z</time></trkpt><trkpt lat="44.46621927538314" lon="8.666864161484998"><ele>1038.6666666666667</ele><time>2026-05-01T10:46:02Z</time></trkpt><trkpt lat="44.46605324131919" lon="8.667028733114307"><ele>1037.0</ele><time>2026-05-01T10:46:03Z</time></trkpt><trkpt lat="44.46589825321955" lon="8.667087643547486"><ele>1037.0</ele><time>2026-05-01T10:46:04Z</time></trkpt><trkpt lat="44.465737879675274" lon="8.667068911752477"><ele>1037.0</ele><time>2026-05-01T10:46:05Z</time></trkpt><trkpt lat="44.465553600599044" lon="8.66699287916398"><ele>1037.0</ele><time>2026-05-01T10:46:06Z</time></trkpt><trkpt lat="44.46532888947552" lon="8.666907247343884"><ele>1050.5</ele><time>2026-05-01T10:46:07Z</time></trkpt><trkpt lat="44.46510227878724" lon="8.666873854200894"><ele>1064.0</ele><time>2026-05-01T10:46:08Z</time></trkpt><trkpt lat="44.464872520918426" lon="8.666924999661829"><ele>1055.5</ele><time>2026-05-01T10:46:09Z</time></trkpt><trkpt lat="44.46466344769019" lon="8.666979142531508"><ele>1047.0</ele><time>2026-05-01T10:46:10Z</time></trkpt><trkpt lat="44.46442991385724" lon="8.66703967719355"><ele>1047.0</ele><time>2026-05-01T10:46:11Z</time></trkpt><trkpt lat="44.4641968159057" lon="8.667102725183785"><ele>1047.0</ele><time>2026-05-01T10:46:12Z</time></trkpt><trkpt lat="44.46396899633741" lon="8.667179652869487"><ele>1050.0</ele><time>2026-05-01T10:46:13Z</time></trkpt><trkpt lat="44.46373716133578" lon="8.667263200605955"><ele>1053.0</ele><time>2026-05-01T10:46:14Z</time></trkpt><trkpt lat="44.46353461577869" lon="8.66733744575204"><ele>1056.0</ele><time>2026-05-01T10:46:15Z</time></trkpt><trkpt lat="44.463343406549015" lon="8.667381094698033"><ele>1056.0</ele><time>2026-05-01T10:46:16Z</time></trkpt><trkpt lat="44.463179257224475" lon="8.66743960382751"><ele>1056.0</ele><time>2026-05-01T10:46:17Z</time></trkpt><trkpt lat="44.46277487736686" lon="8.667600095862182"><ele>1056.6666666666667</ele><time>2026-05-01T10:46:18Z</time></trkpt><trkpt lat="44.462548568097326" lon="8.66763255247047"><ele>1057.3333333333335</ele><time>2026-05-01T10:46:19Z</time></trkpt><trkpt lat="44.46233909453701" lon="8.667674121243143"><ele>1058.0</ele><time>2026-05-01T10:46:20Z</time></trkpt><trkpt lat="44.46216997315112" lon="8.667707853126503"><ele>1056.8333333333335</ele><time>2026-05-01T10:46:21Z</time></trkpt><trkpt lat="44.46204285807741" lon="8.667747714241893"><ele>1055.6666666666667</ele><time>2026-05-01T10:46:22Z</time></trkpt><trkpt lat="44.46194956939816" lon="8.667731059085433"><ele>1054.5</ele><time>2026-05-01T10:46:23Z</time></trkpt><trkpt lat="44.461876574563945" lon="8.66770784058355"><ele>1053.3333333333333</ele><time>2026-05-01T10:46:24Z</time></trkpt><trkpt lat="44.46180150297975" lon="8.667672132073594"><ele>1052.1666666666665</ele><time>2026-05-01T10:46:25Z</time></trkpt><trkpt lat="44.46174882660231" lon="8.66760784415948"><ele>1051.0</ele><time>2026-05-01T10:46:26Z</time></trkpt><trkpt lat="44.46169613441337" lon="8.667533940834481"><ele>1051.0</ele><time>2026-05-01T10:46:27Z</time></trkpt><trkpt lat="44.461648580122564" lon="8.66743289792206"><ele>1051.0</ele><time>2026-05-01T10:46:28Z</time></trkpt><trkpt lat="44.461615605661336" lon="8.66730715028677"><ele>1051.0</ele><time>2026-05-01T10:46:29Z</time></trkpt><trkpt lat="44.4616049231374" lon="8.667171893614814"><ele>1051.0</ele><time>2026-05-01T10:46:30Z</time></trkpt><trkpt lat="44.46160809772065" lon="8.667028914168908"><ele>1051.0</ele><time>2026-05-01T10:46:31Z</time></trkpt><trkpt lat="44.46161159013113" lon="8.666903674374574"><ele>1051.0</ele><time>2026-05-01T10:46:32Z</time></trkpt><trkpt lat="44.46160344646916" lon="8.666797466575437"><ele>1051.0</ele><time>2026-05-01T10:46:33Z</time></trkpt><trkpt lat="44.46160835755597" lon="8.666678237267721"><ele>1051.0</ele><time>2026-05-01T10:46:34Z</time></trkpt><trkpt lat="44.46161168398814" lon="8.666561041616484"><ele>1051.0</ele><time>2026-05-01T10:46:35Z</time></trkpt><trkpt lat="44.46161470956266" lon="8.666456492349376"><ele>1051.0</ele><time>2026-05-01T10:46:36Z</time></trkpt><trkpt lat="44.46162732812288" lon="8.666355853592856"><ele>1051.0</ele><time>2026-05-01T10:46:37Z</time></trkpt><trkpt lat="44.461623568642764" lon="8.666229615318615"><ele>1050.3999999999999</ele><time>2026-05-01T10:46:38Z</time></trkpt><trkpt lat="44.46163378084133" lon="8.666103522952104"><ele>1049.8</ele><time>2026-05-01T10:46:39Z</time></trkpt><trkpt lat="44.46163091891164" lon="8.665969588423227"><ele>1049.1999999999998</ele><time>2026-05-01T10:46:40Z</time></trkpt><trkpt lat="44.461631283608696" lon="8.665841534478544"><ele>1048.6</ele><time>2026-05-01T10:46:41Z</time></trkpt><trkpt lat="44.46163135079274" lon="8.665712143895513"><ele>1048.0</ele><time>2026-05-01T10:46:42Z</time></trkpt><trkpt lat="44.461647187329255" lon="8.665582241323154"><ele>1048.0</ele><time>2026-05-01T10:46:43Z</time></trkpt><trkpt lat="44.46165096822055" lon="8.665434526044422"><ele>1048.0</ele><time>2026-05-01T10:46:44Z</time></trkpt><trkpt lat="44.461640560278475" lon="8.665289179002764"><ele>1048.0</ele><time>2026-05-01T10:46:45Z</time></trkpt><trkpt lat="44.46165434254904" lon="8.665158020684808"><ele>1048.0</ele><time>2026-05-01T10:46:46Z</time></trkpt><trkpt lat="44.46165942619322" lon="8.6650324351925"><ele>1048.0</ele><time>2026-05-01T10:46:47Z</time></trkpt><trkpt lat="44.46166370242541" lon="8.664900464515993"><ele>1047.6</ele><time>2026-05-01T10:46:48Z</time></trkpt><trkpt lat="44.461674169459606" lon="8.66474399019807"><ele>1047.1999999999998</ele><time>2026-05-01T10:46:49Z</time></trkpt><trkpt lat="44.46169993496886" lon="8.664576860276389"><ele>1046.8</ele><time>2026-05-01T10:46:50Z</time></trkpt><trkpt lat="44.461740407804974" lon="8.664446517527526"><ele>1046.3999999999999</ele><time>2026-05-01T10:46:51Z</time></trkpt><trkpt lat="44.4617774493923" lon="8.664360702866794"><ele>1046.0</ele><time>2026-05-01T10:46:52Z</time></trkpt><trkpt lat="44.46180473857902" lon="8.664274539222664"><ele>1044.6666666666667</ele><time>2026-05-01T10:46:53Z</time></trkpt><trkpt lat="44.46183148997533" lon="8.664192396204678"><ele>1043.3333333333335</ele><time>2026-05-01T10:46:54Z</time></trkpt><trkpt lat="44.461867111517044" lon="8.664052889741884"><ele>1042.0</ele><time>2026-05-01T10:46:56Z</time></trkpt><trkpt lat="44.46189939782019" lon="8.66391522023578"><ele>1040.6666666666667</ele><time>2026-05-01T10:46:58Z</time></trkpt><trkpt lat="44.46192256901853" lon="8.663833056992567"><ele>1039.3333333333333</ele><time>2026-05-01T10:46:59Z</time></trkpt><trkpt lat="44.46194931834148" lon="8.66373244351898"><ele>1038.0</ele><time>2026-05-01T10:47:00Z</time></trkpt><trkpt lat="44.461971829057156" lon="8.663625273340237"><ele>1036.2</ele><time>2026-05-01T10:47:01Z</time></trkpt><trkpt lat="44.46200165399341" lon="8.663513746943082"><ele>1034.4</ele><time>2026-05-01T10:47:02Z</time></trkpt><trkpt lat="44.46204598553176" lon="8.663395846448273"><ele>1032.6000000000001</ele><time>2026-05-01T10:47:03Z</time></trkpt><trkpt lat="44.46208689771165" lon="8.663280645474263"><ele>1030.8</ele><time>2026-05-01T10:47:04Z</time></trkpt><trkpt lat="44.46212910425197" lon="8.663151128531018"><ele>1029.0</ele><time>2026-05-01T10:47:05Z</time></trkpt><trkpt lat="44.462165759259555" lon="8.663023898696533"><ele>1032.8</ele><time>2026-05-01T10:47:06Z</time></trkpt><trkpt lat="44.46219562860654" lon="8.662897510841209"><ele>1036.6000000000001</ele><time>2026-05-01T10:47:07Z</time></trkpt><trkpt lat="44.462214612147854" lon="8.662788839546858"><ele>1040.4</ele><time>2026-05-01T10:47:08Z</time></trkpt><trkpt lat="44.46223497967713" lon="8.662669766291046"><ele>1044.2</ele><time>2026-05-01T10:47:09Z</time></trkpt><trkpt lat="44.462248542968695" lon="8.662534322255102"><ele>1048.0</ele><time>2026-05-01T10:47:10Z</time></trkpt><trkpt lat="44.46224307139542" lon="8.662381220144756"><ele>1048.0</ele><time>2026-05-01T10:47:11Z</time></trkpt><trkpt lat="44.46223062856489" lon="8.662243558324313"><ele>1048.0</ele><time>2026-05-01T10:47:12Z</time></trkpt><trkpt lat="44.46221246896437" lon="8.662126101701464"><ele>1048.0</ele><time>2026-05-01T10:47:13Z</time></trkpt><trkpt lat="44.462189640094536" lon="8.662021070704958"><ele>1048.0</ele><time>2026-05-01T10:47:14Z</time></trkpt><trkpt lat="44.462169981431856" lon="8.661927293163986"><ele>1048.0</ele><time>2026-05-01T10:47:15Z</time></trkpt><trkpt lat="44.46212927807067" lon="8.66175190957754"><ele>1048.0</ele><time>2026-05-01T10:47:17Z</time></trkpt><trkpt lat="44.462095545664084" lon="8.661605955217116"><ele>1048.0</ele><time>2026-05-01T10:47:19Z</time></trkpt><trkpt lat="44.462077254122114" lon="8.661516524184513"><ele>1048.0</ele><time>2026-05-01T10:47:21Z</time></trkpt><trkpt lat="44.462069438140674" lon="8.661383879866303"><ele>1048.0</ele><time>2026-05-01T10:47:24Z</time></trkpt><trkpt lat="44.46208090342206" lon="8.661292165852798"><ele>1048.0</ele><time>2026-05-01T10:47:26Z</time></trkpt><trkpt lat="44.462172108243074" lon="8.661155183714135"><ele>1046.6</ele><time>2026-05-01T10:47:28Z</time></trkpt><trkpt lat="44.462273367531495" lon="8.661082089118198"><ele>1045.1999999999998</ele><time>2026-05-01T10:47:29Z</time></trkpt><trkpt lat="44.462370945994714" lon="8.661023113355135"><ele>1043.8</ele><time>2026-05-01T10:47:30Z</time></trkpt><trkpt lat="44.4624398513601" lon="8.660961740973768"><ele>1042.3999999999999</ele><time>2026-05-01T10:47:31Z</time></trkpt><trkpt lat="44.46250349578775" lon="8.660879690566517"><ele>1041.0</ele><time>2026-05-01T10:47:32Z</time></trkpt><trkpt lat="44.46255481256292" lon="8.660770615666548"><ele>1041.0</ele><time>2026-05-01T10:47:33Z</time></trkpt><trkpt lat="44.46260935275027" lon="8.660651843250182"><ele>1041.0</ele><time>2026-05-01T10:47:34Z</time></trkpt><trkpt lat="44.462664353006836" lon="8.66052481471682"><ele>1041.0</ele><time>2026-05-01T10:47:35Z</time></trkpt><trkpt lat="44.46265257224477" lon="8.660373880590948"><ele>1041.0</ele><time>2026-05-01T10:47:36Z</time></trkpt><trkpt lat="44.46263638127698" lon="8.660228832972669"><ele>1041.0</ele><time>2026-05-01T10:47:37Z</time></trkpt><trkpt lat="44.46260553558513" lon="8.66011300911378"><ele>1040.0</ele><time>2026-05-01T10:47:38Z</time></trkpt><trkpt lat="44.46256568625367" lon="8.659929757379174"><ele>1039.0</ele><time>2026-05-01T10:47:39Z</time></trkpt><trkpt lat="44.46250564225972" lon="8.659653572601156"><ele>1038.0</ele><time>2026-05-01T10:47:40Z</time></trkpt><trkpt lat="44.46245517813112" lon="8.659344917973318"><ele>1038.0</ele><time>2026-05-01T10:47:41Z</time></trkpt><trkpt lat="44.462433820220085" lon="8.659091318022694"><ele>1038.0</ele><time>2026-05-01T10:47:42Z</time></trkpt><trkpt lat="44.46243336646813" lon="8.658899657606419"><ele>1038.0</ele><time>2026-05-01T10:47:43Z</time></trkpt><trkpt lat="44.462452539838466" lon="8.658702763222795"><ele>1036.0</ele><time>2026-05-01T10:47:44Z</time></trkpt><trkpt lat="44.46244984478263" lon="8.65852390976612"><ele>1034.0</ele><time>2026-05-01T10:47:45Z</time></trkpt><trkpt lat="44.46246096665082" lon="8.658361857173126"><ele>1032.0</ele><time>2026-05-01T10:47:46Z</time></trkpt><trkpt lat="44.46248465765931" lon="8.658219321960091"><ele>1030.0</ele><time>2026-05-01T10:47:47Z</time></trkpt><trkpt lat="44.462541500620056" lon="8.658095622947629"><ele>1030.0</ele><time>2026-05-01T10:47:48Z</time></trkpt><trkpt lat="44.46262003621529" lon="8.657999400515285"><ele>1030.0</ele><time>2026-05-01T10:47:49Z</time></trkpt><trkpt lat="44.46271094537858" lon="8.657936221449743"><ele>1030.0</ele><time>2026-05-01T10:47:50Z</time></trkpt><trkpt lat="44.46282066675317" lon="8.657898536990364"><ele>1030.0</ele><time>2026-05-01T10:47:51Z</time></trkpt><trkpt lat="44.46295984894359" lon="8.657880255072936"><ele>1030.5</ele><time>2026-05-01T10:47:52Z</time></trkpt><trkpt lat="44.46311841762519" lon="8.657854164999117"><ele>1031.0</ele><time>2026-05-01T10:47:53Z</time></trkpt><trkpt lat="44.46326573312998" lon="8.657824566392831"><ele>1031.5</ele><time>2026-05-01T10:47:54Z</time></trkpt><trkpt lat="44.46339061828838" lon="8.657739533187728"><ele>1032.0</ele><time>2026-05-01T10:47:55Z</time></trkpt><trkpt lat="44.46350374104753" lon="8.657575475131578"><ele>1032.0</ele><time>2026-05-01T10:47:56Z</time></trkpt><trkpt lat="44.46359366222982" lon="8.657369752302007"><ele>1032.0</ele><time>2026-05-01T10:47:57Z</time></trkpt><trkpt lat="44.463658535289674" lon="8.65717528085649"><ele>1032.0</ele><time>2026-05-01T10:47:58Z</time></trkpt><trkpt lat="44.463750855791346" lon="8.656969739676763"><ele>1031.6666666666667</ele><time>2026-05-01T10:47:59Z</time></trkpt><trkpt lat="44.46385638511948" lon="8.656749498731832"><ele>1031.3333333333335</ele><time>2026-05-01T10:48:00Z</time></trkpt><trkpt lat="44.46395935116209" lon="8.656556346581018"><ele>1031.0</ele><time>2026-05-01T10:48:01Z</time></trkpt><trkpt lat="44.46404139728132" lon="8.656359388447209"><ele>1029.6666666666667</ele><time>2026-05-01T10:48:02Z</time></trkpt><trkpt lat="44.464052405912305" lon="8.656095309864542"><ele>1028.3333333333333</ele><time>2026-05-01T10:48:03Z</time></trkpt><trkpt lat="44.46406302255089" lon="8.655775293246945"><ele>1027.0</ele><time>2026-05-01T10:48:04Z</time></trkpt><trkpt lat="44.46407076644509" lon="8.655465122096489"><ele>1028.3333333333333</ele><time>2026-05-01T10:48:05Z</time></trkpt><trkpt lat="44.464067151992715" lon="8.655200917961896"><ele>1029.6666666666667</ele><time>2026-05-01T10:48:06Z</time></trkpt><trkpt lat="44.464040624869895" lon="8.654970762045869"><ele>1031.0</ele><time>2026-05-01T10:48:07Z</time></trkpt><trkpt lat="44.46397584106279" lon="8.65480874746808"><ele>1031.0</ele><time>2026-05-01T10:48:08Z</time></trkpt><trkpt lat="44.46387222681903" lon="8.65468812407327"><ele>1031.0</ele><time>2026-05-01T10:48:09Z</time></trkpt><trkpt lat="44.463714248817574" lon="8.654613683804069"><ele>1031.0</ele><time>2026-05-01T10:48:10Z</time></trkpt><trkpt lat="44.46351526238328" lon="8.654562548520762"><ele>1025.3333333333335</ele><time>2026-05-01T10:48:11Z</time></trkpt><trkpt lat="44.4633053100253" lon="8.654516200942082"><ele>1019.6666666666667</ele><time>2026-05-01T10:48:12Z</time></trkpt><trkpt lat="44.46309332574085" lon="8.654464341920749"><ele>1014.0</ele><time>2026-05-01T10:48:13Z</time></trkpt><trkpt lat="44.46290159742432" lon="8.654405012746139"><ele>1014.0</ele><time>2026-05-01T10:48:14Z</time></trkpt><trkpt lat="44.46273993052685" lon="8.654329260456935"><ele>1014.0</ele><time>2026-05-01T10:48:15Z</time></trkpt><trkpt lat="44.46257092284907" lon="8.654189674283682"><ele>1014.0</ele><time>2026-05-01T10:48:16Z</time></trkpt><trkpt lat="44.46243344805653" lon="8.654015007485777"><ele>1014.0</ele><time>2026-05-01T10:48:17Z</time></trkpt><trkpt lat="44.46231815228773" lon="8.653803956056876"><ele>1014.0</ele><time>2026-05-01T10:48:18Z</time></trkpt><trkpt lat="44.46224023531709" lon="8.653583260454038"><ele>1014.0</ele><time>2026-05-01T10:48:19Z</time></trkpt><trkpt lat="44.46222460593466" lon="8.653359150090413"><ele>1017.3333333333333</ele><time>2026-05-01T10:48:20Z</time></trkpt><trkpt lat="44.4621767500814" lon="8.65307154533984"><ele>1020.6666666666666</ele><time>2026-05-01T10:48:21Z</time></trkpt><trkpt lat="44.46212071318984" lon="8.652779650179843"><ele>1024.0</ele><time>2026-05-01T10:48:22Z</time></trkpt><trkpt lat="44.46201954202326" lon="8.652513664473014"><ele>1017.6666666666666</ele><time>2026-05-01T10:48:23Z</time></trkpt><trkpt lat="44.46191204096571" lon="8.652304243495013"><ele>1011.3333333333333</ele><time>2026-05-01T10:48:24Z</time></trkpt><trkpt lat="44.46182111588084" lon="8.652114675177394"><ele>1005.0</ele><time>2026-05-01T10:48:25Z</time></trkpt><trkpt lat="44.46180434016943" lon="8.651888616218642"><ele>1005.0</ele><time>2026-05-01T10:48:26Z</time></trkpt><trkpt lat="44.46176504055886" lon="8.65163368050118"><ele>1005.0</ele><time>2026-05-01T10:48:27Z</time></trkpt><trkpt lat="44.4617478603278" lon="8.65136340739846"><ele>1005.0</ele><time>2026-05-01T10:48:28Z</time></trkpt><trkpt lat="44.461717694599585" lon="8.65110293274952"><ele>1003.6666666666667</ele><time>2026-05-01T10:48:29Z</time></trkpt><trkpt lat="44.46165423194271" lon="8.650874665663471"><ele>1002.3333333333334</ele><time>2026-05-01T10:48:30Z</time></trkpt><trkpt lat="44.46159145415868" lon="8.650648882956721"><ele>1001.0</ele><time>2026-05-01T10:48:31Z</time></trkpt><trkpt lat="44.46151502817691" lon="8.650427602898935"><ele>1002.0</ele><time>2026-05-01T10:48:32Z</time></trkpt><trkpt lat="44.4614019890923" lon="8.650219087420503"><ele>1003.0</ele><time>2026-05-01T10:48:33Z</time></trkpt><trkpt lat="44.46126065513946" lon="8.650030639384282"><ele>1004.0</ele><time>2026-05-01T10:48:34Z</time></trkpt><trkpt lat="44.46112907456042" lon="8.64986936162508"><ele>1003.6666666666667</ele><time>2026-05-01T10:48:35Z</time></trkpt><trkpt lat="44.46101100639478" lon="8.649713789603844"><ele>1003.3333333333333</ele><time>2026-05-01T10:48:36Z</time></trkpt><trkpt lat="44.460901176568505" lon="8.649562252977667"><ele>1003.0</ele><time>2026-05-01T10:48:37Z</time></trkpt><trkpt lat="44.46079320461408" lon="8.64941421613992"><ele>1003.0</ele><time>2026-05-01T10:48:38Z</time></trkpt><trkpt lat="44.4606858898376" lon="8.649257293606825"><ele>1003.0</ele><time>2026-05-01T10:48:39Z</time></trkpt><trkpt lat="44.46058598682657" lon="8.649089217604745"><ele>1003.0</ele><time>2026-05-01T10:48:40Z</time></trkpt><trkpt lat="44.46049867621579" lon="8.648921846149497"><ele>998.25</ele><time>2026-05-01T10:48:41Z</time></trkpt><trkpt lat="44.46042182487477" lon="8.648747245813198"><ele>993.5</ele><time>2026-05-01T10:48:42Z</time></trkpt><trkpt lat="44.460360794781224" lon="8.648572442307865"><ele>988.75</ele><time>2026-05-01T10:48:43Z</time></trkpt><trkpt lat="44.460308714046874" lon="8.648408824988868"><ele>984.0</ele><time>2026-05-01T10:48:44Z</time></trkpt><trkpt lat="44.46025920302688" lon="8.648238726491929"><ele>984.0</ele><time>2026-05-01T10:48:45Z</time></trkpt><trkpt lat="44.46021337254453" lon="8.648063396034294"><ele>984.0</ele><time>2026-05-01T10:48:46Z</time></trkpt><trkpt lat="44.46018427737302" lon="8.647877301928565"><ele>984.0</ele><time>2026-05-01T10:48:47Z</time></trkpt><trkpt lat="44.460171074251086" lon="8.647688620865425"><ele>984.0</ele><time>2026-05-01T10:48:48Z</time></trkpt><trkpt lat="44.46014985944944" lon="8.647474320044966"><ele>986.3333333333333</ele><time>2026-05-01T10:48:49Z</time></trkpt><trkpt lat="44.460095903609385" lon="8.647245267646083"><ele>988.6666666666666</ele><time>2026-05-01T10:48:50Z</time></trkpt><trkpt lat="44.46002422060699" lon="8.647006724353613"><ele>991.0</ele><time>2026-05-01T10:48:51Z</time></trkpt><trkpt lat="44.459954406248734" lon="8.646763733832804"><ele>992.6666666666666</ele><time>2026-05-01T10:48:52Z</time></trkpt><trkpt lat="44.45989946461769" lon="8.64653652046718"><ele>994.3333333333333</ele><time>2026-05-01T10:48:53Z</time></trkpt><trkpt lat="44.459835372018745" lon="8.646331801622017"><ele>996.0</ele><time>2026-05-01T10:48:54Z</time></trkpt><trkpt lat="44.45978235678403" lon="8.646121820353512"><ele>998.0</ele><time>2026-05-01T10:48:55Z</time></trkpt><trkpt lat="44.459713998567345" lon="8.645904057212979"><ele>1000.0</ele><time>2026-05-01T10:48:56Z</time></trkpt><trkpt lat="44.459625069357614" lon="8.645704033352315"><ele>1002.0</ele><time>2026-05-01T10:48:57Z</time></trkpt><trkpt lat="44.45952449427987" lon="8.645534945566443"><ele>997.5</ele><time>2026-05-01T10:48:58Z</time></trkpt><trkpt lat="44.459427222041555" lon="8.645387754957373"><ele>993.0</ele><time>2026-05-01T10:48:59Z</time></trkpt><trkpt lat="44.45933361749185" lon="8.645233925685796"><ele>988.5</ele><time>2026-05-01T10:49:00Z</time></trkpt><trkpt lat="44.459237308536686" lon="8.645081793958468"><ele>984.0</ele><time>2026-05-01T10:49:01Z</time></trkpt><trkpt lat="44.45915128000092" lon="8.64492662430285"><ele>984.0</ele><time>2026-05-01T10:49:02Z</time></trkpt><trkpt lat="44.45907937059855" lon="8.644779454216682"><ele>984.0</ele><time>2026-05-01T10:49:03Z</time></trkpt><trkpt lat="44.45900925498636" lon="8.644621326654747"><ele>984.0</ele><time>2026-05-01T10:49:04Z</time></trkpt><trkpt lat="44.458952395919965" lon="8.644429673887185"><ele>984.0</ele><time>2026-05-01T10:49:05Z</time></trkpt><trkpt lat="44.45889715841408" lon="8.64423895562191"><ele>981.5</ele><time>2026-05-01T10:49:06Z</time></trkpt><trkpt lat="44.4588442488953" lon="8.64406954787843"><ele>979.0</ele><time>2026-05-01T10:49:07Z</time></trkpt><trkpt lat="44.458790146249186" lon="8.64391348442564"><ele>976.5</ele><time>2026-05-01T10:49:08Z</time></trkpt><trkpt lat="44.45872517611561" lon="8.64377014680828"><ele>974.0</ele><time>2026-05-01T10:49:09Z</time></trkpt><trkpt lat="44.45865527695591" lon="8.643623367984809"><ele>974.0</ele><time>2026-05-01T10:49:10Z</time></trkpt><trkpt lat="44.45858772742304" lon="8.643472973124242"><ele>974.0</ele><time>2026-05-01T10:49:11Z</time></trkpt><trkpt lat="44.45853390093219" lon="8.643318845906135"><ele>974.0</ele><time>2026-05-01T10:49:12Z</time></trkpt><trkpt lat="44.458533747270735" lon="8.643136921031116"><ele>974.0</ele><time>2026-05-01T10:49:13Z</time></trkpt><trkpt lat="44.45850583876091" lon="8.6429402313341"><ele>975.5</ele><time>2026-05-01T10:49:14Z</time></trkpt><trkpt lat="44.45849301232533" lon="8.642752124181529"><ele>977.0</ele><time>2026-05-01T10:49:15Z</time></trkpt><trkpt lat="44.45847052362421" lon="8.642579037368673"><ele>978.5</ele><time>2026-05-01T10:49:16Z</time></trkpt><trkpt lat="44.458436041764635" lon="8.642407305599011"><ele>980.0</ele><time>2026-05-01T10:49:17Z</time></trkpt><trkpt lat="44.458376679242974" lon="8.64218657271415"><ele>980.0</ele><time>2026-05-01T10:49:18Z</time></trkpt><trkpt lat="44.45829809771246" lon="8.641969484818668"><ele>980.0</ele><time>2026-05-01T10:49:19Z</time></trkpt><trkpt lat="44.45822368112965" lon="8.641768362894611"><ele>980.0</ele><time>2026-05-01T10:49:20Z</time></trkpt><trkpt lat="44.458141642395944" lon="8.641566927487352"><ele>982.3333333333334</ele><time>2026-05-01T10:49:21Z</time></trkpt><trkpt lat="44.45806216964845" lon="8.641346759535743"><ele>984.6666666666667</ele><time>2026-05-01T10:49:22Z</time></trkpt><trkpt lat="44.457986321346716" lon="8.641107080770976"><ele>987.0</ele><time>2026-05-01T10:49:23Z</time></trkpt><trkpt lat="44.45792822890454" lon="8.640867080524627"><ele>982.0</ele><time>2026-05-01T10:49:24Z</time></trkpt><trkpt lat="44.457873818984936" lon="8.640630735880563"><ele>977.0</ele><time>2026-05-01T10:49:25Z</time></trkpt><trkpt lat="44.45779569788688" lon="8.640393536765124"><ele>972.0</ele><time>2026-05-01T10:49:26Z</time></trkpt><trkpt lat="44.457659902485105" lon="8.640197167146955"><ele>972.0</ele><time>2026-05-01T10:49:27Z</time></trkpt><trkpt lat="44.45751668777738" lon="8.640009877354503"><ele>972.0</ele><time>2026-05-01T10:49:28Z</time></trkpt><trkpt lat="44.457417938821095" lon="8.639848577924425"><ele>972.0</ele><time>2026-05-01T10:49:29Z</time></trkpt><trkpt lat="44.457400439513705" lon="8.63961539465028"><ele>974.0</ele><time>2026-05-01T10:49:30Z</time></trkpt><trkpt lat="44.457369396208456" lon="8.63934538487886"><ele>976.0</ele><time>2026-05-01T10:49:31Z</time></trkpt><trkpt lat="44.45731761398047" lon="8.63907096244274"><ele>978.0</ele><time>2026-05-01T10:49:32Z</time></trkpt><trkpt lat="44.45723489018043" lon="8.638797272826658"><ele>972.3333333333333</ele><time>2026-05-01T10:49:33Z</time></trkpt><trkpt lat="44.457110529634164" lon="8.638539114377213"><ele>966.6666666666666</ele><time>2026-05-01T10:49:34Z</time></trkpt><trkpt lat="44.45698062635186" lon="8.638324731683067"><ele>961.0</ele><time>2026-05-01T10:49:35Z</time></trkpt><trkpt lat="44.456855843320696" lon="8.638124192637445"><ele>961.0</ele><time>2026-05-01T10:49:36Z</time></trkpt><trkpt lat="44.45673454359512" lon="8.637909383642542"><ele>961.0</ele><time>2026-05-01T10:49:37Z</time></trkpt><trkpt lat="44.456616310710686" lon="8.637722783856498"><ele>961.0</ele><time>2026-05-01T10:49:38Z</time></trkpt><trkpt lat="44.45652353658467" lon="8.637547914957613"><ele>962.6666666666666</ele><time>2026-05-01T10:49:39Z</time></trkpt><trkpt lat="44.456499557832785" lon="8.637322060870519"><ele>964.3333333333333</ele><time>2026-05-01T10:49:40Z</time></trkpt><trkpt lat="44.456485271781176" lon="8.637064983234904"><ele>966.0</ele><time>2026-05-01T10:49:41Z</time></trkpt><trkpt lat="44.45644907290525" lon="8.636831101149056"><ele>966.0</ele><time>2026-05-01T10:49:42Z</time></trkpt><trkpt lat="44.45636707720026" lon="8.63661718045952"><ele>966.0</ele><time>2026-05-01T10:49:43Z</time></trkpt><trkpt lat="44.4562339814653" lon="8.636415506469902"><ele>966.0</ele><time>2026-05-01T10:49:44Z</time></trkpt><trkpt lat="44.4560697443705" lon="8.63621292937895"><ele>964.0</ele><time>2026-05-01T10:49:45Z</time></trkpt><trkpt lat="44.4559117942335" lon="8.636043214773348"><ele>962.0</ele><time>2026-05-01T10:49:46Z</time></trkpt><trkpt lat="44.45578460853631" lon="8.63589319752718"><ele>960.0</ele><time>2026-05-01T10:49:47Z</time></trkpt><trkpt lat="44.455717516873385" lon="8.63575140288621"><ele>960.0</ele><time>2026-05-01T10:49:48Z</time></trkpt><trkpt lat="44.4556789607698" lon="8.635619943305889"><ele>960.0</ele><time>2026-05-01T10:49:49Z</time></trkpt><trkpt lat="44.45565957724286" lon="8.635469534439936"><ele>960.0</ele><time>2026-05-01T10:49:50Z</time></trkpt><trkpt lat="44.45566740780917" lon="8.63529048336536"><ele>960.0</ele><time>2026-05-01T10:49:51Z</time></trkpt><trkpt lat="44.45570629511689" lon="8.635127029742343"><ele>959.0</ele><time>2026-05-01T10:49:52Z</time></trkpt><trkpt lat="44.45578221284285" lon="8.63498890937929"><ele>958.0</ele><time>2026-05-01T10:49:53Z</time></trkpt><trkpt lat="44.45587965338828" lon="8.634890490416971"><ele>957.0</ele><time>2026-05-01T10:49:54Z</time></trkpt><trkpt lat="44.45601010799298" lon="8.634845895194545"><ele>956.0</ele><time>2026-05-01T10:49:55Z</time></trkpt><trkpt lat="44.45618550800194" lon="8.634794673183569"><ele>955.3333333333334</ele><time>2026-05-01T10:49:56Z</time></trkpt><trkpt lat="44.45635183078395" lon="8.634739536253633"><ele>954.6666666666667</ele><time>2026-05-01T10:49:57Z</time></trkpt><trkpt lat="44.45651594998983" lon="8.634688618460478"><ele>954.0</ele><time>2026-05-01T10:49:58Z</time></trkpt><trkpt lat="44.45668604390468" lon="8.634632916429343"><ele>954.0</ele><time>2026-05-01T10:49:59Z</time></trkpt><trkpt lat="44.45685294084195" lon="8.63458385927718"><ele>954.0</ele><time>2026-05-01T10:50:00Z</time></trkpt><trkpt lat="44.457010863426504" lon="8.634540746891078"><ele>954.0</ele><time>2026-05-01T10:50:01Z</time></trkpt><trkpt lat="44.45716716067246" lon="8.63449459670587"><ele>954.6666666666667</ele><time>2026-05-01T10:50:02Z</time></trkpt><trkpt lat="44.45734105568462" lon="8.634475097690512"><ele>955.3333333333334</ele><time>2026-05-01T10:50:03Z</time></trkpt><trkpt lat="44.457521505358784" lon="8.634471152215525"><ele>956.0</ele><time>2026-05-01T10:50:04Z</time></trkpt><trkpt lat="44.45771076517488" lon="8.634480426669056"><ele>956.0</ele><time>2026-05-01T10:50:05Z</time></trkpt><trkpt lat="44.457891926151646" lon="8.634496301751081"><ele>956.0</ele><time>2026-05-01T10:50:06Z</time></trkpt><trkpt lat="44.45807175382926" lon="8.634512110881222"><ele>956.0</ele><time>2026-05-01T10:50:07Z</time></trkpt><trkpt lat="44.45826049873199" lon="8.634530751264622"><ele>953.3333333333334</ele><time>2026-05-01T10:50:08Z</time></trkpt><trkpt lat="44.45845316293086" lon="8.634543407624552"><ele>950.6666666666667</ele><time>2026-05-01T10:50:09Z</time></trkpt><trkpt lat="44.45863480848202" lon="8.634548321226287"><ele>948.0</ele><time>2026-05-01T10:50:10Z</time></trkpt><trkpt lat="44.45882092054883" lon="8.634551590538065"><ele>945.3333333333333</ele><time>2026-05-01T10:50:11Z</time></trkpt><trkpt lat="44.45901055218827" lon="8.634559308356165"><ele>942.6666666666666</ele><time>2026-05-01T10:50:12Z</time></trkpt><trkpt lat="44.45920282101588" lon="8.634567811559878"><ele>940.0</ele><time>2026-05-01T10:50:13Z</time></trkpt><trkpt lat="44.459382614321655" lon="8.6345707285062"><ele>940.0</ele><time>2026-05-01T10:50:14Z</time></trkpt><trkpt lat="44.45955778987957" lon="8.63457141972693"><ele>940.0</ele><time>2026-05-01T10:50:15Z</time></trkpt><trkpt lat="44.45971713092661" lon="8.634575774068846"><ele>940.0</ele><time>2026-05-01T10:50:16Z</time></trkpt><trkpt lat="44.45986884759653" lon="8.634584545480932"><ele>935.0</ele><time>2026-05-01T10:50:17Z</time></trkpt><trkpt lat="44.459992384341334" lon="8.634621425881708"><ele>930.0</ele><time>2026-05-01T10:50:18Z</time></trkpt><trkpt lat="44.46009376912469" lon="8.634721930999765"><ele>925.0</ele><time>2026-05-01T10:50:19Z</time></trkpt><trkpt lat="44.460169326070414" lon="8.634891380787268"><ele>920.0</ele><time>2026-05-01T10:50:20Z</time></trkpt><trkpt lat="44.46022859860867" lon="8.6351342453972"><ele>926.0</ele><time>2026-05-01T10:50:21Z</time></trkpt><trkpt lat="44.46027757852914" lon="8.635373725743856"><ele>932.0</ele><time>2026-05-01T10:50:22Z</time></trkpt><trkpt lat="44.460338317709564" lon="8.635584993987944"><ele>938.0</ele><time>2026-05-01T10:50:23Z</time></trkpt><trkpt lat="44.460398944584234" lon="8.635772037734705"><ele>938.0</ele><time>2026-05-01T10:50:24Z</time></trkpt><trkpt lat="44.46044407177478" lon="8.635926030015424"><ele>938.0</ele><time>2026-05-01T10:50:25Z</time></trkpt><trkpt lat="44.46050154625373" lon="8.636026195942387"><ele>938.0</ele><time>2026-05-01T10:50:26Z</time></trkpt><trkpt lat="44.46058229533039" lon="8.636073151136879"><ele>938.0</ele><time>2026-05-01T10:50:27Z</time></trkpt><trkpt lat="44.46068733570543" lon="8.63606896551834"><ele>938.0</ele><time>2026-05-01T10:50:28Z</time></trkpt><trkpt lat="44.460815259957045" lon="8.636030477339817"><ele>931.5</ele><time>2026-05-01T10:50:29Z</time></trkpt><trkpt lat="44.46095496942902" lon="8.635989330139946"><ele>925.0</ele><time>2026-05-01T10:50:30Z</time></trkpt><trkpt lat="44.46110315890981" lon="8.63595727172274"><ele>918.5</ele><time>2026-05-01T10:50:31Z</time></trkpt><trkpt lat="44.4612526501328" lon="8.63592658542963"><ele>912.0</ele><time>2026-05-01T10:50:32Z</time></trkpt><trkpt lat="44.46138719598447" lon="8.635894481366975"><ele>912.0</ele><time>2026-05-01T10:50:33Z</time></trkpt><trkpt lat="44.461513579323" lon="8.635857618688581"><ele>912.0</ele><time>2026-05-01T10:50:34Z</time></trkpt><trkpt lat="44.46162374521428" lon="8.635805357548056"><ele>912.0</ele><time>2026-05-01T10:50:35Z</time></trkpt><trkpt lat="44.46172088730732" lon="8.635699734582946"><ele>912.0</ele><time>2026-05-01T10:50:36Z</time></trkpt><trkpt lat="44.46179951813473" lon="8.635532507723212"><ele>912.0</ele><time>2026-05-01T10:50:37Z</time></trkpt><trkpt lat="44.4618813740296" lon="8.635351053261296"><ele>912.0</ele><time>2026-05-01T10:50:38Z</time></trkpt><trkpt lat="44.461978712645134" lon="8.635194820239587"><ele>912.0</ele><time>2026-05-01T10:50:39Z</time></trkpt><trkpt lat="44.46210006346464" lon="8.635114494613054"><ele>912.0</ele><time>2026-05-01T10:50:40Z</time></trkpt><trkpt lat="44.462228530180596" lon="8.635045197093433"><ele>909.75</ele><time>2026-05-01T10:50:41Z</time></trkpt><trkpt lat="44.462369684087896" lon="8.634973585176402"><ele>907.5</ele><time>2026-05-01T10:50:42Z</time></trkpt><trkpt lat="44.462504481447006" lon="8.634930777342"><ele>905.25</ele><time>2026-05-01T10:50:43Z</time></trkpt><trkpt lat="44.46262981866061" lon="8.634882050409189"><ele>903.0</ele><time>2026-05-01T10:50:44Z</time></trkpt><trkpt lat="44.46275449463283" lon="8.634856793794247"><ele>903.0</ele><time>2026-05-01T10:50:45Z</time></trkpt><trkpt lat="44.46288562836553" lon="8.634833522033995"><ele>903.0</ele><time>2026-05-01T10:50:46Z</time></trkpt><trkpt lat="44.46302217138104" lon="8.63480496493656"><ele>903.0</ele><time>2026-05-01T10:50:47Z</time></trkpt><trkpt lat="44.46316656402142" lon="8.634785320552817"><ele>903.0</ele><time>2026-05-01T10:50:48Z</time></trkpt><trkpt lat="44.46330062526971" lon="8.63471026758468"><ele>905.3333333333333</ele><time>2026-05-01T10:50:49Z</time></trkpt><trkpt lat="44.46343143268227" lon="8.634591440131786"><ele>907.6666666666666</ele><time>2026-05-01T10:50:50Z</time></trkpt><trkpt lat="44.46355191216919" lon="8.63443339645529"><ele>910.0</ele><time>2026-05-01T10:50:51Z</time></trkpt><trkpt lat="44.46365689845902" lon="8.63427839717426"><ele>906.75</ele><time>2026-05-01T10:50:52Z</time></trkpt><trkpt lat="44.46374746444097" lon="8.634133817484399"><ele>903.5</ele><time>2026-05-01T10:50:53Z</time></trkpt><trkpt lat="44.46383963928992" lon="8.633998425555825"><ele>900.25</ele><time>2026-05-01T10:50:54Z</time></trkpt><trkpt lat="44.46394476549669" lon="8.633906580883535"><ele>897.0</ele><time>2026-05-01T10:50:55Z</time></trkpt><trkpt lat="44.46407484918999" lon="8.633902779234116"><ele>897.0</ele><time>2026-05-01T10:50:56Z</time></trkpt><trkpt lat="44.4642055344082" lon="8.633852982237524"><ele>897.0</ele><time>2026-05-01T10:50:57Z</time></trkpt><trkpt lat="44.46433651482846" lon="8.633777760295342"><ele>897.0</ele><time>2026-05-01T10:50:58Z</time></trkpt><trkpt lat="44.46444236225746" lon="8.633630073310899"><ele>897.0</ele><time>2026-05-01T10:50:59Z</time></trkpt><trkpt lat="44.464535783127936" lon="8.633434912885358"><ele>893.0</ele><time>2026-05-01T10:51:00Z</time></trkpt><trkpt lat="44.464612980883146" lon="8.633252340319656"><ele>889.0</ele><time>2026-05-01T10:51:01Z</time></trkpt><trkpt lat="44.46467864343225" lon="8.633106813377164"><ele>885.0</ele><time>2026-05-01T10:51:02Z</time></trkpt><trkpt lat="44.464761265953435" lon="8.63300788211835"><ele>881.0</ele><time>2026-05-01T10:51:03Z</time></trkpt><trkpt lat="44.464869903612126" lon="8.632961957802042"><ele>881.0</ele><time>2026-05-01T10:51:04Z</time></trkpt><trkpt lat="44.46499638175932" lon="8.633017960951383"><ele>881.0</ele><time>2026-05-01T10:51:05Z</time></trkpt><trkpt lat="44.46514079232952" lon="8.633038310181623"><ele>881.0</ele><time>2026-05-01T10:51:06Z</time></trkpt><trkpt lat="44.465297909323446" lon="8.633104407863021"><ele>881.0</ele><time>2026-05-01T10:51:07Z</time></trkpt><trkpt lat="44.46541383943244" lon="8.633184077636322"><ele>878.5</ele><time>2026-05-01T10:51:08Z</time></trkpt><trkpt lat="44.46547061951146" lon="8.633302163661918"><ele>876.0</ele><time>2026-05-01T10:51:09Z</time></trkpt><trkpt lat="44.46549006196538" lon="8.633485796208747"><ele>873.5</ele><time>2026-05-01T10:51:10Z</time></trkpt><trkpt lat="44.465519013341215" lon="8.633663990500661"><ele>871.0</ele><time>2026-05-01T10:51:11Z</time></trkpt><trkpt lat="44.4655750851236" lon="8.633786848931589"><ele>871.0</ele><time>2026-05-01T10:51:12Z</time></trkpt><trkpt lat="44.46566363393702" lon="8.633825177930749"><ele>871.0</ele><time>2026-05-01T10:51:13Z</time></trkpt><trkpt lat="44.46576930612692" lon="8.633776750093283"><ele>871.0</ele><time>2026-05-01T10:51:14Z</time></trkpt><trkpt lat="44.46588027097291" lon="8.633639498798372"><ele>871.0</ele><time>2026-05-01T10:51:15Z</time></trkpt><trkpt lat="44.46598289811673" lon="8.633460402217132"><ele>871.0</ele><time>2026-05-01T10:51:16Z</time></trkpt><trkpt lat="44.46607885565303" lon="8.633263477027798"><ele>871.0</ele><time>2026-05-01T10:51:17Z</time></trkpt><trkpt lat="44.46613819041298" lon="8.63306192705982"><ele>871.0</ele><time>2026-05-01T10:51:18Z</time></trkpt><trkpt lat="44.46616131671992" lon="8.632838880256543"><ele>865.6666666666666</ele><time>2026-05-01T10:51:19Z</time></trkpt><trkpt lat="44.46617967793529" lon="8.632617046602324"><ele>860.3333333333333</ele><time>2026-05-01T10:51:20Z</time></trkpt><trkpt lat="44.466205731766244" lon="8.632400640263883"><ele>855.0</ele><time>2026-05-01T10:51:21Z</time></trkpt><trkpt lat="44.46623672687246" lon="8.632204660647139"><ele>854.5</ele><time>2026-05-01T10:51:22Z</time></trkpt><trkpt lat="44.46629864091338" lon="8.632055052886153"><ele>854.0</ele><time>2026-05-01T10:51:23Z</time></trkpt><trkpt lat="44.46638109038884" lon="8.631958285420374"><ele>853.5</ele><time>2026-05-01T10:51:24Z</time></trkpt><trkpt lat="44.46649396605973" lon="8.631831780015224"><ele>853.0</ele><time>2026-05-01T10:51:25Z</time></trkpt><trkpt lat="44.466596755175864" lon="8.631696366271651"><ele>853.0</ele><time>2026-05-01T10:51:26Z</time></trkpt><trkpt lat="44.46670021860273" lon="8.631542564438373"><ele>853.0</ele><time>2026-05-01T10:51:27Z</time></trkpt><trkpt lat="44.46681471661724" lon="8.631356402258776"><ele>853.0</ele><time>2026-05-01T10:51:28Z</time></trkpt><trkpt lat="44.46692360965693" lon="8.631178376336933"><ele>853.75</ele><time>2026-05-01T10:51:29Z</time></trkpt><trkpt lat="44.46704063109082" lon="8.6310812672573"><ele>854.5</ele><time>2026-05-01T10:51:30Z</time></trkpt><trkpt lat="44.467150663105656" lon="8.631025390981943"><ele>855.25</ele><time>2026-05-01T10:51:31Z</time></trkpt><trkpt lat="44.46724890611958" lon="8.631103221564256"><ele>856.0</ele><time>2026-05-01T10:51:32Z</time></trkpt><trkpt lat="44.46739740748361" lon="8.631169146234647"><ele>856.0</ele><time>2026-05-01T10:51:33Z</time></trkpt><trkpt lat="44.467573177378014" lon="8.631232626113086"><ele>856.0</ele><time>2026-05-01T10:51:34Z</time></trkpt><trkpt lat="44.46776827963951" lon="8.631303264827613"><ele>856.0</ele><time>2026-05-01T10:51:35Z</time></trkpt><trkpt lat="44.46797177253966" lon="8.631375149269692"><ele>852.0</ele><time>2026-05-01T10:51:36Z</time></trkpt><trkpt lat="44.468157137370255" lon="8.63144546451167"><ele>848.0</ele><time>2026-05-01T10:51:37Z</time></trkpt><trkpt lat="44.46832480351991" lon="8.631527501595992"><ele>844.0</ele><time>2026-05-01T10:51:38Z</time></trkpt><trkpt lat="44.468467412536626" lon="8.631596923631607"><ele>844.0</ele><time>2026-05-01T10:51:39Z</time></trkpt><trkpt lat="44.468599456472504" lon="8.631637191694523"><ele>844.0</ele><time>2026-05-01T10:51:40Z</time></trkpt><trkpt lat="44.46870103354836" lon="8.631680919062594"><ele>844.0</ele><time>2026-05-01T10:51:41Z</time></trkpt><trkpt lat="44.468799118990965" lon="8.63165776766327"><ele>844.0</ele><time>2026-05-01T10:51:42Z</time></trkpt><trkpt lat="44.468902643809194" lon="8.631551513728475"><ele>846.3333333333333</ele><time>2026-05-01T10:51:43Z</time></trkpt><trkpt lat="44.46900273813253" lon="8.631368855211626"><ele>848.6666666666667</ele><time>2026-05-01T10:51:44Z</time></trkpt><trkpt lat="44.469107162028116" lon="8.631185532291042"><ele>851.0</ele><time>2026-05-01T10:51:45Z</time></trkpt><trkpt lat="44.46921053666353" lon="8.631041858740364"><ele>847.25</ele><time>2026-05-01T10:51:46Z</time></trkpt><trkpt lat="44.469314606274615" lon="8.63089946347989"><ele>843.5</ele><time>2026-05-01T10:51:47Z</time></trkpt><trkpt lat="44.46938821203809" lon="8.630745698838162"><ele>839.75</ele><time>2026-05-01T10:51:48Z</time></trkpt><trkpt lat="44.46943376705445" lon="8.63056255468729"><ele>836.0</ele><time>2026-05-01T10:51:49Z</time></trkpt><trkpt lat="44.46947471944667" lon="8.630356144769003"><ele>838.25</ele><time>2026-05-01T10:51:50Z</time></trkpt><trkpt lat="44.46951711149496" lon="8.630143654249494"><ele>840.5</ele><time>2026-05-01T10:51:51Z</time></trkpt><trkpt lat="44.46956251028608" lon="8.62994081024954"><ele>842.75</ele><time>2026-05-01T10:51:52Z</time></trkpt><trkpt lat="44.46960378709026" lon="8.629754054277457"><ele>845.0</ele><time>2026-05-01T10:51:53Z</time></trkpt><trkpt lat="44.46964227788356" lon="8.629559956008897"><ele>841.25</ele><time>2026-05-01T10:51:54Z</time></trkpt><trkpt lat="44.46968467759225" lon="8.629363045694618"><ele>837.5</ele><time>2026-05-01T10:51:55Z</time></trkpt><trkpt lat="44.469726121346184" lon="8.629172466215346"><ele>833.75</ele><time>2026-05-01T10:51:56Z</time></trkpt><trkpt lat="44.46976087485893" lon="8.62899650545655"><ele>830.0</ele><time>2026-05-01T10:51:57Z</time></trkpt><trkpt lat="44.469800510046205" lon="8.628832774201362"><ele>830.0</ele><time>2026-05-01T10:51:58Z</time></trkpt><trkpt lat="44.46987357482843" lon="8.628693426369823"><ele>830.0</ele><time>2026-05-01T10:51:59Z</time></trkpt><trkpt lat="44.46996691438539" lon="8.628541753713344"><ele>830.0</ele><time>2026-05-01T10:52:00Z</time></trkpt><trkpt lat="44.470068211021804" lon="8.628374169385296"><ele>830.0</ele><time>2026-05-01T10:52:01Z</time></trkpt><trkpt lat="44.470147862581825" lon="8.628199591550365"><ele>827.8</ele><time>2026-05-01T10:52:02Z</time></trkpt><trkpt lat="44.47019786250636" lon="8.628056938369909"><ele>825.6</ele><time>2026-05-01T10:52:03Z</time></trkpt><trkpt lat="44.47019033808268" lon="8.62792700300376"><ele>823.4000000000001</ele><time>2026-05-01T10:52:04Z</time></trkpt><trkpt lat="44.47013492145108" lon="8.627823059197201"><ele>821.2</ele><time>2026-05-01T10:52:05Z</time></trkpt><trkpt lat="44.47003894493666" lon="8.627784354384936"><ele>819.0</ele><time>2026-05-01T10:52:06Z</time></trkpt><trkpt lat="44.469939561047816" lon="8.627787423003598"><ele>819.0</ele><time>2026-05-01T10:52:07Z</time></trkpt><trkpt lat="44.46983774901361" lon="8.627938266613812"><ele>819.0</ele><time>2026-05-01T10:52:08Z</time></trkpt><trkpt lat="44.46973763535933" lon="8.628134924064181"><ele>819.0</ele><time>2026-05-01T10:52:09Z</time></trkpt><trkpt lat="44.469618045407415" lon="8.628319095957053"><ele>817.6666666666667</ele><time>2026-05-01T10:52:10Z</time></trkpt><trkpt lat="44.46950890599316" lon="8.628481389047986"><ele>816.3333333333334</ele><time>2026-05-01T10:52:11Z</time></trkpt><trkpt lat="44.46938537018918" lon="8.628636944849125"><ele>815.0</ele><time>2026-05-01T10:52:12Z</time></trkpt><trkpt lat="44.46924812146662" lon="8.628783612895353"><ele>815.0</ele><time>2026-05-01T10:52:13Z</time></trkpt><trkpt lat="44.469100288939565" lon="8.628926739757139"><ele>815.0</ele><time>2026-05-01T10:52:14Z</time></trkpt><trkpt lat="44.46893259279349" lon="8.62907066023206"><ele>815.0</ele><time>2026-05-01T10:52:15Z</time></trkpt><trkpt lat="44.468797417531235" lon="8.629227828912857"><ele>814.75</ele><time>2026-05-01T10:52:16Z</time></trkpt><trkpt lat="44.46866713307972" lon="8.629350878959693"><ele>814.5</ele><time>2026-05-01T10:52:17Z</time></trkpt><trkpt lat="44.46854926027009" lon="8.62942088765476"><ele>814.25</ele><time>2026-05-01T10:52:18Z</time></trkpt><trkpt lat="44.46845799470811" lon="8.629471119087782"><ele>814.0</ele><time>2026-05-01T10:52:19Z</time></trkpt><trkpt lat="44.4683783101305" lon="8.629508992394298"><ele>812.6</ele><time>2026-05-01T10:52:20Z</time></trkpt><trkpt lat="44.46829663939623" lon="8.629466679457291"><ele>811.2</ele><time>2026-05-01T10:52:21Z</time></trkpt><trkpt lat="44.46823589896471" lon="8.629345742113024"><ele>809.8000000000001</ele><time>2026-05-01T10:52:22Z</time></trkpt><trkpt lat="44.46816222922607" lon="8.629237238787162"><ele>808.4000000000001</ele><time>2026-05-01T10:52:23Z</time></trkpt><trkpt lat="44.46809867101143" lon="8.629153640413401"><ele>807.0</ele><time>2026-05-01T10:52:24Z</time></trkpt><trkpt lat="44.4681157688984" lon="8.62904806602857"><ele>807.0</ele><time>2026-05-01T10:52:25Z</time></trkpt><trkpt lat="44.46819257316753" lon="8.628944685272936"><ele>807.0</ele><time>2026-05-01T10:52:26Z</time></trkpt><trkpt lat="44.46833254666696" lon="8.628927703802368"><ele>807.0</ele><time>2026-05-01T10:52:27Z</time></trkpt><trkpt lat="44.46845264815305" lon="8.628835025989707"><ele>807.0</ele><time>2026-05-01T10:52:28Z</time></trkpt><trkpt lat="44.46858431395984" lon="8.628738060464967"><ele>805.0</ele><time>2026-05-01T10:52:29Z</time></trkpt><trkpt lat="44.46867110735377" lon="8.628564565499655"><ele>803.0</ele><time>2026-05-01T10:52:30Z</time></trkpt><trkpt lat="44.468723042539004" lon="8.628340092356238"><ele>801.0</ele><time>2026-05-01T10:52:31Z</time></trkpt><trkpt lat="44.468772585456335" lon="8.628100056008275"><ele>800.6666666666667</ele><time>2026-05-01T10:52:32Z</time></trkpt><trkpt lat="44.468839351387416" lon="8.627856145192794"><ele>800.3333333333334</ele><time>2026-05-01T10:52:33Z</time></trkpt><trkpt lat="44.46891182419634" lon="8.627618648366626"><ele>800.0</ele><time>2026-05-01T10:52:34Z</time></trkpt><trkpt lat="44.468979706951345" lon="8.62739314124223"><ele>800.0</ele><time>2026-05-01T10:52:35Z</time></trkpt><trkpt lat="44.46904183521726" lon="8.627182094990655"><ele>800.0</ele><time>2026-05-01T10:52:36Z</time></trkpt><trkpt lat="44.4691013467683" lon="8.626979744917511"><ele>800.0</ele><time>2026-05-01T10:52:37Z</time></trkpt><trkpt lat="44.469161424780104" lon="8.626764532465451"><ele>798.0</ele><time>2026-05-01T10:52:38Z</time></trkpt><trkpt lat="44.4692171751874" lon="8.626544009764697"><ele>796.0</ele><time>2026-05-01T10:52:39Z</time></trkpt><trkpt lat="44.46926621844485" lon="8.626321630827475"><ele>794.0</ele><time>2026-05-01T10:52:40Z</time></trkpt><trkpt lat="44.46928772833535" lon="8.62608920050368"><ele>793.6666666666667</ele><time>2026-05-01T10:52:41Z</time></trkpt><trkpt lat="44.46930314449084" lon="8.625842608833418"><ele>793.3333333333333</ele><time>2026-05-01T10:52:42Z</time></trkpt><trkpt lat="44.46931825186744" lon="8.625614049013071"><ele>793.0</ele><time>2026-05-01T10:52:43Z</time></trkpt><trkpt lat="44.46933418050982" lon="8.6253865031078"><ele>793.0</ele><time>2026-05-01T10:52:44Z</time></trkpt><trkpt lat="44.46934855335136" lon="8.625164155600618"><ele>793.0</ele><time>2026-05-01T10:52:45Z</time></trkpt><trkpt lat="44.469378112824174" lon="8.624927702746383"><ele>793.0</ele><time>2026-05-01T10:52:46Z</time></trkpt><trkpt lat="44.469402236957045" lon="8.624707511027921"><ele>793.0</ele><time>2026-05-01T10:52:47Z</time></trkpt><trkpt lat="44.46942142685298" lon="8.624498921217036"><ele>793.0</ele><time>2026-05-01T10:52:48Z</time></trkpt><trkpt lat="44.46943480660485" lon="8.624303871619082"><ele>793.0</ele><time>2026-05-01T10:52:49Z</time></trkpt><trkpt lat="44.46944685711836" lon="8.624118867337074"><ele>793.0</ele><time>2026-05-01T10:52:50Z</time></trkpt><trkpt lat="44.46944253307195" lon="8.623933933484443"><ele>792.25</ele><time>2026-05-01T10:52:51Z</time></trkpt><trkpt lat="44.46941592875786" lon="8.623744867759527"><ele>791.5</ele><time>2026-05-01T10:52:52Z</time></trkpt><trkpt lat="44.46937676418176" lon="8.62356509225679"><ele>790.75</ele><time>2026-05-01T10:52:53Z</time></trkpt><trkpt lat="44.469342892781796" lon="8.62339179746949"><ele>790.0</ele><time>2026-05-01T10:52:54Z</time></trkpt><trkpt lat="44.469339832419486" lon="8.623220371749627"><ele>789.75</ele><time>2026-05-01T10:52:55Z</time></trkpt><trkpt lat="44.46936286182336" lon="8.62303477381688"><ele>789.5</ele><time>2026-05-01T10:52:56Z</time></trkpt><trkpt lat="44.46940919659499" lon="8.622839156824146"><ele>789.25</ele><time>2026-05-01T10:52:57Z</time></trkpt><trkpt lat="44.46946250553125" lon="8.622635167098139"><ele>789.0</ele><time>2026-05-01T10:52:58Z</time></trkpt><trkpt lat="44.46951763200376" lon="8.622429756651679"><ele>787.6666666666667</ele><time>2026-05-01T10:52:59Z</time></trkpt><trkpt lat="44.469568477909924" lon="8.622220536816037"><ele>786.3333333333334</ele><time>2026-05-01T10:53:00Z</time></trkpt><trkpt lat="44.46957991917501" lon="8.622013500962048"><ele>785.0</ele><time>2026-05-01T10:53:01Z</time></trkpt><trkpt lat="44.46953392459752" lon="8.621812258672886"><ele>785.0</ele><time>2026-05-01T10:53:02Z</time></trkpt><trkpt lat="44.469439382311755" lon="8.621646093264568"><ele>785.0</ele><time>2026-05-01T10:53:03Z</time></trkpt><trkpt lat="44.46931575587571" lon="8.621529325118187"><ele>785.0</ele><time>2026-05-01T10:53:04Z</time></trkpt><trkpt lat="44.46918623525412" lon="8.621448259026844"><ele>785.0</ele><time>2026-05-01T10:53:05Z</time></trkpt><trkpt lat="44.46907795431033" lon="8.621337300111064"><ele>785.0</ele><time>2026-05-01T10:53:06Z</time></trkpt><trkpt lat="44.46904945697312" lon="8.621164256110829"><ele>785.0</ele><time>2026-05-01T10:53:07Z</time></trkpt><trkpt lat="44.46902251931157" lon="8.621001239196543"><ele>785.0</ele><time>2026-05-01T10:53:08Z</time></trkpt><trkpt lat="44.46900664708778" lon="8.620855401942267"><ele>785.0</ele><time>2026-05-01T10:53:09Z</time></trkpt><trkpt lat="44.46898224558517" lon="8.620704817428134"><ele>785.75</ele><time>2026-05-01T10:53:10Z</time></trkpt><trkpt lat="44.468961777869076" lon="8.620549319754641"><ele>786.5</ele><time>2026-05-01T10:53:11Z</time></trkpt><trkpt lat="44.46894197170588" lon="8.620380891774156"><ele>787.25</ele><time>2026-05-01T10:53:12Z</time></trkpt><trkpt lat="44.46892449224149" lon="8.620215135168324"><ele>788.0</ele><time>2026-05-01T10:53:13Z</time></trkpt><trkpt lat="44.468924091889974" lon="8.620062804642501"><ele>788.75</ele><time>2026-05-01T10:53:14Z</time></trkpt><trkpt lat="44.468956175765" lon="8.619929570979625"><ele>789.5</ele><time>2026-05-01T10:53:15Z</time></trkpt><trkpt lat="44.46901462058304" lon="8.619798856478354"><ele>790.25</ele><time>2026-05-01T10:53:16Z</time></trkpt><trkpt lat="44.469093325361776" lon="8.619662037066195"><ele>791.0</ele><time>2026-05-01T10:53:17Z</time></trkpt><trkpt lat="44.46918027985621" lon="8.619497471549685"><ele>789.6666666666667</ele><time>2026-05-01T10:53:18Z</time></trkpt><trkpt lat="44.469242730556914" lon="8.61928602698545"><ele>788.3333333333333</ele><time>2026-05-01T10:53:19Z</time></trkpt><trkpt lat="44.46926333201336" lon="8.619030147848497"><ele>787.0</ele><time>2026-05-01T10:53:20Z</time></trkpt><trkpt lat="44.46926929895743" lon="8.618741255577493"><ele>785.3333333333333</ele><time>2026-05-01T10:53:21Z</time></trkpt><trkpt lat="44.4692740903426" lon="8.61844498311933"><ele>783.6666666666667</ele><time>2026-05-01T10:53:22Z</time></trkpt><trkpt lat="44.46929977660888" lon="8.618145400225572"><ele>782.0</ele><time>2026-05-01T10:53:23Z</time></trkpt><trkpt lat="44.46934515044082" lon="8.617838033095875"><ele>780.6666666666667</ele><time>2026-05-01T10:53:24Z</time></trkpt><trkpt lat="44.46939685699876" lon="8.617563746427415"><ele>779.3333333333333</ele><time>2026-05-01T10:53:25Z</time></trkpt><trkpt lat="44.46942409339367" lon="8.617339131360483"><ele>778.0</ele><time>2026-05-01T10:53:26Z</time></trkpt><trkpt lat="44.46939238445314" lon="8.61717544338309"><ele>778.0</ele><time>2026-05-01T10:53:27Z</time></trkpt><trkpt lat="44.46928422510479" lon="8.617037380377992"><ele>778.0</ele><time>2026-05-01T10:53:28Z</time></trkpt><trkpt lat="44.469123819700016" lon="8.616911539686107"><ele>778.0</ele><time>2026-05-01T10:53:29Z</time></trkpt><trkpt lat="44.46895447805846" lon="8.61681053087044"><ele>781.0</ele><time>2026-05-01T10:53:30Z</time></trkpt><trkpt lat="44.46882694319669" lon="8.61666948730254"><ele>784.0</ele><time>2026-05-01T10:53:31Z</time></trkpt><trkpt lat="44.46876640224655" lon="8.616441523838198"><ele>787.0</ele><time>2026-05-01T10:53:32Z</time></trkpt><trkpt lat="44.4687057805286" lon="8.61617453251026"><ele>780.3333333333333</ele><time>2026-05-01T10:53:33Z</time></trkpt><trkpt lat="44.468656536642754" lon="8.615887984860887"><ele>773.6666666666666</ele><time>2026-05-01T10:53:34Z</time></trkpt><trkpt lat="44.46863660636177" lon="8.615601307249273"><ele>767.0</ele><time>2026-05-01T10:53:35Z</time></trkpt><trkpt lat="44.46862976726583" lon="8.61536726729355"><ele>765.0</ele><time>2026-05-01T10:53:36Z</time></trkpt><trkpt lat="44.46865047952458" lon="8.615202377803147"><ele>763.0</ele><time>2026-05-01T10:53:37Z</time></trkpt><trkpt lat="44.468729406725224" lon="8.615094479248295"><ele>761.0</ele><time>2026-05-01T10:53:38Z</time></trkpt><trkpt lat="44.46887631625938" lon="8.61506572103202"><ele>759.0</ele><time>2026-05-01T10:53:39Z</time></trkpt><trkpt lat="44.469029860504726" lon="8.614965545262654"><ele>756.3333333333334</ele><time>2026-05-01T10:53:40Z</time></trkpt><trkpt lat="44.46918966642043" lon="8.61483551934468"><ele>753.6666666666667</ele><time>2026-05-01T10:53:41Z</time></trkpt><trkpt lat="44.469342785273774" lon="8.614643190664495"><ele>751.0</ele><time>2026-05-01T10:53:42Z</time></trkpt><trkpt lat="44.46949441918937" lon="8.614460928922433"><ele>754.3333333333334</ele><time>2026-05-01T10:53:43Z</time></trkpt><trkpt lat="44.46967476029765" lon="8.614359967433645"><ele>757.6666666666666</ele><time>2026-05-01T10:53:44Z</time></trkpt><trkpt lat="44.46987129706727" lon="8.614297332174495"><ele>761.0</ele><time>2026-05-01T10:53:45Z</time></trkpt><trkpt lat="44.47005644289164" lon="8.61421622472008"><ele>761.0</ele><time>2026-05-01T10:53:46Z</time></trkpt><trkpt lat="44.47021892899938" lon="8.614138719863517"><ele>761.0</ele><time>2026-05-01T10:53:47Z</time></trkpt><trkpt lat="44.47035075707485" lon="8.614011656264166"><ele>761.0</ele><time>2026-05-01T10:53:48Z</time></trkpt><trkpt lat="44.470420048994605" lon="8.613857719261219"><ele>757.3333333333333</ele><time>2026-05-01T10:53:49Z</time></trkpt><trkpt lat="44.470504373381814" lon="8.613708553946573"><ele>753.6666666666666</ele><time>2026-05-01T10:53:50Z</time></trkpt><trkpt lat="44.47035133178764" lon="8.613525570872943"><ele>750.0</ele><time>2026-05-01T10:53:51Z</time></trkpt><trkpt lat="44.47022420694925" lon="8.613392684796185"><ele>750.0</ele><time>2026-05-01T10:53:52Z</time></trkpt><trkpt lat="44.470087824664915" lon="8.61325574936913"><ele>750.0</ele><time>2026-05-01T10:53:53Z</time></trkpt><trkpt lat="44.469984483216024" lon="8.613052334347719"><ele>750.0</ele><time>2026-05-01T10:53:54Z</time></trkpt><trkpt lat="44.469913502680704" lon="8.612789908297763"><ele>752.3333333333334</ele><time>2026-05-01T10:53:55Z</time></trkpt><trkpt lat="44.46984312152091" lon="8.612506752278122"><ele>754.6666666666667</ele><time>2026-05-01T10:53:56Z</time></trkpt><trkpt lat="44.469760515864394" lon="8.612212751185824"><ele>757.0</ele><time>2026-05-01T10:53:57Z</time></trkpt><trkpt lat="44.46965592400632" lon="8.611915294703675"><ele>745.5</ele><time>2026-05-01T10:53:58Z</time></trkpt><trkpt lat="44.46955701029822" lon="8.611613486586116"><ele>734.0</ele><time>2026-05-01T10:53:59Z</time></trkpt><trkpt lat="44.46947435872897" lon="8.611306932865881"><ele>734.3333333333333</ele><time>2026-05-01T10:54:00Z</time></trkpt><trkpt lat="44.46941324823123" lon="8.611000611856529"><ele>734.6666666666666</ele><time>2026-05-01T10:54:01Z</time></trkpt><trkpt lat="44.46936014583486" lon="8.610720150382392"><ele>735.0</ele><time>2026-05-01T10:54:02Z</time></trkpt><trkpt lat="44.46931597515791" lon="8.610499405241082"><ele>735.0</ele><time>2026-05-01T10:54:03Z</time></trkpt><trkpt lat="44.469271797458546" lon="8.610334698354947"><ele>735.0</ele><time>2026-05-01T10:54:04Z</time></trkpt><trkpt lat="44.4691925188022" lon="8.610235687709578"><ele>735.0</ele><time>2026-05-01T10:54:05Z</time></trkpt><trkpt lat="44.46906942928574" lon="8.610206571641386"><ele>735.0</ele><time>2026-05-01T10:54:06Z</time></trkpt><trkpt lat="44.46892320571348" lon="8.610244868676922"><ele>735.0</ele><time>2026-05-01T10:54:07Z</time></trkpt><trkpt lat="44.46882431994184" lon="8.610353162169822"><ele>735.0</ele><time>2026-05-01T10:54:08Z</time></trkpt><trkpt lat="44.46877825326741" lon="8.610508238479243"><ele>735.0</ele><time>2026-05-01T10:54:09Z</time></trkpt><trkpt lat="44.4687700907151" lon="8.610709210983705"><ele>735.0</ele><time>2026-05-01T10:54:10Z</time></trkpt><trkpt lat="44.46880588241717" lon="8.610934284849426"><ele>735.0</ele><time>2026-05-01T10:54:11Z</time></trkpt><trkpt lat="44.46887487808729" lon="8.611152308392201"><ele>735.0</ele><time>2026-05-01T10:54:12Z</time></trkpt><trkpt lat="44.468923172632124" lon="8.611338650847042"><ele>735.0</ele><time>2026-05-01T10:54:13Z</time></trkpt><trkpt lat="44.468907549280395" lon="8.611498676450864"><ele>735.0</ele><time>2026-05-01T10:54:14Z</time></trkpt><trkpt lat="44.46884550823766" lon="8.611629853391182"><ele>731.6</ele><time>2026-05-01T10:54:15Z</time></trkpt><trkpt lat="44.46875752863032" lon="8.61169574258607"><ele>728.2</ele><time>2026-05-01T10:54:16Z</time></trkpt><trkpt lat="44.46868504581339" lon="8.61175964004443"><ele>724.8</ele><time>2026-05-01T10:54:17Z</time></trkpt><trkpt lat="44.4685761335587" lon="8.61172355290755"><ele>721.4</ele><time>2026-05-01T10:54:18Z</time></trkpt><trkpt lat="44.46846216423387" lon="8.611682138407398"><ele>718.0</ele><time>2026-05-01T10:54:19Z</time></trkpt><trkpt lat="44.46837871350934" lon="8.611589788923526"><ele>718.0</ele><time>2026-05-01T10:54:20Z</time></trkpt><trkpt lat="44.46833503297633" lon="8.611456418723897"><ele>718.0</ele><time>2026-05-01T10:54:21Z</time></trkpt><trkpt lat="44.4683281864867" lon="8.611303311792044"><ele>718.0</ele><time>2026-05-01T10:54:22Z</time></trkpt><trkpt lat="44.46834816376221" lon="8.611122740382802"><ele>718.0</ele><time>2026-05-01T10:54:23Z</time></trkpt><trkpt lat="44.46836532306934" lon="8.61091693193203"><ele>717.0</ele><time>2026-05-01T10:54:24Z</time></trkpt><trkpt lat="44.46837264443433" lon="8.610676298844906"><ele>716.0</ele><time>2026-05-01T10:54:25Z</time></trkpt><trkpt lat="44.468391445171946" lon="8.610441955118512"><ele>715.0</ele><time>2026-05-01T10:54:26Z</time></trkpt><trkpt lat="44.46840745798767" lon="8.610229625040612"><ele>715.0</ele><time>2026-05-01T10:54:27Z</time></trkpt><trkpt lat="44.46840502595451" lon="8.61002900177846"><ele>715.0</ele><time>2026-05-01T10:54:28Z</time></trkpt><trkpt lat="44.468349379550446" lon="8.609852059767118"><ele>715.0</ele><time>2026-05-01T10:54:29Z</time></trkpt><trkpt lat="44.468232243751125" lon="8.609700584420215"><ele>715.0</ele><time>2026-05-01T10:54:30Z</time></trkpt><trkpt lat="44.468068320758626" lon="8.609566648466851"><ele>707.6666666666667</ele><time>2026-05-01T10:54:31Z</time></trkpt><trkpt lat="44.4679010377138" lon="8.609424162049741"><ele>700.3333333333334</ele><time>2026-05-01T10:54:32Z</time></trkpt><trkpt lat="44.46775216706706" lon="8.60921980471729"><ele>693.0</ele><time>2026-05-01T10:54:33Z</time></trkpt><trkpt lat="44.4676180025712" lon="8.609047766474376"><ele>693.0</ele><time>2026-05-01T10:54:34Z</time></trkpt><trkpt lat="44.46752763240395" lon="8.608911162754666"><ele>693.0</ele><time>2026-05-01T10:54:35Z</time></trkpt><trkpt lat="44.46747963345153" lon="8.60878636300218"><ele>693.0</ele><time>2026-05-01T10:54:36Z</time></trkpt><trkpt lat="44.46748813328062" lon="8.60864394879919"><ele>693.0</ele><time>2026-05-01T10:54:37Z</time></trkpt><trkpt lat="44.46753015935492" lon="8.608467124211124"><ele>695.25</ele><time>2026-05-01T10:54:38Z</time></trkpt><trkpt lat="44.46758286571699" lon="8.608270524327528"><ele>697.5</ele><time>2026-05-01T10:54:39Z</time></trkpt><trkpt lat="44.467623033243704" lon="8.608101511359237"><ele>699.75</ele><time>2026-05-01T10:54:40Z</time></trkpt><trkpt lat="44.46757985661693" lon="8.60793406836458"><ele>702.0</ele><time>2026-05-01T10:54:41Z</time></trkpt><trkpt lat="44.46745015291263" lon="8.607786340846602"><ele>705.3333333333334</ele><time>2026-05-01T10:54:42Z</time></trkpt><trkpt lat="44.46729130065263" lon="8.607678260446939"><ele>708.6666666666667</ele><time>2026-05-01T10:54:43Z</time></trkpt><trkpt lat="44.46712830021071" lon="8.607646265518994"><ele>712.0</ele><time>2026-05-01T10:54:44Z</time></trkpt><trkpt lat="44.46698814125506" lon="8.607682772436299"><ele>705.75</ele><time>2026-05-01T10:54:45Z</time></trkpt><trkpt lat="44.46685833232069" lon="8.60775766945963"><ele>699.5</ele><time>2026-05-01T10:54:46Z</time></trkpt><trkpt lat="44.46673114353674" lon="8.60786021599362"><ele>693.25</ele><time>2026-05-01T10:54:47Z</time></trkpt><trkpt lat="44.466647210116" lon="8.608000088270106"><ele>687.0</ele><time>2026-05-01T10:54:48Z</time></trkpt><trkpt lat="44.46661016939118" lon="8.608158016034285"><ele>686.0</ele><time>2026-05-01T10:54:49Z</time></trkpt><trkpt lat="44.466626261513376" lon="8.608326684089377"><ele>685.0</ele><time>2026-05-01T10:54:50Z</time></trkpt><trkpt lat="44.466700281963746" lon="8.60851244536446"><ele>684.0</ele><time>2026-05-01T10:54:51Z</time></trkpt><trkpt lat="44.46682782011429" lon="8.608678396581473"><ele>683.0</ele><time>2026-05-01T10:54:52Z</time></trkpt><trkpt lat="44.46698244557761" lon="8.608829467203147"><ele>686.3333333333333</ele><time>2026-05-01T10:54:53Z</time></trkpt><trkpt lat="44.46713310753414" lon="8.609006288391575"><ele>689.6666666666666</ele><time>2026-05-01T10:54:54Z</time></trkpt><trkpt lat="44.46722786930825" lon="8.609205602863012"><ele>693.0</ele><time>2026-05-01T10:54:55Z</time></trkpt><trkpt lat="44.46732465337801" lon="8.60936096501294"><ele>691.8</ele><time>2026-05-01T10:54:56Z</time></trkpt><trkpt lat="44.467362038902735" lon="8.609514994531633"><ele>690.5999999999999</ele><time>2026-05-01T10:54:57Z</time></trkpt><trkpt lat="44.467349498158114" lon="8.609636490828427"><ele>689.4000000000001</ele><time>2026-05-01T10:54:58Z</time></trkpt><trkpt lat="44.46727567814909" lon="8.609721434306577"><ele>688.2</ele><time>2026-05-01T10:54:59Z</time></trkpt><trkpt lat="44.46719520385467" lon="8.609785299610834"><ele>687.0</ele><time>2026-05-01T10:55:00Z</time></trkpt><trkpt lat="44.46709167723505" lon="8.609818351921895"><ele>684.0</ele><time>2026-05-01T10:55:01Z</time></trkpt><trkpt lat="44.46700147793688" lon="8.609782390561639"><ele>681.0</ele><time>2026-05-01T10:55:02Z</time></trkpt><trkpt lat="44.466939626962315" lon="8.609661296610165"><ele>678.0</ele><time>2026-05-01T10:55:03Z</time></trkpt><trkpt lat="44.46684139927147" lon="8.609534192509432"><ele>675.0</ele><time>2026-05-01T10:55:04Z</time></trkpt><trkpt lat="44.46672731419022" lon="8.60941252366536"><ele>675.0</ele><time>2026-05-01T10:55:05Z</time></trkpt><trkpt lat="44.46661761640543" lon="8.609271650780297"><ele>675.0</ele><time>2026-05-01T10:55:06Z</time></trkpt><trkpt lat="44.46651056444601" lon="8.609133013589604"><ele>675.0</ele><time>2026-05-01T10:55:07Z</time></trkpt><trkpt lat="44.46641261778067" lon="8.609008914783422"><ele>675.0</ele><time>2026-05-01T10:55:08Z</time></trkpt><trkpt lat="44.46632435058154" lon="8.608904068449203"><ele>673.8</ele><time>2026-05-01T10:55:09Z</time></trkpt><trkpt lat="44.466239927854204" lon="8.608801043999014"><ele>672.6</ele><time>2026-05-01T10:55:10Z</time></trkpt><trkpt lat="44.46616597371072" lon="8.608702450708517"><ele>671.4000000000001</ele><time>2026-05-01T10:55:11Z</time></trkpt><trkpt lat="44.46609945201118" lon="8.608604037108641"><ele>670.2</ele><time>2026-05-01T10:55:12Z</time></trkpt><trkpt lat="44.46605322207076" lon="8.608493409766337"><ele>669.0</ele><time>2026-05-01T10:55:13Z</time></trkpt><trkpt lat="44.466038474037276" lon="8.608361070662994"><ele>669.0</ele><time>2026-05-01T10:55:14Z</time></trkpt><trkpt lat="44.46604268407722" lon="8.608200965446386"><ele>669.0</ele><time>2026-05-01T10:55:15Z</time></trkpt><trkpt lat="44.46604322410155" lon="8.608029241321576"><ele>669.0</ele><time>2026-05-01T10:55:16Z</time></trkpt><trkpt lat="44.46604804815126" lon="8.607854667841604"><ele>669.0</ele><time>2026-05-01T10:55:17Z</time></trkpt><trkpt lat="44.46606124811702" lon="8.60767132749204"><ele>669.0</ele><time>2026-05-01T10:55:18Z</time></trkpt><trkpt lat="44.46605474434158" lon="8.607475141274834"><ele>669.0</ele><time>2026-05-01T10:55:19Z</time></trkpt><trkpt lat="44.466019988361" lon="8.60727595151115"><ele>669.0</ele><time>2026-05-01T10:55:20Z</time></trkpt><trkpt lat="44.46596093802131" lon="8.607075450349823"><ele>669.0</ele><time>2026-05-01T10:55:21Z</time></trkpt><trkpt lat="44.46589585731606" lon="8.606884380099313"><ele>670.75</ele><time>2026-05-01T10:55:22Z</time></trkpt><trkpt lat="44.46583354834917" lon="8.606717009716027"><ele>672.5</ele><time>2026-05-01T10:55:23Z</time></trkpt><trkpt lat="44.465779279233814" lon="8.606566201331777"><ele>674.25</ele><time>2026-05-01T10:55:24Z</time></trkpt><trkpt lat="44.4657395254869" lon="8.606426246540607"><ele>676.0</ele><time>2026-05-01T10:55:25Z</time></trkpt><trkpt lat="44.465738758270426" lon="8.606285305887853"><ele>676.25</ele><time>2026-05-01T10:55:26Z</time></trkpt><trkpt lat="44.46576620598501" lon="8.606129153762263"><ele>676.5</ele><time>2026-05-01T10:55:27Z</time></trkpt><trkpt lat="44.46579269776499" lon="8.605951538099204"><ele>676.75</ele><time>2026-05-01T10:55:28Z</time></trkpt><trkpt lat="44.465813124904415" lon="8.605757945028278"><ele>677.0</ele><time>2026-05-01T10:55:29Z</time></trkpt><trkpt lat="44.465833011348394" lon="8.605548584726325"><ele>677.0</ele><time>2026-05-01T10:55:30Z</time></trkpt><trkpt lat="44.46585373496723" lon="8.60536227038008"><ele>677.0</ele><time>2026-05-01T10:55:31Z</time></trkpt><trkpt lat="44.46589656046479" lon="8.605234013296009"><ele>677.0</ele><time>2026-05-01T10:55:32Z</time></trkpt><trkpt lat="44.465966744169876" lon="8.605156106966334"><ele>677.0</ele><time>2026-05-01T10:55:33Z</time></trkpt><trkpt lat="44.46606975654129" lon="8.605088842952842"><ele>677.0</ele><time>2026-05-01T10:55:34Z</time></trkpt><trkpt lat="44.4661751676843" lon="8.60494514499846"><ele>678.6666666666666</ele><time>2026-05-01T10:55:35Z</time></trkpt><trkpt lat="44.46624798794383" lon="8.604759478600199"><ele>680.3333333333334</ele><time>2026-05-01T10:55:36Z</time></trkpt><trkpt lat="44.46630483802064" lon="8.604579268074449"><ele>682.0</ele><time>2026-05-01T10:55:37Z</time></trkpt><trkpt lat="44.466381755056055" lon="8.604361561664318"><ele>682.0</ele><time>2026-05-01T10:55:38Z</time></trkpt><trkpt lat="44.46645393909251" lon="8.604144588361894"><ele>682.0</ele><time>2026-05-01T10:55:39Z</time></trkpt><trkpt lat="44.46652611535956" lon="8.603926335531547"><ele>682.0</ele><time>2026-05-01T10:55:40Z</time></trkpt><trkpt lat="44.466589243468746" lon="8.603724228785719"><ele>674.25</ele><time>2026-05-01T10:55:41Z</time></trkpt><trkpt lat="44.46664538555963" lon="8.603544938496254"><ele>666.5</ele><time>2026-05-01T10:55:42Z</time></trkpt><trkpt lat="44.46670398496963" lon="8.60340324884445"><ele>658.75</ele><time>2026-05-01T10:55:43Z</time></trkpt><trkpt lat="44.466804359448574" lon="8.603320692394675"><ele>651.0</ele><time>2026-05-01T10:55:44Z</time></trkpt><trkpt lat="44.46690949742694" lon="8.603258012893752"><ele>651.0</ele><time>2026-05-01T10:55:45Z</time></trkpt><trkpt lat="44.4670275866152" lon="8.603161523517398"><ele>651.0</ele><time>2026-05-01T10:55:46Z</time></trkpt><trkpt lat="44.46715612239139" lon="8.603038165496923"><ele>651.0</ele><time>2026-05-01T10:55:47Z</time></trkpt><trkpt lat="44.4672817347582" lon="8.60288419358404"><ele>652.3333333333334</ele><time>2026-05-01T10:55:48Z</time></trkpt><trkpt lat="44.46741962466294" lon="8.602712072541404"><ele>653.6666666666667</ele><time>2026-05-01T10:55:49Z</time></trkpt><trkpt lat="44.46758937490292" lon="8.602576302975407"><ele>655.0</ele><time>2026-05-01T10:55:50Z</time></trkpt><trkpt lat="44.46775239206274" lon="8.602437063104347"><ele>655.0</ele><time>2026-05-01T10:55:51Z</time></trkpt><trkpt lat="44.46790026609425" lon="8.602335411249545"><ele>655.0</ele><time>2026-05-01T10:55:52Z</time></trkpt><trkpt lat="44.46804189683916" lon="8.602279339586751"><ele>655.0</ele><time>2026-05-01T10:55:53Z</time></trkpt><trkpt lat="44.46819965182925" lon="8.602257647129544"><ele>659.0</ele><time>2026-05-01T10:55:54Z</time></trkpt><trkpt lat="44.46836674568656" lon="8.602209938045554"><ele>663.0</ele><time>2026-05-01T10:55:55Z</time></trkpt><trkpt lat="44.46851103278029" lon="8.602135740386757"><ele>667.0</ele><time>2026-05-01T10:55:56Z</time></trkpt><trkpt lat="44.4686363298253" lon="8.602063324112404"><ele>665.5</ele><time>2026-05-01T10:55:57Z</time></trkpt><trkpt lat="44.468731803003585" lon="8.601954628583968"><ele>664.0</ele><time>2026-05-01T10:55:58Z</time></trkpt><trkpt lat="44.4687876201559" lon="8.601781906519644"><ele>662.5</ele><time>2026-05-01T10:55:59Z</time></trkpt><trkpt lat="44.46885348124874" lon="8.601623101158207"><ele>661.0</ele><time>2026-05-01T10:56:00Z</time></trkpt><trkpt lat="44.46898959080083" lon="8.6015654770107"><ele>661.0</ele><time>2026-05-01T10:56:01Z</time></trkpt><trkpt lat="44.46915546381719" lon="8.601496235420365"><ele>661.0</ele><time>2026-05-01T10:56:02Z</time></trkpt><trkpt lat="44.469325529572195" lon="8.60137434907013"><ele>661.0</ele><time>2026-05-01T10:56:03Z</time></trkpt><trkpt lat="44.46948903397914" lon="8.601206718606086"><ele>655.3333333333334</ele><time>2026-05-01T10:56:04Z</time></trkpt><trkpt lat="44.46961583320288" lon="8.601019557143502"><ele>649.6666666666666</ele><time>2026-05-01T10:56:05Z</time></trkpt><trkpt lat="44.4697711307253" lon="8.600943534000445"><ele>644.0</ele><time>2026-05-01T10:56:06Z</time></trkpt><trkpt lat="44.469921673259755" lon="8.600933947365458"><ele>644.0</ele><time>2026-05-01T10:56:07Z</time></trkpt><trkpt lat="44.47012307157097" lon="8.600937206575933"><ele>644.0</ele><time>2026-05-01T10:56:08Z</time></trkpt><trkpt lat="44.470331337764094" lon="8.600906649324365"><ele>644.0</ele><time>2026-05-01T10:56:09Z</time></trkpt><trkpt lat="44.47054955453534" lon="8.600893046719724"><ele>643.6666666666666</ele><time>2026-05-01T10:56:10Z</time></trkpt><trkpt lat="44.470759378878206" lon="8.600882723383865"><ele>643.3333333333334</ele><time>2026-05-01T10:56:11Z</time></trkpt><trkpt lat="44.47098273406831" lon="8.60090470696972"><ele>643.0</ele><time>2026-05-01T10:56:12Z</time></trkpt><trkpt lat="44.471192220459656" lon="8.600937837467807"><ele>643.0</ele><time>2026-05-01T10:56:13Z</time></trkpt><trkpt lat="44.47138014815925" lon="8.600960348186103"><ele>643.0</ele><time>2026-05-01T10:56:14Z</time></trkpt><trkpt lat="44.471566803452895" lon="8.60094932803177"><ele>643.0</ele><time>2026-05-01T10:56:15Z</time></trkpt><trkpt lat="44.4717570946654" lon="8.600890281379979"><ele>643.0</ele><time>2026-05-01T10:56:16Z</time></trkpt><trkpt lat="44.4719696606494" lon="8.600808523673903"><ele>643.0</ele><time>2026-05-01T10:56:17Z</time></trkpt><trkpt lat="44.472176251596956" lon="8.600730919871246"><ele>643.0</ele><time>2026-05-01T10:56:18Z</time></trkpt><trkpt lat="44.472367668069936" lon="8.600632378093078"><ele>646.3333333333334</ele><time>2026-05-01T10:56:19Z</time></trkpt><trkpt lat="44.472520336748055" lon="8.600517533833775"><ele>649.6666666666666</ele><time>2026-05-01T10:56:20Z</time></trkpt><trkpt lat="44.472642706822676" lon="8.600383304259406"><ele>653.0</ele><time>2026-05-01T10:56:21Z</time></trkpt><trkpt lat="44.472736396947525" lon="8.600192963059692"><ele>654.3333333333333</ele><time>2026-05-01T10:56:22Z</time></trkpt><trkpt lat="44.47282023754045" lon="8.599962818572626"><ele>655.6666666666666</ele><time>2026-05-01T10:56:23Z</time></trkpt><trkpt lat="44.472956385724835" lon="8.599786525445506"><ele>657.0</ele><time>2026-05-01T10:56:24Z</time></trkpt><trkpt lat="44.47310627872943" lon="8.59963160115384"><ele>643.6666666666666</ele><time>2026-05-01T10:56:25Z</time></trkpt><trkpt lat="44.4732794580583" lon="8.599461199756352"><ele>630.3333333333333</ele><time>2026-05-01T10:56:26Z</time></trkpt><trkpt lat="44.47344751743988" lon="8.599298281456228"><ele>617.0</ele><time>2026-05-01T10:56:27Z</time></trkpt><trkpt lat="44.47360474519358" lon="8.599107946312817"><ele>617.0</ele><time>2026-05-01T10:56:28Z</time></trkpt><trkpt lat="44.473758865277695" lon="8.598943650655478"><ele>617.0</ele><time>2026-05-01T10:56:29Z</time></trkpt><trkpt lat="44.473914985949385" lon="8.598787206671943"><ele>617.0</ele><time>2026-05-01T10:56:30Z</time></trkpt><trkpt lat="44.47409368223292" lon="8.598668564734451"><ele>616.3333333333333</ele><time>2026-05-01T10:56:31Z</time></trkpt><trkpt lat="44.474276528967636" lon="8.598536009843903"><ele>615.6666666666666</ele><time>2026-05-01T10:56:32Z</time></trkpt><trkpt lat="44.47445017510329" lon="8.598379955648236"><ele>615.0</ele><time>2026-05-01T10:56:33Z</time></trkpt><trkpt lat="44.47463335092287" lon="8.598229447903686"><ele>613.0</ele><time>2026-05-01T10:56:34Z</time></trkpt><trkpt lat="44.47482065657821" lon="8.598079091085491"><ele>611.0</ele><time>2026-05-01T10:56:35Z</time></trkpt><trkpt lat="44.475005048690605" lon="8.597934105356536"><ele>609.0</ele><time>2026-05-01T10:56:36Z</time></trkpt><trkpt lat="44.47517300429721" lon="8.59779826459223"><ele>609.0</ele><time>2026-05-01T10:56:37Z</time></trkpt><trkpt lat="44.475331557427836" lon="8.597665037445777"><ele>609.0</ele><time>2026-05-01T10:56:38Z</time></trkpt><trkpt lat="44.47549052482474" lon="8.597537386959292"><ele>609.0</ele><time>2026-05-01T10:56:39Z</time></trkpt><trkpt lat="44.475652842833284" lon="8.597446167202195"><ele>614.6666666666666</ele><time>2026-05-01T10:56:40Z</time></trkpt><trkpt lat="44.475809864683" lon="8.597341168482936"><ele>620.3333333333333</ele><time>2026-05-01T10:56:41Z</time></trkpt><trkpt lat="44.47598025755565" lon="8.597288611048691"><ele>626.0</ele><time>2026-05-01T10:56:42Z</time></trkpt><trkpt lat="44.476159900588165" lon="8.597241205616758"><ele>625.6666666666666</ele><time>2026-05-01T10:56:43Z</time></trkpt><trkpt lat="44.47633793151413" lon="8.597235737451719"><ele>625.3333333333334</ele><time>2026-05-01T10:56:44Z</time></trkpt><trkpt lat="44.47651714939507" lon="8.597281059899716"><ele>625.0</ele><time>2026-05-01T10:56:45Z</time></trkpt><trkpt lat="44.476695678377126" lon="8.597352125326436"><ele>625.0</ele><time>2026-05-01T10:56:46Z</time></trkpt><trkpt lat="44.476867851911976" lon="8.597455953042079"><ele>625.0</ele><time>2026-05-01T10:56:47Z</time></trkpt><trkpt lat="44.477033579469136" lon="8.597566071297639"><ele>625.0</ele><time>2026-05-01T10:56:48Z</time></trkpt><trkpt lat="44.4771860835022" lon="8.59771184216911"><ele>624.3333333333334</ele><time>2026-05-01T10:56:49Z</time></trkpt><trkpt lat="44.477318680927546" lon="8.597850761030083"><ele>623.6666666666666</ele><time>2026-05-01T10:56:50Z</time></trkpt><trkpt lat="44.4774523023021" lon="8.597990100169705"><ele>623.0</ele><time>2026-05-01T10:56:51Z</time></trkpt><trkpt lat="44.47756886038875" lon="8.598128637804782"><ele>623.0</ele><time>2026-05-01T10:56:52Z</time></trkpt><trkpt lat="44.477690832452765" lon="8.598251616859873"><ele>623.0</ele><time>2026-05-01T10:56:53Z</time></trkpt><trkpt lat="44.47779168760517" lon="8.598391413619112"><ele>623.0</ele><time>2026-05-01T10:56:54Z</time></trkpt><trkpt lat="44.47788810105192" lon="8.598586180842112"><ele>612.0</ele><time>2026-05-01T10:56:55Z</time></trkpt><trkpt lat="44.477979744195125" lon="8.598808863551442"><ele>601.0</ele><time>2026-05-01T10:56:56Z</time></trkpt><trkpt lat="44.47805440456857" lon="8.599065736094737"><ele>590.0</ele><time>2026-05-01T10:56:57Z</time></trkpt><trkpt lat="44.47813273388881" lon="8.599299811019746"><ele>597.6666666666666</ele><time>2026-05-01T10:56:58Z</time></trkpt><trkpt lat="44.47820812187395" lon="8.599523286837373"><ele>605.3333333333334</ele><time>2026-05-01T10:56:59Z</time></trkpt><trkpt lat="44.47828044463473" lon="8.599745620029003"><ele>613.0</ele><time>2026-05-01T10:57:00Z</time></trkpt><trkpt lat="44.478370212065116" lon="8.599949756941081"><ele>613.0</ele><time>2026-05-01T10:57:01Z</time></trkpt><trkpt lat="44.47848999559034" lon="8.600124444219535"><ele>613.0</ele><time>2026-05-01T10:57:02Z</time></trkpt><trkpt lat="44.47862641358553" lon="8.600279537895613"><ele>613.0</ele><time>2026-05-01T10:57:03Z</time></trkpt><trkpt lat="44.47874069188359" lon="8.600423334948141"><ele>612.0</ele><time>2026-05-01T10:57:04Z</time></trkpt><trkpt lat="44.478832588496395" lon="8.600561380955728"><ele>611.0</ele><time>2026-05-01T10:57:05Z</time></trkpt><trkpt lat="44.47891624169331" lon="8.600684284441982"><ele>610.0</ele><time>2026-05-01T10:57:06Z</time></trkpt><trkpt lat="44.47900894983854" lon="8.60077875151475"><ele>609.0</ele><time>2026-05-01T10:57:07Z</time></trkpt><trkpt lat="44.47911085725859" lon="8.600804740595395"><ele>609.0</ele><time>2026-05-01T10:57:08Z</time></trkpt><trkpt lat="44.47921524164574" lon="8.600759066418002"><ele>609.0</ele><time>2026-05-01T10:57:09Z</time></trkpt><trkpt lat="44.479324849966275" lon="8.600686104919392"><ele>609.0</ele><time>2026-05-01T10:57:10Z</time></trkpt><trkpt lat="44.479461051291764" lon="8.60063515982202"><ele>609.0</ele><time>2026-05-01T10:57:11Z</time></trkpt><trkpt lat="44.47961347771471" lon="8.600619707473975"><ele>611.3333333333334</ele><time>2026-05-01T10:57:12Z</time></trkpt><trkpt lat="44.47977515147513" lon="8.600606910776463"><ele>613.6666666666667</ele><time>2026-05-01T10:57:13Z</time></trkpt><trkpt lat="44.479930979399505" lon="8.600572555848798"><ele>616.0</ele><time>2026-05-01T10:57:14Z</time></trkpt><trkpt lat="44.480095705645894" lon="8.600502536698517"><ele>616.0</ele><time>2026-05-01T10:57:15Z</time></trkpt><trkpt lat="44.48024203562748" lon="8.600406844209157"><ele>616.0</ele><time>2026-05-01T10:57:16Z</time></trkpt><trkpt lat="44.48037524378138" lon="8.600288667246437"><ele>616.0</ele><time>2026-05-01T10:57:17Z</time></trkpt><trkpt lat="44.480506391096775" lon="8.600149900222709"><ele>612.6666666666667</ele><time>2026-05-01T10:57:18Z</time></trkpt><trkpt lat="44.48062856052017" lon="8.599991195483923"><ele>609.3333333333334</ele><time>2026-05-01T10:57:19Z</time></trkpt><trkpt lat="44.480741007783045" lon="8.599814006021914"><ele>606.0</ele><time>2026-05-01T10:57:20Z</time></trkpt><trkpt lat="44.48083323362296" lon="8.599619917885148"><ele>595.6666666666666</ele><time>2026-05-01T10:57:21Z</time></trkpt><trkpt lat="44.48091782627371" lon="8.599416517197728"><ele>585.3333333333333</ele><time>2026-05-01T10:57:22Z</time></trkpt><trkpt lat="44.48101283160193" lon="8.599184522517973"><ele>575.0</ele><time>2026-05-01T10:57:23Z</time></trkpt><trkpt lat="44.48116244703759" lon="8.598963596030687"><ele>581.6666666666666</ele><time>2026-05-01T10:57:24Z</time></trkpt><trkpt lat="44.481292995298894" lon="8.598717383967648"><ele>588.3333333333334</ele><time>2026-05-01T10:57:25Z</time></trkpt><trkpt lat="44.481438568413246" lon="8.598498295174975"><ele>595.0</ele><time>2026-05-01T10:57:26Z</time></trkpt><trkpt lat="44.48152968021774" lon="8.598237947513693"><ele>595.0</ele><time>2026-05-01T10:57:27Z</time></trkpt><trkpt lat="44.481574497102415" lon="8.597925274871196"><ele>595.0</ele><time>2026-05-01T10:57:28Z</time></trkpt><trkpt lat="44.48162434654157" lon="8.597603120916096"><ele>588.0</ele><time>2026-05-01T10:57:29Z</time></trkpt><trkpt lat="44.48170919520175" lon="8.597298354178244"><ele>581.0</ele><time>2026-05-01T10:57:30Z</time></trkpt><trkpt lat="44.48180425008806" lon="8.597019694971896"><ele>577.6666666666666</ele><time>2026-05-01T10:57:31Z</time></trkpt><trkpt lat="44.48189839958491" lon="8.596731375754803"><ele>574.3333333333334</ele><time>2026-05-01T10:57:32Z</time></trkpt><trkpt lat="44.4819741390793" lon="8.59646499654179"><ele>571.0</ele><time>2026-05-01T10:57:33Z</time></trkpt><trkpt lat="44.4820651981617" lon="8.596229087216244"><ele>575.3333333333334</ele><time>2026-05-01T10:57:34Z</time></trkpt><trkpt lat="44.48215764704627" lon="8.595982120697402"><ele>579.6666666666666</ele><time>2026-05-01T10:57:35Z</time></trkpt><trkpt lat="44.482291230255356" lon="8.595783287187611"><ele>584.0</ele><time>2026-05-01T10:57:36Z</time></trkpt><trkpt lat="44.48243022138657" lon="8.595610117271564"><ele>584.0</ele><time>2026-05-01T10:57:37Z</time></trkpt><trkpt lat="44.48255061724899" lon="8.595456327028883"><ele>584.0</ele><time>2026-05-01T10:57:38Z</time></trkpt><trkpt lat="44.48261857187008" lon="8.595266759764925"><ele>584.0</ele><time>2026-05-01T10:57:39Z</time></trkpt><trkpt lat="44.48263414177323" lon="8.59503099890193"><ele>579.3333333333333</ele><time>2026-05-01T10:57:40Z</time></trkpt><trkpt lat="44.48264022464481" lon="8.594776134633262"><ele>574.6666666666666</ele><time>2026-05-01T10:57:41Z</time></trkpt><trkpt lat="44.48263206401605" lon="8.594542467368015"><ele>570.0</ele><time>2026-05-01T10:57:42Z</time></trkpt><trkpt lat="44.48257560437308" lon="8.594351241121513"><ele>570.0</ele><time>2026-05-01T10:57:43Z</time></trkpt><trkpt lat="44.48249133227511" lon="8.594197091611665"><ele>570.0</ele><time>2026-05-01T10:57:44Z</time></trkpt><trkpt lat="44.482410589347374" lon="8.594099387374436"><ele>570.0</ele><time>2026-05-01T10:57:45Z</time></trkpt><trkpt lat="44.48233386499053" lon="8.594016183811327"><ele>570.0</ele><time>2026-05-01T10:57:46Z</time></trkpt><trkpt lat="44.482262149362484" lon="8.593903327786414"><ele>570.0</ele><time>2026-05-01T10:57:47Z</time></trkpt><trkpt lat="44.48222703818427" lon="8.593742660557766"><ele>570.0</ele><time>2026-05-01T10:57:48Z</time></trkpt><trkpt lat="44.48218351153312" lon="8.593579885427296"><ele>570.0</ele><time>2026-05-01T10:57:49Z</time></trkpt><trkpt lat="44.48217035782873" lon="8.593437272551094"><ele>570.0</ele><time>2026-05-01T10:57:50Z</time></trkpt><trkpt lat="44.482180384668546" lon="8.593304871920413"><ele>570.0</ele><time>2026-05-01T10:57:51Z</time></trkpt><trkpt lat="44.48222987702079" lon="8.593170997739103"><ele>570.0</ele><time>2026-05-01T10:57:52Z</time></trkpt><trkpt lat="44.48229554130429" lon="8.59306446936812"><ele>570.0</ele><time>2026-05-01T10:57:53Z</time></trkpt><trkpt lat="44.4823619903822" lon="8.592952096324886"><ele>570.0</ele><time>2026-05-01T10:57:54Z</time></trkpt><trkpt lat="44.48244644902033" lon="8.592853202990526"><ele>570.0</ele><time>2026-05-01T10:57:55Z</time></trkpt><trkpt lat="44.48255782438918" lon="8.592809384764479"><ele>570.0</ele><time>2026-05-01T10:57:56Z</time></trkpt><trkpt lat="44.482682444857055" lon="8.592784080403256"><ele>568.0</ele><time>2026-05-01T10:57:57Z</time></trkpt><trkpt lat="44.482794112751414" lon="8.592785283808604"><ele>566.0</ele><time>2026-05-01T10:57:58Z</time></trkpt><trkpt lat="44.48290098416012" lon="8.592773690444758"><ele>564.0</ele><time>2026-05-01T10:57:59Z</time></trkpt><trkpt lat="44.483010194372135" lon="8.592764685456727"><ele>562.0</ele><time>2026-05-01T10:58:00Z</time></trkpt><trkpt lat="44.4831164339994" lon="8.592692949258662"><ele>560.0</ele><time>2026-05-01T10:58:01Z</time></trkpt><trkpt lat="44.48323602686225" lon="8.59258254340947"><ele>560.0</ele><time>2026-05-01T10:58:02Z</time></trkpt><trkpt lat="44.48336455792465" lon="8.592409483409584"><ele>560.0</ele><time>2026-05-01T10:58:03Z</time></trkpt><trkpt lat="44.483514630018725" lon="8.592285491958458"><ele>560.0</ele><time>2026-05-01T10:58:04Z</time></trkpt><trkpt lat="44.48364629818994" lon="8.592156415575394"><ele>560.5</ele><time>2026-05-01T10:58:05Z</time></trkpt><trkpt lat="44.4837715672693" lon="8.592028833203926"><ele>561.0</ele><time>2026-05-01T10:58:06Z</time></trkpt><trkpt lat="44.48388135782182" lon="8.592016114548196"><ele>561.5</ele><time>2026-05-01T10:58:07Z</time></trkpt><trkpt lat="44.48398177020616" lon="8.592052223622908"><ele>562.0</ele><time>2026-05-01T10:58:08Z</time></trkpt><trkpt lat="44.48410293927853" lon="8.592140498261118"><ele>562.0</ele><time>2026-05-01T10:58:09Z</time></trkpt><trkpt lat="44.48425420044071" lon="8.592226031962806"><ele>562.0</ele><time>2026-05-01T10:58:10Z</time></trkpt><trkpt lat="44.484434678719595" lon="8.592271857260062"><ele>562.0</ele><time>2026-05-01T10:58:11Z</time></trkpt><trkpt lat="44.484602365697" lon="8.592242635304874"><ele>560.6666666666667</ele><time>2026-05-01T10:58:12Z</time></trkpt><trkpt lat="44.484783835219304" lon="8.592141452237014"><ele>559.3333333333334</ele><time>2026-05-01T10:58:13Z</time></trkpt><trkpt lat="44.484953169807966" lon="8.592027167488963"><ele>558.0</ele><time>2026-05-01T10:58:14Z</time></trkpt><trkpt lat="44.485119796747604" lon="8.591999293663681"><ele>558.0</ele><time>2026-05-01T10:58:15Z</time></trkpt><trkpt lat="44.485273858543906" lon="8.591983753598226"><ele>558.0</ele><time>2026-05-01T10:58:16Z</time></trkpt><trkpt lat="44.485427099304914" lon="8.59201270314099"><ele>558.0</ele><time>2026-05-01T10:58:17Z</time></trkpt><trkpt lat="44.485565362498576" lon="8.59203640151288"><ele>558.0</ele><time>2026-05-01T10:58:18Z</time></trkpt><trkpt lat="44.485673360228006" lon="8.592031152728525"><ele>554.25</ele><time>2026-05-01T10:58:19Z</time></trkpt><trkpt lat="44.48577663577679" lon="8.591936317780668"><ele>550.5</ele><time>2026-05-01T10:58:20Z</time></trkpt><trkpt lat="44.48580238885406" lon="8.591739811074532"><ele>546.75</ele><time>2026-05-01T10:58:21Z</time></trkpt><trkpt lat="44.485820783436985" lon="8.591550410551983"><ele>543.0</ele><time>2026-05-01T10:58:22Z</time></trkpt><trkpt lat="44.48586754916318" lon="8.591368394391601"><ele>543.0</ele><time>2026-05-01T10:58:23Z</time></trkpt><trkpt lat="44.485953495956586" lon="8.59123668733941"><ele>543.0</ele><time>2026-05-01T10:58:24Z</time></trkpt><trkpt lat="44.4860018647621" lon="8.591087637559797"><ele>543.0</ele><time>2026-05-01T10:58:25Z</time></trkpt><trkpt lat="44.48605616452629" lon="8.59096524177594"><ele>543.0</ele><time>2026-05-01T10:58:26Z</time></trkpt><trkpt lat="44.48610358658919" lon="8.590852958595681"><ele>543.0</ele><time>2026-05-01T10:58:27Z</time></trkpt><trkpt lat="44.48614517758425" lon="8.590778857041375"><ele>541.6</ele><time>2026-05-01T10:58:28Z</time></trkpt><trkpt lat="44.486186728101025" lon="8.590711135266023"><ele>540.1999999999999</ele><time>2026-05-01T10:58:29Z</time></trkpt><trkpt lat="44.486263133277845" lon="8.590611270361656"><ele>538.8</ele><time>2026-05-01T10:58:31Z</time></trkpt><trkpt lat="44.4863423089045" lon="8.590551895495116"><ele>537.4</ele><time>2026-05-01T10:58:33Z</time></trkpt><trkpt lat="44.486218317228555" lon="8.590676084145972"><ele>536.0</ele><time>2026-05-01T10:58:34Z</time></trkpt><trkpt lat="44.486164368058624" lon="8.590555915008673"><ele>535.2</ele><time>2026-05-01T10:58:37Z</time></trkpt><trkpt lat="44.48608618575747" lon="8.59050113935165"><ele>534.4000000000001</ele><time>2026-05-01T10:58:38Z</time></trkpt><trkpt lat="44.48598558685316" lon="8.590448528752772"><ele>533.6</ele><time>2026-05-01T10:58:39Z</time></trkpt><trkpt lat="44.485879463382005" lon="8.590384813349944"><ele>532.8000000000001</ele><time>2026-05-01T10:58:40Z</time></trkpt><trkpt lat="44.485756889902135" lon="8.590302385795392"><ele>532.0</ele><time>2026-05-01T10:58:41Z</time></trkpt><trkpt lat="44.48563656609914" lon="8.590237975542488"><ele>531.8000000000001</ele><time>2026-05-01T10:58:42Z</time></trkpt><trkpt lat="44.48555884102098" lon="8.590136310514707"><ele>531.6</ele><time>2026-05-01T10:58:43Z</time></trkpt><trkpt lat="44.4855205609803" lon="8.59002430675394"><ele>531.4000000000001</ele><time>2026-05-01T10:58:44Z</time></trkpt><trkpt lat="44.485481919532276" lon="8.589891384136875"><ele>531.2</ele><time>2026-05-01T10:58:45Z</time></trkpt><trkpt lat="44.485434707629544" lon="8.589731685938279"><ele>531.0</ele><time>2026-05-01T10:58:46Z</time></trkpt><trkpt lat="44.48536720020226" lon="8.589555370304678"><ele>541.3333333333334</ele><time>2026-05-01T10:58:47Z</time></trkpt><trkpt lat="44.48531813238685" lon="8.589341014627744"><ele>551.6666666666667</ele><time>2026-05-01T10:58:48Z</time></trkpt><trkpt lat="44.48526362952155" lon="8.589114051214258"><ele>562.0</ele><time>2026-05-01T10:58:49Z</time></trkpt><trkpt lat="44.48524030892148" lon="8.588872593881725"><ele>563.3333333333334</ele><time>2026-05-01T10:58:50Z</time></trkpt><trkpt lat="44.48525759731531" lon="8.588615035163526"><ele>564.6666666666666</ele><time>2026-05-01T10:58:51Z</time></trkpt><trkpt lat="44.48531188023162" lon="8.58837234808484"><ele>566.0</ele><time>2026-05-01T10:58:52Z</time></trkpt><trkpt lat="44.4853863051413" lon="8.58813201800055"><ele>559.3333333333333</ele><time>2026-05-01T10:58:53Z</time></trkpt><trkpt lat="44.485463780850594" lon="8.587894102494053"><ele>552.6666666666666</ele><time>2026-05-01T10:58:54Z</time></trkpt><trkpt lat="44.48554507267989" lon="8.58766525682097"><ele>546.0</ele><time>2026-05-01T10:58:55Z</time></trkpt><trkpt lat="44.485624644675426" lon="8.587477995523953"><ele>546.0</ele><time>2026-05-01T10:58:56Z</time></trkpt><trkpt lat="44.485710109380435" lon="8.58731719537292"><ele>546.0</ele><time>2026-05-01T10:58:57Z</time></trkpt><trkpt lat="44.4858119453613" lon="8.587177179388563"><ele>546.0</ele><time>2026-05-01T10:58:58Z</time></trkpt><trkpt lat="44.48592571208434" lon="8.587039902602749"><ele>546.0</ele><time>2026-05-01T10:58:59Z</time></trkpt><trkpt lat="44.48604681543383" lon="8.586906371739047"><ele>547.75</ele><time>2026-05-01T10:59:00Z</time></trkpt><trkpt lat="44.48615778709216" lon="8.586794134940755"><ele>549.5</ele><time>2026-05-01T10:59:01Z</time></trkpt><trkpt lat="44.48626342427805" lon="8.58671422805584"><ele>551.25</ele><time>2026-05-01T10:59:02Z</time></trkpt><trkpt lat="44.48636455334091" lon="8.586691146444554"><ele>553.0</ele><time>2026-05-01T10:59:03Z</time></trkpt><trkpt lat="44.4864418207759" lon="8.586760420918885"><ele>553.0</ele><time>2026-05-01T10:59:04Z</time></trkpt><trkpt lat="44.48652736782692" lon="8.586835312159003"><ele>553.0</ele><time>2026-05-01T10:59:05Z</time></trkpt><trkpt lat="44.48663877692939" lon="8.586908137474781"><ele>553.0</ele><time>2026-05-01T10:59:06Z</time></trkpt><trkpt lat="44.48675732979266" lon="8.586993233351247"><ele>553.0</ele><time>2026-05-01T10:59:07Z</time></trkpt><trkpt lat="44.486880871597855" lon="8.587022275677818"><ele>552.4</ele><time>2026-05-01T10:59:08Z</time></trkpt><trkpt lat="44.487010889872465" lon="8.587031272358491"><ele>551.8</ele><time>2026-05-01T10:59:09Z</time></trkpt><trkpt lat="44.487123507049034" lon="8.587045094482693"><ele>551.2</ele><time>2026-05-01T10:59:10Z</time></trkpt><trkpt lat="44.487212764383" lon="8.58708107446295"><ele>550.6</ele><time>2026-05-01T10:59:11Z</time></trkpt><trkpt lat="44.4873025333521" lon="8.587090867453696"><ele>550.0</ele><time>2026-05-01T10:59:12Z</time></trkpt><trkpt lat="44.4874043153784" lon="8.587047875029073"><ele>551.0</ele><time>2026-05-01T10:59:13Z</time></trkpt><trkpt lat="44.48749607020529" lon="8.58697198072019"><ele>552.0</ele><time>2026-05-01T10:59:14Z</time></trkpt><trkpt lat="44.4875525932308" lon="8.586871285294306"><ele>553.0</ele><time>2026-05-01T10:59:15Z</time></trkpt><trkpt lat="44.487573278008796" lon="8.586748013879525"><ele>554.0</ele><time>2026-05-01T10:59:16Z</time></trkpt><trkpt lat="44.487572070537496" lon="8.586598845380934"><ele>555.0</ele><time>2026-05-01T10:59:17Z</time></trkpt><trkpt lat="44.48757522492797" lon="8.586434233356474"><ele>555.0</ele><time>2026-05-01T10:59:18Z</time></trkpt><trkpt lat="44.4875962194569" lon="8.586271440601463"><ele>555.0</ele><time>2026-05-01T10:59:19Z</time></trkpt><trkpt lat="44.48758969068992" lon="8.586132659506124"><ele>555.0</ele><time>2026-05-01T10:59:20Z</time></trkpt><trkpt lat="44.48752716390399" lon="8.586020693477375"><ele>555.0</ele><time>2026-05-01T10:59:21Z</time></trkpt><trkpt lat="44.487433243554186" lon="8.585950728154303"><ele>555.0</ele><time>2026-05-01T10:59:22Z</time></trkpt><trkpt lat="44.48732988592447" lon="8.58594263604185"><ele>554.5</ele><time>2026-05-01T10:59:23Z</time></trkpt><trkpt lat="44.48722406362529" lon="8.586001542800677"><ele>554.0</ele><time>2026-05-01T10:59:24Z</time></trkpt><trkpt lat="44.48713657643409" lon="8.586103977042557"><ele>553.5</ele><time>2026-05-01T10:59:25Z</time></trkpt><trkpt lat="44.48703519227471" lon="8.586179262902322"><ele>553.0</ele><time>2026-05-01T10:59:26Z</time></trkpt><trkpt lat="44.4869129255323" lon="8.586162413240226"><ele>553.0</ele><time>2026-05-01T10:59:27Z</time></trkpt><trkpt lat="44.48677753629873" lon="8.586159784143447"><ele>553.0</ele><time>2026-05-01T10:59:28Z</time></trkpt><trkpt lat="44.48663978583731" lon="8.586185481342044"><ele>553.0</ele><time>2026-05-01T10:59:29Z</time></trkpt><trkpt lat="44.486487835468836" lon="8.586215137021012"><ele>553.0</ele><time>2026-05-01T10:59:30Z</time></trkpt><trkpt lat="44.48634460585259" lon="8.58628599432597"><ele>555.0</ele><time>2026-05-01T10:59:31Z</time></trkpt><trkpt lat="44.48623105044128" lon="8.586358112462404"><ele>557.0</ele><time>2026-05-01T10:59:32Z</time></trkpt><trkpt lat="44.4861359180776" lon="8.586353154885755"><ele>559.0</ele><time>2026-05-01T10:59:33Z</time></trkpt><trkpt lat="44.486087084487416" lon="8.58624011093679"><ele>561.0</ele><time>2026-05-01T10:59:34Z</time></trkpt><trkpt lat="44.48604943913832" lon="8.586119389719519"><ele>563.0</ele><time>2026-05-01T10:59:35Z</time></trkpt><trkpt lat="44.486079062826136" lon="8.58598206959535"><ele>564.5</ele><time>2026-05-01T10:59:36Z</time></trkpt><trkpt lat="44.48616446162247" lon="8.585872954719068"><ele>566.0</ele><time>2026-05-01T10:59:37Z</time></trkpt><trkpt lat="44.486298644399646" lon="8.585807920090437"><ele>567.5</ele><time>2026-05-01T10:59:38Z</time></trkpt><trkpt lat="44.486454006365996" lon="8.585841503843994"><ele>569.0</ele><time>2026-05-01T10:59:39Z</time></trkpt><trkpt lat="44.48661195930784" lon="8.585879791930088"><ele>569.0</ele><time>2026-05-01T10:59:40Z</time></trkpt><trkpt lat="44.48675269388122" lon="8.585889697432888"><ele>569.0</ele><time>2026-05-01T10:59:41Z</time></trkpt><trkpt lat="44.48689885829184" lon="8.585858184988584"><ele>569.0</ele><time>2026-05-01T10:59:42Z</time></trkpt><trkpt lat="44.48704789941367" lon="8.585759349992484"><ele>566.6666666666666</ele><time>2026-05-01T10:59:43Z</time></trkpt><trkpt lat="44.48720059764946" lon="8.585648159198024"><ele>564.3333333333334</ele><time>2026-05-01T10:59:44Z</time></trkpt><trkpt lat="44.48733693609204" lon="8.585513951039887"><ele>562.0</ele><time>2026-05-01T10:59:45Z</time></trkpt><trkpt lat="44.4874540989095" lon="8.585354509473376"><ele>567.6666666666667</ele><time>2026-05-01T10:59:46Z</time></trkpt><trkpt lat="44.48757683957361" lon="8.585202272819336"><ele>573.3333333333334</ele><time>2026-05-01T10:59:47Z</time></trkpt><trkpt lat="44.48771867960339" lon="8.585080815686595"><ele>579.0</ele><time>2026-05-01T10:59:48Z</time></trkpt><trkpt lat="44.48786170648098" lon="8.584944193595607"><ele>577.5</ele><time>2026-05-01T10:59:49Z</time></trkpt><trkpt lat="44.48796932185619" lon="8.58477261955656"><ele>576.0</ele><time>2026-05-01T10:59:50Z</time></trkpt><trkpt lat="44.48806808222638" lon="8.584612317072839"><ele>574.5</ele><time>2026-05-01T10:59:51Z</time></trkpt><trkpt lat="44.488188782663705" lon="8.58457241378371"><ele>573.0</ele><time>2026-05-01T10:59:52Z</time></trkpt><trkpt lat="44.488314115306075" lon="8.584559001598084"><ele>573.0</ele><time>2026-05-01T10:59:53Z</time></trkpt><trkpt lat="44.488443987646065" lon="8.584605201775217"><ele>573.0</ele><time>2026-05-01T10:59:54Z</time></trkpt><trkpt lat="44.48860628136973" lon="8.58465605012443"><ele>573.0</ele><time>2026-05-01T10:59:55Z</time></trkpt><trkpt lat="44.4887549647976" lon="8.584737189120316"><ele>579.0</ele><time>2026-05-01T10:59:56Z</time></trkpt><trkpt lat="44.48886276006221" lon="8.584802339461303"><ele>585.0</ele><time>2026-05-01T10:59:57Z</time></trkpt><trkpt lat="44.488923271954675" lon="8.584887565342743"><ele>591.0</ele><time>2026-05-01T10:59:58Z</time></trkpt><trkpt lat="44.48890153888396" lon="8.585045528588841"><ele>597.0</ele><time>2026-05-01T10:59:59Z</time></trkpt><trkpt lat="44.48892620543236" lon="8.58523541925712"><ele>593.6666666666666</ele><time>2026-05-01T11:00:00Z</time></trkpt><trkpt lat="44.48894568571879" lon="8.585421245558004"><ele>590.3333333333333</ele><time>2026-05-01T11:00:01Z</time></trkpt><trkpt lat="44.48901356832096" lon="8.585631862492173"><ele>587.0</ele><time>2026-05-01T11:00:02Z</time></trkpt><trkpt lat="44.48910248547847" lon="8.58584729270996"><ele>587.0</ele><time>2026-05-01T11:00:03Z</time></trkpt><trkpt lat="44.48919638840608" lon="8.586060807005413"><ele>587.0</ele><time>2026-05-01T11:00:04Z</time></trkpt><trkpt lat="44.489281883174336" lon="8.586285499622354"><ele>587.0</ele><time>2026-05-01T11:00:05Z</time></trkpt><trkpt lat="44.489341295843516" lon="8.586504980387957"><ele>588.5</ele><time>2026-05-01T11:00:06Z</time></trkpt><trkpt lat="44.489368652657696" lon="8.586675267342521"><ele>590.0</ele><time>2026-05-01T11:00:07Z</time></trkpt><trkpt lat="44.48942637229913" lon="8.586789891570572"><ele>591.5</ele><time>2026-05-01T11:00:08Z</time></trkpt><trkpt lat="44.48953196686194" lon="8.586859454673277"><ele>593.0</ele><time>2026-05-01T11:00:09Z</time></trkpt><trkpt lat="44.48967186720536" lon="8.586887715864588"><ele>593.0</ele><time>2026-05-01T11:00:10Z</time></trkpt><trkpt lat="44.48980067752961" lon="8.586840792089781"><ele>593.0</ele><time>2026-05-01T11:00:11Z</time></trkpt><trkpt lat="44.48992615456097" lon="8.586739095252758"><ele>593.0</ele><time>2026-05-01T11:00:12Z</time></trkpt><trkpt lat="44.49005422474972" lon="8.58662817866637"><ele>593.0</ele><time>2026-05-01T11:00:13Z</time></trkpt><trkpt lat="44.49016551578917" lon="8.586591254186189"><ele>593.0</ele><time>2026-05-01T11:00:14Z</time></trkpt><trkpt lat="44.490296041905125" lon="8.586627452751054"><ele>593.0</ele><time>2026-05-01T11:00:15Z</time></trkpt><trkpt lat="44.49042594361803" lon="8.586710602751703"><ele>593.0</ele><time>2026-05-01T11:00:16Z</time></trkpt><trkpt lat="44.49055735474265" lon="8.58678387971353"><ele>593.0</ele><time>2026-05-01T11:00:17Z</time></trkpt><trkpt lat="44.49067167429867" lon="8.586810358777443"><ele>593.25</ele><time>2026-05-01T11:00:18Z</time></trkpt><trkpt lat="44.49076212506176" lon="8.58677299314012"><ele>593.5</ele><time>2026-05-01T11:00:19Z</time></trkpt><trkpt lat="44.490820501135474" lon="8.586659639909435"><ele>593.75</ele><time>2026-05-01T11:00:20Z</time></trkpt><trkpt lat="44.490884006479135" lon="8.58650954784813"><ele>594.0</ele><time>2026-05-01T11:00:21Z</time></trkpt><trkpt lat="44.49097059481918" lon="8.586344872338593"><ele>594.0</ele><time>2026-05-01T11:00:22Z</time></trkpt><trkpt lat="44.49109736361331" lon="8.586198175860074"><ele>594.0</ele><time>2026-05-01T11:00:23Z</time></trkpt><trkpt lat="44.4912237583593" lon="8.586026309149313"><ele>594.0</ele><time>2026-05-01T11:00:24Z</time></trkpt><trkpt lat="44.491317214532664" lon="8.585813772105187"><ele>595.6666666666666</ele><time>2026-05-01T11:00:25Z</time></trkpt><trkpt lat="44.49140633690532" lon="8.585609636311265"><ele>597.3333333333333</ele><time>2026-05-01T11:00:26Z</time></trkpt><trkpt lat="44.491542637386935" lon="8.58550513792562"><ele>599.0</ele><time>2026-05-01T11:00:27Z</time></trkpt><trkpt lat="44.49169858319908" lon="8.585424129073985"><ele>604.0</ele><time>2026-05-01T11:00:28Z</time></trkpt><trkpt lat="44.491871928444965" lon="8.58533167883245"><ele>609.0</ele><time>2026-05-01T11:00:29Z</time></trkpt><trkpt lat="44.49202765637691" lon="8.585276321849157"><ele>614.0</ele><time>2026-05-01T11:00:30Z</time></trkpt><trkpt lat="44.49216468853172" lon="8.585300482689831"><ele>614.0</ele><time>2026-05-01T11:00:31Z</time></trkpt><trkpt lat="44.492288830318316" lon="8.585329211327199"><ele>614.0</ele><time>2026-05-01T11:00:32Z</time></trkpt><trkpt lat="44.492402911376246" lon="8.585450753940957"><ele>614.0</ele><time>2026-05-01T11:00:33Z</time></trkpt><trkpt lat="44.49252480985645" lon="8.585612328201137"><ele>614.0</ele><time>2026-05-01T11:00:34Z</time></trkpt><trkpt lat="44.49266903859071" lon="8.585749217410992"><ele>615.3333333333333</ele><time>2026-05-01T11:00:35Z</time></trkpt><trkpt lat="44.49282519386944" lon="8.5858926630919"><ele>616.6666666666666</ele><time>2026-05-01T11:00:36Z</time></trkpt><trkpt lat="44.492988170253895" lon="8.586041968912"><ele>618.0</ele><time>2026-05-01T11:00:37Z</time></trkpt><trkpt lat="44.493171294423774" lon="8.586205060306044"><ele>614.3333333333334</ele><time>2026-05-01T11:00:38Z</time></trkpt><trkpt lat="44.49336790682623" lon="8.586382885010606"><ele>610.6666666666667</ele><time>2026-05-01T11:00:39Z</time></trkpt><trkpt lat="44.49352144117432" lon="8.586539799402612"><ele>607.0</ele><time>2026-05-01T11:00:40Z</time></trkpt><trkpt lat="44.49366454104576" lon="8.586693684884116"><ele>609.3333333333334</ele><time>2026-05-01T11:00:41Z</time></trkpt><trkpt lat="44.4937748988471" lon="8.586862674603541"><ele>611.6666666666666</ele><time>2026-05-01T11:00:42Z</time></trkpt><trkpt lat="44.49387747572618" lon="8.587047723826458"><ele>614.0</ele><time>2026-05-01T11:00:43Z</time></trkpt><trkpt lat="44.49390183185513" lon="8.58727360792549"><ele>614.0</ele><time>2026-05-01T11:00:44Z</time></trkpt><trkpt lat="44.49395450282548" lon="8.587516323209485"><ele>614.0</ele><time>2026-05-01T11:00:45Z</time></trkpt><trkpt lat="44.49400018127996" lon="8.587728643763509"><ele>614.0</ele><time>2026-05-01T11:00:46Z</time></trkpt><trkpt lat="44.49407515380371" lon="8.587865799027957"><ele>614.0</ele><time>2026-05-01T11:00:47Z</time></trkpt><trkpt lat="44.49417166268829" lon="8.587896863633343"><ele>614.0</ele><time>2026-05-01T11:00:48Z</time></trkpt><trkpt lat="44.49427701217514" lon="8.587838979902731"><ele>614.0</ele><time>2026-05-01T11:00:49Z</time></trkpt><trkpt lat="44.494358231907796" lon="8.587709078999646"><ele>614.0</ele><time>2026-05-01T11:00:50Z</time></trkpt><trkpt lat="44.494387003873996" lon="8.58751898238114"><ele>614.0</ele><time>2026-05-01T11:00:51Z</time></trkpt><trkpt lat="44.49436719550279" lon="8.587288638815993"><ele>614.0</ele><time>2026-05-01T11:00:52Z</time></trkpt><trkpt lat="44.4943211429115" lon="8.587030871653788"><ele>614.0</ele><time>2026-05-01T11:00:53Z</time></trkpt><trkpt lat="44.49426272778189" lon="8.586766903294771"><ele>617.0</ele><time>2026-05-01T11:00:54Z</time></trkpt><trkpt lat="44.49418179529562" lon="8.586543695035221"><ele>620.0</ele><time>2026-05-01T11:00:55Z</time></trkpt><trkpt lat="44.49404500513145" lon="8.586411359997594"><ele>623.0</ele><time>2026-05-01T11:00:56Z</time></trkpt><trkpt lat="44.493876750374476" lon="8.586355337064338"><ele>623.0</ele><time>2026-05-01T11:00:57Z</time></trkpt><trkpt lat="44.49376721388002" lon="8.586252447250708"><ele>623.0</ele><time>2026-05-01T11:00:58Z</time></trkpt><trkpt lat="44.49368728639825" lon="8.586130154369162"><ele>623.0</ele><time>2026-05-01T11:00:59Z</time></trkpt><trkpt lat="44.49368094867734" lon="8.585957181419072"><ele>623.0</ele><time>2026-05-01T11:01:00Z</time></trkpt><trkpt lat="44.49366671072139" lon="8.585773817146695"><ele>621.3333333333333</ele><time>2026-05-01T11:01:01Z</time></trkpt><trkpt lat="44.493741706403156" lon="8.585562153818517"><ele>619.6666666666666</ele><time>2026-05-01T11:01:02Z</time></trkpt><trkpt lat="44.49379461559135" lon="8.585333980494493"><ele>618.0</ele><time>2026-05-01T11:01:03Z</time></trkpt><trkpt lat="44.49383534599899" lon="8.585156850443504"><ele>621.0</ele><time>2026-05-01T11:01:04Z</time></trkpt><trkpt lat="44.493843284334865" lon="8.585007469142557"><ele>624.0</ele><time>2026-05-01T11:01:05Z</time></trkpt><trkpt lat="44.49371675752005" lon="8.584855941472867"><ele>627.0</ele><time>2026-05-01T11:01:06Z</time></trkpt><trkpt lat="44.49355776843017" lon="8.584726175092214"><ele>627.0</ele><time>2026-05-01T11:01:07Z</time></trkpt><trkpt lat="44.49341254220239" lon="8.58455370366488"><ele>627.0</ele><time>2026-05-01T11:01:08Z</time></trkpt><trkpt lat="44.49328559043901" lon="8.584345068979903"><ele>627.0</ele><time>2026-05-01T11:01:09Z</time></trkpt><trkpt lat="44.49315082514426" lon="8.584121864785105"><ele>629.0</ele><time>2026-05-01T11:01:10Z</time></trkpt><trkpt lat="44.493019654501005" lon="8.583929679559379"><ele>631.0</ele><time>2026-05-01T11:01:11Z</time></trkpt><trkpt lat="44.49290778741181" lon="8.58380496355407"><ele>633.0</ele><time>2026-05-01T11:01:12Z</time></trkpt><trkpt lat="44.49276932041323" lon="8.583791651349026"><ele>633.0</ele><time>2026-05-01T11:01:13Z</time></trkpt><trkpt lat="44.492616219103624" lon="8.58386533910841"><ele>633.0</ele><time>2026-05-01T11:01:14Z</time></trkpt><trkpt lat="44.49246018846063" lon="8.58383334297463"><ele>633.0</ele><time>2026-05-01T11:01:15Z</time></trkpt><trkpt lat="44.49231133109463" lon="8.583785472943577"><ele>633.0</ele><time>2026-05-01T11:01:16Z</time></trkpt><trkpt lat="44.49219377794568" lon="8.583718949583535"><ele>633.0</ele><time>2026-05-01T11:01:17Z</time></trkpt><trkpt lat="44.49213833876189" lon="8.583621700963572"><ele>633.0</ele><time>2026-05-01T11:01:18Z</time></trkpt><trkpt lat="44.49207554549545" lon="8.583482770263403"><ele>633.0</ele><time>2026-05-01T11:01:19Z</time></trkpt><trkpt lat="44.491989793574966" lon="8.583317796245392"><ele>638.3333333333334</ele><time>2026-05-01T11:01:20Z</time></trkpt><trkpt lat="44.49189877431301" lon="8.583144594856263"><ele>643.6666666666667</ele><time>2026-05-01T11:01:21Z</time></trkpt><trkpt lat="44.491773443064105" lon="8.583022181741285"><ele>649.0</ele><time>2026-05-01T11:01:22Z</time></trkpt><trkpt lat="44.49160221970924" lon="8.582966618184646"><ele>649.0</ele><time>2026-05-01T11:01:23Z</time></trkpt><trkpt lat="44.491401860489994" lon="8.5829789058414"><ele>649.0</ele><time>2026-05-01T11:01:24Z</time></trkpt><trkpt lat="44.49123030373379" lon="8.58300557546359"><ele>649.0</ele><time>2026-05-01T11:01:25Z</time></trkpt><trkpt lat="44.49103982018491" lon="8.582994046942492"><ele>649.3333333333334</ele><time>2026-05-01T11:01:26Z</time></trkpt><trkpt lat="44.49084470453489" lon="8.582959523582337"><ele>649.6666666666666</ele><time>2026-05-01T11:01:27Z</time></trkpt><trkpt lat="44.490660194588536" lon="8.582920576125508"><ele>650.0</ele><time>2026-05-01T11:01:28Z</time></trkpt><trkpt lat="44.49048692459981" lon="8.582887640788615"><ele>653.3333333333333</ele><time>2026-05-01T11:01:29Z</time></trkpt><trkpt lat="44.49031345227016" lon="8.582850132602651"><ele>656.6666666666666</ele><time>2026-05-01T11:01:30Z</time></trkpt><trkpt lat="44.490153806347216" lon="8.582797050919162"><ele>660.0</ele><time>2026-05-01T11:01:31Z</time></trkpt><trkpt lat="44.49000958683602" lon="8.582737844562402"><ele>660.0</ele><time>2026-05-01T11:01:32Z</time></trkpt><trkpt lat="44.48989192461591" lon="8.582671601305284"><ele>660.0</ele><time>2026-05-01T11:01:33Z</time></trkpt><trkpt lat="44.48980032827763" lon="8.582558369857956"><ele>660.0</ele><time>2026-05-01T11:01:34Z</time></trkpt><trkpt lat="44.4897406885076" lon="8.582386005204501"><ele>660.0</ele><time>2026-05-01T11:01:35Z</time></trkpt><trkpt lat="44.489663656263765" lon="8.582210166957502"><ele>660.0</ele><time>2026-05-01T11:01:36Z</time></trkpt><trkpt lat="44.48959612897947" lon="8.58201829734557"><ele>660.0</ele><time>2026-05-01T11:01:37Z</time></trkpt><trkpt lat="44.48954599433602" lon="8.581869584302545"><ele>660.0</ele><time>2026-05-01T11:01:38Z</time></trkpt><trkpt lat="44.48946229953005" lon="8.581801109286484"><ele>660.0</ele><time>2026-05-01T11:01:39Z</time></trkpt><trkpt lat="44.48933061751442" lon="8.581813045770446"><ele>660.8</ele><time>2026-05-01T11:01:40Z</time></trkpt><trkpt lat="44.4891804347619" lon="8.58183823884081"><ele>661.6</ele><time>2026-05-01T11:01:41Z</time></trkpt><trkpt lat="44.48906762706903" lon="8.58181345926025"><ele>662.4000000000001</ele><time>2026-05-01T11:01:42Z</time></trkpt><trkpt lat="44.488998343283946" lon="8.581773708308617"><ele>663.2</ele><time>2026-05-01T11:01:43Z</time></trkpt><trkpt lat="44.488989037941494" lon="8.581625786208914"><ele>664.0</ele><time>2026-05-01T11:01:44Z</time></trkpt><trkpt lat="44.4889602188635" lon="8.581472776668544"><ele>664.0</ele><time>2026-05-01T11:01:45Z</time></trkpt><trkpt lat="44.48895073417568" lon="8.581283518818033"><ele>664.0</ele><time>2026-05-01T11:01:46Z</time></trkpt><trkpt lat="44.48896985510279" lon="8.581086191926714"><ele>664.0</ele><time>2026-05-01T11:01:47Z</time></trkpt><trkpt lat="44.48900837804373" lon="8.5808842238929"><ele>664.0</ele><time>2026-05-01T11:01:48Z</time></trkpt><trkpt lat="44.489033875892005" lon="8.5806724775482"><ele>664.25</ele><time>2026-05-01T11:01:49Z</time></trkpt><trkpt lat="44.48903504865224" lon="8.580494908068726"><ele>664.5</ele><time>2026-05-01T11:01:50Z</time></trkpt><trkpt lat="44.488990409089936" lon="8.580321348654758"><ele>664.75</ele><time>2026-05-01T11:01:51Z</time></trkpt><trkpt lat="44.48895805411446" lon="8.580146191300816"><ele>665.0</ele><time>2026-05-01T11:01:52Z</time></trkpt><trkpt lat="44.48893905765612" lon="8.579975548898974"><ele>665.0</ele><time>2026-05-01T11:01:53Z</time></trkpt><trkpt lat="44.48897485944974" lon="8.579812894745679"><ele>665.0</ele><time>2026-05-01T11:01:54Z</time></trkpt><trkpt lat="44.489011529063426" lon="8.579621722840471"><ele>665.0</ele><time>2026-05-01T11:01:55Z</time></trkpt><trkpt lat="44.48909175348715" lon="8.579466309830336"><ele>665.0</ele><time>2026-05-01T11:01:56Z</time></trkpt><trkpt lat="44.48919037821447" lon="8.579321708912534"><ele>664.0</ele><time>2026-05-01T11:01:57Z</time></trkpt><trkpt lat="44.48930675412771" lon="8.579168417391545"><ele>663.0</ele><time>2026-05-01T11:01:58Z</time></trkpt><trkpt lat="44.489454551421986" lon="8.579050072167147"><ele>662.0</ele><time>2026-05-01T11:01:59Z</time></trkpt><trkpt lat="44.4895998598266" lon="8.57893385231481"><ele>662.0</ele><time>2026-05-01T11:02:00Z</time></trkpt><trkpt lat="44.48972531597896" lon="8.578783902372697"><ele>662.0</ele><time>2026-05-01T11:02:01Z</time></trkpt><trkpt lat="44.48979897247127" lon="8.578607783047016"><ele>662.0</ele><time>2026-05-01T11:02:02Z</time></trkpt><trkpt lat="44.48981184433893" lon="8.578403904322988"><ele>663.6666666666666</ele><time>2026-05-01T11:02:03Z</time></trkpt><trkpt lat="44.48978050187772" lon="8.57818783224018"><ele>665.3333333333334</ele><time>2026-05-01T11:02:04Z</time></trkpt><trkpt lat="44.48970363243865" lon="8.577980162299633"><ele>667.0</ele><time>2026-05-01T11:02:05Z</time></trkpt><trkpt lat="44.489578755219576" lon="8.577804969853197"><ele>668.6666666666667</ele><time>2026-05-01T11:02:06Z</time></trkpt><trkpt lat="44.48941658317729" lon="8.577653354200805"><ele>670.3333333333334</ele><time>2026-05-01T11:02:07Z</time></trkpt><trkpt lat="44.48923795089011" lon="8.577492192337763"><ele>672.0</ele><time>2026-05-01T11:02:08Z</time></trkpt><trkpt lat="44.4890573710516" lon="8.577341530362656"><ele>672.0</ele><time>2026-05-01T11:02:09Z</time></trkpt><trkpt lat="44.48885885460623" lon="8.57721504513696"><ele>672.0</ele><time>2026-05-01T11:02:10Z</time></trkpt><trkpt lat="44.488660952856506" lon="8.577098830125523"><ele>672.0</ele><time>2026-05-01T11:02:11Z</time></trkpt><trkpt lat="44.48848592180699" lon="8.5769960696243"><ele>673.0</ele><time>2026-05-01T11:02:12Z</time></trkpt><trkpt lat="44.48832553632503" lon="8.576921670887174"><ele>674.0</ele><time>2026-05-01T11:02:13Z</time></trkpt><trkpt lat="44.4881458722906" lon="8.576910448924576"><ele>675.0</ele><time>2026-05-01T11:02:14Z</time></trkpt><trkpt lat="44.487960134366396" lon="8.576963141353005"><ele>679.0</ele><time>2026-05-01T11:02:15Z</time></trkpt><trkpt lat="44.48778176480175" lon="8.577066993816501"><ele>683.0</ele><time>2026-05-01T11:02:16Z</time></trkpt><trkpt lat="44.487610380975774" lon="8.57721172470782"><ele>687.0</ele><time>2026-05-01T11:02:17Z</time></trkpt><trkpt lat="44.4874315021823" lon="8.577381179226366"><ele>687.0</ele><time>2026-05-01T11:02:18Z</time></trkpt><trkpt lat="44.48723998574506" lon="8.57748182322141"><ele>687.0</ele><time>2026-05-01T11:02:19Z</time></trkpt><trkpt lat="44.48707452378044" lon="8.57757367047913"><ele>687.0</ele><time>2026-05-01T11:02:20Z</time></trkpt><trkpt lat="44.486925376190634" lon="8.577618565821503"><ele>687.6666666666666</ele><time>2026-05-01T11:02:21Z</time></trkpt><trkpt lat="44.48678560414493" lon="8.57761880338618"><ele>688.3333333333333</ele><time>2026-05-01T11:02:22Z</time></trkpt><trkpt lat="44.48662698582432" lon="8.577625651145832"><ele>689.0</ele><time>2026-05-01T11:02:23Z</time></trkpt><trkpt lat="44.48646214117099" lon="8.57766013454503"><ele>689.0</ele><time>2026-05-01T11:02:24Z</time></trkpt><trkpt lat="44.48629015117965" lon="8.577671836935796"><ele>689.0</ele><time>2026-05-01T11:02:25Z</time></trkpt><trkpt lat="44.48616953340744" lon="8.57765985932616"><ele>689.0</ele><time>2026-05-01T11:02:26Z</time></trkpt><trkpt lat="44.48609727186161" lon="8.577646478301025"><ele>689.0</ele><time>2026-05-01T11:02:27Z</time></trkpt><trkpt lat="44.48606061847368" lon="8.577543885105348"><ele>689.0</ele><time>2026-05-01T11:02:28Z</time></trkpt><trkpt lat="44.48605055420576" lon="8.577379731102507"><ele>689.0</ele><time>2026-05-01T11:02:29Z</time></trkpt><trkpt lat="44.48604949813575" lon="8.577237381555515"><ele>689.0</ele><time>2026-05-01T11:02:30Z</time></trkpt><trkpt lat="44.48613878416151" lon="8.577127260725646"><ele>689.0</ele><time>2026-05-01T11:02:31Z</time></trkpt><trkpt lat="44.48628790310929" lon="8.577100061384916"><ele>689.0</ele><time>2026-05-01T11:02:32Z</time></trkpt><trkpt lat="44.48642213780231" lon="8.576996967106911"><ele>690.3333333333333</ele><time>2026-05-01T11:02:33Z</time></trkpt><trkpt lat="44.48657621364019" lon="8.576923340964218"><ele>691.6666666666666</ele><time>2026-05-01T11:02:34Z</time></trkpt><trkpt lat="44.48671531884743" lon="8.576801598609709"><ele>693.0</ele><time>2026-05-01T11:02:35Z</time></trkpt><trkpt lat="44.4868070550897" lon="8.576630122431238"><ele>693.0</ele><time>2026-05-01T11:02:36Z</time></trkpt><trkpt lat="44.486844853183435" lon="8.576429737723227"><ele>693.0</ele><time>2026-05-01T11:02:37Z</time></trkpt><trkpt lat="44.486825519007425" lon="8.57621676032177"><ele>693.0</ele><time>2026-05-01T11:02:38Z</time></trkpt><trkpt lat="44.48674269836373" lon="8.576025722107104"><ele>693.3333333333334</ele><time>2026-05-01T11:02:39Z</time></trkpt><trkpt lat="44.48661725060303" lon="8.575881850919448"><ele>693.6666666666667</ele><time>2026-05-01T11:02:40Z</time></trkpt><trkpt lat="44.48645864150942" lon="8.575823112706036"><ele>694.0</ele><time>2026-05-01T11:02:41Z</time></trkpt><trkpt lat="44.486273669058946" lon="8.57585108632225"><ele>695.6666666666667</ele><time>2026-05-01T11:02:42Z</time></trkpt><trkpt lat="44.48607658246135" lon="8.575911580943558"><ele>697.3333333333334</ele><time>2026-05-01T11:02:43Z</time></trkpt><trkpt lat="44.48587619749523" lon="8.575945428145062"><ele>699.0</ele><time>2026-05-01T11:02:44Z</time></trkpt><trkpt lat="44.48567662556796" lon="8.575943257226802"><ele>699.0</ele><time>2026-05-01T11:02:45Z</time></trkpt><trkpt lat="44.485500044480204" lon="8.575918259811003"><ele>699.0</ele><time>2026-05-01T11:02:46Z</time></trkpt><trkpt lat="44.48533180746988" lon="8.575860836013373"><ele>699.0</ele><time>2026-05-01T11:02:47Z</time></trkpt><trkpt lat="44.48514102211926" lon="8.575761434243859"><ele>701.6666666666666</ele><time>2026-05-01T11:02:48Z</time></trkpt><trkpt lat="44.485014032473934" lon="8.575599437056901"><ele>704.3333333333333</ele><time>2026-05-01T11:02:49Z</time></trkpt><trkpt lat="44.48485800076347" lon="8.575419457296976"><ele>707.0</ele><time>2026-05-01T11:02:50Z</time></trkpt><trkpt lat="44.48472449220641" lon="8.575264535822559"><ele>707.0</ele><time>2026-05-01T11:02:51Z</time></trkpt><trkpt lat="44.48461587126276" lon="8.575103867314972"><ele>707.0</ele><time>2026-05-01T11:02:52Z</time></trkpt><trkpt lat="44.484581550579634" lon="8.574940050471566"><ele>707.0</ele><time>2026-05-01T11:02:53Z</time></trkpt><trkpt lat="44.484601046558204" lon="8.574812176602537"><ele>707.0</ele><time>2026-05-01T11:02:54Z</time></trkpt><trkpt lat="44.48465398902183" lon="8.57469117487509"><ele>707.0</ele><time>2026-05-01T11:02:55Z</time></trkpt><trkpt lat="44.484773039342095" lon="8.574571348362648"><ele>707.0</ele><time>2026-05-01T11:02:56Z</time></trkpt><trkpt lat="44.48491598576199" lon="8.57441982942006"><ele>707.0</ele><time>2026-05-01T11:02:57Z</time></trkpt><trkpt lat="44.48502855520225" lon="8.574253289316077"><ele>710.0</ele><time>2026-05-01T11:02:58Z</time></trkpt><trkpt lat="44.48508052559288" lon="8.574054212544736"><ele>713.0</ele><time>2026-05-01T11:02:59Z</time></trkpt><trkpt lat="44.48507357890519" lon="8.573842006210024"><ele>716.0</ele><time>2026-05-01T11:03:00Z</time></trkpt><trkpt lat="44.48500562969332" lon="8.573639101311745"><ele>717.3333333333333</ele><time>2026-05-01T11:03:01Z</time></trkpt><trkpt lat="44.484876742694325" lon="8.57345306587613"><ele>718.6666666666666</ele><time>2026-05-01T11:03:02Z</time></trkpt><trkpt lat="44.484783098485124" lon="8.573236118364722"><ele>720.0</ele><time>2026-05-01T11:03:03Z</time></trkpt><trkpt lat="44.48468294166852" lon="8.57303398012827"><ele>720.75</ele><time>2026-05-01T11:03:04Z</time></trkpt><trkpt lat="44.484623638007655" lon="8.572846215915883"><ele>721.5</ele><time>2026-05-01T11:03:05Z</time></trkpt><trkpt lat="44.48463182339749" lon="8.572670995133736"><ele>722.25</ele><time>2026-05-01T11:03:06Z</time></trkpt><trkpt lat="44.48465272739595" lon="8.572469754557904"><ele>723.0</ele><time>2026-05-01T11:03:07Z</time></trkpt><trkpt lat="44.484653374924456" lon="8.572250823241433"><ele>723.0</ele><time>2026-05-01T11:03:08Z</time></trkpt><trkpt lat="44.48467875201185" lon="8.57203867172232"><ele>723.0</ele><time>2026-05-01T11:03:09Z</time></trkpt><trkpt lat="44.48471299394765" lon="8.57185076792"><ele>723.0</ele><time>2026-05-01T11:03:10Z</time></trkpt><trkpt lat="44.48473451626777" lon="8.57171055439736"><ele>723.0</ele><time>2026-05-01T11:03:11Z</time></trkpt><trkpt lat="44.48474093072096" lon="8.57160412144697"><ele>723.25</ele><time>2026-05-01T11:03:12Z</time></trkpt><trkpt lat="44.48471932790179" lon="8.571478243877412"><ele>723.5</ele><time>2026-05-01T11:03:13Z</time></trkpt><trkpt lat="44.48465642959448" lon="8.57134187464608"><ele>723.75</ele><time>2026-05-01T11:03:14Z</time></trkpt><trkpt lat="44.48454018413711" lon="8.571256390163974"><ele>724.0</ele><time>2026-05-01T11:03:15Z</time></trkpt><trkpt lat="44.48436963156039" lon="8.571244282874353"><ele>724.0</ele><time>2026-05-01T11:03:16Z</time></trkpt><trkpt lat="44.48419540032589" lon="8.571208738477916"><ele>724.0</ele><time>2026-05-01T11:03:17Z</time></trkpt><trkpt lat="44.48402767352263" lon="8.5711544473303"><ele>724.0</ele><time>2026-05-01T11:03:18Z</time></trkpt><trkpt lat="44.48388115859947" lon="8.571114020966766"><ele>728.2</ele><time>2026-05-01T11:03:19Z</time></trkpt><trkpt lat="44.48375656425388" lon="8.571028791187556"><ele>732.4000000000001</ele><time>2026-05-01T11:03:20Z</time></trkpt><trkpt lat="44.48368025002665" lon="8.570957829504646"><ele>736.6</ele><time>2026-05-01T11:03:21Z</time></trkpt><trkpt lat="44.483640700049975" lon="8.570853102845058"><ele>740.8</ele><time>2026-05-01T11:03:22Z</time></trkpt><trkpt lat="44.483661402157594" lon="8.570712924068065"><ele>745.0</ele><time>2026-05-01T11:03:23Z</time></trkpt><trkpt lat="44.483700526531415" lon="8.570548218993727"><ele>745.0</ele><time>2026-05-01T11:03:24Z</time></trkpt><trkpt lat="44.48373205498331" lon="8.570335996734038"><ele>745.0</ele><time>2026-05-01T11:03:25Z</time></trkpt><trkpt lat="44.48373799106922" lon="8.57011000600308"><ele>745.0</ele><time>2026-05-01T11:03:26Z</time></trkpt><trkpt lat="44.483718416988204" lon="8.569886335442868"><ele>745.0</ele><time>2026-05-01T11:03:27Z</time></trkpt><trkpt lat="44.483662816258914" lon="8.569664137928676"><ele>745.0</ele><time>2026-05-01T11:03:28Z</time></trkpt><trkpt lat="44.483567628579614" lon="8.569438937058878"><ele>745.0</ele><time>2026-05-01T11:03:29Z</time></trkpt><trkpt lat="44.48349025561646" lon="8.569193829749196"><ele>743.6666666666667</ele><time>2026-05-01T11:03:30Z</time></trkpt><trkpt lat="44.48345350396244" lon="8.568960553255037"><ele>742.3333333333334</ele><time>2026-05-01T11:03:31Z</time></trkpt><trkpt lat="44.48338956610537" lon="8.568744588968922"><ele>741.0</ele><time>2026-05-01T11:03:32Z</time></trkpt><trkpt lat="44.48329621559929" lon="8.568567148671137"><ele>740.8</ele><time>2026-05-01T11:03:33Z</time></trkpt><trkpt lat="44.48323506498587" lon="8.568417884988058"><ele>740.5999999999999</ele><time>2026-05-01T11:03:34Z</time></trkpt><trkpt lat="44.48321424023039" lon="8.568301091640613"><ele>740.4</ele><time>2026-05-01T11:03:35Z</time></trkpt><trkpt lat="44.48326685980973" lon="8.568198393320898"><ele>740.2</ele><time>2026-05-01T11:03:36Z</time></trkpt><trkpt lat="44.4833519887006" lon="8.568110889627487"><ele>740.0</ele><time>2026-05-01T11:03:37Z</time></trkpt><trkpt lat="44.48349611165349" lon="8.568108026886181"><ele>740.0</ele><time>2026-05-01T11:03:38Z</time></trkpt><trkpt lat="44.483649850141184" lon="8.568066730569498"><ele>740.0</ele><time>2026-05-01T11:03:39Z</time></trkpt><trkpt lat="44.48379917125096" lon="8.567979948968029"><ele>740.0</ele><time>2026-05-01T11:03:40Z</time></trkpt><trkpt lat="44.483931525280695" lon="8.567839718736499"><ele>739.0</ele><time>2026-05-01T11:03:41Z</time></trkpt><trkpt lat="44.48398969109414" lon="8.567662005368462"><ele>738.0</ele><time>2026-05-01T11:03:42Z</time></trkpt><trkpt lat="44.4839768722047" lon="8.567471745006285"><ele>737.0</ele><time>2026-05-01T11:03:43Z</time></trkpt><trkpt lat="44.48391260705613" lon="8.567263446772193"><ele>736.0</ele><time>2026-05-01T11:03:44Z</time></trkpt><trkpt lat="44.48383406791037" lon="8.56704981300322"><ele>736.6666666666667</ele><time>2026-05-01T11:03:45Z</time></trkpt><trkpt lat="44.483799358556844" lon="8.566804943183389"><ele>737.3333333333334</ele><time>2026-05-01T11:03:46Z</time></trkpt><trkpt lat="44.48383866240401" lon="8.56654496565581"><ele>738.0</ele><time>2026-05-01T11:03:47Z</time></trkpt><trkpt lat="44.483858179096735" lon="8.56631078761612"><ele>738.0</ele><time>2026-05-01T11:03:48Z</time></trkpt><trkpt lat="44.48384050955322" lon="8.566107721105997"><ele>738.0</ele><time>2026-05-01T11:03:49Z</time></trkpt><trkpt lat="44.48376075114993" lon="8.565905585963895"><ele>738.0</ele><time>2026-05-01T11:03:50Z</time></trkpt><trkpt lat="44.48366619984958" lon="8.56569677320295"><ele>739.75</ele><time>2026-05-01T11:03:51Z</time></trkpt><trkpt lat="44.483594112161946" lon="8.565496823489585"><ele>741.5</ele><time>2026-05-01T11:03:52Z</time></trkpt><trkpt lat="44.48355064104247" lon="8.565319054269503"><ele>743.25</ele><time>2026-05-01T11:03:53Z</time></trkpt><trkpt lat="44.48352728591336" lon="8.56514658137948"><ele>745.0</ele><time>2026-05-01T11:03:54Z</time></trkpt><trkpt lat="44.48350598812197" lon="8.564994407134648"><ele>745.0</ele><time>2026-05-01T11:03:55Z</time></trkpt><trkpt lat="44.483471173716126" lon="8.564863515696866"><ele>745.0</ele><time>2026-05-01T11:03:56Z</time></trkpt><trkpt lat="44.483402143612075" lon="8.56473824016958"><ele>745.0</ele><time>2026-05-01T11:03:57Z</time></trkpt><trkpt lat="44.48328764813133" lon="8.564642289571808"><ele>745.0</ele><time>2026-05-01T11:03:58Z</time></trkpt><trkpt lat="44.48313661940492" lon="8.564586395497178"><ele>745.0</ele><time>2026-05-01T11:03:59Z</time></trkpt><trkpt lat="44.482976003685636" lon="8.564538942433728"><ele>745.0</ele><time>2026-05-01T11:04:00Z</time></trkpt><trkpt lat="44.48280884557526" lon="8.564491585018915"><ele>745.0</ele><time>2026-05-01T11:04:01Z</time></trkpt><trkpt lat="44.48264571530349" lon="8.564462171209605"><ele>744.0</ele><time>2026-05-01T11:04:02Z</time></trkpt><trkpt lat="44.48250528343554" lon="8.564421766061267"><ele>743.0</ele><time>2026-05-01T11:04:03Z</time></trkpt><trkpt lat="44.48239216919033" lon="8.564279172715468"><ele>742.0</ele><time>2026-05-01T11:04:04Z</time></trkpt><trkpt lat="44.482288979894335" lon="8.564104703929488"><ele>742.0</ele><time>2026-05-01T11:04:05Z</time></trkpt><trkpt lat="44.48216276150439" lon="8.563922222236348"><ele>742.0</ele><time>2026-05-01T11:04:06Z</time></trkpt><trkpt lat="44.48205477619423" lon="8.563710693786946"><ele>742.0</ele><time>2026-05-01T11:04:07Z</time></trkpt><trkpt lat="44.48195699503935" lon="8.563532280414877"><ele>743.25</ele><time>2026-05-01T11:04:08Z</time></trkpt><trkpt lat="44.48186002833565" lon="8.563380703959291"><ele>744.5</ele><time>2026-05-01T11:04:09Z</time></trkpt><trkpt lat="44.48178416638342" lon="8.563231826670485"><ele>745.75</ele><time>2026-05-01T11:04:10Z</time></trkpt><trkpt lat="44.48174039363991" lon="8.563069242547373"><ele>747.0</ele><time>2026-05-01T11:04:11Z</time></trkpt><trkpt lat="44.48173803465353" lon="8.562886075951155"><ele>748.0</ele><time>2026-05-01T11:04:12Z</time></trkpt><trkpt lat="44.481770981812325" lon="8.56269623997403"><ele>749.0</ele><time>2026-05-01T11:04:13Z</time></trkpt><trkpt lat="44.48184277659361" lon="8.562525431252439"><ele>750.0</ele><time>2026-05-01T11:04:14Z</time></trkpt><trkpt lat="44.4819756094067" lon="8.562413292099839"><ele>751.0</ele><time>2026-05-01T11:04:15Z</time></trkpt><trkpt lat="44.48210983745045" lon="8.562256489532995"><ele>746.3333333333334</ele><time>2026-05-01T11:04:16Z</time></trkpt><trkpt lat="44.482242437959954" lon="8.562111648482578"><ele>741.6666666666666</ele><time>2026-05-01T11:04:17Z</time></trkpt><trkpt lat="44.482352797550334" lon="8.561914116308753"><ele>737.0</ele><time>2026-05-01T11:04:18Z</time></trkpt><trkpt lat="44.48242281145733" lon="8.5616509744261"><ele>737.0</ele><time>2026-05-01T11:04:19Z</time></trkpt><trkpt lat="44.48248400934954" lon="8.56136453219174"><ele>737.0</ele><time>2026-05-01T11:04:20Z</time></trkpt><trkpt lat="44.482528861729136" lon="8.561110389711136"><ele>737.0</ele><time>2026-05-01T11:04:21Z</time></trkpt><trkpt lat="44.482556203510924" lon="8.560869032042255"><ele>738.6666666666666</ele><time>2026-05-01T11:04:22Z</time></trkpt><trkpt lat="44.482549241840246" lon="8.560615434716967"><ele>740.3333333333334</ele><time>2026-05-01T11:04:23Z</time></trkpt><trkpt lat="44.4825290114035" lon="8.560349736699388"><ele>742.0</ele><time>2026-05-01T11:04:24Z</time></trkpt><trkpt lat="44.482544445011726" lon="8.560092397890752"><ele>742.0</ele><time>2026-05-01T11:04:25Z</time></trkpt><trkpt lat="44.48258706686473" lon="8.559851280648965"><ele>742.0</ele><time>2026-05-01T11:04:26Z</time></trkpt><trkpt lat="44.48262924616898" lon="8.559627362882118"><ele>742.0</ele><time>2026-05-01T11:04:27Z</time></trkpt><trkpt lat="44.482692180096315" lon="8.559421654398625"><ele>743.25</ele><time>2026-05-01T11:04:28Z</time></trkpt><trkpt lat="44.48277958247349" lon="8.559260895583751"><ele>744.5</ele><time>2026-05-01T11:04:29Z</time></trkpt><trkpt lat="44.482890020457134" lon="8.559142032145965"><ele>745.75</ele><time>2026-05-01T11:04:30Z</time></trkpt><trkpt lat="44.48297473836694" lon="8.559013405372069"><ele>747.0</ele><time>2026-05-01T11:04:31Z</time></trkpt><trkpt lat="44.48300927968229" lon="8.558825664281265"><ele>739.3333333333334</ele><time>2026-05-01T11:04:32Z</time></trkpt><trkpt lat="44.48302269925854" lon="8.55861140006486"><ele>731.6666666666667</ele><time>2026-05-01T11:04:33Z</time></trkpt><trkpt lat="44.48304056642016" lon="8.558378231340434"><ele>724.0</ele><time>2026-05-01T11:04:34Z</time></trkpt><trkpt lat="44.48303891382285" lon="8.558149615620609"><ele>724.0</ele><time>2026-05-01T11:04:35Z</time></trkpt><trkpt lat="44.482994922127574" lon="8.557906750909549"><ele>724.0</ele><time>2026-05-01T11:04:36Z</time></trkpt><trkpt lat="44.48293467563108" lon="8.557679264663374"><ele>724.0</ele><time>2026-05-01T11:04:37Z</time></trkpt><trkpt lat="44.4829016266713" lon="8.557467347188703"><ele>721.25</ele><time>2026-05-01T11:04:38Z</time></trkpt><trkpt lat="44.48292490482368" lon="8.557252175488575"><ele>718.5</ele><time>2026-05-01T11:04:39Z</time></trkpt><trkpt lat="44.482989283319256" lon="8.557079896136594"><ele>715.75</ele><time>2026-05-01T11:04:40Z</time></trkpt><trkpt lat="44.48304067163921" lon="8.556905522219145"><ele>713.0</ele><time>2026-05-01T11:04:41Z</time></trkpt><trkpt lat="44.483071145737206" lon="8.556749927312897"><ele>711.0</ele><time>2026-05-01T11:04:42Z</time></trkpt><trkpt lat="44.4830362417898" lon="8.556587573995063"><ele>709.0</ele><time>2026-05-01T11:04:43Z</time></trkpt><trkpt lat="44.48294015629673" lon="8.55648389612593"><ele>707.0</ele><time>2026-05-01T11:04:44Z</time></trkpt><trkpt lat="44.48282820475277" lon="8.556450982488345"><ele>705.0</ele><time>2026-05-01T11:04:45Z</time></trkpt><trkpt lat="44.482693163098595" lon="8.556456233135917"><ele>710.25</ele><time>2026-05-01T11:04:46Z</time></trkpt><trkpt lat="44.482552296367324" lon="8.556472017622253"><ele>715.5</ele><time>2026-05-01T11:04:47Z</time></trkpt><trkpt lat="44.48240025403264" lon="8.5564732353814"><ele>720.75</ele><time>2026-05-01T11:04:48Z</time></trkpt><trkpt lat="44.4822485369248" lon="8.556440130232545"><ele>726.0</ele><time>2026-05-01T11:04:49Z</time></trkpt><trkpt lat="44.48211233750985" lon="8.55634723334343"><ele>728.5</ele><time>2026-05-01T11:04:50Z</time></trkpt><trkpt lat="44.48196293122207" lon="8.556292926684224"><ele>731.0</ele><time>2026-05-01T11:04:51Z</time></trkpt><trkpt lat="44.481842649623424" lon="8.55622528726388"><ele>733.5</ele><time>2026-05-01T11:04:52Z</time></trkpt><trkpt lat="44.48176383063961" lon="8.556121022578521"><ele>736.0</ele><time>2026-05-01T11:04:53Z</time></trkpt><trkpt lat="44.48172129332165" lon="8.555997342427405"><ele>731.0</ele><time>2026-05-01T11:04:54Z</time></trkpt><trkpt lat="44.48169500566107" lon="8.555867540126897"><ele>726.0</ele><time>2026-05-01T11:04:55Z</time></trkpt><trkpt lat="44.481720975703006" lon="8.555693219347804"><ele>721.0</ele><time>2026-05-01T11:04:56Z</time></trkpt><trkpt lat="44.48176742996433" lon="8.555487342432682"><ele>716.0</ele><time>2026-05-01T11:04:57Z</time></trkpt><trkpt lat="44.48181286681227" lon="8.55528042666762"><ele>714.3333333333333</ele><time>2026-05-01T11:04:58Z</time></trkpt><trkpt lat="44.48185217465977" lon="8.555047169916529"><ele>712.6666666666666</ele><time>2026-05-01T11:04:59Z</time></trkpt><trkpt lat="44.481888242882206" lon="8.554821545498621"><ele>711.0</ele><time>2026-05-01T11:05:00Z</time></trkpt><trkpt lat="44.48192701998573" lon="8.554618964133716"><ele>708.25</ele><time>2026-05-01T11:05:01Z</time></trkpt><trkpt lat="44.48198258411711" lon="8.554459805992343"><ele>705.5</ele><time>2026-05-01T11:05:02Z</time></trkpt><trkpt lat="44.482080409920215" lon="8.554329958902441"><ele>702.75</ele><time>2026-05-01T11:05:03Z</time></trkpt><trkpt lat="44.48222089239769" lon="8.554247378102712"><ele>700.0</ele><time>2026-05-01T11:05:04Z</time></trkpt><trkpt lat="44.482366255674414" lon="8.554145128122741"><ele>700.0</ele><time>2026-05-01T11:05:05Z</time></trkpt><trkpt lat="44.48250675493869" lon="8.554044942604643"><ele>700.0</ele><time>2026-05-01T11:05:06Z</time></trkpt><trkpt lat="44.48262084351352" lon="8.553898427272571"><ele>700.0</ele><time>2026-05-01T11:05:07Z</time></trkpt><trkpt lat="44.48271084174607" lon="8.553709209714777"><ele>698.0</ele><time>2026-05-01T11:05:08Z</time></trkpt><trkpt lat="44.48281728264865" lon="8.553543809046527"><ele>696.0</ele><time>2026-05-01T11:05:09Z</time></trkpt><trkpt lat="44.48295526035426" lon="8.553483672523015"><ele>694.0</ele><time>2026-05-01T11:05:10Z</time></trkpt><trkpt lat="44.48309657921362" lon="8.553403770274459"><ele>694.0</ele><time>2026-05-01T11:05:11Z</time></trkpt><trkpt lat="44.48326501063977" lon="8.553331925464299"><ele>694.0</ele><time>2026-05-01T11:05:12Z</time></trkpt><trkpt lat="44.48341308704047" lon="8.553238198874617"><ele>694.0</ele><time>2026-05-01T11:05:13Z</time></trkpt><trkpt lat="44.48352741288098" lon="8.553115800192968"><ele>694.0</ele><time>2026-05-01T11:05:14Z</time></trkpt><trkpt lat="44.48361419152649" lon="8.552949770521034"><ele>694.0</ele><time>2026-05-01T11:05:15Z</time></trkpt><trkpt lat="44.483711748715955" lon="8.55280923466966"><ele>694.0</ele><time>2026-05-01T11:05:16Z</time></trkpt><trkpt lat="44.48380648212967" lon="8.552718159472363"><ele>694.0</ele><time>2026-05-01T11:05:17Z</time></trkpt><trkpt lat="44.48384700617525" lon="8.55259543108662"><ele>690.25</ele><time>2026-05-01T11:05:18Z</time></trkpt><trkpt lat="44.48382336569904" lon="8.552424783954336"><ele>686.5</ele><time>2026-05-01T11:05:19Z</time></trkpt><trkpt lat="44.483783955950344" lon="8.552239288014238"><ele>682.75</ele><time>2026-05-01T11:05:20Z</time></trkpt><trkpt lat="44.48384759376151" lon="8.552068198921825"><ele>679.0</ele><time>2026-05-01T11:05:21Z</time></trkpt><trkpt lat="44.483898232397436" lon="8.551867723929472"><ele>679.0</ele><time>2026-05-01T11:05:22Z</time></trkpt><trkpt lat="44.48390253339601" lon="8.551679361479108"><ele>679.0</ele><time>2026-05-01T11:05:23Z</time></trkpt><trkpt lat="44.48385763655525" lon="8.551454998163283"><ele>679.0</ele><time>2026-05-01T11:05:24Z</time></trkpt><trkpt lat="44.4837692924918" lon="8.551226503003749"><ele>680.5</ele><time>2026-05-01T11:05:25Z</time></trkpt><trkpt lat="44.48369285700724" lon="8.55103120159464"><ele>682.0</ele><time>2026-05-01T11:05:26Z</time></trkpt><trkpt lat="44.483622423574865" lon="8.550901171255639"><ele>683.5</ele><time>2026-05-01T11:05:27Z</time></trkpt><trkpt lat="44.48351637926291" lon="8.550826049739133"><ele>685.0</ele><time>2026-05-01T11:05:28Z</time></trkpt><trkpt lat="44.483360216847416" lon="8.550799235608656"><ele>685.0</ele><time>2026-05-01T11:05:29Z</time></trkpt><trkpt lat="44.48318622106567" lon="8.55074078857045"><ele>685.0</ele><time>2026-05-01T11:05:30Z</time></trkpt><trkpt lat="44.48300160401713" lon="8.550720885629804"><ele>685.0</ele><time>2026-05-01T11:05:31Z</time></trkpt><trkpt lat="44.482811665901295" lon="8.550751086813007"><ele>685.6666666666667</ele><time>2026-05-01T11:05:32Z</time></trkpt><trkpt lat="44.482650043397" lon="8.550702989866647"><ele>686.3333333333334</ele><time>2026-05-01T11:05:33Z</time></trkpt><trkpt lat="44.482500952433966" lon="8.550650979246592"><ele>687.0</ele><time>2026-05-01T11:05:34Z</time></trkpt><trkpt lat="44.482359594855865" lon="8.550673012928387"><ele>687.0</ele><time>2026-05-01T11:05:35Z</time></trkpt><trkpt lat="44.482216539447016" lon="8.550716204920251"><ele>687.0</ele><time>2026-05-01T11:05:36Z</time></trkpt><trkpt lat="44.48206275416427" lon="8.55073910125983"><ele>687.0</ele><time>2026-05-01T11:05:37Z</time></trkpt><trkpt lat="44.48192020921047" lon="8.550753711595197"><ele>687.0</ele><time>2026-05-01T11:05:38Z</time></trkpt><trkpt lat="44.48178596401296" lon="8.550809658967314"><ele>684.6666666666666</ele><time>2026-05-01T11:05:39Z</time></trkpt><trkpt lat="44.481654255536185" lon="8.550928098284418"><ele>682.3333333333333</ele><time>2026-05-01T11:05:40Z</time></trkpt><trkpt lat="44.481497759099376" lon="8.55102911038365"><ele>680.0</ele><time>2026-05-01T11:05:41Z</time></trkpt><trkpt lat="44.48132970867349" lon="8.551142051251022"><ele>688.0</ele><time>2026-05-01T11:05:42Z</time></trkpt><trkpt lat="44.48116562905152" lon="8.551257127553123"><ele>696.0</ele><time>2026-05-01T11:05:43Z</time></trkpt><trkpt lat="44.48101931409187" lon="8.551349757498917"><ele>704.0</ele><time>2026-05-01T11:05:44Z</time></trkpt><trkpt lat="44.48089705724833" lon="8.551359378672768"><ele>704.0</ele><time>2026-05-01T11:05:45Z</time></trkpt><trkpt lat="44.48079750194103" lon="8.551324265383062"><ele>704.0</ele><time>2026-05-01T11:05:46Z</time></trkpt><trkpt lat="44.48069133917293" lon="8.551288918841587"><ele>704.0</ele><time>2026-05-01T11:05:47Z</time></trkpt><trkpt lat="44.48057178504987" lon="8.551204498387246"><ele>704.0</ele><time>2026-05-01T11:05:48Z</time></trkpt><trkpt lat="44.480457344966744" lon="8.55110718450207"><ele>701.0</ele><time>2026-05-01T11:05:49Z</time></trkpt><trkpt lat="44.480359828817576" lon="8.551009819314524"><ele>698.0</ele><time>2026-05-01T11:05:50Z</time></trkpt><trkpt lat="44.48029443308961" lon="8.550897005976212"><ele>695.0</ele><time>2026-05-01T11:05:51Z</time></trkpt><trkpt lat="44.48029960280877" lon="8.550736965406596"><ele>692.0</ele><time>2026-05-01T11:05:52Z</time></trkpt><trkpt lat="44.48026622258228" lon="8.55058836084079"><ele>689.0</ele><time>2026-05-01T11:05:53Z</time></trkpt><trkpt lat="44.480264536769866" lon="8.550451904741111"><ele>688.8000000000001</ele><time>2026-05-01T11:05:54Z</time></trkpt><trkpt lat="44.480300993760785" lon="8.550353128133615"><ele>688.6</ele><time>2026-05-01T11:05:55Z</time></trkpt><trkpt lat="44.48037149736525" lon="8.55026533287926"><ele>688.4</ele><time>2026-05-01T11:05:56Z</time></trkpt><trkpt lat="44.4804987916569" lon="8.550280349948254"><ele>688.2</ele><time>2026-05-01T11:05:57Z</time></trkpt><trkpt lat="44.48063025414807" lon="8.55035254532559"><ele>688.0</ele><time>2026-05-01T11:05:58Z</time></trkpt><trkpt lat="44.48078549215419" lon="8.55038204290874"><ele>687.6666666666667</ele><time>2026-05-01T11:05:59Z</time></trkpt><trkpt lat="44.480958638780265" lon="8.550390999718452"><ele>687.3333333333334</ele><time>2026-05-01T11:06:00Z</time></trkpt><trkpt lat="44.481111659801584" lon="8.550386252951778"><ele>687.0</ele><time>2026-05-01T11:06:01Z</time></trkpt><trkpt lat="44.4812378948816" lon="8.550342817318306"><ele>684.0</ele><time>2026-05-01T11:06:02Z</time></trkpt><trkpt lat="44.48134519672202" lon="8.550217362345402"><ele>681.0</ele><time>2026-05-01T11:06:03Z</time></trkpt><trkpt lat="44.48146459652123" lon="8.550061688692422"><ele>678.0</ele><time>2026-05-01T11:06:04Z</time></trkpt><trkpt lat="44.48154614958304" lon="8.549900090501582"><ele>675.0</ele><time>2026-05-01T11:06:05Z</time></trkpt><trkpt lat="44.48159438605939" lon="8.549717236006785"><ele>678.75</ele><time>2026-05-01T11:06:06Z</time></trkpt><trkpt lat="44.48159575577076" lon="8.549533245800713"><ele>682.5</ele><time>2026-05-01T11:06:07Z</time></trkpt><trkpt lat="44.481633262294764" lon="8.549415252498457"><ele>686.25</ele><time>2026-05-01T11:06:08Z</time></trkpt><trkpt lat="44.48172088636991" lon="8.549303256590305"><ele>690.0</ele><time>2026-05-01T11:06:09Z</time></trkpt><trkpt lat="44.48186545227858" lon="8.549284467653573"><ele>690.0</ele><time>2026-05-01T11:06:10Z</time></trkpt><trkpt lat="44.482017535788785" lon="8.549259262585485"><ele>690.0</ele><time>2026-05-01T11:06:11Z</time></trkpt><trkpt lat="44.482166242802364" lon="8.549213724124746"><ele>690.0</ele><time>2026-05-01T11:06:12Z</time></trkpt><trkpt lat="44.48232803530146" lon="8.54926275581937"><ele>687.0</ele><time>2026-05-01T11:06:13Z</time></trkpt><trkpt lat="44.482513063080425" lon="8.549324410365829"><ele>684.0</ele><time>2026-05-01T11:06:14Z</time></trkpt><trkpt lat="44.482697539431626" lon="8.549369673029721"><ele>681.0</ele><time>2026-05-01T11:06:15Z</time></trkpt><trkpt lat="44.482884179551476" lon="8.54942726193444"><ele>679.0</ele><time>2026-05-01T11:06:16Z</time></trkpt><trkpt lat="44.48305887904582" lon="8.549450262809835"><ele>677.0</ele><time>2026-05-01T11:06:17Z</time></trkpt><trkpt lat="44.483193270076654" lon="8.549458270804637"><ele>675.0</ele><time>2026-05-01T11:06:18Z</time></trkpt><trkpt lat="44.483319828493755" lon="8.549419483344273"><ele>673.0</ele><time>2026-05-01T11:06:19Z</time></trkpt><trkpt lat="44.4834479303315" lon="8.549335811740946"><ele>673.0</ele><time>2026-05-01T11:06:20Z</time></trkpt><trkpt lat="44.483570349396416" lon="8.549200077318723"><ele>673.0</ele><time>2026-05-01T11:06:21Z</time></trkpt><trkpt lat="44.48367614252838" lon="8.549013556370207"><ele>673.0</ele><time>2026-05-01T11:06:22Z</time></trkpt><trkpt lat="44.48376124682945" lon="8.548829997943056"><ele>674.25</ele><time>2026-05-01T11:06:23Z</time></trkpt><trkpt lat="44.483803880446644" lon="8.548653286271621"><ele>675.5</ele><time>2026-05-01T11:06:24Z</time></trkpt><trkpt lat="44.48381883442509" lon="8.548499223033682"><ele>676.75</ele><time>2026-05-01T11:06:25Z</time></trkpt><trkpt lat="44.48377687302785" lon="8.54833906180229"><ele>678.0</ele><time>2026-05-01T11:06:26Z</time></trkpt><trkpt lat="44.483705643582546" lon="8.548147360337826"><ele>678.0</ele><time>2026-05-01T11:06:27Z</time></trkpt><trkpt lat="44.483606640230484" lon="8.547947042931048"><ele>678.0</ele><time>2026-05-01T11:06:28Z</time></trkpt><trkpt lat="44.48348659379614" lon="8.547765219019764"><ele>678.0</ele><time>2026-05-01T11:06:29Z</time></trkpt><trkpt lat="44.48336929596855" lon="8.547566994556496"><ele>673.6666666666666</ele><time>2026-05-01T11:06:30Z</time></trkpt><trkpt lat="44.483249976432006" lon="8.547383251296194"><ele>669.3333333333333</ele><time>2026-05-01T11:06:31Z</time></trkpt><trkpt lat="44.48311570594035" lon="8.547258918870485"><ele>665.0</ele><time>2026-05-01T11:06:32Z</time></trkpt><trkpt lat="44.48299916667409" lon="8.547164772326866"><ele>664.2</ele><time>2026-05-01T11:06:33Z</time></trkpt><trkpt lat="44.482920175181675" lon="8.54708274740347"><ele>663.4</ele><time>2026-05-01T11:06:34Z</time></trkpt><trkpt lat="44.48287359543104" lon="8.546982990868297"><ele>662.5999999999999</ele><time>2026-05-01T11:06:35Z</time></trkpt><trkpt lat="44.48289837138532" lon="8.546849008532686"><ele>661.8</ele><time>2026-05-01T11:06:36Z</time></trkpt><trkpt lat="44.482913409550804" lon="8.546691528856613"><ele>661.0</ele><time>2026-05-01T11:06:37Z</time></trkpt><trkpt lat="44.48297743280592" lon="8.546559112270067"><ele>661.0</ele><time>2026-05-01T11:06:38Z</time></trkpt><trkpt lat="44.483081611457216" lon="8.546467640737971"><ele>661.0</ele><time>2026-05-01T11:06:39Z</time></trkpt><trkpt lat="44.48322535729153" lon="8.54643840929209"><ele>661.0</ele><time>2026-05-01T11:06:40Z</time></trkpt><trkpt lat="44.48338338767916" lon="8.546386240867287"><ele>661.0</ele><time>2026-05-01T11:06:41Z</time></trkpt><trkpt lat="44.483533180463894" lon="8.546383162319367"><ele>661.0</ele><time>2026-05-01T11:06:42Z</time></trkpt><trkpt lat="44.48366304665851" lon="8.54643308051169"><ele>661.0</ele><time>2026-05-01T11:06:43Z</time></trkpt><trkpt lat="44.48375756308123" lon="8.546594384107474"><ele>661.0</ele><time>2026-05-01T11:06:44Z</time></trkpt><trkpt lat="44.48385995695538" lon="8.546751426044517"><ele>661.0</ele><time>2026-05-01T11:06:45Z</time></trkpt><trkpt lat="44.483980998464126" lon="8.54690749850151"><ele>663.6666666666667</ele><time>2026-05-01T11:06:46Z</time></trkpt><trkpt lat="44.48415330911106" lon="8.546993424381148"><ele>666.3333333333334</ele><time>2026-05-01T11:06:47Z</time></trkpt><trkpt lat="44.484345172798584" lon="8.547019897033968"><ele>669.0</ele><time>2026-05-01T11:06:48Z</time></trkpt><trkpt lat="44.484525970840444" lon="8.547019449726942"><ele>670.25</ele><time>2026-05-01T11:06:49Z</time></trkpt><trkpt lat="44.48467911108266" lon="8.547041156806197"><ele>671.5</ele><time>2026-05-01T11:06:50Z</time></trkpt><trkpt lat="44.48481007505259" lon="8.547111478764558"><ele>672.75</ele><time>2026-05-01T11:06:51Z</time></trkpt><trkpt lat="44.48490298421266" lon="8.547281105296584"><ele>674.0</ele><time>2026-05-01T11:06:52Z</time></trkpt><trkpt lat="44.485021650820286" lon="8.547461224571249"><ele>672.6666666666666</ele><time>2026-05-01T11:06:53Z</time></trkpt><trkpt lat="44.48515036302096" lon="8.547630360218804"><ele>671.3333333333334</ele><time>2026-05-01T11:06:54Z</time></trkpt><trkpt lat="44.48532286212944" lon="8.547758127334582"><ele>670.0</ele><time>2026-05-01T11:06:55Z</time></trkpt><trkpt lat="44.48550989411476" lon="8.547845342156897"><ele>664.3333333333334</ele><time>2026-05-01T11:06:56Z</time></trkpt><trkpt lat="44.485697796424816" lon="8.547930341634087"><ele>658.6666666666666</ele><time>2026-05-01T11:06:57Z</time></trkpt><trkpt lat="44.48588708862484" lon="8.54799611879454"><ele>653.0</ele><time>2026-05-01T11:06:58Z</time></trkpt><trkpt lat="44.48606131535824" lon="8.548034182116432"><ele>653.0</ele><time>2026-05-01T11:06:59Z</time></trkpt><trkpt lat="44.48621470940051" lon="8.548099891232567"><ele>653.0</ele><time>2026-05-01T11:07:00Z</time></trkpt><trkpt lat="44.48633869553857" lon="8.548223628575755"><ele>653.0</ele><time>2026-05-01T11:07:01Z</time></trkpt><trkpt lat="44.48644484252535" lon="8.54836623272186"><ele>653.0</ele><time>2026-05-01T11:07:02Z</time></trkpt><trkpt lat="44.48654380632695" lon="8.548526585844444"><ele>653.0</ele><time>2026-05-01T11:07:03Z</time></trkpt><trkpt lat="44.486637325896204" lon="8.548701353398476"><ele>653.0</ele><time>2026-05-01T11:07:04Z</time></trkpt><trkpt lat="44.48672563438278" lon="8.548859289169501"><ele>653.0</ele><time>2026-05-01T11:07:05Z</time></trkpt><trkpt lat="44.48680757040963" lon="8.548932390539436"><ele>653.0</ele><time>2026-05-01T11:07:06Z</time></trkpt><trkpt lat="44.486925145525994" lon="8.549000154128892"><ele>653.0</ele><time>2026-05-01T11:07:07Z</time></trkpt><trkpt lat="44.48702120477891" lon="8.549039599372604"><ele>653.0</ele><time>2026-05-01T11:07:08Z</time></trkpt><trkpt lat="44.487116697313816" lon="8.549071687399591"><ele>653.0</ele><time>2026-05-01T11:07:09Z</time></trkpt><trkpt lat="44.48720028030689" lon="8.549093824445286"><ele>653.8333333333333</ele><time>2026-05-01T11:07:10Z</time></trkpt><trkpt lat="44.48728278486975" lon="8.549101696561065"><ele>654.6666666666666</ele><time>2026-05-01T11:07:11Z</time></trkpt><trkpt lat="44.48736634611549" lon="8.549071490939715"><ele>655.5</ele><time>2026-05-01T11:07:12Z</time></trkpt><trkpt lat="44.48744782578114" lon="8.549031601664147"><ele>656.3333333333334</ele><time>2026-05-01T11:07:13Z</time></trkpt><trkpt lat="44.48753413856741" lon="8.548997139837477"><ele>657.1666666666667</ele><time>2026-05-01T11:07:14Z</time></trkpt><trkpt lat="44.48762328661238" lon="8.548959537442416"><ele>658.0</ele><time>2026-05-01T11:07:15Z</time></trkpt><trkpt lat="44.487723231334996" lon="8.548920107449213"><ele>658.0</ele><time>2026-05-01T11:07:16Z</time></trkpt><trkpt lat="44.48782614884376" lon="8.548878572214605"><ele>658.0</ele><time>2026-05-01T11:07:17Z</time></trkpt><trkpt lat="44.48793907162768" lon="8.548819785824099"><ele>658.0</ele><time>2026-05-01T11:07:18Z</time></trkpt><trkpt lat="44.48806739084473" lon="8.548758444095565"><ele>658.0</ele><time>2026-05-01T11:07:19Z</time></trkpt><trkpt lat="44.48820058734356" lon="8.54870395007268"><ele>656.5</ele><time>2026-05-01T11:07:20Z</time></trkpt><trkpt lat="44.4883347567251" lon="8.548640635899442"><ele>655.0</ele><time>2026-05-01T11:07:21Z</time></trkpt><trkpt lat="44.48846621127691" lon="8.548581712495384"><ele>653.5</ele><time>2026-05-01T11:07:22Z</time></trkpt><trkpt lat="44.488597060929216" lon="8.548524037882071"><ele>652.0</ele><time>2026-05-01T11:07:23Z</time></trkpt><trkpt lat="44.48872456728471" lon="8.54846448413908"><ele>651.75</ele><time>2026-05-01T11:07:24Z</time></trkpt><trkpt lat="44.48884987846687" lon="8.548400910541197"><ele>651.5</ele><time>2026-05-01T11:07:25Z</time></trkpt><trkpt lat="44.48896763024352" lon="8.548319758385682"><ele>651.25</ele><time>2026-05-01T11:07:26Z</time></trkpt><trkpt lat="44.489073862272" lon="8.548208530935606"><ele>651.0</ele><time>2026-05-01T11:07:27Z</time></trkpt><trkpt lat="44.48916736541973" lon="8.54808517717523"><ele>651.0</ele><time>2026-05-01T11:07:28Z</time></trkpt><trkpt lat="44.489256938920654" lon="8.547958550531144"><ele>651.0</ele><time>2026-05-01T11:07:29Z</time></trkpt><trkpt lat="44.48934576577481" lon="8.547832902995294"><ele>651.0</ele><time>2026-05-01T11:07:30Z</time></trkpt><trkpt lat="44.489438058109506" lon="8.547716303777172"><ele>651.0</ele><time>2026-05-01T11:07:31Z</time></trkpt><trkpt lat="44.48952958301989" lon="8.547597387598932"><ele>650.25</ele><time>2026-05-01T11:07:32Z</time></trkpt><trkpt lat="44.4896177517356" lon="8.547473614518347"><ele>649.5</ele><time>2026-05-01T11:07:33Z</time></trkpt><trkpt lat="44.48970868396567" lon="8.547346862636369"><ele>648.75</ele><time>2026-05-01T11:07:34Z</time></trkpt><trkpt lat="44.48980460857924" lon="8.547205179006339"><ele>648.0</ele><time>2026-05-01T11:07:35Z</time></trkpt><trkpt lat="44.489900796989176" lon="8.547056288083041"><ele>646.0</ele><time>2026-05-01T11:07:36Z</time></trkpt><trkpt lat="44.48999979439769" lon="8.546896351348666"><ele>644.0</ele><time>2026-05-01T11:07:37Z</time></trkpt><trkpt lat="44.49010851649928" lon="8.546722876434064"><ele>642.0</ele><time>2026-05-01T11:07:38Z</time></trkpt><trkpt lat="44.4902201402038" lon="8.546544743955106"><ele>642.0</ele><time>2026-05-01T11:07:39Z</time></trkpt><trkpt lat="44.49032170995037" lon="8.54637454917362"><ele>642.0</ele><time>2026-05-01T11:07:40Z</time></trkpt><trkpt lat="44.490422356082114" lon="8.546221164618368"><ele>642.0</ele><time>2026-05-01T11:07:41Z</time></trkpt><trkpt lat="44.49052896752224" lon="8.546091752207332"><ele>642.0</ele><time>2026-05-01T11:07:42Z</time></trkpt><trkpt lat="44.49064844254233" lon="8.545994876850479"><ele>639.25</ele><time>2026-05-01T11:07:43Z</time></trkpt><trkpt lat="44.49077157463049" lon="8.545936257540905"><ele>636.5</ele><time>2026-05-01T11:07:44Z</time></trkpt><trkpt lat="44.49089341542159" lon="8.545926926830028"><ele>633.75</ele><time>2026-05-01T11:07:45Z</time></trkpt><trkpt lat="44.49100611743198" lon="8.546004620057454"><ele>631.0</ele><time>2026-05-01T11:07:46Z</time></trkpt><trkpt lat="44.49114076732222" lon="8.546072899815563"><ele>631.0</ele><time>2026-05-01T11:07:47Z</time></trkpt><trkpt lat="44.491272251942114" lon="8.54618470680223"><ele>631.0</ele><time>2026-05-01T11:07:48Z</time></trkpt><trkpt lat="44.49141439969498" lon="8.546297889435818"><ele>631.0</ele><time>2026-05-01T11:07:49Z</time></trkpt><trkpt lat="44.49155221448489" lon="8.546414183156068"><ele>631.0</ele><time>2026-05-01T11:07:50Z</time></trkpt><trkpt lat="44.49164047435459" lon="8.546578221416233"><ele>631.0</ele><time>2026-05-01T11:07:51Z</time></trkpt><trkpt lat="44.49175868412111" lon="8.546740450852695"><ele>631.0</ele><time>2026-05-01T11:07:52Z</time></trkpt><trkpt lat="44.49188903670303" lon="8.54686899304563"><ele>631.0</ele><time>2026-05-01T11:07:53Z</time></trkpt><trkpt lat="44.49205074153229" lon="8.546940590403148"><ele>631.0</ele><time>2026-05-01T11:07:54Z</time></trkpt><trkpt lat="44.49219650604289" lon="8.54708491100838"><ele>631.0</ele><time>2026-05-01T11:07:55Z</time></trkpt><trkpt lat="44.49232407314151" lon="8.547263659138533"><ele>627.3333333333334</ele><time>2026-05-01T11:07:56Z</time></trkpt><trkpt lat="44.49244862323839" lon="8.547414018942431"><ele>623.6666666666666</ele><time>2026-05-01T11:07:57Z</time></trkpt><trkpt lat="44.492587675076486" lon="8.547507609674604"><ele>620.0</ele><time>2026-05-01T11:07:58Z</time></trkpt><trkpt lat="44.49276276423903" lon="8.547525834955561"><ele>618.0</ele><time>2026-05-01T11:07:59Z</time></trkpt><trkpt lat="44.4929587989197" lon="8.547483855273104"><ele>616.0</ele><time>2026-05-01T11:08:00Z</time></trkpt><trkpt lat="44.493142818575656" lon="8.547411215980215"><ele>614.0</ele><time>2026-05-01T11:08:01Z</time></trkpt><trkpt lat="44.493338295708604" lon="8.547306929647359"><ele>614.0</ele><time>2026-05-01T11:08:02Z</time></trkpt><trkpt lat="44.493502919043934" lon="8.547169892319918"><ele>614.0</ele><time>2026-05-01T11:08:03Z</time></trkpt><trkpt lat="44.49363802152783" lon="8.547049260423856"><ele>614.0</ele><time>2026-05-01T11:08:04Z</time></trkpt><trkpt lat="44.49376943501764" lon="8.547017065083796"><ele>614.5</ele><time>2026-05-01T11:08:05Z</time></trkpt><trkpt lat="44.493894282144645" lon="8.547027027378197"><ele>615.0</ele><time>2026-05-01T11:08:06Z</time></trkpt><trkpt lat="44.49401027221779" lon="8.547129324456655"><ele>615.5</ele><time>2026-05-01T11:08:07Z</time></trkpt><trkpt lat="44.4941392940982" lon="8.547260674002894"><ele>616.0</ele><time>2026-05-01T11:08:08Z</time></trkpt><trkpt lat="44.49428538607907" lon="8.547390612867897"><ele>616.0</ele><time>2026-05-01T11:08:09Z</time></trkpt><trkpt lat="44.49442892094646" lon="8.547542771431534"><ele>616.0</ele><time>2026-05-01T11:08:10Z</time></trkpt><trkpt lat="44.49458096194129" lon="8.547701917583936"><ele>616.0</ele><time>2026-05-01T11:08:11Z</time></trkpt><trkpt lat="44.494745784297" lon="8.547872662152614"><ele>616.6666666666667</ele><time>2026-05-01T11:08:12Z</time></trkpt><trkpt lat="44.49491484648491" lon="8.548037773330881"><ele>617.3333333333334</ele><time>2026-05-01T11:08:13Z</time></trkpt><trkpt lat="44.49505774748814" lon="8.548185924490953"><ele>618.0</ele><time>2026-05-01T11:08:14Z</time></trkpt><trkpt lat="44.49517590068601" lon="8.548294411379356"><ele>618.0</ele><time>2026-05-01T11:08:15Z</time></trkpt><trkpt lat="44.49530199727789" lon="8.548356446155216"><ele>618.0</ele><time>2026-05-01T11:08:16Z</time></trkpt><trkpt lat="44.4954352096886" lon="8.548327880370492"><ele>618.0</ele><time>2026-05-01T11:08:17Z</time></trkpt><trkpt lat="44.495571784856175" lon="8.54822425987897"><ele>618.0</ele><time>2026-05-01T11:08:18Z</time></trkpt><trkpt lat="44.495705532945365" lon="8.548068573738023"><ele>617.3333333333334</ele><time>2026-05-01T11:08:19Z</time></trkpt><trkpt lat="44.49585597213916" lon="8.547899162623745"><ele>616.6666666666667</ele><time>2026-05-01T11:08:20Z</time></trkpt><trkpt lat="44.496019489631834" lon="8.547732842029351"><ele>616.0</ele><time>2026-05-01T11:08:21Z</time></trkpt><trkpt lat="44.496169418958175" lon="8.547578210724064"><ele>612.3333333333334</ele><time>2026-05-01T11:08:22Z</time></trkpt><trkpt lat="44.496294691186904" lon="8.547424223962352"><ele>608.6666666666666</ele><time>2026-05-01T11:08:23Z</time></trkpt><trkpt lat="44.49638474293923" lon="8.547248071995469"><ele>605.0</ele><time>2026-05-01T11:08:24Z</time></trkpt><trkpt lat="44.49643211687694" lon="8.547029932371052"><ele>605.0</ele><time>2026-05-01T11:08:25Z</time></trkpt><trkpt lat="44.49644762134119" lon="8.546777630141477"><ele>605.0</ele><time>2026-05-01T11:08:26Z</time></trkpt><trkpt lat="44.496440891194936" lon="8.546497024310574"><ele>605.0</ele><time>2026-05-01T11:08:27Z</time></trkpt><trkpt lat="44.496426644955534" lon="8.546209744735766"><ele>605.0</ele><time>2026-05-01T11:08:28Z</time></trkpt><trkpt lat="44.49642135046094" lon="8.545917604428801"><ele>605.0</ele><time>2026-05-01T11:08:29Z</time></trkpt><trkpt lat="44.496423194273" lon="8.545667288517112"><ele>605.0</ele><time>2026-05-01T11:08:30Z</time></trkpt><trkpt lat="44.49645543973787" lon="8.54550247609682"><ele>605.0</ele><time>2026-05-01T11:08:31Z</time></trkpt><trkpt lat="44.496539111115254" lon="8.545415781700916"><ele>605.0</ele><time>2026-05-01T11:08:32Z</time></trkpt><trkpt lat="44.496642092877636" lon="8.545394241825838"><ele>605.0</ele><time>2026-05-01T11:08:33Z</time></trkpt><trkpt lat="44.49676880754939" lon="8.54546313947604"><ele>605.0</ele><time>2026-05-01T11:08:34Z</time></trkpt><trkpt lat="44.4969027003979" lon="8.545596748857669"><ele>605.0</ele><time>2026-05-01T11:08:35Z</time></trkpt><trkpt lat="44.49704671970109" lon="8.545752841618318"><ele>605.0</ele><time>2026-05-01T11:08:36Z</time></trkpt><trkpt lat="44.497217028635156" lon="8.545837860286921"><ele>605.0</ele><time>2026-05-01T11:08:37Z</time></trkpt><trkpt lat="44.497421360070476" lon="8.545811814920906"><ele>603.3333333333333</ele><time>2026-05-01T11:08:38Z</time></trkpt><trkpt lat="44.49758361484498" lon="8.545741742831845"><ele>601.6666666666666</ele><time>2026-05-01T11:08:39Z</time></trkpt><trkpt lat="44.49776908850214" lon="8.54559121372826"><ele>600.0</ele><time>2026-05-01T11:08:40Z</time></trkpt><trkpt lat="44.497960862578836" lon="8.545394264368408"><ele>596.5</ele><time>2026-05-01T11:08:41Z</time></trkpt><trkpt lat="44.49813274629825" lon="8.545151306337091"><ele>593.0</ele><time>2026-05-01T11:08:42Z</time></trkpt><trkpt lat="44.4982585879991" lon="8.544912622681526"><ele>593.0</ele><time>2026-05-01T11:08:43Z</time></trkpt><trkpt lat="44.49840136697277" lon="8.544716133098994"><ele>593.0</ele><time>2026-05-01T11:08:44Z</time></trkpt><trkpt lat="44.49855641302235" lon="8.54459334703465"><ele>593.0</ele><time>2026-05-01T11:08:45Z</time></trkpt><trkpt lat="44.49868019243424" lon="8.544512524720615"><ele>593.0</ele><time>2026-05-01T11:08:46Z</time></trkpt><trkpt lat="44.49878031442373" lon="8.544494181530494"><ele>593.0</ele><time>2026-05-01T11:08:47Z</time></trkpt><trkpt lat="44.49887603787789" lon="8.544573466030021"><ele>593.0</ele><time>2026-05-01T11:08:48Z</time></trkpt><trkpt lat="44.49895956803886" lon="8.544735779480789"><ele>593.0</ele><time>2026-05-01T11:08:49Z</time></trkpt><trkpt lat="44.499069555071756" lon="8.544863808256096"><ele>593.0</ele><time>2026-05-01T11:08:50Z</time></trkpt><trkpt lat="44.49915770637379" lon="8.544959027966842"><ele>593.0</ele><time>2026-05-01T11:08:51Z</time></trkpt><trkpt lat="44.499272346074086" lon="8.544961499850748"><ele>593.0</ele><time>2026-05-01T11:08:52Z</time></trkpt><trkpt lat="44.49940228652475" lon="8.54488421908563"><ele>593.0</ele><time>2026-05-01T11:08:53Z</time></trkpt><trkpt lat="44.49951750479552" lon="8.544770602885553"><ele>592.5</ele><time>2026-05-01T11:08:54Z</time></trkpt><trkpt lat="44.49962524745186" lon="8.544703392774414"><ele>592.0</ele><time>2026-05-01T11:08:55Z</time></trkpt><trkpt lat="44.499736238010996" lon="8.544750416114136"><ele>591.5</ele><time>2026-05-01T11:08:56Z</time></trkpt><trkpt lat="44.49986235897875" lon="8.54475686430928"><ele>591.0</ele><time>2026-05-01T11:08:57Z</time></trkpt><trkpt lat="44.499977198079335" lon="8.544702074984604"><ele>587.3333333333334</ele><time>2026-05-01T11:08:58Z</time></trkpt><trkpt lat="44.50006912789529" lon="8.544545034293662"><ele>583.6666666666667</ele><time>2026-05-01T11:08:59Z</time></trkpt><trkpt lat="44.50010866066943" lon="8.544329778715646"><ele>580.0</ele><time>2026-05-01T11:09:00Z</time></trkpt><trkpt lat="44.50008575516164" lon="8.544087064373514"><ele>580.0</ele><time>2026-05-01T11:09:01Z</time></trkpt><trkpt lat="44.50003479431877" lon="8.54380769126291"><ele>580.0</ele><time>2026-05-01T11:09:02Z</time></trkpt><trkpt lat="44.49997061551095" lon="8.543506827590223"><ele>580.0</ele><time>2026-05-01T11:09:03Z</time></trkpt><trkpt lat="44.49990597315272" lon="8.543193056743865"><ele>578.3333333333334</ele><time>2026-05-01T11:09:04Z</time></trkpt><trkpt lat="44.49984502193406" lon="8.542899403686315"><ele>576.6666666666666</ele><time>2026-05-01T11:09:05Z</time></trkpt><trkpt lat="44.49978249423366" lon="8.542632357366294"><ele>575.0</ele><time>2026-05-01T11:09:06Z</time></trkpt><trkpt lat="44.49968926219568" lon="8.542402040563598"><ele>568.6666666666666</ele><time>2026-05-01T11:09:07Z</time></trkpt><trkpt lat="44.4995524180068" lon="8.542224627521987"><ele>562.3333333333334</ele><time>2026-05-01T11:09:08Z</time></trkpt><trkpt lat="44.4994194853691" lon="8.542054691004218"><ele>556.0</ele><time>2026-05-01T11:09:09Z</time></trkpt><trkpt lat="44.499328626870735" lon="8.541867218962333"><ele>556.0</ele><time>2026-05-01T11:09:10Z</time></trkpt><trkpt lat="44.499294426733215" lon="8.541630198617213"><ele>556.0</ele><time>2026-05-01T11:09:11Z</time></trkpt><trkpt lat="44.49925043842" lon="8.541396520762076"><ele>556.0</ele><time>2026-05-01T11:09:12Z</time></trkpt><trkpt lat="44.49928979009059" lon="8.541158136340078"><ele>554.0</ele><time>2026-05-01T11:09:13Z</time></trkpt><trkpt lat="44.49934551335687" lon="8.540911364507185"><ele>552.0</ele><time>2026-05-01T11:09:14Z</time></trkpt><trkpt lat="44.49937788311503" lon="8.540685053012865"><ele>550.0</ele><time>2026-05-01T11:09:15Z</time></trkpt><trkpt lat="44.49937410248684" lon="8.540455477767528"><ele>548.6666666666667</ele><time>2026-05-01T11:09:16Z</time></trkpt><trkpt lat="44.49931270551522" lon="8.540209361009527"><ele>547.3333333333334</ele><time>2026-05-01T11:09:17Z</time></trkpt><trkpt lat="44.499219938444995" lon="8.539948532919391"><ele>546.0</ele><time>2026-05-01T11:09:18Z</time></trkpt><trkpt lat="44.49912264757994" lon="8.53968687674597"><ele>544.6666666666666</ele><time>2026-05-01T11:09:19Z</time></trkpt><trkpt lat="44.4990284033917" lon="8.53941108441415"><ele>543.3333333333333</ele><time>2026-05-01T11:09:20Z</time></trkpt><trkpt lat="44.498940832038386" lon="8.539132516808253"><ele>542.0</ele><time>2026-05-01T11:09:21Z</time></trkpt><trkpt lat="44.4988342613967" lon="8.538868767357094"><ele>539.0</ele><time>2026-05-01T11:09:22Z</time></trkpt><trkpt lat="44.498714233012294" lon="8.538653424437676"><ele>536.0</ele><time>2026-05-01T11:09:23Z</time></trkpt><trkpt lat="44.49861827381045" lon="8.53848336009405"><ele>533.0</ele><time>2026-05-01T11:09:24Z</time></trkpt><trkpt lat="44.49859061483968" lon="8.538306259824077"><ele>533.0</ele><time>2026-05-01T11:09:25Z</time></trkpt><trkpt lat="44.498615212448314" lon="8.538127625099905"><ele>533.0</ele><time>2026-05-01T11:09:26Z</time></trkpt><trkpt lat="44.49861876065989" lon="8.537897909226977"><ele>533.0</ele><time>2026-05-01T11:09:27Z</time></trkpt><trkpt lat="44.49860471880769" lon="8.53768321111813"><ele>533.0</ele><time>2026-05-01T11:09:28Z</time></trkpt><trkpt lat="44.498519364687255" lon="8.537482345018581"><ele>533.6666666666666</ele><time>2026-05-01T11:09:29Z</time></trkpt><trkpt lat="44.498427655519244" lon="8.537293660080035"><ele>534.3333333333334</ele><time>2026-05-01T11:09:30Z</time></trkpt><trkpt lat="44.498427633518105" lon="8.537071990586737"><ele>535.0</ele><time>2026-05-01T11:09:31Z</time></trkpt><trkpt lat="44.49842935248835" lon="8.536796899283232"><ele>533.3333333333334</ele><time>2026-05-01T11:09:32Z</time></trkpt><trkpt lat="44.49842664424235" lon="8.536489698230884"><ele>531.6666666666666</ele><time>2026-05-01T11:09:33Z</time></trkpt><trkpt lat="44.49843238593085" lon="8.536196370394178"><ele>530.0</ele><time>2026-05-01T11:09:34Z</time></trkpt><trkpt lat="44.498458792966275" lon="8.535915855016944"><ele>527.3333333333333</ele><time>2026-05-01T11:09:35Z</time></trkpt><trkpt lat="44.49845117045015" lon="8.535653687867404"><ele>524.6666666666666</ele><time>2026-05-01T11:09:36Z</time></trkpt><trkpt lat="44.49842651624375" lon="8.53535381400314"><ele>522.0</ele><time>2026-05-01T11:09:37Z</time></trkpt><trkpt lat="44.49840763447479" lon="8.53509308476868"><ele>521.6666666666666</ele><time>2026-05-01T11:09:38Z</time></trkpt><trkpt lat="44.49837687370189" lon="8.534869962234357"><ele>521.3333333333333</ele><time>2026-05-01T11:09:39Z</time></trkpt><trkpt lat="44.49831395083699" lon="8.534664735360684"><ele>521.0</ele><time>2026-05-01T11:09:40Z</time></trkpt><trkpt lat="44.4982330844" lon="8.534480266685394"><ele>519.0</ele><time>2026-05-01T11:09:41Z</time></trkpt><trkpt lat="44.49812591806702" lon="8.534315382653732"><ele>517.0</ele><time>2026-05-01T11:09:42Z</time></trkpt><trkpt lat="44.49798140191481" lon="8.534173666122113"><ele>515.0</ele><time>2026-05-01T11:09:43Z</time></trkpt><trkpt lat="44.49780786522865" lon="8.534054005484942"><ele>515.0</ele><time>2026-05-01T11:09:44Z</time></trkpt><trkpt lat="44.49762296894611" lon="8.533963895203426"><ele>515.0</ele><time>2026-05-01T11:09:45Z</time></trkpt><trkpt lat="44.497468841201844" lon="8.533902198536943"><ele>515.0</ele><time>2026-05-01T11:09:46Z</time></trkpt><trkpt lat="44.49736090049936" lon="8.533876745101768"><ele>515.0</ele><time>2026-05-01T11:09:47Z</time></trkpt><trkpt lat="44.49726503182828" lon="8.533914203085825"><ele>515.0</ele><time>2026-05-01T11:09:48Z</time></trkpt><trkpt lat="44.49716830638362" lon="8.53403201678405"><ele>515.0</ele><time>2026-05-01T11:09:49Z</time></trkpt><trkpt lat="44.497056260046406" lon="8.534076814283118"><ele>515.0</ele><time>2026-05-01T11:09:50Z</time></trkpt><trkpt lat="44.496935515624926" lon="8.53410504893623"><ele>515.25</ele><time>2026-05-01T11:09:51Z</time></trkpt><trkpt lat="44.49682803550185" lon="8.534124345208406"><ele>515.5</ele><time>2026-05-01T11:09:52Z</time></trkpt><trkpt lat="44.49673388830842" lon="8.534244980587498"><ele>515.75</ele><time>2026-05-01T11:09:53Z</time></trkpt><trkpt lat="44.49667659134291" lon="8.53447857896806"><ele>516.0</ele><time>2026-05-01T11:09:54Z</time></trkpt><trkpt lat="44.49661896537672" lon="8.534688329778637"><ele>513.0</ele><time>2026-05-01T11:09:55Z</time></trkpt><trkpt lat="44.496555026178704" lon="8.534835051838725"><ele>510.0</ele><time>2026-05-01T11:09:56Z</time></trkpt><trkpt lat="44.49647759837304" lon="8.534914646389673"><ele>507.0</ele><time>2026-05-01T11:09:57Z</time></trkpt><trkpt lat="44.49635699128842" lon="8.534903908866797"><ele>504.0</ele><time>2026-05-01T11:09:58Z</time></trkpt><trkpt lat="44.49622647754584" lon="8.534844195951427"><ele>504.0</ele><time>2026-05-01T11:09:59Z</time></trkpt><trkpt lat="44.496099158402735" lon="8.534694429343118"><ele>504.0</ele><time>2026-05-01T11:10:00Z</time></trkpt><trkpt lat="44.49594856585492" lon="8.534540140279846"><ele>504.0</ele><time>2026-05-01T11:10:01Z</time></trkpt><trkpt lat="44.49583014176899" lon="8.534354356880499"><ele>504.0</ele><time>2026-05-01T11:10:02Z</time></trkpt><trkpt lat="44.49572285394129" lon="8.53419514322816"><ele>504.0</ele><time>2026-05-01T11:10:03Z</time></trkpt><trkpt lat="44.495673883151035" lon="8.534029584661544"><ele>504.0</ele><time>2026-05-01T11:10:04Z</time></trkpt><trkpt lat="44.49564253597564" lon="8.533841185713921"><ele>504.0</ele><time>2026-05-01T11:10:05Z</time></trkpt><trkpt lat="44.49558199401069" lon="8.53364341972918"><ele>503.75</ele><time>2026-05-01T11:10:06Z</time></trkpt><trkpt lat="44.495542911640804" lon="8.533469705878789"><ele>503.5</ele><time>2026-05-01T11:10:07Z</time></trkpt><trkpt lat="44.49557764248331" lon="8.533309242966448"><ele>503.25</ele><time>2026-05-01T11:10:08Z</time></trkpt><trkpt lat="44.49562398719866" lon="8.533134533955167"><ele>503.0</ele><time>2026-05-01T11:10:09Z</time></trkpt><trkpt lat="44.49567089668582" lon="8.53291912764228"><ele>501.25</ele><time>2026-05-01T11:10:10Z</time></trkpt><trkpt lat="44.49568965161813" lon="8.532728087080784"><ele>499.5</ele><time>2026-05-01T11:10:11Z</time></trkpt><trkpt lat="44.495655161564564" lon="8.532547832212467"><ele>497.75</ele><time>2026-05-01T11:10:12Z</time></trkpt><trkpt lat="44.49560885765087" lon="8.532372530295024"><ele>496.0</ele><time>2026-05-01T11:10:13Z</time></trkpt><trkpt lat="44.49561639107569" lon="8.532210344028119"><ele>495.33333333333337</ele><time>2026-05-01T11:10:14Z</time></trkpt><trkpt lat="44.49568410958178" lon="8.53204186208218"><ele>494.66666666666663</ele><time>2026-05-01T11:10:15Z</time></trkpt><trkpt lat="44.495747900691114" lon="8.531854628943215"><ele>494.0</ele><time>2026-05-01T11:10:16Z</time></trkpt><trkpt lat="44.49578788285357" lon="8.531631941118542"><ele>494.0</ele><time>2026-05-01T11:10:17Z</time></trkpt><trkpt lat="44.495786755234924" lon="8.531467289374216"><ele>494.0</ele><time>2026-05-01T11:10:18Z</time></trkpt><trkpt lat="44.49572551867552" lon="8.531317871947211"><ele>494.0</ele><time>2026-05-01T11:10:19Z</time></trkpt><trkpt lat="44.49560796894602" lon="8.5311868556991"><ele>494.0</ele><time>2026-05-01T11:10:20Z</time></trkpt><trkpt lat="44.495450303103965" lon="8.531049945242446"><ele>489.66666666666663</ele><time>2026-05-01T11:10:21Z</time></trkpt><trkpt lat="44.49530618136452" lon="8.530902601246778"><ele>485.33333333333337</ele><time>2026-05-01T11:10:22Z</time></trkpt><trkpt lat="44.49515284174101" lon="8.530732430592458"><ele>481.0</ele><time>2026-05-01T11:10:23Z</time></trkpt><trkpt lat="44.49500611063534" lon="8.530549065872123"><ele>479.0</ele><time>2026-05-01T11:10:24Z</time></trkpt><trkpt lat="44.49485015202506" lon="8.53037763136912"><ele>477.0</ele><time>2026-05-01T11:10:25Z</time></trkpt><trkpt lat="44.49469418247029" lon="8.530232764150847"><ele>475.0</ele><time>2026-05-01T11:10:26Z</time></trkpt><trkpt lat="44.49456137442184" lon="8.530121714356346"><ele>475.0</ele><time>2026-05-01T11:10:27Z</time></trkpt><trkpt lat="44.494476132239676" lon="8.529986813968712"><ele>475.0</ele><time>2026-05-01T11:10:28Z</time></trkpt><trkpt lat="44.49440997634222" lon="8.529810211125278"><ele>475.0</ele><time>2026-05-01T11:10:29Z</time></trkpt><trkpt lat="44.494328239284144" lon="8.529599205479"><ele>475.0</ele><time>2026-05-01T11:10:30Z</time></trkpt><trkpt lat="44.49423430514316" lon="8.529373251435112"><ele>475.0</ele><time>2026-05-01T11:10:31Z</time></trkpt><trkpt lat="44.49413158903127" lon="8.52913503863655"><ele>475.0</ele><time>2026-05-01T11:10:32Z</time></trkpt><trkpt lat="44.494044078962126" lon="8.528932518750121"><ele>475.0</ele><time>2026-05-01T11:10:33Z</time></trkpt><trkpt lat="44.49398357232515" lon="8.528783749503384"><ele>473.5</ele><time>2026-05-01T11:10:34Z</time></trkpt><trkpt lat="44.493966729507186" lon="8.52864265061617"><ele>472.0</ele><time>2026-05-01T11:10:35Z</time></trkpt><trkpt lat="44.49399433728226" lon="8.528498477367657"><ele>470.5</ele><time>2026-05-01T11:10:36Z</time></trkpt><trkpt lat="44.49410819455092" lon="8.528368873221918"><ele>469.0</ele><time>2026-05-01T11:10:37Z</time></trkpt><trkpt lat="44.49423747518155" lon="8.528196932500078"><ele>469.0</ele><time>2026-05-01T11:10:38Z</time></trkpt><trkpt lat="44.49435963974793" lon="8.528013720706774"><ele>469.0</ele><time>2026-05-01T11:10:39Z</time></trkpt><trkpt lat="44.494426949302294" lon="8.527747869158052"><ele>469.0</ele><time>2026-05-01T11:10:40Z</time></trkpt><trkpt lat="44.49447365185005" lon="8.527446016120349"><ele>466.0</ele><time>2026-05-01T11:10:41Z</time></trkpt><trkpt lat="44.49450128193931" lon="8.527161745774668"><ele>463.0</ele><time>2026-05-01T11:10:42Z</time></trkpt><trkpt lat="44.49449865446373" lon="8.52688429681041"><ele>460.0</ele><time>2026-05-01T11:10:43Z</time></trkpt><trkpt lat="44.49445592090804" lon="8.52664110557181"><ele>458.6666666666667</ele><time>2026-05-01T11:10:44Z</time></trkpt><trkpt lat="44.49438877019802" lon="8.526430733354944"><ele>457.33333333333337</ele><time>2026-05-01T11:10:45Z</time></trkpt><trkpt lat="44.49430298015626" lon="8.526234872445473"><ele>456.0</ele><time>2026-05-01T11:10:46Z</time></trkpt><trkpt lat="44.49426384225679" lon="8.526031961737925"><ele>455.5</ele><time>2026-05-01T11:10:47Z</time></trkpt><trkpt lat="44.49424635632114" lon="8.525843306830053"><ele>455.0</ele><time>2026-05-01T11:10:48Z</time></trkpt><trkpt lat="44.49426566787027" lon="8.52564528214769"><ele>454.5</ele><time>2026-05-01T11:10:49Z</time></trkpt><trkpt lat="44.49430201631159" lon="8.525433924998254"><ele>454.0</ele><time>2026-05-01T11:10:50Z</time></trkpt><trkpt lat="44.494366073867475" lon="8.525296355140235"><ele>452.33333333333337</ele><time>2026-05-01T11:10:51Z</time></trkpt><trkpt lat="44.49446179509312" lon="8.525162007823527"><ele>450.66666666666663</ele><time>2026-05-01T11:10:52Z</time></trkpt><trkpt lat="44.494574585807975" lon="8.524990704726648"><ele>449.0</ele><time>2026-05-01T11:10:53Z</time></trkpt><trkpt lat="44.49466670896167" lon="8.52473568241402"><ele>445.0</ele><time>2026-05-01T11:10:54Z</time></trkpt><trkpt lat="44.49472582900793" lon="8.524410594712945"><ele>441.0</ele><time>2026-05-01T11:10:55Z</time></trkpt><trkpt lat="44.494715253197626" lon="8.524112982188432"><ele>441.0</ele><time>2026-05-01T11:10:56Z</time></trkpt><trkpt lat="44.49470901827037" lon="8.523859806245483"><ele>441.0</ele><time>2026-05-01T11:10:57Z</time></trkpt><trkpt lat="44.49473992276971" lon="8.523604794922681"><ele>441.0</ele><time>2026-05-01T11:10:58Z</time></trkpt><trkpt lat="44.49477324640706" lon="8.523363786962447"><ele>440.0</ele><time>2026-05-01T11:10:59Z</time></trkpt><trkpt lat="44.494837714491794" lon="8.523135131108114"><ele>439.0</ele><time>2026-05-01T11:11:00Z</time></trkpt><trkpt lat="44.49489970271636" lon="8.522918404858457"><ele>438.0</ele><time>2026-05-01T11:11:01Z</time></trkpt><trkpt lat="44.49495147822937" lon="8.522684893497553"><ele>436.75</ele><time>2026-05-01T11:11:02Z</time></trkpt><trkpt lat="44.49501592380353" lon="8.522465869861312"><ele>435.5</ele><time>2026-05-01T11:11:03Z</time></trkpt><trkpt lat="44.49510484182621" lon="8.522327090838104"><ele>434.25</ele><time>2026-05-01T11:11:04Z</time></trkpt><trkpt lat="44.49519480284402" lon="8.52225847659479"><ele>433.0</ele><time>2026-05-01T11:11:05Z</time></trkpt><trkpt lat="44.495284375232934" lon="8.522232600703305"><ele>433.0</ele><time>2026-05-01T11:11:06Z</time></trkpt><trkpt lat="44.49539762401784" lon="8.522210571036956"><ele>433.0</ele><time>2026-05-01T11:11:07Z</time></trkpt><trkpt lat="44.49553440394822" lon="8.522158689390533"><ele>433.0</ele><time>2026-05-01T11:11:08Z</time></trkpt><trkpt lat="44.49567968616859" lon="8.522091858827771"><ele>433.0</ele><time>2026-05-01T11:11:09Z</time></trkpt><trkpt lat="44.49579192368217" lon="8.52192342013153"><ele>433.0</ele><time>2026-05-01T11:11:10Z</time></trkpt><trkpt lat="44.49585795603513" lon="8.521663751261638"><ele>433.0</ele><time>2026-05-01T11:11:11Z</time></trkpt><trkpt lat="44.495916780818916" lon="8.521391413725032"><ele>433.0</ele><time>2026-05-01T11:11:12Z</time></trkpt><trkpt lat="44.49595948305047" lon="8.521112860609282"><ele>433.0</ele><time>2026-05-01T11:11:13Z</time></trkpt><trkpt lat="44.49596198177932" lon="8.52080922151942"><ele>433.0</ele><time>2026-05-01T11:11:14Z</time></trkpt><trkpt lat="44.49595215481761" lon="8.52051549753383"><ele>433.0</ele><time>2026-05-01T11:11:15Z</time></trkpt><trkpt lat="44.49594574523174" lon="8.520247468176873"><ele>432.6666666666667</ele><time>2026-05-01T11:11:16Z</time></trkpt><trkpt lat="44.49593732432387" lon="8.520002823816487"><ele>432.33333333333337</ele><time>2026-05-01T11:11:17Z</time></trkpt><trkpt lat="44.49592359414708" lon="8.5197816523523"><ele>432.0</ele><time>2026-05-01T11:11:18Z</time></trkpt><trkpt lat="44.49585256783052" lon="8.51955842415759"><ele>433.0</ele><time>2026-05-01T11:11:19Z</time></trkpt><trkpt lat="44.49575418544367" lon="8.519333612316125"><ele>434.0</ele><time>2026-05-01T11:11:20Z</time></trkpt><trkpt lat="44.49566692608963" lon="8.51909708950377"><ele>435.0</ele><time>2026-05-01T11:11:21Z</time></trkpt><trkpt lat="44.49558468580855" lon="8.518852447456318"><ele>436.0</ele><time>2026-05-01T11:11:22Z</time></trkpt><trkpt lat="44.4955026892057" lon="8.518604678294684"><ele>437.0</ele><time>2026-05-01T11:11:23Z</time></trkpt><trkpt lat="44.4954120660473" lon="8.518357670325338"><ele>438.0</ele><time>2026-05-01T11:11:24Z</time></trkpt><trkpt lat="44.49532014751508" lon="8.51810891518916"><ele>435.66666666666663</ele><time>2026-05-01T11:11:25Z</time></trkpt><trkpt lat="44.49523283449614" lon="8.517861722029286"><ele>433.3333333333333</ele><time>2026-05-01T11:11:26Z</time></trkpt><trkpt lat="44.49514650395767" lon="8.517615120740107"><ele>431.0</ele><time>2026-05-01T11:11:27Z</time></trkpt><trkpt lat="44.49506760664887" lon="8.517368612132106"><ele>431.0</ele><time>2026-05-01T11:11:28Z</time></trkpt><trkpt lat="44.49498745543561" lon="8.517126678471207"><ele>431.0</ele><time>2026-05-01T11:11:29Z</time></trkpt><trkpt lat="44.49489837712442" lon="8.516897617286558"><ele>431.0</ele><time>2026-05-01T11:11:30Z</time></trkpt><trkpt lat="44.49479074696198" lon="8.51668818297907"><ele>430.66666666666663</ele><time>2026-05-01T11:11:31Z</time></trkpt><trkpt lat="44.49466234394967" lon="8.516501059236436"><ele>430.33333333333337</ele><time>2026-05-01T11:11:32Z</time></trkpt><trkpt lat="44.494529175482846" lon="8.516317224844391"><ele>430.0</ele><time>2026-05-01T11:11:33Z</time></trkpt><trkpt lat="44.494413850022696" lon="8.516120272832309"><ele>430.0</ele><time>2026-05-01T11:11:34Z</time></trkpt><trkpt lat="44.49431821112734" lon="8.515917017306824"><ele>430.0</ele><time>2026-05-01T11:11:35Z</time></trkpt><trkpt lat="44.49423233931035" lon="8.51568806195164"><ele>430.0</ele><time>2026-05-01T11:11:36Z</time></trkpt><trkpt lat="44.494150117413156" lon="8.515455749678619"><ele>433.0</ele><time>2026-05-01T11:11:37Z</time></trkpt><trkpt lat="44.49406121323156" lon="8.515244559946543"><ele>436.0</ele><time>2026-05-01T11:11:38Z</time></trkpt><trkpt lat="44.493936984338816" lon="8.515079247506343"><ele>439.0</ele><time>2026-05-01T11:11:39Z</time></trkpt><trkpt lat="44.49376494103826" lon="8.514977505591315"><ele>434.33333333333337</ele><time>2026-05-01T11:11:40Z</time></trkpt><trkpt lat="44.4935630111556" lon="8.514933526616527"><ele>429.66666666666663</ele><time>2026-05-01T11:11:41Z</time></trkpt><trkpt lat="44.493338558006776" lon="8.514945655998577"><ele>425.0</ele><time>2026-05-01T11:11:42Z</time></trkpt><trkpt lat="44.49316526739898" lon="8.514920988152358"><ele>425.0</ele><time>2026-05-01T11:11:43Z</time></trkpt><trkpt lat="44.493042675558435" lon="8.514890847150514"><ele>425.0</ele><time>2026-05-01T11:11:44Z</time></trkpt><trkpt lat="44.49296333397024" lon="8.514826347324052"><ele>425.0</ele><time>2026-05-01T11:11:45Z</time></trkpt><trkpt lat="44.492906927878586" lon="8.514721122384609"><ele>425.0</ele><time>2026-05-01T11:11:46Z</time></trkpt><trkpt lat="44.49290378044012" lon="8.514567046570852"><ele>425.0</ele><time>2026-05-01T11:11:47Z</time></trkpt><trkpt lat="44.4928648373533" lon="8.514409716807867"><ele>422.66666666666663</ele><time>2026-05-01T11:11:48Z</time></trkpt><trkpt lat="44.49282219244934" lon="8.514226424909326"><ele>420.33333333333337</ele><time>2026-05-01T11:11:49Z</time></trkpt><trkpt lat="44.492769660675116" lon="8.514027228128985"><ele>418.0</ele><time>2026-05-01T11:11:50Z</time></trkpt><trkpt lat="44.49271213370449" lon="8.513799707810215"><ele>418.6666666666667</ele><time>2026-05-01T11:11:51Z</time></trkpt><trkpt lat="44.49264066562629" lon="8.513564296158892"><ele>419.33333333333337</ele><time>2026-05-01T11:11:52Z</time></trkpt><trkpt lat="44.4925423532762" lon="8.513321268749666"><ele>420.0</ele><time>2026-05-01T11:11:53Z</time></trkpt><trkpt lat="44.49242162549107" lon="8.513087816498789"><ele>420.66666666666663</ele><time>2026-05-01T11:11:54Z</time></trkpt><trkpt lat="44.49229981637108" lon="8.5128480840599"><ele>421.3333333333333</ele><time>2026-05-01T11:11:55Z</time></trkpt><trkpt lat="44.49218919921117" lon="8.512595150518857"><ele>422.0</ele><time>2026-05-01T11:11:56Z</time></trkpt><trkpt lat="44.49207702600688" lon="8.512343614885687"><ele>420.0</ele><time>2026-05-01T11:11:57Z</time></trkpt><trkpt lat="44.491947817209336" lon="8.512109354055669"><ele>418.0</ele><time>2026-05-01T11:11:58Z</time></trkpt><trkpt lat="44.49180245513957" lon="8.511887111524732"><ele>416.0</ele><time>2026-05-01T11:11:59Z</time></trkpt><trkpt lat="44.491643326122364" lon="8.511670868235445"><ele>416.0</ele><time>2026-05-01T11:12:00Z</time></trkpt><trkpt lat="44.491490563712865" lon="8.511449394564986"><ele>416.0</ele><time>2026-05-01T11:12:01Z</time></trkpt><trkpt lat="44.49134264340332" lon="8.511227080424227"><ele>416.0</ele><time>2026-05-01T11:12:02Z</time></trkpt><trkpt lat="44.49119504955283" lon="8.511006530659937"><ele>415.3333333333333</ele><time>2026-05-01T11:12:03Z</time></trkpt><trkpt lat="44.4910534205176" lon="8.510796803708883"><ele>414.66666666666663</ele><time>2026-05-01T11:12:04Z</time></trkpt><trkpt lat="44.49091439644291" lon="8.510591204163497"><ele>414.0</ele><time>2026-05-01T11:12:05Z</time></trkpt><trkpt lat="44.4907771454354" lon="8.510387478721741"><ele>414.33333333333337</ele><time>2026-05-01T11:12:06Z</time></trkpt><trkpt lat="44.49064149482464" lon="8.510183975012184"><ele>414.6666666666667</ele><time>2026-05-01T11:12:07Z</time></trkpt><trkpt lat="44.49050893013558" lon="8.509984074678757"><ele>415.0</ele><time>2026-05-01T11:12:08Z</time></trkpt><trkpt lat="44.49038105714811" lon="8.509798156187871"><ele>415.0</ele><time>2026-05-01T11:12:09Z</time></trkpt><trkpt lat="44.49026100592385" lon="8.50960604651013"><ele>415.0</ele><time>2026-05-01T11:12:10Z</time></trkpt><trkpt lat="44.490175407171954" lon="8.509354651544909"><ele>415.0</ele><time>2026-05-01T11:12:11Z</time></trkpt><trkpt lat="44.49011016877214" lon="8.509075179943359"><ele>412.0</ele><time>2026-05-01T11:12:12Z</time></trkpt><trkpt lat="44.49004493165244" lon="8.508763212850745"><ele>409.0</ele><time>2026-05-01T11:12:13Z</time></trkpt><trkpt lat="44.48997317028634" lon="8.508447232143249"><ele>409.0</ele><time>2026-05-01T11:12:14Z</time></trkpt><trkpt lat="44.48986339536184" lon="8.508130900213793"><ele>409.0</ele><time>2026-05-01T11:12:15Z</time></trkpt><trkpt lat="44.489726828081295" lon="8.507826333278958"><ele>409.0</ele><time>2026-05-01T11:12:16Z</time></trkpt><trkpt lat="44.489599754969625" lon="8.507519019088184"><ele>409.0</ele><time>2026-05-01T11:12:17Z</time></trkpt><trkpt lat="44.48947656333091" lon="8.507222768083764"><ele>403.5</ele><time>2026-05-01T11:12:18Z</time></trkpt><trkpt lat="44.489351445151435" lon="8.506918833716464"><ele>398.0</ele><time>2026-05-01T11:12:19Z</time></trkpt><trkpt lat="44.48923337618448" lon="8.506604474316372"><ele>398.0</ele><time>2026-05-01T11:12:20Z</time></trkpt><trkpt lat="44.489117242985316" lon="8.50629931760161"><ele>398.0</ele><time>2026-05-01T11:12:21Z</time></trkpt><trkpt lat="44.48899137449863" lon="8.506041124863648"><ele>396.5</ele><time>2026-05-01T11:12:22Z</time></trkpt><trkpt lat="44.4888309367434" lon="8.50582500030445"><ele>395.0</ele><time>2026-05-01T11:12:23Z</time></trkpt><trkpt lat="44.48862204721163" lon="8.505657715648619"><ele>395.0</ele><time>2026-05-01T11:12:24Z</time></trkpt><trkpt lat="44.4883993880441" lon="8.505498430162122"><ele>395.0</ele><time>2026-05-01T11:12:25Z</time></trkpt><trkpt lat="44.48818324910393" lon="8.505322182513249"><ele>394.0</ele><time>2026-05-01T11:12:26Z</time></trkpt><trkpt lat="44.48798031286352" lon="8.505126251264274"><ele>393.0</ele><time>2026-05-01T11:12:27Z</time></trkpt><trkpt lat="44.487782189405735" lon="8.504939023789456"><ele>393.0</ele><time>2026-05-01T11:12:28Z</time></trkpt><trkpt lat="44.487598654947334" lon="8.504771172930315"><ele>393.0</ele><time>2026-05-01T11:12:29Z</time></trkpt><trkpt lat="44.487417343522765" lon="8.504649072801728"><ele>393.0</ele><time>2026-05-01T11:12:30Z</time></trkpt><trkpt lat="44.48724141335264" lon="8.504610011585156"><ele>392.0</ele><time>2026-05-01T11:12:31Z</time></trkpt><trkpt lat="44.48708848993114" lon="8.504644757914935"><ele>391.0</ele><time>2026-05-01T11:12:32Z</time></trkpt><trkpt lat="44.486948994153806" lon="8.504750302362597"><ele>390.0</ele><time>2026-05-01T11:12:33Z</time></trkpt><trkpt lat="44.486830891553765" lon="8.504936030134616"><ele>390.0</ele><time>2026-05-01T11:12:34Z</time></trkpt><trkpt lat="44.486723999340505" lon="8.505148866657576"><ele>390.0</ele><time>2026-05-01T11:12:35Z</time></trkpt><trkpt lat="44.48660837423222" lon="8.505263792750352"><ele>390.0</ele><time>2026-05-01T11:12:36Z</time></trkpt><trkpt lat="44.48648147086033" lon="8.505261983337965"><ele>390.0</ele><time>2026-05-01T11:12:37Z</time></trkpt><trkpt lat="44.486365440332726" lon="8.505143629562566"><ele>390.0</ele><time>2026-05-01T11:12:38Z</time></trkpt><trkpt lat="44.486254822939486" lon="8.50496940298119"><ele>390.0</ele><time>2026-05-01T11:12:39Z</time></trkpt><trkpt lat="44.48612970170683" lon="8.504783197845079"><ele>390.0</ele><time>2026-05-01T11:12:40Z</time></trkpt><trkpt lat="44.48599195160276" lon="8.504605956483035"><ele>390.0</ele><time>2026-05-01T11:12:41Z</time></trkpt><trkpt lat="44.48584920643811" lon="8.504417730743937"><ele>390.0</ele><time>2026-05-01T11:12:42Z</time></trkpt><trkpt lat="44.48570016473046" lon="8.504226990428787"><ele>390.0</ele><time>2026-05-01T11:12:43Z</time></trkpt><trkpt lat="44.485547276833124" lon="8.50402910766728"><ele>390.0</ele><time>2026-05-01T11:12:44Z</time></trkpt><trkpt lat="44.485405620111216" lon="8.503847679891557"><ele>390.0</ele><time>2026-05-01T11:12:45Z</time></trkpt><trkpt lat="44.485298949364534" lon="8.503698917479916"><ele>390.0</ele><time>2026-05-01T11:12:46Z</time></trkpt><trkpt lat="44.48519763668902" lon="8.50362960692574"><ele>390.0</ele><time>2026-05-01T11:12:47Z</time></trkpt><trkpt lat="44.48509815877343" lon="8.503659190498473"><ele>390.0</ele><time>2026-05-01T11:12:48Z</time></trkpt><trkpt lat="44.48499394352965" lon="8.503777040857615"><ele>390.0</ele><time>2026-05-01T11:12:49Z</time></trkpt><trkpt lat="44.484898486430964" lon="8.503962766256086"><ele>390.0</ele><time>2026-05-01T11:12:50Z</time></trkpt><trkpt lat="44.48478779549586" lon="8.504129207443182"><ele>390.0</ele><time>2026-05-01T11:12:51Z</time></trkpt><trkpt lat="44.4846365017197" lon="8.504193633301098"><ele>390.0</ele><time>2026-05-01T11:12:52Z</time></trkpt><trkpt lat="44.484468138236124" lon="8.50412964697913"><ele>390.33333333333337</ele><time>2026-05-01T11:12:53Z</time></trkpt><trkpt lat="44.48430977057148" lon="8.503987820279965"><ele>390.6666666666667</ele><time>2026-05-01T11:12:54Z</time></trkpt><trkpt lat="44.4841574517782" lon="8.503874681747078"><ele>391.0</ele><time>2026-05-01T11:12:55Z</time></trkpt><trkpt lat="44.48407363850828" lon="8.503705328194648"><ele>391.0</ele><time>2026-05-01T11:12:56Z</time></trkpt><trkpt lat="44.484041755427356" lon="8.503538691152345"><ele>391.0</ele><time>2026-05-01T11:12:57Z</time></trkpt><trkpt lat="44.484084647723876" lon="8.50341449661237"><ele>391.0</ele><time>2026-05-01T11:12:58Z</time></trkpt><trkpt lat="44.48411554039349" lon="8.503249680428555"><ele>391.0</ele><time>2026-05-01T11:12:59Z</time></trkpt><trkpt lat="44.48416447759662" lon="8.503034148951057"><ele>390.0</ele><time>2026-05-01T11:13:00Z</time></trkpt><trkpt lat="44.4841564734776" lon="8.502801178979858"><ele>389.0</ele><time>2026-05-01T11:13:01Z</time></trkpt><trkpt lat="44.48410736724196" lon="8.502539812130324"><ele>388.0</ele><time>2026-05-01T11:13:02Z</time></trkpt><trkpt lat="44.484043863133095" lon="8.502288853362712"><ele>387.0</ele><time>2026-05-01T11:13:03Z</time></trkpt><trkpt lat="44.483990406705466" lon="8.502016982948458"><ele>386.0</ele><time>2026-05-01T11:13:04Z</time></trkpt><trkpt lat="44.48392816368698" lon="8.50178424174732"><ele>385.0</ele><time>2026-05-01T11:13:05Z</time></trkpt><trkpt lat="44.48384139997207" lon="8.501602881151145"><ele>385.0</ele><time>2026-05-01T11:13:06Z</time></trkpt><trkpt lat="44.483716740952104" lon="8.501459672983499"><ele>385.0</ele><time>2026-05-01T11:13:07Z</time></trkpt><trkpt lat="44.48361678496347" lon="8.501297932152005"><ele>385.0</ele><time>2026-05-01T11:13:08Z</time></trkpt><trkpt lat="44.48358687059193" lon="8.501101151342935"><ele>385.0</ele><time>2026-05-01T11:13:09Z</time></trkpt><trkpt lat="44.483556272538685" lon="8.500879815993775"><ele>385.0</ele><time>2026-05-01T11:13:10Z</time></trkpt><trkpt lat="44.48354443297826" lon="8.500638849010581"><ele>385.0</ele><time>2026-05-01T11:13:11Z</time></trkpt><trkpt lat="44.48352657336711" lon="8.500405547483219"><ele>385.0</ele><time>2026-05-01T11:13:12Z</time></trkpt><trkpt lat="44.483509531224605" lon="8.500203189305767"><ele>385.0</ele><time>2026-05-01T11:13:13Z</time></trkpt><trkpt lat="44.48349332898729" lon="8.500031016090777"><ele>385.0</ele><time>2026-05-01T11:13:14Z</time></trkpt><trkpt lat="44.4834680520396" lon="8.499882999097615"><ele>385.0</ele><time>2026-05-01T11:13:15Z</time></trkpt><trkpt lat="44.483412597445025" lon="8.499740893076305"><ele>385.0</ele><time>2026-05-01T11:13:16Z</time></trkpt><trkpt lat="44.48332624287735" lon="8.499588563804927"><ele>385.0</ele><time>2026-05-01T11:13:17Z</time></trkpt><trkpt lat="44.48322397777332" lon="8.499419706380086"><ele>385.0</ele><time>2026-05-01T11:13:18Z</time></trkpt><trkpt lat="44.483126643864516" lon="8.499232532541837"><ele>385.33333333333337</ele><time>2026-05-01T11:13:19Z</time></trkpt><trkpt lat="44.48302696541827" lon="8.499031750089713"><ele>385.66666666666663</ele><time>2026-05-01T11:13:20Z</time></trkpt><trkpt lat="44.48292368649568" lon="8.49882319650487"><ele>386.0</ele><time>2026-05-01T11:13:21Z</time></trkpt><trkpt lat="44.4828219918075" lon="8.498608763241718"><ele>386.0</ele><time>2026-05-01T11:13:22Z</time></trkpt><trkpt lat="44.48273016286649" lon="8.498401216121119"><ele>386.0</ele><time>2026-05-01T11:13:23Z</time></trkpt><trkpt lat="44.48265959486812" lon="8.498171106531208"><ele>386.0</ele><time>2026-05-01T11:13:24Z</time></trkpt><trkpt lat="44.482571073321935" lon="8.49794850308855"><ele>385.3333333333333</ele><time>2026-05-01T11:13:25Z</time></trkpt><trkpt lat="44.48249727435849" lon="8.497703285839394"><ele>384.66666666666663</ele><time>2026-05-01T11:13:26Z</time></trkpt><trkpt lat="44.48242184653069" lon="8.497460959681797"><ele>384.0</ele><time>2026-05-01T11:13:27Z</time></trkpt><trkpt lat="44.48234336711965" lon="8.49721625797409"><ele>383.0</ele><time>2026-05-01T11:13:28Z</time></trkpt><trkpt lat="44.482272903252635" lon="8.496982075517844"><ele>382.0</ele><time>2026-05-01T11:13:29Z</time></trkpt><trkpt lat="44.48220789933779" lon="8.496772543881002"><ele>381.0</ele><time>2026-05-01T11:13:30Z</time></trkpt><trkpt lat="44.482131031315" lon="8.496569992749025"><ele>382.33333333333337</ele><time>2026-05-01T11:13:31Z</time></trkpt><trkpt lat="44.48204925458381" lon="8.496372546983473"><ele>383.6666666666667</ele><time>2026-05-01T11:13:32Z</time></trkpt><trkpt lat="44.481957810824376" lon="8.49616421183314"><ele>385.0</ele><time>2026-05-01T11:13:33Z</time></trkpt><trkpt lat="44.481863827502316" lon="8.495956793817514"><ele>385.0</ele><time>2026-05-01T11:13:34Z</time></trkpt><trkpt lat="44.48177087033811" lon="8.495749506295823"><ele>385.0</ele><time>2026-05-01T11:13:35Z</time></trkpt><trkpt lat="44.481682360212474" lon="8.495540868814613"><ele>385.0</ele><time>2026-05-01T11:13:36Z</time></trkpt><trkpt lat="44.48158908183845" lon="8.495332590296627"><ele>382.6666666666667</ele><time>2026-05-01T11:13:37Z</time></trkpt><trkpt lat="44.48147142707869" lon="8.495118546770318"><ele>380.33333333333337</ele><time>2026-05-01T11:13:38Z</time></trkpt><trkpt lat="44.481325372047934" lon="8.494917343849824"><ele>378.0</ele><time>2026-05-01T11:13:39Z</time></trkpt><trkpt lat="44.481149525120955" lon="8.494734311163688"><ele>378.6666666666667</ele><time>2026-05-01T11:13:40Z</time></trkpt><trkpt lat="44.4809578340108" lon="8.494578139737527"><ele>379.33333333333337</ele><time>2026-05-01T11:13:41Z</time></trkpt><trkpt lat="44.480778996387414" lon="8.494436253359261"><ele>380.0</ele><time>2026-05-01T11:13:42Z</time></trkpt><trkpt lat="44.480623045124325" lon="8.49430105171292"><ele>380.0</ele><time>2026-05-01T11:13:43Z</time></trkpt><trkpt lat="44.480479170902406" lon="8.49417028419759"><ele>380.0</ele><time>2026-05-01T11:13:44Z</time></trkpt><trkpt lat="44.480361091863095" lon="8.49401799046806"><ele>380.0</ele><time>2026-05-01T11:13:45Z</time></trkpt><trkpt lat="44.48025778496895" lon="8.493872022082884"><ele>382.5</ele><time>2026-05-01T11:13:46Z</time></trkpt><trkpt lat="44.480165196078396" lon="8.49372685275365"><ele>385.0</ele><time>2026-05-01T11:13:47Z</time></trkpt><trkpt lat="44.480106321600914" lon="8.493547619378365"><ele>387.5</ele><time>2026-05-01T11:13:48Z</time></trkpt><trkpt lat="44.480051298675825" lon="8.49336035881031"><ele>390.0</ele><time>2026-05-01T11:13:49Z</time></trkpt><trkpt lat="44.479997468490765" lon="8.493171162849233"><ele>390.0</ele><time>2026-05-01T11:13:50Z</time></trkpt><trkpt lat="44.47994859291748" lon="8.493002566979593"><ele>390.0</ele><time>2026-05-01T11:13:51Z</time></trkpt><trkpt lat="44.4799053573592" lon="8.49285017750652"><ele>390.0</ele><time>2026-05-01T11:13:52Z</time></trkpt><trkpt lat="44.479864865855745" lon="8.492709278443598"><ele>390.0</ele><time>2026-05-01T11:13:53Z</time></trkpt><trkpt lat="44.4798300084154" lon="8.492566370013268"><ele>388.5</ele><time>2026-05-01T11:13:54Z</time></trkpt><trkpt lat="44.479795902238926" lon="8.492418268030162"><ele>387.0</ele><time>2026-05-01T11:13:55Z</time></trkpt><trkpt lat="44.479759886452214" lon="8.49226699471721"><ele>385.5</ele><time>2026-05-01T11:13:56Z</time></trkpt><trkpt lat="44.479719560335205" lon="8.492112131410183"><ele>384.0</ele><time>2026-05-01T11:13:57Z</time></trkpt><trkpt lat="44.47967897098369" lon="8.491959447029336"><ele>384.79999999999995</ele><time>2026-05-01T11:13:58Z</time></trkpt><trkpt lat="44.47964361226474" lon="8.491805969203742"><ele>385.59999999999997</ele><time>2026-05-01T11:13:59Z</time></trkpt><trkpt lat="44.479609358673436" lon="8.491649925538216"><ele>386.4</ele><time>2026-05-01T11:14:00Z</time></trkpt><trkpt lat="44.479585545427376" lon="8.491502828314728"><ele>387.2</ele><time>2026-05-01T11:14:01Z</time></trkpt><trkpt lat="44.479563110869734" lon="8.49135304757673"><ele>388.0</ele><time>2026-05-01T11:14:02Z</time></trkpt><trkpt lat="44.479547371860775" lon="8.491217202658188"><ele>388.00000000000006</ele><time>2026-05-01T11:14:03Z</time></trkpt><trkpt lat="44.47952660928762" lon="8.491106045350984"><ele>388.0</ele><time>2026-05-01T11:14:04Z</time></trkpt><trkpt lat="44.47951459319012" lon="8.490988126398896"><ele>388.0</ele><time>2026-05-01T11:14:05Z</time></trkpt><trkpt lat="44.479505121945856" lon="8.490865333687145"><ele>388.0</ele><time>2026-05-01T11:14:06Z</time></trkpt><trkpt lat="44.47948718248223" lon="8.490737912702203"><ele>388.00000000000006</ele><time>2026-05-01T11:14:07Z</time></trkpt><trkpt lat="44.47947467328632" lon="8.490619458289531"><ele>388.0</ele><time>2026-05-01T11:14:08Z</time></trkpt><trkpt lat="44.47945815786799" lon="8.49051237662612"><ele>388.0</ele><time>2026-05-01T11:14:09Z</time></trkpt><trkpt lat="44.47944938086148" lon="8.490425001497155"><ele>388.0</ele><time>2026-05-01T11:14:10Z</time></trkpt><trkpt lat="44.47944949522827" lon="8.490281141834165"><ele>388.0</ele><time>2026-05-01T11:14:12Z</time></trkpt><trkpt lat="44.4794800825419" lon="8.4901828367694"><ele>388.0</ele><time>2026-05-01T11:14:15Z</time></trkpt><trkpt lat="44.47946406543914" lon="8.490081213711607"><ele>388.0</ele><time>2026-05-01T11:14:16Z</time></trkpt><trkpt lat="44.479380180673516" lon="8.489933843095583"><ele>388.2</ele><time>2026-05-01T11:14:17Z</time></trkpt><trkpt lat="44.47933202288657" lon="8.489787931531746"><ele>388.4</ele><time>2026-05-01T11:14:18Z</time></trkpt><trkpt lat="44.47928854537097" lon="8.489623139250991"><ele>388.59999999999997</ele><time>2026-05-01T11:14:19Z</time></trkpt><trkpt lat="44.479259997066976" lon="8.489475595374815"><ele>388.79999999999995</ele><time>2026-05-01T11:14:20Z</time></trkpt><trkpt lat="44.479232010147456" lon="8.489340716470362"><ele>389.0</ele><time>2026-05-01T11:14:21Z</time></trkpt><trkpt lat="44.479186296851374" lon="8.48919774374708"><ele>388.4</ele><time>2026-05-01T11:14:22Z</time></trkpt><trkpt lat="44.47916356407889" lon="8.489063739387541"><ele>387.79999999999995</ele><time>2026-05-01T11:14:23Z</time></trkpt><trkpt lat="44.479122119971386" lon="8.48895248221729"><ele>387.20000000000005</ele><time>2026-05-01T11:14:24Z</time></trkpt><trkpt lat="44.47904047720691" lon="8.488887950023132"><ele>386.6</ele><time>2026-05-01T11:14:25Z</time></trkpt><trkpt lat="44.478949177546205" lon="8.488854078368052"><ele>386.0</ele><time>2026-05-01T11:14:26Z</time></trkpt><trkpt lat="44.47884764071156" lon="8.48884207978721"><ele>385.5</ele><time>2026-05-01T11:14:27Z</time></trkpt><trkpt lat="44.47873362300682" lon="8.488835740127357"><ele>385.0</ele><time>2026-05-01T11:14:28Z</time></trkpt><trkpt lat="44.4786147854927" lon="8.488816174042563"><ele>384.5</ele><time>2026-05-01T11:14:29Z</time></trkpt><trkpt lat="44.47849805104285" lon="8.488798971756353"><ele>384.0</ele><time>2026-05-01T11:14:30Z</time></trkpt><trkpt lat="44.4783977087974" lon="8.488760747847792"><ele>382.79999999999995</ele><time>2026-05-01T11:14:31Z</time></trkpt><trkpt lat="44.47829546416172" lon="8.488750410382286"><ele>381.59999999999997</ele><time>2026-05-01T11:14:32Z</time></trkpt><trkpt lat="44.47822990792666" lon="8.48868121295907"><ele>380.4</ele><time>2026-05-01T11:14:33Z</time></trkpt><trkpt lat="44.47819719004665" lon="8.48856127373429"><ele>379.2</ele><time>2026-05-01T11:14:34Z</time></trkpt><trkpt lat="44.47819281044046" lon="8.488435526799728"><ele>378.0</ele><time>2026-05-01T11:14:35Z</time></trkpt><trkpt lat="44.47819286785657" lon="8.488286947859013"><ele>378.0</ele><time>2026-05-01T11:14:36Z</time></trkpt><trkpt lat="44.47819504927314" lon="8.488134565796903"><ele>378.0</ele><time>2026-05-01T11:14:37Z</time></trkpt><trkpt lat="44.478201944049616" lon="8.487988341077203"><ele>378.0</ele><time>2026-05-01T11:14:38Z</time></trkpt><trkpt lat="44.47819868532673" lon="8.487866607977073"><ele>378.0</ele><time>2026-05-01T11:14:39Z</time></trkpt><trkpt lat="44.478184037874556" lon="8.487728478750357"><ele>378.0</ele><time>2026-05-01T11:14:41Z</time></trkpt><trkpt lat="44.47815860241934" lon="8.487545241523177"><ele>377.59999999999997</ele><time>2026-05-01T11:14:43Z</time></trkpt><trkpt lat="44.47813727953591" lon="8.48742122879314"><ele>377.2</ele><time>2026-05-01T11:14:44Z</time></trkpt><trkpt lat="44.478107628039936" lon="8.487280227248565"><ele>376.8</ele><time>2026-05-01T11:14:45Z</time></trkpt><trkpt lat="44.478076064679186" lon="8.487144898458679"><ele>376.4</ele><time>2026-05-01T11:14:46Z</time></trkpt><trkpt lat="44.47804259782247" lon="8.487003159155288"><ele>376.0</ele><time>2026-05-01T11:14:47Z</time></trkpt><trkpt lat="44.47799977436064" lon="8.4868468911453"><ele>375.75</ele><time>2026-05-01T11:14:48Z</time></trkpt><trkpt lat="44.47795883277674" lon="8.486685854332542"><ele>375.5</ele><time>2026-05-01T11:14:49Z</time></trkpt><trkpt lat="44.477910698655975" lon="8.486525873320465"><ele>375.25</ele><time>2026-05-01T11:14:50Z</time></trkpt><trkpt lat="44.477859124102615" lon="8.486386165904587"><ele>375.0</ele><time>2026-05-01T11:14:51Z</time></trkpt><trkpt lat="44.47778814435177" lon="8.486266756300676"><ele>372.5</ele><time>2026-05-01T11:14:52Z</time></trkpt><trkpt lat="44.47770171003096" lon="8.486156744225436"><ele>370.0</ele><time>2026-05-01T11:14:53Z</time></trkpt><trkpt lat="44.477603153746344" lon="8.486061143512174"><ele>367.5</ele><time>2026-05-01T11:14:54Z</time></trkpt><trkpt lat="44.47749367523828" lon="8.485964147870549"><ele>365.0</ele><time>2026-05-01T11:14:55Z</time></trkpt><trkpt lat="44.47738877638356" lon="8.485873666809548"><ele>365.0</ele><time>2026-05-01T11:14:56Z</time></trkpt><trkpt lat="44.47727339984482" lon="8.485770272279598"><ele>365.0</ele><time>2026-05-01T11:14:57Z</time></trkpt><trkpt lat="44.47717148929097" lon="8.485693383407447"><ele>365.0</ele><time>2026-05-01T11:14:58Z</time></trkpt><trkpt lat="44.47706661572686" lon="8.48562836614385"><ele>365.0</ele><time>2026-05-01T11:14:59Z</time></trkpt><trkpt lat="44.47695808817795" lon="8.48558358110415"><ele>364.75</ele><time>2026-05-01T11:15:00Z</time></trkpt><trkpt lat="44.47684851494553" lon="8.485567446179145"><ele>364.5</ele><time>2026-05-01T11:15:01Z</time></trkpt><trkpt lat="44.47673842274921" lon="8.485578722921604"><ele>364.25</ele><time>2026-05-01T11:15:02Z</time></trkpt><trkpt lat="44.476627256886445" lon="8.485629209210554"><ele>364.0</ele><time>2026-05-01T11:15:03Z</time></trkpt><trkpt lat="44.47652390232883" lon="8.485719915875752"><ele>364.0</ele><time>2026-05-01T11:15:04Z</time></trkpt><trkpt lat="44.4764370415168" lon="8.485834465246036"><ele>364.0</ele><time>2026-05-01T11:15:05Z</time></trkpt><trkpt lat="44.47636455961672" lon="8.485953800382742"><ele>364.0</ele><time>2026-05-01T11:15:06Z</time></trkpt><trkpt lat="44.47628953155214" lon="8.486061970678296"><ele>364.0</ele><time>2026-05-01T11:15:07Z</time></trkpt><trkpt lat="44.476209208475375" lon="8.486172065009667"><ele>365.0</ele><time>2026-05-01T11:15:08Z</time></trkpt><trkpt lat="44.476133199382836" lon="8.4862888086434"><ele>366.0</ele><time>2026-05-01T11:15:09Z</time></trkpt><trkpt lat="44.476047198408885" lon="8.4864087024874"><ele>367.0</ele><time>2026-05-01T11:15:10Z</time></trkpt><trkpt lat="44.47595184360702" lon="8.486535361139603"><ele>368.0</ele><time>2026-05-01T11:15:11Z</time></trkpt><trkpt lat="44.47585436932728" lon="8.486672375559273"><ele>368.0</ele><time>2026-05-01T11:15:12Z</time></trkpt><trkpt lat="44.4757637745681" lon="8.48680188356514"><ele>368.0</ele><time>2026-05-01T11:15:13Z</time></trkpt><trkpt lat="44.47568607221023" lon="8.4869122091874"><ele>368.0</ele><time>2026-05-01T11:15:14Z</time></trkpt><trkpt lat="44.47560930337393" lon="8.48700610816182"><ele>368.0</ele><time>2026-05-01T11:15:15Z</time></trkpt><trkpt lat="44.47550126693315" lon="8.48703846472435"><ele>367.25</ele><time>2026-05-01T11:15:16Z</time></trkpt><trkpt lat="44.47538032494664" lon="8.487041627705969"><ele>366.5</ele><time>2026-05-01T11:15:17Z</time></trkpt><trkpt lat="44.475241095568315" lon="8.487064317932647"><ele>365.75</ele><time>2026-05-01T11:15:18Z</time></trkpt><trkpt lat="44.47508884479835" lon="8.487114486960381"><ele>365.0</ele><time>2026-05-01T11:15:19Z</time></trkpt><trkpt lat="44.47493582669083" lon="8.487161584187042"><ele>368.33333333333337</ele><time>2026-05-01T11:15:20Z</time></trkpt><trkpt lat="44.47477702148059" lon="8.487214966717202"><ele>371.6666666666667</ele><time>2026-05-01T11:15:21Z</time></trkpt><trkpt lat="44.4746058346094" lon="8.487240392430255"><ele>375.0</ele><time>2026-05-01T11:15:22Z</time></trkpt><trkpt lat="44.47442627114865" lon="8.487201032326244"><ele>372.6666666666667</ele><time>2026-05-01T11:15:23Z</time></trkpt><trkpt lat="44.474264740981354" lon="8.487060225412655"><ele>370.33333333333337</ele><time>2026-05-01T11:15:24Z</time></trkpt><trkpt lat="44.47408267960721" lon="8.486911995622656"><ele>368.0</ele><time>2026-05-01T11:15:25Z</time></trkpt><trkpt lat="44.473897266020764" lon="8.486764636008672"><ele>372.0</ele><time>2026-05-01T11:15:26Z</time></trkpt><trkpt lat="44.47372125717002" lon="8.486605314535145"><ele>376.0</ele><time>2026-05-01T11:15:27Z</time></trkpt><trkpt lat="44.473559480750836" lon="8.48646813945784"><ele>380.0</ele><time>2026-05-01T11:15:28Z</time></trkpt><trkpt lat="44.47341126467921" lon="8.486340694041242"><ele>376.0</ele><time>2026-05-01T11:15:29Z</time></trkpt><trkpt lat="44.47326219943338" lon="8.486215203007093"><ele>372.0</ele><time>2026-05-01T11:15:30Z</time></trkpt><trkpt lat="44.473113288716306" lon="8.486091983748516"><ele>368.0</ele><time>2026-05-01T11:15:31Z</time></trkpt><trkpt lat="44.47296767455092" lon="8.485967173228476"><ele>371.0</ele><time>2026-05-01T11:15:32Z</time></trkpt><trkpt lat="44.47282879005352" lon="8.485843691611173"><ele>374.0</ele><time>2026-05-01T11:15:33Z</time></trkpt><trkpt lat="44.47269117153612" lon="8.485723333763366"><ele>377.0</ele><time>2026-05-01T11:15:34Z</time></trkpt><trkpt lat="44.47255995643337" lon="8.485606270418435"><ele>377.0</ele><time>2026-05-01T11:15:35Z</time></trkpt><trkpt lat="44.4724314808373" lon="8.485492035406159"><ele>377.0</ele><time>2026-05-01T11:15:36Z</time></trkpt><trkpt lat="44.47230957041919" lon="8.48538128068955"><ele>377.0</ele><time>2026-05-01T11:15:37Z</time></trkpt><trkpt lat="44.472189762708844" lon="8.48526937295584"><ele>377.0</ele><time>2026-05-01T11:15:38Z</time></trkpt><trkpt lat="44.47207087936555" lon="8.485158977668236"><ele>377.25</ele><time>2026-05-01T11:15:39Z</time></trkpt><trkpt lat="44.47195432130432" lon="8.485053986925532"><ele>377.5</ele><time>2026-05-01T11:15:40Z</time></trkpt><trkpt lat="44.47183862090604" lon="8.484945128710342"><ele>377.75</ele><time>2026-05-01T11:15:41Z</time></trkpt><trkpt lat="44.47172283014375" lon="8.484833581196668"><ele>378.0</ele><time>2026-05-01T11:15:42Z</time></trkpt><trkpt lat="44.47161551438651" lon="8.484732529989438"><ele>378.0</ele><time>2026-05-01T11:15:43Z</time></trkpt><trkpt lat="44.47150808043958" lon="8.48462700551988"><ele>378.0</ele><time>2026-05-01T11:15:44Z</time></trkpt><trkpt lat="44.471396999822815" lon="8.48452385412861"><ele>378.0</ele><time>2026-05-01T11:15:45Z</time></trkpt><trkpt lat="44.47128640460329" lon="8.484428155733216"><ele>378.0</ele><time>2026-05-01T11:15:46Z</time></trkpt><trkpt lat="44.471183926625905" lon="8.48435246997422"><ele>378.25</ele><time>2026-05-01T11:15:47Z</time></trkpt><trkpt lat="44.47108287162412" lon="8.484295377324381"><ele>378.5</ele><time>2026-05-01T11:15:48Z</time></trkpt><trkpt lat="44.470969674225" lon="8.484260889926148"><ele>378.75</ele><time>2026-05-01T11:15:49Z</time></trkpt><trkpt lat="44.47084493881018" lon="8.484240706633713"><ele>379.0</ele><time>2026-05-01T11:15:50Z</time></trkpt><trkpt lat="44.47071176446196" lon="8.484222686630856"><ele>379.0</ele><time>2026-05-01T11:15:51Z</time></trkpt><trkpt lat="44.470579254303956" lon="8.484198364114606"><ele>379.0</ele><time>2026-05-01T11:15:52Z</time></trkpt><trkpt lat="44.47044213463455" lon="8.484180494462503"><ele>379.0</ele><time>2026-05-01T11:15:53Z</time></trkpt><trkpt lat="44.47030382831678" lon="8.484164715011584"><ele>379.0</ele><time>2026-05-01T11:15:54Z</time></trkpt><trkpt lat="44.470173264083954" lon="8.484148507069742"><ele>379.75</ele><time>2026-05-01T11:15:55Z</time></trkpt><trkpt lat="44.47004974290676" lon="8.484141960758336"><ele>380.5</ele><time>2026-05-01T11:15:56Z</time></trkpt><trkpt lat="44.46992395362012" lon="8.484160310170195"><ele>381.25</ele><time>2026-05-01T11:15:57Z</time></trkpt><trkpt lat="44.469788822617694" lon="8.484189987381518"><ele>382.0</ele><time>2026-05-01T11:15:58Z</time></trkpt><trkpt lat="44.46966440107108" lon="8.484230172180476"><ele>381.5</ele><time>2026-05-01T11:15:59Z</time></trkpt><trkpt lat="44.46954594209317" lon="8.484266053908467"><ele>381.0</ele><time>2026-05-01T11:16:00Z</time></trkpt><trkpt lat="44.4694291393107" lon="8.48430064224214"><ele>380.5</ele><time>2026-05-01T11:16:01Z</time></trkpt><trkpt lat="44.469314593247766" lon="8.48433467295677"><ele>380.0</ele><time>2026-05-01T11:16:02Z</time></trkpt><trkpt lat="44.46919548438378" lon="8.484369593683741"><ele>380.0</ele><time>2026-05-01T11:16:03Z</time></trkpt><trkpt lat="44.46907302007836" lon="8.484402492398903"><ele>380.0</ele><time>2026-05-01T11:16:04Z</time></trkpt><trkpt lat="44.46894739061765" lon="8.4844401080543"><ele>380.0</ele><time>2026-05-01T11:16:05Z</time></trkpt><trkpt lat="44.468821447728104" lon="8.484481469474613"><ele>380.0</ele><time>2026-05-01T11:16:06Z</time></trkpt><trkpt lat="44.46869351187935" lon="8.484519617681626"><ele>380.0</ele><time>2026-05-01T11:16:07Z</time></trkpt><trkpt lat="44.468565018213674" lon="8.484554620351965"><ele>380.0</ele><time>2026-05-01T11:16:08Z</time></trkpt><trkpt lat="44.46843672515608" lon="8.48459261647856"><ele>380.0</ele><time>2026-05-01T11:16:09Z</time></trkpt><trkpt lat="44.46831051931062" lon="8.4846314190701"><ele>380.0</ele><time>2026-05-01T11:16:10Z</time></trkpt><trkpt lat="44.46818623790354" lon="8.484665546906873"><ele>381.0</ele><time>2026-05-01T11:16:11Z</time></trkpt><trkpt lat="44.46805582135277" lon="8.484673838659727"><ele>382.0</ele><time>2026-05-01T11:16:12Z</time></trkpt><trkpt lat="44.46791946625952" lon="8.484640254190456"><ele>383.0</ele><time>2026-05-01T11:16:13Z</time></trkpt><trkpt lat="44.46777988490846" lon="8.484568327793504"><ele>384.0</ele><time>2026-05-01T11:16:14Z</time></trkpt><trkpt lat="44.467641714556315" lon="8.484479691346165"><ele>384.0</ele><time>2026-05-01T11:16:15Z</time></trkpt><trkpt lat="44.46750257745856" lon="8.48439342998683"><ele>384.0</ele><time>2026-05-01T11:16:16Z</time></trkpt><trkpt lat="44.46736111978431" lon="8.484307746163983"><ele>384.0</ele><time>2026-05-01T11:16:17Z</time></trkpt><trkpt lat="44.467214220602905" lon="8.484221980263857"><ele>388.0</ele><time>2026-05-01T11:16:18Z</time></trkpt><trkpt lat="44.46706674750255" lon="8.484121265626838"><ele>392.0</ele><time>2026-05-01T11:16:19Z</time></trkpt><trkpt lat="44.46692397032402" lon="8.484012205341878"><ele>396.0</ele><time>2026-05-01T11:16:20Z</time></trkpt><trkpt lat="44.46679177294877" lon="8.483904691115608"><ele>396.0</ele><time>2026-05-01T11:16:21Z</time></trkpt><trkpt lat="44.466654385360975" lon="8.483790360519246"><ele>396.0</ele><time>2026-05-01T11:16:22Z</time></trkpt><trkpt lat="44.46651602394668" lon="8.483626161184576"><ele>396.0</ele><time>2026-05-01T11:16:23Z</time></trkpt><trkpt lat="44.46635204359074" lon="8.483447740674393"><ele>394.33333333333337</ele><time>2026-05-01T11:16:24Z</time></trkpt><trkpt lat="44.466184642032346" lon="8.483291940986275"><ele>392.6666666666667</ele><time>2026-05-01T11:16:25Z</time></trkpt><trkpt lat="44.466000597405426" lon="8.483077172738911"><ele>391.0</ele><time>2026-05-01T11:16:26Z</time></trkpt><trkpt lat="44.46583241500336" lon="8.482890347258389"><ele>390.0</ele><time>2026-05-01T11:16:27Z</time></trkpt><trkpt lat="44.465686405378364" lon="8.48273154336057"><ele>389.0</ele><time>2026-05-01T11:16:28Z</time></trkpt><trkpt lat="44.465570037975944" lon="8.48259597885796"><ele>388.0</ele><time>2026-05-01T11:16:29Z</time></trkpt><trkpt lat="44.46545783992634" lon="8.48249559416151"><ele>391.6666666666667</ele><time>2026-05-01T11:16:30Z</time></trkpt><trkpt lat="44.46530123192362" lon="8.482458323999227"><ele>395.33333333333337</ele><time>2026-05-01T11:16:31Z</time></trkpt><trkpt lat="44.46511737658787" lon="8.482469800693321"><ele>399.0</ele><time>2026-05-01T11:16:32Z</time></trkpt><trkpt lat="44.4649263807881" lon="8.482492508995122"><ele>399.0</ele><time>2026-05-01T11:16:33Z</time></trkpt><trkpt lat="44.46476698266544" lon="8.4825120686543"><ele>399.0</ele><time>2026-05-01T11:16:34Z</time></trkpt><trkpt lat="44.464617064723555" lon="8.482563395285704"><ele>399.0</ele><time>2026-05-01T11:16:35Z</time></trkpt><trkpt lat="44.464450903604416" lon="8.482672962352591"><ele>399.33333333333337</ele><time>2026-05-01T11:16:36Z</time></trkpt><trkpt lat="44.46426939599713" lon="8.482775824911396"><ele>399.6666666666667</ele><time>2026-05-01T11:16:37Z</time></trkpt><trkpt lat="44.46407874670606" lon="8.482843040216977"><ele>400.0</ele><time>2026-05-01T11:16:38Z</time></trkpt><trkpt lat="44.46387256736916" lon="8.482824189228323"><ele>400.33333333333337</ele><time>2026-05-01T11:16:39Z</time></trkpt><trkpt lat="44.4636590577678" lon="8.482815958715321"><ele>400.66666666666663</ele><time>2026-05-01T11:16:40Z</time></trkpt><trkpt lat="44.46343779840205" lon="8.482768679621694"><ele>401.0</ele><time>2026-05-01T11:16:41Z</time></trkpt><trkpt lat="44.46321711653012" lon="8.48273531427377"><ele>401.0</ele><time>2026-05-01T11:16:42Z</time></trkpt><trkpt lat="44.463025582631566" lon="8.48266985323996"><ele>401.0</ele><time>2026-05-01T11:16:43Z</time></trkpt><trkpt lat="44.462889410975244" lon="8.482534968608539"><ele>401.0</ele><time>2026-05-01T11:16:44Z</time></trkpt><trkpt lat="44.462736259446" lon="8.48240969975227"><ele>402.66666666666663</ele><time>2026-05-01T11:16:45Z</time></trkpt><trkpt lat="44.4625590615725" lon="8.482326030660817"><ele>404.33333333333337</ele><time>2026-05-01T11:16:46Z</time></trkpt><trkpt lat="44.46234460779098" lon="8.482323239804348"><ele>406.0</ele><time>2026-05-01T11:16:47Z</time></trkpt><trkpt lat="44.46212989976378" lon="8.482317720850904"><ele>408.33333333333337</ele><time>2026-05-01T11:16:48Z</time></trkpt><trkpt lat="44.46191249853561" lon="8.482270663290745"><ele>410.66666666666663</ele><time>2026-05-01T11:16:49Z</time></trkpt><trkpt lat="44.461693868044264" lon="8.482217023051385"><ele>413.0</ele><time>2026-05-01T11:16:50Z</time></trkpt><trkpt lat="44.46146696468996" lon="8.482142499346692"><ele>411.5</ele><time>2026-05-01T11:16:51Z</time></trkpt><trkpt lat="44.46124484256524" lon="8.48204393545572"><ele>410.0</ele><time>2026-05-01T11:16:52Z</time></trkpt><trkpt lat="44.461034292231034" lon="8.481903165968614"><ele>410.0</ele><time>2026-05-01T11:16:53Z</time></trkpt><trkpt lat="44.46082076404488" lon="8.48176155758284"><ele>410.0</ele><time>2026-05-01T11:16:54Z</time></trkpt><trkpt lat="44.46060439431194" lon="8.481669270123858"><ele>416.3333333333333</ele><time>2026-05-01T11:16:55Z</time></trkpt><trkpt lat="44.46041634987541" lon="8.481638050986867"><ele>422.66666666666663</ele><time>2026-05-01T11:16:56Z</time></trkpt><trkpt lat="44.46024986113633" lon="8.481577823383244"><ele>429.0</ele><time>2026-05-01T11:16:57Z</time></trkpt><trkpt lat="44.460100486651825" lon="8.4814678795474"><ele>429.0</ele><time>2026-05-01T11:16:58Z</time></trkpt><trkpt lat="44.459963651566426" lon="8.481319358895538"><ele>429.0</ele><time>2026-05-01T11:16:59Z</time></trkpt><trkpt lat="44.45987753784653" lon="8.481148261458737"><ele>429.0</ele><time>2026-05-01T11:17:00Z</time></trkpt><trkpt lat="44.45986692122162" lon="8.480931783305476"><ele>428.33333333333337</ele><time>2026-05-01T11:17:01Z</time></trkpt><trkpt lat="44.45979199349437" lon="8.480723012118348"><ele>427.6666666666667</ele><time>2026-05-01T11:17:02Z</time></trkpt><trkpt lat="44.45967062705647" lon="8.480540894496375"><ele>427.0</ele><time>2026-05-01T11:17:03Z</time></trkpt><trkpt lat="44.45948787694172" lon="8.480386176749724"><ele>427.0</ele><time>2026-05-01T11:17:04Z</time></trkpt><trkpt lat="44.45931158489364" lon="8.480233955214425"><ele>427.0</ele><time>2026-05-01T11:17:05Z</time></trkpt><trkpt lat="44.459145286666576" lon="8.480060544690009"><ele>427.0</ele><time>2026-05-01T11:17:06Z</time></trkpt><trkpt lat="44.458978641604986" lon="8.479877899371068"><ele>427.0</ele><time>2026-05-01T11:17:07Z</time></trkpt><trkpt lat="44.458808944086" lon="8.479714518659005"><ele>427.0</ele><time>2026-05-01T11:17:08Z</time></trkpt><trkpt lat="44.45866478241786" lon="8.479605923024591"><ele>427.0</ele><time>2026-05-01T11:17:09Z</time></trkpt><trkpt lat="44.45854569820728" lon="8.479579058772416"><ele>425.33333333333337</ele><time>2026-05-01T11:17:10Z</time></trkpt><trkpt lat="44.45840440518284" lon="8.47964472670973"><ele>423.66666666666663</ele><time>2026-05-01T11:17:11Z</time></trkpt><trkpt lat="44.45825158503881" lon="8.479743135791953"><ele>422.0</ele><time>2026-05-01T11:17:12Z</time></trkpt><trkpt lat="44.45808290879743" lon="8.479798483525705"><ele>422.0</ele><time>2026-05-01T11:17:13Z</time></trkpt><trkpt lat="44.45792578019742" lon="8.479765058905292"><ele>422.0</ele><time>2026-05-01T11:17:14Z</time></trkpt><trkpt lat="44.45776291222168" lon="8.479800759470178"><ele>422.0</ele><time>2026-05-01T11:17:15Z</time></trkpt><trkpt lat="44.457623042712704" lon="8.47991149719042"><ele>422.0</ele><time>2026-05-01T11:17:16Z</time></trkpt><trkpt lat="44.45749361736225" lon="8.480128776029606"><ele>422.0</ele><time>2026-05-01T11:17:17Z</time></trkpt><trkpt lat="44.45734058302658" lon="8.480297065564324"><ele>422.0</ele><time>2026-05-01T11:17:18Z</time></trkpt><trkpt lat="44.45716979980102" lon="8.480370615011045"><ele>422.66666666666663</ele><time>2026-05-01T11:17:19Z</time></trkpt><trkpt lat="44.456994862372454" lon="8.480306503871565"><ele>423.33333333333337</ele><time>2026-05-01T11:17:20Z</time></trkpt><trkpt lat="44.456803553865264" lon="8.480212787108139"><ele>424.0</ele><time>2026-05-01T11:17:21Z</time></trkpt><trkpt lat="44.456595496072815" lon="8.480077290661507"><ele>424.0</ele><time>2026-05-01T11:17:22Z</time></trkpt><trkpt lat="44.4563856051447" lon="8.480001056188756"><ele>424.0</ele><time>2026-05-01T11:17:23Z</time></trkpt><trkpt lat="44.45618493074136" lon="8.479962412155293"><ele>424.0</ele><time>2026-05-01T11:17:24Z</time></trkpt><trkpt lat="44.45597409547188" lon="8.47992429308712"><ele>427.0</ele><time>2026-05-01T11:17:25Z</time></trkpt><trkpt lat="44.45578546503384" lon="8.479909887649125"><ele>430.0</ele><time>2026-05-01T11:17:26Z</time></trkpt><trkpt lat="44.45561712976492" lon="8.479966954817236"><ele>433.0</ele><time>2026-05-01T11:17:27Z</time></trkpt><trkpt lat="44.45545772081171" lon="8.48008646101988"><ele>435.0</ele><time>2026-05-01T11:17:28Z</time></trkpt><trkpt lat="44.45529488911001" lon="8.480148546761429"><ele>437.0</ele><time>2026-05-01T11:17:29Z</time></trkpt><trkpt lat="44.455125612360476" lon="8.480070875535324"><ele>439.0</ele><time>2026-05-01T11:17:30Z</time></trkpt><trkpt lat="44.45492097487279" lon="8.479975174055854"><ele>439.0</ele><time>2026-05-01T11:17:31Z</time></trkpt><trkpt lat="44.45471235895963" lon="8.479847840428388"><ele>439.0</ele><time>2026-05-01T11:17:32Z</time></trkpt><trkpt lat="44.454494589702506" lon="8.479741168454673"><ele>439.0</ele><time>2026-05-01T11:17:33Z</time></trkpt><trkpt lat="44.45426846221583" lon="8.479690667306519"><ele>439.0</ele><time>2026-05-01T11:17:34Z</time></trkpt><trkpt lat="44.454074714107406" lon="8.479490591098568"><ele>439.0</ele><time>2026-05-01T11:17:35Z</time></trkpt><trkpt lat="44.453825454021214" lon="8.479295250980655"><ele>439.0</ele><time>2026-05-01T11:17:36Z</time></trkpt><trkpt lat="44.45361327979924" lon="8.479129637095873"><ele>441.33333333333337</ele><time>2026-05-01T11:17:37Z</time></trkpt><trkpt lat="44.45340306049382" lon="8.478923280327354"><ele>443.66666666666663</ele><time>2026-05-01T11:17:38Z</time></trkpt><trkpt lat="44.45333456466871" lon="8.478821247840392"><ele>446.0</ele><time>2026-05-01T11:17:39Z</time></trkpt><trkpt lat="44.453204142436526" lon="8.478594082548426"><ele>446.0</ele><time>2026-05-01T11:17:40Z</time></trkpt><trkpt lat="44.4530685241356" lon="8.478411488907094"><ele>446.0</ele><time>2026-05-01T11:17:41Z</time></trkpt><trkpt lat="44.45295188088314" lon="8.478260358641172"><ele>446.0</ele><time>2026-05-01T11:17:42Z</time></trkpt><trkpt lat="44.45281548005244" lon="8.478217156516697"><ele>446.75</ele><time>2026-05-01T11:17:43Z</time></trkpt><trkpt lat="44.45268173287565" lon="8.478243194701815"><ele>447.5</ele><time>2026-05-01T11:17:44Z</time></trkpt><trkpt lat="44.45255376650657" lon="8.478264616449673"><ele>448.25</ele><time>2026-05-01T11:17:45Z</time></trkpt><trkpt lat="44.4524302428683" lon="8.478321930928832"><ele>449.0</ele><time>2026-05-01T11:17:46Z</time></trkpt><trkpt lat="44.45231271225839" lon="8.47838049377371"><ele>449.0</ele><time>2026-05-01T11:17:47Z</time></trkpt><trkpt lat="44.452216750496" lon="8.478453001828726"><ele>449.0</ele><time>2026-05-01T11:17:48Z</time></trkpt><trkpt lat="44.452119192456934" lon="8.47854115104946"><ele>449.0</ele><time>2026-05-01T11:17:49Z</time></trkpt><trkpt lat="44.45202199681149" lon="8.478632963745865"><ele>449.0</ele><time>2026-05-01T11:17:50Z</time></trkpt><trkpt lat="44.4519173928106" lon="8.47873496472489"><ele>450.75</ele><time>2026-05-01T11:17:51Z</time></trkpt><trkpt lat="44.45178985453289" lon="8.478795409237158"><ele>452.5</ele><time>2026-05-01T11:17:52Z</time></trkpt><trkpt lat="44.451652078176075" lon="8.47879461968555"><ele>454.25</ele><time>2026-05-01T11:17:53Z</time></trkpt><trkpt lat="44.45150732887503" lon="8.478762739423296"><ele>456.0</ele><time>2026-05-01T11:17:54Z</time></trkpt><trkpt lat="44.45136451964423" lon="8.478663011556542"><ele>455.33333333333337</ele><time>2026-05-01T11:17:55Z</time></trkpt><trkpt lat="44.45119846559458" lon="8.478551782993982"><ele>454.6666666666667</ele><time>2026-05-01T11:17:56Z</time></trkpt><trkpt lat="44.45100260663951" lon="8.478418459361347"><ele>454.0</ele><time>2026-05-01T11:17:57Z</time></trkpt><trkpt lat="44.450797848720185" lon="8.478285534488363"><ele>454.0</ele><time>2026-05-01T11:17:58Z</time></trkpt><trkpt lat="44.45057358005532" lon="8.478158937360286"><ele>454.0</ele><time>2026-05-01T11:17:59Z</time></trkpt><trkpt lat="44.45036416896775" lon="8.478012070506036"><ele>455.6666666666667</ele><time>2026-05-01T11:18:00Z</time></trkpt><trkpt lat="44.45016014927647" lon="8.477874769737141"><ele>457.33333333333337</ele><time>2026-05-01T11:18:01Z</time></trkpt><trkpt lat="44.44996354225322" lon="8.477745749883116"><ele>459.0</ele><time>2026-05-01T11:18:02Z</time></trkpt><trkpt lat="44.44979029551776" lon="8.477625817694003"><ele>459.0</ele><time>2026-05-01T11:18:03Z</time></trkpt><trkpt lat="44.44963318950464" lon="8.477519304526977"><ele>459.0</ele><time>2026-05-01T11:18:04Z</time></trkpt><trkpt lat="44.449494914223614" lon="8.477435962598612"><ele>459.0</ele><time>2026-05-01T11:18:05Z</time></trkpt><trkpt lat="44.449378701048424" lon="8.477353278806808"><ele>458.5</ele><time>2026-05-01T11:18:06Z</time></trkpt><trkpt lat="44.449288787747925" lon="8.477262590569254"><ele>458.0</ele><time>2026-05-01T11:18:07Z</time></trkpt><trkpt lat="44.449203331290555" lon="8.477164273074596"><ele>457.5</ele><time>2026-05-01T11:18:08Z</time></trkpt><trkpt lat="44.44911089610836" lon="8.477062100896392"><ele>457.0</ele><time>2026-05-01T11:18:09Z</time></trkpt><trkpt lat="44.44900529176563" lon="8.476960007979493"><ele>457.0</ele><time>2026-05-01T11:18:10Z</time></trkpt><trkpt lat="44.44888977490426" lon="8.476863303535934"><ele>457.0</ele><time>2026-05-01T11:18:11Z</time></trkpt><trkpt lat="44.44875893188641" lon="8.476797434565905"><ele>457.0</ele><time>2026-05-01T11:18:12Z</time></trkpt><trkpt lat="44.44861594321246" lon="8.476777426220895"><ele>457.0</ele><time>2026-05-01T11:18:13Z</time></trkpt><trkpt lat="44.44847268877862" lon="8.476793385118027"><ele>456.25</ele><time>2026-05-01T11:18:14Z</time></trkpt><trkpt lat="44.448331026239565" lon="8.476844530539807"><ele>455.5</ele><time>2026-05-01T11:18:15Z</time></trkpt><trkpt lat="44.44820225746667" lon="8.476930317854636"><ele>454.75</ele><time>2026-05-01T11:18:16Z</time></trkpt><trkpt lat="44.448083763974154" lon="8.477048563147603"><ele>454.0</ele><time>2026-05-01T11:18:17Z</time></trkpt><trkpt lat="44.44797552762068" lon="8.477212371504471"><ele>457.6666666666667</ele><time>2026-05-01T11:18:18Z</time></trkpt><trkpt lat="44.44786710686144" lon="8.477403995246412"><ele>461.33333333333337</ele><time>2026-05-01T11:18:19Z</time></trkpt><trkpt lat="44.44775613972315" lon="8.477614580602333"><ele>465.0</ele><time>2026-05-01T11:18:20Z</time></trkpt><trkpt lat="44.44763251921855" lon="8.477837366250238"><ele>469.0</ele><time>2026-05-01T11:18:21Z</time></trkpt><trkpt lat="44.44749665872441" lon="8.47805659100389"><ele>473.0</ele><time>2026-05-01T11:18:22Z</time></trkpt><trkpt lat="44.44734958675965" lon="8.478281743094026"><ele>477.0</ele><time>2026-05-01T11:18:23Z</time></trkpt><trkpt lat="44.4471986312098" lon="8.478517863459862"><ele>481.0</ele><time>2026-05-01T11:18:24Z</time></trkpt><trkpt lat="44.44704980755915" lon="8.47876720782555"><ele>485.0</ele><time>2026-05-01T11:18:25Z</time></trkpt><trkpt lat="44.446907499163736" lon="8.479012056712026"><ele>485.0</ele><time>2026-05-01T11:18:26Z</time></trkpt><trkpt lat="44.446771723400175" lon="8.47925538076081"><ele>485.0</ele><time>2026-05-01T11:18:27Z</time></trkpt><trkpt lat="44.44663990214076" lon="8.479516496943011"><ele>485.0</ele><time>2026-05-01T11:18:28Z</time></trkpt><trkpt lat="44.4465154202459" lon="8.47978845242285"><ele>487.5</ele><time>2026-05-01T11:18:29Z</time></trkpt><trkpt lat="44.44639568899894" lon="8.480070680824472"><ele>490.0</ele><time>2026-05-01T11:18:30Z</time></trkpt><trkpt lat="44.44627538975995" lon="8.48035943722249"><ele>489.0</ele><time>2026-05-01T11:18:31Z</time></trkpt><trkpt lat="44.44615593160921" lon="8.480649708847627"><ele>488.0</ele><time>2026-05-01T11:18:32Z</time></trkpt><trkpt lat="44.44603434064157" lon="8.480914455481432"><ele>488.0</ele><time>2026-05-01T11:18:33Z</time></trkpt><trkpt lat="44.44590916225283" lon="8.481185647785965"><ele>488.0</ele><time>2026-05-01T11:18:34Z</time></trkpt><trkpt lat="44.445779950544974" lon="8.481448244588028"><ele>490.0</ele><time>2026-05-01T11:18:35Z</time></trkpt><trkpt lat="44.44564487820282" lon="8.481704731269383"><ele>492.0</ele><time>2026-05-01T11:18:36Z</time></trkpt><trkpt lat="44.445499408089226" lon="8.481959081044979"><ele>495.5</ele><time>2026-05-01T11:18:37Z</time></trkpt><trkpt lat="44.44532743107289" lon="8.48217779393509"><ele>499.0</ele><time>2026-05-01T11:18:38Z</time></trkpt><trkpt lat="44.44517858014404" lon="8.482410984168297"><ele>499.0</ele><time>2026-05-01T11:18:39Z</time></trkpt><trkpt lat="44.44500934175216" lon="8.48263004940198"><ele>499.0</ele><time>2026-05-01T11:18:40Z</time></trkpt><trkpt lat="44.44484065620275" lon="8.482854836982524"><ele>500.0</ele><time>2026-05-01T11:18:41Z</time></trkpt><trkpt lat="44.44466446012663" lon="8.483088959205048"><ele>501.0</ele><time>2026-05-01T11:18:42Z</time></trkpt><trkpt lat="44.44449535082194" lon="8.483317606275115"><ele>501.0</ele><time>2026-05-01T11:18:43Z</time></trkpt><trkpt lat="44.44433870569322" lon="8.483537500879438"><ele>501.0</ele><time>2026-05-01T11:18:44Z</time></trkpt><trkpt lat="44.44416681973589" lon="8.483731237853135"><ele>501.0</ele><time>2026-05-01T11:18:45Z</time></trkpt><trkpt lat="44.443988807176694" lon="8.483923393901032"><ele>502.33333333333337</ele><time>2026-05-01T11:18:46Z</time></trkpt><trkpt lat="44.443838718133456" lon="8.48408211931465"><ele>503.6666666666667</ele><time>2026-05-01T11:18:47Z</time></trkpt><trkpt lat="44.443648577518296" lon="8.484186036667015"><ele>505.0</ele><time>2026-05-01T11:18:48Z</time></trkpt><trkpt lat="44.44343985147647" lon="8.48425360184243"><ele>505.0</ele><time>2026-05-01T11:18:49Z</time></trkpt><trkpt lat="44.44322386614998" lon="8.484275819562521"><ele>505.0</ele><time>2026-05-01T11:18:50Z</time></trkpt><trkpt lat="44.44299964260425" lon="8.484297779074593"><ele>505.0</ele><time>2026-05-01T11:18:51Z</time></trkpt><trkpt lat="44.442774888315846" lon="8.484287204223762"><ele>506.0</ele><time>2026-05-01T11:18:52Z</time></trkpt><trkpt lat="44.4425509450855" lon="8.484292397575159"><ele>507.0</ele><time>2026-05-01T11:18:53Z</time></trkpt><trkpt lat="44.44232231639749" lon="8.48431125537187"><ele>507.0</ele><time>2026-05-01T11:18:54Z</time></trkpt><trkpt lat="44.44208093000303" lon="8.484335477061547"><ele>507.0</ele><time>2026-05-01T11:18:55Z</time></trkpt><trkpt lat="44.4418447294787" lon="8.484332146407333"><ele>507.0</ele><time>2026-05-01T11:18:56Z</time></trkpt><trkpt lat="44.44160791539819" lon="8.48433504212819"><ele>507.0</ele><time>2026-05-01T11:18:57Z</time></trkpt><trkpt lat="44.4413693553736" lon="8.484333720636647"><ele>506.5</ele><time>2026-05-01T11:18:58Z</time></trkpt><trkpt lat="44.441129071047406" lon="8.484255811387417"><ele>506.0</ele><time>2026-05-01T11:18:59Z</time></trkpt><trkpt lat="44.44089481203131" lon="8.484149497738912"><ele>506.0</ele><time>2026-05-01T11:19:00Z</time></trkpt><trkpt lat="44.44066578394009" lon="8.484034566394682"><ele>506.0</ele><time>2026-05-01T11:19:01Z</time></trkpt><trkpt lat="44.44044442613022" lon="8.483911839761248"><ele>507.0</ele><time>2026-05-01T11:19:02Z</time></trkpt><trkpt lat="44.440222832267125" lon="8.48378800413721"><ele>508.0</ele><time>2026-05-01T11:19:03Z</time></trkpt><trkpt lat="44.439999601578286" lon="8.483666889229118"><ele>508.0</ele><time>2026-05-01T11:19:04Z</time></trkpt><trkpt lat="44.439774358027066" lon="8.483547408320117"><ele>508.0</ele><time>2026-05-01T11:19:05Z</time></trkpt><trkpt lat="44.439549905531415" lon="8.483424101700752"><ele>509.5</ele><time>2026-05-01T11:19:06Z</time></trkpt><trkpt lat="44.439323911144044" lon="8.483299673925082"><ele>511.0</ele><time>2026-05-01T11:19:07Z</time></trkpt><trkpt lat="44.43909340992149" lon="8.483180526916707"><ele>511.0</ele><time>2026-05-01T11:19:08Z</time></trkpt><trkpt lat="44.43886450143597" lon="8.483061952722474"><ele>511.0</ele><time>2026-05-01T11:19:09Z</time></trkpt><trkpt lat="44.43863869993369" lon="8.482935264331662"><ele>512.5</ele><time>2026-05-01T11:19:10Z</time></trkpt><trkpt lat="44.43841242556888" lon="8.482806484776468"><ele>514.0</ele><time>2026-05-01T11:19:11Z</time></trkpt><trkpt lat="44.438181963240886" lon="8.482687279109744"><ele>513.0</ele><time>2026-05-01T11:19:12Z</time></trkpt><trkpt lat="44.4379515182879" lon="8.482573176611016"><ele>512.0</ele><time>2026-05-01T11:19:13Z</time></trkpt><trkpt lat="44.437722757996774" lon="8.482453011231081"><ele>512.0</ele><time>2026-05-01T11:19:14Z</time></trkpt><trkpt lat="44.43749573656855" lon="8.482330470540537"><ele>512.0</ele><time>2026-05-01T11:19:15Z</time></trkpt><trkpt lat="44.437269400003636" lon="8.482212018713865"><ele>513.0</ele><time>2026-05-01T11:19:16Z</time></trkpt><trkpt lat="44.43703938397172" lon="8.482090089984608"><ele>514.0</ele><time>2026-05-01T11:19:17Z</time></trkpt><trkpt lat="44.436808880038704" lon="8.481961932335196"><ele>514.0</ele><time>2026-05-01T11:19:18Z</time></trkpt><trkpt lat="44.436578853294854" lon="8.481824192277793"><ele>514.0</ele><time>2026-05-01T11:19:19Z</time></trkpt><trkpt lat="44.43634906333376" lon="8.48167195400116"><ele>514.0</ele><time>2026-05-01T11:19:20Z</time></trkpt><trkpt lat="44.43611703981372" lon="8.481504841007528"><ele>514.0</ele><time>2026-05-01T11:19:21Z</time></trkpt><trkpt lat="44.43588736109579" lon="8.48133384800578"><ele>516.5</ele><time>2026-05-01T11:19:22Z</time></trkpt><trkpt lat="44.43565145722967" lon="8.481156734432648"><ele>519.0</ele><time>2026-05-01T11:19:23Z</time></trkpt><trkpt lat="44.4354174697836" lon="8.480990227028409"><ele>519.0</ele><time>2026-05-01T11:19:24Z</time></trkpt><trkpt lat="44.43518705607357" lon="8.48082363501968"><ele>519.0</ele><time>2026-05-01T11:19:25Z</time></trkpt><trkpt lat="44.43496765093609" lon="8.480660778313656"><ele>519.0</ele><time>2026-05-01T11:19:26Z</time></trkpt><trkpt lat="44.434746779315624" lon="8.480500711994182"><ele>519.0</ele><time>2026-05-01T11:19:27Z</time></trkpt><trkpt lat="44.43452686346502" lon="8.480339802700215"><ele>518.0</ele><time>2026-05-01T11:19:28Z</time></trkpt><trkpt lat="44.43431010483813" lon="8.480180847960623"><ele>517.0</ele><time>2026-05-01T11:19:29Z</time></trkpt><trkpt lat="44.434092557159204" lon="8.480026656108196"><ele>517.0</ele><time>2026-05-01T11:19:30Z</time></trkpt><trkpt lat="44.43387925028254" lon="8.479878300419694"><ele>517.0</ele><time>2026-05-01T11:19:31Z</time></trkpt><trkpt lat="44.433667675907294" lon="8.47973725726337"><ele>518.5</ele><time>2026-05-01T11:19:32Z</time></trkpt><trkpt lat="44.43345064100794" lon="8.479611153317713"><ele>520.0</ele><time>2026-05-01T11:19:33Z</time></trkpt><trkpt lat="44.43322620088408" lon="8.479516588280516"><ele>520.0</ele><time>2026-05-01T11:19:34Z</time></trkpt><trkpt lat="44.43301122409256" lon="8.479457936086458"><ele>520.0</ele><time>2026-05-01T11:19:35Z</time></trkpt><trkpt lat="44.432812505633905" lon="8.479416666725738"><ele>520.0</ele><time>2026-05-01T11:19:36Z</time></trkpt><trkpt lat="44.4326292650937" lon="8.479378267291729"><ele>521.0</ele><time>2026-05-01T11:19:37Z</time></trkpt><trkpt lat="44.43245381281147" lon="8.479339708922925"><ele>522.0</ele><time>2026-05-01T11:19:38Z</time></trkpt><trkpt lat="44.4322969592569" lon="8.479304627277251"><ele>523.0</ele><time>2026-05-01T11:19:39Z</time></trkpt><trkpt lat="44.43215333506821" lon="8.479256397897428"><ele>522.0</ele><time>2026-05-01T11:19:40Z</time></trkpt><trkpt lat="44.43202373735065" lon="8.479176250898172"><ele>521.0</ele><time>2026-05-01T11:19:41Z</time></trkpt><trkpt lat="44.43191497378929" lon="8.479081251591147"><ele>520.0</ele><time>2026-05-01T11:19:42Z</time></trkpt><trkpt lat="44.43181536848116" lon="8.478984245300104"><ele>519.0</ele><time>2026-05-01T11:19:43Z</time></trkpt><trkpt lat="44.43172475555465" lon="8.47888668421293"><ele>519.0</ele><time>2026-05-01T11:19:44Z</time></trkpt><trkpt lat="44.431636391268725" lon="8.478775416701334"><ele>519.0</ele><time>2026-05-01T11:19:45Z</time></trkpt><trkpt lat="44.43155254537503" lon="8.478629075180395"><ele>519.0</ele><time>2026-05-01T11:19:46Z</time></trkpt><trkpt lat="44.4314868787642" lon="8.478441693401013"><ele>519.0</ele><time>2026-05-01T11:19:47Z</time></trkpt><trkpt lat="44.431435167134396" lon="8.478224576249072"><ele>519.3333333333334</ele><time>2026-05-01T11:19:48Z</time></trkpt><trkpt lat="44.43140125920797" lon="8.477990681826556"><ele>519.6666666666667</ele><time>2026-05-01T11:19:49Z</time></trkpt><trkpt lat="44.431386578626146" lon="8.477750177755118"><ele>520.0</ele><time>2026-05-01T11:19:50Z</time></trkpt><trkpt lat="44.43139043919851" lon="8.477513590771368"><ele>520.0</ele><time>2026-05-01T11:19:51Z</time></trkpt><trkpt lat="44.43142751143588" lon="8.477282927348618"><ele>520.0</ele><time>2026-05-01T11:19:52Z</time></trkpt><trkpt lat="44.43150122238499" lon="8.477102366453535"><ele>520.0</ele><time>2026-05-01T11:19:53Z</time></trkpt><trkpt lat="44.43159836813261" lon="8.476941201575777"><ele>518.25</ele><time>2026-05-01T11:19:54Z</time></trkpt><trkpt lat="44.431678254697445" lon="8.47677529807325"><ele>516.5</ele><time>2026-05-01T11:19:55Z</time></trkpt><trkpt lat="44.43169012946155" lon="8.476583497033273"><ele>514.75</ele><time>2026-05-01T11:19:56Z</time></trkpt><trkpt lat="44.431657477730575" lon="8.476392484186876"><ele>513.0</ele><time>2026-05-01T11:19:57Z</time></trkpt><trkpt lat="44.431583547693776" lon="8.476206233160752"><ele>512.6666666666666</ele><time>2026-05-01T11:19:58Z</time></trkpt><trkpt lat="44.431477028861366" lon="8.476036664133908"><ele>512.3333333333333</ele><time>2026-05-01T11:19:59Z</time></trkpt><trkpt lat="44.43137387454834" lon="8.475869474357738"><ele>512.0</ele><time>2026-05-01T11:20:00Z</time></trkpt><trkpt lat="44.43129838637095" lon="8.475669906740277"><ele>510.75</ele><time>2026-05-01T11:20:01Z</time></trkpt><trkpt lat="44.43123891972282" lon="8.475484823264303"><ele>509.5</ele><time>2026-05-01T11:20:02Z</time></trkpt><trkpt lat="44.43118599609043" lon="8.47531084793224"><ele>508.25</ele><time>2026-05-01T11:20:03Z</time></trkpt><trkpt lat="44.43112569191228" lon="8.475161827485584"><ele>507.0</ele><time>2026-05-01T11:20:04Z</time></trkpt><trkpt lat="44.43103951234118" lon="8.475032047469368"><ele>507.0</ele><time>2026-05-01T11:20:05Z</time></trkpt><trkpt lat="44.43093277527012" lon="8.474908615777558"><ele>507.0</ele><time>2026-05-01T11:20:06Z</time></trkpt><trkpt lat="44.43082170545641" lon="8.47476467319418"><ele>507.0</ele><time>2026-05-01T11:20:07Z</time></trkpt><trkpt lat="44.43070877232828" lon="8.474612879190117"><ele>507.0</ele><time>2026-05-01T11:20:08Z</time></trkpt><trkpt lat="44.43059608156923" lon="8.474457100456027"><ele>507.5</ele><time>2026-05-01T11:20:09Z</time></trkpt><trkpt lat="44.43049851416487" lon="8.474309343247072"><ele>508.0</ele><time>2026-05-01T11:20:10Z</time></trkpt><trkpt lat="44.43039136244241" lon="8.474171877182535"><ele>508.5</ele><time>2026-05-01T11:20:11Z</time></trkpt><trkpt lat="44.430278424287465" lon="8.474056482528471"><ele>509.0</ele><time>2026-05-01T11:20:12Z</time></trkpt><trkpt lat="44.43016278526352" lon="8.473978749786419"><ele>506.75</ele><time>2026-05-01T11:20:13Z</time></trkpt><trkpt lat="44.43004816736199" lon="8.473922535575442"><ele>504.5</ele><time>2026-05-01T11:20:14Z</time></trkpt><trkpt lat="44.429938086426596" lon="8.473867042903663"><ele>502.25</ele><time>2026-05-01T11:20:15Z</time></trkpt><trkpt lat="44.42982258070395" lon="8.473822433076812"><ele>500.0</ele><time>2026-05-01T11:20:16Z</time></trkpt><trkpt lat="44.42971854415935" lon="8.473775076398317"><ele>500.4</ele><time>2026-05-01T11:20:17Z</time></trkpt><trkpt lat="44.429623958563575" lon="8.4737307544857"><ele>500.8</ele><time>2026-05-01T11:20:18Z</time></trkpt><trkpt lat="44.42953366602186" lon="8.473690606661332"><ele>501.20000000000005</ele><time>2026-05-01T11:20:19Z</time></trkpt><trkpt lat="44.42944031083633" lon="8.473648204750644"><ele>501.6</ele><time>2026-05-01T11:20:20Z</time></trkpt><trkpt lat="44.42935151097823" lon="8.473605041398173"><ele>502.0</ele><time>2026-05-01T11:20:21Z</time></trkpt><trkpt lat="44.429274419839565" lon="8.47356802265511"><ele>502.0</ele><time>2026-05-01T11:20:22Z</time></trkpt><trkpt lat="44.429217712244196" lon="8.473517155389422"><ele>502.00000000000006</ele><time>2026-05-01T11:20:23Z</time></trkpt><trkpt lat="44.429119709035646" lon="8.47347661830232"><ele>502.00000000000006</ele><time>2026-05-01T11:20:25Z</time></trkpt><trkpt lat="44.4291029530677" lon="8.473265902472633"><ele>502.0</ele><time>2026-05-01T11:20:26Z</time></trkpt><trkpt lat="44.429076326365056" lon="8.473155224408114"><ele>502.0</ele><time>2026-05-01T11:20:27Z</time></trkpt><trkpt lat="44.4290632259219" lon="8.473012155760244"><ele>501.25</ele><time>2026-05-01T11:20:28Z</time></trkpt><trkpt lat="44.42905573970662" lon="8.472836166000928"><ele>500.5</ele><time>2026-05-01T11:20:29Z</time></trkpt><trkpt lat="44.42903941600975" lon="8.472670493555576"><ele>499.75</ele><time>2026-05-01T11:20:30Z</time></trkpt><trkpt lat="44.429016758016466" lon="8.472515598461325"><ele>499.0</ele><time>2026-05-01T11:20:31Z</time></trkpt><trkpt lat="44.429006080240185" lon="8.47232579489194"><ele>499.0</ele><time>2026-05-01T11:20:32Z</time></trkpt><trkpt lat="44.42899226322767" lon="8.472143365342566"><ele>499.0</ele><time>2026-05-01T11:20:33Z</time></trkpt><trkpt lat="44.42897631940713" lon="8.471953730999115"><ele>499.0</ele><time>2026-05-01T11:20:34Z</time></trkpt><trkpt lat="44.42895720022614" lon="8.471767289683877"><ele>499.0</ele><time>2026-05-01T11:20:35Z</time></trkpt><trkpt lat="44.428939093880835" lon="8.47158422434362"><ele>498.25</ele><time>2026-05-01T11:20:36Z</time></trkpt><trkpt lat="44.428927538714234" lon="8.471394020663652"><ele>497.5</ele><time>2026-05-01T11:20:37Z</time></trkpt><trkpt lat="44.42893174240208" lon="8.471191982576933"><ele>496.75</ele><time>2026-05-01T11:20:38Z</time></trkpt><trkpt lat="44.42894317531166" lon="8.470990757674338"><ele>496.0</ele><time>2026-05-01T11:20:39Z</time></trkpt><trkpt lat="44.42895035253846" lon="8.470792567509871"><ele>496.0</ele><time>2026-05-01T11:20:40Z</time></trkpt><trkpt lat="44.42894520933161" lon="8.470596141908675"><ele>496.0</ele><time>2026-05-01T11:20:41Z</time></trkpt><trkpt lat="44.42894671906241" lon="8.470399633198527"><ele>496.0</ele><time>2026-05-01T11:20:42Z</time></trkpt><trkpt lat="44.428958126587204" lon="8.470201761615098"><ele>496.0</ele><time>2026-05-01T11:20:43Z</time></trkpt><trkpt lat="44.428975001569334" lon="8.470006196079884"><ele>495.6666666666667</ele><time>2026-05-01T11:20:44Z</time></trkpt><trkpt lat="44.42901016316841" lon="8.469786528552683"><ele>495.33333333333337</ele><time>2026-05-01T11:20:45Z</time></trkpt><trkpt lat="44.429055814755934" lon="8.469580406940608"><ele>495.0</ele><time>2026-05-01T11:20:46Z</time></trkpt><trkpt lat="44.42913924369935" lon="8.469385344569979"><ele>495.0</ele><time>2026-05-01T11:20:47Z</time></trkpt><trkpt lat="44.42919568468064" lon="8.469195496129673"><ele>495.0</ele><time>2026-05-01T11:20:48Z</time></trkpt><trkpt lat="44.429260898357334" lon="8.46903342160609"><ele>495.0</ele><time>2026-05-01T11:20:49Z</time></trkpt><trkpt lat="44.42931716573082" lon="8.468878476729369"><ele>495.0</ele><time>2026-05-01T11:20:50Z</time></trkpt><trkpt lat="44.42936732251848" lon="8.468734136175062"><ele>496.0</ele><time>2026-05-01T11:20:51Z</time></trkpt><trkpt lat="44.429422386298675" lon="8.468587104717006"><ele>497.0</ele><time>2026-05-01T11:20:52Z</time></trkpt><trkpt lat="44.429482526274754" lon="8.468435417438556"><ele>498.0</ele><time>2026-05-01T11:20:53Z</time></trkpt><trkpt lat="44.429544051634046" lon="8.46827577505329"><ele>499.0</ele><time>2026-05-01T11:20:54Z</time></trkpt><trkpt lat="44.42959609987947" lon="8.468112967129844"><ele>498.0</ele><time>2026-05-01T11:20:55Z</time></trkpt><trkpt lat="44.42964473357235" lon="8.467952161928137"><ele>497.0</ele><time>2026-05-01T11:20:56Z</time></trkpt><trkpt lat="44.42969346768832" lon="8.46779694187807"><ele>496.0</ele><time>2026-05-01T11:20:57Z</time></trkpt><trkpt lat="44.42973608726178" lon="8.467643115968583"><ele>495.0</ele><time>2026-05-01T11:20:58Z</time></trkpt><trkpt lat="44.429771207097595" lon="8.467481953719341"><ele>494.25</ele><time>2026-05-01T11:20:59Z</time></trkpt><trkpt lat="44.42979830499775" lon="8.467314078202907"><ele>493.5</ele><time>2026-05-01T11:21:00Z</time></trkpt><trkpt lat="44.42981650137349" lon="8.467136366660934"><ele>492.75</ele><time>2026-05-01T11:21:01Z</time></trkpt><trkpt lat="44.42982938996917" lon="8.466951474913886"><ele>492.0</ele><time>2026-05-01T11:21:02Z</time></trkpt><trkpt lat="44.42982664489965" lon="8.466765017226207"><ele>492.0</ele><time>2026-05-01T11:21:03Z</time></trkpt><trkpt lat="44.42980760747421" lon="8.466572665119454"><ele>492.0</ele><time>2026-05-01T11:21:04Z</time></trkpt><trkpt lat="44.42978264352599" lon="8.466380767311778"><ele>492.0</ele><time>2026-05-01T11:21:05Z</time></trkpt><trkpt lat="44.42975664673027" lon="8.466180883748311"><ele>492.0</ele><time>2026-05-01T11:21:06Z</time></trkpt><trkpt lat="44.42973444155018" lon="8.465967183898977"><ele>492.66666666666663</ele><time>2026-05-01T11:21:07Z</time></trkpt><trkpt lat="44.4297140626344" lon="8.46574275713387"><ele>493.3333333333333</ele><time>2026-05-01T11:21:08Z</time></trkpt><trkpt lat="44.429693746001064" lon="8.465515478986063"><ele>494.0</ele><time>2026-05-01T11:21:09Z</time></trkpt><trkpt lat="44.429669375913704" lon="8.46527966543459"><ele>493.3333333333333</ele><time>2026-05-01T11:21:10Z</time></trkpt><trkpt lat="44.42963589031818" lon="8.465044229447466"><ele>492.66666666666663</ele><time>2026-05-01T11:21:11Z</time></trkpt><trkpt lat="44.42960079738009" lon="8.464805138841276"><ele>492.0</ele><time>2026-05-01T11:21:12Z</time></trkpt><trkpt lat="44.42956455961363" lon="8.464590157514673"><ele>491.66666666666663</ele><time>2026-05-01T11:21:13Z</time></trkpt><trkpt lat="44.429534156799875" lon="8.4643727937971"><ele>491.3333333333333</ele><time>2026-05-01T11:21:14Z</time></trkpt><trkpt lat="44.42950385176185" lon="8.464145715943692"><ele>491.0</ele><time>2026-05-01T11:21:15Z</time></trkpt><trkpt lat="44.42946754936094" lon="8.463904991401762"><ele>491.0</ele><time>2026-05-01T11:21:16Z</time></trkpt><trkpt lat="44.429427557264916" lon="8.46366244902962"><ele>491.0</ele><time>2026-05-01T11:21:17Z</time></trkpt><trkpt lat="44.42938723240649" lon="8.46341565194789"><ele>491.0</ele><time>2026-05-01T11:21:18Z</time></trkpt><trkpt lat="44.42935533295958" lon="8.463159159687875"><ele>492.0</ele><time>2026-05-01T11:21:19Z</time></trkpt><trkpt lat="44.42933902939165" lon="8.462890453911436"><ele>493.0</ele><time>2026-05-01T11:21:20Z</time></trkpt><trkpt lat="44.42934388172769" lon="8.462596936162953"><ele>494.0</ele><time>2026-05-01T11:21:21Z</time></trkpt><trkpt lat="44.42938457719084" lon="8.462296003332993"><ele>491.5</ele><time>2026-05-01T11:21:22Z</time></trkpt><trkpt lat="44.42940433155147" lon="8.46197516936846"><ele>489.0</ele><time>2026-05-01T11:21:23Z</time></trkpt><trkpt lat="44.429448673645716" lon="8.461643399205348"><ele>489.0</ele><time>2026-05-01T11:21:24Z</time></trkpt><trkpt lat="44.429496981299195" lon="8.4613292533716"><ele>489.0</ele><time>2026-05-01T11:21:25Z</time></trkpt><trkpt lat="44.42955300205148" lon="8.461031084590347"><ele>489.66666666666663</ele><time>2026-05-01T11:21:26Z</time></trkpt><trkpt lat="44.429630690105284" lon="8.460731625964058"><ele>490.3333333333333</ele><time>2026-05-01T11:21:27Z</time></trkpt><trkpt lat="44.42971185801953" lon="8.46045472437753"><ele>491.0</ele><time>2026-05-01T11:21:28Z</time></trkpt><trkpt lat="44.42977301362735" lon="8.460250866249565"><ele>489.0</ele><time>2026-05-01T11:21:29Z</time></trkpt><trkpt lat="44.429813902639765" lon="8.460113312808152"><ele>487.0</ele><time>2026-05-01T11:21:30Z</time></trkpt><trkpt lat="44.42985386484416" lon="8.45998139509577"><ele>485.0</ele><time>2026-05-01T11:21:31Z</time></trkpt><trkpt lat="44.429891238495664" lon="8.459843951358787"><ele>483.0</ele><time>2026-05-01T11:21:32Z</time></trkpt><trkpt lat="44.42992730959109" lon="8.459700677876288"><ele>481.0</ele><time>2026-05-01T11:21:33Z</time></trkpt><trkpt lat="44.429963045628405" lon="8.45954671504588"><ele>479.6</ele><time>2026-05-01T11:21:34Z</time></trkpt><trkpt lat="44.42999929095654" lon="8.459394617651007"><ele>478.20000000000005</ele><time>2026-05-01T11:21:35Z</time></trkpt><trkpt lat="44.4300388322359" lon="8.459244254498543"><ele>476.79999999999995</ele><time>2026-05-01T11:21:36Z</time></trkpt><trkpt lat="44.43008496262756" lon="8.45910661400637"><ele>475.4</ele><time>2026-05-01T11:21:37Z</time></trkpt><trkpt lat="44.430147344141815" lon="8.458981722822722"><ele>474.0</ele><time>2026-05-01T11:21:38Z</time></trkpt><trkpt lat="44.43023899013462" lon="8.458887458209523"><ele>473.79999999999995</ele><time>2026-05-01T11:21:39Z</time></trkpt><trkpt lat="44.43031842218816" lon="8.458767158433135"><ele>473.59999999999997</ele><time>2026-05-01T11:21:40Z</time></trkpt><trkpt lat="44.43040914249858" lon="8.458673415412997"><ele>473.4</ele><time>2026-05-01T11:21:41Z</time></trkpt><trkpt lat="44.43050909065322" lon="8.458635370298438"><ele>473.2</ele><time>2026-05-01T11:21:42Z</time></trkpt><trkpt lat="44.430619284576515" lon="8.458596441127824"><ele>473.0</ele><time>2026-05-01T11:21:43Z</time></trkpt><trkpt lat="44.43074938403379" lon="8.458551009390545"><ele>473.0</ele><time>2026-05-01T11:21:44Z</time></trkpt><trkpt lat="44.43089333350888" lon="8.458493145203267"><ele>473.0</ele><time>2026-05-01T11:21:45Z</time></trkpt><trkpt lat="44.43104437531254" lon="8.458389047999015"><ele>473.0</ele><time>2026-05-01T11:21:46Z</time></trkpt><trkpt lat="44.43119304791345" lon="8.45826810674828"><ele>471.66666666666663</ele><time>2026-05-01T11:21:47Z</time></trkpt><trkpt lat="44.43134512922084" lon="8.458140199211488"><ele>470.33333333333337</ele><time>2026-05-01T11:21:48Z</time></trkpt><trkpt lat="44.431500570950796" lon="8.457995430923981"><ele>469.0</ele><time>2026-05-01T11:21:49Z</time></trkpt><trkpt lat="44.4316382019358" lon="8.457831311580051"><ele>469.0</ele><time>2026-05-01T11:21:50Z</time></trkpt><trkpt lat="44.43175548987879" lon="8.457655975166574"><ele>469.0</ele><time>2026-05-01T11:21:51Z</time></trkpt><trkpt lat="44.4318472543777" lon="8.457448820576836"><ele>469.0</ele><time>2026-05-01T11:21:52Z</time></trkpt><trkpt lat="44.431931292669354" lon="8.457241875943506"><ele>469.0</ele><time>2026-05-01T11:21:53Z</time></trkpt><trkpt lat="44.432010303449175" lon="8.45703188101172"><ele>469.0</ele><time>2026-05-01T11:21:54Z</time></trkpt><trkpt lat="44.43208534251212" lon="8.456816712510252"><ele>469.0</ele><time>2026-05-01T11:21:55Z</time></trkpt><trkpt lat="44.432157673352876" lon="8.456603984253164"><ele>468.33333333333337</ele><time>2026-05-01T11:21:56Z</time></trkpt><trkpt lat="44.432227017209584" lon="8.456390364567211"><ele>467.66666666666663</ele><time>2026-05-01T11:21:57Z</time></trkpt><trkpt lat="44.432297848321014" lon="8.456179716489945"><ele>467.0</ele><time>2026-05-01T11:21:58Z</time></trkpt><trkpt lat="44.43237342311094" lon="8.455972267977588"><ele>467.0</ele><time>2026-05-01T11:21:59Z</time></trkpt><trkpt lat="44.432456421442666" lon="8.45577927641257"><ele>467.0</ele><time>2026-05-01T11:22:00Z</time></trkpt><trkpt lat="44.43256518185561" lon="8.455608460380242"><ele>467.0</ele><time>2026-05-01T11:22:01Z</time></trkpt><trkpt lat="44.43269190817017" lon="8.455452854634231"><ele>467.0</ele><time>2026-05-01T11:22:02Z</time></trkpt><trkpt lat="44.4328368028142" lon="8.455305391560001"><ele>467.0</ele><time>2026-05-01T11:22:03Z</time></trkpt><trkpt lat="44.43298535876806" lon="8.455147586375992"><ele>467.0</ele><time>2026-05-01T11:22:04Z</time></trkpt><trkpt lat="44.433143568749564" lon="8.455010792706641"><ele>467.0</ele><time>2026-05-01T11:22:05Z</time></trkpt><trkpt lat="44.433302071903476" lon="8.454866669511825"><ele>467.0</ele><time>2026-05-01T11:22:06Z</time></trkpt><trkpt lat="44.43346471718957" lon="8.454722970954256"><ele>467.0</ele><time>2026-05-01T11:22:07Z</time></trkpt><trkpt lat="44.433626418731365" lon="8.454578052927289"><ele>467.0</ele><time>2026-05-01T11:22:08Z</time></trkpt><trkpt lat="44.43378774841922" lon="8.454435073301276"><ele>467.0</ele><time>2026-05-01T11:22:09Z</time></trkpt><trkpt lat="44.433943775914905" lon="8.454288407093383"><ele>467.0</ele><time>2026-05-01T11:22:10Z</time></trkpt><trkpt lat="44.43409188276543" lon="8.45413140648"><ele>466.0</ele><time>2026-05-01T11:22:11Z</time></trkpt><trkpt lat="44.43423070184427" lon="8.453966434352694"><ele>465.0</ele><time>2026-05-01T11:22:12Z</time></trkpt><trkpt lat="44.434364194116384" lon="8.453794362773822"><ele>464.0</ele><time>2026-05-01T11:22:13Z</time></trkpt><trkpt lat="44.43448964659126" lon="8.453616033017207"><ele>463.66666666666663</ele><time>2026-05-01T11:22:14Z</time></trkpt><trkpt lat="44.43462707571722" lon="8.453455028002859"><ele>463.33333333333337</ele><time>2026-05-01T11:22:15Z</time></trkpt><trkpt lat="44.434746868116896" lon="8.453262491696067"><ele>463.0</ele><time>2026-05-01T11:22:16Z</time></trkpt><trkpt lat="44.43488562906274" lon="8.453076215046892"><ele>465.0</ele><time>2026-05-01T11:22:17Z</time></trkpt><trkpt lat="44.435025801821546" lon="8.452884423042603"><ele>467.0</ele><time>2026-05-01T11:22:18Z</time></trkpt><trkpt lat="44.43516387153892" lon="8.45270393747752"><ele>469.0</ele><time>2026-05-01T11:22:19Z</time></trkpt><trkpt lat="44.435307980898436" lon="8.452532397145408"><ele>469.0</ele><time>2026-05-01T11:22:20Z</time></trkpt><trkpt lat="44.43544673935949" lon="8.45236479058457"><ele>469.0</ele><time>2026-05-01T11:22:21Z</time></trkpt><trkpt lat="44.43557064564064" lon="8.452180720874603"><ele>469.0</ele><time>2026-05-01T11:22:22Z</time></trkpt><trkpt lat="44.43568217968921" lon="8.451977907119012"><ele>472.33333333333337</ele><time>2026-05-01T11:22:23Z</time></trkpt><trkpt lat="44.43577817013418" lon="8.451763727184252"><ele>475.66666666666663</ele><time>2026-05-01T11:22:24Z</time></trkpt><trkpt lat="44.435858190345535" lon="8.451538716647441"><ele>479.0</ele><time>2026-05-01T11:22:25Z</time></trkpt><trkpt lat="44.43591950280745" lon="8.451304596233443"><ele>480.0</ele><time>2026-05-01T11:22:26Z</time></trkpt><trkpt lat="44.435965149272185" lon="8.451064935503078"><ele>481.0</ele><time>2026-05-01T11:22:27Z</time></trkpt><trkpt lat="44.43599846253112" lon="8.450824134237147"><ele>482.0</ele><time>2026-05-01T11:22:28Z</time></trkpt><trkpt lat="44.43601404862481" lon="8.450576111727587"><ele>481.0</ele><time>2026-05-01T11:22:29Z</time></trkpt><trkpt lat="44.4360163510256" lon="8.450329341063807"><ele>480.0</ele><time>2026-05-01T11:22:30Z</time></trkpt><trkpt lat="44.436023576767745" lon="8.450098657848157"><ele>479.0</ele><time>2026-05-01T11:22:31Z</time></trkpt><trkpt lat="44.436039520595095" lon="8.449875624187875"><ele>479.0</ele><time>2026-05-01T11:22:32Z</time></trkpt><trkpt lat="44.43606930288523" lon="8.44966784956484"><ele>479.0</ele><time>2026-05-01T11:22:33Z</time></trkpt><trkpt lat="44.436115276486134" lon="8.449470984786556"><ele>479.0</ele><time>2026-05-01T11:22:34Z</time></trkpt><trkpt lat="44.43619140327549" lon="8.4492904184847"><ele>479.0</ele><time>2026-05-01T11:22:35Z</time></trkpt><trkpt lat="44.43626768529406" lon="8.449109860274705"><ele>477.25</ele><time>2026-05-01T11:22:36Z</time></trkpt><trkpt lat="44.43633139160938" lon="8.448910610394071"><ele>475.5</ele><time>2026-05-01T11:22:37Z</time></trkpt><trkpt lat="44.436409404673846" lon="8.448734734138629"><ele>473.75</ele><time>2026-05-01T11:22:38Z</time></trkpt><trkpt lat="44.43648276000472" lon="8.448563793917593"><ele>472.0</ele><time>2026-05-01T11:22:39Z</time></trkpt><trkpt lat="44.43656018141925" lon="8.4483917876235"><ele>469.0</ele><time>2026-05-01T11:22:40Z</time></trkpt><trkpt lat="44.43664064323191" lon="8.448205768818465"><ele>466.0</ele><time>2026-05-01T11:22:41Z</time></trkpt><trkpt lat="44.436726585798176" lon="8.44800292912216"><ele>463.0</ele><time>2026-05-01T11:22:42Z</time></trkpt><trkpt lat="44.43681912556213" lon="8.447788328164405"><ele>461.0</ele><time>2026-05-01T11:22:43Z</time></trkpt><trkpt lat="44.436916001289674" lon="8.447565152984055"><ele>459.0</ele><time>2026-05-01T11:22:44Z</time></trkpt><trkpt lat="44.437015314143316" lon="8.447334970177279"><ele>457.0</ele><time>2026-05-01T11:22:45Z</time></trkpt><trkpt lat="44.43711513585866" lon="8.447101109709264"><ele>454.6666666666667</ele><time>2026-05-01T11:22:46Z</time></trkpt><trkpt lat="44.437213294125755" lon="8.446861042189509"><ele>452.33333333333337</ele><time>2026-05-01T11:22:47Z</time></trkpt><trkpt lat="44.437309406216826" lon="8.446619209946087"><ele>450.0</ele><time>2026-05-01T11:22:48Z</time></trkpt><trkpt lat="44.437404376512184" lon="8.446373355073055"><ele>447.66666666666663</ele><time>2026-05-01T11:22:49Z</time></trkpt><trkpt lat="44.43749222694226" lon="8.446129678194643"><ele>445.3333333333333</ele><time>2026-05-01T11:22:50Z</time></trkpt><trkpt lat="44.43757636392424" lon="8.445877833153672"><ele>443.0</ele><time>2026-05-01T11:22:51Z</time></trkpt><trkpt lat="44.437660829966774" lon="8.445621818486787"><ele>443.0</ele><time>2026-05-01T11:22:52Z</time></trkpt><trkpt lat="44.43774890696097" lon="8.445371504440457"><ele>443.0</ele><time>2026-05-01T11:22:53Z</time></trkpt><trkpt lat="44.4378492722644" lon="8.445135981803253"><ele>443.0</ele><time>2026-05-01T11:22:54Z</time></trkpt><trkpt lat="44.437980553508616" lon="8.44492572691377"><ele>443.0</ele><time>2026-05-01T11:22:55Z</time></trkpt><trkpt lat="44.43810048444696" lon="8.444683124817463"><ele>443.0</ele><time>2026-05-01T11:22:56Z</time></trkpt><trkpt lat="44.438239068298174" lon="8.444449786192685"><ele>443.0</ele><time>2026-05-01T11:22:57Z</time></trkpt><trkpt lat="44.43836573918111" lon="8.444211838465982"><ele>442.66666666666663</ele><time>2026-05-01T11:22:58Z</time></trkpt><trkpt lat="44.43846690213775" lon="8.443960872171285"><ele>442.33333333333337</ele><time>2026-05-01T11:22:59Z</time></trkpt><trkpt lat="44.438549816078094" lon="8.443696627663988"><ele>442.0</ele><time>2026-05-01T11:23:00Z</time></trkpt><trkpt lat="44.43861239006754" lon="8.443425872036782"><ele>440.6666666666667</ele><time>2026-05-01T11:23:01Z</time></trkpt><trkpt lat="44.43865733813114" lon="8.443141695021685"><ele>439.33333333333337</ele><time>2026-05-01T11:23:02Z</time></trkpt><trkpt lat="44.43867737427664" lon="8.442858186869541"><ele>438.0</ele><time>2026-05-01T11:23:03Z</time></trkpt><trkpt lat="44.43868378699441" lon="8.442576268620654"><ele>437.33333333333337</ele><time>2026-05-01T11:23:04Z</time></trkpt><trkpt lat="44.438687237361705" lon="8.442297430893747"><ele>436.6666666666667</ele><time>2026-05-01T11:23:05Z</time></trkpt><trkpt lat="44.43869270725999" lon="8.44203218696304"><ele>436.0</ele><time>2026-05-01T11:23:06Z</time></trkpt><trkpt lat="44.43871717896653" lon="8.441794429222666"><ele>436.0</ele><time>2026-05-01T11:23:07Z</time></trkpt><trkpt lat="44.43877411505606" lon="8.441564091771161"><ele>436.0</ele><time>2026-05-01T11:23:08Z</time></trkpt><trkpt lat="44.4388565574401" lon="8.441341228790026"><ele>436.0</ele><time>2026-05-01T11:23:09Z</time></trkpt><trkpt lat="44.438957276142354" lon="8.441135416874593"><ele>436.0</ele><time>2026-05-01T11:23:10Z</time></trkpt><trkpt lat="44.43907926732711" lon="8.44094242975228"><ele>436.0</ele><time>2026-05-01T11:23:11Z</time></trkpt><trkpt lat="44.43921794710422" lon="8.440771150376278"><ele>436.0</ele><time>2026-05-01T11:23:12Z</time></trkpt><trkpt lat="44.439360196638916" lon="8.440597761802422"><ele>435.33333333333337</ele><time>2026-05-01T11:23:13Z</time></trkpt><trkpt lat="44.439501183548025" lon="8.440418060559407"><ele>434.66666666666663</ele><time>2026-05-01T11:23:14Z</time></trkpt><trkpt lat="44.43964038194559" lon="8.440233464711595"><ele>434.0</ele><time>2026-05-01T11:23:15Z</time></trkpt><trkpt lat="44.439781815030805" lon="8.44005372587644"><ele>434.0</ele><time>2026-05-01T11:23:16Z</time></trkpt><trkpt lat="44.4399252029068" lon="8.439878525022701"><ele>434.0</ele><time>2026-05-01T11:23:17Z</time></trkpt><trkpt lat="44.440066865101855" lon="8.439703310153897"><ele>434.0</ele><time>2026-05-01T11:23:18Z</time></trkpt><trkpt lat="44.440194306801125" lon="8.439540081261198"><ele>433.3333333333333</ele><time>2026-05-01T11:23:19Z</time></trkpt><trkpt lat="44.44031347458984" lon="8.439388441679183"><ele>432.66666666666663</ele><time>2026-05-01T11:23:20Z</time></trkpt><trkpt lat="44.44043279694304" lon="8.439238015064552"><ele>432.0</ele><time>2026-05-01T11:23:21Z</time></trkpt><trkpt lat="44.440542782392924" lon="8.439098534893407"><ele>432.0</ele><time>2026-05-01T11:23:22Z</time></trkpt><trkpt lat="44.44064436694836" lon="8.438967697569135"><ele>432.0</ele><time>2026-05-01T11:23:23Z</time></trkpt><trkpt lat="44.44075012676743" lon="8.438830024836086"><ele>432.0</ele><time>2026-05-01T11:23:24Z</time></trkpt><trkpt lat="44.44085943745196" lon="8.438689409234563"><ele>432.0</ele><time>2026-05-01T11:23:25Z</time></trkpt><trkpt lat="44.44096918503444" lon="8.438544582930252"><ele>432.0</ele><time>2026-05-01T11:23:26Z</time></trkpt><trkpt lat="44.44108124528193" lon="8.438401660899808"><ele>432.0</ele><time>2026-05-01T11:23:27Z</time></trkpt><trkpt lat="44.4412015226804" lon="8.43826606565469"><ele>432.0</ele><time>2026-05-01T11:23:28Z</time></trkpt><trkpt lat="44.44132106427264" lon="8.438141282131193"><ele>431.75</ele><time>2026-05-01T11:23:29Z</time></trkpt><trkpt lat="44.44143219785026" lon="8.438037404278038"><ele>431.5</ele><time>2026-05-01T11:23:30Z</time></trkpt><trkpt lat="44.441546750163106" lon="8.437930501562136"><ele>431.25</ele><time>2026-05-01T11:23:31Z</time></trkpt><trkpt lat="44.44167612084625" lon="8.437837812500801"><ele>431.0</ele><time>2026-05-01T11:23:32Z</time></trkpt><trkpt lat="44.44177874444109" lon="8.43772678399638"><ele>431.0</ele><time>2026-05-01T11:23:33Z</time></trkpt><trkpt lat="44.4418949679999" lon="8.437623630967302"><ele>431.0</ele><time>2026-05-01T11:23:34Z</time></trkpt><trkpt lat="44.44199113434225" lon="8.43754965485587"><ele>431.0</ele><time>2026-05-01T11:23:35Z</time></trkpt><trkpt lat="44.44209656719118" lon="8.437445290990146"><ele>431.0</ele><time>2026-05-01T11:23:36Z</time></trkpt><trkpt lat="44.44218936565613" lon="8.437366459745917"><ele>431.0</ele><time>2026-05-01T11:23:37Z</time></trkpt><trkpt lat="44.442286686824836" lon="8.437275616721914"><ele>431.0</ele><time>2026-05-01T11:23:38Z</time></trkpt><trkpt lat="44.442388925859476" lon="8.437188912136769"><ele>431.0</ele><time>2026-05-01T11:23:39Z</time></trkpt><trkpt lat="44.44248903079535" lon="8.437105559385374"><ele>431.0</ele><time>2026-05-01T11:23:40Z</time></trkpt><trkpt lat="44.44259328020311" lon="8.43701712510379"><ele>430.8</ele><time>2026-05-01T11:23:41Z</time></trkpt><trkpt lat="44.44270091406581" lon="8.436925032788679"><ele>430.6</ele><time>2026-05-01T11:23:42Z</time></trkpt><trkpt lat="44.4427732278981" lon="8.43686068355631"><ele>430.4</ele><time>2026-05-01T11:23:43Z</time></trkpt><trkpt lat="44.442869688859766" lon="8.436773970658935"><ele>430.2</ele><time>2026-05-01T11:23:44Z</time></trkpt><trkpt lat="44.44296789945896" lon="8.43668425132027"><ele>430.0</ele><time>2026-05-01T11:23:45Z</time></trkpt><trkpt lat="44.44306810452701" lon="8.436582790332276"><ele>430.0</ele><time>2026-05-01T11:23:46Z</time></trkpt><trkpt lat="44.44316555385142" lon="8.436471635992667"><ele>430.0</ele><time>2026-05-01T11:23:47Z</time></trkpt><trkpt lat="44.443263938868526" lon="8.436349553092809"><ele>430.0</ele><time>2026-05-01T11:23:48Z</time></trkpt><trkpt lat="44.44336684939062" lon="8.436241671559326"><ele>430.0</ele><time>2026-05-01T11:23:49Z</time></trkpt><trkpt lat="44.44345701490115" lon="8.436133280550763"><ele>430.0</ele><time>2026-05-01T11:23:50Z</time></trkpt><trkpt lat="44.4435490578025" lon="8.436023843687154"><ele>430.0</ele><time>2026-05-01T11:23:51Z</time></trkpt><trkpt lat="44.443642511487624" lon="8.435906250951193"><ele>430.0</ele><time>2026-05-01T11:23:52Z</time></trkpt><trkpt lat="44.44373861543791" lon="8.43579163208244"><ele>430.0</ele><time>2026-05-01T11:23:53Z</time></trkpt><trkpt lat="44.44383705563426" lon="8.435676989954592"><ele>429.6</ele><time>2026-05-01T11:23:54Z</time></trkpt><trkpt lat="44.44392185607904" lon="8.435572500718695"><ele>429.2</ele><time>2026-05-01T11:23:55Z</time></trkpt><trkpt lat="44.44400138754664" lon="8.435479309646347"><ele>428.79999999999995</ele><time>2026-05-01T11:23:56Z</time></trkpt><trkpt lat="44.44406792955474" lon="8.435402986832617"><ele>428.4</ele><time>2026-05-01T11:23:57Z</time></trkpt><trkpt lat="44.44412800355028" lon="8.435338602583087"><ele>428.0</ele><time>2026-05-01T11:23:58Z</time></trkpt><trkpt lat="44.44418318595416" lon="8.435269253362554"><ele>427.99999999999994</ele><time>2026-05-01T11:23:59Z</time></trkpt><trkpt lat="44.444230842253184" lon="8.435204997488528"><ele>428.0</ele><time>2026-05-01T11:24:00Z</time></trkpt><trkpt lat="44.44427698016944" lon="8.435143456111449"><ele>428.0</ele><time>2026-05-01T11:24:01Z</time></trkpt><trkpt lat="44.4443289715484" lon="8.435078158218992"><ele>428.0</ele><time>2026-05-01T11:24:02Z</time></trkpt><trkpt lat="44.444381713027575" lon="8.435012371511455"><ele>427.99999999999994</ele><time>2026-05-01T11:24:03Z</time></trkpt><trkpt lat="44.44447387898477" lon="8.434943939935133"><ele>428.0</ele><time>2026-05-01T11:24:05Z</time></trkpt><trkpt lat="44.444541853892915" lon="8.434865664436812"><ele>428.0</ele><time>2026-05-01T11:24:07Z</time></trkpt><trkpt lat="44.444605040247765" lon="8.434792105233287"><ele>428.0</ele><time>2026-05-01T11:24:09Z</time></trkpt><trkpt lat="44.44456063092439" lon="8.43462097845326"><ele>430.0</ele><time>2026-05-01T11:24:12Z</time></trkpt><trkpt lat="44.44450022000286" lon="8.43459461515407"><ele>430.0</ele><time>2026-05-01T11:24:14Z</time></trkpt></trkseg><trkseg><trkpt lat="44.44444978408621" lon="8.434894363651482"><ele>428.0</ele><time>2026-05-01T11:45:22.4Z</time></trkpt><trkpt lat="44.44444978408621" lon="8.434894363651482"><ele>428.0</ele><time>2026-05-01T11:45:22.4Z</time></trkpt><trkpt lat="44.44444978408621" lon="8.434894363651482"><ele>427.99999999999994</ele><time>2026-05-01T11:45:22.4Z</time></trkpt><trkpt lat="44.44444978408621" lon="8.434894363651482"><ele>427.99999999999994</ele><time>2026-05-01T11:45:22.4Z</time></trkpt><trkpt lat="44.44444978408621" lon="8.434894363651482"><ele>428.0</ele><time>2026-05-01T11:45:22.4Z</time></trkpt><trkpt lat="44.44444978408621" lon="8.434894363651482"><ele>427.99999999999994</ele><time>2026-05-01T11:45:22.4Z</time></trkpt><trkpt lat="44.44446902771939" lon="8.434681380069247"><ele>427.99999999999994</ele><time>2026-05-01T11:51:18Z</time></trkpt><trkpt lat="44.444406451799594" lon="8.434620751688536"><ele>428.0</ele><time>2026-05-01T11:51:20Z</time></trkpt><trkpt lat="44.44436264590608" lon="8.434544246305775"><ele>428.0</ele><time>2026-05-01T11:51:22Z</time></trkpt><trkpt lat="44.44426983787373" lon="8.434465457601453"><ele>428.0</ele><time>2026-05-01T11:51:24Z</time></trkpt><trkpt lat="44.44416380454318" lon="8.434443774224578"><ele>428.3333333333333</ele><time>2026-05-01T11:51:26Z</time></trkpt><trkpt lat="44.44407624596895" lon="8.434434304829107"><ele>428.66666666666663</ele><time>2026-05-01T11:51:28Z</time></trkpt><trkpt lat="44.44400251261036" lon="8.434415158939675"><ele>429.0</ele><time>2026-05-01T11:52:42Z</time></trkpt><trkpt lat="44.44402622512543" lon="8.43449953996617"><ele>429.33333333333337</ele><time>2026-05-01T11:52:50Z</time></trkpt><trkpt lat="44.44409894643154" lon="8.434500181015858"><ele>429.6666666666667</ele><time>2026-05-01T11:52:52Z</time></trkpt><trkpt lat="44.44418482125996" lon="8.434510189905925"><ele>430.0</ele><time>2026-05-01T11:52:55Z</time></trkpt><trkpt lat="44.44427220950957" lon="8.434541546211669"><ele>430.0</ele><time>2026-05-01T11:52:58Z</time></trkpt><trkpt lat="44.44441157563377" lon="8.434606482798769"><ele>430.0</ele><time>2026-05-01T11:53:00Z</time></trkpt><trkpt lat="44.44448863219093" lon="8.434653079020853"><ele>430.0</ele><time>2026-05-01T11:53:01Z</time></trkpt><trkpt lat="44.44455955994757" lon="8.434744044354227"><ele>430.0</ele><time>2026-05-01T11:53:03Z</time></trkpt><trkpt lat="44.44453833766721" lon="8.434845877142873"><ele>430.0</ele><time>2026-05-01T11:53:05Z</time></trkpt><trkpt lat="44.44447990119134" lon="8.434927486350961"><ele>429.5</ele><time>2026-05-01T11:53:06Z</time></trkpt><trkpt lat="44.444382604855875" lon="8.435013383187144"><ele>429.0</ele><time>2026-05-01T11:53:07Z</time></trkpt><trkpt lat="44.44427711644286" lon="8.435130829984615"><ele>428.5</ele><time>2026-05-01T11:53:08Z</time></trkpt><trkpt lat="44.44417467178497" lon="8.435231437750714"><ele>428.0</ele><time>2026-05-01T11:53:09Z</time></trkpt><trkpt lat="44.44410526369502" lon="8.435332123862075"><ele>428.0</ele><time>2026-05-01T11:53:10Z</time></trkpt><trkpt lat="44.444038934489654" lon="8.435404128904212"><ele>427.99999999999994</ele><time>2026-05-01T11:53:11Z</time></trkpt><trkpt lat="44.44397163647681" lon="8.435479119821071"><ele>427.99999999999994</ele><time>2026-05-01T11:53:12Z</time></trkpt><trkpt lat="44.44389428797112" lon="8.435569963827712"><ele>428.0</ele><time>2026-05-01T11:53:13Z</time></trkpt><trkpt lat="44.443799986999224" lon="8.435674853549767"><ele>428.0</ele><time>2026-05-01T11:53:14Z</time></trkpt><trkpt lat="44.44369637556488" lon="8.43580004813802"><ele>428.66666666666663</ele><time>2026-05-01T11:53:15Z</time></trkpt><trkpt lat="44.443580571173754" lon="8.43592794677625"><ele>429.33333333333337</ele><time>2026-05-01T11:53:16Z</time></trkpt><trkpt lat="44.443468551725786" lon="8.43606297167721"><ele>430.0</ele><time>2026-05-01T11:53:17Z</time></trkpt><trkpt lat="44.44335196682396" lon="8.436207388718687"><ele>430.0</ele><time>2026-05-01T11:53:18Z</time></trkpt><trkpt lat="44.443234172645255" lon="8.43635540072647"><ele>430.0</ele><time>2026-05-01T11:53:19Z</time></trkpt><trkpt lat="44.44312750155291" lon="8.436480482055538"><ele>430.0</ele><time>2026-05-01T11:53:20Z</time></trkpt><trkpt lat="44.443018525620815" lon="8.436606092240261"><ele>430.0</ele><time>2026-05-01T11:53:21Z</time></trkpt><trkpt lat="44.4428942968939" lon="8.43673384883592"><ele>431.6666666666667</ele><time>2026-05-01T11:53:22Z</time></trkpt><trkpt lat="44.442748606679736" lon="8.436852884176938"><ele>433.33333333333337</ele><time>2026-05-01T11:53:23Z</time></trkpt><trkpt lat="44.442601518414094" lon="8.436974377092291"><ele>435.0</ele><time>2026-05-01T11:53:24Z</time></trkpt><trkpt lat="44.4424508419227" lon="8.43710306586898"><ele>435.33333333333337</ele><time>2026-05-01T11:53:25Z</time></trkpt><trkpt lat="44.4423021470078" lon="8.437235707172725"><ele>435.6666666666667</ele><time>2026-05-01T11:53:26Z</time></trkpt><trkpt lat="44.442151272152856" lon="8.437371131996242"><ele>436.0</ele><time>2026-05-01T11:53:27Z</time></trkpt><trkpt lat="44.441997189048756" lon="8.43750813129783"><ele>436.0</ele><time>2026-05-01T11:53:28Z</time></trkpt><trkpt lat="44.44184443724838" lon="8.437646776394129"><ele>436.0</ele><time>2026-05-01T11:53:29Z</time></trkpt><trkpt lat="44.44169093968355" lon="8.43777569427088"><ele>436.0</ele><time>2026-05-01T11:53:30Z</time></trkpt><trkpt lat="44.44155376458621" lon="8.437893953814932"><ele>436.0</ele><time>2026-05-01T11:53:31Z</time></trkpt><trkpt lat="44.441442280994416" lon="8.437997614657528"><ele>436.0</ele><time>2026-05-01T11:53:32Z</time></trkpt><trkpt lat="44.44136843090312" lon="8.438062667622646"><ele>436.0</ele><time>2026-05-01T11:53:33Z</time></trkpt><trkpt lat="44.44128158865885" lon="8.438047868222899"><ele>436.0</ele><time>2026-05-01T11:53:36Z</time></trkpt><trkpt lat="44.44122775591893" lon="8.437899555821868"><ele>436.0</ele><time>2026-05-01T11:53:38Z</time></trkpt><trkpt lat="44.44118731959522" lon="8.437822457707767"><ele>436.0</ele><time>2026-05-01T11:53:39Z</time></trkpt><trkpt lat="44.441153271148394" lon="8.437747129419229"><ele>436.0</ele><time>2026-05-01T11:53:40Z</time></trkpt><trkpt lat="44.441037330204395" lon="8.437744810006814"><ele>436.0</ele><time>2026-05-01T11:53:41Z</time></trkpt><trkpt lat="44.44094271360751" lon="8.437726244761505"><ele>436.0</ele><time>2026-05-01T11:53:42Z</time></trkpt><trkpt lat="44.44084027129948" lon="8.437709603073495"><ele>436.0</ele><time>2026-05-01T11:53:43Z</time></trkpt><trkpt lat="44.440737520834254" lon="8.437655706387867"><ele>436.0</ele><time>2026-05-01T11:53:44Z</time></trkpt><trkpt lat="44.44063544847973" lon="8.437646314170548"><ele>436.0</ele><time>2026-05-01T11:53:45Z</time></trkpt><trkpt lat="44.44053325775827" lon="8.437607841637726"><ele>436.0</ele><time>2026-05-01T11:53:46Z</time></trkpt><trkpt lat="44.4404256449174" lon="8.43760502182649"><ele>436.0</ele><time>2026-05-01T11:53:47Z</time></trkpt><trkpt lat="44.44031498523276" lon="8.437631896311615"><ele>436.0</ele><time>2026-05-01T11:53:48Z</time></trkpt><trkpt lat="44.440204159532556" lon="8.437667969157237"><ele>436.25</ele><time>2026-05-01T11:53:49Z</time></trkpt><trkpt lat="44.44007632520109" lon="8.437708666709444"><ele>436.5</ele><time>2026-05-01T11:53:50Z</time></trkpt><trkpt lat="44.43993571908427" lon="8.437753498234045"><ele>436.75</ele><time>2026-05-01T11:53:51Z</time></trkpt><trkpt lat="44.439801633050415" lon="8.437789944728253"><ele>437.0</ele><time>2026-05-01T11:53:52Z</time></trkpt><trkpt lat="44.439679694628246" lon="8.43782362683757"><ele>436.40000000000003</ele><time>2026-05-01T11:53:53Z</time></trkpt><trkpt lat="44.4395711768889" lon="8.437847793945172"><ele>435.80000000000007</ele><time>2026-05-01T11:53:54Z</time></trkpt><trkpt lat="44.439478766474984" lon="8.437825463255354"><ele>435.2</ele><time>2026-05-01T11:53:55Z</time></trkpt><trkpt lat="44.439398719812196" lon="8.437778435093673"><ele>434.6</ele><time>2026-05-01T11:53:56Z</time></trkpt><trkpt lat="44.43929629194214" lon="8.437724977509648"><ele>434.0</ele><time>2026-05-01T11:53:57Z</time></trkpt><trkpt lat="44.43917996939057" lon="8.437677330136875"><ele>434.0</ele><time>2026-05-01T11:53:58Z</time></trkpt><trkpt lat="44.43906055446452" lon="8.437610243264873"><ele>434.0</ele><time>2026-05-01T11:53:59Z</time></trkpt><trkpt lat="44.438924050533615" lon="8.437532179653495"><ele>434.0</ele><time>2026-05-01T11:54:00Z</time></trkpt><trkpt lat="44.43878404524496" lon="8.437455670965525"><ele>434.0</ele><time>2026-05-01T11:54:01Z</time></trkpt><trkpt lat="44.438649593034796" lon="8.43740683507661"><ele>434.0</ele><time>2026-05-01T11:54:02Z</time></trkpt><trkpt lat="44.43853126931794" lon="8.437385122246829"><ele>434.0</ele><time>2026-05-01T11:54:03Z</time></trkpt><trkpt lat="44.43842773127059" lon="8.437392219268478"><ele>434.0</ele><time>2026-05-01T11:54:04Z</time></trkpt><trkpt lat="44.43832644369178" lon="8.437426476988586"><ele>434.0</ele><time>2026-05-01T11:54:05Z</time></trkpt><trkpt lat="44.43821766873758" lon="8.437491463197222"><ele>434.0</ele><time>2026-05-01T11:54:06Z</time></trkpt><trkpt lat="44.43810828921735" lon="8.437582963034256"><ele>434.0</ele><time>2026-05-01T11:54:07Z</time></trkpt><trkpt lat="44.438001250231714" lon="8.43768278292475"><ele>434.0</ele><time>2026-05-01T11:54:08Z</time></trkpt><trkpt lat="44.4378917104271" lon="8.437784861441745"><ele>434.0</ele><time>2026-05-01T11:54:09Z</time></trkpt><trkpt lat="44.43777283788707" lon="8.43789417384423"><ele>434.0</ele><time>2026-05-01T11:54:10Z</time></trkpt><trkpt lat="44.43764252154293" lon="8.438004231951883"><ele>434.4</ele><time>2026-05-01T11:54:11Z</time></trkpt><trkpt lat="44.4375320747538" lon="8.438094644785878"><ele>434.79999999999995</ele><time>2026-05-01T11:54:12Z</time></trkpt><trkpt lat="44.43743733627492" lon="8.438162565480978"><ele>435.20000000000005</ele><time>2026-05-01T11:54:13Z</time></trkpt><trkpt lat="44.43737469180303" lon="8.43819950010802"><ele>435.6</ele><time>2026-05-01T11:54:14Z</time></trkpt><trkpt lat="44.43729663866299" lon="8.438233269723185"><ele>436.0</ele><time>2026-05-01T11:54:17Z</time></trkpt><trkpt lat="44.437202802528645" lon="8.438287420750655"><ele>437.20000000000005</ele><time>2026-05-01T11:54:19Z</time></trkpt><trkpt lat="44.43712424788671" lon="8.438325640602333"><ele>438.40000000000003</ele><time>2026-05-01T11:54:20Z</time></trkpt><trkpt lat="44.43703323556587" lon="8.438373791071703"><ele>439.6</ele><time>2026-05-01T11:54:21Z</time></trkpt><trkpt lat="44.43694840982496" lon="8.438434591924443"><ele>440.8</ele><time>2026-05-01T11:54:22Z</time></trkpt><trkpt lat="44.436859892120694" lon="8.438507933449081"><ele>442.0</ele><time>2026-05-01T11:54:23Z</time></trkpt><trkpt lat="44.43676720575334" lon="8.438579411182824"><ele>442.0</ele><time>2026-05-01T11:54:24Z</time></trkpt><trkpt lat="44.43666406864503" lon="8.438658424394433"><ele>442.00000000000006</ele><time>2026-05-01T11:54:25Z</time></trkpt><trkpt lat="44.43656187793972" lon="8.438746411389674"><ele>442.00000000000006</ele><time>2026-05-01T11:54:26Z</time></trkpt><trkpt lat="44.43646866911149" lon="8.438816373114642"><ele>442.0</ele><time>2026-05-01T11:54:27Z</time></trkpt><trkpt lat="44.43636794217065" lon="8.438840723067129"><ele>442.0</ele><time>2026-05-01T11:54:28Z</time></trkpt><trkpt lat="44.43624328058622" lon="8.43885092196593"><ele>443.25</ele><time>2026-05-01T11:54:29Z</time></trkpt><trkpt lat="44.436104998900106" lon="8.438879570201198"><ele>444.5</ele><time>2026-05-01T11:54:30Z</time></trkpt><trkpt lat="44.435963800287645" lon="8.438948162685543"><ele>445.75</ele><time>2026-05-01T11:54:31Z</time></trkpt><trkpt lat="44.43582250280907" lon="8.438984429721973"><ele>447.0</ele><time>2026-05-01T11:54:32Z</time></trkpt><trkpt lat="44.43567464670528" lon="8.439031386589468"><ele>447.0</ele><time>2026-05-01T11:54:33Z</time></trkpt><trkpt lat="44.43554619257412" lon="8.439094817137212"><ele>447.0</ele><time>2026-05-01T11:54:34Z</time></trkpt><trkpt lat="44.43543202382462" lon="8.439132043176649"><ele>447.0</ele><time>2026-05-01T11:54:35Z</time></trkpt><trkpt lat="44.435327385250794" lon="8.439115012830776"><ele>447.0</ele><time>2026-05-01T11:54:36Z</time></trkpt><trkpt lat="44.43523567211345" lon="8.439095922142632"><ele>448.0</ele><time>2026-05-01T11:54:37Z</time></trkpt><trkpt lat="44.435162470747095" lon="8.439053000584476"><ele>449.00000000000006</ele><time>2026-05-01T11:54:38Z</time></trkpt><trkpt lat="44.43506279129806" lon="8.439005472358769"><ele>450.00000000000006</ele><time>2026-05-01T11:54:39Z</time></trkpt><trkpt lat="44.43496251452757" lon="8.438917859790902"><ele>451.0</ele><time>2026-05-01T11:54:40Z</time></trkpt><trkpt lat="44.43484414935925" lon="8.43884701090081"><ele>452.0</ele><time>2026-05-01T11:54:41Z</time></trkpt><trkpt lat="44.434762999760764" lon="8.438755655266476"><ele>451.49999999999994</ele><time>2026-05-01T11:54:42Z</time></trkpt><trkpt lat="44.43470380565228" lon="8.438690740007676"><ele>451.0</ele><time>2026-05-01T11:54:43Z</time></trkpt><trkpt lat="44.43464567526868" lon="8.438618455322953"><ele>450.5</ele><time>2026-05-01T11:54:44Z</time></trkpt><trkpt lat="44.434593323533726" lon="8.438526147227602"><ele>450.0</ele><time>2026-05-01T11:54:45Z</time></trkpt><trkpt lat="44.434551105908156" lon="8.438405142198333"><ele>449.49999999999994</ele><time>2026-05-01T11:54:46Z</time></trkpt><trkpt lat="44.43453322980095" lon="8.438293820421308"><ele>449.0</ele><time>2026-05-01T11:54:47Z</time></trkpt><trkpt lat="44.43453440586052" lon="8.438187662574249"><ele>449.0</ele><time>2026-05-01T11:54:48Z</time></trkpt><trkpt lat="44.43454710206867" lon="8.438062435678667"><ele>449.0</ele><time>2026-05-01T11:54:49Z</time></trkpt><trkpt lat="44.43456858935561" lon="8.437918056432316"><ele>449.0</ele><time>2026-05-01T11:54:50Z</time></trkpt><trkpt lat="44.43459543305135" lon="8.437756747620861"><ele>449.0</ele><time>2026-05-01T11:54:51Z</time></trkpt><trkpt lat="44.43461635840782" lon="8.437545337406672"><ele>454.3333333333333</ele><time>2026-05-01T11:54:52Z</time></trkpt><trkpt lat="44.434649757962646" lon="8.437331914122414"><ele>459.66666666666663</ele><time>2026-05-01T11:54:53Z</time></trkpt><trkpt lat="44.434658250844606" lon="8.437106207514356"><ele>465.0</ele><time>2026-05-01T11:54:54Z</time></trkpt><trkpt lat="44.43466515888886" lon="8.43690588647276"><ele>465.25</ele><time>2026-05-01T11:54:55Z</time></trkpt><trkpt lat="44.43467774526888" lon="8.436735104364672"><ele>465.5</ele><time>2026-05-01T11:54:56Z</time></trkpt><trkpt lat="44.43467407249774" lon="8.436570217543931"><ele>465.75</ele><time>2026-05-01T11:54:57Z</time></trkpt><trkpt lat="44.434654199475624" lon="8.436393642632583"><ele>466.0</ele><time>2026-05-01T11:54:58Z</time></trkpt><trkpt lat="44.43467589507345" lon="8.436232974165062"><ele>466.0</ele><time>2026-05-01T11:54:59Z</time></trkpt><trkpt lat="44.434670545122955" lon="8.436078866071648"><ele>466.0</ele><time>2026-05-01T11:55:00Z</time></trkpt><trkpt lat="44.43464396867938" lon="8.435897871400273"><ele>466.0</ele><time>2026-05-01T11:55:01Z</time></trkpt><trkpt lat="44.43462492592823" lon="8.435726323073984"><ele>466.0</ele><time>2026-05-01T11:55:02Z</time></trkpt><trkpt lat="44.434623947378824" lon="8.435573171169915"><ele>465.6</ele><time>2026-05-01T11:55:03Z</time></trkpt><trkpt lat="44.43463006332739" lon="8.43542435164318"><ele>465.20000000000005</ele><time>2026-05-01T11:55:04Z</time></trkpt><trkpt lat="44.43464831964974" lon="8.435154927045211"><ele>464.79999999999995</ele><time>2026-05-01T11:55:06Z</time></trkpt><trkpt lat="44.43464691778749" lon="8.435054575392046"><ele>464.4</ele><time>2026-05-01T11:55:07Z</time></trkpt><trkpt lat="44.43459551289024" lon="8.434985040763953"><ele>464.0</ele><time>2026-05-01T11:55:08Z</time></trkpt><trkpt lat="44.43452864309124" lon="8.434926839032961"><ele>462.6</ele><time>2026-05-01T11:55:09Z</time></trkpt><trkpt lat="44.43445750935455" lon="8.434840326597667"><ele>461.2</ele><time>2026-05-01T11:55:10Z</time></trkpt><trkpt lat="44.4343970057519" lon="8.434764021608848"><ele>459.80000000000007</ele><time>2026-05-01T11:55:11Z</time></trkpt><trkpt lat="44.4343868197297" lon="8.43464946593906"><ele>458.40000000000003</ele><time>2026-05-01T11:55:12Z</time></trkpt><trkpt lat="44.43441394850715" lon="8.434499601707468"><ele>457.0</ele><time>2026-05-01T11:55:13Z</time></trkpt><trkpt lat="44.43440790077304" lon="8.434314514264944"><ele>456.40000000000003</ele><time>2026-05-01T11:55:14Z</time></trkpt><trkpt lat="44.43439373070776" lon="8.43412778865267"><ele>455.80000000000007</ele><time>2026-05-01T11:55:15Z</time></trkpt><trkpt lat="44.434373945309375" lon="8.433984871388358"><ele>455.2</ele><time>2026-05-01T11:55:16Z</time></trkpt><trkpt lat="44.43433066849241" lon="8.433876407475768"><ele>454.6</ele><time>2026-05-01T11:55:17Z</time></trkpt><trkpt lat="44.43423031535914" lon="8.433815897245749"><ele>454.0</ele><time>2026-05-01T11:55:18Z</time></trkpt><trkpt lat="44.434145937120114" lon="8.43371057965796"><ele>454.5</ele><time>2026-05-01T11:55:19Z</time></trkpt><trkpt lat="44.43404613408426" lon="8.433611040574645"><ele>455.0</ele><time>2026-05-01T11:55:20Z</time></trkpt><trkpt lat="44.433941637537366" lon="8.433504825956026"><ele>455.5</ele><time>2026-05-01T11:55:21Z</time></trkpt><trkpt lat="44.43383390359948" lon="8.433379119971137"><ele>456.0</ele><time>2026-05-01T11:55:22Z</time></trkpt><trkpt lat="44.43372429445862" lon="8.433252456846263"><ele>456.0</ele><time>2026-05-01T11:55:23Z</time></trkpt><trkpt lat="44.43361056006991" lon="8.433120947468668"><ele>456.0</ele><time>2026-05-01T11:55:24Z</time></trkpt><trkpt lat="44.43349799409138" lon="8.432978103703128"><ele>456.0</ele><time>2026-05-01T11:55:25Z</time></trkpt><trkpt lat="44.43337103743418" lon="8.432805594867498"><ele>456.33333333333337</ele><time>2026-05-01T11:55:26Z</time></trkpt><trkpt lat="44.43325674623205" lon="8.432629373324989"><ele>456.6666666666667</ele><time>2026-05-01T11:55:27Z</time></trkpt><trkpt lat="44.43315341862511" lon="8.43245267625611"><ele>457.0</ele><time>2026-05-01T11:55:28Z</time></trkpt><trkpt lat="44.433053651164045" lon="8.432283056206185"><ele>456.5</ele><time>2026-05-01T11:55:29Z</time></trkpt><trkpt lat="44.43296362286802" lon="8.432138054001886"><ele>456.0</ele><time>2026-05-01T11:55:30Z</time></trkpt><trkpt lat="44.432871557030644" lon="8.431999493205758"><ele>455.5</ele><time>2026-05-01T11:55:31Z</time></trkpt><trkpt lat="44.432772565636114" lon="8.43184671113145"><ele>455.0</ele><time>2026-05-01T11:55:32Z</time></trkpt><trkpt lat="44.432681789918234" lon="8.431690799448823"><ele>455.0</ele><time>2026-05-01T11:55:33Z</time></trkpt><trkpt lat="44.4326029766027" lon="8.431540975649689"><ele>455.0</ele><time>2026-05-01T11:55:34Z</time></trkpt><trkpt lat="44.432510278289755" lon="8.43139142249681"><ele>455.0</ele><time>2026-05-01T11:55:35Z</time></trkpt><trkpt lat="44.43244295924844" lon="8.43120072106496"><ele>455.0</ele><time>2026-05-01T11:55:36Z</time></trkpt><trkpt lat="44.432369695193415" lon="8.431002975710248"><ele>456.0</ele><time>2026-05-01T11:55:37Z</time></trkpt><trkpt lat="44.432307464344554" lon="8.430832798089988"><ele>457.0</ele><time>2026-05-01T11:55:38Z</time></trkpt><trkpt lat="44.43227666753078" lon="8.430668009123858"><ele>458.0</ele><time>2026-05-01T11:55:39Z</time></trkpt><trkpt lat="44.432261244616306" lon="8.430534645113973"><ele>459.0</ele><time>2026-05-01T11:55:40Z</time></trkpt><trkpt lat="44.432264385834586" lon="8.430415498557693"><ele>460.0</ele><time>2026-05-01T11:55:41Z</time></trkpt><trkpt lat="44.432269459231506" lon="8.430296747921414"><ele>460.25</ele><time>2026-05-01T11:55:42Z</time></trkpt><trkpt lat="44.432323560936055" lon="8.430167038532671"><ele>460.5</ele><time>2026-05-01T11:55:43Z</time></trkpt><trkpt lat="44.43239889335258" lon="8.4300211073968"><ele>460.75</ele><time>2026-05-01T11:55:44Z</time></trkpt><trkpt lat="44.43248842432319" lon="8.429895894896303"><ele>461.0</ele><time>2026-05-01T11:55:45Z</time></trkpt><trkpt lat="44.43260160640296" lon="8.429778059136554"><ele>461.0</ele><time>2026-05-01T11:55:46Z</time></trkpt><trkpt lat="44.432732757191765" lon="8.429669744951378"><ele>461.0</ele><time>2026-05-01T11:55:47Z</time></trkpt><trkpt lat="44.43288579280416" lon="8.429545728216622"><ele>461.0</ele><time>2026-05-01T11:55:48Z</time></trkpt><trkpt lat="44.43299594743047" lon="8.429457645777475"><ele>461.16666666666663</ele><time>2026-05-01T11:55:49Z</time></trkpt><trkpt lat="44.43308790062347" lon="8.429418291591904"><ele>461.3333333333333</ele><time>2026-05-01T11:55:50Z</time></trkpt><trkpt lat="44.43315299381675" lon="8.42934534505173"><ele>461.5</ele><time>2026-05-01T11:55:51Z</time></trkpt><trkpt lat="44.43321686082514" lon="8.429293795551832"><ele>461.66666666666663</ele><time>2026-05-01T11:55:52Z</time></trkpt><trkpt lat="44.43328896467269" lon="8.429200113577968"><ele>461.8333333333333</ele><time>2026-05-01T11:55:53Z</time></trkpt><trkpt lat="44.4333461678677" lon="8.429117667751889"><ele>462.0</ele><time>2026-05-01T11:55:54Z</time></trkpt><trkpt lat="44.433379817253325" lon="8.429034139320821"><ele>462.0</ele><time>2026-05-01T11:55:55Z</time></trkpt><trkpt lat="44.433378890448175" lon="8.428902363628083"><ele>462.00000000000006</ele><time>2026-05-01T11:55:57Z</time></trkpt><trkpt lat="44.43332753659053" lon="8.428817977393717"><ele>462.00000000000006</ele><time>2026-05-01T11:55:58Z</time></trkpt><trkpt lat="44.433222383823804" lon="8.428785797480472"><ele>462.0</ele><time>2026-05-01T11:55:59Z</time></trkpt><trkpt lat="44.43312251385513" lon="8.428749092831424"><ele>462.0</ele><time>2026-05-01T11:56:00Z</time></trkpt><trkpt lat="44.43301249520853" lon="8.428740366488126"><ele>462.5</ele><time>2026-05-01T11:56:01Z</time></trkpt><trkpt lat="44.432883724215266" lon="8.42874837402144"><ele>463.0</ele><time>2026-05-01T11:56:02Z</time></trkpt><trkpt lat="44.43273987872974" lon="8.42873395986025"><ele>463.5</ele><time>2026-05-01T11:56:03Z</time></trkpt><trkpt lat="44.43261725254956" lon="8.42871725842974"><ele>464.0</ele><time>2026-05-01T11:56:04Z</time></trkpt><trkpt lat="44.432493472253974" lon="8.428713891241712"><ele>464.0</ele><time>2026-05-01T11:56:05Z</time></trkpt><trkpt lat="44.43236240521899" lon="8.42872138556611"><ele>464.0</ele><time>2026-05-01T11:56:06Z</time></trkpt><trkpt lat="44.43225068706845" lon="8.428745624525137"><ele>464.0</ele><time>2026-05-01T11:56:07Z</time></trkpt><trkpt lat="44.43213930360614" lon="8.428742484577878"><ele>464.0</ele><time>2026-05-01T11:56:08Z</time></trkpt><trkpt lat="44.43202569590259" lon="8.42870908373844"><ele>465.3333333333333</ele><time>2026-05-01T11:56:09Z</time></trkpt><trkpt lat="44.43187124691591" lon="8.4286803612757"><ele>466.66666666666663</ele><time>2026-05-01T11:56:10Z</time></trkpt><trkpt lat="44.43169692676038" lon="8.428658759377843"><ele>468.0</ele><time>2026-05-01T11:56:11Z</time></trkpt><trkpt lat="44.43154956199342" lon="8.428611833827281"><ele>468.0</ele><time>2026-05-01T11:56:12Z</time></trkpt><trkpt lat="44.431406251500015" lon="8.428615058751507"><ele>468.0</ele><time>2026-05-01T11:56:13Z</time></trkpt><trkpt lat="44.43126837736713" lon="8.42860638650515"><ele>468.0</ele><time>2026-05-01T11:56:14Z</time></trkpt><trkpt lat="44.43113424967281" lon="8.428655526920494"><ele>468.0</ele><time>2026-05-01T11:56:15Z</time></trkpt><trkpt lat="44.43099026396153" lon="8.428667201506052"><ele>468.75</ele><time>2026-05-01T11:56:16Z</time></trkpt><trkpt lat="44.43087794734415" lon="8.428695171045412"><ele>469.5</ele><time>2026-05-01T11:56:17Z</time></trkpt><trkpt lat="44.43077075988419" lon="8.42871434905212"><ele>470.25</ele><time>2026-05-01T11:56:18Z</time></trkpt><trkpt lat="44.43064157276147" lon="8.428747388628324"><ele>471.0</ele><time>2026-05-01T11:56:19Z</time></trkpt><trkpt lat="44.43049929841823" lon="8.428763433793263"><ele>471.0</ele><time>2026-05-01T11:56:20Z</time></trkpt><trkpt lat="44.4303745464434" lon="8.428768769748643"><ele>471.0</ele><time>2026-05-01T11:56:21Z</time></trkpt><trkpt lat="44.43028594568949" lon="8.428729435625023"><ele>471.0</ele><time>2026-05-01T11:56:22Z</time></trkpt><trkpt lat="44.4302109322631" lon="8.428701052652789"><ele>471.0</ele><time>2026-05-01T11:56:23Z</time></trkpt><trkpt lat="44.430145033907316" lon="8.428618769688114"><ele>471.0</ele><time>2026-05-01T11:56:24Z</time></trkpt><trkpt lat="44.43010529456478" lon="8.428497890710974"><ele>471.0</ele><time>2026-05-01T11:56:25Z</time></trkpt><trkpt lat="44.430064608497496" lon="8.428401363851195"><ele>471.0</ele><time>2026-05-01T11:56:26Z</time></trkpt><trkpt lat="44.43000476429233" lon="8.428303301038216"><ele>471.0</ele><time>2026-05-01T11:56:27Z</time></trkpt><trkpt lat="44.429948877579314" lon="8.428167611220262"><ele>471.0</ele><time>2026-05-01T11:56:28Z</time></trkpt><trkpt lat="44.42989619475474" lon="8.428057228334685"><ele>471.0</ele><time>2026-05-01T11:56:29Z</time></trkpt><trkpt lat="44.42987128734109" lon="8.427927572464835"><ele>471.75</ele><time>2026-05-01T11:56:30Z</time></trkpt><trkpt lat="44.429823005537166" lon="8.427790630912227"><ele>472.5</ele><time>2026-05-01T11:56:31Z</time></trkpt><trkpt lat="44.42979218775099" lon="8.427606589755792"><ele>473.25</ele><time>2026-05-01T11:56:32Z</time></trkpt><trkpt lat="44.42975279422044" lon="8.427420946270653"><ele>474.0</ele><time>2026-05-01T11:56:33Z</time></trkpt><trkpt lat="44.429691140008636" lon="8.427238373120739"><ele>477.5</ele><time>2026-05-01T11:56:34Z</time></trkpt><trkpt lat="44.42964154791041" lon="8.427063678948574"><ele>481.0</ele><time>2026-05-01T11:56:35Z</time></trkpt><trkpt lat="44.429609818404494" lon="8.426916857482961"><ele>484.5</ele><time>2026-05-01T11:56:36Z</time></trkpt><trkpt lat="44.42956057915399" lon="8.426776596257659"><ele>488.0</ele><time>2026-05-01T11:56:37Z</time></trkpt><trkpt lat="44.42954791358692" lon="8.426628468655398"><ele>488.0</ele><time>2026-05-01T11:56:38Z</time></trkpt><trkpt lat="44.42951764746702" lon="8.42649287462175"><ele>488.0</ele><time>2026-05-01T11:56:39Z</time></trkpt><trkpt lat="44.42951830935108" lon="8.426319903093914"><ele>488.0</ele><time>2026-05-01T11:56:40Z</time></trkpt><trkpt lat="44.4295240938436" lon="8.426142471096519"><ele>488.0</ele><time>2026-05-01T11:56:41Z</time></trkpt><trkpt lat="44.42951598104853" lon="8.425987574027042"><ele>488.0</ele><time>2026-05-01T11:56:42Z</time></trkpt><trkpt lat="44.429543621841006" lon="8.425871513432385"><ele>487.99999999999994</ele><time>2026-05-01T11:56:43Z</time></trkpt><trkpt lat="44.42957011786103" lon="8.425759264694845"><ele>487.99999999999994</ele><time>2026-05-01T11:56:44Z</time></trkpt><trkpt lat="44.429606943516966" lon="8.425639566968897"><ele>488.0</ele><time>2026-05-01T11:56:45Z</time></trkpt><trkpt lat="44.42965628587735" lon="8.425505501951692"><ele>488.0</ele><time>2026-05-01T11:56:46Z</time></trkpt><trkpt lat="44.42973647570632" lon="8.425383497279979"><ele>486.0</ele><time>2026-05-01T11:56:47Z</time></trkpt><trkpt lat="44.429816766392086" lon="8.42524762053101"><ele>484.0</ele><time>2026-05-01T11:56:48Z</time></trkpt><trkpt lat="44.42990829992745" lon="8.425105456746063"><ele>482.0</ele><time>2026-05-01T11:56:49Z</time></trkpt><trkpt lat="44.429999099770114" lon="8.424974747667086"><ele>480.0</ele><time>2026-05-01T11:56:50Z</time></trkpt><trkpt lat="44.43007107264934" lon="8.424877382750726"><ele>480.0</ele><time>2026-05-01T11:56:51Z</time></trkpt><trkpt lat="44.43013233007808" lon="8.424789281527705"><ele>480.0</ele><time>2026-05-01T11:56:52Z</time></trkpt><trkpt lat="44.43015750643554" lon="8.424682950520367"><ele>480.0</ele><time>2026-05-01T11:56:53Z</time></trkpt><trkpt lat="44.43010674781189" lon="8.424512223882305"><ele>480.0</ele><time>2026-05-01T11:56:55Z</time></trkpt><trkpt lat="44.430059865077446" lon="8.42439370072857"><ele>480.0</ele><time>2026-05-01T11:56:56Z</time></trkpt><trkpt lat="44.429986746187375" lon="8.424264912554515"><ele>480.6</ele><time>2026-05-01T11:56:57Z</time></trkpt><trkpt lat="44.4298962283888" lon="8.4241808385084"><ele>481.2</ele><time>2026-05-01T11:56:58Z</time></trkpt><trkpt lat="44.42980594236677" lon="8.424109682859015"><ele>481.79999999999995</ele><time>2026-05-01T11:56:59Z</time></trkpt><trkpt lat="44.42970737436471" lon="8.424069789903923"><ele>482.4</ele><time>2026-05-01T11:57:00Z</time></trkpt><trkpt lat="44.429616978997124" lon="8.424051296353143"><ele>483.0</ele><time>2026-05-01T11:57:01Z</time></trkpt><trkpt lat="44.42955322027118" lon="8.424056857771998"><ele>483.4</ele><time>2026-05-01T11:57:02Z</time></trkpt><trkpt lat="44.42945168823859" lon="8.424126777761405"><ele>483.79999999999995</ele><time>2026-05-01T11:57:04Z</time></trkpt><trkpt lat="44.42940956439464" lon="8.424194328109884"><ele>484.2</ele><time>2026-05-01T11:57:05Z</time></trkpt><trkpt lat="44.42936477257324" lon="8.424349402568168"><ele>484.6</ele><time>2026-05-01T11:57:07Z</time></trkpt><trkpt lat="44.42935471813322" lon="8.424481119999543"><ele>485.0</ele><time>2026-05-01T11:57:08Z</time></trkpt><trkpt lat="44.429303174347" lon="8.424654352927233"><ele>485.75</ele><time>2026-05-01T11:57:09Z</time></trkpt><trkpt lat="44.42927101145117" lon="8.424825878361572"><ele>486.5</ele><time>2026-05-01T11:57:10Z</time></trkpt><trkpt lat="44.429214502689945" lon="8.424988426553705"><ele>487.25</ele><time>2026-05-01T11:57:11Z</time></trkpt><trkpt lat="44.42916757659963" lon="8.425161556977237"><ele>488.0</ele><time>2026-05-01T11:57:12Z</time></trkpt><trkpt lat="44.42913583384527" lon="8.425335049992727"><ele>488.0</ele><time>2026-05-01T11:57:13Z</time></trkpt><trkpt lat="44.429093705856545" lon="8.425513028032587"><ele>488.0</ele><time>2026-05-01T11:57:14Z</time></trkpt><trkpt lat="44.429063579991826" lon="8.425712651064956"><ele>488.0</ele><time>2026-05-01T11:57:15Z</time></trkpt><trkpt lat="44.429030944125785" lon="8.425883621159501"><ele>488.0</ele><time>2026-05-01T11:57:16Z</time></trkpt><trkpt lat="44.42901083911599" lon="8.426044071595465"><ele>488.0</ele><time>2026-05-01T11:57:17Z</time></trkpt><trkpt lat="44.42898914820795" lon="8.426198089234092"><ele>487.99999999999994</ele><time>2026-05-01T11:57:18Z</time></trkpt><trkpt lat="44.428937589436465" lon="8.426304651794887"><ele>487.99999999999994</ele><time>2026-05-01T11:57:19Z</time></trkpt><trkpt lat="44.42891465506715" lon="8.426412420404194"><ele>488.0</ele><time>2026-05-01T11:57:20Z</time></trkpt><trkpt lat="44.42885752852745" lon="8.42655228382835"><ele>488.0</ele><time>2026-05-01T11:57:22Z</time></trkpt><trkpt lat="44.42882463084896" lon="8.426671812428665"><ele>488.66666666666663</ele><time>2026-05-01T11:57:24Z</time></trkpt><trkpt lat="44.42879002709879" lon="8.426775854018697"><ele>489.3333333333333</ele><time>2026-05-01T11:57:26Z</time></trkpt><trkpt lat="44.428776287543826" lon="8.426875785386597"><ele>490.0</ele><time>2026-05-01T11:57:28Z</time></trkpt><trkpt lat="44.42871219176621" lon="8.42702831314437"><ele>490.66666666666663</ele><time>2026-05-01T11:57:30Z</time></trkpt><trkpt lat="44.428679846803135" lon="8.427116686928466"><ele>491.3333333333333</ele><time>2026-05-01T11:57:31Z</time></trkpt><trkpt lat="44.428641008718806" lon="8.42720258204005"><ele>492.0</ele><time>2026-05-01T11:57:32Z</time></trkpt><trkpt lat="44.428594379444725" lon="8.427290393767024"><ele>494.5</ele><time>2026-05-01T11:57:33Z</time></trkpt><trkpt lat="44.428533471072235" lon="8.427378359389778"><ele>497.0</ele><time>2026-05-01T11:57:34Z</time></trkpt><trkpt lat="44.4284767989279" lon="8.427474162728556"><ele>499.5</ele><time>2026-05-01T11:57:35Z</time></trkpt><trkpt lat="44.42840963779031" lon="8.427531015757097"><ele>502.0</ele><time>2026-05-01T11:57:36Z</time></trkpt><trkpt lat="44.4283424091134" lon="8.427581246309254"><ele>504.5</ele><time>2026-05-01T11:57:37Z</time></trkpt><trkpt lat="44.42827899227846" lon="8.427616431535315"><ele>507.0</ele><time>2026-05-01T11:57:55Z</time></trkpt><trkpt lat="44.42815008869395" lon="8.427683317515045"><ele>507.0</ele><time>2026-05-01T11:57:57Z</time></trkpt><trkpt lat="44.42806577111276" lon="8.427707373634838"><ele>507.00000000000006</ele><time>2026-05-01T11:57:58Z</time></trkpt><trkpt lat="44.42796666687491" lon="8.427752561882334"><ele>507.00000000000006</ele><time>2026-05-01T11:57:59Z</time></trkpt><trkpt lat="44.4278676485675" lon="8.427751397364224"><ele>507.0</ele><time>2026-05-01T11:58:00Z</time></trkpt><trkpt lat="44.42778483057043" lon="8.427764514441208"><ele>507.0</ele><time>2026-05-01T11:58:01Z</time></trkpt><trkpt lat="44.427702496721565" lon="8.427778051806737"><ele>506.8333333333333</ele><time>2026-05-01T11:58:02Z</time></trkpt><trkpt lat="44.42764081070656" lon="8.427797393397944"><ele>506.66666666666663</ele><time>2026-05-01T11:58:03Z</time></trkpt><trkpt lat="44.427565888543946" lon="8.427817245675312"><ele>506.5</ele><time>2026-05-01T11:58:04Z</time></trkpt><trkpt lat="44.42750323858216" lon="8.427859704222692"><ele>506.3333333333333</ele><time>2026-05-01T11:58:05Z</time></trkpt><trkpt lat="44.42744080561674" lon="8.427889255103324"><ele>506.16666666666663</ele><time>2026-05-01T11:58:06Z</time></trkpt><trkpt lat="44.427356799616064" lon="8.427878996246049"><ele>506.0</ele><time>2026-05-01T11:58:08Z</time></trkpt><trkpt lat="44.427266393011315" lon="8.427797597974244"><ele>506.0</ele><time>2026-05-01T11:58:10Z</time></trkpt><trkpt lat="44.427213283086424" lon="8.427740472402188"><ele>506.0</ele><time>2026-05-01T11:58:11Z</time></trkpt><trkpt lat="44.42713097794506" lon="8.4276907457248"><ele>506.0</ele><time>2026-05-01T11:58:12Z</time></trkpt><trkpt lat="44.42702470978512" lon="8.427645374309138"><ele>506.0</ele><time>2026-05-01T11:58:13Z</time></trkpt><trkpt lat="44.4269291454117" lon="8.427577801341377"><ele>506.0</ele><time>2026-05-01T11:58:14Z</time></trkpt><trkpt lat="44.426845916241454" lon="8.42750380716095"><ele>504.20000000000005</ele><time>2026-05-01T11:58:15Z</time></trkpt><trkpt lat="44.426746627047905" lon="8.42741955111984"><ele>502.40000000000003</ele><time>2026-05-01T11:58:16Z</time></trkpt><trkpt lat="44.42664395215541" lon="8.427347409527137"><ele>500.6</ele><time>2026-05-01T11:58:17Z</time></trkpt><trkpt lat="44.426559702130575" lon="8.427261717834043"><ele>498.8</ele><time>2026-05-01T11:58:18Z</time></trkpt><trkpt lat="44.426498229118835" lon="8.427184981918476"><ele>497.0</ele><time>2026-05-01T11:58:19Z</time></trkpt><trkpt lat="44.42645151161727" lon="8.427116953247772"><ele>496.99999999999994</ele><time>2026-05-01T11:58:20Z</time></trkpt><trkpt lat="44.426385627116304" lon="8.427039134854715"><ele>497.0</ele><time>2026-05-01T11:58:21Z</time></trkpt><trkpt lat="44.42630873437494" lon="8.426985824032089"><ele>497.0</ele><time>2026-05-01T11:58:22Z</time></trkpt><trkpt lat="44.42623719424461" lon="8.426963253388097"><ele>497.0</ele><time>2026-05-01T11:58:23Z</time></trkpt><trkpt lat="44.42615101959173" lon="8.426963565464327"><ele>496.99999999999994</ele><time>2026-05-01T11:58:24Z</time></trkpt><trkpt lat="44.4260470752369" lon="8.42696327027248"><ele>497.0</ele><time>2026-05-01T11:58:25Z</time></trkpt><trkpt lat="44.425958138991554" lon="8.426953675696314"><ele>501.3333333333333</ele><time>2026-05-01T11:58:26Z</time></trkpt><trkpt lat="44.425891903569735" lon="8.426896852413003"><ele>505.66666666666663</ele><time>2026-05-01T11:58:27Z</time></trkpt><trkpt lat="44.4258178532113" lon="8.426862345865757"><ele>510.0</ele><time>2026-05-01T11:58:28Z</time></trkpt><trkpt lat="44.42574705270558" lon="8.426793277895063"><ele>514.3333333333334</ele><time>2026-05-01T11:58:29Z</time></trkpt><trkpt lat="44.425671310980185" lon="8.42672047153143"><ele>518.6666666666667</ele><time>2026-05-01T11:58:30Z</time></trkpt><trkpt lat="44.42563746365693" lon="8.426604577372279"><ele>523.0</ele><time>2026-05-01T11:58:32Z</time></trkpt><trkpt lat="44.42570707188954" lon="8.426449585849145"><ele>523.0</ele><time>2026-05-01T11:58:34Z</time></trkpt><trkpt lat="44.42573010592987" lon="8.426364073260439"><ele>523.0</ele><time>2026-05-01T11:58:36Z</time></trkpt><trkpt lat="44.42571202693241" lon="8.426232548046102"><ele>523.0</ele><time>2026-05-01T11:58:38Z</time></trkpt><trkpt lat="44.425680742063015" lon="8.426129640062566"><ele>523.0</ele><time>2026-05-01T11:58:39Z</time></trkpt><trkpt lat="44.42563615973361" lon="8.426000700229256"><ele>523.0</ele><time>2026-05-01T11:58:40Z</time></trkpt><trkpt lat="44.42558756645206" lon="8.425844042756005"><ele>522.1999999999999</ele><time>2026-05-01T11:58:41Z</time></trkpt><trkpt lat="44.4255462481604" lon="8.4257154346946"><ele>521.4</ele><time>2026-05-01T11:58:42Z</time></trkpt><trkpt lat="44.42551513358917" lon="8.425608626857825"><ele>520.5999999999999</ele><time>2026-05-01T11:58:43Z</time></trkpt><trkpt lat="44.425478438304914" lon="8.425447618876898"><ele>519.8</ele><time>2026-05-01T11:58:45Z</time></trkpt><trkpt lat="44.425486194766634" lon="8.425335171281292"><ele>519.0</ele><time>2026-05-01T11:58:46Z</time></trkpt><trkpt lat="44.425491229603665" lon="8.425241978458686"><ele>519.0</ele><time>2026-05-01T11:58:47Z</time></trkpt><trkpt lat="44.42551828934781" lon="8.42513259986943"><ele>519.0</ele><time>2026-05-01T11:58:48Z</time></trkpt><trkpt lat="44.42557077079939" lon="8.424993328467668"><ele>519.0</ele><time>2026-05-01T11:58:49Z</time></trkpt><trkpt lat="44.42561373777911" lon="8.424852073228566"><ele>519.0</ele><time>2026-05-01T11:58:50Z</time></trkpt><trkpt lat="44.425652670690674" lon="8.424735264712277"><ele>519.0</ele><time>2026-05-01T11:58:51Z</time></trkpt><trkpt lat="44.42566653217002" lon="8.424620165460627"><ele>521.75</ele><time>2026-05-01T11:58:52Z</time></trkpt><trkpt lat="44.4256567710068" lon="8.424471842276786"><ele>524.5</ele><time>2026-05-01T11:58:53Z</time></trkpt><trkpt lat="44.42565146017749" lon="8.42430921347874"><ele>527.25</ele><time>2026-05-01T11:58:54Z</time></trkpt><trkpt lat="44.42565221923844" lon="8.424144520432927"><ele>530.0</ele><time>2026-05-01T11:58:55Z</time></trkpt><trkpt lat="44.42568011017127" lon="8.423989366469483"><ele>530.0</ele><time>2026-05-01T11:58:56Z</time></trkpt><trkpt lat="44.425689721764456" lon="8.423849836509241"><ele>530.0</ele><time>2026-05-01T11:58:57Z</time></trkpt><trkpt lat="44.42572539326206" lon="8.423711665742141"><ele>530.0</ele><time>2026-05-01T11:58:58Z</time></trkpt><trkpt lat="44.425766800724375" lon="8.423552160846212"><ele>530.0</ele><time>2026-05-01T11:58:59Z</time></trkpt><trkpt lat="44.425813906678606" lon="8.423428245987832"><ele>530.0</ele><time>2026-05-01T11:59:00Z</time></trkpt><trkpt lat="44.425850302842846" lon="8.423343169530268"><ele>531.3333333333333</ele><time>2026-05-01T11:59:01Z</time></trkpt><trkpt lat="44.42584393411531" lon="8.423189054674193"><ele>532.6666666666666</ele><time>2026-05-01T11:59:03Z</time></trkpt><trkpt lat="44.42580294226696" lon="8.423114565954684"><ele>534.0</ele><time>2026-05-01T11:59:04Z</time></trkpt><trkpt lat="44.42573537799394" lon="8.423063897804806"><ele>535.3333333333334</ele><time>2026-05-01T11:59:05Z</time></trkpt><trkpt lat="44.425673950892225" lon="8.423007671155545"><ele>536.6666666666667</ele><time>2026-05-01T11:59:06Z</time></trkpt><trkpt lat="44.42559477215792" lon="8.423014965867836"><ele>538.0</ele><time>2026-05-01T11:59:07Z</time></trkpt><trkpt lat="44.425523596246826" lon="8.423086986022138"><ele>541.8333333333334</ele><time>2026-05-01T11:59:08Z</time></trkpt><trkpt lat="44.42544273786279" lon="8.423106664211657"><ele>545.6666666666667</ele><time>2026-05-01T11:59:09Z</time></trkpt><trkpt lat="44.425368202886794" lon="8.423098461889959"><ele>549.5</ele><time>2026-05-01T11:59:10Z</time></trkpt><trkpt lat="44.425297046499864" lon="8.423091764254973"><ele>553.3333333333334</ele><time>2026-05-01T11:59:11Z</time></trkpt><trkpt lat="44.425232724903324" lon="8.423080031852377"><ele>557.1666666666666</ele><time>2026-05-01T11:59:12Z</time></trkpt><trkpt lat="44.42515462791213" lon="8.42307891097205"><ele>561.0</ele><time>2026-05-01T11:59:13Z</time></trkpt><trkpt lat="44.425063220421514" lon="8.423042230338913"><ele>561.0</ele><time>2026-05-01T11:59:15Z</time></trkpt><trkpt lat="44.42499864498238" lon="8.423086003067686"><ele>561.0</ele><time>2026-05-01T11:59:17Z</time></trkpt><trkpt lat="44.424931925188105" lon="8.423218430691787"><ele>561.0</ele><time>2026-05-01T11:59:19Z</time></trkpt><trkpt lat="44.424918662086164" lon="8.423342890976992"><ele>561.0</ele><time>2026-05-01T11:59:20Z</time></trkpt><trkpt lat="44.42490319288332" lon="8.423459732710212"><ele>561.0</ele><time>2026-05-01T11:59:21Z</time></trkpt><trkpt lat="44.42487511974217" lon="8.423590211236753"><ele>561.0</ele><time>2026-05-01T11:59:22Z</time></trkpt><trkpt lat="44.424846051609414" lon="8.423715661435917"><ele>561.0</ele><time>2026-05-01T11:59:23Z</time></trkpt><trkpt lat="44.424825406229374" lon="8.423829454009391"><ele>561.0</ele><time>2026-05-01T11:59:24Z</time></trkpt><trkpt lat="44.42478116521349" lon="8.423910149821253"><ele>561.0</ele><time>2026-05-01T11:59:25Z</time></trkpt><trkpt lat="44.42472740342555" lon="8.424003682910618"><ele>561.0</ele><time>2026-05-01T11:59:26Z</time></trkpt><trkpt lat="44.42464380741" lon="8.424104520614721"><ele>561.0</ele><time>2026-05-01T11:59:27Z</time></trkpt><trkpt lat="44.42456728909713" lon="8.424209470484216"><ele>562.0</ele><time>2026-05-01T11:59:28Z</time></trkpt><trkpt lat="44.42449638842074" lon="8.424315723394288"><ele>563.0</ele><time>2026-05-01T11:59:29Z</time></trkpt><trkpt lat="44.42442842400241" lon="8.424440600940503"><ele>564.0</ele><time>2026-05-01T11:59:30Z</time></trkpt><trkpt lat="44.42436244825936" lon="8.424560730555523"><ele>565.0</ele><time>2026-05-01T11:59:31Z</time></trkpt><trkpt lat="44.42432007845205" lon="8.424641031108749"><ele>566.0</ele><time>2026-05-01T11:59:32Z</time></trkpt><trkpt lat="44.424229449055325" lon="8.424682436635337"><ele>567.2</ele><time>2026-05-01T11:59:34Z</time></trkpt><trkpt lat="44.424094372340114" lon="8.424684635378725"><ele>568.4000000000001</ele><time>2026-05-01T11:59:36Z</time></trkpt><trkpt lat="44.42399619644741" lon="8.424701532440718"><ele>569.6</ele><time>2026-05-01T11:59:37Z</time></trkpt><trkpt lat="44.42389659570745" lon="8.424713983053515"><ele>570.8000000000001</ele><time>2026-05-01T11:59:38Z</time></trkpt><trkpt lat="44.423801659665244" lon="8.424761251596236"><ele>572.0</ele><time>2026-05-01T11:59:39Z</time></trkpt><trkpt lat="44.4237076970542" lon="8.424791476421673"><ele>572.0</ele><time>2026-05-01T11:59:40Z</time></trkpt><trkpt lat="44.42363468916258" lon="8.424860351273614"><ele>572.0</ele><time>2026-05-01T11:59:41Z</time></trkpt><trkpt lat="44.423565715715796" lon="8.42489739887389"><ele>572.0</ele><time>2026-05-01T11:59:42Z</time></trkpt><trkpt lat="44.423475257143295" lon="8.424993047645257"><ele>572.0</ele><time>2026-05-01T11:59:44Z</time></trkpt><trkpt lat="44.423458927938604" lon="8.425099914200025"><ele>572.0</ele><time>2026-05-01T11:59:45Z</time></trkpt><trkpt lat="44.423441887437775" lon="8.42523694082576"><ele>572.0</ele><time>2026-05-01T11:59:46Z</time></trkpt><trkpt lat="44.423390312219446" lon="8.425358657886518"><ele>572.0</ele><time>2026-05-01T11:59:47Z</time></trkpt><trkpt lat="44.423326242257694" lon="8.425425299666209"><ele>572.0</ele><time>2026-05-01T11:59:48Z</time></trkpt><trkpt lat="44.42323107990401" lon="8.425362835704576"><ele>572.0</ele><time>2026-05-01T11:59:49Z</time></trkpt><trkpt lat="44.42314781879238" lon="8.42539575812801"><ele>572.0</ele><time>2026-05-01T11:59:50Z</time></trkpt><trkpt lat="44.423066266910034" lon="8.425416575023315"><ele>572.0</ele><time>2026-05-01T11:59:51Z</time></trkpt><trkpt lat="44.42298308660243" lon="8.425441158726528"><ele>572.0</ele><time>2026-05-01T11:59:52Z</time></trkpt><trkpt lat="44.422921969938145" lon="8.425501350540141"><ele>572.0</ele><time>2026-05-01T11:59:53Z</time></trkpt><trkpt lat="44.422849259504076" lon="8.4255316600501"><ele>572.0</ele><time>2026-05-01T11:59:54Z</time></trkpt><trkpt lat="44.422808947041126" lon="8.425417869909253"><ele>572.0</ele><time>2026-05-01T11:59:56Z</time></trkpt><trkpt lat="44.42280278485957" lon="8.425316974837694"><ele>572.0</ele><time>2026-05-01T11:59:58Z</time></trkpt><trkpt lat="44.42276977049177" lon="8.425205867470616"><ele>573.1666666666666</ele><time>2026-05-01T11:59:59Z</time></trkpt><trkpt lat="44.422746574805245" lon="8.425107730677903"><ele>574.3333333333333</ele><time>2026-05-01T12:00:00Z</time></trkpt><trkpt lat="44.42272302644049" lon="8.425024383250568"><ele>575.5</ele><time>2026-05-01T12:00:01Z</time></trkpt><trkpt lat="44.422676435069114" lon="8.42495779460484"><ele>576.6666666666666</ele><time>2026-05-01T12:00:02Z</time></trkpt><trkpt lat="44.422595360137024" lon="8.42493177652266"><ele>577.8333333333334</ele><time>2026-05-01T12:00:04Z</time></trkpt><trkpt lat="44.422445465469195" lon="8.424978125586442"><ele>579.0</ele><time>2026-05-01T12:00:06Z</time></trkpt><trkpt lat="44.422362108790495" lon="8.425071180533681"><ele>579.0</ele><time>2026-05-01T12:00:07Z</time></trkpt><trkpt lat="44.42229467900962" lon="8.425143238493945"><ele>579.0</ele><time>2026-05-01T12:00:08Z</time></trkpt><trkpt lat="44.422236274875914" lon="8.42520641696006"><ele>579.0</ele><time>2026-05-01T12:00:09Z</time></trkpt><trkpt lat="44.42217043020919" lon="8.425277106141078"><ele>579.0</ele><time>2026-05-01T12:00:10Z</time></trkpt><trkpt lat="44.422109656540094" lon="8.425331816765864"><ele>579.0</ele><time>2026-05-01T12:00:11Z</time></trkpt><trkpt lat="44.42204088014666" lon="8.425374247930916"><ele>579.0</ele><time>2026-05-01T12:00:12Z</time></trkpt><trkpt lat="44.42196643104818" lon="8.425393747613564"><ele>578.0</ele><time>2026-05-01T12:00:13Z</time></trkpt><trkpt lat="44.42184586327772" lon="8.425418040363512"><ele>577.0</ele><time>2026-05-01T12:00:15Z</time></trkpt><trkpt lat="44.42172407121258" lon="8.425421659591397"><ele>576.0</ele><time>2026-05-01T12:00:17Z</time></trkpt><trkpt lat="44.42160480457249" lon="8.425343585350163"><ele>575.0</ele><time>2026-05-01T12:00:19Z</time></trkpt><trkpt lat="44.42148835995033" lon="8.425284880195234"><ele>575.0</ele><time>2026-05-01T12:00:21Z</time></trkpt><trkpt lat="44.421411318869154" lon="8.42529652172863"><ele>575.0</ele><time>2026-05-01T12:00:22Z</time></trkpt><trkpt lat="44.421332414788246" lon="8.425330522761698"><ele>575.0</ele><time>2026-05-01T12:00:23Z</time></trkpt><trkpt lat="44.42125612510388" lon="8.42538264187997"><ele>575.0</ele><time>2026-05-01T12:00:24Z</time></trkpt><trkpt lat="44.4211858058929" lon="8.425415168975192"><ele>575.0</ele><time>2026-05-01T12:00:25Z</time></trkpt><trkpt lat="44.42111676764068" lon="8.425378945443944"><ele>575.0</ele><time>2026-05-01T12:00:26Z</time></trkpt><trkpt lat="44.421033692598535" lon="8.42535599898074"><ele>575.0</ele><time>2026-05-01T12:00:27Z</time></trkpt><trkpt lat="44.420963688782294" lon="8.425315912861624"><ele>575.0</ele><time>2026-05-01T12:00:28Z</time></trkpt><trkpt lat="44.42088120109393" lon="8.425405282630383"><ele>575.0</ele><time>2026-05-01T12:00:30Z</time></trkpt><trkpt lat="44.4208604259574" lon="8.425503220732992"><ele>575.0</ele><time>2026-05-01T12:00:31Z</time></trkpt><trkpt lat="44.42080655520328" lon="8.42561351895218"><ele>575.0</ele><time>2026-05-01T12:00:32Z</time></trkpt><trkpt lat="44.4207726138997" lon="8.425752740436677"><ele>576.2</ele><time>2026-05-01T12:00:33Z</time></trkpt><trkpt lat="44.420732293330715" lon="8.425890877159683"><ele>577.4</ele><time>2026-05-01T12:00:34Z</time></trkpt><trkpt lat="44.420661886292" lon="8.426008744055846"><ele>578.6</ele><time>2026-05-01T12:00:35Z</time></trkpt><trkpt lat="44.420582157943215" lon="8.426099423549292"><ele>579.8</ele><time>2026-05-01T12:00:36Z</time></trkpt><trkpt lat="44.420512704041144" lon="8.426174083135573"><ele>581.0</ele><time>2026-05-01T12:00:37Z</time></trkpt><trkpt lat="44.42044568094609" lon="8.426239504487311"><ele>581.2</ele><time>2026-05-01T12:00:38Z</time></trkpt><trkpt lat="44.420375982034514" lon="8.426302802157487"><ele>581.4000000000001</ele><time>2026-05-01T12:00:39Z</time></trkpt><trkpt lat="44.42030335018083" lon="8.426381525254907"><ele>581.6</ele><time>2026-05-01T12:00:40Z</time></trkpt><trkpt lat="44.42023343598816" lon="8.426467075129858"><ele>581.8000000000001</ele><time>2026-05-01T12:00:41Z</time></trkpt><trkpt lat="44.42017859986573" lon="8.42657011003338"><ele>582.0</ele><time>2026-05-01T12:00:42Z</time></trkpt><trkpt lat="44.42011602155374" lon="8.426662506191924"><ele>582.0</ele><time>2026-05-01T12:00:43Z</time></trkpt><trkpt lat="44.420049294928866" lon="8.426716226601275"><ele>582.0</ele><time>2026-05-01T12:00:44Z</time></trkpt><trkpt lat="44.419984450266725" lon="8.426746949373506"><ele>582.0</ele><time>2026-05-01T12:00:45Z</time></trkpt><trkpt lat="44.419873584184494" lon="8.426767033692078"><ele>582.0</ele><time>2026-05-01T12:00:47Z</time></trkpt><trkpt lat="44.419788150040624" lon="8.426761273758151"><ele>582.0</ele><time>2026-05-01T12:00:48Z</time></trkpt><trkpt lat="44.419729430071634" lon="8.426793938868686"><ele>582.0</ele><time>2026-05-01T12:00:49Z</time></trkpt><trkpt lat="44.419671297941385" lon="8.42683781160924"><ele>582.2</ele><time>2026-05-01T12:00:50Z</time></trkpt><trkpt lat="44.419609243085176" lon="8.426967037780285"><ele>582.4000000000001</ele><time>2026-05-01T12:00:52Z</time></trkpt><trkpt lat="44.419568385620956" lon="8.427056317401165"><ele>582.5999999999999</ele><time>2026-05-01T12:00:53Z</time></trkpt><trkpt lat="44.419519194116866" lon="8.42717988997782"><ele>582.8</ele><time>2026-05-01T12:00:54Z</time></trkpt><trkpt lat="44.419459319029386" lon="8.42734130583613"><ele>583.0</ele><time>2026-05-01T12:00:55Z</time></trkpt><trkpt lat="44.41940171552123" lon="8.4274665224976"><ele>583.0</ele><time>2026-05-01T12:00:56Z</time></trkpt><trkpt lat="44.41934601920253" lon="8.427539331376668"><ele>583.0</ele><time>2026-05-01T12:00:57Z</time></trkpt><trkpt lat="44.41929810252235" lon="8.427631194881345"><ele>583.0</ele><time>2026-05-01T12:00:58Z</time></trkpt><trkpt lat="44.419196314098244" lon="8.427676599361837"><ele>583.0</ele><time>2026-05-01T12:00:59Z</time></trkpt><trkpt lat="44.41908312506328" lon="8.427732999832603"><ele>583.0</ele><time>2026-05-01T12:01:00Z</time></trkpt><trkpt lat="44.4189673371232" lon="8.42780948801293"><ele>583.0</ele><time>2026-05-01T12:01:01Z</time></trkpt><trkpt lat="44.41884755711067" lon="8.427806491554877"><ele>583.0</ele><time>2026-05-01T12:01:02Z</time></trkpt><trkpt lat="44.418735114832394" lon="8.4278314685603"><ele>583.0</ele><time>2026-05-01T12:01:03Z</time></trkpt><trkpt lat="44.418650930858135" lon="8.42786513041314"><ele>583.0</ele><time>2026-05-01T12:01:04Z</time></trkpt><trkpt lat="44.41857585052073" lon="8.42789880535136"><ele>583.0</ele><time>2026-05-01T12:01:05Z</time></trkpt><trkpt lat="44.418512362593795" lon="8.427934721985329"><ele>583.3333333333334</ele><time>2026-05-01T12:01:06Z</time></trkpt><trkpt lat="44.41844752730654" lon="8.42796372823102"><ele>583.6666666666667</ele><time>2026-05-01T12:01:07Z</time></trkpt><trkpt lat="44.41839581672233" lon="8.428024822749533"><ele>584.0</ele><time>2026-05-01T12:01:08Z</time></trkpt><trkpt lat="44.41836089221981" lon="8.428100919455943"><ele>584.3333333333334</ele><time>2026-05-01T12:01:09Z</time></trkpt><trkpt lat="44.41837393539674" lon="8.42825259760213"><ele>584.6666666666666</ele><time>2026-05-01T12:01:11Z</time></trkpt><trkpt lat="44.418411899473064" lon="8.428360389820376"><ele>585.0</ele><time>2026-05-01T12:01:12Z</time></trkpt><trkpt lat="44.418418536019615" lon="8.428476273998276"><ele>585.0</ele><time>2026-05-01T12:01:13Z</time></trkpt><trkpt lat="44.418430457894516" lon="8.42858608588504"><ele>585.0</ele><time>2026-05-01T12:01:14Z</time></trkpt><trkpt lat="44.41843055292338" lon="8.428692965488404"><ele>585.0</ele><time>2026-05-01T12:01:15Z</time></trkpt><trkpt lat="44.41841815339905" lon="8.428817720420751"><ele>585.0</ele><time>2026-05-01T12:01:16Z</time></trkpt><trkpt lat="44.4184025297092" lon="8.42894358969411"><ele>585.0</ele><time>2026-05-01T12:01:17Z</time></trkpt><trkpt lat="44.418374872981076" lon="8.429096297078518"><ele>585.0</ele><time>2026-05-01T12:01:18Z</time></trkpt><trkpt lat="44.41833482709205" lon="8.42928134263585"><ele>586.0</ele><time>2026-05-01T12:01:19Z</time></trkpt><trkpt lat="44.418276699770466" lon="8.429429829044407"><ele>587.0</ele><time>2026-05-01T12:01:20Z</time></trkpt><trkpt lat="44.41823548501767" lon="8.429543971979529"><ele>588.0</ele><time>2026-05-01T12:01:21Z</time></trkpt><trkpt lat="44.41819391523825" lon="8.429645805207183"><ele>589.0</ele><time>2026-05-01T12:01:22Z</time></trkpt><trkpt lat="44.41814518702491" lon="8.429738522959477"><ele>590.0</ele><time>2026-05-01T12:01:23Z</time></trkpt><trkpt lat="44.41808176573191" lon="8.429834499436065"><ele>590.6</ele><time>2026-05-01T12:01:24Z</time></trkpt><trkpt lat="44.41801957893959" lon="8.429911896782553"><ele>591.2</ele><time>2026-05-01T12:01:25Z</time></trkpt><trkpt lat="44.41795469697398" lon="8.42996242852151"><ele>591.8</ele><time>2026-05-01T12:01:26Z</time></trkpt><trkpt lat="44.417877318234616" lon="8.43000956507203"><ele>592.4</ele><time>2026-05-01T12:01:27Z</time></trkpt><trkpt lat="44.417764551737534" lon="8.430071138882287"><ele>593.0</ele><time>2026-05-01T12:01:28Z</time></trkpt><trkpt lat="44.41764339095862" lon="8.430142984084215"><ele>590.75</ele><time>2026-05-01T12:01:29Z</time></trkpt><trkpt lat="44.417517208872354" lon="8.430211519436236"><ele>588.5</ele><time>2026-05-01T12:01:30Z</time></trkpt><trkpt lat="44.41738917420273" lon="8.430266996921658"><ele>586.25</ele><time>2026-05-01T12:01:31Z</time></trkpt><trkpt lat="44.41727699404548" lon="8.430264559332228"><ele>584.0</ele><time>2026-05-01T12:01:32Z</time></trkpt><trkpt lat="44.41718535477349" lon="8.43026207322025"><ele>584.6</ele><time>2026-05-01T12:01:33Z</time></trkpt><trkpt lat="44.41709698248951" lon="8.430278787956043"><ele>585.2</ele><time>2026-05-01T12:01:34Z</time></trkpt><trkpt lat="44.41701602519095" lon="8.430250540379955"><ele>585.8000000000001</ele><time>2026-05-01T12:01:35Z</time></trkpt><trkpt lat="44.416956977762915" lon="8.4301746776214"><ele>586.4</ele><time>2026-05-01T12:01:37Z</time></trkpt><trkpt lat="44.41699518573087" lon="8.430022223529093"><ele>587.0</ele><time>2026-05-01T12:01:41Z</time></trkpt><trkpt lat="44.41704653680066" lon="8.429915440681665"><ele>587.0</ele><time>2026-05-01T12:01:42Z</time></trkpt><trkpt lat="44.41713205160538" lon="8.429801720325623"><ele>587.0</ele><time>2026-05-01T12:01:43Z</time></trkpt><trkpt lat="44.417218439331826" lon="8.429688784023874"><ele>587.0</ele><time>2026-05-01T12:01:44Z</time></trkpt><trkpt lat="44.41732627354816" lon="8.429556540185812"><ele>587.0</ele><time>2026-05-01T12:01:45Z</time></trkpt><trkpt lat="44.41743531083672" lon="8.429417280166557"><ele>589.0</ele><time>2026-05-01T12:01:46Z</time></trkpt><trkpt lat="44.41755507854248" lon="8.429285059788974"><ele>591.0</ele><time>2026-05-01T12:01:47Z</time></trkpt><trkpt lat="44.41767635999994" lon="8.429159761281324"><ele>593.0</ele><time>2026-05-01T12:01:48Z</time></trkpt><trkpt lat="44.4177784512614" lon="8.429049514333812"><ele>595.0</ele><time>2026-05-01T12:01:49Z</time></trkpt><trkpt lat="44.41786122342225" lon="8.428956745460779"><ele>595.0</ele><time>2026-05-01T12:01:50Z</time></trkpt><trkpt lat="44.417925933897486" lon="8.428849595988279"><ele>595.0</ele><time>2026-05-01T12:01:51Z</time></trkpt><trkpt lat="44.417973067928024" lon="8.4287509402207"><ele>595.0</ele><time>2026-05-01T12:01:52Z</time></trkpt><trkpt lat="44.41799278002708" lon="8.4286037767574"><ele>595.0</ele><time>2026-05-01T12:01:54Z</time></trkpt><trkpt lat="44.41792134599435" lon="8.428450265302594"><ele>595.0</ele><time>2026-05-01T12:01:56Z</time></trkpt><trkpt lat="44.4178489831966" lon="8.428374471694303"><ele>596.0</ele><time>2026-05-01T12:01:57Z</time></trkpt><trkpt lat="44.417735303327085" lon="8.428286098731322"><ele>597.0</ele><time>2026-05-01T12:01:58Z</time></trkpt><trkpt lat="44.41765928227881" lon="8.428163757875922"><ele>598.0</ele><time>2026-05-01T12:01:59Z</time></trkpt><trkpt lat="44.41760345210115" lon="8.428051517945562"><ele>599.0</ele><time>2026-05-01T12:02:00Z</time></trkpt><trkpt lat="44.41757539552803" lon="8.427925662949862"><ele>600.0</ele><time>2026-05-01T12:02:01Z</time></trkpt><trkpt lat="44.41755303802253" lon="8.427799055688107"><ele>600.0</ele><time>2026-05-01T12:02:02Z</time></trkpt><trkpt lat="44.417521003127625" lon="8.427644226539067"><ele>600.0</ele><time>2026-05-01T12:02:03Z</time></trkpt><trkpt lat="44.41749012469949" lon="8.427457654099879"><ele>600.0</ele><time>2026-05-01T12:02:04Z</time></trkpt><trkpt lat="44.417457897919356" lon="8.427301341943048"><ele>600.0</ele><time>2026-05-01T12:02:05Z</time></trkpt><trkpt lat="44.417440470243285" lon="8.427158756470417"><ele>602.0</ele><time>2026-05-01T12:02:07Z</time></trkpt><trkpt lat="44.417451507584595" lon="8.427064370975023"><ele>604.0</ele><time>2026-05-01T12:02:08Z</time></trkpt><trkpt lat="44.417505491409784" lon="8.426979583524718"><ele>606.0</ele><time>2026-05-01T12:02:09Z</time></trkpt><trkpt lat="44.41760998440089" lon="8.426913836453627"><ele>608.0</ele><time>2026-05-01T12:02:10Z</time></trkpt><trkpt lat="44.41772841724599" lon="8.426824455419988"><ele>610.0</ele><time>2026-05-01T12:02:11Z</time></trkpt><trkpt lat="44.41787063414331" lon="8.426744827861118"><ele>605.0</ele><time>2026-05-01T12:02:12Z</time></trkpt><trkpt lat="44.41798623728249" lon="8.426697059992598"><ele>600.0</ele><time>2026-05-01T12:02:13Z</time></trkpt><trkpt lat="44.41807822210587" lon="8.42665537851592"><ele>595.0</ele><time>2026-05-01T12:02:14Z</time></trkpt><trkpt lat="44.41816840636396" lon="8.426600668061534"><ele>590.0</ele><time>2026-05-01T12:02:15Z</time></trkpt><trkpt lat="44.41822404977571" lon="8.426521454812102"><ele>585.0</ele><time>2026-05-01T12:02:16Z</time></trkpt><trkpt lat="44.418267880935936" lon="8.426451914758493"><ele>585.0</ele><time>2026-05-01T12:02:17Z</time></trkpt><trkpt lat="44.41826820638543" lon="8.42634718098875"><ele>585.0</ele><time>2026-05-01T12:02:18Z</time></trkpt><trkpt lat="44.41826278994349" lon="8.426224888865203"><ele>585.0</ele><time>2026-05-01T12:02:19Z</time></trkpt><trkpt lat="44.4181967080626" lon="8.426092798908867"><ele>585.0</ele><time>2026-05-01T12:02:20Z</time></trkpt><trkpt lat="44.418142699236256" lon="8.425941489557466"><ele>585.0</ele><time>2026-05-01T12:02:21Z</time></trkpt><trkpt lat="44.41808838895362" lon="8.425772744088984"><ele>586.4</ele><time>2026-05-01T12:02:22Z</time></trkpt><trkpt lat="44.41812008708349" lon="8.425566270833404"><ele>587.8</ele><time>2026-05-01T12:02:23Z</time></trkpt><trkpt lat="44.41811035456924" lon="8.425395433936618"><ele>589.2</ele><time>2026-05-01T12:02:24Z</time></trkpt><trkpt lat="44.41811293626972" lon="8.425286507736033"><ele>590.6</ele><time>2026-05-01T12:02:25Z</time></trkpt><trkpt lat="44.41807338771298" lon="8.425200148761109"><ele>592.0</ele><time>2026-05-01T12:02:26Z</time></trkpt><trkpt lat="44.41796486594476" lon="8.425137580862057"><ele>593.3333333333334</ele><time>2026-05-01T12:02:27Z</time></trkpt><trkpt lat="44.41787656760088" lon="8.425092332639151"><ele>594.6666666666667</ele><time>2026-05-01T12:02:28Z</time></trkpt><trkpt lat="44.4177954661925" lon="8.425022567657198"><ele>596.0</ele><time>2026-05-01T12:02:29Z</time></trkpt><trkpt lat="44.41773767344403" lon="8.424939777121846"><ele>597.3333333333334</ele><time>2026-05-01T12:02:30Z</time></trkpt><trkpt lat="44.41771197491623" lon="8.424833707575369"><ele>598.6666666666666</ele><time>2026-05-01T12:02:31Z</time></trkpt><trkpt lat="44.41772851845551" lon="8.424701908238172"><ele>600.0</ele><time>2026-05-01T12:02:32Z</time></trkpt><trkpt lat="44.417734226431676" lon="8.424535889389508"><ele>600.0</ele><time>2026-05-01T12:02:33Z</time></trkpt><trkpt lat="44.417716262470684" lon="8.424374084642801"><ele>600.0</ele><time>2026-05-01T12:02:34Z</time></trkpt><trkpt lat="44.417676192758734" lon="8.424239116297514"><ele>600.0</ele><time>2026-05-01T12:02:35Z</time></trkpt><trkpt lat="44.417623264197566" lon="8.424126263780911"><ele>600.0</ele><time>2026-05-01T12:02:36Z</time></trkpt><trkpt lat="44.41755432593457" lon="8.424016058590182"><ele>600.0</ele><time>2026-05-01T12:02:37Z</time></trkpt><trkpt lat="44.41748889811588" lon="8.423904644100244"><ele>596.4</ele><time>2026-05-01T12:02:38Z</time></trkpt><trkpt lat="44.41745009413356" lon="8.42380736692357"><ele>592.8</ele><time>2026-05-01T12:02:39Z</time></trkpt><trkpt lat="44.41742423803843" lon="8.423713359399512"><ele>589.2</ele><time>2026-05-01T12:02:40Z</time></trkpt><trkpt lat="44.41740187421843" lon="8.423612407503107"><ele>585.6</ele><time>2026-05-01T12:02:41Z</time></trkpt><trkpt lat="44.41737673829879" lon="8.423377417338587"><ele>582.0</ele><time>2026-05-01T12:02:43Z</time></trkpt><trkpt lat="44.41734104357659" lon="8.423266677731492"><ele>582.0</ele><time>2026-05-01T12:02:44Z</time></trkpt><trkpt lat="44.417245307407775" lon="8.423186385950341"><ele>582.0</ele><time>2026-05-01T12:02:45Z</time></trkpt><trkpt lat="44.41718967387688" lon="8.4230989723387"><ele>582.0</ele><time>2026-05-01T12:02:46Z</time></trkpt><trkpt lat="44.41714500302717" lon="8.423022391971347"><ele>582.0</ele><time>2026-05-01T12:02:47Z</time></trkpt><trkpt lat="44.417112224223494" lon="8.422929488365362"><ele>582.0</ele><time>2026-05-01T12:02:48Z</time></trkpt><trkpt lat="44.4170932038805" lon="8.422833859825571"><ele>582.0</ele><time>2026-05-01T12:02:49Z</time></trkpt><trkpt lat="44.41713118023096" lon="8.422707311252406"><ele>579.8000000000001</ele><time>2026-05-01T12:02:50Z</time></trkpt><trkpt lat="44.4172025600414" lon="8.422596570987974"><ele>577.6</ele><time>2026-05-01T12:02:51Z</time></trkpt><trkpt lat="44.417254552907636" lon="8.422478066259094"><ele>575.4000000000001</ele><time>2026-05-01T12:02:52Z</time></trkpt><trkpt lat="44.4172770700126" lon="8.422345679150876"><ele>573.2</ele><time>2026-05-01T12:02:53Z</time></trkpt><trkpt lat="44.417276287505175" lon="8.422176121472202"><ele>571.0</ele><time>2026-05-01T12:02:54Z</time></trkpt><trkpt lat="44.417264426912666" lon="8.4219784793309"><ele>569.5</ele><time>2026-05-01T12:02:55Z</time></trkpt><trkpt lat="44.41723781265228" lon="8.421775798100919"><ele>568.0</ele><time>2026-05-01T12:02:56Z</time></trkpt><trkpt lat="44.417218787950475" lon="8.421586008118428"><ele>566.5</ele><time>2026-05-01T12:02:57Z</time></trkpt><trkpt lat="44.417225896090486" lon="8.421419810771972"><ele>565.0</ele><time>2026-05-01T12:02:58Z</time></trkpt><trkpt lat="44.41724872129642" lon="8.421236164665578"><ele>563.6666666666667</ele><time>2026-05-01T12:02:59Z</time></trkpt><trkpt lat="44.417258159356535" lon="8.421066457632268"><ele>562.3333333333334</ele><time>2026-05-01T12:03:00Z</time></trkpt><trkpt lat="44.41724892212111" lon="8.420931038873652"><ele>561.0</ele><time>2026-05-01T12:03:01Z</time></trkpt><trkpt lat="44.417233588246425" lon="8.420818271624368"><ele>559.6666666666666</ele><time>2026-05-01T12:03:02Z</time></trkpt><trkpt lat="44.41723177484607" lon="8.420727094740183"><ele>558.3333333333333</ele><time>2026-05-01T12:03:03Z</time></trkpt><trkpt lat="44.417199761793185" lon="8.420628703605962"><ele>557.0</ele><time>2026-05-01T12:03:04Z</time></trkpt><trkpt lat="44.417153122633934" lon="8.42054559368531"><ele>556.0</ele><time>2026-05-01T12:03:05Z</time></trkpt><trkpt lat="44.41704555457243" lon="8.420529987456971"><ele>555.0</ele><time>2026-05-01T12:03:06Z</time></trkpt><trkpt lat="44.41694027027302" lon="8.42051648751422"><ele>554.0</ele><time>2026-05-01T12:03:07Z</time></trkpt><trkpt lat="44.41681766946167" lon="8.420482321538644"><ele>553.0</ele><time>2026-05-01T12:03:08Z</time></trkpt><trkpt lat="44.41669242576577" lon="8.420476923655151"><ele>553.0</ele><time>2026-05-01T12:03:09Z</time></trkpt><trkpt lat="44.41657185151685" lon="8.420473509250387"><ele>553.0</ele><time>2026-05-01T12:03:10Z</time></trkpt><trkpt lat="44.41648544681259" lon="8.420468800865633"><ele>553.0</ele><time>2026-05-01T12:03:11Z</time></trkpt><trkpt lat="44.416402152396046" lon="8.420458827721044"><ele>553.0</ele><time>2026-05-01T12:03:12Z</time></trkpt><trkpt lat="44.41631350357012" lon="8.420435918415532"><ele>553.0</ele><time>2026-05-01T12:03:13Z</time></trkpt><trkpt lat="44.416228263618365" lon="8.420401071383939"><ele>555.0</ele><time>2026-05-01T12:03:14Z</time></trkpt><trkpt lat="44.41613995544879" lon="8.420358528157474"><ele>557.0</ele><time>2026-05-01T12:03:15Z</time></trkpt><trkpt lat="44.41607516866732" lon="8.4202907132832"><ele>559.0</ele><time>2026-05-01T12:03:16Z</time></trkpt><trkpt lat="44.41602294985941" lon="8.420225815524526"><ele>561.0</ele><time>2026-05-01T12:03:17Z</time></trkpt><trkpt lat="44.41598422722262" lon="8.420130558504225"><ele>563.0</ele><time>2026-05-01T12:03:18Z</time></trkpt><trkpt lat="44.41593982589555" lon="8.420020798728155"><ele>565.0</ele><time>2026-05-01T12:03:19Z</time></trkpt><trkpt lat="44.415893719502144" lon="8.419884905459835"><ele>565.0</ele><time>2026-05-01T12:03:20Z</time></trkpt><trkpt lat="44.41586948439928" lon="8.419748572086384"><ele>565.0</ele><time>2026-05-01T12:03:21Z</time></trkpt><trkpt lat="44.41587954793992" lon="8.419624888097113"><ele>565.0</ele><time>2026-05-01T12:03:22Z</time></trkpt><trkpt lat="44.41589938331487" lon="8.419535846446593"><ele>565.0</ele><time>2026-05-01T12:03:23Z</time></trkpt><trkpt lat="44.41594356549022" lon="8.419349612895843"><ele>565.0</ele><time>2026-05-01T12:03:25Z</time></trkpt><trkpt lat="44.415977467164005" lon="8.419222586799266"><ele>566.5</ele><time>2026-05-01T12:03:26Z</time></trkpt><trkpt lat="44.416031298875275" lon="8.419068910358948"><ele>568.0</ele><time>2026-05-01T12:03:27Z</time></trkpt><trkpt lat="44.41609314228243" lon="8.418898687869133"><ele>569.5</ele><time>2026-05-01T12:03:28Z</time></trkpt><trkpt lat="44.416154384965296" lon="8.4187094364647"><ele>571.0</ele><time>2026-05-01T12:03:29Z</time></trkpt><trkpt lat="44.41621148660563" lon="8.418520296101716"><ele>572.0</ele><time>2026-05-01T12:03:30Z</time></trkpt><trkpt lat="44.4162517306409" lon="8.418335067846641"><ele>573.0</ele><time>2026-05-01T12:03:31Z</time></trkpt><trkpt lat="44.416283185643344" lon="8.418185228569149"><ele>574.0</ele><time>2026-05-01T12:03:32Z</time></trkpt><trkpt lat="44.41631381254395" lon="8.418054155583361"><ele>575.0</ele><time>2026-05-01T12:03:33Z</time></trkpt><trkpt lat="44.41632116528314" lon="8.417929840972551"><ele>576.0</ele><time>2026-05-01T12:03:34Z</time></trkpt><trkpt lat="44.41631391932253" lon="8.417772637056007"><ele>576.5</ele><time>2026-05-01T12:03:35Z</time></trkpt><trkpt lat="44.41630127912336" lon="8.417593584855517"><ele>577.0</ele><time>2026-05-01T12:03:36Z</time></trkpt><trkpt lat="44.416273174575004" lon="8.417397631264693"><ele>577.5</ele><time>2026-05-01T12:03:37Z</time></trkpt><trkpt lat="44.41624350426594" lon="8.417235950677629"><ele>578.0</ele><time>2026-05-01T12:03:38Z</time></trkpt><trkpt lat="44.41619707748965" lon="8.417083741645689"><ele>574.75</ele><time>2026-05-01T12:03:39Z</time></trkpt><trkpt lat="44.41614176904092" lon="8.41692130331761"><ele>571.5</ele><time>2026-05-01T12:03:40Z</time></trkpt><trkpt lat="44.41607953798238" lon="8.416771037789887"><ele>568.25</ele><time>2026-05-01T12:03:41Z</time></trkpt><trkpt lat="44.41600740418326" lon="8.416643002074274"><ele>565.0</ele><time>2026-05-01T12:03:42Z</time></trkpt><trkpt lat="44.415918852359084" lon="8.41651828954744"><ele>565.0</ele><time>2026-05-01T12:03:43Z</time></trkpt><trkpt lat="44.41582697896275" lon="8.416421412829356"><ele>565.0</ele><time>2026-05-01T12:03:44Z</time></trkpt><trkpt lat="44.41571021386631" lon="8.41634332780952"><ele>565.0</ele><time>2026-05-01T12:03:45Z</time></trkpt><trkpt lat="44.41556970937834" lon="8.416274683998738"><ele>565.0</ele><time>2026-05-01T12:03:46Z</time></trkpt><trkpt lat="44.41541990747323" lon="8.41620629239445"><ele>564.75</ele><time>2026-05-01T12:03:47Z</time></trkpt><trkpt lat="44.41530107124691" lon="8.416114013633036"><ele>564.5</ele><time>2026-05-01T12:03:48Z</time></trkpt><trkpt lat="44.41519859935755" lon="8.416028333840558"><ele>564.25</ele><time>2026-05-01T12:03:49Z</time></trkpt><trkpt lat="44.41511051670478" lon="8.415944852567657"><ele>564.0</ele><time>2026-05-01T12:03:50Z</time></trkpt><trkpt lat="44.41502737282265" lon="8.415841401563384"><ele>564.0</ele><time>2026-05-01T12:03:51Z</time></trkpt><trkpt lat="44.414938035676045" lon="8.415699381453965"><ele>564.0</ele><time>2026-05-01T12:03:52Z</time></trkpt><trkpt lat="44.41483510359467" lon="8.415542067686808"><ele>564.0</ele><time>2026-05-01T12:03:53Z</time></trkpt><trkpt lat="44.414712958308556" lon="8.415394744158494"><ele>564.0</ele><time>2026-05-01T12:03:54Z</time></trkpt><trkpt lat="44.414606202515834" lon="8.41523111610302"><ele>564.0</ele><time>2026-05-01T12:03:55Z</time></trkpt><trkpt lat="44.41452676996902" lon="8.415105911806254"><ele>564.0</ele><time>2026-05-01T12:03:56Z</time></trkpt><trkpt lat="44.41447379652206" lon="8.415006214995643"><ele>564.0</ele><time>2026-05-01T12:03:57Z</time></trkpt><trkpt lat="44.4144387862012" lon="8.414930974953728"><ele>564.0</ele><time>2026-05-01T12:03:58Z</time></trkpt><trkpt lat="44.414423715441" lon="8.414822242445485"><ele>564.0</ele><time>2026-05-01T12:04:01Z</time></trkpt><trkpt lat="44.41435883005632" lon="8.41470305684164"><ele>568.25</ele><time>2026-05-01T12:04:04Z</time></trkpt><trkpt lat="44.414269137826516" lon="8.414639859530707"><ele>572.5</ele><time>2026-05-01T12:04:05Z</time></trkpt><trkpt lat="44.4141701972069" lon="8.414575135732028"><ele>576.75</ele><time>2026-05-01T12:04:06Z</time></trkpt><trkpt lat="44.414061604792536" lon="8.414504415588135"><ele>581.0</ele><time>2026-05-01T12:04:07Z</time></trkpt><trkpt lat="44.4139530019321" lon="8.414427326524933"><ele>581.0</ele><time>2026-05-01T12:04:08Z</time></trkpt><trkpt lat="44.41382851847238" lon="8.41434567985794"><ele>581.0</ele><time>2026-05-01T12:04:09Z</time></trkpt><trkpt lat="44.413696115514156" lon="8.414268230139198"><ele>581.0</ele><time>2026-05-01T12:04:10Z</time></trkpt><trkpt lat="44.41356195287736" lon="8.414184463312024"><ele>581.0</ele><time>2026-05-01T12:04:11Z</time></trkpt><trkpt lat="44.41341948441081" lon="8.414093772290288"><ele>575.3333333333333</ele><time>2026-05-01T12:04:12Z</time></trkpt><trkpt lat="44.41328221404496" lon="8.414003163419194"><ele>569.6666666666666</ele><time>2026-05-01T12:04:13Z</time></trkpt><trkpt lat="44.41313769459304" lon="8.413910380839274"><ele>564.0</ele><time>2026-05-01T12:04:14Z</time></trkpt><trkpt lat="44.41298892790613" lon="8.413813315739997"><ele>564.0</ele><time>2026-05-01T12:04:15Z</time></trkpt><trkpt lat="44.412825439046664" lon="8.413708946158044"><ele>564.0</ele><time>2026-05-01T12:04:16Z</time></trkpt><trkpt lat="44.412660621721436" lon="8.413602235689938"><ele>564.0</ele><time>2026-05-01T12:04:17Z</time></trkpt><trkpt lat="44.412520335018684" lon="8.41350467243941"><ele>564.0</ele><time>2026-05-01T12:04:18Z</time></trkpt><trkpt lat="44.41239647510883" lon="8.413405908842128"><ele>564.0</ele><time>2026-05-01T12:04:19Z</time></trkpt><trkpt lat="44.41228730780332" lon="8.413310143505099"><ele>564.0</ele><time>2026-05-01T12:04:20Z</time></trkpt><trkpt lat="44.41218487167001" lon="8.41325392245903"><ele>564.0</ele><time>2026-05-01T12:04:21Z</time></trkpt><trkpt lat="44.41206670999833" lon="8.41324698104504"><ele>564.25</ele><time>2026-05-01T12:04:22Z</time></trkpt><trkpt lat="44.41193428766972" lon="8.413278617429292"><ele>564.5</ele><time>2026-05-01T12:04:23Z</time></trkpt><trkpt lat="44.411790660156235" lon="8.413333514076097"><ele>564.75</ele><time>2026-05-01T12:04:24Z</time></trkpt><trkpt lat="44.411646685929796" lon="8.413406469054754"><ele>565.0</ele><time>2026-05-01T12:04:25Z</time></trkpt><trkpt lat="44.4115011873804" lon="8.413490337479477"><ele>565.0</ele><time>2026-05-01T12:04:26Z</time></trkpt><trkpt lat="44.411370493543686" lon="8.413566860105954"><ele>565.0</ele><time>2026-05-01T12:04:27Z</time></trkpt><trkpt lat="44.41125797711472" lon="8.413632720155931"><ele>565.0</ele><time>2026-05-01T12:04:28Z</time></trkpt><trkpt lat="44.41115639207992" lon="8.413690686333084"><ele>565.0</ele><time>2026-05-01T12:04:29Z</time></trkpt><trkpt lat="44.41105721461914" lon="8.413739148444524"><ele>566.3333333333334</ele><time>2026-05-01T12:04:30Z</time></trkpt><trkpt lat="44.41096708287089" lon="8.41378331014916"><ele>567.6666666666667</ele><time>2026-05-01T12:04:31Z</time></trkpt><trkpt lat="44.41089666599978" lon="8.413818459161593"><ele>569.0</ele><time>2026-05-01T12:04:32Z</time></trkpt><trkpt lat="44.410820790419955" lon="8.413856260463831"><ele>570.3333333333334</ele><time>2026-05-01T12:04:34Z</time></trkpt><trkpt lat="44.41090075630988" lon="8.413899029272331"><ele>571.6666666666666</ele><time>2026-05-01T12:05:07Z</time></trkpt><trkpt lat="44.410985708314826" lon="8.413951489302491"><ele>573.0</ele><time>2026-05-01T12:05:09Z</time></trkpt><trkpt lat="44.41107706776192" lon="8.413971121002588"><ele>573.0</ele><time>2026-05-01T12:05:10Z</time></trkpt><trkpt lat="44.41120932560703" lon="8.413988165367186"><ele>573.0</ele><time>2026-05-01T12:05:11Z</time></trkpt><trkpt lat="44.411341094187456" lon="8.414002213712386"><ele>573.0</ele><time>2026-05-01T12:05:12Z</time></trkpt><trkpt lat="44.411450989201" lon="8.414016496067537"><ele>573.0</ele><time>2026-05-01T12:05:13Z</time></trkpt><trkpt lat="44.41156382932694" lon="8.414030194393252"><ele>572.0</ele><time>2026-05-01T12:05:14Z</time></trkpt><trkpt lat="44.41166842025378" lon="8.414035920772761"><ele>571.0</ele><time>2026-05-01T12:05:15Z</time></trkpt><trkpt lat="44.411950246420524" lon="8.41399102728687"><ele>570.0</ele><time>2026-05-01T12:05:16Z</time></trkpt><trkpt lat="44.41208112082853" lon="8.413900345430855"><ele>570.0</ele><time>2026-05-01T12:05:17Z</time></trkpt><trkpt lat="44.41215411671121" lon="8.413854581533641"><ele>570.0</ele><time>2026-05-01T12:05:18Z</time></trkpt><trkpt lat="44.4122366390711" lon="8.413824606777219"><ele>570.0</ele><time>2026-05-01T12:05:19Z</time></trkpt><trkpt lat="44.41265987631945" lon="8.413624048860445"><ele>568.0</ele><time>2026-05-01T12:05:23Z</time></trkpt><trkpt lat="44.412816801490344" lon="8.413743219401823"><ele>566.0</ele><time>2026-05-01T12:05:24Z</time></trkpt><trkpt lat="44.41299677956189" lon="8.413859385154737"><ele>564.0</ele><time>2026-05-01T12:05:25Z</time></trkpt><trkpt lat="44.413191757769376" lon="8.413985761369563"><ele>563.6666666666666</ele><time>2026-05-01T12:05:26Z</time></trkpt><trkpt lat="44.41338857304142" lon="8.414106159983127"><ele>563.3333333333333</ele><time>2026-05-01T12:05:27Z</time></trkpt><trkpt lat="44.4135957587555" lon="8.414231543984007"><ele>563.0</ele><time>2026-05-01T12:05:28Z</time></trkpt><trkpt lat="44.41380551653643" lon="8.414361106887652"><ele>572.0</ele><time>2026-05-01T12:05:29Z</time></trkpt><trkpt lat="44.41401243109018" lon="8.414494998433053"><ele>581.0</ele><time>2026-05-01T12:05:30Z</time></trkpt><trkpt lat="44.4142131358241" lon="8.414632013764487"><ele>579.0</ele><time>2026-05-01T12:05:31Z</time></trkpt><trkpt lat="44.414413640032045" lon="8.414787746791912"><ele>577.0</ele><time>2026-05-01T12:05:32Z</time></trkpt><trkpt lat="44.41458264960183" lon="8.414935080939987"><ele>575.0</ele><time>2026-05-01T12:05:33Z</time></trkpt><trkpt lat="44.41473912784244" lon="8.415065620963174"><ele>575.0</ele><time>2026-05-01T12:05:34Z</time></trkpt><trkpt lat="44.414904707455534" lon="8.41518120408393"><ele>575.0</ele><time>2026-05-01T12:05:35Z</time></trkpt><trkpt lat="44.4150773234454" lon="8.41528535043542"><ele>575.0</ele><time>2026-05-01T12:05:36Z</time></trkpt><trkpt lat="44.41524606388581" lon="8.41537103813738"><ele>575.0</ele><time>2026-05-01T12:05:37Z</time></trkpt><trkpt lat="44.415406749269835" lon="8.415463726233437"><ele>575.0</ele><time>2026-05-01T12:05:38Z</time></trkpt><trkpt lat="44.415561027154915" lon="8.415526024251697"><ele>575.0</ele><time>2026-05-01T12:05:39Z</time></trkpt><trkpt lat="44.41573089007594" lon="8.41556365729469"><ele>571.6666666666666</ele><time>2026-05-01T12:05:40Z</time></trkpt><trkpt lat="44.415919403907075" lon="8.415581235536607"><ele>568.3333333333334</ele><time>2026-05-01T12:05:41Z</time></trkpt><trkpt lat="44.41610008259482" lon="8.415599376949888"><ele>565.0</ele><time>2026-05-01T12:05:42Z</time></trkpt><trkpt lat="44.41629643631228" lon="8.415615851397677"><ele>567.6666666666667</ele><time>2026-05-01T12:05:43Z</time></trkpt><trkpt lat="44.41647113882999" lon="8.415650140495805"><ele>570.3333333333334</ele><time>2026-05-01T12:05:44Z</time></trkpt><trkpt lat="44.41665512473585" lon="8.415727986015902"><ele>573.0</ele><time>2026-05-01T12:05:45Z</time></trkpt><trkpt lat="44.41683760131588" lon="8.415801743895111"><ele>573.0</ele><time>2026-05-01T12:05:46Z</time></trkpt><trkpt lat="44.41701590361038" lon="8.415924744810347"><ele>573.0</ele><time>2026-05-01T12:05:47Z</time></trkpt><trkpt lat="44.4171389430254" lon="8.416061431704478"><ele>573.0</ele><time>2026-05-01T12:05:48Z</time></trkpt><trkpt lat="44.417245909476854" lon="8.416262727336433"><ele>575.0</ele><time>2026-05-01T12:05:49Z</time></trkpt><trkpt lat="44.41734790465424" lon="8.41650908298424"><ele>577.0</ele><time>2026-05-01T12:05:50Z</time></trkpt><trkpt lat="44.41746765722842" lon="8.4167513878004"><ele>579.0</ele><time>2026-05-01T12:05:51Z</time></trkpt><trkpt lat="44.41758497684196" lon="8.416989655759632"><ele>577.0</ele><time>2026-05-01T12:05:52Z</time></trkpt><trkpt lat="44.417700625864725" lon="8.417243548074683"><ele>575.0</ele><time>2026-05-01T12:05:53Z</time></trkpt><trkpt lat="44.41781180668713" lon="8.417508396059924"><ele>573.0</ele><time>2026-05-01T12:05:54Z</time></trkpt><trkpt lat="44.417920516989426" lon="8.417750709782245"><ele>576.3333333333334</ele><time>2026-05-01T12:05:55Z</time></trkpt><trkpt lat="44.418039494985145" lon="8.41796839599426"><ele>579.6666666666667</ele><time>2026-05-01T12:05:56Z</time></trkpt><trkpt lat="44.41817821911474" lon="8.418168449805755"><ele>583.0</ele><time>2026-05-01T12:05:57Z</time></trkpt><trkpt lat="44.41832117189" lon="8.418341274088204"><ele>583.0</ele><time>2026-05-01T12:05:58Z</time></trkpt><trkpt lat="44.41845341318139" lon="8.418507769473235"><ele>583.0</ele><time>2026-05-01T12:05:59Z</time></trkpt><trkpt lat="44.418557829741644" lon="8.418708364681626"><ele>583.0</ele><time>2026-05-01T12:06:00Z</time></trkpt><trkpt lat="44.41865662305433" lon="8.418936093982618"><ele>584.3333333333334</ele><time>2026-05-01T12:06:01Z</time></trkpt><trkpt lat="44.418767202099694" lon="8.419172205882749"><ele>585.6666666666666</ele><time>2026-05-01T12:06:02Z</time></trkpt><trkpt lat="44.418872110993874" lon="8.41942538270526"><ele>587.0</ele><time>2026-05-01T12:06:03Z</time></trkpt><trkpt lat="44.41897941531986" lon="8.419684306711016"><ele>587.0</ele><time>2026-05-01T12:06:04Z</time></trkpt><trkpt lat="44.419080043882744" lon="8.419903388442625"><ele>587.0</ele><time>2026-05-01T12:06:05Z</time></trkpt><trkpt lat="44.41918709603109" lon="8.420103947382385"><ele>587.0</ele><time>2026-05-01T12:06:06Z</time></trkpt><trkpt lat="44.41929178305415" lon="8.420292025043203"><ele>587.0</ele><time>2026-05-01T12:06:07Z</time></trkpt><trkpt lat="44.419370661412316" lon="8.420464660629161"><ele>587.0</ele><time>2026-05-01T12:06:08Z</time></trkpt><trkpt lat="44.419430036764545" lon="8.420620242426484"><ele>587.0</ele><time>2026-05-01T12:06:09Z</time></trkpt><trkpt lat="44.41949817160097" lon="8.420741459477355"><ele>587.0</ele><time>2026-05-01T12:06:10Z</time></trkpt><trkpt lat="44.41958907017508" lon="8.420814589160477"><ele>586.0</ele><time>2026-05-01T12:06:11Z</time></trkpt><trkpt lat="44.419703061986546" lon="8.420837748282388"><ele>585.0</ele><time>2026-05-01T12:06:12Z</time></trkpt><trkpt lat="44.41982464776893" lon="8.42080908782078"><ele>584.0</ele><time>2026-05-01T12:06:13Z</time></trkpt><trkpt lat="44.41993597020094" lon="8.420728644783104"><ele>583.0</ele><time>2026-05-01T12:06:14Z</time></trkpt><trkpt lat="44.42003610681112" lon="8.420607632836502"><ele>589.3333333333334</ele><time>2026-05-01T12:06:15Z</time></trkpt><trkpt lat="44.420120547130225" lon="8.42044508442367"><ele>595.6666666666666</ele><time>2026-05-01T12:06:16Z</time></trkpt><trkpt lat="44.420205589676335" lon="8.420244964481716"><ele>602.0</ele><time>2026-05-01T12:06:17Z</time></trkpt><trkpt lat="44.420298176876976" lon="8.4200438586678"><ele>602.0</ele><time>2026-05-01T12:06:18Z</time></trkpt><trkpt lat="44.42041060367815" lon="8.419850916379177"><ele>602.0</ele><time>2026-05-01T12:06:19Z</time></trkpt><trkpt lat="44.42051420741768" lon="8.419654307526518"><ele>602.0</ele><time>2026-05-01T12:06:20Z</time></trkpt><trkpt lat="44.42058996846705" lon="8.41944996489443"><ele>599.75</ele><time>2026-05-01T12:06:21Z</time></trkpt><trkpt lat="44.420626223513025" lon="8.419261246838795"><ele>597.5</ele><time>2026-05-01T12:06:22Z</time></trkpt><trkpt lat="44.42063835016596" lon="8.419085918583418"><ele>595.25</ele><time>2026-05-01T12:06:23Z</time></trkpt><trkpt lat="44.42062215035871" lon="8.418937998814586"><ele>593.0</ele><time>2026-05-01T12:06:24Z</time></trkpt><trkpt lat="44.420574317792344" lon="8.418807443653662"><ele>592.6666666666666</ele><time>2026-05-01T12:06:25Z</time></trkpt><trkpt lat="44.42048794582592" lon="8.418668842464944"><ele>592.3333333333334</ele><time>2026-05-01T12:06:26Z</time></trkpt><trkpt lat="44.42036625101187" lon="8.418530069384955"><ele>592.0</ele><time>2026-05-01T12:06:27Z</time></trkpt><trkpt lat="44.42022240281458" lon="8.418385358772955"><ele>595.3333333333334</ele><time>2026-05-01T12:06:28Z</time></trkpt><trkpt lat="44.42007271042043" lon="8.418243810697339"><ele>598.6666666666666</ele><time>2026-05-01T12:06:29Z</time></trkpt><trkpt lat="44.41994130322613" lon="8.418131735208167"><ele>602.0</ele><time>2026-05-01T12:06:30Z</time></trkpt><trkpt lat="44.41986267513889" lon="8.4180039900929"><ele>600.75</ele><time>2026-05-01T12:06:31Z</time></trkpt><trkpt lat="44.41984710038191" lon="8.417832136887686"><ele>599.5</ele><time>2026-05-01T12:06:32Z</time></trkpt><trkpt lat="44.419833133860465" lon="8.41766313742586"><ele>598.25</ele><time>2026-05-01T12:06:33Z</time></trkpt><trkpt lat="44.4198616687842" lon="8.417457453233018"><ele>597.0</ele><time>2026-05-01T12:06:34Z</time></trkpt><trkpt lat="44.41993901554275" lon="8.417247040191423"><ele>599.0</ele><time>2026-05-01T12:06:35Z</time></trkpt><trkpt lat="44.42003694135809" lon="8.417051492701692"><ele>601.0</ele><time>2026-05-01T12:06:36Z</time></trkpt><trkpt lat="44.42013411163776" lon="8.416828454680076"><ele>603.0</ele><time>2026-05-01T12:06:37Z</time></trkpt><trkpt lat="44.42023216709152" lon="8.416614222279156"><ele>603.0</ele><time>2026-05-01T12:06:38Z</time></trkpt><trkpt lat="44.420288977556275" lon="8.416410460703618"><ele>603.0</ele><time>2026-05-01T12:06:39Z</time></trkpt><trkpt lat="44.4203451204315" lon="8.416214949770518"><ele>603.0</ele><time>2026-05-01T12:06:40Z</time></trkpt><trkpt lat="44.42041259370095" lon="8.416016412000282"><ele>600.3333333333334</ele><time>2026-05-01T12:06:41Z</time></trkpt><trkpt lat="44.42049998098673" lon="8.415817645920297"><ele>597.6666666666667</ele><time>2026-05-01T12:06:42Z</time></trkpt><trkpt lat="44.420620135796945" lon="8.415643601900479"><ele>595.0</ele><time>2026-05-01T12:06:43Z</time></trkpt><trkpt lat="44.42072266493271" lon="8.41551362844105"><ele>598.0</ele><time>2026-05-01T12:06:44Z</time></trkpt><trkpt lat="44.42081378175035" lon="8.415427855714952"><ele>601.0</ele><time>2026-05-01T12:06:45Z</time></trkpt><trkpt lat="44.42091671199048" lon="8.415370757293823"><ele>604.0</ele><time>2026-05-01T12:06:46Z</time></trkpt><trkpt lat="44.421040393163224" lon="8.415339798067548"><ele>607.0</ele><time>2026-05-01T12:06:47Z</time></trkpt><trkpt lat="44.42119662264109" lon="8.41531354100286"><ele>602.3333333333334</ele><time>2026-05-01T12:06:48Z</time></trkpt><trkpt lat="44.42135691632438" lon="8.415278422212584"><ele>597.6666666666666</ele><time>2026-05-01T12:06:49Z</time></trkpt><trkpt lat="44.42153840356146" lon="8.415213287116757"><ele>593.0</ele><time>2026-05-01T12:06:50Z</time></trkpt><trkpt lat="44.42166922040915" lon="8.415159486108855"><ele>593.0</ele><time>2026-05-01T12:06:51Z</time></trkpt><trkpt lat="44.421771494656056" lon="8.415086922466909"><ele>593.0</ele><time>2026-05-01T12:06:52Z</time></trkpt><trkpt lat="44.421850112748714" lon="8.414978121113117"><ele>593.0</ele><time>2026-05-01T12:06:53Z</time></trkpt><trkpt lat="44.42191938080721" lon="8.414798985215588"><ele>593.0</ele><time>2026-05-01T12:06:54Z</time></trkpt><trkpt lat="44.421979133557265" lon="8.414587694843531"><ele>595.0</ele><time>2026-05-01T12:06:55Z</time></trkpt><trkpt lat="44.422017853032564" lon="8.414343719069379"><ele>597.0</ele><time>2026-05-01T12:06:56Z</time></trkpt><trkpt lat="44.42205530030238" lon="8.414082896382087"><ele>599.0</ele><time>2026-05-01T12:06:57Z</time></trkpt><trkpt lat="44.42211259990916" lon="8.413887659866733"><ele>596.75</ele><time>2026-05-01T12:06:58Z</time></trkpt><trkpt lat="44.42217505134047" lon="8.413745904929625"><ele>594.5</ele><time>2026-05-01T12:06:59Z</time></trkpt><trkpt lat="44.42224376486785" lon="8.413646821543228"><ele>592.25</ele><time>2026-05-01T12:07:00Z</time></trkpt><trkpt lat="44.42236522013557" lon="8.41362924369208"><ele>590.0</ele><time>2026-05-01T12:07:01Z</time></trkpt><trkpt lat="44.42249552128135" lon="8.413651753522698"><ele>590.0</ele><time>2026-05-01T12:07:02Z</time></trkpt><trkpt lat="44.422653538134554" lon="8.413664131430957"><ele>590.0</ele><time>2026-05-01T12:07:03Z</time></trkpt><trkpt lat="44.42282324050025" lon="8.413713249293243"><ele>590.0</ele><time>2026-05-01T12:07:04Z</time></trkpt><trkpt lat="44.422980816528224" lon="8.413689215307294"><ele>589.3333333333333</ele><time>2026-05-01T12:07:05Z</time></trkpt><trkpt lat="44.42311834781624" lon="8.413586423979059"><ele>588.6666666666666</ele><time>2026-05-01T12:07:06Z</time></trkpt><trkpt lat="44.42327066455971" lon="8.413444119733356"><ele>588.0</ele><time>2026-05-01T12:07:07Z</time></trkpt><trkpt lat="44.42342159240669" lon="8.413299600512259"><ele>588.0</ele><time>2026-05-01T12:07:08Z</time></trkpt><trkpt lat="44.42360340446594" lon="8.413262038475832"><ele>588.0</ele><time>2026-05-01T12:07:09Z</time></trkpt><trkpt lat="44.42379175375802" lon="8.413258328824744"><ele>588.0</ele><time>2026-05-01T12:07:10Z</time></trkpt><trkpt lat="44.423975930785765" lon="8.413262460112302"><ele>586.3333333333334</ele><time>2026-05-01T12:07:11Z</time></trkpt><trkpt lat="44.42412662421352" lon="8.413364032910385"><ele>584.6666666666667</ele><time>2026-05-01T12:07:12Z</time></trkpt><trkpt lat="44.42426940114039" lon="8.413433405479015"><ele>583.0</ele><time>2026-05-01T12:07:13Z</time></trkpt><trkpt lat="44.424408207197565" lon="8.413477748221332"><ele>583.0</ele><time>2026-05-01T12:07:14Z</time></trkpt><trkpt lat="44.424552206533626" lon="8.413459922994436"><ele>583.0</ele><time>2026-05-01T12:07:15Z</time></trkpt><trkpt lat="44.42471338188376" lon="8.413422914368837"><ele>583.0</ele><time>2026-05-01T12:07:16Z</time></trkpt><trkpt lat="44.42487765564899" lon="8.413360250127377"><ele>581.0</ele><time>2026-05-01T12:07:17Z</time></trkpt><trkpt lat="44.42506128064013" lon="8.41328372982872"><ele>579.0</ele><time>2026-05-01T12:07:18Z</time></trkpt><trkpt lat="44.42523718027268" lon="8.413233920372942"><ele>577.0</ele><time>2026-05-01T12:07:19Z</time></trkpt><trkpt lat="44.42539544060244" lon="8.413230581293673"><ele>577.0</ele><time>2026-05-01T12:07:20Z</time></trkpt><trkpt lat="44.42554318528364" lon="8.413254068715858"><ele>577.0</ele><time>2026-05-01T12:07:21Z</time></trkpt><trkpt lat="44.42567624964717" lon="8.41331873181676"><ele>577.0</ele><time>2026-05-01T12:07:22Z</time></trkpt><trkpt lat="44.425789733773826" lon="8.41346752623021"><ele>577.0</ele><time>2026-05-01T12:07:23Z</time></trkpt><trkpt lat="44.42593427833001" lon="8.413605608963675"><ele>577.0</ele><time>2026-05-01T12:07:24Z</time></trkpt><trkpt lat="44.42607781803607" lon="8.413778996636275"><ele>577.0</ele><time>2026-05-01T12:07:25Z</time></trkpt><trkpt lat="44.42623491352502" lon="8.413944908773825"><ele>577.0</ele><time>2026-05-01T12:07:26Z</time></trkpt><trkpt lat="44.42641298288102" lon="8.414096836534602"><ele>573.6666666666667</ele><time>2026-05-01T12:07:27Z</time></trkpt><trkpt lat="44.42660021020844" lon="8.414231418410848"><ele>570.3333333333334</ele><time>2026-05-01T12:07:28Z</time></trkpt><trkpt lat="44.42676271027972" lon="8.414326950221907"><ele>567.0</ele><time>2026-05-01T12:07:29Z</time></trkpt><trkpt lat="44.42689473840004" lon="8.414403147708239"><ele>567.0</ele><time>2026-05-01T12:07:30Z</time></trkpt><trkpt lat="44.42698887809215" lon="8.414472881887065"><ele>567.0</ele><time>2026-05-01T12:07:31Z</time></trkpt><trkpt lat="44.42702138161068" lon="8.41460882305874"><ele>567.0</ele><time>2026-05-01T12:07:32Z</time></trkpt><trkpt lat="44.4270291209959" lon="8.41478033495469"><ele>567.0</ele><time>2026-05-01T12:07:33Z</time></trkpt><trkpt lat="44.42705077782654" lon="8.414992747250745"><ele>564.3333333333334</ele><time>2026-05-01T12:07:34Z</time></trkpt><trkpt lat="44.42706856499458" lon="8.415222572237376"><ele>561.6666666666667</ele><time>2026-05-01T12:07:35Z</time></trkpt><trkpt lat="44.42708966174865" lon="8.415472845650825"><ele>559.0</ele><time>2026-05-01T12:07:36Z</time></trkpt><trkpt lat="44.42708772474026" lon="8.415760438700781"><ele>558.0</ele><time>2026-05-01T12:07:37Z</time></trkpt><trkpt lat="44.427078839470106" lon="8.416061850915053"><ele>557.0</ele><time>2026-05-01T12:07:38Z</time></trkpt><trkpt lat="44.4270777308063" lon="8.416365092426263"><ele>556.0</ele><time>2026-05-01T12:07:39Z</time></trkpt><trkpt lat="44.427095252973004" lon="8.416668619661767"><ele>557.0</ele><time>2026-05-01T12:07:40Z</time></trkpt><trkpt lat="44.427124301682376" lon="8.416933344889667"><ele>558.0</ele><time>2026-05-01T12:07:41Z</time></trkpt><trkpt lat="44.427165156561834" lon="8.41712738087952"><ele>559.0</ele><time>2026-05-01T12:07:42Z</time></trkpt><trkpt lat="44.427229621892614" lon="8.417274191762125"><ele>561.6666666666667</ele><time>2026-05-01T12:07:43Z</time></trkpt><trkpt lat="44.42733473706483" lon="8.417382812870336"><ele>564.3333333333334</ele><time>2026-05-01T12:07:44Z</time></trkpt><trkpt lat="44.42748255567126" lon="8.417468168477667"><ele>567.0</ele><time>2026-05-01T12:07:45Z</time></trkpt><trkpt lat="44.4276575780034" lon="8.417530657685708"><ele>567.0</ele><time>2026-05-01T12:07:46Z</time></trkpt><trkpt lat="44.42780084920867" lon="8.417610701402564"><ele>567.0</ele><time>2026-05-01T12:07:47Z</time></trkpt><trkpt lat="44.42790744030874" lon="8.417712012243834"><ele>567.0</ele><time>2026-05-01T12:07:48Z</time></trkpt><trkpt lat="44.42798360855589" lon="8.417845205959742"><ele>567.0</ele><time>2026-05-01T12:07:49Z</time></trkpt><trkpt lat="44.427956052906204" lon="8.418019337038698"><ele>569.0</ele><time>2026-05-01T12:07:50Z</time></trkpt><trkpt lat="44.42794496850866" lon="8.418218919440044"><ele>571.0</ele><time>2026-05-01T12:07:51Z</time></trkpt><trkpt lat="44.427937432809536" lon="8.418451118420734"><ele>573.0</ele><time>2026-05-01T12:07:52Z</time></trkpt><trkpt lat="44.42793523731775" lon="8.418699813089441"><ele>572.0</ele><time>2026-05-01T12:07:53Z</time></trkpt><trkpt lat="44.4279561115713" lon="8.418928323554491"><ele>571.0</ele><time>2026-05-01T12:07:54Z</time></trkpt><trkpt lat="44.427994980524375" lon="8.419154966810924"><ele>570.0</ele><time>2026-05-01T12:07:55Z</time></trkpt><trkpt lat="44.42806588018875" lon="8.419365131191935"><ele>569.75</ele><time>2026-05-01T12:07:56Z</time></trkpt><trkpt lat="44.42812953803204" lon="8.419544958408247"><ele>569.5</ele><time>2026-05-01T12:07:57Z</time></trkpt><trkpt lat="44.428201236380126" lon="8.41967521145224"><ele>569.25</ele><time>2026-05-01T12:07:58Z</time></trkpt><trkpt lat="44.42829777937115" lon="8.419771609303126"><ele>569.0</ele><time>2026-05-01T12:07:59Z</time></trkpt><trkpt lat="44.42842492075526" lon="8.4198388943638"><ele>571.6666666666666</ele><time>2026-05-01T12:08:00Z</time></trkpt><trkpt lat="44.428570369503085" lon="8.419868004367718"><ele>574.3333333333334</ele><time>2026-05-01T12:08:01Z</time></trkpt><trkpt lat="44.42872498069568" lon="8.419907503911334"><ele>577.0</ele><time>2026-05-01T12:08:02Z</time></trkpt><trkpt lat="44.42886903782341" lon="8.419995378490887"><ele>577.0</ele><time>2026-05-01T12:08:03Z</time></trkpt><trkpt lat="44.42898452510078" lon="8.420085212031962"><ele>577.0</ele><time>2026-05-01T12:08:04Z</time></trkpt><trkpt lat="44.429084953736776" lon="8.42011261953775"><ele>577.0</ele><time>2026-05-01T12:08:05Z</time></trkpt><trkpt lat="44.42919117203975" lon="8.420048540942735"><ele>577.0</ele><time>2026-05-01T12:08:06Z</time></trkpt><trkpt lat="44.4293270204217" lon="8.419946659618727"><ele>577.0</ele><time>2026-05-01T12:08:07Z</time></trkpt><trkpt lat="44.42948807936935" lon="8.419855928007102"><ele>577.0</ele><time>2026-05-01T12:08:08Z</time></trkpt><trkpt lat="44.42964242924153" lon="8.419749757571749"><ele>577.0</ele><time>2026-05-01T12:08:09Z</time></trkpt><trkpt lat="44.42980436495547" lon="8.419652563470088"><ele>577.8000000000001</ele><time>2026-05-01T12:08:10Z</time></trkpt><trkpt lat="44.42993967987222" lon="8.41958734645345"><ele>578.6</ele><time>2026-05-01T12:08:11Z</time></trkpt><trkpt lat="44.430049999232004" lon="8.419572116514464"><ele>579.4000000000001</ele><time>2026-05-01T12:08:12Z</time></trkpt><trkpt lat="44.430137008565055" lon="8.419617192173156"><ele>580.2</ele><time>2026-05-01T12:08:13Z</time></trkpt><trkpt lat="44.43020384484713" lon="8.41972098391352"><ele>581.0</ele><time>2026-05-01T12:08:14Z</time></trkpt><trkpt lat="44.43025396906641" lon="8.419884595994152"><ele>581.0</ele><time>2026-05-01T12:08:15Z</time></trkpt><trkpt lat="44.430289536250044" lon="8.420092333123229"><ele>581.0</ele><time>2026-05-01T12:08:16Z</time></trkpt><trkpt lat="44.43032361537526" lon="8.420334349486295"><ele>581.0</ele><time>2026-05-01T12:08:17Z</time></trkpt><trkpt lat="44.430352292563526" lon="8.420582079359676"><ele>579.6666666666666</ele><time>2026-05-01T12:08:18Z</time></trkpt><trkpt lat="44.430405911353525" lon="8.420830933480794"><ele>578.3333333333334</ele><time>2026-05-01T12:08:19Z</time></trkpt><trkpt lat="44.430492158568676" lon="8.421032781452498"><ele>577.0</ele><time>2026-05-01T12:08:20Z</time></trkpt><trkpt lat="44.430616374732416" lon="8.421207810388463"><ele>573.6666666666667</ele><time>2026-05-01T12:08:21Z</time></trkpt><trkpt lat="44.43076590504102" lon="8.421376381450441"><ele>570.3333333333334</ele><time>2026-05-01T12:08:22Z</time></trkpt><trkpt lat="44.43093030731932" lon="8.42153472537168"><ele>567.0</ele><time>2026-05-01T12:08:23Z</time></trkpt><trkpt lat="44.43109659130541" lon="8.421711553540511"><ele>567.0</ele><time>2026-05-01T12:08:24Z</time></trkpt><trkpt lat="44.43124574039662" lon="8.421861066319876"><ele>567.0</ele><time>2026-05-01T12:08:25Z</time></trkpt><trkpt lat="44.43137012837975" lon="8.421983724601338"><ele>567.0</ele><time>2026-05-01T12:08:26Z</time></trkpt><trkpt lat="44.43143958309169" lon="8.42217172495818"><ele>568.6666666666666</ele><time>2026-05-01T12:08:27Z</time></trkpt><trkpt lat="44.431527140596046" lon="8.422359401768892"><ele>570.3333333333333</ele><time>2026-05-01T12:08:28Z</time></trkpt><trkpt lat="44.43160926745178" lon="8.422558683637147"><ele>572.0</ele><time>2026-05-01T12:08:29Z</time></trkpt><trkpt lat="44.43169295428487" lon="8.422727753019142"><ele>572.0</ele><time>2026-05-01T12:08:30Z</time></trkpt><trkpt lat="44.43179048523722" lon="8.422842246165777"><ele>572.0</ele><time>2026-05-01T12:08:31Z</time></trkpt><trkpt lat="44.43191937721877" lon="8.422923064719766"><ele>572.0</ele><time>2026-05-01T12:08:32Z</time></trkpt><trkpt lat="44.43208668542962" lon="8.422980995825396"><ele>572.0</ele><time>2026-05-01T12:08:33Z</time></trkpt><trkpt lat="44.432266116721536" lon="8.423049915389923"><ele>571.3333333333333</ele><time>2026-05-01T12:08:34Z</time></trkpt><trkpt lat="44.43244826775503" lon="8.423135774784878"><ele>570.6666666666666</ele><time>2026-05-01T12:08:35Z</time></trkpt><trkpt lat="44.43264675516546" lon="8.423235532250324"><ele>570.0</ele><time>2026-05-01T12:08:36Z</time></trkpt><trkpt lat="44.432820150070484" lon="8.423359066829216"><ele>576.5</ele><time>2026-05-01T12:08:37Z</time></trkpt><trkpt lat="44.433021611780994" lon="8.423515186153212"><ele>583.0</ele><time>2026-05-01T12:08:38Z</time></trkpt><trkpt lat="44.4332152123923" lon="8.423666810885393"><ele>583.0</ele><time>2026-05-01T12:08:39Z</time></trkpt><trkpt lat="44.43339281247764" lon="8.42378345859251"><ele>583.0</ele><time>2026-05-01T12:08:40Z</time></trkpt><trkpt lat="44.433556511896526" lon="8.423896540245483"><ele>583.0</ele><time>2026-05-01T12:08:41Z</time></trkpt><trkpt lat="44.43369823119099" lon="8.424066932006594"><ele>582.6666666666667</ele><time>2026-05-01T12:08:42Z</time></trkpt><trkpt lat="44.43383006873067" lon="8.424287539400119"><ele>582.3333333333334</ele><time>2026-05-01T12:08:43Z</time></trkpt><trkpt lat="44.43395757860135" lon="8.424495768929408"><ele>582.0</ele><time>2026-05-01T12:08:44Z</time></trkpt><trkpt lat="44.43410188944248" lon="8.424654839596874"><ele>577.0</ele><time>2026-05-01T12:08:45Z</time></trkpt><trkpt lat="44.43426750362167" lon="8.424753111234125"><ele>572.0</ele><time>2026-05-01T12:08:46Z</time></trkpt><trkpt lat="44.43440859589436" lon="8.424859091550815"><ele>567.0</ele><time>2026-05-01T12:08:47Z</time></trkpt><trkpt lat="44.434477642038566" lon="8.425027670012597"><ele>567.0</ele><time>2026-05-01T12:08:48Z</time></trkpt><trkpt lat="44.43452393764642" lon="8.425212094313718"><ele>567.0</ele><time>2026-05-01T12:08:49Z</time></trkpt><trkpt lat="44.43460669041391" lon="8.425376225069524"><ele>567.0</ele><time>2026-05-01T12:08:50Z</time></trkpt><trkpt lat="44.43468600186457" lon="8.425571232225805"><ele>567.0</ele><time>2026-05-01T12:08:51Z</time></trkpt><trkpt lat="44.43481100196954" lon="8.425724746423537"><ele>569.3333333333334</ele><time>2026-05-01T12:08:52Z</time></trkpt><trkpt lat="44.43495759972781" lon="8.425841498541269"><ele>571.6666666666667</ele><time>2026-05-01T12:08:53Z</time></trkpt><trkpt lat="44.43511807029248" lon="8.425938961139567"><ele>574.0</ele><time>2026-05-01T12:08:54Z</time></trkpt><trkpt lat="44.43527098915498" lon="8.426017124566082"><ele>574.0</ele><time>2026-05-01T12:08:55Z</time></trkpt><trkpt lat="44.43538683982913" lon="8.426141432149892"><ele>574.0</ele><time>2026-05-01T12:08:56Z</time></trkpt><trkpt lat="44.43547440245258" lon="8.426320056660654"><ele>574.0</ele><time>2026-05-01T12:08:57Z</time></trkpt><trkpt lat="44.435540665806876" lon="8.426547465713634"><ele>574.0</ele><time>2026-05-01T12:08:58Z</time></trkpt><trkpt lat="44.435585261333756" lon="8.426800074098141"><ele>574.0</ele><time>2026-05-01T12:08:59Z</time></trkpt><trkpt lat="44.43564435287431" lon="8.427063516382246"><ele>574.0</ele><time>2026-05-01T12:09:00Z</time></trkpt><trkpt lat="44.43568708973053" lon="8.42735766361805"><ele>573.6666666666667</ele><time>2026-05-01T12:09:01Z</time></trkpt><trkpt lat="44.43573813067014" lon="8.427688847909522"><ele>573.3333333333334</ele><time>2026-05-01T12:09:02Z</time></trkpt><trkpt lat="44.43578429367159" lon="8.427911838464661"><ele>573.0</ele><time>2026-05-01T12:09:03Z</time></trkpt><trkpt lat="44.435823902235434" lon="8.428170960193391"><ele>573.0</ele><time>2026-05-01T12:09:04Z</time></trkpt><trkpt lat="44.4358692003541" lon="8.42842771411956"><ele>573.0</ele><time>2026-05-01T12:09:05Z</time></trkpt><trkpt lat="44.4359379013911" lon="8.42868078417528"><ele>573.0</ele><time>2026-05-01T12:09:06Z</time></trkpt><trkpt lat="44.43603007608114" lon="8.428904673103368"><ele>575.6666666666666</ele><time>2026-05-01T12:09:07Z</time></trkpt><trkpt lat="44.43614541370084" lon="8.429113650334473"><ele>578.3333333333333</ele><time>2026-05-01T12:09:08Z</time></trkpt><trkpt lat="44.436280817432504" lon="8.429302362595669"><ele>581.0</ele><time>2026-05-01T12:09:09Z</time></trkpt><trkpt lat="44.436420773127786" lon="8.42947226575995"><ele>581.0</ele><time>2026-05-01T12:09:10Z</time></trkpt><trkpt lat="44.436561923958" lon="8.42962798755769"><ele>581.0</ele><time>2026-05-01T12:09:11Z</time></trkpt><trkpt lat="44.436691158522194" lon="8.429763582135498"><ele>581.0</ele><time>2026-05-01T12:09:12Z</time></trkpt><trkpt lat="44.43680153232927" lon="8.429892762157738"><ele>574.0</ele><time>2026-05-01T12:09:13Z</time></trkpt><trkpt lat="44.43687497635388" lon="8.430057640924325"><ele>567.0</ele><time>2026-05-01T12:09:14Z</time></trkpt><trkpt lat="44.436947209238646" lon="8.430258819446072"><ele>560.0</ele><time>2026-05-01T12:09:15Z</time></trkpt><trkpt lat="44.437015059255764" lon="8.430470409407686"><ele>562.0</ele><time>2026-05-01T12:09:16Z</time></trkpt><trkpt lat="44.437098860052565" lon="8.430694899992385"><ele>564.0</ele><time>2026-05-01T12:09:17Z</time></trkpt><trkpt lat="44.437152165767266" lon="8.430903771958874"><ele>566.0</ele><time>2026-05-01T12:09:18Z</time></trkpt><trkpt lat="44.43714395289968" lon="8.43109729649666"><ele>560.75</ele><time>2026-05-01T12:09:19Z</time></trkpt><trkpt lat="44.43712192576684" lon="8.431246056095407"><ele>555.5</ele><time>2026-05-01T12:09:20Z</time></trkpt><trkpt lat="44.43709976338794" lon="8.43140393694838"><ele>550.25</ele><time>2026-05-01T12:09:21Z</time></trkpt><trkpt lat="44.437072239537976" lon="8.431587736367568"><ele>545.0</ele><time>2026-05-01T12:09:22Z</time></trkpt><trkpt lat="44.43705795457201" lon="8.431804963751901"><ele>542.0</ele><time>2026-05-01T12:09:23Z</time></trkpt><trkpt lat="44.43702468931001" lon="8.432045155013698"><ele>539.0</ele><time>2026-05-01T12:09:24Z</time></trkpt><trkpt lat="44.43699258683383" lon="8.432306515001931"><ele>536.0</ele><time>2026-05-01T12:09:25Z</time></trkpt><trkpt lat="44.43694867274923" lon="8.432575475124429"><ele>534.6666666666666</ele><time>2026-05-01T12:09:26Z</time></trkpt><trkpt lat="44.436900402799665" lon="8.432846926586302"><ele>533.3333333333334</ele><time>2026-05-01T12:09:27Z</time></trkpt><trkpt lat="44.436851348756406" lon="8.433116213818497"><ele>532.0</ele><time>2026-05-01T12:09:28Z</time></trkpt><trkpt lat="44.43679858087211" lon="8.433384701632571"><ele>532.0</ele><time>2026-05-01T12:09:29Z</time></trkpt><trkpt lat="44.43675073631031" lon="8.43363789594071"><ele>532.0</ele><time>2026-05-01T12:09:30Z</time></trkpt><trkpt lat="44.436707781647016" lon="8.433874201452092"><ele>532.0</ele><time>2026-05-01T12:09:31Z</time></trkpt><trkpt lat="44.436641218862434" lon="8.434088719970395"><ele>531.0</ele><time>2026-05-01T12:09:32Z</time></trkpt><trkpt lat="44.436574268900955" lon="8.434304329306757"><ele>530.0</ele><time>2026-05-01T12:09:33Z</time></trkpt><trkpt lat="44.436502806426134" lon="8.43451406148027"><ele>529.0</ele><time>2026-05-01T12:09:34Z</time></trkpt><trkpt lat="44.43642455919499" lon="8.434695125868283"><ele>525.25</ele><time>2026-05-01T12:09:35Z</time></trkpt><trkpt lat="44.436342048670625" lon="8.434858899890742"><ele>521.5</ele><time>2026-05-01T12:09:36Z</time></trkpt><trkpt lat="44.436291785692404" lon="8.435027882265102"><ele>517.75</ele><time>2026-05-01T12:09:37Z</time></trkpt><trkpt lat="44.43624360005971" lon="8.435177924651324"><ele>514.0</ele><time>2026-05-01T12:09:38Z</time></trkpt><trkpt lat="44.43622509620292" lon="8.435311147214652"><ele>514.0</ele><time>2026-05-01T12:09:39Z</time></trkpt><trkpt lat="44.43624044978341" lon="8.435409054232558"><ele>514.0</ele><time>2026-05-01T12:09:40Z</time></trkpt><trkpt lat="44.43630033969928" lon="8.435466511794369"><ele>514.0</ele><time>2026-05-01T12:09:41Z</time></trkpt><trkpt lat="44.43651007695978" lon="8.435372331325155"><ele>514.0</ele><time>2026-05-01T12:09:43Z</time></trkpt><trkpt lat="44.43663157768455" lon="8.43527720491399"><ele>514.0</ele><time>2026-05-01T12:09:44Z</time></trkpt><trkpt lat="44.4367039680643" lon="8.435089090896208"><ele>514.0</ele><time>2026-05-01T12:09:45Z</time></trkpt><trkpt lat="44.43673190422538" lon="8.434932150413033"><ele>514.0</ele><time>2026-05-01T12:09:46Z</time></trkpt><trkpt lat="44.436783062779504" lon="8.434776951909264"><ele>514.0</ele><time>2026-05-01T12:09:47Z</time></trkpt><trkpt lat="44.43689186831814" lon="8.434695014324864"><ele>517.75</ele><time>2026-05-01T12:09:48Z</time></trkpt><trkpt lat="44.43700693646666" lon="8.434584053438591"><ele>521.5</ele><time>2026-05-01T12:09:49Z</time></trkpt><trkpt lat="44.437105640746076" lon="8.434444551598082"><ele>525.25</ele><time>2026-05-01T12:09:50Z</time></trkpt><trkpt lat="44.43718544918622" lon="8.434235761753328"><ele>529.0</ele><time>2026-05-01T12:09:51Z</time></trkpt><trkpt lat="44.4372936134308" lon="8.43401992601844"><ele>523.0</ele><time>2026-05-01T12:09:52Z</time></trkpt><trkpt lat="44.43742835232296" lon="8.433801864974386"><ele>517.0</ele><time>2026-05-01T12:09:53Z</time></trkpt><trkpt lat="44.43756614975995" lon="8.433576651382905"><ele>511.0</ele><time>2026-05-01T12:09:54Z</time></trkpt><trkpt lat="44.43771575557867" lon="8.433409429159257"><ele>511.0</ele><time>2026-05-01T12:09:55Z</time></trkpt><trkpt lat="44.437865866232215" lon="8.433233676435895"><ele>511.0</ele><time>2026-05-01T12:09:56Z</time></trkpt><trkpt lat="44.43801558038685" lon="8.43309452805148"><ele>511.0</ele><time>2026-05-01T12:09:57Z</time></trkpt><trkpt lat="44.43817048288967" lon="8.432981795206098"><ele>507.0</ele><time>2026-05-01T12:09:58Z</time></trkpt><trkpt lat="44.43832904458706" lon="8.43287658480377"><ele>503.0</ele><time>2026-05-01T12:09:59Z</time></trkpt><trkpt lat="44.43847876911106" lon="8.432739572530233"><ele>499.0</ele><time>2026-05-01T12:10:00Z</time></trkpt><trkpt lat="44.43867846095255" lon="8.432656416388218"><ele>492.6666666666667</ele><time>2026-05-01T12:10:01Z</time></trkpt><trkpt lat="44.438858781098894" lon="8.432562447615872"><ele>486.33333333333337</ele><time>2026-05-01T12:10:02Z</time></trkpt><trkpt lat="44.43900210507664" lon="8.432467621079262"><ele>480.0</ele><time>2026-05-01T12:10:03Z</time></trkpt><trkpt lat="44.43915908093011" lon="8.432452016312464"><ele>480.0</ele><time>2026-05-01T12:10:04Z</time></trkpt><trkpt lat="44.439313651294704" lon="8.432455529971516"><ele>480.0</ele><time>2026-05-01T12:10:05Z</time></trkpt><trkpt lat="44.43947062100512" lon="8.432427250410562"><ele>480.0</ele><time>2026-05-01T12:10:06Z</time></trkpt><trkpt lat="44.43962255213757" lon="8.432376328070422"><ele>480.0</ele><time>2026-05-01T12:10:07Z</time></trkpt><trkpt lat="44.43978554227793" lon="8.43229154494736"><ele>480.0</ele><time>2026-05-01T12:10:08Z</time></trkpt><trkpt lat="44.43992055909127" lon="8.432191529404335"><ele>480.0</ele><time>2026-05-01T12:10:09Z</time></trkpt><trkpt lat="44.44004851447382" lon="8.432105665133697"><ele>480.0</ele><time>2026-05-01T12:10:10Z</time></trkpt><trkpt lat="44.44017613152953" lon="8.432064732768831"><ele>480.0</ele><time>2026-05-01T12:10:11Z</time></trkpt><trkpt lat="44.44033308245373" lon="8.432085270148503"><ele>480.0</ele><time>2026-05-01T12:10:12Z</time></trkpt><trkpt lat="44.440512639704586" lon="8.432085594720428"><ele>476.0</ele><time>2026-05-01T12:10:13Z</time></trkpt><trkpt lat="44.440694349591844" lon="8.432119435923795"><ele>472.0</ele><time>2026-05-01T12:10:14Z</time></trkpt><trkpt lat="44.44085368148129" lon="8.432156756829274"><ele>468.0</ele><time>2026-05-01T12:10:15Z</time></trkpt><trkpt lat="44.44097781972159" lon="8.432203769362735"><ele>465.75</ele><time>2026-05-01T12:10:16Z</time></trkpt><trkpt lat="44.44107591288914" lon="8.432277791097452"><ele>463.5</ele><time>2026-05-01T12:10:17Z</time></trkpt><trkpt lat="44.44117140739599" lon="8.432410963765097"><ele>461.25</ele><time>2026-05-01T12:10:18Z</time></trkpt><trkpt lat="44.441270425014004" lon="8.432595053202792"><ele>459.0</ele><time>2026-05-01T12:10:19Z</time></trkpt><trkpt lat="44.441381208596184" lon="8.432805438711508"><ele>455.0</ele><time>2026-05-01T12:10:20Z</time></trkpt><trkpt lat="44.44150244771754" lon="8.433023445835575"><ele>451.0</ele><time>2026-05-01T12:10:21Z</time></trkpt><trkpt lat="44.44160665708786" lon="8.433199962706384"><ele>447.0</ele><time>2026-05-01T12:10:22Z</time></trkpt><trkpt lat="44.441685646525194" lon="8.433333264553593"><ele>447.0</ele><time>2026-05-01T12:10:23Z</time></trkpt><trkpt lat="44.44176357153726" lon="8.433433584496122"><ele>447.0</ele><time>2026-05-01T12:10:24Z</time></trkpt><trkpt lat="44.44185811070316" lon="8.433523439078597"><ele>447.0</ele><time>2026-05-01T12:10:25Z</time></trkpt><trkpt lat="44.44194977129133" lon="8.433649272012676"><ele>447.0</ele><time>2026-05-01T12:10:26Z</time></trkpt><trkpt lat="44.44207268613153" lon="8.433746415241659"><ele>444.0</ele><time>2026-05-01T12:10:27Z</time></trkpt><trkpt lat="44.44219594548533" lon="8.433853090332079"><ele>441.0</ele><time>2026-05-01T12:10:28Z</time></trkpt><trkpt lat="44.44234205509279" lon="8.433929849357497"><ele>438.0</ele><time>2026-05-01T12:10:29Z</time></trkpt><trkpt lat="44.44251001064195" lon="8.4339912932359"><ele>438.0</ele><time>2026-05-01T12:10:30Z</time></trkpt><trkpt lat="44.44268158611994" lon="8.434058031292189"><ele>438.0</ele><time>2026-05-01T12:10:31Z</time></trkpt><trkpt lat="44.44283869493816" lon="8.434129665789706"><ele>438.0</ele><time>2026-05-01T12:10:32Z</time></trkpt><trkpt lat="44.442981777492534" lon="8.434199820234337"><ele>436.5</ele><time>2026-05-01T12:10:33Z</time></trkpt><trkpt lat="44.443108134819084" lon="8.434261638653224"><ele>435.0</ele><time>2026-05-01T12:10:34Z</time></trkpt><trkpt lat="44.443225027858354" lon="8.43431870945866"><ele>433.5</ele><time>2026-05-01T12:10:35Z</time></trkpt><trkpt lat="44.44333797752732" lon="8.434368394969137"><ele>432.0</ele><time>2026-05-01T12:10:36Z</time></trkpt><trkpt lat="44.44346480123328" lon="8.434403484342905"><ele>432.0</ele><time>2026-05-01T12:10:37Z</time></trkpt><trkpt lat="44.443598007729236" lon="8.434423447785079"><ele>432.0</ele><time>2026-05-01T12:10:38Z</time></trkpt><trkpt lat="44.443740656741895" lon="8.434440151428177"><ele>432.0</ele><time>2026-05-01T12:10:39Z</time></trkpt><trkpt lat="44.44388074619077" lon="8.434459491384903"><ele>432.0</ele><time>2026-05-01T12:10:40Z</time></trkpt><trkpt lat="44.44400097213286" lon="8.434472793828727"><ele>431.6</ele><time>2026-05-01T12:10:41Z</time></trkpt><trkpt lat="44.444097993456786" lon="8.434485356708134"><ele>431.20000000000005</ele><time>2026-05-01T12:10:42Z</time></trkpt><trkpt lat="44.44419583688147" lon="8.434502395120978"><ele>430.8</ele><time>2026-05-01T12:10:43Z</time></trkpt><trkpt lat="44.44430770238712" lon="8.434557551805224"><ele>430.4</ele><time>2026-05-01T12:10:44Z</time></trkpt><trkpt lat="44.444405325943734" lon="8.434578662213946"><ele>430.0</ele><time>2026-05-01T12:10:45Z</time></trkpt><trkpt lat="44.44448813287094" lon="8.434630597306628"><ele>429.6</ele><time>2026-05-01T12:10:46Z</time></trkpt><trkpt lat="44.44455131945373" lon="8.434683073976624"><ele>429.2</ele><time>2026-05-01T12:10:47Z</time></trkpt><trkpt lat="44.44461474729937" lon="8.43473812412734"><ele>428.79999999999995</ele><time>2026-05-01T12:10:50Z</time></trkpt><trkpt lat="44.44469410177792" lon="8.434695392435078"><ele>428.4</ele><time>2026-05-01T12:10:51Z</time></trkpt><trkpt lat="44.44479072719175" lon="8.434588262192339"><ele>428.0</ele><time>2026-05-01T12:10:52Z</time></trkpt><trkpt lat="44.44489405190247" lon="8.434459319295408"><ele>428.0</ele><time>2026-05-01T12:10:53Z</time></trkpt><trkpt lat="44.44498661050408" lon="8.434364048838916"><ele>428.0</ele><time>2026-05-01T12:10:54Z</time></trkpt><trkpt lat="44.44507191104647" lon="8.43426304621929"><ele>428.0</ele><time>2026-05-01T12:10:55Z</time></trkpt><trkpt lat="44.44516009882921" lon="8.434158478655139"><ele>428.0</ele><time>2026-05-01T12:10:56Z</time></trkpt><trkpt lat="44.44525512794542" lon="8.434058588814766"><ele>428.0</ele><time>2026-05-01T12:10:57Z</time></trkpt><trkpt lat="44.445342069426594" lon="8.433951066713371"><ele>428.0</ele><time>2026-05-01T12:10:58Z</time></trkpt><trkpt lat="44.4454072654668" lon="8.43382546702952"><ele>428.0</ele><time>2026-05-01T12:10:59Z</time></trkpt><trkpt lat="44.445477368524124" lon="8.433692827911099"><ele>428.0</ele><time>2026-05-01T12:11:00Z</time></trkpt><trkpt lat="44.44554258728721" lon="8.433550034957172"><ele>427.79999999999995</ele><time>2026-05-01T12:11:01Z</time></trkpt><trkpt lat="44.445603214174746" lon="8.433415516749303"><ele>427.59999999999997</ele><time>2026-05-01T12:11:02Z</time></trkpt><trkpt lat="44.445656417717586" lon="8.433284169650166"><ele>427.40000000000003</ele><time>2026-05-01T12:11:03Z</time></trkpt><trkpt lat="44.445705447093765" lon="8.433157537827611"><ele>427.20000000000005</ele><time>2026-05-01T12:11:04Z</time></trkpt><trkpt lat="44.44575570043628" lon="8.433027152340298"><ele>427.0</ele><time>2026-05-01T12:11:05Z</time></trkpt><trkpt lat="44.44580664227379" lon="8.43288809351233"><ele>427.75</ele><time>2026-05-01T12:11:06Z</time></trkpt><trkpt lat="44.44585637907544" lon="8.43275006989101"><ele>428.5</ele><time>2026-05-01T12:11:07Z</time></trkpt><trkpt lat="44.44590610424259" lon="8.432611825539027"><ele>429.25</ele><time>2026-05-01T12:11:08Z</time></trkpt><trkpt lat="44.44596225984509" lon="8.432451612611395"><ele>430.0</ele><time>2026-05-01T12:11:09Z</time></trkpt><trkpt lat="44.446019042491855" lon="8.43227297974618"><ele>430.33333333333337</ele><time>2026-05-01T12:11:10Z</time></trkpt><trkpt lat="44.44607565873342" lon="8.432070130506"><ele>430.66666666666663</ele><time>2026-05-01T12:11:11Z</time></trkpt><trkpt lat="44.44613624308489" lon="8.431840318405843"><ele>431.0</ele><time>2026-05-01T12:11:12Z</time></trkpt><trkpt lat="44.446199090488335" lon="8.431595584352836"><ele>431.0</ele><time>2026-05-01T12:11:13Z</time></trkpt><trkpt lat="44.44626978993439" lon="8.431344122474986"><ele>431.0</ele><time>2026-05-01T12:11:14Z</time></trkpt><trkpt lat="44.446354654464095" lon="8.431057414098092"><ele>431.0</ele><time>2026-05-01T12:11:15Z</time></trkpt><trkpt lat="44.446440219241886" lon="8.430762687592356"><ele>426.0</ele><time>2026-05-01T12:11:16Z</time></trkpt><trkpt lat="44.44652217306987" lon="8.43048053443614"><ele>421.0</ele><time>2026-05-01T12:11:17Z</time></trkpt><trkpt lat="44.44661330119813" lon="8.430172342880315"><ele>421.0</ele><time>2026-05-01T12:11:18Z</time></trkpt><trkpt lat="44.44670315584206" lon="8.429855257246523"><ele>421.0</ele><time>2026-05-01T12:11:19Z</time></trkpt><trkpt lat="44.446783342925556" lon="8.42957497961717"><ele>420.6666666666667</ele><time>2026-05-01T12:11:20Z</time></trkpt><trkpt lat="44.44685690211361" lon="8.429333191986773"><ele>420.33333333333337</ele><time>2026-05-01T12:11:21Z</time></trkpt><trkpt lat="44.44695348299272" lon="8.429099554245864"><ele>420.0</ele><time>2026-05-01T12:11:22Z</time></trkpt><trkpt lat="44.44707969433185" lon="8.428859210892085"><ele>420.0</ele><time>2026-05-01T12:11:23Z</time></trkpt><trkpt lat="44.44722166191329" lon="8.428609711943336"><ele>420.0</ele><time>2026-05-01T12:11:24Z</time></trkpt><trkpt lat="44.44737023943343" lon="8.428352969126838"><ele>420.0</ele><time>2026-05-01T12:11:25Z</time></trkpt><trkpt lat="44.44751108160884" lon="8.42810884180397"><ele>420.0</ele><time>2026-05-01T12:11:26Z</time></trkpt><trkpt lat="44.44763816847135" lon="8.427892650966447"><ele>420.0</ele><time>2026-05-01T12:11:27Z</time></trkpt><trkpt lat="44.44774245087007" lon="8.427712128676708"><ele>421.0</ele><time>2026-05-01T12:11:28Z</time></trkpt><trkpt lat="44.44784988341387" lon="8.427522364778985"><ele>422.0</ele><time>2026-05-01T12:11:29Z</time></trkpt><trkpt lat="44.44795853252584" lon="8.427334195544603"><ele>423.0</ele><time>2026-05-01T12:11:30Z</time></trkpt><trkpt lat="44.44806236788571" lon="8.427141997010606"><ele>423.59999999999997</ele><time>2026-05-01T12:11:31Z</time></trkpt><trkpt lat="44.4481495442887" lon="8.426975154875473"><ele>424.2</ele><time>2026-05-01T12:11:32Z</time></trkpt><trkpt lat="44.44820932816146" lon="8.426839746927405"><ele>424.8</ele><time>2026-05-01T12:11:33Z</time></trkpt><trkpt lat="44.448246133011075" lon="8.426732343770269"><ele>425.4</ele><time>2026-05-01T12:11:34Z</time></trkpt><trkpt lat="44.448259128913584" lon="8.426632382191581"><ele>426.0</ele><time>2026-05-01T12:11:36Z</time></trkpt><trkpt lat="44.448269489641625" lon="8.426446629622042"><ele>429.0</ele><time>2026-05-01T12:12:00Z</time></trkpt><trkpt lat="44.44827346890086" lon="8.426291608659104"><ele>432.0</ele><time>2026-05-01T12:12:01Z</time></trkpt><trkpt lat="44.44825448547979" lon="8.426123260467445"><ele>435.0</ele><time>2026-05-01T12:12:02Z</time></trkpt><trkpt lat="44.44818584338274" lon="8.425922342429207"><ele>438.0</ele><time>2026-05-01T12:12:04Z</time></trkpt><trkpt lat="44.44810514870505" lon="8.425766111807373"><ele>438.0</ele><time>2026-05-01T12:12:05Z</time></trkpt><trkpt lat="44.448007577557654" lon="8.425613424991674"><ele>438.0</ele><time>2026-05-01T12:12:06Z</time></trkpt><trkpt lat="44.447890364686316" lon="8.425464523242894"><ele>438.0</ele><time>2026-05-01T12:12:07Z</time></trkpt><trkpt lat="44.44776017774189" lon="8.425337713775338"><ele>443.33333333333337</ele><time>2026-05-01T12:12:08Z</time></trkpt><trkpt lat="44.447598999785036" lon="8.425250021145876"><ele>448.6666666666667</ele><time>2026-05-01T12:12:09Z</time></trkpt><trkpt lat="44.44742792802309" lon="8.425214179243227"><ele>454.0</ele><time>2026-05-01T12:12:10Z</time></trkpt><trkpt lat="44.44724526493002" lon="8.425212844255613"><ele>455.33333333333337</ele><time>2026-05-01T12:12:11Z</time></trkpt><trkpt lat="44.44706762225879" lon="8.425231215986202"><ele>456.66666666666663</ele><time>2026-05-01T12:12:12Z</time></trkpt><trkpt lat="44.446893464744925" lon="8.425258861205956"><ele>458.0</ele><time>2026-05-01T12:12:13Z</time></trkpt><trkpt lat="44.44671873737247" lon="8.425291653937581"><ele>458.0</ele><time>2026-05-01T12:12:14Z</time></trkpt><trkpt lat="44.446548516642565" lon="8.42532254494918"><ele>458.0</ele><time>2026-05-01T12:12:15Z</time></trkpt><trkpt lat="44.44636893530012" lon="8.425348793844439"><ele>458.0</ele><time>2026-05-01T12:12:16Z</time></trkpt><trkpt lat="44.446171781947456" lon="8.425364664615907"><ele>460.66666666666663</ele><time>2026-05-01T12:12:17Z</time></trkpt><trkpt lat="44.44596290231222" lon="8.425402358114923"><ele>463.33333333333337</ele><time>2026-05-01T12:12:18Z</time></trkpt><trkpt lat="44.44576294647214" lon="8.425488696138412"><ele>466.0</ele><time>2026-05-01T12:12:19Z</time></trkpt><trkpt lat="44.445568103630315" lon="8.425627849744188"><ele>469.0</ele><time>2026-05-01T12:12:20Z</time></trkpt><trkpt lat="44.44537579829897" lon="8.425799395610415"><ele>472.0</ele><time>2026-05-01T12:12:21Z</time></trkpt><trkpt lat="44.445206453113535" lon="8.426000490106347"><ele>472.0</ele><time>2026-05-01T12:12:22Z</time></trkpt><trkpt lat="44.44505640166761" lon="8.426225699368507"><ele>472.0</ele><time>2026-05-01T12:12:23Z</time></trkpt><trkpt lat="44.44491230694299" lon="8.426453570718238"><ele>472.0</ele><time>2026-05-01T12:12:24Z</time></trkpt><trkpt lat="44.4447931714415" lon="8.42664871315111"><ele>468.5</ele><time>2026-05-01T12:12:25Z</time></trkpt><trkpt lat="44.44467300795953" lon="8.426666342559939"><ele>465.0</ele><time>2026-05-01T12:12:26Z</time></trkpt><trkpt lat="44.44453988087104" lon="8.426682503439018"><ele>461.5</ele><time>2026-05-01T12:12:27Z</time></trkpt><trkpt lat="44.444412334089755" lon="8.426617287972505"><ele>458.0</ele><time>2026-05-01T12:12:28Z</time></trkpt><trkpt lat="44.44427886126088" lon="8.426469962609131"><ele>458.0</ele><time>2026-05-01T12:12:29Z</time></trkpt><trkpt lat="44.444113259078186" lon="8.426317311792127"><ele>458.0</ele><time>2026-05-01T12:12:30Z</time></trkpt><trkpt lat="44.44396115473579" lon="8.426118689884397"><ele>458.0</ele><time>2026-05-01T12:12:31Z</time></trkpt><trkpt lat="44.44379004192649" lon="8.425920964853002"><ele>458.3333333333333</ele><time>2026-05-01T12:12:32Z</time></trkpt><trkpt lat="44.44363371633146" lon="8.425703348750831"><ele>458.66666666666663</ele><time>2026-05-01T12:12:33Z</time></trkpt><trkpt lat="44.44351409322855" lon="8.425431867930895"><ele>459.0</ele><time>2026-05-01T12:12:34Z</time></trkpt><trkpt lat="44.44337598439889" lon="8.425191337301824"><ele>462.5</ele><time>2026-05-01T12:12:35Z</time></trkpt><trkpt lat="44.443275088284175" lon="8.42498909924207"><ele>466.0</ele><time>2026-05-01T12:12:36Z</time></trkpt><trkpt lat="44.4432313406869" lon="8.42489368931733"><ele>469.5</ele><time>2026-05-01T12:12:37Z</time></trkpt><trkpt lat="44.44327800835563" lon="8.424765944977544"><ele>473.0</ele><time>2026-05-01T12:12:39Z</time></trkpt><trkpt lat="44.44343988878302" lon="8.424840883970797"><ele>473.0</ele><time>2026-05-01T12:12:41Z</time></trkpt><trkpt lat="44.44352037338702" lon="8.424947887542908"><ele>473.0</ele><time>2026-05-01T12:12:42Z</time></trkpt><trkpt lat="44.443583533360375" lon="8.425147772498935"><ele>473.0</ele><time>2026-05-01T12:12:43Z</time></trkpt><trkpt lat="44.443686169179976" lon="8.425334827904322"><ele>473.0</ele><time>2026-05-01T12:12:44Z</time></trkpt><trkpt lat="44.4437970036958" lon="8.425534949396493"><ele>475.0</ele><time>2026-05-01T12:12:45Z</time></trkpt><trkpt lat="44.443933142171254" lon="8.425719413304614"><ele>477.0</ele><time>2026-05-01T12:12:46Z</time></trkpt><trkpt lat="44.4440926370206" lon="8.425872722710153"><ele>479.0</ele><time>2026-05-01T12:12:47Z</time></trkpt><trkpt lat="44.44426613680981" lon="8.426000205779097"><ele>479.0</ele><time>2026-05-01T12:12:48Z</time></trkpt><trkpt lat="44.44440938455406" lon="8.426100631746717"><ele>479.0</ele><time>2026-05-01T12:12:49Z</time></trkpt><trkpt lat="44.44451201394246" lon="8.426151306522318"><ele>479.0</ele><time>2026-05-01T12:12:50Z</time></trkpt><trkpt lat="44.44458572260211" lon="8.426138387556131"><ele>479.0</ele><time>2026-05-01T12:12:51Z</time></trkpt><trkpt lat="44.444629604925275" lon="8.426052949492417"><ele>479.0</ele><time>2026-05-01T12:12:52Z</time></trkpt><trkpt lat="44.44463124019893" lon="8.425922858476795"><ele>479.0</ele><time>2026-05-01T12:12:53Z</time></trkpt><trkpt lat="44.444574726201424" lon="8.42580076364364"><ele>479.0</ele><time>2026-05-01T12:12:54Z</time></trkpt><trkpt lat="44.44446529311059" lon="8.425699744989"><ele>479.0</ele><time>2026-05-01T12:12:55Z</time></trkpt><trkpt lat="44.44431024630314" lon="8.42561258881609"><ele>479.0</ele><time>2026-05-01T12:12:56Z</time></trkpt><trkpt lat="44.44415689372033" lon="8.42548655792878"><ele>485.66666666666663</ele><time>2026-05-01T12:12:57Z</time></trkpt><trkpt lat="44.444041118127345" lon="8.425333809169636"><ele>492.33333333333337</ele><time>2026-05-01T12:12:58Z</time></trkpt><trkpt lat="44.443950620993874" lon="8.4251163173937"><ele>499.0</ele><time>2026-05-01T12:12:59Z</time></trkpt><trkpt lat="44.44386451467498" lon="8.424850904270818"><ele>491.5</ele><time>2026-05-01T12:13:00Z</time></trkpt><trkpt lat="44.44376217574557" lon="8.424577497642888"><ele>484.0</ele><time>2026-05-01T12:13:01Z</time></trkpt><trkpt lat="44.44366583191726" lon="8.424285837696097"><ele>484.0</ele><time>2026-05-01T12:13:02Z</time></trkpt><trkpt lat="44.443611897756824" lon="8.424010330654353"><ele>484.0</ele><time>2026-05-01T12:13:03Z</time></trkpt><trkpt lat="44.44359593591598" lon="8.423749930119584"><ele>484.0</ele><time>2026-05-01T12:13:04Z</time></trkpt><trkpt lat="44.44359880714673" lon="8.423466556933906"><ele>486.6666666666667</ele><time>2026-05-01T12:13:05Z</time></trkpt><trkpt lat="44.44358319071984" lon="8.423178474980375"><ele>489.33333333333337</ele><time>2026-05-01T12:13:06Z</time></trkpt><trkpt lat="44.4435419165096" lon="8.422902412723708"><ele>492.0</ele><time>2026-05-01T12:13:07Z</time></trkpt><trkpt lat="44.44343915121334" lon="8.422636546215156"><ele>494.66666666666663</ele><time>2026-05-01T12:13:08Z</time></trkpt><trkpt lat="44.44333364848154" lon="8.422370304966897"><ele>497.3333333333333</ele><time>2026-05-01T12:13:09Z</time></trkpt><trkpt lat="44.44326790990625" lon="8.422108376675077"><ele>500.0</ele><time>2026-05-01T12:13:10Z</time></trkpt><trkpt lat="44.44326503454105" lon="8.42188298263487"><ele>499.0</ele><time>2026-05-01T12:13:11Z</time></trkpt><trkpt lat="44.44329537938017" lon="8.421653686498862"><ele>498.0</ele><time>2026-05-01T12:13:12Z</time></trkpt><trkpt lat="44.443345512018105" lon="8.421406933318414"><ele>497.0</ele><time>2026-05-01T12:13:13Z</time></trkpt><trkpt lat="44.44342601270576" lon="8.421164563571153"><ele>497.0</ele><time>2026-05-01T12:13:14Z</time></trkpt><trkpt lat="44.443543957966064" lon="8.420933745671302"><ele>497.0</ele><time>2026-05-01T12:13:15Z</time></trkpt><trkpt lat="44.44367232459322" lon="8.420687225947868"><ele>497.0</ele><time>2026-05-01T12:13:16Z</time></trkpt><trkpt lat="44.44379685576964" lon="8.420427463292038"><ele>500.0</ele><time>2026-05-01T12:13:17Z</time></trkpt><trkpt lat="44.443947147527524" lon="8.420246314819005"><ele>503.0</ele><time>2026-05-01T12:13:18Z</time></trkpt><trkpt lat="44.44407451710915" lon="8.420160809960125"><ele>506.0</ele><time>2026-05-01T12:13:19Z</time></trkpt><trkpt lat="44.44420084636495" lon="8.420130769174953"><ele>506.0</ele><time>2026-05-01T12:13:20Z</time></trkpt><trkpt lat="44.44436000633267" lon="8.420154795354003"><ele>506.0</ele><time>2026-05-01T12:13:21Z</time></trkpt><trkpt lat="44.44453707096526" lon="8.420202914308664"><ele>506.0</ele><time>2026-05-01T12:13:22Z</time></trkpt><trkpt lat="44.44471323792872" lon="8.420297716485766"><ele>507.5</ele><time>2026-05-01T12:13:23Z</time></trkpt><trkpt lat="44.44485331345933" lon="8.42041703523692"><ele>509.0</ele><time>2026-05-01T12:13:24Z</time></trkpt><trkpt lat="44.44498077695162" lon="8.420464365417065"><ele>510.5</ele><time>2026-05-01T12:13:25Z</time></trkpt><trkpt lat="44.445088747194234" lon="8.420451420309906"><ele>512.0</ele><time>2026-05-01T12:13:26Z</time></trkpt><trkpt lat="44.44517952082803" lon="8.420324986271122"><ele>512.0</ele><time>2026-05-01T12:13:27Z</time></trkpt><trkpt lat="44.445288956996514" lon="8.42016872293425"><ele>512.0</ele><time>2026-05-01T12:13:28Z</time></trkpt><trkpt lat="44.44544296928046" lon="8.420098940701962"><ele>512.0</ele><time>2026-05-01T12:13:29Z</time></trkpt><trkpt lat="44.445619149065614" lon="8.420103513170963"><ele>516.0</ele><time>2026-05-01T12:13:30Z</time></trkpt><trkpt lat="44.44580910276769" lon="8.420084098476634"><ele>520.0</ele><time>2026-05-01T12:13:31Z</time></trkpt><trkpt lat="44.445990540813455" lon="8.420037348063246"><ele>524.0</ele><time>2026-05-01T12:13:32Z</time></trkpt><trkpt lat="44.4461709500872" lon="8.41988949521737"><ele>520.5</ele><time>2026-05-01T12:13:33Z</time></trkpt><trkpt lat="44.44638308893148" lon="8.41971733565554"><ele>517.0</ele><time>2026-05-01T12:13:34Z</time></trkpt><trkpt lat="44.446587469970005" lon="8.419599898473567"><ele>517.0</ele><time>2026-05-01T12:13:35Z</time></trkpt><trkpt lat="44.44678175998139" lon="8.419476933885237"><ele>517.0</ele><time>2026-05-01T12:13:36Z</time></trkpt><trkpt lat="44.446965703257185" lon="8.419319316502513"><ele>517.0</ele><time>2026-05-01T12:13:37Z</time></trkpt><trkpt lat="44.44712152603513" lon="8.419178577881482"><ele>520.5</ele><time>2026-05-01T12:13:38Z</time></trkpt><trkpt lat="44.44726079339965" lon="8.419124156823331"><ele>524.0</ele><time>2026-05-01T12:13:39Z</time></trkpt><trkpt lat="44.44740302521172" lon="8.419101291793556"><ele>527.5</ele><time>2026-05-01T12:13:40Z</time></trkpt><trkpt lat="44.447557864468614" lon="8.419053449367162"><ele>531.0</ele><time>2026-05-01T12:13:41Z</time></trkpt><trkpt lat="44.447670317382055" lon="8.418967676974336"><ele>531.0</ele><time>2026-05-01T12:13:42Z</time></trkpt><trkpt lat="44.447729334441604" lon="8.418819335857151"><ele>531.0</ele><time>2026-05-01T12:13:43Z</time></trkpt><trkpt lat="44.4477555915474" lon="8.418621906981434"><ele>531.0</ele><time>2026-05-01T12:13:44Z</time></trkpt><trkpt lat="44.44776524256232" lon="8.418404963871573"><ele>531.0</ele><time>2026-05-01T12:13:45Z</time></trkpt><trkpt lat="44.447811122315144" lon="8.41824825138463"><ele>529.0</ele><time>2026-05-01T12:13:46Z</time></trkpt><trkpt lat="44.447877739808476" lon="8.418141306528973"><ele>527.0</ele><time>2026-05-01T12:13:47Z</time></trkpt><trkpt lat="44.447952633239254" lon="8.41804965335777"><ele>525.0</ele><time>2026-05-01T12:13:48Z</time></trkpt><trkpt lat="44.4480634931103" lon="8.417981834610936"><ele>523.0</ele><time>2026-05-01T12:13:49Z</time></trkpt><trkpt lat="44.44819694425467" lon="8.41790465656625"><ele>527.0</ele><time>2026-05-01T12:13:50Z</time></trkpt><trkpt lat="44.44832227288094" lon="8.417770852367243"><ele>531.0</ele><time>2026-05-01T12:13:51Z</time></trkpt><trkpt lat="44.4484237356139" lon="8.417621400561604"><ele>535.0</ele><time>2026-05-01T12:13:52Z</time></trkpt><trkpt lat="44.4484616238504" lon="8.417471369225947"><ele>539.0</ele><time>2026-05-01T12:13:53Z</time></trkpt><trkpt lat="44.44844804257884" lon="8.417317268373019"><ele>539.0</ele><time>2026-05-01T12:13:54Z</time></trkpt><trkpt lat="44.4483841316691" lon="8.417153463942121"><ele>539.0</ele><time>2026-05-01T12:13:55Z</time></trkpt><trkpt lat="44.44829019510361" lon="8.41698712395968"><ele>539.0</ele><time>2026-05-01T12:13:56Z</time></trkpt><trkpt lat="44.44818526682063" lon="8.416814270617152"><ele>539.0</ele><time>2026-05-01T12:13:57Z</time></trkpt><trkpt lat="44.4481273124064" lon="8.416649048428944"><ele>540.25</ele><time>2026-05-01T12:13:58Z</time></trkpt><trkpt lat="44.44810969380456" lon="8.416459612700535"><ele>541.5</ele><time>2026-05-01T12:13:59Z</time></trkpt><trkpt lat="44.44813604366306" lon="8.416292102473827"><ele>542.75</ele><time>2026-05-01T12:14:00Z</time></trkpt><trkpt lat="44.448212181284916" lon="8.416134165161935"><ele>544.0</ele><time>2026-05-01T12:14:01Z</time></trkpt><trkpt lat="44.44831722577093" lon="8.415963041441579"><ele>544.0</ele><time>2026-05-01T12:14:02Z</time></trkpt><trkpt lat="44.44843540393701" lon="8.415763711339494"><ele>544.0</ele><time>2026-05-01T12:14:03Z</time></trkpt><trkpt lat="44.44855873196559" lon="8.415558880188783"><ele>544.0</ele><time>2026-05-01T12:14:04Z</time></trkpt><trkpt lat="44.4486944282065" lon="8.415384411191672"><ele>548.75</ele><time>2026-05-01T12:14:05Z</time></trkpt><trkpt lat="44.44882535635163" lon="8.41524785004479"><ele>553.5</ele><time>2026-05-01T12:14:06Z</time></trkpt><trkpt lat="44.448917557499975" lon="8.415119613174321"><ele>558.25</ele><time>2026-05-01T12:14:07Z</time></trkpt><trkpt lat="44.4489711759577" lon="8.414977713552041"><ele>563.0</ele><time>2026-05-01T12:14:08Z</time></trkpt><trkpt lat="44.448947362318314" lon="8.414806868833203"><ele>563.0</ele><time>2026-05-01T12:14:09Z</time></trkpt><trkpt lat="44.44891359922323" lon="8.41464312996392"><ele>563.0</ele><time>2026-05-01T12:14:10Z</time></trkpt><trkpt lat="44.44898189039539" lon="8.414530709143117"><ele>563.0</ele><time>2026-05-01T12:14:11Z</time></trkpt><trkpt lat="44.44905093037888" lon="8.414390242432596"><ele>563.0</ele><time>2026-05-01T12:14:12Z</time></trkpt><trkpt lat="44.449075996550086" lon="8.414248954250647"><ele>563.0</ele><time>2026-05-01T12:14:13Z</time></trkpt><trkpt lat="44.449029278320566" lon="8.414071933527225"><ele>563.0</ele><time>2026-05-01T12:14:14Z</time></trkpt><trkpt lat="44.44894826551428" lon="8.413872601618701"><ele>563.0</ele><time>2026-05-01T12:14:15Z</time></trkpt><trkpt lat="44.448860521976194" lon="8.413679437022573"><ele>559.5</ele><time>2026-05-01T12:14:16Z</time></trkpt><trkpt lat="44.44873924803808" lon="8.413532859109255"><ele>556.0</ele><time>2026-05-01T12:14:17Z</time></trkpt><trkpt lat="44.448606272462975" lon="8.413423552018715"><ele>552.5</ele><time>2026-05-01T12:14:18Z</time></trkpt><trkpt lat="44.44852692076207" lon="8.413274086091468"><ele>549.0</ele><time>2026-05-01T12:14:19Z</time></trkpt><trkpt lat="44.448427139841826" lon="8.413136984170404"><ele>548.25</ele><time>2026-05-01T12:14:20Z</time></trkpt><trkpt lat="44.448339745273174" lon="8.412970233416443"><ele>547.5</ele><time>2026-05-01T12:14:21Z</time></trkpt><trkpt lat="44.44824913611739" lon="8.41280675647188"><ele>546.75</ele><time>2026-05-01T12:14:22Z</time></trkpt><trkpt lat="44.448164031180845" lon="8.412655418455142"><ele>546.0</ele><time>2026-05-01T12:14:23Z</time></trkpt><trkpt lat="44.448081490180805" lon="8.412510805997044"><ele>546.0</ele><time>2026-05-01T12:14:24Z</time></trkpt><trkpt lat="44.448001736269134" lon="8.4123735776483"><ele>546.0</ele><time>2026-05-01T12:14:25Z</time></trkpt><trkpt lat="44.44792380650611" lon="8.412232536685678"><ele>546.0</ele><time>2026-05-01T12:14:26Z</time></trkpt><trkpt lat="44.44785321124076" lon="8.412094376023923"><ele>546.0</ele><time>2026-05-01T12:14:27Z</time></trkpt><trkpt lat="44.447771653635606" lon="8.411967942239198"><ele>545.0</ele><time>2026-05-01T12:14:28Z</time></trkpt><trkpt lat="44.447667061372755" lon="8.411884086942528"><ele>544.0</ele><time>2026-05-01T12:14:29Z</time></trkpt><trkpt lat="44.44755468149327" lon="8.411824797093665"><ele>543.0</ele><time>2026-05-01T12:14:30Z</time></trkpt><trkpt lat="44.447467021756395" lon="8.411744587715136"><ele>542.0</ele><time>2026-05-01T12:14:31Z</time></trkpt><trkpt lat="44.447442147844924" lon="8.41161403177831"><ele>541.0</ele><time>2026-05-01T12:14:32Z</time></trkpt><trkpt lat="44.447441561229496" lon="8.411475241797357"><ele>539.5</ele><time>2026-05-01T12:14:33Z</time></trkpt><trkpt lat="44.447411955472674" lon="8.411296833061769"><ele>538.0</ele><time>2026-05-01T12:14:34Z</time></trkpt><trkpt lat="44.447395747789884" lon="8.411082359397655"><ele>536.5</ele><time>2026-05-01T12:14:35Z</time></trkpt><trkpt lat="44.44735680383194" lon="8.410864138420852"><ele>535.0</ele><time>2026-05-01T12:14:36Z</time></trkpt><trkpt lat="44.4472981052927" lon="8.410627033368664"><ele>532.6666666666667</ele><time>2026-05-01T12:14:37Z</time></trkpt><trkpt lat="44.44728316804886" lon="8.410381937637707"><ele>530.3333333333334</ele><time>2026-05-01T12:14:38Z</time></trkpt><trkpt lat="44.447294496353976" lon="8.410128479659575"><ele>528.0</ele><time>2026-05-01T12:14:39Z</time></trkpt><trkpt lat="44.44731991483922" lon="8.409887433028167"><ele>528.0</ele><time>2026-05-01T12:14:40Z</time></trkpt><trkpt lat="44.44733424880029" lon="8.409661199011541"><ele>528.0</ele><time>2026-05-01T12:14:41Z</time></trkpt><trkpt lat="44.44732065744118" lon="8.409450711497884"><ele>528.0</ele><time>2026-05-01T12:14:42Z</time></trkpt><trkpt lat="44.447274175908206" lon="8.409254973989635"><ele>526.8</ele><time>2026-05-01T12:14:43Z</time></trkpt><trkpt lat="44.44723631100523" lon="8.409112868613029"><ele>525.5999999999999</ele><time>2026-05-01T12:14:44Z</time></trkpt><trkpt lat="44.447291265298325" lon="8.409001108075278"><ele>524.4000000000001</ele><time>2026-05-01T12:14:46Z</time></trkpt><trkpt lat="44.447363274553446" lon="8.40901529189801"><ele>523.2</ele><time>2026-05-01T12:14:47Z</time></trkpt><trkpt lat="44.44741917444618" lon="8.409100574588294"><ele>522.0</ele><time>2026-05-01T12:14:48Z</time></trkpt><trkpt lat="44.44742110120393" lon="8.409267144885648"><ele>522.0</ele><time>2026-05-01T12:14:49Z</time></trkpt><trkpt lat="44.44746763444727" lon="8.409447188769574"><ele>522.0</ele><time>2026-05-01T12:14:50Z</time></trkpt><trkpt lat="44.44750203747336" lon="8.409590243619181"><ele>522.0</ele><time>2026-05-01T12:14:51Z</time></trkpt><trkpt lat="44.44757201434206" lon="8.409637327359341"><ele>522.0</ele><time>2026-05-01T12:14:52Z</time></trkpt><trkpt lat="44.44765902851827" lon="8.409611031560484"><ele>522.0</ele><time>2026-05-01T12:14:53Z</time></trkpt><trkpt lat="44.447734069972476" lon="8.409512995257378"><ele>522.0</ele><time>2026-05-01T12:14:54Z</time></trkpt><trkpt lat="44.44777458114792" lon="8.409349491511277"><ele>522.0</ele><time>2026-05-01T12:14:55Z</time></trkpt><trkpt lat="44.44774434469291" lon="8.409150461715186"><ele>522.0</ele><time>2026-05-01T12:14:56Z</time></trkpt><trkpt lat="44.44765705777252" lon="8.408969346917692"><ele>522.0</ele><time>2026-05-01T12:14:57Z</time></trkpt><trkpt lat="44.4475508270144" lon="8.408822525536097"><ele>521.0</ele><time>2026-05-01T12:14:58Z</time></trkpt><trkpt lat="44.44752603275853" lon="8.408656843665614"><ele>520.0</ele><time>2026-05-01T12:14:59Z</time></trkpt><trkpt lat="44.44757025848142" lon="8.408484232741955"><ele>519.0</ele><time>2026-05-01T12:15:00Z</time></trkpt><trkpt lat="44.44759948537784" lon="8.408248048321132"><ele>518.0</ele><time>2026-05-01T12:15:01Z</time></trkpt><trkpt lat="44.447632732530046" lon="8.407977923381457"><ele>516.3333333333333</ele><time>2026-05-01T12:15:02Z</time></trkpt><trkpt lat="44.44762860555783" lon="8.40768947659592"><ele>514.6666666666666</ele><time>2026-05-01T12:15:03Z</time></trkpt><trkpt lat="44.44761418788309" lon="8.407375239115032"><ele>513.0</ele><time>2026-05-01T12:15:04Z</time></trkpt><trkpt lat="44.44759709800501" lon="8.407049640691557"><ele>510.0</ele><time>2026-05-01T12:15:05Z</time></trkpt><trkpt lat="44.447577230306685" lon="8.40670391942403"><ele>507.0</ele><time>2026-05-01T12:15:06Z</time></trkpt><trkpt lat="44.44755916516788" lon="8.406331463115976"><ele>504.0</ele><time>2026-05-01T12:15:07Z</time></trkpt><trkpt lat="44.44752169822151" lon="8.405953287484593"><ele>501.0</ele><time>2026-05-01T12:15:08Z</time></trkpt><trkpt lat="44.44747900705153" lon="8.405576700976924"><ele>497.0</ele><time>2026-05-01T12:15:09Z</time></trkpt><trkpt lat="44.44744055401766" lon="8.405196371769803"><ele>493.0</ele><time>2026-05-01T12:15:10Z</time></trkpt><trkpt lat="44.44741219485338" lon="8.404824603426794"><ele>490.0</ele><time>2026-05-01T12:15:11Z</time></trkpt><trkpt lat="44.44739366750107" lon="8.40448061439267"><ele>487.0</ele><time>2026-05-01T12:15:12Z</time></trkpt><trkpt lat="44.447395985560114" lon="8.404129047667084"><ele>485.33333333333337</ele><time>2026-05-01T12:15:13Z</time></trkpt><trkpt lat="44.447407553136124" lon="8.403816345226424"><ele>483.66666666666663</ele><time>2026-05-01T12:15:14Z</time></trkpt><trkpt lat="44.4474050186345" lon="8.403512230423372"><ele>482.0</ele><time>2026-05-01T12:15:15Z</time></trkpt><trkpt lat="44.44737959548019" lon="8.40322395908565"><ele>483.0</ele><time>2026-05-01T12:15:16Z</time></trkpt><trkpt lat="44.44734801425869" lon="8.402986691297334"><ele>484.0</ele><time>2026-05-01T12:15:17Z</time></trkpt><trkpt lat="44.447316400991426" lon="8.40276323652792"><ele>485.0</ele><time>2026-05-01T12:15:18Z</time></trkpt><trkpt lat="44.4472756325703" lon="8.402541503903697"><ele>485.0</ele><time>2026-05-01T12:15:19Z</time></trkpt><trkpt lat="44.447216658462864" lon="8.402303478950294"><ele>485.0</ele><time>2026-05-01T12:15:20Z</time></trkpt><trkpt lat="44.44714170375046" lon="8.402044067826926"><ele>485.0</ele><time>2026-05-01T12:15:21Z</time></trkpt><trkpt lat="44.447070249329315" lon="8.401809043891898"><ele>482.75</ele><time>2026-05-01T12:15:22Z</time></trkpt><trkpt lat="44.447008626896654" lon="8.401635965121386"><ele>480.5</ele><time>2026-05-01T12:15:23Z</time></trkpt><trkpt lat="44.44696636218705" lon="8.401499188458946"><ele>478.25</ele><time>2026-05-01T12:15:24Z</time></trkpt><trkpt lat="44.44695254291526" lon="8.401341682333275"><ele>476.0</ele><time>2026-05-01T12:15:25Z</time></trkpt><trkpt lat="44.44695683272205" lon="8.401152240925157"><ele>475.3333333333333</ele><time>2026-05-01T12:15:26Z</time></trkpt><trkpt lat="44.44696974498615" lon="8.400941451231722"><ele>474.66666666666663</ele><time>2026-05-01T12:15:27Z</time></trkpt><trkpt lat="44.446979875390355" lon="8.400713177465757"><ele>474.0</ele><time>2026-05-01T12:15:28Z</time></trkpt><trkpt lat="44.44698429575798" lon="8.400471169329592"><ele>474.75</ele><time>2026-05-01T12:15:29Z</time></trkpt><trkpt lat="44.446987293465405" lon="8.400275104618252"><ele>475.5</ele><time>2026-05-01T12:15:30Z</time></trkpt><trkpt lat="44.447005576586214" lon="8.40012425300202"><ele>476.25</ele><time>2026-05-01T12:15:31Z</time></trkpt><trkpt lat="44.44704848394431" lon="8.399973411409064"><ele>477.0</ele><time>2026-05-01T12:15:32Z</time></trkpt><trkpt lat="44.44714922491431" lon="8.399832799141246"><ele>474.33333333333337</ele><time>2026-05-01T12:15:33Z</time></trkpt><trkpt lat="44.44721889634234" lon="8.39961429832578"><ele>471.6666666666667</ele><time>2026-05-01T12:15:34Z</time></trkpt><trkpt lat="44.447259622523546" lon="8.399370685941976"><ele>469.0</ele><time>2026-05-01T12:15:35Z</time></trkpt><trkpt lat="44.44729900341969" lon="8.399085880114757"><ele>468.0</ele><time>2026-05-01T12:15:36Z</time></trkpt><trkpt lat="44.44735878942617" lon="8.398786820470017"><ele>467.0</ele><time>2026-05-01T12:15:37Z</time></trkpt><trkpt lat="44.44743358158959" lon="8.39846396117636"><ele>467.0</ele><time>2026-05-01T12:15:38Z</time></trkpt><trkpt lat="44.44750720176707" lon="8.398137352133082"><ele>467.0</ele><time>2026-05-01T12:15:39Z</time></trkpt><trkpt lat="44.44753277850621" lon="8.398014087512436"><ele>467.0</ele><time>2026-05-01T12:15:40Z</time></trkpt><trkpt lat="44.44756034699557" lon="8.397799391483026"><ele>466.25</ele><time>2026-05-01T12:15:41Z</time></trkpt><trkpt lat="44.44754409752429" lon="8.397594221222214"><ele>465.5</ele><time>2026-05-01T12:15:42Z</time></trkpt><trkpt lat="44.44750068527372" lon="8.397410393910247"><ele>464.75</ele><time>2026-05-01T12:15:43Z</time></trkpt><trkpt lat="44.447466983142746" lon="8.397234281817337"><ele>464.0</ele><time>2026-05-01T12:15:44Z</time></trkpt><trkpt lat="44.4475080237683" lon="8.397081106413031"><ele>463.99999999999994</ele><time>2026-05-01T12:15:45Z</time></trkpt><trkpt lat="44.44755520289682" lon="8.396941729911182"><ele>464.0</ele><time>2026-05-01T12:15:46Z</time></trkpt><trkpt lat="44.44759817654147" lon="8.396806290866426"><ele>464.0</ele><time>2026-05-01T12:15:47Z</time></trkpt><trkpt lat="44.4476195600236" lon="8.396689485717593"><ele>464.0</ele><time>2026-05-01T12:15:48Z</time></trkpt><trkpt lat="44.44764162300689" lon="8.396587260045962"><ele>463.99999999999994</ele><time>2026-05-01T12:15:49Z</time></trkpt><trkpt lat="44.447654102520225" lon="8.396491709390661"><ele>464.0</ele><time>2026-05-01T12:15:50Z</time></trkpt><trkpt lat="44.44766071611741" lon="8.39639787449504"><ele>463.4</ele><time>2026-05-01T12:15:51Z</time></trkpt><trkpt lat="44.44765645135858" lon="8.396307401338145"><ele>462.79999999999995</ele><time>2026-05-01T12:15:52Z</time></trkpt><trkpt lat="44.44764993103975" lon="8.396135481741103"><ele>462.20000000000005</ele><time>2026-05-01T12:15:54Z</time></trkpt><trkpt lat="44.44764980316927" lon="8.395965021448305"><ele>461.6</ele><time>2026-05-01T12:15:56Z</time></trkpt><trkpt lat="44.44763126766183" lon="8.39580444576075"><ele>461.0</ele><time>2026-05-01T12:15:58Z</time></trkpt><trkpt lat="44.44760375615523" lon="8.395635839126728"><ele>461.0</ele><time>2026-05-01T12:16:00Z</time></trkpt><trkpt lat="44.44758783259573" lon="8.395549908640092"><ele>461.00000000000006</ele><time>2026-05-01T12:16:01Z</time></trkpt><trkpt lat="44.447568412448774" lon="8.395456653135952"><ele>461.0</ele><time>2026-05-01T12:16:02Z</time></trkpt><trkpt lat="44.4475529956945" lon="8.395367498584257"><ele>461.0</ele><time>2026-05-01T12:16:03Z</time></trkpt><trkpt lat="44.4475317123838" lon="8.395270502387783"><ele>461.00000000000006</ele><time>2026-05-01T12:16:04Z</time></trkpt><trkpt lat="44.44750393863487" lon="8.395166543988521"><ele>461.0</ele><time>2026-05-01T12:16:05Z</time></trkpt><trkpt lat="44.44747489364371" lon="8.395044649556302"><ele>461.0</ele><time>2026-05-01T12:16:06Z</time></trkpt><trkpt lat="44.447453892492454" lon="8.394936636364154"><ele>460.5714285714286</ele><time>2026-05-01T12:16:07Z</time></trkpt><trkpt lat="44.44744482991643" lon="8.394833325545735"><ele>460.1428571428572</ele><time>2026-05-01T12:16:08Z</time></trkpt><trkpt lat="44.44745880908702" lon="8.394746123759827"><ele>459.7142857142857</ele><time>2026-05-01T12:16:09Z</time></trkpt><trkpt lat="44.447480595344004" lon="8.39466206002185"><ele>459.28571428571433</ele><time>2026-05-01T12:16:10Z</time></trkpt><trkpt lat="44.44754482855834" lon="8.394593083712463"><ele>458.8571428571429</ele><time>2026-05-01T12:16:11Z</time></trkpt><trkpt lat="44.44761251410113" lon="8.394542318756098"><ele>458.42857142857144</ele><time>2026-05-01T12:16:12Z</time></trkpt><trkpt lat="44.44769108334089" lon="8.394512125829772"><ele>458.0</ele><time>2026-05-01T12:16:13Z</time></trkpt><trkpt lat="44.44776604606227" lon="8.394484988309282"><ele>457.8333333333333</ele><time>2026-05-01T12:16:14Z</time></trkpt><trkpt lat="44.44784300534244" lon="8.394455894196525"><ele>457.66666666666663</ele><time>2026-05-01T12:16:15Z</time></trkpt><trkpt lat="44.44792402505304" lon="8.394433338128371"><ele>457.5</ele><time>2026-05-01T12:16:16Z</time></trkpt><trkpt lat="44.44799079684433" lon="8.394416496578723"><ele>457.33333333333337</ele><time>2026-05-01T12:16:17Z</time></trkpt><trkpt lat="44.44805874888783" lon="8.394399736022985"><ele>457.1666666666667</ele><time>2026-05-01T12:16:18Z</time></trkpt><trkpt lat="44.44813353605116" lon="8.39439141042381"><ele>457.0</ele><time>2026-05-01T12:16:19Z</time></trkpt><trkpt lat="44.44822559212534" lon="8.39436407863723"><ele>456.50000000000006</ele><time>2026-05-01T12:16:20Z</time></trkpt><trkpt lat="44.448322366221596" lon="8.39434636576262"><ele>456.0</ele><time>2026-05-01T12:16:21Z</time></trkpt><trkpt lat="44.448413967604544" lon="8.394322326253972"><ele>455.5</ele><time>2026-05-01T12:16:22Z</time></trkpt><trkpt lat="44.44849738792873" lon="8.394279393652598"><ele>455.0</ele><time>2026-05-01T12:16:23Z</time></trkpt><trkpt lat="44.4485789903346" lon="8.394225987604516"><ele>454.50000000000006</ele><time>2026-05-01T12:16:24Z</time></trkpt><trkpt lat="44.448638932657516" lon="8.394180932410913"><ele>454.0</ele><time>2026-05-01T12:16:25Z</time></trkpt><trkpt lat="44.44869470983544" lon="8.394135876743722"><ele>454.0</ele><time>2026-05-01T12:16:26Z</time></trkpt><trkpt lat="44.44875444911746" lon="8.394095467836669"><ele>454.0</ele><time>2026-05-01T12:16:27Z</time></trkpt><trkpt lat="44.448821546385545" lon="8.394050563210461"><ele>454.0</ele><time>2026-05-01T12:16:28Z</time></trkpt><trkpt lat="44.44890764941352" lon="8.393995338293246"><ele>454.0</ele><time>2026-05-01T12:16:29Z</time></trkpt><trkpt lat="44.449013454026186" lon="8.393926181755504"><ele>454.0</ele><time>2026-05-01T12:16:30Z</time></trkpt><trkpt lat="44.449105881086105" lon="8.393859884358942"><ele>454.0</ele><time>2026-05-01T12:16:31Z</time></trkpt><trkpt lat="44.44918472193678" lon="8.39381047195909"><ele>454.0</ele><time>2026-05-01T12:16:32Z</time></trkpt><trkpt lat="44.44925735365489" lon="8.393760635559165"><ele>454.0</ele><time>2026-05-01T12:16:33Z</time></trkpt><trkpt lat="44.44933525589882" lon="8.393705567499696"><ele>454.0</ele><time>2026-05-01T12:16:34Z</time></trkpt><trkpt lat="44.44943113868284" lon="8.393645335503692"><ele>454.0</ele><time>2026-05-01T12:16:35Z</time></trkpt><trkpt lat="44.4495303736213" lon="8.393590758967623"><ele>454.00000000000006</ele><time>2026-05-01T12:16:36Z</time></trkpt><trkpt lat="44.44961052273856" lon="8.39354355118251"><ele>454.0</ele><time>2026-05-01T12:16:37Z</time></trkpt><trkpt lat="44.44967892159051" lon="8.393504629916423"><ele>454.0</ele><time>2026-05-01T12:16:38Z</time></trkpt><trkpt lat="44.449756650984845" lon="8.393471416454322"><ele>454.0</ele><time>2026-05-01T12:16:39Z</time></trkpt><trkpt lat="44.44983220043884" lon="8.393470210583756"><ele>454.00000000000006</ele><time>2026-05-01T12:16:40Z</time></trkpt><trkpt lat="44.449910666604424" lon="8.393474744441562"><ele>454.0</ele><time>2026-05-01T12:16:41Z</time></trkpt><trkpt lat="44.44999284075222" lon="8.393470951772873"><ele>453.6666666666667</ele><time>2026-05-01T12:16:42Z</time></trkpt><trkpt lat="44.45006645775816" lon="8.393466216768461"><ele>453.33333333333337</ele><time>2026-05-01T12:16:43Z</time></trkpt><trkpt lat="44.45013120625279" lon="8.393455703807655"><ele>453.0</ele><time>2026-05-01T12:16:45Z</time></trkpt><trkpt lat="44.45021657828682" lon="8.393440110463766"><ele>452.66666666666663</ele><time>2026-05-01T12:16:50Z</time></trkpt><trkpt lat="44.45028713841506" lon="8.393430838079599"><ele>452.3333333333333</ele><time>2026-05-01T12:16:51Z</time></trkpt><trkpt lat="44.450362666489596" lon="8.393422374980027"><ele>452.0</ele><time>2026-05-01T12:16:52Z</time></trkpt><trkpt lat="44.45046439023784" lon="8.393419334112002"><ele>451.8333333333333</ele><time>2026-05-01T12:16:53Z</time></trkpt><trkpt lat="44.450544100686706" lon="8.393410081240136"><ele>451.66666666666663</ele><time>2026-05-01T12:16:54Z</time></trkpt><trkpt lat="44.45063823510157" lon="8.393402326627616"><ele>451.5</ele><time>2026-05-01T12:16:55Z</time></trkpt><trkpt lat="44.450729678345624" lon="8.393388990396897"><ele>451.33333333333337</ele><time>2026-05-01T12:16:56Z</time></trkpt><trkpt lat="44.45081048399226" lon="8.393386872798787"><ele>451.1666666666667</ele><time>2026-05-01T12:16:57Z</time></trkpt><trkpt lat="44.450883076008935" lon="8.393378042695575"><ele>451.0</ele><time>2026-05-01T12:16:58Z</time></trkpt><trkpt lat="44.45096440281781" lon="8.393373804199852"><ele>451.00000000000006</ele><time>2026-05-01T12:16:59Z</time></trkpt><trkpt lat="44.451057735250416" lon="8.39339141059668"><ele>451.0</ele><time>2026-05-01T12:17:00Z</time></trkpt><trkpt lat="44.45114529822929" lon="8.393431420086596"><ele>451.0</ele><time>2026-05-01T12:17:01Z</time></trkpt><trkpt lat="44.45121464122961" lon="8.393483033286115"><ele>451.0</ele><time>2026-05-01T12:17:02Z</time></trkpt><trkpt lat="44.45128435074872" lon="8.393535399928817"><ele>451.00000000000006</ele><time>2026-05-01T12:17:03Z</time></trkpt><trkpt lat="44.45136582652823" lon="8.393573586970208"><ele>451.0</ele><time>2026-05-01T12:17:04Z</time></trkpt><trkpt lat="44.451443793996866" lon="8.393582003052469"><ele>450.83333333333337</ele><time>2026-05-01T12:17:05Z</time></trkpt><trkpt lat="44.45151369361504" lon="8.393559506416166"><ele>450.6666666666667</ele><time>2026-05-01T12:17:06Z</time></trkpt><trkpt lat="44.45157813718796" lon="8.393511133815185"><ele>450.5</ele><time>2026-05-01T12:17:07Z</time></trkpt><trkpt lat="44.45164061361258" lon="8.393440954432936"><ele>450.33333333333337</ele><time>2026-05-01T12:17:08Z</time></trkpt><trkpt lat="44.45170440659122" lon="8.39336550862597"><ele>450.1666666666667</ele><time>2026-05-01T12:17:09Z</time></trkpt><trkpt lat="44.4517718201764" lon="8.393294585313408"><ele>450.0</ele><time>2026-05-01T12:17:10Z</time></trkpt><trkpt lat="44.45185395928366" lon="8.39321989938785"><ele>450.0</ele><time>2026-05-01T12:17:11Z</time></trkpt><trkpt lat="44.451937312959394" lon="8.39313853047752"><ele>450.0</ele><time>2026-05-01T12:17:12Z</time></trkpt><trkpt lat="44.452009938676454" lon="8.393071625877143"><ele>450.0</ele><time>2026-05-01T12:17:13Z</time></trkpt><trkpt lat="44.45207619447347" lon="8.39302446174328"><ele>450.0</ele><time>2026-05-01T12:17:14Z</time></trkpt><trkpt lat="44.452140576261165" lon="8.392987171359373"><ele>450.0</ele><time>2026-05-01T12:17:15Z</time></trkpt><trkpt lat="44.4522172450707" lon="8.392944457128351"><ele>450.0</ele><time>2026-05-01T12:17:16Z</time></trkpt><trkpt lat="44.45231340462218" lon="8.392888925112306"><ele>450.0</ele><time>2026-05-01T12:17:17Z</time></trkpt><trkpt lat="44.45243137967409" lon="8.392824605573777"><ele>450.0</ele><time>2026-05-01T12:17:18Z</time></trkpt><trkpt lat="44.452522355347504" lon="8.39278458313869"><ele>450.0</ele><time>2026-05-01T12:17:19Z</time></trkpt><trkpt lat="44.45262216971889" lon="8.392761317545911"><ele>450.0</ele><time>2026-05-01T12:17:20Z</time></trkpt><trkpt lat="44.45271943545826" lon="8.392731615242969"><ele>450.0</ele><time>2026-05-01T12:17:21Z</time></trkpt><trkpt lat="44.45282403274116" lon="8.39269586180807"><ele>450.0</ele><time>2026-05-01T12:17:22Z</time></trkpt><trkpt lat="44.45292765165752" lon="8.392649088460718"><ele>450.0</ele><time>2026-05-01T12:17:23Z</time></trkpt><trkpt lat="44.453033165128446" lon="8.392569473275465"><ele>450.0</ele><time>2026-05-01T12:17:24Z</time></trkpt><trkpt lat="44.45314789790993" lon="8.3924435492016"><ele>450.0</ele><time>2026-05-01T12:17:25Z</time></trkpt><trkpt lat="44.45330359590675" lon="8.392302340134654"><ele>450.66666666666663</ele><time>2026-05-01T12:17:26Z</time></trkpt><trkpt lat="44.45346186445904" lon="8.392118298118794"><ele>451.3333333333333</ele><time>2026-05-01T12:17:27Z</time></trkpt><trkpt lat="44.45360293294819" lon="8.391932581219939"><ele>452.0</ele><time>2026-05-01T12:17:28Z</time></trkpt><trkpt lat="44.45376213919506" lon="8.391746884064057"><ele>450.3333333333333</ele><time>2026-05-01T12:17:29Z</time></trkpt><trkpt lat="44.453931336226965" lon="8.391584153601055"><ele>448.66666666666663</ele><time>2026-05-01T12:17:30Z</time></trkpt><trkpt lat="44.45412330047201" lon="8.39145789879598"><ele>447.0</ele><time>2026-05-01T12:17:31Z</time></trkpt><trkpt lat="44.45434265641913" lon="8.391365923566866"><ele>448.0</ele><time>2026-05-01T12:17:32Z</time></trkpt><trkpt lat="44.454580708523764" lon="8.391299530474694"><ele>449.0</ele><time>2026-05-01T12:17:33Z</time></trkpt><trkpt lat="44.45482043604167" lon="8.39124052187648"><ele>449.0</ele><time>2026-05-01T12:17:34Z</time></trkpt><trkpt lat="44.455046229533906" lon="8.391179003380385"><ele>449.0</ele><time>2026-05-01T12:17:35Z</time></trkpt><trkpt lat="44.455279124979064" lon="8.391114144623462"><ele>448.5</ele><time>2026-05-01T12:17:36Z</time></trkpt><trkpt lat="44.455514781806485" lon="8.39105185291836"><ele>448.0</ele><time>2026-05-01T12:17:37Z</time></trkpt><trkpt lat="44.455757993376764" lon="8.390972887805331"><ele>448.0</ele><time>2026-05-01T12:17:38Z</time></trkpt><trkpt lat="44.45598939120944" lon="8.390854595329477"><ele>448.0</ele><time>2026-05-01T12:17:39Z</time></trkpt><trkpt lat="44.45621569755278" lon="8.390701161379532"><ele>447.5</ele><time>2026-05-01T12:17:40Z</time></trkpt><trkpt lat="44.45643247183309" lon="8.390515042380018"><ele>447.0</ele><time>2026-05-01T12:17:41Z</time></trkpt><trkpt lat="44.4566355407537" lon="8.39035022618117"><ele>447.0</ele><time>2026-05-01T12:17:42Z</time></trkpt><trkpt lat="44.45681649506719" lon="8.390206246454282"><ele>447.0</ele><time>2026-05-01T12:17:43Z</time></trkpt><trkpt lat="44.45698188766203" lon="8.390037026677518"><ele>447.0</ele><time>2026-05-01T12:17:44Z</time></trkpt><trkpt lat="44.45711898045486" lon="8.389811608397135"><ele>448.0</ele><time>2026-05-01T12:17:45Z</time></trkpt><trkpt lat="44.457225007895914" lon="8.389526067932906"><ele>449.0</ele><time>2026-05-01T12:17:46Z</time></trkpt><trkpt lat="44.457315561454294" lon="8.389228281002941"><ele>449.0</ele><time>2026-05-01T12:17:47Z</time></trkpt><trkpt lat="44.45738952099119" lon="8.388926559158588"><ele>449.0</ele><time>2026-05-01T12:17:48Z</time></trkpt><trkpt lat="44.457466074606266" lon="8.388654558576402"><ele>449.0</ele><time>2026-05-01T12:17:49Z</time></trkpt><trkpt lat="44.45757738427546" lon="8.388429762072825"><ele>449.0</ele><time>2026-05-01T12:17:50Z</time></trkpt><trkpt lat="44.457744908410255" lon="8.38824646501922"><ele>449.0</ele><time>2026-05-01T12:17:51Z</time></trkpt><trkpt lat="44.457938618484405" lon="8.38808612691786"><ele>449.0</ele><time>2026-05-01T12:17:52Z</time></trkpt><trkpt lat="44.45815187858605" lon="8.388024653537352"><ele>446.3333333333333</ele><time>2026-05-01T12:17:53Z</time></trkpt><trkpt lat="44.458357251271195" lon="8.387997172661564"><ele>443.66666666666663</ele><time>2026-05-01T12:17:54Z</time></trkpt><trkpt lat="44.45858914391744" lon="8.387960166142898"><ele>441.0</ele><time>2026-05-01T12:17:55Z</time></trkpt><trkpt lat="44.45881743191236" lon="8.387955088139707"><ele>440.0</ele><time>2026-05-01T12:17:56Z</time></trkpt><trkpt lat="44.459029291160675" lon="8.387885452879804"><ele>439.0</ele><time>2026-05-01T12:17:57Z</time></trkpt><trkpt lat="44.459210493347534" lon="8.38774562877251"><ele>438.0</ele><time>2026-05-01T12:17:58Z</time></trkpt><trkpt lat="44.45936730345597" lon="8.387562150227767"><ele>438.0</ele><time>2026-05-01T12:17:59Z</time></trkpt><trkpt lat="44.45948564564898" lon="8.3873795744551"><ele>438.0</ele><time>2026-05-01T12:18:00Z</time></trkpt><trkpt lat="44.45957210524872" lon="8.387198882299463"><ele>438.0</ele><time>2026-05-01T12:18:01Z</time></trkpt><trkpt lat="44.459618942213204" lon="8.38698762462602"><ele>440.66666666666663</ele><time>2026-05-01T12:18:02Z</time></trkpt><trkpt lat="44.45964608482204" lon="8.386737243578107"><ele>443.3333333333333</ele><time>2026-05-01T12:18:03Z</time></trkpt><trkpt lat="44.4596809100466" lon="8.386467897794637"><ele>446.0</ele><time>2026-05-01T12:18:04Z</time></trkpt><trkpt lat="44.45972070367511" lon="8.386172989612101"><ele>446.0</ele><time>2026-05-01T12:18:05Z</time></trkpt><trkpt lat="44.45975920784281" lon="8.38586941824274"><ele>446.0</ele><time>2026-05-01T12:18:06Z</time></trkpt><trkpt lat="44.459819075073156" lon="8.385549517571471"><ele>441.0</ele><time>2026-05-01T12:18:07Z</time></trkpt><trkpt lat="44.45992739570978" lon="8.385262888313164"><ele>436.0</ele><time>2026-05-01T12:18:08Z</time></trkpt><trkpt lat="44.46003437084599" lon="8.384960839804622"><ele>433.0</ele><time>2026-05-01T12:18:09Z</time></trkpt><trkpt lat="44.46017443050374" lon="8.38465183794214"><ele>430.0</ele><time>2026-05-01T12:18:10Z</time></trkpt><trkpt lat="44.46031106879149" lon="8.384337875656959"><ele>430.0</ele><time>2026-05-01T12:18:11Z</time></trkpt><trkpt lat="44.460444989774395" lon="8.384014258603266"><ele>430.0</ele><time>2026-05-01T12:18:12Z</time></trkpt><trkpt lat="44.46057697995433" lon="8.38369300476653"><ele>431.0</ele><time>2026-05-01T12:18:13Z</time></trkpt><trkpt lat="44.46068839094959" lon="8.383413910906343"><ele>432.0</ele><time>2026-05-01T12:18:14Z</time></trkpt><trkpt lat="44.46077308832888" lon="8.383197760206276"><ele>433.0</ele><time>2026-05-01T12:18:15Z</time></trkpt><trkpt lat="44.46087309706718" lon="8.382943988296514"><ele>431.0</ele><time>2026-05-01T12:18:16Z</time></trkpt><trkpt lat="44.46094412541726" lon="8.382645334394384"><ele>429.0</ele><time>2026-05-01T12:18:17Z</time></trkpt><trkpt lat="44.46098714084111" lon="8.382389893579553"><ele>427.0</ele><time>2026-05-01T12:18:18Z</time></trkpt><trkpt lat="44.461007109744706" lon="8.382141889392829"><ele>426.0</ele><time>2026-05-01T12:18:19Z</time></trkpt><trkpt lat="44.46101324333071" lon="8.381893185605335"><ele>425.0</ele><time>2026-05-01T12:18:20Z</time></trkpt><trkpt lat="44.46099752532524" lon="8.381632079100319"><ele>424.0</ele><time>2026-05-01T12:18:21Z</time></trkpt><trkpt lat="44.46096226256867" lon="8.381367359878787"><ele>425.33333333333337</ele><time>2026-05-01T12:18:22Z</time></trkpt><trkpt lat="44.46091862746126" lon="8.381101119139823"><ele>426.66666666666663</ele><time>2026-05-01T12:18:23Z</time></trkpt><trkpt lat="44.46087454462356" lon="8.380835806955941"><ele>428.0</ele><time>2026-05-01T12:18:24Z</time></trkpt><trkpt lat="44.460828260828336" lon="8.380569320378482"><ele>430.66666666666663</ele><time>2026-05-01T12:18:25Z</time></trkpt><trkpt lat="44.46077295689064" lon="8.380300396112208"><ele>433.33333333333337</ele><time>2026-05-01T12:18:26Z</time></trkpt><trkpt lat="44.460688809761464" lon="8.380028507017608"><ele>436.0</ele><time>2026-05-01T12:18:27Z</time></trkpt><trkpt lat="44.46057699486395" lon="8.379769822456348"><ele>430.5</ele><time>2026-05-01T12:18:28Z</time></trkpt><trkpt lat="44.460442160082906" lon="8.379512163376386"><ele>425.0</ele><time>2026-05-01T12:18:29Z</time></trkpt><trkpt lat="44.46029705350794" lon="8.379249294430844"><ele>425.0</ele><time>2026-05-01T12:18:30Z</time></trkpt><trkpt lat="44.46013959814707" lon="8.378988949907882"><ele>425.0</ele><time>2026-05-01T12:18:31Z</time></trkpt><trkpt lat="44.459967396791036" lon="8.378736810286908"><ele>423.0</ele><time>2026-05-01T12:18:32Z</time></trkpt><trkpt lat="44.45977345583116" lon="8.378488926890919"><ele>421.0</ele><time>2026-05-01T12:18:33Z</time></trkpt><trkpt lat="44.45957172741555" lon="8.378254216604379"><ele>421.0</ele><time>2026-05-01T12:18:34Z</time></trkpt><trkpt lat="44.45937752634867" lon="8.378038644566594"><ele>421.0</ele><time>2026-05-01T12:18:35Z</time></trkpt><trkpt lat="44.459173097330165" lon="8.377815484226725"><ele>418.5</ele><time>2026-05-01T12:18:36Z</time></trkpt><trkpt lat="44.458962633973506" lon="8.377578773040788"><ele>416.0</ele><time>2026-05-01T12:18:37Z</time></trkpt><trkpt lat="44.45875830854027" lon="8.377345534794054"><ele>419.0</ele><time>2026-05-01T12:18:38Z</time></trkpt><trkpt lat="44.458555886403126" lon="8.37710848803003"><ele>422.0</ele><time>2026-05-01T12:18:39Z</time></trkpt><trkpt lat="44.45836952804838" lon="8.376894004008747"><ele>422.0</ele><time>2026-05-01T12:18:40Z</time></trkpt><trkpt lat="44.458189056949436" lon="8.376684527456781"><ele>422.0</ele><time>2026-05-01T12:18:41Z</time></trkpt><trkpt lat="44.45800974058446" lon="8.376483921676643"><ele>418.5</ele><time>2026-05-01T12:18:42Z</time></trkpt><trkpt lat="44.45783111942435" lon="8.37628563851073"><ele>415.0</ele><time>2026-05-01T12:18:43Z</time></trkpt><trkpt lat="44.45766006173097" lon="8.376072886216285"><ele>415.0</ele><time>2026-05-01T12:18:44Z</time></trkpt><trkpt lat="44.45748550657123" lon="8.375840074506682"><ele>415.0</ele><time>2026-05-01T12:18:45Z</time></trkpt><trkpt lat="44.45732072642964" lon="8.375588799225254"><ele>415.33333333333337</ele><time>2026-05-01T12:18:46Z</time></trkpt><trkpt lat="44.457171338700775" lon="8.375329080410665"><ele>415.66666666666663</ele><time>2026-05-01T12:18:47Z</time></trkpt><trkpt lat="44.4570488730142" lon="8.375092991963994"><ele>416.0</ele><time>2026-05-01T12:18:48Z</time></trkpt><trkpt lat="44.45695220232879" lon="8.374853507392487"><ele>415.3333333333333</ele><time>2026-05-01T12:18:49Z</time></trkpt><trkpt lat="44.456889116973116" lon="8.374576555493"><ele>414.66666666666663</ele><time>2026-05-01T12:18:50Z</time></trkpt><trkpt lat="44.45685526862364" lon="8.374265260059959"><ele>414.0</ele><time>2026-05-01T12:18:51Z</time></trkpt><trkpt lat="44.45679035837759" lon="8.373952923166524"><ele>417.0</ele><time>2026-05-01T12:18:52Z</time></trkpt><trkpt lat="44.45668148963801" lon="8.373652440806843"><ele>420.0</ele><time>2026-05-01T12:18:53Z</time></trkpt><trkpt lat="44.45655375254709" lon="8.373351956478889"><ele>420.0</ele><time>2026-05-01T12:18:54Z</time></trkpt><trkpt lat="44.45642986864087" lon="8.373044399316248"><ele>420.0</ele><time>2026-05-01T12:18:55Z</time></trkpt><trkpt lat="44.456313112294076" lon="8.372766459009222"><ele>416.33333333333337</ele><time>2026-05-01T12:18:56Z</time></trkpt><trkpt lat="44.45622014642265" lon="8.372501947441727"><ele>412.6666666666667</ele><time>2026-05-01T12:18:57Z</time></trkpt><trkpt lat="44.456154977427985" lon="8.37223089411763"><ele>409.0</ele><time>2026-05-01T12:18:58Z</time></trkpt><trkpt lat="44.45611822328717" lon="8.371939420178744"><ele>409.0</ele><time>2026-05-01T12:18:59Z</time></trkpt><trkpt lat="44.4561131824188" lon="8.371623743586687"><ele>409.0</ele><time>2026-05-01T12:19:00Z</time></trkpt><trkpt lat="44.45611506533157" lon="8.371297916808308"><ele>409.0</ele><time>2026-05-01T12:19:01Z</time></trkpt><trkpt lat="44.45611619257096" lon="8.370970094010374"><ele>409.0</ele><time>2026-05-01T12:19:02Z</time></trkpt><trkpt lat="44.456115741449615" lon="8.370642014136731"><ele>408.0</ele><time>2026-05-01T12:19:03Z</time></trkpt><trkpt lat="44.456114830390064" lon="8.370313729680511"><ele>407.0</ele><time>2026-05-01T12:19:04Z</time></trkpt><trkpt lat="44.456115969228236" lon="8.369985178507829"><ele>406.0</ele><time>2026-05-01T12:19:05Z</time></trkpt><trkpt lat="44.45611732822076" lon="8.369651472492112"><ele>405.0</ele><time>2026-05-01T12:19:06Z</time></trkpt><trkpt lat="44.45611915662951" lon="8.369327438522502"><ele>405.0</ele><time>2026-05-01T12:19:07Z</time></trkpt><trkpt lat="44.45611948961135" lon="8.369010218429361"><ele>405.0</ele><time>2026-05-01T12:19:08Z</time></trkpt><trkpt lat="44.4561155785982" lon="8.3687154588605"><ele>405.0</ele><time>2026-05-01T12:19:09Z</time></trkpt><trkpt lat="44.45610528244545" lon="8.368434589069949"><ele>405.0</ele><time>2026-05-01T12:19:10Z</time></trkpt><trkpt lat="44.45607917685548" lon="8.368129419671622"><ele>405.0</ele><time>2026-05-01T12:19:11Z</time></trkpt><trkpt lat="44.456047461162356" lon="8.36784375556696"><ele>405.0</ele><time>2026-05-01T12:19:12Z</time></trkpt><trkpt lat="44.456020847117095" lon="8.36758317688774"><ele>405.33333333333337</ele><time>2026-05-01T12:19:13Z</time></trkpt><trkpt lat="44.455996606070194" lon="8.367337962487667"><ele>405.6666666666667</ele><time>2026-05-01T12:19:14Z</time></trkpt><trkpt lat="44.455974312143425" lon="8.367098559087939"><ele>406.0</ele><time>2026-05-01T12:19:15Z</time></trkpt><trkpt lat="44.455952331201416" lon="8.366867819388776"><ele>406.0</ele><time>2026-05-01T12:19:16Z</time></trkpt><trkpt lat="44.45592742051211" lon="8.366631517449042"><ele>406.0</ele><time>2026-05-01T12:19:17Z</time></trkpt><trkpt lat="44.45590151467625" lon="8.366380199736913"><ele>406.0</ele><time>2026-05-01T12:19:18Z</time></trkpt><trkpt lat="44.45587113530463" lon="8.366108697277609"><ele>405.6666666666667</ele><time>2026-05-01T12:19:19Z</time></trkpt><trkpt lat="44.455836626322274" lon="8.365817413126505"><ele>405.33333333333337</ele><time>2026-05-01T12:19:20Z</time></trkpt><trkpt lat="44.45580099490039" lon="8.365520096277477"><ele>405.0</ele><time>2026-05-01T12:19:21Z</time></trkpt><trkpt lat="44.455755264004765" lon="8.365212057744872"><ele>404.0</ele><time>2026-05-01T12:19:22Z</time></trkpt><trkpt lat="44.45569502333162" lon="8.364897242169896"><ele>403.0</ele><time>2026-05-01T12:19:23Z</time></trkpt><trkpt lat="44.455634128679705" lon="8.36457663528442"><ele>400.5</ele><time>2026-05-01T12:19:24Z</time></trkpt><trkpt lat="44.45557245599108" lon="8.364251318036137"><ele>398.0</ele><time>2026-05-01T12:19:25Z</time></trkpt><trkpt lat="44.4555072003478" lon="8.363918429426882"><ele>400.0</ele><time>2026-05-01T12:19:26Z</time></trkpt><trkpt lat="44.455444451534625" lon="8.363586197589354"><ele>402.0</ele><time>2026-05-01T12:19:27Z</time></trkpt><trkpt lat="44.45538319426516" lon="8.36325908501085"><ele>403.0</ele><time>2026-05-01T12:19:28Z</time></trkpt><trkpt lat="44.45532529170387" lon="8.362943159043605"><ele>404.0</ele><time>2026-05-01T12:19:29Z</time></trkpt><trkpt lat="44.45526810594339" lon="8.362634230844693"><ele>404.0</ele><time>2026-05-01T12:19:30Z</time></trkpt><trkpt lat="44.45521387405733" lon="8.362340215643668"><ele>404.0</ele><time>2026-05-01T12:19:31Z</time></trkpt><trkpt lat="44.45518506894085" lon="8.36207028106812"><ele>404.0</ele><time>2026-05-01T12:19:32Z</time></trkpt><trkpt lat="44.455196642118175" lon="8.36181127720338"><ele>403.0</ele><time>2026-05-01T12:19:33Z</time></trkpt><trkpt lat="44.455267134844746" lon="8.361565822062836"><ele>402.0</ele><time>2026-05-01T12:19:34Z</time></trkpt><trkpt lat="44.45531806257042" lon="8.36130227069972"><ele>401.0</ele><time>2026-05-01T12:19:35Z</time></trkpt><trkpt lat="44.45538739205463" lon="8.36103657585377"><ele>401.0</ele><time>2026-05-01T12:19:36Z</time></trkpt><trkpt lat="44.45545099397079" lon="8.360765853758839"><ele>401.0</ele><time>2026-05-01T12:19:37Z</time></trkpt><trkpt lat="44.45551695779381" lon="8.360485100859702"><ele>401.0</ele><time>2026-05-01T12:19:38Z</time></trkpt><trkpt lat="44.455585309688665" lon="8.360201917663598"><ele>400.66666666666663</ele><time>2026-05-01T12:19:39Z</time></trkpt><trkpt lat="44.45565339481582" lon="8.35990974688832"><ele>400.33333333333337</ele><time>2026-05-01T12:19:40Z</time></trkpt><trkpt lat="44.45571844440958" lon="8.359613814553107"><ele>400.0</ele><time>2026-05-01T12:19:41Z</time></trkpt><trkpt lat="44.45578077073651" lon="8.35932174070669"><ele>400.0</ele><time>2026-05-01T12:19:42Z</time></trkpt><trkpt lat="44.45584493919872" lon="8.359019507621861"><ele>400.0</ele><time>2026-05-01T12:19:43Z</time></trkpt><trkpt lat="44.455915690061865" lon="8.358703534013417"><ele>401.0</ele><time>2026-05-01T12:19:44Z</time></trkpt><trkpt lat="44.455988523471085" lon="8.358390024661643"><ele>402.0</ele><time>2026-05-01T12:19:45Z</time></trkpt><trkpt lat="44.45606033567393" lon="8.358081529934447"><ele>405.0</ele><time>2026-05-01T12:19:46Z</time></trkpt><trkpt lat="44.456131697981576" lon="8.357771832477733"><ele>408.0</ele><time>2026-05-01T12:19:47Z</time></trkpt><trkpt lat="44.45619933965619" lon="8.357465024340867"><ele>405.66666666666663</ele><time>2026-05-01T12:19:48Z</time></trkpt><trkpt lat="44.45626347422006" lon="8.357175687227185"><ele>403.3333333333333</ele><time>2026-05-01T12:19:49Z</time></trkpt><trkpt lat="44.456338405819515" lon="8.356918040664086"><ele>401.0</ele><time>2026-05-01T12:19:50Z</time></trkpt><trkpt lat="44.456452219900115" lon="8.356682148679665"><ele>401.0</ele><time>2026-05-01T12:19:51Z</time></trkpt><trkpt lat="44.45658262644963" lon="8.356448814281213"><ele>401.0</ele><time>2026-05-01T12:19:52Z</time></trkpt><trkpt lat="44.45672488027905" lon="8.356219301727844"><ele>401.0</ele><time>2026-05-01T12:19:53Z</time></trkpt><trkpt lat="44.45689598486997" lon="8.356018584613858"><ele>400.0</ele><time>2026-05-01T12:19:54Z</time></trkpt><trkpt lat="44.45706749111155" lon="8.355808036546243"><ele>399.0</ele><time>2026-05-01T12:19:55Z</time></trkpt><trkpt lat="44.45723846742448" lon="8.35559945241944"><ele>400.5</ele><time>2026-05-01T12:19:56Z</time></trkpt><trkpt lat="44.457409560923004" lon="8.355383022321567"><ele>402.0</ele><time>2026-05-01T12:19:57Z</time></trkpt><trkpt lat="44.45757916391386" lon="8.355166660107093"><ele>402.0</ele><time>2026-05-01T12:19:58Z</time></trkpt><trkpt lat="44.45773423337695" lon="8.354969237976125"><ele>402.0</ele><time>2026-05-01T12:19:59Z</time></trkpt><trkpt lat="44.45785374428516" lon="8.354786739770601"><ele>402.0</ele><time>2026-05-01T12:20:00Z</time></trkpt><trkpt lat="44.45792298157522" lon="8.354585803091478"><ele>402.33333333333337</ele><time>2026-05-01T12:20:01Z</time></trkpt><trkpt lat="44.45795776491801" lon="8.35434757687546"><ele>402.6666666666667</ele><time>2026-05-01T12:20:02Z</time></trkpt><trkpt lat="44.457889059931404" lon="8.354040201733829"><ele>403.0</ele><time>2026-05-01T12:20:03Z</time></trkpt><trkpt lat="44.45781407530715" lon="8.35373791245622"><ele>402.0</ele><time>2026-05-01T12:20:04Z</time></trkpt><trkpt lat="44.45774175980742" lon="8.353438755189641"><ele>401.0</ele><time>2026-05-01T12:20:05Z</time></trkpt><trkpt lat="44.45764071498814" lon="8.353142397853745"><ele>404.0</ele><time>2026-05-01T12:20:06Z</time></trkpt><trkpt lat="44.45749601670513" lon="8.352856342336453"><ele>407.0</ele><time>2026-05-01T12:20:07Z</time></trkpt><trkpt lat="44.45733944978251" lon="8.352574390598841"><ele>407.0</ele><time>2026-05-01T12:20:08Z</time></trkpt><trkpt lat="44.45718527266121" lon="8.352295952774927"><ele>407.0</ele><time>2026-05-01T12:20:09Z</time></trkpt><trkpt lat="44.45702430872376" lon="8.352000527231924"><ele>405.5</ele><time>2026-05-01T12:20:10Z</time></trkpt><trkpt lat="44.45686076225523" lon="8.35171661515043"><ele>404.0</ele><time>2026-05-01T12:20:11Z</time></trkpt><trkpt lat="44.456709472277055" lon="8.351437166237258"><ele>407.5</ele><time>2026-05-01T12:20:12Z</time></trkpt><trkpt lat="44.45656330887278" lon="8.351164179938339"><ele>411.0</ele><time>2026-05-01T12:20:13Z</time></trkpt><trkpt lat="44.45641898219569" lon="8.350895643224282"><ele>410.5</ele><time>2026-05-01T12:20:14Z</time></trkpt><trkpt lat="44.45627604588718" lon="8.350636471941852"><ele>410.0</ele><time>2026-05-01T12:20:15Z</time></trkpt><trkpt lat="44.45615886501805" lon="8.350359066628904"><ele>409.66666666666663</ele><time>2026-05-01T12:20:16Z</time></trkpt><trkpt lat="44.456069532689064" lon="8.350090973441057"><ele>409.33333333333337</ele><time>2026-05-01T12:20:17Z</time></trkpt><trkpt lat="44.45599268589109" lon="8.349795965676025"><ele>409.0</ele><time>2026-05-01T12:20:18Z</time></trkpt><trkpt lat="44.455900836536195" lon="8.34949584393531"><ele>410.0</ele><time>2026-05-01T12:20:19Z</time></trkpt><trkpt lat="44.45582133932641" lon="8.34920911435044"><ele>411.0</ele><time>2026-05-01T12:20:20Z</time></trkpt><trkpt lat="44.45576220831045" lon="8.348966301230144"><ele>412.0</ele><time>2026-05-01T12:20:21Z</time></trkpt><trkpt lat="44.455735581030964" lon="8.348711882128686"><ele>412.6666666666667</ele><time>2026-05-01T12:20:22Z</time></trkpt><trkpt lat="44.45575090635008" lon="8.348449587022932"><ele>413.33333333333337</ele><time>2026-05-01T12:20:23Z</time></trkpt><trkpt lat="44.45580081217554" lon="8.34820535077009"><ele>414.0</ele><time>2026-05-01T12:20:24Z</time></trkpt><trkpt lat="44.45586598519915" lon="8.348014793274997"><ele>414.66666666666663</ele><time>2026-05-01T12:20:25Z</time></trkpt><trkpt lat="44.455962619533075" lon="8.347876752413029"><ele>415.3333333333333</ele><time>2026-05-01T12:20:26Z</time></trkpt><trkpt lat="44.45610153697207" lon="8.347760163893712"><ele>416.0</ele><time>2026-05-01T12:20:27Z</time></trkpt><trkpt lat="44.45626560439892" lon="8.347636761078821"><ele>418.3333333333333</ele><time>2026-05-01T12:20:28Z</time></trkpt><trkpt lat="44.45642050623026" lon="8.3475034500231"><ele>420.66666666666663</ele><time>2026-05-01T12:20:29Z</time></trkpt><trkpt lat="44.45659208480613" lon="8.347368965319735"><ele>423.0</ele><time>2026-05-01T12:20:30Z</time></trkpt><trkpt lat="44.456741695713916" lon="8.347260737423337"><ele>423.79999999999995</ele><time>2026-05-01T12:20:31Z</time></trkpt><trkpt lat="44.45685474101951" lon="8.347184045377173"><ele>424.6</ele><time>2026-05-01T12:20:32Z</time></trkpt><trkpt lat="44.456896869265975" lon="8.347089374987883"><ele>425.40000000000003</ele><time>2026-05-01T12:20:33Z</time></trkpt><trkpt lat="44.45689422641509" lon="8.34699465429615"><ele>426.20000000000005</ele><time>2026-05-01T12:20:34Z</time></trkpt><trkpt lat="44.45684228428801" lon="8.346894199598882"><ele>427.0</ele><time>2026-05-01T12:20:35Z</time></trkpt><trkpt lat="44.45673210089303" lon="8.34684708725443"><ele>427.0</ele><time>2026-05-01T12:20:36Z</time></trkpt><trkpt lat="44.45659689926058" lon="8.346853297792027"><ele>427.0</ele><time>2026-05-01T12:20:37Z</time></trkpt><trkpt lat="44.45643959633677" lon="8.346886400581074"><ele>427.0</ele><time>2026-05-01T12:20:38Z</time></trkpt><trkpt lat="44.45626753492802" lon="8.346905565078645"><ele>426.6</ele><time>2026-05-01T12:20:39Z</time></trkpt><trkpt lat="44.45613354147669" lon="8.34690021447579"><ele>426.20000000000005</ele><time>2026-05-01T12:20:40Z</time></trkpt><trkpt lat="44.456061239423875" lon="8.346840559125761"><ele>425.8</ele><time>2026-05-01T12:20:41Z</time></trkpt><trkpt lat="44.45602173752941" lon="8.346730087975605"><ele>425.4</ele><time>2026-05-01T12:20:42Z</time></trkpt><trkpt lat="44.455993180935195" lon="8.346562026032645"><ele>425.0</ele><time>2026-05-01T12:20:43Z</time></trkpt><trkpt lat="44.45598796170671" lon="8.346365867807119"><ele>425.0</ele><time>2026-05-01T12:20:44Z</time></trkpt><trkpt lat="44.456002667674035" lon="8.346136990905878"><ele>425.0</ele><time>2026-05-01T12:20:45Z</time></trkpt><trkpt lat="44.45599350501229" lon="8.34588460423543"><ele>425.0</ele><time>2026-05-01T12:20:46Z</time></trkpt><trkpt lat="44.45597757941327" lon="8.345628316909739"><ele>426.75</ele><time>2026-05-01T12:20:47Z</time></trkpt><trkpt lat="44.45599006623213" lon="8.345408043103212"><ele>428.5</ele><time>2026-05-01T12:20:48Z</time></trkpt><trkpt lat="44.456024147560214" lon="8.345200231492116"><ele>430.25</ele><time>2026-05-01T12:20:49Z</time></trkpt><trkpt lat="44.45610299869124" lon="8.345101157380382"><ele>432.0</ele><time>2026-05-01T12:20:50Z</time></trkpt><trkpt lat="44.45619823333713" lon="8.345016422316453"><ele>435.0</ele><time>2026-05-01T12:20:51Z</time></trkpt><trkpt lat="44.4563226147354" lon="8.344879629783165"><ele>438.0</ele><time>2026-05-01T12:20:52Z</time></trkpt><trkpt lat="44.45643727503798" lon="8.344741302161353"><ele>441.0</ele><time>2026-05-01T12:20:53Z</time></trkpt><trkpt lat="44.45649100281604" lon="8.344636065413484"><ele>444.0</ele><time>2026-05-01T12:20:54Z</time></trkpt><trkpt lat="44.45648277648987" lon="8.344523129120184"><ele>443.5</ele><time>2026-05-01T12:20:55Z</time></trkpt><trkpt lat="44.456454486160354" lon="8.344427582125716"><ele>443.0</ele><time>2026-05-01T12:20:56Z</time></trkpt><trkpt lat="44.456308383405855" lon="8.344375170338017"><ele>442.5</ele><time>2026-05-01T12:20:57Z</time></trkpt><trkpt lat="44.456178718090676" lon="8.344326039153469"><ele>442.0</ele><time>2026-05-01T12:20:58Z</time></trkpt><trkpt lat="44.45607073164647" lon="8.344184231788851"><ele>442.0</ele><time>2026-05-01T12:20:59Z</time></trkpt><trkpt lat="44.45598848007691" lon="8.34397609746646"><ele>442.0</ele><time>2026-05-01T12:21:00Z</time></trkpt><trkpt lat="44.45589095099492" lon="8.343758039154213"><ele>442.0</ele><time>2026-05-01T12:21:01Z</time></trkpt><trkpt lat="44.45575263476397" lon="8.343609752000992"><ele>442.6666666666667</ele><time>2026-05-01T12:21:02Z</time></trkpt><trkpt lat="44.45558444549816" lon="8.343540772373116"><ele>443.33333333333337</ele><time>2026-05-01T12:21:03Z</time></trkpt><trkpt lat="44.45539712573122" lon="8.343529775721876"><ele>444.0</ele><time>2026-05-01T12:21:04Z</time></trkpt><trkpt lat="44.45524455667479" lon="8.343523327108077"><ele>444.5</ele><time>2026-05-01T12:21:05Z</time></trkpt><trkpt lat="44.45513376847555" lon="8.343446898024785"><ele>445.0</ele><time>2026-05-01T12:21:06Z</time></trkpt><trkpt lat="44.45502275290292" lon="8.343399943215417"><ele>445.5</ele><time>2026-05-01T12:21:07Z</time></trkpt><trkpt lat="44.45490794229029" lon="8.343336909191727"><ele>446.0</ele><time>2026-05-01T12:21:08Z</time></trkpt><trkpt lat="44.45478059041944" lon="8.34332054021918"><ele>446.0</ele><time>2026-05-01T12:21:09Z</time></trkpt><trkpt lat="44.454654273243385" lon="8.343301974459633"><ele>446.0</ele><time>2026-05-01T12:21:10Z</time></trkpt><trkpt lat="44.454513216213485" lon="8.343264046524592"><ele>446.0</ele><time>2026-05-01T12:21:11Z</time></trkpt><trkpt lat="44.45438707291817" lon="8.343238724082028"><ele>446.0</ele><time>2026-05-01T12:21:12Z</time></trkpt><trkpt lat="44.45427239443541" lon="8.343219972190427"><ele>447.5</ele><time>2026-05-01T12:21:13Z</time></trkpt><trkpt lat="44.45417242209973" lon="8.343202511325101"><ele>449.0</ele><time>2026-05-01T12:21:14Z</time></trkpt><trkpt lat="44.45406882768832" lon="8.343178434044587"><ele>450.5</ele><time>2026-05-01T12:21:15Z</time></trkpt><trkpt lat="44.453950707240665" lon="8.34314612804151"><ele>452.0</ele><time>2026-05-01T12:21:16Z</time></trkpt><trkpt lat="44.453825979286684" lon="8.343105892331513"><ele>451.8</ele><time>2026-05-01T12:21:17Z</time></trkpt><trkpt lat="44.45371802777214" lon="8.343079350386104"><ele>451.6</ele><time>2026-05-01T12:21:18Z</time></trkpt><trkpt lat="44.45362139464589" lon="8.343056502803606"><ele>451.40000000000003</ele><time>2026-05-01T12:21:19Z</time></trkpt><trkpt lat="44.453530819876065" lon="8.343027965547025"><ele>451.20000000000005</ele><time>2026-05-01T12:21:20Z</time></trkpt><trkpt lat="44.453450487568425" lon="8.342985160875056"><ele>451.0</ele><time>2026-05-01T12:21:21Z</time></trkpt><trkpt lat="44.45337062932655" lon="8.342918196977742"><ele>451.0</ele><time>2026-05-01T12:21:22Z</time></trkpt><trkpt lat="44.45327656485373" lon="8.342840750920148"><ele>451.0</ele><time>2026-05-01T12:21:23Z</time></trkpt><trkpt lat="44.4531853797853" lon="8.342764568512116"><ele>451.0</ele><time>2026-05-01T12:21:24Z</time></trkpt><trkpt lat="44.45309562926985" lon="8.342711916312158"><ele>451.0</ele><time>2026-05-01T12:21:25Z</time></trkpt><trkpt lat="44.453006720533786" lon="8.342675150955948"><ele>451.0</ele><time>2026-05-01T12:21:26Z</time></trkpt><trkpt lat="44.45292246971304" lon="8.342643077335538"><ele>451.00000000000006</ele><time>2026-05-01T12:21:27Z</time></trkpt><trkpt lat="44.45284055529324" lon="8.34260791765761"><ele>451.0</ele><time>2026-05-01T12:21:28Z</time></trkpt><trkpt lat="44.452764283553385" lon="8.342575569028726"><ele>451.0</ele><time>2026-05-01T12:21:29Z</time></trkpt><trkpt lat="44.45268687910215" lon="8.342550054683933"><ele>451.0</ele><time>2026-05-01T12:21:30Z</time></trkpt><trkpt lat="44.452610683377486" lon="8.34252536314862"><ele>451.00000000000006</ele><time>2026-05-01T12:21:31Z</time></trkpt><trkpt lat="44.45252578101097" lon="8.34249687284418"><ele>451.0</ele><time>2026-05-01T12:21:32Z</time></trkpt><trkpt lat="44.45244217027255" lon="8.3424593878047"><ele>451.0</ele><time>2026-05-01T12:21:33Z</time></trkpt><trkpt lat="44.452348325738285" lon="8.342414663813896"><ele>451.0</ele><time>2026-05-01T12:21:34Z</time></trkpt><trkpt lat="44.45225089134011" lon="8.34236392665772"><ele>451.0</ele><time>2026-05-01T12:21:35Z</time></trkpt><trkpt lat="44.45215002167683" lon="8.34229224231687"><ele>451.0</ele><time>2026-05-01T12:21:36Z</time></trkpt><trkpt lat="44.452067250774" lon="8.342180032321851"><ele>451.0</ele><time>2026-05-01T12:21:37Z</time></trkpt><trkpt lat="44.45201743740991" lon="8.342054064052043"><ele>450.0</ele><time>2026-05-01T12:21:38Z</time></trkpt><trkpt lat="44.45198927815119" lon="8.341926540437168"><ele>449.0</ele><time>2026-05-01T12:21:39Z</time></trkpt><trkpt lat="44.45197659423575" lon="8.34178744000772"><ele>448.0</ele><time>2026-05-01T12:21:40Z</time></trkpt><trkpt lat="44.45198171848591" lon="8.341632674708041"><ele>447.0</ele><time>2026-05-01T12:21:41Z</time></trkpt><trkpt lat="44.45199935132193" lon="8.341465249867404"><ele>446.0</ele><time>2026-05-01T12:21:42Z</time></trkpt><trkpt lat="44.45202965229835" lon="8.341294904478971"><ele>445.75</ele><time>2026-05-01T12:21:43Z</time></trkpt><trkpt lat="44.452053592408085" lon="8.341133513944806"><ele>445.5</ele><time>2026-05-01T12:21:44Z</time></trkpt><trkpt lat="44.45206953737632" lon="8.340979623012633"><ele>445.25</ele><time>2026-05-01T12:21:45Z</time></trkpt><trkpt lat="44.45208555794095" lon="8.340811774091959"><ele>445.0</ele><time>2026-05-01T12:21:46Z</time></trkpt><trkpt lat="44.45209856232021" lon="8.34063328689678"><ele>444.5</ele><time>2026-05-01T12:21:47Z</time></trkpt><trkpt lat="44.4520940764824" lon="8.340457866578738"><ele>444.0</ele><time>2026-05-01T12:21:48Z</time></trkpt><trkpt lat="44.45207615203658" lon="8.340283711677202"><ele>443.5</ele><time>2026-05-01T12:21:49Z</time></trkpt><trkpt lat="44.452046314260706" lon="8.34011962511115"><ele>443.0</ele><time>2026-05-01T12:21:50Z</time></trkpt><trkpt lat="44.45199750025424" lon="8.33995771291138"><ele>443.0</ele><time>2026-05-01T12:21:51Z</time></trkpt><trkpt lat="44.45191860072679" lon="8.339786897377603"><ele>443.0</ele><time>2026-05-01T12:21:52Z</time></trkpt><trkpt lat="44.45181382873824" lon="8.339602332571719"><ele>443.0</ele><time>2026-05-01T12:21:53Z</time></trkpt><trkpt lat="44.451685722490296" lon="8.33940942137096"><ele>442.66666666666663</ele><time>2026-05-01T12:21:54Z</time></trkpt><trkpt lat="44.45153650582813" lon="8.339206569403002"><ele>442.33333333333337</ele><time>2026-05-01T12:21:55Z</time></trkpt><trkpt lat="44.451385042991774" lon="8.33900049021982"><ele>442.0</ele><time>2026-05-01T12:21:56Z</time></trkpt><trkpt lat="44.45123250503975" lon="8.338785523381944"><ele>442.6666666666667</ele><time>2026-05-01T12:21:57Z</time></trkpt><trkpt lat="44.45108129955473" lon="8.338574219650255"><ele>443.33333333333337</ele><time>2026-05-01T12:21:58Z</time></trkpt><trkpt lat="44.4509422345927" lon="8.338378868260602"><ele>444.0</ele><time>2026-05-01T12:21:59Z</time></trkpt><trkpt lat="44.450855014579346" lon="8.338160447649269"><ele>443.33333333333337</ele><time>2026-05-01T12:22:00Z</time></trkpt><trkpt lat="44.45077935790449" lon="8.337946518058994"><ele>442.6666666666667</ele><time>2026-05-01T12:22:01Z</time></trkpt><trkpt lat="44.45078832775875" lon="8.337671464094226"><ele>442.0</ele><time>2026-05-01T12:22:02Z</time></trkpt><trkpt lat="44.45077407511122" lon="8.337381567745215"><ele>442.0</ele><time>2026-05-01T12:22:03Z</time></trkpt><trkpt lat="44.45077217601593" lon="8.337084790994767"><ele>442.0</ele><time>2026-05-01T12:22:04Z</time></trkpt><trkpt lat="44.45076621787254" lon="8.336798665006262"><ele>442.0</ele><time>2026-05-01T12:22:05Z</time></trkpt><trkpt lat="44.45077322874754" lon="8.336538942527687"><ele>443.33333333333337</ele><time>2026-05-01T12:22:06Z</time></trkpt><trkpt lat="44.45074798961939" lon="8.33633912649657"><ele>444.66666666666663</ele><time>2026-05-01T12:22:07Z</time></trkpt><trkpt lat="44.450925183209534" lon="8.336208317060686"><ele>446.0</ele><time>2026-05-01T12:22:08Z</time></trkpt><trkpt lat="44.45106433726117" lon="8.336110332477025"><ele>446.0</ele><time>2026-05-01T12:22:09Z</time></trkpt><trkpt lat="44.45125071634263" lon="8.336055078347346"><ele>446.0</ele><time>2026-05-01T12:22:10Z</time></trkpt><trkpt lat="44.45143237403931" lon="8.335969080510786"><ele>446.0</ele><time>2026-05-01T12:22:11Z</time></trkpt><trkpt lat="44.45157839862684" lon="8.335803800736526"><ele>441.3333333333333</ele><time>2026-05-01T12:22:12Z</time></trkpt><trkpt lat="44.45166964355585" lon="8.335575226035568"><ele>436.66666666666663</ele><time>2026-05-01T12:22:13Z</time></trkpt><trkpt lat="44.45170866289149" lon="8.335283447007976"><ele>432.0</ele><time>2026-05-01T12:22:14Z</time></trkpt><trkpt lat="44.45173810279101" lon="8.334949123351144"><ele>431.0</ele><time>2026-05-01T12:22:15Z</time></trkpt><trkpt lat="44.45179077598149" lon="8.334606179147132"><ele>430.0</ele><time>2026-05-01T12:22:16Z</time></trkpt><trkpt lat="44.45185103794047" lon="8.334276181326073"><ele>430.0</ele><time>2026-05-01T12:22:17Z</time></trkpt><trkpt lat="44.45190442210134" lon="8.33403149151209"><ele>430.0</ele><time>2026-05-01T12:22:18Z</time></trkpt><trkpt lat="44.45194609174094" lon="8.333840825226234"><ele>430.0</ele><time>2026-05-01T12:22:19Z</time></trkpt><trkpt lat="44.45200988609924" lon="8.333249411826893"><ele>428.5</ele><time>2026-05-01T12:22:20Z</time></trkpt><trkpt lat="44.45202815212291" lon="8.332906235205833"><ele>427.0</ele><time>2026-05-01T12:22:21Z</time></trkpt><trkpt lat="44.452016332183476" lon="8.332538712481318"><ele>426.5</ele><time>2026-05-01T12:22:22Z</time></trkpt><trkpt lat="44.4519835125666" lon="8.33215761873782"><ele>426.0</ele><time>2026-05-01T12:22:23Z</time></trkpt><trkpt lat="44.451960359360875" lon="8.331784441627265"><ele>426.0</ele><time>2026-05-01T12:22:24Z</time></trkpt><trkpt lat="44.45194507722306" lon="8.331439212113555"><ele>426.0</ele><time>2026-05-01T12:22:25Z</time></trkpt><trkpt lat="44.45192759314734" lon="8.331129422808491"><ele>421.66666666666663</ele><time>2026-05-01T12:22:26Z</time></trkpt><trkpt lat="44.451900094964934" lon="8.330846101383562"><ele>417.3333333333333</ele><time>2026-05-01T12:22:27Z</time></trkpt><trkpt lat="44.451843250307014" lon="8.330574231965127"><ele>413.0</ele><time>2026-05-01T12:22:28Z</time></trkpt><trkpt lat="44.451723652868736" lon="8.330321367866523"><ele>403.5</ele><time>2026-05-01T12:22:29Z</time></trkpt><trkpt lat="44.45157933232499" lon="8.3300710882712"><ele>394.0</ele><time>2026-05-01T12:22:30Z</time></trkpt><trkpt lat="44.45145000420231" lon="8.329795812970449"><ele>399.0</ele><time>2026-05-01T12:22:31Z</time></trkpt><trkpt lat="44.45133210613277" lon="8.329507053368589"><ele>404.0</ele><time>2026-05-01T12:22:32Z</time></trkpt><trkpt lat="44.45124924801914" lon="8.329205709970434"><ele>404.0</ele><time>2026-05-01T12:22:33Z</time></trkpt><trkpt lat="44.4511625181014" lon="8.328944424454004"><ele>404.0</ele><time>2026-05-01T12:22:34Z</time></trkpt><trkpt lat="44.451042143354265" lon="8.328725924706223"><ele>404.0</ele><time>2026-05-01T12:22:35Z</time></trkpt><trkpt lat="44.45087296138574" lon="8.32856791575317"><ele>395.0</ele><time>2026-05-01T12:22:36Z</time></trkpt><trkpt lat="44.450687656309626" lon="8.328462665922688"><ele>386.0</ele><time>2026-05-01T12:22:37Z</time></trkpt><trkpt lat="44.450476006526316" lon="8.32842041205501"><ele>377.0</ele><time>2026-05-01T12:22:38Z</time></trkpt><trkpt lat="44.4502287440584" lon="8.328403953014224"><ele>377.0</ele><time>2026-05-01T12:22:39Z</time></trkpt><trkpt lat="44.44998201433706" lon="8.328390276574098"><ele>377.0</ele><time>2026-05-01T12:22:40Z</time></trkpt><trkpt lat="44.44973641531805" lon="8.328338327465074"><ele>375.6666666666667</ele><time>2026-05-01T12:22:41Z</time></trkpt><trkpt lat="44.44952773215742" lon="8.328258263586957"><ele>374.3333333333333</ele><time>2026-05-01T12:22:42Z</time></trkpt><trkpt lat="44.44933561658582" lon="8.328183107206726"><ele>373.0</ele><time>2026-05-01T12:22:43Z</time></trkpt><trkpt lat="44.449164035846664" lon="8.328090465467048"><ele>367.5</ele><time>2026-05-01T12:22:44Z</time></trkpt><trkpt lat="44.44898723376316" lon="8.328007320731087"><ele>362.0</ele><time>2026-05-01T12:22:45Z</time></trkpt><trkpt lat="44.44870728795054" lon="8.328348973980718"><ele>361.33333333333337</ele><time>2026-05-01T12:22:46Z</time></trkpt><trkpt lat="44.448482160910764" lon="8.328418428212979"><ele>360.6666666666667</ele><time>2026-05-01T12:22:47Z</time></trkpt><trkpt lat="44.448287579991515" lon="8.328446464053675"><ele>360.0</ele><time>2026-05-01T12:22:48Z</time></trkpt><trkpt lat="44.44813411532332" lon="8.32847157374975"><ele>360.0</ele><time>2026-05-01T12:22:49Z</time></trkpt><trkpt lat="44.448005955224474" lon="8.32854398013845"><ele>360.0</ele><time>2026-05-01T12:22:50Z</time></trkpt><trkpt lat="44.44792473007732" lon="8.328679188564967"><ele>360.0</ele><time>2026-05-01T12:22:51Z</time></trkpt><trkpt lat="44.447889117905966" lon="8.328872823166243"><ele>360.0</ele><time>2026-05-01T12:22:52Z</time></trkpt><trkpt lat="44.447906117320734" lon="8.32912061877811"><ele>358.6</ele><time>2026-05-01T12:22:53Z</time></trkpt><trkpt lat="44.44794056965533" lon="8.32934659441475"><ele>357.2</ele><time>2026-05-01T12:22:54Z</time></trkpt><trkpt lat="44.447930893479466" lon="8.329501501937767"><ele>355.79999999999995</ele><time>2026-05-01T12:22:55Z</time></trkpt><trkpt lat="44.44791599204567" lon="8.329591273763585"><ele>354.4</ele><time>2026-05-01T12:22:56Z</time></trkpt><trkpt lat="44.44783746306432" lon="8.329611282408916"><ele>353.0</ele><time>2026-05-01T12:22:57Z</time></trkpt><trkpt lat="44.44775595019569" lon="8.329552279818593"><ele>353.0</ele><time>2026-05-01T12:22:58Z</time></trkpt><trkpt lat="44.44769654383507" lon="8.32941860918608"><ele>353.0</ele><time>2026-05-01T12:22:59Z</time></trkpt><trkpt lat="44.44766232533665" lon="8.32921094844892"><ele>353.0</ele><time>2026-05-01T12:23:00Z</time></trkpt><trkpt lat="44.44762208638238" lon="8.329001867438635"><ele>353.0</ele><time>2026-05-01T12:23:01Z</time></trkpt><trkpt lat="44.44754967592049" lon="8.328770631739607"><ele>351.33333333333337</ele><time>2026-05-01T12:23:02Z</time></trkpt><trkpt lat="44.44747865549768" lon="8.328531849922053"><ele>349.6666666666667</ele><time>2026-05-01T12:23:03Z</time></trkpt><trkpt lat="44.44740915594563" lon="8.328263184759026"><ele>348.0</ele><time>2026-05-01T12:23:04Z</time></trkpt><trkpt lat="44.447346916917766" lon="8.327999411128053"><ele>348.0</ele><time>2026-05-01T12:23:05Z</time></trkpt><trkpt lat="44.44727853775815" lon="8.327708219466087"><ele>348.0</ele><time>2026-05-01T12:23:06Z</time></trkpt><trkpt lat="44.44721104935948" lon="8.327408229287789"><ele>348.0</ele><time>2026-05-01T12:23:07Z</time></trkpt><trkpt lat="44.44714416176751" lon="8.327085727424958"><ele>351.5</ele><time>2026-05-01T12:23:08Z</time></trkpt><trkpt lat="44.44709148307835" lon="8.32674858173067"><ele>355.0</ele><time>2026-05-01T12:23:09Z</time></trkpt><trkpt lat="44.447057052800744" lon="8.326407189563126"><ele>354.0</ele><time>2026-05-01T12:23:10Z</time></trkpt><trkpt lat="44.44706896561018" lon="8.326052557480455"><ele>353.0</ele><time>2026-05-01T12:23:11Z</time></trkpt><trkpt lat="44.44709555230958" lon="8.325684624434334"><ele>351.5</ele><time>2026-05-01T12:23:12Z</time></trkpt><trkpt lat="44.4471056032784" lon="8.32532257471087"><ele>350.0</ele><time>2026-05-01T12:23:13Z</time></trkpt><trkpt lat="44.44709727790443" lon="8.324961754732682"><ele>346.5</ele><time>2026-05-01T12:23:14Z</time></trkpt><trkpt lat="44.4470513276434" lon="8.324599311962572"><ele>343.0</ele><time>2026-05-01T12:23:15Z</time></trkpt><trkpt lat="44.446991561827296" lon="8.324239162227206"><ele>343.0</ele><time>2026-05-01T12:23:16Z</time></trkpt><trkpt lat="44.44692946017019" lon="8.323879525449215"><ele>343.0</ele><time>2026-05-01T12:23:17Z</time></trkpt><trkpt lat="44.44686947908216" lon="8.323515967075657"><ele>343.0</ele><time>2026-05-01T12:23:18Z</time></trkpt><trkpt lat="44.4468125454201" lon="8.323154130941509"><ele>343.0</ele><time>2026-05-01T12:23:19Z</time></trkpt><trkpt lat="44.446757782800994" lon="8.322802635265399"><ele>341.5</ele><time>2026-05-01T12:23:20Z</time></trkpt><trkpt lat="44.44670219137186" lon="8.322459362333028"><ele>340.0</ele><time>2026-05-01T12:23:21Z</time></trkpt><trkpt lat="44.44663980554444" lon="8.322116559992283"><ele>339.0</ele><time>2026-05-01T12:23:22Z</time></trkpt><trkpt lat="44.446568060380066" lon="8.321776210843183"><ele>338.0</ele><time>2026-05-01T12:23:23Z</time></trkpt><trkpt lat="44.44648295439722" lon="8.321439648676373"><ele>336.0</ele><time>2026-05-01T12:23:24Z</time></trkpt><trkpt lat="44.446362165154575" lon="8.321125026903651"><ele>334.0</ele><time>2026-05-01T12:23:25Z</time></trkpt><trkpt lat="44.44620162133123" lon="8.32086203265969"><ele>337.0</ele><time>2026-05-01T12:23:26Z</time></trkpt><trkpt lat="44.44602614930759" lon="8.320601030364765"><ele>340.0</ele><time>2026-05-01T12:23:27Z</time></trkpt><trkpt lat="44.44588216528678" lon="8.320365057991605"><ele>340.0</ele><time>2026-05-01T12:23:28Z</time></trkpt><trkpt lat="44.44576698867349" lon="8.320160996886525"><ele>340.0</ele><time>2026-05-01T12:23:29Z</time></trkpt><trkpt lat="44.445721774255084" lon="8.319967486519484"><ele>340.0</ele><time>2026-05-01T12:23:30Z</time></trkpt><trkpt lat="44.44569476503508" lon="8.319792677620864"><ele>341.25</ele><time>2026-05-01T12:23:31Z</time></trkpt><trkpt lat="44.445770207433654" lon="8.319625929158356"><ele>342.5</ele><time>2026-05-01T12:23:32Z</time></trkpt><trkpt lat="44.445843491031255" lon="8.319470704970602"><ele>343.75</ele><time>2026-05-01T12:23:33Z</time></trkpt><trkpt lat="44.44592501915832" lon="8.319331751368892"><ele>345.0</ele><time>2026-05-01T12:23:34Z</time></trkpt><trkpt lat="44.44605082839619" lon="8.319279970179448"><ele>345.0</ele><time>2026-05-01T12:23:35Z</time></trkpt><trkpt lat="44.44617342659926" lon="8.319229563001429"><ele>345.0</ele><time>2026-05-01T12:23:36Z</time></trkpt><trkpt lat="44.4462817884943" lon="8.31917526047909"><ele>345.0</ele><time>2026-05-01T12:23:37Z</time></trkpt><trkpt lat="44.446389080838514" lon="8.319141846402564"><ele>345.0</ele><time>2026-05-01T12:23:38Z</time></trkpt><trkpt lat="44.44650543458" lon="8.319095933672708"><ele>344.75</ele><time>2026-05-01T12:23:39Z</time></trkpt><trkpt lat="44.446622865451424" lon="8.319046384357135"><ele>344.5</ele><time>2026-05-01T12:23:40Z</time></trkpt><trkpt lat="44.44673153829981" lon="8.318988081757254"><ele>344.25</ele><time>2026-05-01T12:23:41Z</time></trkpt><trkpt lat="44.446831964875365" lon="8.31890757477011"><ele>344.0</ele><time>2026-05-01T12:23:42Z</time></trkpt><trkpt lat="44.44691998571084" lon="8.318783919463943"><ele>344.0</ele><time>2026-05-01T12:23:43Z</time></trkpt><trkpt lat="44.44698837912402" lon="8.318614875203812"><ele>344.0</ele><time>2026-05-01T12:23:44Z</time></trkpt><trkpt lat="44.447027340286034" lon="8.318405959464565"><ele>344.0</ele><time>2026-05-01T12:23:45Z</time></trkpt><trkpt lat="44.447055202476484" lon="8.31813970674706"><ele>346.6666666666667</ele><time>2026-05-01T12:23:46Z</time></trkpt><trkpt lat="44.44711983200436" lon="8.317863745350527"><ele>349.3333333333333</ele><time>2026-05-01T12:23:47Z</time></trkpt><trkpt lat="44.44715463644107" lon="8.317609497806963"><ele>352.0</ele><time>2026-05-01T12:23:48Z</time></trkpt><trkpt lat="44.44717139039678" lon="8.317385846668316"><ele>353.0</ele><time>2026-05-01T12:23:49Z</time></trkpt><trkpt lat="44.447135165774675" lon="8.317156486175701"><ele>354.0</ele><time>2026-05-01T12:23:50Z</time></trkpt><trkpt lat="44.447035660636764" lon="8.316931468022553"><ele>355.0</ele><time>2026-05-01T12:23:51Z</time></trkpt><trkpt lat="44.446915592895365" lon="8.316703374054232"><ele>355.0</ele><time>2026-05-01T12:23:52Z</time></trkpt><trkpt lat="44.44687063047833" lon="8.316463136765233"><ele>355.0</ele><time>2026-05-01T12:23:53Z</time></trkpt><trkpt lat="44.44687090151391" lon="8.316236853578133"><ele>355.0</ele><time>2026-05-01T12:23:54Z</time></trkpt><trkpt lat="44.446905609986615" lon="8.315988207068918"><ele>355.66666666666663</ele><time>2026-05-01T12:23:55Z</time></trkpt><trkpt lat="44.446990327131594" lon="8.31575040102821"><ele>356.3333333333333</ele><time>2026-05-01T12:23:56Z</time></trkpt><trkpt lat="44.44711355621683" lon="8.315549773912817"><ele>357.0</ele><time>2026-05-01T12:23:57Z</time></trkpt><trkpt lat="44.447253303609614" lon="8.315358969459954"><ele>343.3333333333333</ele><time>2026-05-01T12:23:58Z</time></trkpt><trkpt lat="44.44737710813167" lon="8.315185500551356"><ele>329.66666666666663</ele><time>2026-05-01T12:23:59Z</time></trkpt><trkpt lat="44.447478434008936" lon="8.315019453230637"><ele>316.0</ele><time>2026-05-01T12:24:00Z</time></trkpt><trkpt lat="44.44754964921819" lon="8.314836505543063"><ele>316.3333333333333</ele><time>2026-05-01T12:24:01Z</time></trkpt><trkpt lat="44.44759667301115" lon="8.314632853596228"><ele>316.6666666666667</ele><time>2026-05-01T12:24:02Z</time></trkpt><trkpt lat="44.44761732664934" lon="8.314413345354003"><ele>317.0</ele><time>2026-05-01T12:24:03Z</time></trkpt><trkpt lat="44.44761417830778" lon="8.314176166990817"><ele>317.0</ele><time>2026-05-01T12:24:04Z</time></trkpt><trkpt lat="44.447599934133024" lon="8.313940552221952"><ele>317.0</ele><time>2026-05-01T12:24:05Z</time></trkpt><trkpt lat="44.447587396316216" lon="8.313728128027607"><ele>317.0</ele><time>2026-05-01T12:24:06Z</time></trkpt><trkpt lat="44.44757941811589" lon="8.313541355236268"><ele>316.33333333333337</ele><time>2026-05-01T12:24:07Z</time></trkpt><trkpt lat="44.447576742886056" lon="8.31340691504448"><ele>315.6666666666667</ele><time>2026-05-01T12:24:08Z</time></trkpt><trkpt lat="44.44757433784522" lon="8.313292149819363"><ele>315.0</ele><time>2026-05-01T12:24:09Z</time></trkpt><trkpt lat="44.447574742516544" lon="8.313188936268778"><ele>314.3333333333333</ele><time>2026-05-01T12:24:10Z</time></trkpt><trkpt lat="44.44758502869691" lon="8.313089704083719"><ele>313.66666666666663</ele><time>2026-05-01T12:24:12Z</time></trkpt><trkpt lat="44.44761025812639" lon="8.312977899045778"><ele>313.0</ele><time>2026-05-01T12:24:15Z</time></trkpt><trkpt lat="44.447473561411634" lon="8.312876505769104"><ele>311.75</ele><time>2026-05-01T12:24:16Z</time></trkpt><trkpt lat="44.44737317778214" lon="8.312792962106025"><ele>310.5</ele><time>2026-05-01T12:24:17Z</time></trkpt><trkpt lat="44.44728455397923" lon="8.312686011112259"><ele>309.25</ele><time>2026-05-01T12:24:18Z</time></trkpt><trkpt lat="44.44721183343001" lon="8.31254666910443"><ele>308.0</ele><time>2026-05-01T12:24:19Z</time></trkpt><trkpt lat="44.447149994314074" lon="8.3123986012087"><ele>309.25</ele><time>2026-05-01T12:24:20Z</time></trkpt><trkpt lat="44.447097430049986" lon="8.312244205270748"><ele>310.5</ele><time>2026-05-01T12:24:21Z</time></trkpt><trkpt lat="44.44704909727883" lon="8.312077758013595"><ele>311.75</ele><time>2026-05-01T12:24:22Z</time></trkpt><trkpt lat="44.44699622597509" lon="8.311928467896331"><ele>313.0</ele><time>2026-05-01T12:24:23Z</time></trkpt><trkpt lat="44.446937891956594" lon="8.311816366685576"><ele>313.0</ele><time>2026-05-01T12:24:24Z</time></trkpt><trkpt lat="44.446874395066466" lon="8.31171930602993"><ele>313.0</ele><time>2026-05-01T12:24:25Z</time></trkpt><trkpt lat="44.44680289095033" lon="8.311638183240927"><ele>313.0</ele><time>2026-05-01T12:24:26Z</time></trkpt><trkpt lat="44.446722458267935" lon="8.311578805068054"><ele>313.0</ele><time>2026-05-01T12:24:27Z</time></trkpt><trkpt lat="44.44663700580752" lon="8.311535699485525"><ele>313.0</ele><time>2026-05-01T12:24:28Z</time></trkpt><trkpt lat="44.4465525487781" lon="8.311508727318847"><ele>313.0</ele><time>2026-05-01T12:24:29Z</time></trkpt><trkpt lat="44.44646437708378" lon="8.311491344625033"><ele>313.0</ele><time>2026-05-01T12:24:30Z</time></trkpt><trkpt lat="44.44637502712263" lon="8.311482863024695"><ele>313.0</ele><time>2026-05-01T12:24:31Z</time></trkpt><trkpt lat="44.44629037628481" lon="8.311447497246133"><ele>313.0</ele><time>2026-05-01T12:24:32Z</time></trkpt><trkpt lat="44.446199845393494" lon="8.311370231938769"><ele>313.0</ele><time>2026-05-01T12:24:33Z</time></trkpt><trkpt lat="44.44612425417416" lon="8.311250487583631"><ele>310.25</ele><time>2026-05-01T12:24:34Z</time></trkpt><trkpt lat="44.446041917509284" lon="8.311116759984476"><ele>307.5</ele><time>2026-05-01T12:24:35Z</time></trkpt><trkpt lat="44.44595355127523" lon="8.3109778254372"><ele>304.75</ele><time>2026-05-01T12:24:36Z</time></trkpt><trkpt lat="44.445858791559566" lon="8.310828260136267"><ele>302.0</ele><time>2026-05-01T12:24:37Z</time></trkpt><trkpt lat="44.44576375264301" lon="8.31067647795839"><ele>301.75</ele><time>2026-05-01T12:24:38Z</time></trkpt><trkpt lat="44.44567149943888" lon="8.310533698475814"><ele>301.5</ele><time>2026-05-01T12:24:39Z</time></trkpt><trkpt lat="44.44558260043888" lon="8.310396409736866"><ele>301.25</ele><time>2026-05-01T12:24:40Z</time></trkpt><trkpt lat="44.445505235874414" lon="8.310279780768283"><ele>301.0</ele><time>2026-05-01T12:24:41Z</time></trkpt><trkpt lat="44.44543508677069" lon="8.31017645445975"><ele>301.16666666666663</ele><time>2026-05-01T12:24:42Z</time></trkpt><trkpt lat="44.445374142405996" lon="8.310081172278329"><ele>301.3333333333333</ele><time>2026-05-01T12:24:43Z</time></trkpt><trkpt lat="44.44531709532455" lon="8.30998985697626"><ele>301.5</ele><time>2026-05-01T12:24:44Z</time></trkpt><trkpt lat="44.445281446350776" lon="8.309915236065162"><ele>301.6666666666667</ele><time>2026-05-01T12:24:45Z</time></trkpt><trkpt lat="44.44525502030083" lon="8.309831269768704"><ele>301.83333333333337</ele><time>2026-05-01T12:24:47Z</time></trkpt><trkpt lat="44.445196596226" lon="8.3097428543998"><ele>302.0</ele><time>2026-05-01T12:24:50Z</time></trkpt><trkpt lat="44.44522063708456" lon="8.3096453022466"><ele>302.0</ele><time>2026-05-01T12:24:51Z</time></trkpt><trkpt lat="44.445173071768785" lon="8.309578612175788"><ele>302.0</ele><time>2026-05-01T12:24:58Z</time></trkpt><trkpt lat="44.44525198726892" lon="8.309513363672853"><ele>302.0</ele><time>2026-05-01T12:27:52Z</time></trkpt><trkpt lat="44.44518298900325" lon="8.309441294298397"><ele>302.0</ele><time>2026-05-01T12:28:32Z</time></trkpt><trkpt lat="44.445069740293555" lon="8.30943068491241"><ele>302.0</ele><time>2026-05-01T12:28:34Z</time></trkpt><trkpt lat="44.44499220701685" lon="8.309411729748144"><ele>302.0</ele><time>2026-05-01T12:28:36Z</time></trkpt><trkpt lat="44.44487588965099" lon="8.30927286349414"><ele>302.0</ele><time>2026-05-01T12:28:38Z</time></trkpt><trkpt lat="44.44480514682281" lon="8.309159224848376"><ele>302.0</ele><time>2026-05-01T12:28:39Z</time></trkpt><trkpt lat="44.444727640220144" lon="8.309033304496602"><ele>302.0</ele><time>2026-05-01T12:28:40Z</time></trkpt><trkpt lat="44.44463407824836" lon="8.308891724905896"><ele>302.0</ele><time>2026-05-01T12:28:41Z</time></trkpt><trkpt lat="44.44451896586658" lon="8.308724982582396"><ele>303.0</ele><time>2026-05-01T12:28:42Z</time></trkpt><trkpt lat="44.444395770533646" lon="8.308547804677469"><ele>304.0</ele><time>2026-05-01T12:28:43Z</time></trkpt><trkpt lat="44.44428099943595" lon="8.308369443686148"><ele>305.0</ele><time>2026-05-01T12:28:44Z</time></trkpt><trkpt lat="44.44418404983246" lon="8.308184093931905"><ele>304.5</ele><time>2026-05-01T12:28:45Z</time></trkpt><trkpt lat="44.44411556166069" lon="8.307991917810226"><ele>304.0</ele><time>2026-05-01T12:28:46Z</time></trkpt><trkpt lat="44.444061746093816" lon="8.307803567805317"><ele>303.5</ele><time>2026-05-01T12:28:47Z</time></trkpt><trkpt lat="44.444005445250696" lon="8.307624119195284"><ele>303.0</ele><time>2026-05-01T12:28:48Z</time></trkpt><trkpt lat="44.44394283625565" lon="8.307433996503745"><ele>302.6666666666667</ele><time>2026-05-01T12:28:49Z</time></trkpt><trkpt lat="44.44387024465149" lon="8.307223591597186"><ele>302.33333333333337</ele><time>2026-05-01T12:28:50Z</time></trkpt><trkpt lat="44.44379480443466" lon="8.307013102405909"><ele>302.0</ele><time>2026-05-01T12:28:51Z</time></trkpt><trkpt lat="44.44372054848323" lon="8.306796290762074"><ele>302.6666666666667</ele><time>2026-05-01T12:28:52Z</time></trkpt><trkpt lat="44.44364324267795" lon="8.306564682660705"><ele>303.3333333333333</ele><time>2026-05-01T12:28:53Z</time></trkpt><trkpt lat="44.44355955761418" lon="8.30631393074011"><ele>304.0</ele><time>2026-05-01T12:28:54Z</time></trkpt><trkpt lat="44.44347231203549" lon="8.30605321934482"><ele>304.66666666666663</ele><time>2026-05-01T12:28:55Z</time></trkpt><trkpt lat="44.44338656348315" lon="8.305794993263904"><ele>305.3333333333333</ele><time>2026-05-01T12:28:56Z</time></trkpt><trkpt lat="44.44330896061954" lon="8.305559039379615"><ele>306.0</ele><time>2026-05-01T12:28:57Z</time></trkpt><trkpt lat="44.44323004632943" lon="8.305324670412578"><ele>306.6666666666667</ele><time>2026-05-01T12:28:58Z</time></trkpt><trkpt lat="44.44314155285346" lon="8.305093412135895"><ele>307.33333333333337</ele><time>2026-05-01T12:28:59Z</time></trkpt><trkpt lat="44.44302485744644" lon="8.304881001104999"><ele>308.0</ele><time>2026-05-01T12:29:00Z</time></trkpt><trkpt lat="44.442896718290015" lon="8.304694365935333"><ele>309.0</ele><time>2026-05-01T12:29:01Z</time></trkpt><trkpt lat="44.44277046629766" lon="8.30452794530756"><ele>310.0</ele><time>2026-05-01T12:29:02Z</time></trkpt><trkpt lat="44.44263315298039" lon="8.304390565036568"><ele>311.0</ele><time>2026-05-01T12:29:03Z</time></trkpt><trkpt lat="44.44246228205059" lon="8.304290723538465"><ele>311.0</ele><time>2026-05-01T12:29:04Z</time></trkpt><trkpt lat="44.44226726415909" lon="8.304237888964984"><ele>311.0</ele><time>2026-05-01T12:29:05Z</time></trkpt><trkpt lat="44.44209032983389" lon="8.304158976084905"><ele>311.0</ele><time>2026-05-01T12:29:06Z</time></trkpt><trkpt lat="44.441939431600304" lon="8.304048232348059"><ele>312.6666666666667</ele><time>2026-05-01T12:29:07Z</time></trkpt><trkpt lat="44.44179483998141" lon="8.3039034582261"><ele>314.3333333333333</ele><time>2026-05-01T12:29:08Z</time></trkpt><trkpt lat="44.44166626439769" lon="8.303719454400635"><ele>316.0</ele><time>2026-05-01T12:29:09Z</time></trkpt><trkpt lat="44.44153786522957" lon="8.303536826144612"><ele>316.0</ele><time>2026-05-01T12:29:10Z</time></trkpt><trkpt lat="44.44140504207496" lon="8.303358520833434"><ele>316.0</ele><time>2026-05-01T12:29:11Z</time></trkpt><trkpt lat="44.4412699034998" lon="8.303176581081143"><ele>316.0</ele><time>2026-05-01T12:29:12Z</time></trkpt><trkpt lat="44.44112921313041" lon="8.302990136080085"><ele>317.0</ele><time>2026-05-01T12:29:13Z</time></trkpt><trkpt lat="44.4409842022605" lon="8.302803840553377"><ele>318.0</ele><time>2026-05-01T12:29:14Z</time></trkpt><trkpt lat="44.440838594647765" lon="8.302619431466178"><ele>319.0</ele><time>2026-05-01T12:29:15Z</time></trkpt><trkpt lat="44.44069412468872" lon="8.302431797209383"><ele>322.3333333333333</ele><time>2026-05-01T12:29:16Z</time></trkpt><trkpt lat="44.440561236396164" lon="8.302232321244555"><ele>325.6666666666667</ele><time>2026-05-01T12:29:17Z</time></trkpt><trkpt lat="44.44044353719559" lon="8.302011204144787"><ele>329.0</ele><time>2026-05-01T12:29:18Z</time></trkpt><trkpt lat="44.440335280762206" lon="8.301817532801488"><ele>329.6666666666667</ele><time>2026-05-01T12:29:19Z</time></trkpt><trkpt lat="44.4401914035358" lon="8.301673324342833"><ele>330.3333333333333</ele><time>2026-05-01T12:29:20Z</time></trkpt><trkpt lat="44.43999807156084" lon="8.301576491658862"><ele>331.0</ele><time>2026-05-01T12:29:21Z</time></trkpt><trkpt lat="44.43977569828035" lon="8.301498317692012"><ele>331.0</ele><time>2026-05-01T12:29:22Z</time></trkpt><trkpt lat="44.43957753867643" lon="8.301446321886974"><ele>331.0</ele><time>2026-05-01T12:29:23Z</time></trkpt><trkpt lat="44.43936946657257" lon="8.301384980312644"><ele>331.0</ele><time>2026-05-01T12:29:24Z</time></trkpt><trkpt lat="44.43917832589346" lon="8.301330087088575"><ele>329.3333333333333</ele><time>2026-05-01T12:29:25Z</time></trkpt><trkpt lat="44.438996108857715" lon="8.301281522877288"><ele>327.6666666666667</ele><time>2026-05-01T12:29:26Z</time></trkpt><trkpt lat="44.43880729933669" lon="8.301231163495515"><ele>326.0</ele><time>2026-05-01T12:29:27Z</time></trkpt><trkpt lat="44.43860581529449" lon="8.30117703441663"><ele>325.33333333333337</ele><time>2026-05-01T12:29:28Z</time></trkpt><trkpt lat="44.43840068269135" lon="8.301122032098615"><ele>324.6666666666667</ele><time>2026-05-01T12:29:29Z</time></trkpt><trkpt lat="44.43819155040299" lon="8.301067895003191"><ele>324.0</ele><time>2026-05-01T12:29:30Z</time></trkpt><trkpt lat="44.43796953015333" lon="8.30101663740045"><ele>323.0</ele><time>2026-05-01T12:29:31Z</time></trkpt><trkpt lat="44.43774965897349" lon="8.300987657440336"><ele>322.0</ele><time>2026-05-01T12:29:32Z</time></trkpt><trkpt lat="44.43751371772289" lon="8.30097979530917"><ele>322.0</ele><time>2026-05-01T12:29:33Z</time></trkpt><trkpt lat="44.437280818709546" lon="8.300982045809434"><ele>322.0</ele><time>2026-05-01T12:29:34Z</time></trkpt><trkpt lat="44.43704523602497" lon="8.300993981261694"><ele>321.66666666666663</ele><time>2026-05-01T12:29:35Z</time></trkpt><trkpt lat="44.436826919744" lon="8.301016959518293"><ele>321.3333333333333</ele><time>2026-05-01T12:29:36Z</time></trkpt><trkpt lat="44.43660594359643" lon="8.301045705991159"><ele>321.0</ele><time>2026-05-01T12:29:37Z</time></trkpt><trkpt lat="44.436388378124526" lon="8.301087744764718"><ele>320.0</ele><time>2026-05-01T12:29:38Z</time></trkpt><trkpt lat="44.43616026631037" lon="8.301126586007442"><ele>319.0</ele><time>2026-05-01T12:29:39Z</time></trkpt><trkpt lat="44.43593378668908" lon="8.301139526679721"><ele>319.0</ele><time>2026-05-01T12:29:40Z</time></trkpt><trkpt lat="44.43573229803141" lon="8.301112609004507"><ele>319.0</ele><time>2026-05-01T12:29:41Z</time></trkpt><trkpt lat="44.43555900150791" lon="8.301026348563536"><ele>319.0</ele><time>2026-05-01T12:29:42Z</time></trkpt><trkpt lat="44.4353965030082" lon="8.300897522725"><ele>319.0</ele><time>2026-05-01T12:29:43Z</time></trkpt><trkpt lat="44.43524371477456" lon="8.300744880390372"><ele>319.0</ele><time>2026-05-01T12:29:44Z</time></trkpt><trkpt lat="44.43510398109474" lon="8.300571475203707"><ele>319.0</ele><time>2026-05-01T12:29:45Z</time></trkpt><trkpt lat="44.43496100030606" lon="8.300390081895738"><ele>318.3333333333333</ele><time>2026-05-01T12:29:46Z</time></trkpt><trkpt lat="44.43480797364316" lon="8.300212841086159"><ele>317.6666666666667</ele><time>2026-05-01T12:29:47Z</time></trkpt><trkpt lat="44.434646199025494" lon="8.300101957097683"><ele>317.0</ele><time>2026-05-01T12:29:48Z</time></trkpt><trkpt lat="44.4344632763604" lon="8.300040952869269"><ele>318.33333333333337</ele><time>2026-05-01T12:29:49Z</time></trkpt><trkpt lat="44.434273890982034" lon="8.300036692152347"><ele>319.6666666666667</ele><time>2026-05-01T12:29:50Z</time></trkpt><trkpt lat="44.43408618439045" lon="8.300054553495485"><ele>321.0</ele><time>2026-05-01T12:29:51Z</time></trkpt><trkpt lat="44.4338992275888" lon="8.30008955820758"><ele>322.3333333333333</ele><time>2026-05-01T12:29:52Z</time></trkpt><trkpt lat="44.43371399909835" lon="8.300104188742617"><ele>323.66666666666663</ele><time>2026-05-01T12:29:53Z</time></trkpt><trkpt lat="44.43353506385688" lon="8.300128205805866"><ele>325.0</ele><time>2026-05-01T12:29:54Z</time></trkpt><trkpt lat="44.43337074413108" lon="8.300419742114894"><ele>325.0</ele><time>2026-05-01T12:29:55Z</time></trkpt><trkpt lat="44.4332118417912" lon="8.300499171791923"><ele>325.0</ele><time>2026-05-01T12:29:56Z</time></trkpt><trkpt lat="44.4330426438354" lon="8.300548008122073"><ele>325.0</ele><time>2026-05-01T12:29:57Z</time></trkpt><trkpt lat="44.43287372699993" lon="8.300574557306522"><ele>325.3333333333333</ele><time>2026-05-01T12:29:58Z</time></trkpt><trkpt lat="44.43270736662662" lon="8.300584997539117"><ele>325.6666666666667</ele><time>2026-05-01T12:29:59Z</time></trkpt><trkpt lat="44.43253243791155" lon="8.30058740770466"><ele>326.0</ele><time>2026-05-01T12:30:00Z</time></trkpt><trkpt lat="44.43235695838639" lon="8.300586217988434"><ele>326.0</ele><time>2026-05-01T12:30:01Z</time></trkpt><trkpt lat="44.43217589581527" lon="8.30058822251149"><ele>326.0</ele><time>2026-05-01T12:30:02Z</time></trkpt><trkpt lat="44.431991450660455" lon="8.300596918115607"><ele>326.0</ele><time>2026-05-01T12:30:03Z</time></trkpt><trkpt lat="44.4318016637303" lon="8.300612181484553"><ele>327.0</ele><time>2026-05-01T12:30:04Z</time></trkpt><trkpt lat="44.43161803537336" lon="8.300643143922604"><ele>328.0</ele><time>2026-05-01T12:30:05Z</time></trkpt><trkpt lat="44.431445277377314" lon="8.300690012259556"><ele>329.0</ele><time>2026-05-01T12:30:06Z</time></trkpt><trkpt lat="44.43127826701628" lon="8.300747846478542"><ele>329.33333333333337</ele><time>2026-05-01T12:30:07Z</time></trkpt><trkpt lat="44.43112019643678" lon="8.300814194005648"><ele>329.6666666666667</ele><time>2026-05-01T12:30:08Z</time></trkpt><trkpt lat="44.4309628562358" lon="8.300884358122442"><ele>330.0</ele><time>2026-05-01T12:30:09Z</time></trkpt><trkpt lat="44.430806196751135" lon="8.300980917580569"><ele>330.0</ele><time>2026-05-01T12:30:10Z</time></trkpt><trkpt lat="44.43064293940148" lon="8.301072189350947"><ele>330.0</ele><time>2026-05-01T12:30:11Z</time></trkpt><trkpt lat="44.43046643916363" lon="8.301163834594895"><ele>330.0</ele><time>2026-05-01T12:30:12Z</time></trkpt><trkpt lat="44.430290017666806" lon="8.301258413281552"><ele>330.0</ele><time>2026-05-01T12:30:13Z</time></trkpt><trkpt lat="44.43012754278088" lon="8.30133993153501"><ele>330.0</ele><time>2026-05-01T12:30:14Z</time></trkpt><trkpt lat="44.42998238875299" lon="8.301414400815363"><ele>330.0</ele><time>2026-05-01T12:30:15Z</time></trkpt><trkpt lat="44.429833217092266" lon="8.301472499108892"><ele>330.0</ele><time>2026-05-01T12:30:16Z</time></trkpt><trkpt lat="44.42967661073897" lon="8.30150262340492"><ele>330.0</ele><time>2026-05-01T12:30:17Z</time></trkpt><trkpt lat="44.429535918496725" lon="8.301476865102591"><ele>330.0</ele><time>2026-05-01T12:30:18Z</time></trkpt><trkpt lat="44.429402343516735" lon="8.301414244872602"><ele>330.0</ele><time>2026-05-01T12:30:19Z</time></trkpt><trkpt lat="44.42928200875441" lon="8.301331740893154"><ele>328.75</ele><time>2026-05-01T12:30:20Z</time></trkpt><trkpt lat="44.42916770784063" lon="8.3012249313534"><ele>327.5</ele><time>2026-05-01T12:30:21Z</time></trkpt><trkpt lat="44.42906935517385" lon="8.30110103687095"><ele>326.25</ele><time>2026-05-01T12:30:22Z</time></trkpt><trkpt lat="44.428982040376894" lon="8.300987537138495"><ele>325.0</ele><time>2026-05-01T12:30:23Z</time></trkpt><trkpt lat="44.42889546137131" lon="8.300890051565807"><ele>325.0</ele><time>2026-05-01T12:30:24Z</time></trkpt><trkpt lat="44.42881069525048" lon="8.30080176855774"><ele>325.0</ele><time>2026-05-01T12:30:25Z</time></trkpt><trkpt lat="44.42872064610459" lon="8.300707544720982"><ele>325.0</ele><time>2026-05-01T12:30:26Z</time></trkpt><trkpt lat="44.42863008580802" lon="8.300607117208676"><ele>325.0</ele><time>2026-05-01T12:30:27Z</time></trkpt><trkpt lat="44.42853889792442" lon="8.30050282821613"><ele>326.25</ele><time>2026-05-01T12:30:28Z</time></trkpt><trkpt lat="44.42844835799211" lon="8.300402070123427"><ele>327.5</ele><time>2026-05-01T12:30:29Z</time></trkpt><trkpt lat="44.428358077920144" lon="8.300305186239454"><ele>328.75</ele><time>2026-05-01T12:30:30Z</time></trkpt><trkpt lat="44.428262140117305" lon="8.300198478575606"><ele>330.0</ele><time>2026-05-01T12:30:31Z</time></trkpt><trkpt lat="44.42816803559552" lon="8.300094023281453"><ele>330.0</ele><time>2026-05-01T12:30:32Z</time></trkpt><trkpt lat="44.42807178991841" lon="8.299985661289671"><ele>330.0</ele><time>2026-05-01T12:30:33Z</time></trkpt><trkpt lat="44.42797412131274" lon="8.299874912678906"><ele>330.0</ele><time>2026-05-01T12:30:34Z</time></trkpt><trkpt lat="44.42787631552025" lon="8.299765436633587"><ele>330.0</ele><time>2026-05-01T12:30:35Z</time></trkpt><trkpt lat="44.427778986632376" lon="8.29966150766997"><ele>330.6</ele><time>2026-05-01T12:30:36Z</time></trkpt><trkpt lat="44.42769586195073" lon="8.299570672352054"><ele>331.2</ele><time>2026-05-01T12:30:37Z</time></trkpt><trkpt lat="44.42762798372386" lon="8.299486202897235"><ele>331.79999999999995</ele><time>2026-05-01T12:30:38Z</time></trkpt><trkpt lat="44.42757060350618" lon="8.299414322656878"><ele>332.4</ele><time>2026-05-01T12:30:39Z</time></trkpt><trkpt lat="44.427499612875906" lon="8.299335592067152"><ele>333.0</ele><time>2026-05-01T12:30:40Z</time></trkpt><trkpt lat="44.42741906564899" lon="8.299252471612782"><ele>333.0</ele><time>2026-05-01T12:30:41Z</time></trkpt><trkpt lat="44.42734935618773" lon="8.299170355872663"><ele>333.0</ele><time>2026-05-01T12:30:42Z</time></trkpt><trkpt lat="44.427268117952835" lon="8.299095328572749"><ele>333.0</ele><time>2026-05-01T12:30:43Z</time></trkpt><trkpt lat="44.42719940361488" lon="8.29899427537577"><ele>333.0</ele><time>2026-05-01T12:30:44Z</time></trkpt><trkpt lat="44.42712679129485" lon="8.298887888648622"><ele>333.0</ele><time>2026-05-01T12:30:45Z</time></trkpt><trkpt lat="44.42704653334823" lon="8.298800530584403"><ele>332.5</ele><time>2026-05-01T12:30:46Z</time></trkpt><trkpt lat="44.426981760238036" lon="8.298737271480302"><ele>332.0</ele><time>2026-05-01T12:30:47Z</time></trkpt><trkpt lat="44.42690984628175" lon="8.298678535432387"><ele>331.5</ele><time>2026-05-01T12:30:48Z</time></trkpt><trkpt lat="44.426831842616515" lon="8.298609664471243"><ele>331.0</ele><time>2026-05-01T12:30:49Z</time></trkpt><trkpt lat="44.426749274582754" lon="8.298565098822554"><ele>330.5</ele><time>2026-05-01T12:30:50Z</time></trkpt><trkpt lat="44.42666408933848" lon="8.298553221994688"><ele>330.0</ele><time>2026-05-01T12:30:51Z</time></trkpt><trkpt lat="44.42656034546992" lon="8.298615788440397"><ele>330.0</ele><time>2026-05-01T12:30:52Z</time></trkpt><trkpt lat="44.4264561463657" lon="8.298697497166334"><ele>330.0</ele><time>2026-05-01T12:30:53Z</time></trkpt><trkpt lat="44.42634297657311" lon="8.298777549218887"><ele>330.0</ele><time>2026-05-01T12:30:54Z</time></trkpt><trkpt lat="44.426226123205545" lon="8.298847734271156"><ele>330.0</ele><time>2026-05-01T12:30:55Z</time></trkpt><trkpt lat="44.42610674558489" lon="8.29893647964922"><ele>330.6666666666667</ele><time>2026-05-01T12:30:56Z</time></trkpt><trkpt lat="44.425985072524796" lon="8.299056136708256"><ele>331.33333333333337</ele><time>2026-05-01T12:30:57Z</time></trkpt><trkpt lat="44.42585025912868" lon="8.299197699494256"><ele>332.0</ele><time>2026-05-01T12:30:58Z</time></trkpt><trkpt lat="44.425709794595036" lon="8.299339084494282"><ele>332.0</ele><time>2026-05-01T12:30:59Z</time></trkpt><trkpt lat="44.42555267715812" lon="8.299467195030704"><ele>332.0</ele><time>2026-05-01T12:31:00Z</time></trkpt><trkpt lat="44.42537113144313" lon="8.29959729569598"><ele>332.0</ele><time>2026-05-01T12:31:01Z</time></trkpt><trkpt lat="44.425180862857545" lon="8.299723001746424"><ele>334.33333333333337</ele><time>2026-05-01T12:31:02Z</time></trkpt><trkpt lat="44.424995580920225" lon="8.29983396029425"><ele>336.6666666666667</ele><time>2026-05-01T12:31:03Z</time></trkpt><trkpt lat="44.42486221744754" lon="8.299879164688802"><ele>339.0</ele><time>2026-05-01T12:31:04Z</time></trkpt><trkpt lat="44.4247438293208" lon="8.299909857969274"><ele>337.6666666666667</ele><time>2026-05-01T12:31:05Z</time></trkpt><trkpt lat="44.42450890923088" lon="8.299990567446246"><ele>336.33333333333337</ele><time>2026-05-01T12:31:06Z</time></trkpt><trkpt lat="44.42438248887115" lon="8.300017854013802"><ele>335.0</ele><time>2026-05-01T12:31:07Z</time></trkpt><trkpt lat="44.42427716569597" lon="8.299997855725708"><ele>335.0</ele><time>2026-05-01T12:31:08Z</time></trkpt><trkpt lat="44.42418562790621" lon="8.299979135396002"><ele>335.0</ele><time>2026-05-01T12:31:09Z</time></trkpt><trkpt lat="44.424096050568004" lon="8.299948656309242"><ele>335.0</ele><time>2026-05-01T12:31:10Z</time></trkpt><trkpt lat="44.424009409306166" lon="8.299853475384502"><ele>335.0</ele><time>2026-05-01T12:31:11Z</time></trkpt><trkpt lat="44.42389321735029" lon="8.299798526511402"><ele>335.0</ele><time>2026-05-01T12:31:12Z</time></trkpt><trkpt lat="44.423773845555395" lon="8.299709504541548"><ele>333.75</ele><time>2026-05-01T12:31:13Z</time></trkpt><trkpt lat="44.42364328217906" lon="8.299661165886068"><ele>332.5</ele><time>2026-05-01T12:31:14Z</time></trkpt><trkpt lat="44.423526383284866" lon="8.299631376045815"><ele>331.25</ele><time>2026-05-01T12:31:15Z</time></trkpt><trkpt lat="44.42342290957341" lon="8.299584690236683"><ele>330.0</ele><time>2026-05-01T12:31:16Z</time></trkpt><trkpt lat="44.42333283253183" lon="8.299508125366835"><ele>330.0</ele><time>2026-05-01T12:31:17Z</time></trkpt><trkpt lat="44.42325829714506" lon="8.29940426221387"><ele>330.0</ele><time>2026-05-01T12:31:18Z</time></trkpt><trkpt lat="44.42318106195068" lon="8.299340740458758"><ele>330.0</ele><time>2026-05-01T12:31:19Z</time></trkpt><trkpt lat="44.42313536759463" lon="8.299179347084808"><ele>330.0</ele><time>2026-05-01T12:31:21Z</time></trkpt><trkpt lat="44.42308552356728" lon="8.299108148774542"><ele>330.0</ele><time>2026-05-01T12:31:23Z</time></trkpt><trkpt lat="44.42303635819204" lon="8.29904291269647"><ele>333.5</ele><time>2026-05-01T12:31:24Z</time></trkpt><trkpt lat="44.422956409892286" lon="8.298925995248805"><ele>337.0</ele><time>2026-05-01T12:31:25Z</time></trkpt><trkpt lat="44.42285443869457" lon="8.298747862816237"><ele>340.5</ele><time>2026-05-01T12:31:26Z</time></trkpt><trkpt lat="44.42274907351111" lon="8.298563858266698"><ele>344.0</ele><time>2026-05-01T12:31:27Z</time></trkpt><trkpt lat="44.42263897706717" lon="8.298367386354753"><ele>344.0</ele><time>2026-05-01T12:31:28Z</time></trkpt><trkpt lat="44.42256120149989" lon="8.298200204434574"><ele>344.0</ele><time>2026-05-01T12:31:29Z</time></trkpt><trkpt lat="44.422495331238096" lon="8.298022529110487"><ele>344.0</ele><time>2026-05-01T12:31:30Z</time></trkpt><trkpt lat="44.422441386412366" lon="8.297830071159433"><ele>344.0</ele><time>2026-05-01T12:31:31Z</time></trkpt><trkpt lat="44.42239471481318" lon="8.297629067551656"><ele>339.6666666666667</ele><time>2026-05-01T12:31:32Z</time></trkpt><trkpt lat="44.422357536500016" lon="8.297425103125"><ele>335.3333333333333</ele><time>2026-05-01T12:31:33Z</time></trkpt><trkpt lat="44.42230917479809" lon="8.297223038486138"><ele>331.0</ele><time>2026-05-01T12:31:34Z</time></trkpt><trkpt lat="44.4222622896419" lon="8.29700288079539"><ele>329.3333333333333</ele><time>2026-05-01T12:31:35Z</time></trkpt><trkpt lat="44.42220721099591" lon="8.296764706284527"><ele>327.6666666666667</ele><time>2026-05-01T12:31:36Z</time></trkpt><trkpt lat="44.42216159023607" lon="8.296527912334854"><ele>326.0</ele><time>2026-05-01T12:31:37Z</time></trkpt><trkpt lat="44.42213493955935" lon="8.296301207593524"><ele>326.0</ele><time>2026-05-01T12:31:38Z</time></trkpt><trkpt lat="44.42212396358523" lon="8.296071007118098"><ele>326.0</ele><time>2026-05-01T12:31:39Z</time></trkpt><trkpt lat="44.42212797760142" lon="8.29585383269304"><ele>326.0</ele><time>2026-05-01T12:31:40Z</time></trkpt><trkpt lat="44.42215067792291" lon="8.295652100040094"><ele>326.25</ele><time>2026-05-01T12:31:41Z</time></trkpt><trkpt lat="44.4221813806496" lon="8.295445669652047"><ele>326.5</ele><time>2026-05-01T12:31:42Z</time></trkpt><trkpt lat="44.42222009655686" lon="8.295238487049552"><ele>326.75</ele><time>2026-05-01T12:31:43Z</time></trkpt><trkpt lat="44.42225197898994" lon="8.295042773334467"><ele>327.0</ele><time>2026-05-01T12:31:44Z</time></trkpt><trkpt lat="44.422291199744045" lon="8.294863161391211"><ele>327.0</ele><time>2026-05-01T12:31:45Z</time></trkpt><trkpt lat="44.42232275365178" lon="8.294662887359035"><ele>327.0</ele><time>2026-05-01T12:31:46Z</time></trkpt><trkpt lat="44.422338501832144" lon="8.29444681232077"><ele>327.0</ele><time>2026-05-01T12:31:47Z</time></trkpt><trkpt lat="44.422340678733114" lon="8.29422127358926"><ele>327.0</ele><time>2026-05-01T12:31:48Z</time></trkpt><trkpt lat="44.422328605965056" lon="8.293996542257636"><ele>327.0</ele><time>2026-05-01T12:31:49Z</time></trkpt><trkpt lat="44.42230711582969" lon="8.293789113125342"><ele>327.0</ele><time>2026-05-01T12:31:50Z</time></trkpt><trkpt lat="44.42226696098365" lon="8.29357805572932"><ele>325.3333333333333</ele><time>2026-05-01T12:31:51Z</time></trkpt><trkpt lat="44.422214067604024" lon="8.293369640329512"><ele>323.66666666666663</ele><time>2026-05-01T12:31:52Z</time></trkpt><trkpt lat="44.42215731782007" lon="8.293171360174876"><ele>322.0</ele><time>2026-05-01T12:31:53Z</time></trkpt><trkpt lat="44.42209391313973" lon="8.292976545368427"><ele>326.66666666666663</ele><time>2026-05-01T12:31:54Z</time></trkpt><trkpt lat="44.42202649845801" lon="8.292787341919606"><ele>331.3333333333333</ele><time>2026-05-01T12:31:55Z</time></trkpt><trkpt lat="44.42195702004431" lon="8.292592217207"><ele>336.0</ele><time>2026-05-01T12:31:56Z</time></trkpt><trkpt lat="44.42188302948546" lon="8.292384132680297"><ele>334.3333333333333</ele><time>2026-05-01T12:31:57Z</time></trkpt><trkpt lat="44.42181113758317" lon="8.292167916511687"><ele>332.66666666666663</ele><time>2026-05-01T12:31:58Z</time></trkpt><trkpt lat="44.421738864274765" lon="8.291943370218121"><ele>331.0</ele><time>2026-05-01T12:31:59Z</time></trkpt><trkpt lat="44.42166180167992" lon="8.291719078258582"><ele>331.0</ele><time>2026-05-01T12:32:00Z</time></trkpt><trkpt lat="44.42158603477032" lon="8.291502688677259"><ele>331.0</ele><time>2026-05-01T12:32:01Z</time></trkpt><trkpt lat="44.42151133926534" lon="8.291286124830405"><ele>331.0</ele><time>2026-05-01T12:32:02Z</time></trkpt><trkpt lat="44.42143352795047" lon="8.291054386394963"><ele>329.0</ele><time>2026-05-01T12:32:03Z</time></trkpt><trkpt lat="44.421366918820134" lon="8.29082769893755"><ele>327.0</ele><time>2026-05-01T12:32:04Z</time></trkpt><trkpt lat="44.42131173263171" lon="8.290606398662247"><ele>325.0</ele><time>2026-05-01T12:32:05Z</time></trkpt><trkpt lat="44.421270009409405" lon="8.290390305069394"><ele>329.3333333333333</ele><time>2026-05-01T12:32:06Z</time></trkpt><trkpt lat="44.421240604662806" lon="8.290183020660173"><ele>333.6666666666667</ele><time>2026-05-01T12:32:07Z</time></trkpt><trkpt lat="44.421211593441434" lon="8.289969060249682"><ele>338.0</ele><time>2026-05-01T12:32:08Z</time></trkpt><trkpt lat="44.42118429936185" lon="8.289761605645339"><ele>335.6666666666667</ele><time>2026-05-01T12:32:09Z</time></trkpt><trkpt lat="44.421157203409926" lon="8.289551442457286"><ele>333.3333333333333</ele><time>2026-05-01T12:32:10Z</time></trkpt><trkpt lat="44.421125946251024" lon="8.28934533198853"><ele>331.0</ele><time>2026-05-01T12:32:11Z</time></trkpt><trkpt lat="44.42107129151014" lon="8.289140588985893"><ele>331.0</ele><time>2026-05-01T12:32:12Z</time></trkpt><trkpt lat="44.42100024961647" lon="8.288938747573695"><ele>331.0</ele><time>2026-05-01T12:32:13Z</time></trkpt><trkpt lat="44.420903208543955" lon="8.288723540111675"><ele>331.0</ele><time>2026-05-01T12:32:14Z</time></trkpt><trkpt lat="44.420792259597064" lon="8.288515266294626"><ele>332.3333333333333</ele><time>2026-05-01T12:32:15Z</time></trkpt><trkpt lat="44.42066594435354" lon="8.288303413855894"><ele>333.6666666666667</ele><time>2026-05-01T12:32:16Z</time></trkpt><trkpt lat="44.4205452798173" lon="8.2880420759403"><ele>335.0</ele><time>2026-05-01T12:32:17Z</time></trkpt><trkpt lat="44.42040002878825" lon="8.287772698306043"><ele>335.0</ele><time>2026-05-01T12:32:18Z</time></trkpt><trkpt lat="44.42024033195663" lon="8.287475241832356"><ele>335.0</ele><time>2026-05-01T12:32:19Z</time></trkpt><trkpt lat="44.42008096498068" lon="8.287206451294933"><ele>330.0</ele><time>2026-05-01T12:32:20Z</time></trkpt><trkpt lat="44.41995149751409" lon="8.286925309315603"><ele>325.0</ele><time>2026-05-01T12:32:21Z</time></trkpt><trkpt lat="44.4198175347757" lon="8.286671668384823"><ele>327.0</ele><time>2026-05-01T12:32:22Z</time></trkpt><trkpt lat="44.41967937746197" lon="8.28642684289347"><ele>329.0</ele><time>2026-05-01T12:32:23Z</time></trkpt><trkpt lat="44.41953121578595" lon="8.286184562195652"><ele>329.0</ele><time>2026-05-01T12:32:24Z</time></trkpt><trkpt lat="44.41937394733196" lon="8.285956112941234"><ele>329.0</ele><time>2026-05-01T12:32:25Z</time></trkpt><trkpt lat="44.41920766948801" lon="8.285742145942503"><ele>328.33333333333337</ele><time>2026-05-01T12:32:26Z</time></trkpt><trkpt lat="44.41903115119514" lon="8.285545981115762"><ele>327.6666666666667</ele><time>2026-05-01T12:32:27Z</time></trkpt><trkpt lat="44.418849514047466" lon="8.285367780931503"><ele>327.0</ele><time>2026-05-01T12:32:28Z</time></trkpt><trkpt lat="44.418666350906356" lon="8.285207701366776"><ele>327.0</ele><time>2026-05-01T12:32:29Z</time></trkpt><trkpt lat="44.41848110353001" lon="8.28507108164266"><ele>327.0</ele><time>2026-05-01T12:32:30Z</time></trkpt><trkpt lat="44.41829611029092" lon="8.284947204575069"><ele>327.0</ele><time>2026-05-01T12:32:31Z</time></trkpt><trkpt lat="44.41812058716635" lon="8.284831594592704"><ele>326.3333333333333</ele><time>2026-05-01T12:32:32Z</time></trkpt><trkpt lat="44.41795899703796" lon="8.284727810590258"><ele>325.66666666666663</ele><time>2026-05-01T12:32:33Z</time></trkpt><trkpt lat="44.417797787657484" lon="8.284617783556413"><ele>325.0</ele><time>2026-05-01T12:32:34Z</time></trkpt><trkpt lat="44.41765054839936" lon="8.28451406309267"><ele>325.0</ele><time>2026-05-01T12:32:35Z</time></trkpt><trkpt lat="44.41751410475956" lon="8.284416922559092"><ele>325.0</ele><time>2026-05-01T12:32:36Z</time></trkpt><trkpt lat="44.417376695996715" lon="8.28431665623448"><ele>325.0</ele><time>2026-05-01T12:32:37Z</time></trkpt><trkpt lat="44.4172370837659" lon="8.284200064746686"><ele>327.0</ele><time>2026-05-01T12:32:38Z</time></trkpt><trkpt lat="44.41710353182266" lon="8.284061586568862"><ele>329.0</ele><time>2026-05-01T12:32:39Z</time></trkpt><trkpt lat="44.41697674266375" lon="8.28390175565319"><ele>331.0</ele><time>2026-05-01T12:32:40Z</time></trkpt><trkpt lat="44.41685517871588" lon="8.283750895393132"><ele>331.0</ele><time>2026-05-01T12:32:41Z</time></trkpt><trkpt lat="44.416742894968664" lon="8.28361793678282"><ele>331.0</ele><time>2026-05-01T12:32:42Z</time></trkpt><trkpt lat="44.416638874942215" lon="8.283497493368065"><ele>331.0</ele><time>2026-05-01T12:32:43Z</time></trkpt><trkpt lat="44.41653864209593" lon="8.283373645010226"><ele>331.0</ele><time>2026-05-01T12:32:44Z</time></trkpt><trkpt lat="44.4164554530577" lon="8.283263295149991"><ele>331.0</ele><time>2026-05-01T12:32:45Z</time></trkpt><trkpt lat="44.41639926355716" lon="8.283173866310026"><ele>331.0</ele><time>2026-05-01T12:32:46Z</time></trkpt><trkpt lat="44.41635621613135" lon="8.283097212359554"><ele>331.0</ele><time>2026-05-01T12:32:48Z</time></trkpt><trkpt lat="44.41629912404846" lon="8.283057887306944"><ele>331.0</ele><time>2026-05-01T12:34:21Z</time></trkpt><trkpt lat="44.41623530826477" lon="8.282986475390029"><ele>331.0</ele><time>2026-05-01T12:34:23Z</time></trkpt><trkpt lat="44.41612955139364" lon="8.282882678036973"><ele>331.0</ele><time>2026-05-01T12:34:26Z</time></trkpt><trkpt lat="44.416048543284866" lon="8.282789944112318"><ele>332.0</ele><time>2026-05-01T12:34:27Z</time></trkpt><trkpt lat="44.41596032983492" lon="8.28268659938817"><ele>333.0</ele><time>2026-05-01T12:34:28Z</time></trkpt><trkpt lat="44.41584814736758" lon="8.282566235294285"><ele>334.0</ele><time>2026-05-01T12:34:29Z</time></trkpt><trkpt lat="44.4157244863651" lon="8.282438258260793"><ele>335.0</ele><time>2026-05-01T12:34:30Z</time></trkpt><trkpt lat="44.4155769020139" lon="8.282293343307847"><ele>335.33333333333337</ele><time>2026-05-01T12:34:31Z</time></trkpt><trkpt lat="44.41542344878165" lon="8.282149170802438"><ele>335.6666666666667</ele><time>2026-05-01T12:34:32Z</time></trkpt><trkpt lat="44.41524787508566" lon="8.282008473867409"><ele>336.0</ele><time>2026-05-01T12:34:33Z</time></trkpt><trkpt lat="44.41506445318134" lon="8.281870779746063"><ele>336.0</ele><time>2026-05-01T12:34:34Z</time></trkpt><trkpt lat="44.41486337284164" lon="8.281741948979727"><ele>336.0</ele><time>2026-05-01T12:34:35Z</time></trkpt><trkpt lat="44.41465491456255" lon="8.28162729681562"><ele>336.0</ele><time>2026-05-01T12:34:36Z</time></trkpt><trkpt lat="44.41443386312754" lon="8.28152424370177"><ele>333.3333333333333</ele><time>2026-05-01T12:34:37Z</time></trkpt><trkpt lat="44.41421841074942" lon="8.281429098639261"><ele>330.66666666666663</ele><time>2026-05-01T12:34:38Z</time></trkpt><trkpt lat="44.414028337685075" lon="8.28133477918587"><ele>328.0</ele><time>2026-05-01T12:34:39Z</time></trkpt><trkpt lat="44.41384245081083" lon="8.28124146463796"><ele>331.3333333333333</ele><time>2026-05-01T12:34:40Z</time></trkpt><trkpt lat="44.41364728724052" lon="8.281149977142539"><ele>334.6666666666667</ele><time>2026-05-01T12:34:41Z</time></trkpt><trkpt lat="44.41345735669448" lon="8.281050967997482"><ele>338.0</ele><time>2026-05-01T12:34:42Z</time></trkpt><trkpt lat="44.41326170517066" lon="8.280952272283558"><ele>338.0</ele><time>2026-05-01T12:34:43Z</time></trkpt><trkpt lat="44.41306159893874" lon="8.280854327558037"><ele>338.0</ele><time>2026-05-01T12:34:44Z</time></trkpt><trkpt lat="44.41285966240163" lon="8.28075925639744"><ele>338.0</ele><time>2026-05-01T12:34:45Z</time></trkpt><trkpt lat="44.41265352898759" lon="8.280698766742185"><ele>341.0</ele><time>2026-05-01T12:34:46Z</time></trkpt><trkpt lat="44.41240704753692" lon="8.280639820068604"><ele>344.0</ele><time>2026-05-01T12:34:47Z</time></trkpt><trkpt lat="44.41218278719339" lon="8.280625990710993"><ele>340.6666666666667</ele><time>2026-05-01T12:34:48Z</time></trkpt><trkpt lat="44.41197446620485" lon="8.280645001851932"><ele>337.3333333333333</ele><time>2026-05-01T12:34:49Z</time></trkpt><trkpt lat="44.411778924183274" lon="8.280685795565494"><ele>334.0</ele><time>2026-05-01T12:34:50Z</time></trkpt><trkpt lat="44.411597387110504" lon="8.280738605595005"><ele>334.0</ele><time>2026-05-01T12:34:51Z</time></trkpt><trkpt lat="44.41143078837438" lon="8.280809704956678"><ele>334.0</ele><time>2026-05-01T12:34:52Z</time></trkpt><trkpt lat="44.41127119308603" lon="8.280900819354448"><ele>334.0</ele><time>2026-05-01T12:34:53Z</time></trkpt><trkpt lat="44.41111478784532" lon="8.281012495445692"><ele>332.3333333333333</ele><time>2026-05-01T12:34:54Z</time></trkpt><trkpt lat="44.41097909491874" lon="8.281147428339624"><ele>330.6666666666667</ele><time>2026-05-01T12:34:55Z</time></trkpt><trkpt lat="44.41084370341783" lon="8.281287082720281"><ele>329.0</ele><time>2026-05-01T12:34:56Z</time></trkpt><trkpt lat="44.410719129886154" lon="8.281425139940664"><ele>330.0</ele><time>2026-05-01T12:34:57Z</time></trkpt><trkpt lat="44.41059569644581" lon="8.28155366300778"><ele>331.0</ele><time>2026-05-01T12:34:58Z</time></trkpt><trkpt lat="44.41047711647661" lon="8.281671711785986"><ele>332.0</ele><time>2026-05-01T12:34:59Z</time></trkpt><trkpt lat="44.4103625198294" lon="8.281785862242208"><ele>333.0</ele><time>2026-05-01T12:35:00Z</time></trkpt><trkpt lat="44.41025518100833" lon="8.28189555205272"><ele>333.0</ele><time>2026-05-01T12:35:01Z</time></trkpt><trkpt lat="44.41014541529142" lon="8.28200187896985"><ele>333.0</ele><time>2026-05-01T12:35:02Z</time></trkpt><trkpt lat="44.41004050165932" lon="8.282105537816948"><ele>333.0</ele><time>2026-05-01T12:35:03Z</time></trkpt><trkpt lat="44.40993833228828" lon="8.28220814906149"><ele>333.0</ele><time>2026-05-01T12:35:04Z</time></trkpt><trkpt lat="44.409832858387" lon="8.282312690400577"><ele>332.5</ele><time>2026-05-01T12:35:05Z</time></trkpt><trkpt lat="44.40972203152619" lon="8.282423353655604"><ele>332.0</ele><time>2026-05-01T12:35:06Z</time></trkpt><trkpt lat="44.40960616328083" lon="8.28254098068961"><ele>331.5</ele><time>2026-05-01T12:35:07Z</time></trkpt><trkpt lat="44.40948842577189" lon="8.282663695671777"><ele>331.0</ele><time>2026-05-01T12:35:08Z</time></trkpt><trkpt lat="44.40936536655923" lon="8.28279277172716"><ele>331.0</ele><time>2026-05-01T12:35:09Z</time></trkpt><trkpt lat="44.409231782922824" lon="8.282925878671554"><ele>331.0</ele><time>2026-05-01T12:35:10Z</time></trkpt><trkpt lat="44.4090918857618" lon="8.283060349142932"><ele>331.0</ele><time>2026-05-01T12:35:11Z</time></trkpt><trkpt lat="44.408949215319915" lon="8.28319385545402"><ele>332.3333333333333</ele><time>2026-05-01T12:35:12Z</time></trkpt><trkpt lat="44.40880637109311" lon="8.283317733662525"><ele>333.6666666666667</ele><time>2026-05-01T12:35:13Z</time></trkpt><trkpt lat="44.408661990522" lon="8.283429616205964"><ele>335.0</ele><time>2026-05-01T12:35:14Z</time></trkpt><trkpt lat="44.40851411934385" lon="8.283531621074033"><ele>335.0</ele><time>2026-05-01T12:35:15Z</time></trkpt><trkpt lat="44.40836862237877" lon="8.283617444881708"><ele>335.0</ele><time>2026-05-01T12:35:16Z</time></trkpt><trkpt lat="44.40822682210424" lon="8.283693963980104"><ele>335.0</ele><time>2026-05-01T12:35:17Z</time></trkpt><trkpt lat="44.40808567263552" lon="8.283768301739594"><ele>333.33333333333337</ele><time>2026-05-01T12:35:18Z</time></trkpt><trkpt lat="44.40794283989627" lon="8.283836952240517"><ele>331.6666666666667</ele><time>2026-05-01T12:35:19Z</time></trkpt><trkpt lat="44.40778983048896" lon="8.283901413596336"><ele>330.0</ele><time>2026-05-01T12:35:20Z</time></trkpt><trkpt lat="44.40763639260125" lon="8.28395445011713"><ele>334.3333333333333</ele><time>2026-05-01T12:35:21Z</time></trkpt><trkpt lat="44.407485154121694" lon="8.283996614448153"><ele>338.66666666666663</ele><time>2026-05-01T12:35:22Z</time></trkpt><trkpt lat="44.40732813759847" lon="8.284038114267256"><ele>343.0</ele><time>2026-05-01T12:35:23Z</time></trkpt><trkpt lat="44.40717832507295" lon="8.284068155186167"><ele>340.3333333333333</ele><time>2026-05-01T12:35:24Z</time></trkpt><trkpt lat="44.40701965091456" lon="8.28409077206339"><ele>337.6666666666667</ele><time>2026-05-01T12:35:25Z</time></trkpt><trkpt lat="44.40686093995171" lon="8.284106883966308"><ele>335.0</ele><time>2026-05-01T12:35:26Z</time></trkpt><trkpt lat="44.406697865013115" lon="8.284121062289824"><ele>335.0</ele><time>2026-05-01T12:35:27Z</time></trkpt><trkpt lat="44.40653672161239" lon="8.284128383182427"><ele>335.0</ele><time>2026-05-01T12:35:28Z</time></trkpt><trkpt lat="44.406377436122185" lon="8.28412478503465"><ele>335.0</ele><time>2026-05-01T12:35:29Z</time></trkpt><trkpt lat="44.4062294986301" lon="8.2841180034741"><ele>334.25</ele><time>2026-05-01T12:35:30Z</time></trkpt><trkpt lat="44.40608789646191" lon="8.284112453820882"><ele>333.5</ele><time>2026-05-01T12:35:31Z</time></trkpt><trkpt lat="44.40594626464821" lon="8.28410750397066"><ele>332.75</ele><time>2026-05-01T12:35:32Z</time></trkpt><trkpt lat="44.40580499096075" lon="8.284106092647729"><ele>332.0</ele><time>2026-05-01T12:35:33Z</time></trkpt><trkpt lat="44.40566389675088" lon="8.284106796743602"><ele>332.0</ele><time>2026-05-01T12:35:34Z</time></trkpt><trkpt lat="44.40551891484864" lon="8.28410616507537"><ele>332.0</ele><time>2026-05-01T12:35:35Z</time></trkpt><trkpt lat="44.405376086880835" lon="8.284104683045134"><ele>332.0</ele><time>2026-05-01T12:35:36Z</time></trkpt><trkpt lat="44.40524399394219" lon="8.284102908291056"><ele>332.0</ele><time>2026-05-01T12:35:37Z</time></trkpt><trkpt lat="44.40512139462641" lon="8.28410054107593"><ele>332.20000000000005</ele><time>2026-05-01T12:35:38Z</time></trkpt><trkpt lat="44.40500302581655" lon="8.284099325614397"><ele>332.4</ele><time>2026-05-01T12:35:39Z</time></trkpt><trkpt lat="44.404883773543666" lon="8.284099683846094"><ele>332.6</ele><time>2026-05-01T12:35:40Z</time></trkpt><trkpt lat="44.404775611640126" lon="8.284100222082373"><ele>332.79999999999995</ele><time>2026-05-01T12:35:41Z</time></trkpt><trkpt lat="44.40470111704513" lon="8.284096473091417"><ele>333.0</ele><time>2026-05-01T12:35:42Z</time></trkpt><trkpt lat="44.404568691017865" lon="8.284097515577592"><ele>333.5</ele><time>2026-05-01T12:35:44Z</time></trkpt><trkpt lat="44.404472376312185" lon="8.284097689719403"><ele>334.0</ele><time>2026-05-01T12:35:45Z</time></trkpt><trkpt lat="44.40436000509792" lon="8.284097633372744"><ele>334.5</ele><time>2026-05-01T12:35:46Z</time></trkpt><trkpt lat="44.4042337220267" lon="8.284094739937814"><ele>335.0</ele><time>2026-05-01T12:35:47Z</time></trkpt><trkpt lat="44.40409218948781" lon="8.28409302248424"><ele>335.0</ele><time>2026-05-01T12:35:48Z</time></trkpt><trkpt lat="44.40393816520917" lon="8.284090745469307"><ele>335.0</ele><time>2026-05-01T12:35:49Z</time></trkpt><trkpt lat="44.4037852068266" lon="8.28408863623769"><ele>335.0</ele><time>2026-05-01T12:35:50Z</time></trkpt><trkpt lat="44.403631122405464" lon="8.284089104054903"><ele>334.6666666666667</ele><time>2026-05-01T12:35:51Z</time></trkpt><trkpt lat="44.403463865183326" lon="8.284089674439436"><ele>334.3333333333333</ele><time>2026-05-01T12:35:52Z</time></trkpt><trkpt lat="44.403286446279665" lon="8.284085191673366"><ele>334.0</ele><time>2026-05-01T12:35:53Z</time></trkpt><trkpt lat="44.40309905086755" lon="8.284078239912837"><ele>334.66666666666663</ele><time>2026-05-01T12:35:54Z</time></trkpt><trkpt lat="44.402912324041196" lon="8.284075202309964"><ele>335.3333333333333</ele><time>2026-05-01T12:35:55Z</time></trkpt><trkpt lat="44.40272130941985" lon="8.284075354995155"><ele>336.0</ele><time>2026-05-01T12:35:56Z</time></trkpt><trkpt lat="44.40252271319943" lon="8.284072957581582"><ele>336.0</ele><time>2026-05-01T12:35:57Z</time></trkpt><trkpt lat="44.402318783428" lon="8.284069460243154"><ele>336.0</ele><time>2026-05-01T12:35:58Z</time></trkpt><trkpt lat="44.40211035707499" lon="8.284065551867636"><ele>336.0</ele><time>2026-05-01T12:35:59Z</time></trkpt><trkpt lat="44.40189457145319" lon="8.284059969355333"><ele>337.6666666666667</ele><time>2026-05-01T12:36:00Z</time></trkpt><trkpt lat="44.40167567169156" lon="8.284054545077344"><ele>339.33333333333337</ele><time>2026-05-01T12:36:01Z</time></trkpt><trkpt lat="44.401459507139045" lon="8.284052228940023"><ele>341.0</ele><time>2026-05-01T12:36:02Z</time></trkpt><trkpt lat="44.40124588550474" lon="8.284052386443795"><ele>343.0</ele><time>2026-05-01T12:36:03Z</time></trkpt><trkpt lat="44.40102425540637" lon="8.284045956434538"><ele>345.0</ele><time>2026-05-01T12:36:04Z</time></trkpt><trkpt lat="44.4008041731841" lon="8.284026615642581"><ele>347.0</ele><time>2026-05-01T12:36:05Z</time></trkpt><trkpt lat="44.40059437570486" lon="8.283999620190402"><ele>347.6666666666667</ele><time>2026-05-01T12:36:06Z</time></trkpt><trkpt lat="44.40039901262314" lon="8.283966649724716"><ele>348.3333333333333</ele><time>2026-05-01T12:36:07Z</time></trkpt><trkpt lat="44.400199791934476" lon="8.283930655949375"><ele>349.0</ele><time>2026-05-01T12:36:08Z</time></trkpt><trkpt lat="44.40000178186415" lon="8.2838929304049"><ele>347.0</ele><time>2026-05-01T12:36:09Z</time></trkpt><trkpt lat="44.399806702272585" lon="8.28384759094359"><ele>345.0</ele><time>2026-05-01T12:36:10Z</time></trkpt><trkpt lat="44.39961213234615" lon="8.283797171706606"><ele>343.0</ele><time>2026-05-01T12:36:11Z</time></trkpt><trkpt lat="44.39942180335589" lon="8.283738450881652"><ele>342.0</ele><time>2026-05-01T12:36:12Z</time></trkpt><trkpt lat="44.39923226817238" lon="8.28367965384616"><ele>341.0</ele><time>2026-05-01T12:36:13Z</time></trkpt><trkpt lat="44.39904274321409" lon="8.283627574368111"><ele>340.0</ele><time>2026-05-01T12:36:14Z</time></trkpt><trkpt lat="44.398855343519934" lon="8.283575578556148"><ele>339.3333333333333</ele><time>2026-05-01T12:36:15Z</time></trkpt><trkpt lat="44.39866770477968" lon="8.283518042906381"><ele>338.6666666666667</ele><time>2026-05-01T12:36:16Z</time></trkpt><trkpt lat="44.39847709196009" lon="8.283460481294085"><ele>338.0</ele><time>2026-05-01T12:36:17Z</time></trkpt><trkpt lat="44.3982852034312" lon="8.283406438258467"><ele>338.0</ele><time>2026-05-01T12:36:18Z</time></trkpt><trkpt lat="44.398082476398265" lon="8.283353360825005"><ele>338.0</ele><time>2026-05-01T12:36:19Z</time></trkpt><trkpt lat="44.39787546673435" lon="8.283291787375186"><ele>338.0</ele><time>2026-05-01T12:36:20Z</time></trkpt><trkpt lat="44.39766051006401" lon="8.283225368222206"><ele>337.6666666666667</ele><time>2026-05-01T12:36:21Z</time></trkpt><trkpt lat="44.397443142120295" lon="8.283159961605636"><ele>337.3333333333333</ele><time>2026-05-01T12:36:22Z</time></trkpt><trkpt lat="44.39722272707005" lon="8.283095091295468"><ele>337.0</ele><time>2026-05-01T12:36:23Z</time></trkpt><trkpt lat="44.39702110873892" lon="8.283035666789656"><ele>336.3333333333333</ele><time>2026-05-01T12:36:24Z</time></trkpt><trkpt lat="44.39683364988817" lon="8.282979662064577"><ele>335.6666666666667</ele><time>2026-05-01T12:36:25Z</time></trkpt><trkpt lat="44.39665300206745" lon="8.2829283732034"><ele>335.0</ele><time>2026-05-01T12:36:26Z</time></trkpt><trkpt lat="44.39647269846547" lon="8.282880671043205"><ele>335.33333333333337</ele><time>2026-05-01T12:36:27Z</time></trkpt><trkpt lat="44.39628720394193" lon="8.282830129686374"><ele>335.6666666666667</ele><time>2026-05-01T12:36:28Z</time></trkpt><trkpt lat="44.396094324089184" lon="8.282771877006384"><ele>336.0</ele><time>2026-05-01T12:36:29Z</time></trkpt><trkpt lat="44.395897333905765" lon="8.282711507940114"><ele>336.0</ele><time>2026-05-01T12:36:30Z</time></trkpt><trkpt lat="44.39569575190667" lon="8.282649091046046"><ele>336.0</ele><time>2026-05-01T12:36:31Z</time></trkpt><trkpt lat="44.39549649865197" lon="8.282590136686213"><ele>336.0</ele><time>2026-05-01T12:36:32Z</time></trkpt><trkpt lat="44.39530708222922" lon="8.282536014284789"><ele>335.6666666666667</ele><time>2026-05-01T12:36:33Z</time></trkpt><trkpt lat="44.395124839700046" lon="8.28248514501297"><ele>335.33333333333337</ele><time>2026-05-01T12:36:34Z</time></trkpt><trkpt lat="44.39495254557821" lon="8.282436417927395"><ele>335.0</ele><time>2026-05-01T12:36:35Z</time></trkpt><trkpt lat="44.39478660763125" lon="8.28238741171809"><ele>334.6666666666667</ele><time>2026-05-01T12:36:36Z</time></trkpt><trkpt lat="44.39462086544066" lon="8.282340357043939"><ele>334.3333333333333</ele><time>2026-05-01T12:36:37Z</time></trkpt><trkpt lat="44.39444862594903" lon="8.282289656462032"><ele>334.0</ele><time>2026-05-01T12:36:38Z</time></trkpt><trkpt lat="44.39427426411422" lon="8.28223802631344"><ele>334.0</ele><time>2026-05-01T12:36:39Z</time></trkpt><trkpt lat="44.39409363733045" lon="8.282185343717146"><ele>334.0</ele><time>2026-05-01T12:36:40Z</time></trkpt><trkpt lat="44.393914631244854" lon="8.282134983490238"><ele>334.0</ele><time>2026-05-01T12:36:41Z</time></trkpt><trkpt lat="44.393742662972635" lon="8.282086028079435"><ele>333.3333333333333</ele><time>2026-05-01T12:36:42Z</time></trkpt><trkpt lat="44.39357943970492" lon="8.282034947426054"><ele>332.6666666666667</ele><time>2026-05-01T12:36:43Z</time></trkpt><trkpt lat="44.393421785170965" lon="8.281987999787574"><ele>332.0</ele><time>2026-05-01T12:36:44Z</time></trkpt><trkpt lat="44.39325714260492" lon="8.281942860488414"><ele>332.0</ele><time>2026-05-01T12:36:45Z</time></trkpt><trkpt lat="44.39309300126459" lon="8.281897559289769"><ele>332.0</ele><time>2026-05-01T12:36:46Z</time></trkpt><trkpt lat="44.39292821751019" lon="8.28184962152503"><ele>332.0</ele><time>2026-05-01T12:36:47Z</time></trkpt><trkpt lat="44.39276158997053" lon="8.281798907042736"><ele>330.33333333333337</ele><time>2026-05-01T12:36:48Z</time></trkpt><trkpt lat="44.39258990566878" lon="8.281746170482071"><ele>328.6666666666667</ele><time>2026-05-01T12:36:49Z</time></trkpt><trkpt lat="44.392418744348056" lon="8.281697935353675"><ele>327.0</ele><time>2026-05-01T12:36:50Z</time></trkpt><trkpt lat="44.392244899414386" lon="8.281647483439347"><ele>328.3333333333333</ele><time>2026-05-01T12:36:51Z</time></trkpt><trkpt lat="44.392076194016006" lon="8.281599034413935"><ele>329.66666666666663</ele><time>2026-05-01T12:36:52Z</time></trkpt><trkpt lat="44.3919056613394" lon="8.28155389837046"><ele>331.0</ele><time>2026-05-01T12:36:53Z</time></trkpt><trkpt lat="44.391741257467785" lon="8.281505625957518"><ele>331.0</ele><time>2026-05-01T12:36:54Z</time></trkpt><trkpt lat="44.391575639007144" lon="8.281453223913733"><ele>331.0</ele><time>2026-05-01T12:36:55Z</time></trkpt><trkpt lat="44.39140633020253" lon="8.281396322862209"><ele>331.0</ele><time>2026-05-01T12:36:56Z</time></trkpt><trkpt lat="44.39123822568077" lon="8.281343033965001"><ele>330.66666666666663</ele><time>2026-05-01T12:36:57Z</time></trkpt><trkpt lat="44.39106781433918" lon="8.28129363768767"><ele>330.3333333333333</ele><time>2026-05-01T12:36:58Z</time></trkpt><trkpt lat="44.390896972920224" lon="8.281243123847823"><ele>330.0</ele><time>2026-05-01T12:36:59Z</time></trkpt><trkpt lat="44.390721733394805" lon="8.281192908262534"><ele>330.0</ele><time>2026-05-01T12:37:00Z</time></trkpt><trkpt lat="44.39054647384628" lon="8.281144505056092"><ele>330.0</ele><time>2026-05-01T12:37:01Z</time></trkpt><trkpt lat="44.390371289409" lon="8.28109705235019"><ele>330.0</ele><time>2026-05-01T12:37:02Z</time></trkpt><trkpt lat="44.390191196412445" lon="8.281054914263528"><ele>330.0</ele><time>2026-05-01T12:37:03Z</time></trkpt><trkpt lat="44.39000809077206" lon="8.281024971026175"><ele>330.0</ele><time>2026-05-01T12:37:04Z</time></trkpt><trkpt lat="44.389816315103275" lon="8.281022607944848"><ele>330.0</ele><time>2026-05-01T12:37:05Z</time></trkpt><trkpt lat="44.38963139422463" lon="8.281039745180886"><ele>330.0</ele><time>2026-05-01T12:37:06Z</time></trkpt><trkpt lat="44.38947408196401" lon="8.281054497100344"><ele>330.0</ele><time>2026-05-01T12:37:07Z</time></trkpt><trkpt lat="44.38921285180856" lon="8.2811028634106"><ele>330.0</ele><time>2026-05-01T12:37:08Z</time></trkpt><trkpt lat="44.38901028729376" lon="8.281183327782042"><ele>329.3333333333333</ele><time>2026-05-01T12:37:09Z</time></trkpt><trkpt lat="44.38880956491823" lon="8.281286955299533"><ele>328.66666666666663</ele><time>2026-05-01T12:37:10Z</time></trkpt><trkpt lat="44.38860470720874" lon="8.281404151480265"><ele>328.0</ele><time>2026-05-01T12:37:11Z</time></trkpt><trkpt lat="44.388420469343124" lon="8.281521378048907"><ele>329.3333333333333</ele><time>2026-05-01T12:37:12Z</time></trkpt><trkpt lat="44.3882442378231" lon="8.281627812702546"><ele>330.6666666666667</ele><time>2026-05-01T12:37:13Z</time></trkpt><trkpt lat="44.38806538253561" lon="8.281729798600633"><ele>332.0</ele><time>2026-05-01T12:37:14Z</time></trkpt><trkpt lat="44.38789403926068" lon="8.28182650421369"><ele>332.33333333333337</ele><time>2026-05-01T12:37:15Z</time></trkpt><trkpt lat="44.387724653026815" lon="8.281919009417663"><ele>332.6666666666667</ele><time>2026-05-01T12:37:16Z</time></trkpt><trkpt lat="44.387561144230276" lon="8.282016471118261"><ele>333.0</ele><time>2026-05-01T12:37:17Z</time></trkpt><trkpt lat="44.387396606481715" lon="8.28211035151569"><ele>333.0</ele><time>2026-05-01T12:37:18Z</time></trkpt><trkpt lat="44.387235974296566" lon="8.282203388359822"><ele>333.0</ele><time>2026-05-01T12:37:19Z</time></trkpt><trkpt lat="44.38707742436291" lon="8.28229208500372"><ele>333.0</ele><time>2026-05-01T12:37:20Z</time></trkpt><trkpt lat="44.386925568118016" lon="8.282376175879582"><ele>334.0</ele><time>2026-05-01T12:37:21Z</time></trkpt><trkpt lat="44.38677999672662" lon="8.282455155903795"><ele>335.0</ele><time>2026-05-01T12:37:22Z</time></trkpt><trkpt lat="44.386640505718645" lon="8.282529256242157"><ele>336.0</ele><time>2026-05-01T12:37:23Z</time></trkpt><trkpt lat="44.38653647948742" lon="8.282585116674673"><ele>337.0</ele><time>2026-05-01T12:37:24Z</time></trkpt><trkpt lat="44.38647001761619" lon="8.282619530178978"><ele>337.0</ele><time>2026-05-01T12:37:26Z</time></trkpt><trkpt lat="44.386385442417556" lon="8.282671623350337"><ele>337.0</ele><time>2026-05-01T12:37:28Z</time></trkpt><trkpt lat="44.386291005997826" lon="8.282720077561152"><ele>337.0</ele><time>2026-05-01T12:37:29Z</time></trkpt><trkpt lat="44.386169018903786" lon="8.282781275387261"><ele>337.0</ele><time>2026-05-01T12:37:30Z</time></trkpt><trkpt lat="44.386043480558506" lon="8.282836207762736"><ele>336.0</ele><time>2026-05-01T12:37:31Z</time></trkpt><trkpt lat="44.38590743876152" lon="8.28287305146176"><ele>335.0</ele><time>2026-05-01T12:37:32Z</time></trkpt><trkpt lat="44.385760629987" lon="8.282891585512429"><ele>334.0</ele><time>2026-05-01T12:37:33Z</time></trkpt><trkpt lat="44.38562057077485" lon="8.282894903087573"><ele>333.0</ele><time>2026-05-01T12:37:34Z</time></trkpt><trkpt lat="44.385472153194435" lon="8.282883015010004"><ele>331.6666666666667</ele><time>2026-05-01T12:37:35Z</time></trkpt><trkpt lat="44.38531810871049" lon="8.282859274162496"><ele>330.33333333333337</ele><time>2026-05-01T12:37:36Z</time></trkpt><trkpt lat="44.385160031809704" lon="8.282841508975464"><ele>329.0</ele><time>2026-05-01T12:37:37Z</time></trkpt><trkpt lat="44.38499417501189" lon="8.282822796141293"><ele>329.0</ele><time>2026-05-01T12:37:38Z</time></trkpt><trkpt lat="44.38481865180763" lon="8.282800485052523"><ele>329.0</ele><time>2026-05-01T12:37:39Z</time></trkpt><trkpt lat="44.38463262663244" lon="8.282780355347244"><ele>329.0</ele><time>2026-05-01T12:37:40Z</time></trkpt><trkpt lat="44.38443848120658" lon="8.282764725080424"><ele>329.6666666666667</ele><time>2026-05-01T12:37:41Z</time></trkpt><trkpt lat="44.38424376335429" lon="8.28274635431861"><ele>330.3333333333333</ele><time>2026-05-01T12:37:42Z</time></trkpt><trkpt lat="44.384042890287674" lon="8.282726668178944"><ele>331.0</ele><time>2026-05-01T12:37:43Z</time></trkpt><trkpt lat="44.383842831450686" lon="8.282706049723686"><ele>331.3333333333333</ele><time>2026-05-01T12:37:44Z</time></trkpt><trkpt lat="44.38364702413492" lon="8.282687000190409"><ele>331.6666666666667</ele><time>2026-05-01T12:37:45Z</time></trkpt><trkpt lat="44.38345312274006" lon="8.282669508807896"><ele>332.0</ele><time>2026-05-01T12:37:46Z</time></trkpt><trkpt lat="44.38326163219986" lon="8.282653314444737"><ele>332.0</ele><time>2026-05-01T12:37:47Z</time></trkpt><trkpt lat="44.38307965338825" lon="8.282632512168739"><ele>332.0</ele><time>2026-05-01T12:37:48Z</time></trkpt><trkpt lat="44.38290193094617" lon="8.28261086351254"><ele>332.0</ele><time>2026-05-01T12:37:49Z</time></trkpt><trkpt lat="44.382722479246716" lon="8.282589738353003"><ele>333.33333333333337</ele><time>2026-05-01T12:37:50Z</time></trkpt><trkpt lat="44.3825428405616" lon="8.282567688382677"><ele>334.6666666666667</ele><time>2026-05-01T12:37:51Z</time></trkpt><trkpt lat="44.38236417975092" lon="8.282552085096915"><ele>336.0</ele><time>2026-05-01T12:37:52Z</time></trkpt><trkpt lat="44.382184522623014" lon="8.282533078236366"><ele>337.0</ele><time>2026-05-01T12:37:53Z</time></trkpt><trkpt lat="44.38200320516373" lon="8.282513412362887"><ele>338.0</ele><time>2026-05-01T12:37:54Z</time></trkpt><trkpt lat="44.381830874464946" lon="8.282494025658824"><ele>339.0</ele><time>2026-05-01T12:37:55Z</time></trkpt><trkpt lat="44.381673356582716" lon="8.282478696380524"><ele>339.0</ele><time>2026-05-01T12:37:56Z</time></trkpt><trkpt lat="44.381539927690724" lon="8.282466383172919"><ele>339.0</ele><time>2026-05-01T12:37:57Z</time></trkpt><trkpt lat="44.38143677337479" lon="8.282453539087275"><ele>339.0</ele><time>2026-05-01T12:37:58Z</time></trkpt><trkpt lat="44.3813627497193" lon="8.282435279746064"><ele>339.0</ele><time>2026-05-01T12:37:59Z</time></trkpt><trkpt lat="44.38130068994262" lon="8.282290280354792"><ele>339.0</ele><time>2026-05-01T12:38:01Z</time></trkpt><trkpt lat="44.381293494016596" lon="8.282169674833021"><ele>339.2</ele><time>2026-05-01T12:38:02Z</time></trkpt><trkpt lat="44.38131706061069" lon="8.282063446910756"><ele>339.4</ele><time>2026-05-01T12:38:03Z</time></trkpt><trkpt lat="44.38136918038525" lon="8.281979855673805"><ele>339.6</ele><time>2026-05-01T12:38:04Z</time></trkpt><trkpt lat="44.38143086771919" lon="8.281928997485688"><ele>339.8</ele><time>2026-05-01T12:38:05Z</time></trkpt><trkpt lat="44.38156715563992" lon="8.281859922739628"><ele>340.0</ele><time>2026-05-01T12:38:07Z</time></trkpt><trkpt lat="44.38165425412925" lon="8.281813732731454"><ele>340.0</ele><time>2026-05-01T12:38:08Z</time></trkpt><trkpt lat="44.38173894431652" lon="8.28177474764828"><ele>340.0</ele><time>2026-05-01T12:38:09Z</time></trkpt><trkpt lat="44.381811192643504" lon="8.281757087614102"><ele>340.0</ele><time>2026-05-01T12:38:10Z</time></trkpt><trkpt lat="44.381882841817784" lon="8.28175444222371"><ele>340.0</ele><time>2026-05-01T12:38:11Z</time></trkpt><trkpt lat="44.38194833738121" lon="8.281742033413748"><ele>340.0</ele><time>2026-05-01T12:38:12Z</time></trkpt><trkpt lat="44.38202122979655" lon="8.28171046027494"><ele>340.0</ele><time>2026-05-01T12:38:14Z</time></trkpt><trkpt lat="44.38208770306401" lon="8.28165334242535"><ele>340.0</ele><time>2026-05-01T12:38:59Z</time></trkpt><trkpt lat="44.38218098721018" lon="8.281593571456632"><ele>340.0</ele><time>2026-05-01T12:39:00Z</time></trkpt><trkpt lat="44.3822881587776" lon="8.281515394598726"><ele>340.0</ele><time>2026-05-01T12:39:01Z</time></trkpt><trkpt lat="44.38240657445418" lon="8.281426743472805"><ele>340.0</ele><time>2026-05-01T12:39:02Z</time></trkpt><trkpt lat="44.38253964344421" lon="8.28133111142267"><ele>338.75</ele><time>2026-05-01T12:39:03Z</time></trkpt><trkpt lat="44.38267484474501" lon="8.28123762587166"><ele>337.5</ele><time>2026-05-01T12:39:04Z</time></trkpt><trkpt lat="44.38276645473705" lon="8.281183510417966"><ele>336.25</ele><time>2026-05-01T12:39:05Z</time></trkpt><trkpt lat="44.382856654395866" lon="8.28119673873004"><ele>335.0</ele><time>2026-05-01T12:39:07Z</time></trkpt><trkpt lat="44.382869094027576" lon="8.281463060960581"><ele>334.75</ele><time>2026-05-01T12:39:09Z</time></trkpt><trkpt lat="44.382845381238006" lon="8.28164429893023"><ele>334.5</ele><time>2026-05-01T12:39:10Z</time></trkpt><trkpt lat="44.38279306508073" lon="8.281834345711669"><ele>334.25</ele><time>2026-05-01T12:39:11Z</time></trkpt><trkpt lat="44.382748662872565" lon="8.282038222431705"><ele>334.0</ele><time>2026-05-01T12:39:12Z</time></trkpt><trkpt lat="44.382705454678515" lon="8.282246005555274"><ele>334.66666666666663</ele><time>2026-05-01T12:39:13Z</time></trkpt><trkpt lat="44.38265871452316" lon="8.282452868955529"><ele>335.3333333333333</ele><time>2026-05-01T12:39:14Z</time></trkpt><trkpt lat="44.38261252332154" lon="8.28266029715696"><ele>336.0</ele><time>2026-05-01T12:39:15Z</time></trkpt><trkpt lat="44.38256915819041" lon="8.282862500923283"><ele>336.0</ele><time>2026-05-01T12:39:16Z</time></trkpt><trkpt lat="44.38252730658809" lon="8.283068171781268"><ele>336.0</ele><time>2026-05-01T12:39:17Z</time></trkpt><trkpt lat="44.382486445649945" lon="8.283277697440342"><ele>336.0</ele><time>2026-05-01T12:39:18Z</time></trkpt><trkpt lat="44.38244370465193" lon="8.283475384685852"><ele>335.3333333333333</ele><time>2026-05-01T12:39:19Z</time></trkpt><trkpt lat="44.38240053994679" lon="8.283670579045173"><ele>334.66666666666663</ele><time>2026-05-01T12:39:20Z</time></trkpt><trkpt lat="44.38235511385091" lon="8.283875817827125"><ele>334.0</ele><time>2026-05-01T12:39:21Z</time></trkpt><trkpt lat="44.382308473842535" lon="8.28409610193679"><ele>334.0</ele><time>2026-05-01T12:39:22Z</time></trkpt><trkpt lat="44.38225957328707" lon="8.284324199401091"><ele>334.0</ele><time>2026-05-01T12:39:23Z</time></trkpt><trkpt lat="44.38220728777" lon="8.284555462886981"><ele>334.0</ele><time>2026-05-01T12:39:24Z</time></trkpt><trkpt lat="44.382152111047496" lon="8.284806517956083"><ele>334.0</ele><time>2026-05-01T12:39:25Z</time></trkpt><trkpt lat="44.382088504701166" lon="8.285085555311804"><ele>334.0</ele><time>2026-05-01T12:39:26Z</time></trkpt><trkpt lat="44.382030683552784" lon="8.28536228100681"><ele>334.0</ele><time>2026-05-01T12:39:27Z</time></trkpt><trkpt lat="44.38197287832259" lon="8.285645707453407"><ele>332.66666666666663</ele><time>2026-05-01T12:39:28Z</time></trkpt><trkpt lat="44.38191042560835" lon="8.285934823234319"><ele>331.3333333333333</ele><time>2026-05-01T12:39:29Z</time></trkpt><trkpt lat="44.38185661268599" lon="8.286193246270601"><ele>330.0</ele><time>2026-05-01T12:39:30Z</time></trkpt><trkpt lat="44.3818085701777" lon="8.28641676799461"><ele>331.75</ele><time>2026-05-01T12:39:31Z</time></trkpt><trkpt lat="44.3817621360376" lon="8.286577283005416"><ele>333.5</ele><time>2026-05-01T12:39:32Z</time></trkpt><trkpt lat="44.38169508326048" lon="8.286693417943889"><ele>335.25</ele><time>2026-05-01T12:39:33Z</time></trkpt><trkpt lat="44.38159481039388" lon="8.286768669252913"><ele>337.0</ele><time>2026-05-01T12:39:34Z</time></trkpt><trkpt lat="44.3814843278137" lon="8.286875250341014"><ele>336.66666666666663</ele><time>2026-05-01T12:39:35Z</time></trkpt><trkpt lat="44.38134641108992" lon="8.286971370965436"><ele>336.3333333333333</ele><time>2026-05-01T12:39:36Z</time></trkpt><trkpt lat="44.381191252165095" lon="8.287093603293929"><ele>336.0</ele><time>2026-05-01T12:39:37Z</time></trkpt><trkpt lat="44.38102652483162" lon="8.287236632619857"><ele>337.6666666666667</ele><time>2026-05-01T12:39:38Z</time></trkpt><trkpt lat="44.38086024220408" lon="8.287389313707056"><ele>339.33333333333337</ele><time>2026-05-01T12:39:39Z</time></trkpt><trkpt lat="44.38068562091593" lon="8.287535381428793"><ele>341.0</ele><time>2026-05-01T12:39:40Z</time></trkpt><trkpt lat="44.380520437741794" lon="8.28765570694096"><ele>340.6666666666667</ele><time>2026-05-01T12:39:41Z</time></trkpt><trkpt lat="44.38035922723082" lon="8.287762568288864"><ele>340.3333333333333</ele><time>2026-05-01T12:39:42Z</time></trkpt><trkpt lat="44.38019400968326" lon="8.287876809381952"><ele>340.0</ele><time>2026-05-01T12:39:43Z</time></trkpt><trkpt lat="44.380033078427694" lon="8.28798844064573"><ele>340.0</ele><time>2026-05-01T12:39:44Z</time></trkpt><trkpt lat="44.379887979142005" lon="8.288085707638643"><ele>340.0</ele><time>2026-05-01T12:39:45Z</time></trkpt><trkpt lat="44.37974948472622" lon="8.288168171886827"><ele>340.0</ele><time>2026-05-01T12:39:46Z</time></trkpt><trkpt lat="44.37961207143001" lon="8.288243135292095"><ele>340.25</ele><time>2026-05-01T12:39:47Z</time></trkpt><trkpt lat="44.379473992749" lon="8.288314192028144"><ele>340.5</ele><time>2026-05-01T12:39:48Z</time></trkpt><trkpt lat="44.37934515649761" lon="8.288383515064721"><ele>340.75</ele><time>2026-05-01T12:39:49Z</time></trkpt><trkpt lat="44.37922230845281" lon="8.288447741316585"><ele>341.0</ele><time>2026-05-01T12:39:50Z</time></trkpt><trkpt lat="44.379097556055974" lon="8.288515462589814"><ele>341.0</ele><time>2026-05-01T12:39:51Z</time></trkpt><trkpt lat="44.37896801719477" lon="8.288586545455725"><ele>341.0</ele><time>2026-05-01T12:39:52Z</time></trkpt><trkpt lat="44.378843920120644" lon="8.28867185482982"><ele>341.0</ele><time>2026-05-01T12:39:53Z</time></trkpt><trkpt lat="44.37872747825681" lon="8.288786911166055"><ele>341.0</ele><time>2026-05-01T12:39:54Z</time></trkpt><trkpt lat="44.37861463050846" lon="8.288939886864494"><ele>342.0</ele><time>2026-05-01T12:39:55Z</time></trkpt><trkpt lat="44.37850442082231" lon="8.289104068434883"><ele>343.0</ele><time>2026-05-01T12:39:56Z</time></trkpt><trkpt lat="44.37838741226554" lon="8.289274701806688"><ele>344.0</ele><time>2026-05-01T12:39:57Z</time></trkpt><trkpt lat="44.378267272999395" lon="8.289444029718004"><ele>344.0</ele><time>2026-05-01T12:39:58Z</time></trkpt><trkpt lat="44.378145170100844" lon="8.289615084783918"><ele>344.0</ele><time>2026-05-01T12:39:59Z</time></trkpt><trkpt lat="44.3780205106714" lon="8.289785773716849"><ele>344.0</ele><time>2026-05-01T12:40:00Z</time></trkpt><trkpt lat="44.37789342913213" lon="8.28996050833025"><ele>343.6666666666667</ele><time>2026-05-01T12:40:01Z</time></trkpt><trkpt lat="44.37776640635043" lon="8.290136326056222"><ele>343.3333333333333</ele><time>2026-05-01T12:40:02Z</time></trkpt><trkpt lat="44.377637649371074" lon="8.290316622206332"><ele>343.0</ele><time>2026-05-01T12:40:03Z</time></trkpt><trkpt lat="44.3775067032532" lon="8.290499385075268"><ele>343.66666666666663</ele><time>2026-05-01T12:40:04Z</time></trkpt><trkpt lat="44.37737322837718" lon="8.290683420536794"><ele>344.3333333333333</ele><time>2026-05-01T12:40:05Z</time></trkpt><trkpt lat="44.37724138524294" lon="8.290864437156905"><ele>345.0</ele><time>2026-05-01T12:40:06Z</time></trkpt><trkpt lat="44.3771049657049" lon="8.29105161866242"><ele>345.0</ele><time>2026-05-01T12:40:07Z</time></trkpt><trkpt lat="44.37697049244827" lon="8.291236841353017"><ele>345.0</ele><time>2026-05-01T12:40:08Z</time></trkpt><trkpt lat="44.376846948059715" lon="8.291409161954617"><ele>345.0</ele><time>2026-05-01T12:40:09Z</time></trkpt><trkpt lat="44.376732231561" lon="8.291565503236319"><ele>344.75</ele><time>2026-05-01T12:40:10Z</time></trkpt><trkpt lat="44.376622732280865" lon="8.291709660324013"><ele>344.5</ele><time>2026-05-01T12:40:11Z</time></trkpt><trkpt lat="44.3765189688166" lon="8.291844650338158"><ele>344.25</ele><time>2026-05-01T12:40:12Z</time></trkpt><trkpt lat="44.37642162227286" lon="8.291975208454833"><ele>344.0</ele><time>2026-05-01T12:40:13Z</time></trkpt><trkpt lat="44.37634167100432" lon="8.292106075253558"><ele>345.0</ele><time>2026-05-01T12:40:14Z</time></trkpt><trkpt lat="44.37628121626991" lon="8.292274576609922"><ele>346.0</ele><time>2026-05-01T12:40:15Z</time></trkpt><trkpt lat="44.37623153167478" lon="8.292480918096377"><ele>347.0</ele><time>2026-05-01T12:40:16Z</time></trkpt><trkpt lat="44.376176629266354" lon="8.29269351613367"><ele>347.0</ele><time>2026-05-01T12:40:17Z</time></trkpt><trkpt lat="44.376092169640465" lon="8.292847850672409"><ele>347.0</ele><time>2026-05-01T12:40:18Z</time></trkpt><trkpt lat="44.37601013599135" lon="8.293000810786735"><ele>347.0</ele><time>2026-05-01T12:40:19Z</time></trkpt><trkpt lat="44.375937692245316" lon="8.293162579009095"><ele>347.0</ele><time>2026-05-01T12:40:20Z</time></trkpt><trkpt lat="44.37584406023177" lon="8.29331494307788"><ele>346.6666666666667</ele><time>2026-05-01T12:40:21Z</time></trkpt><trkpt lat="44.375761682780485" lon="8.293489888765649"><ele>346.3333333333333</ele><time>2026-05-01T12:40:22Z</time></trkpt><trkpt lat="44.37569744003896" lon="8.293677084159718"><ele>346.0</ele><time>2026-05-01T12:40:23Z</time></trkpt><trkpt lat="44.37565714961951" lon="8.29389225460325"><ele>347.0</ele><time>2026-05-01T12:40:24Z</time></trkpt><trkpt lat="44.375623417524615" lon="8.294119050422593"><ele>348.0</ele><time>2026-05-01T12:40:25Z</time></trkpt><trkpt lat="44.375582050876965" lon="8.294355465986762"><ele>349.0</ele><time>2026-05-01T12:40:26Z</time></trkpt><trkpt lat="44.37554299600676" lon="8.294604232783346"><ele>349.3333333333333</ele><time>2026-05-01T12:40:27Z</time></trkpt><trkpt lat="44.375522712957164" lon="8.294834286625315"><ele>349.6666666666667</ele><time>2026-05-01T12:40:28Z</time></trkpt><trkpt lat="44.37547486369448" lon="8.295035644021661"><ele>350.0</ele><time>2026-05-01T12:40:29Z</time></trkpt><trkpt lat="44.37544931093005" lon="8.295270088707916"><ele>350.0</ele><time>2026-05-01T12:40:30Z</time></trkpt><trkpt lat="44.37543267606309" lon="8.29552460701911"><ele>350.0</ele><time>2026-05-01T12:40:31Z</time></trkpt><trkpt lat="44.3754314276926" lon="8.295790173548296"><ele>350.0</ele><time>2026-05-01T12:40:32Z</time></trkpt><trkpt lat="44.375441892489654" lon="8.296057665882799"><ele>350.6666666666667</ele><time>2026-05-01T12:40:33Z</time></trkpt><trkpt lat="44.37546463525845" lon="8.296330174708404"><ele>351.3333333333333</ele><time>2026-05-01T12:40:34Z</time></trkpt><trkpt lat="44.375487354944276" lon="8.29659618946853"><ele>352.0</ele><time>2026-05-01T12:40:35Z</time></trkpt><trkpt lat="44.375509833636706" lon="8.29687184017612"><ele>352.3333333333333</ele><time>2026-05-01T12:40:36Z</time></trkpt><trkpt lat="44.37553323651867" lon="8.297130414189725"><ele>352.6666666666667</ele><time>2026-05-01T12:40:37Z</time></trkpt><trkpt lat="44.375557934934406" lon="8.297387313844911"><ele>353.0</ele><time>2026-05-01T12:40:38Z</time></trkpt><trkpt lat="44.37558313263595" lon="8.297645098739064"><ele>353.0</ele><time>2026-05-01T12:40:39Z</time></trkpt><trkpt lat="44.375606596321894" lon="8.297888703404103"><ele>353.0</ele><time>2026-05-01T12:40:40Z</time></trkpt><trkpt lat="44.37562320495951" lon="8.298118709513588"><ele>353.0</ele><time>2026-05-01T12:40:41Z</time></trkpt><trkpt lat="44.37562933263487" lon="8.298328346253886"><ele>352.4</ele><time>2026-05-01T12:40:42Z</time></trkpt><trkpt lat="44.37562758465624" lon="8.298503908258935"><ele>351.79999999999995</ele><time>2026-05-01T12:40:43Z</time></trkpt><trkpt lat="44.37562012472202" lon="8.298655999539495"><ele>351.2</ele><time>2026-05-01T12:40:44Z</time></trkpt><trkpt lat="44.375608746647885" lon="8.298790154444713"><ele>350.6</ele><time>2026-05-01T12:40:45Z</time></trkpt><trkpt lat="44.375603018950315" lon="8.298932457492079"><ele>350.0</ele><time>2026-05-01T12:40:46Z</time></trkpt><trkpt lat="44.375595108271476" lon="8.299068163175743"><ele>350.0</ele><time>2026-05-01T12:40:47Z</time></trkpt><trkpt lat="44.3755778980455" lon="8.299195824988269"><ele>350.0</ele><time>2026-05-01T12:40:48Z</time></trkpt><trkpt lat="44.37556780832276" lon="8.299357356026592"><ele>350.0</ele><time>2026-05-01T12:40:49Z</time></trkpt><trkpt lat="44.37555475483293" lon="8.299540441472308"><ele>350.0</ele><time>2026-05-01T12:40:50Z</time></trkpt><trkpt lat="44.37554431746356" lon="8.299732387432016"><ele>349.75</ele><time>2026-05-01T12:40:51Z</time></trkpt><trkpt lat="44.37553572862791" lon="8.299922347847811"><ele>349.5</ele><time>2026-05-01T12:40:52Z</time></trkpt><trkpt lat="44.37552279199855" lon="8.300123097213943"><ele>349.25</ele><time>2026-05-01T12:40:53Z</time></trkpt><trkpt lat="44.37550801838575" lon="8.300332004514809"><ele>349.0</ele><time>2026-05-01T12:40:54Z</time></trkpt><trkpt lat="44.375499928103025" lon="8.300550514993066"><ele>348.3333333333333</ele><time>2026-05-01T12:40:55Z</time></trkpt><trkpt lat="44.37549849704799" lon="8.300778161269319"><ele>347.6666666666667</ele><time>2026-05-01T12:40:56Z</time></trkpt><trkpt lat="44.37549937599091" lon="8.301007569092398"><ele>347.0</ele><time>2026-05-01T12:40:57Z</time></trkpt><trkpt lat="44.37549718605676" lon="8.301236778033816"><ele>347.0</ele><time>2026-05-01T12:40:58Z</time></trkpt><trkpt lat="44.37549123436651" lon="8.301455543612702"><ele>347.0</ele><time>2026-05-01T12:40:59Z</time></trkpt><trkpt lat="44.375478670830155" lon="8.301679718247774"><ele>347.0</ele><time>2026-05-01T12:41:00Z</time></trkpt><trkpt lat="44.375447562662906" lon="8.301914902885596"><ele>347.0</ele><time>2026-05-01T12:41:01Z</time></trkpt><trkpt lat="44.37540337012564" lon="8.302152868471962"><ele>347.0</ele><time>2026-05-01T12:41:02Z</time></trkpt><trkpt lat="44.37535933688559" lon="8.302401040035406"><ele>347.0</ele><time>2026-05-01T12:41:03Z</time></trkpt><trkpt lat="44.375316721259054" lon="8.302662069867898"><ele>347.0</ele><time>2026-05-01T12:41:04Z</time></trkpt><trkpt lat="44.375276573636405" lon="8.302931162329305"><ele>347.0</ele><time>2026-05-01T12:41:05Z</time></trkpt><trkpt lat="44.37523898424698" lon="8.30317761304466"><ele>347.0</ele><time>2026-05-01T12:41:06Z</time></trkpt><trkpt lat="44.37520399306646" lon="8.303410810124204"><ele>347.0</ele><time>2026-05-01T12:41:07Z</time></trkpt><trkpt lat="44.37516613012068" lon="8.303650356670666"><ele>347.0</ele><time>2026-05-01T12:41:08Z</time></trkpt><trkpt lat="44.375133554545066" lon="8.30389067827902"><ele>347.0</ele><time>2026-05-01T12:41:09Z</time></trkpt><trkpt lat="44.375100818680394" lon="8.304120030596083"><ele>347.0</ele><time>2026-05-01T12:41:10Z</time></trkpt><trkpt lat="44.37506845052727" lon="8.30433542079834"><ele>347.0</ele><time>2026-05-01T12:41:11Z</time></trkpt><trkpt lat="44.37504103621864" lon="8.304516748191892"><ele>347.0</ele><time>2026-05-01T12:41:12Z</time></trkpt><trkpt lat="44.37501693299286" lon="8.304673637365262"><ele>347.0</ele><time>2026-05-01T12:41:13Z</time></trkpt><trkpt lat="44.37499367269036" lon="8.304834028418743"><ele>347.0</ele><time>2026-05-01T12:41:14Z</time></trkpt><trkpt lat="44.3749688348387" lon="8.305005361674306"><ele>347.0</ele><time>2026-05-01T12:41:15Z</time></trkpt><trkpt lat="44.37495400130789" lon="8.305190807980122"><ele>347.0</ele><time>2026-05-01T12:41:16Z</time></trkpt><trkpt lat="44.37493533513596" lon="8.305388833496755"><ele>347.0</ele><time>2026-05-01T12:41:17Z</time></trkpt><trkpt lat="44.37492633491417" lon="8.305603863149082"><ele>347.33333333333337</ele><time>2026-05-01T12:41:18Z</time></trkpt><trkpt lat="44.37492744565792" lon="8.30583657990416"><ele>347.6666666666667</ele><time>2026-05-01T12:41:19Z</time></trkpt><trkpt lat="44.374943735956585" lon="8.306094680418523"><ele>348.0</ele><time>2026-05-01T12:41:20Z</time></trkpt><trkpt lat="44.37497345371548" lon="8.306377753875461"><ele>348.6666666666667</ele><time>2026-05-01T12:41:21Z</time></trkpt><trkpt lat="44.37501482711637" lon="8.306673553143526"><ele>349.33333333333337</ele><time>2026-05-01T12:41:22Z</time></trkpt><trkpt lat="44.3750586959412" lon="8.306980046972678"><ele>350.0</ele><time>2026-05-01T12:41:23Z</time></trkpt><trkpt lat="44.375091161071204" lon="8.3071366309917"><ele>350.33333333333337</ele><time>2026-05-01T12:41:24Z</time></trkpt><trkpt lat="44.37507709122787" lon="8.307344777531446"><ele>350.6666666666667</ele><time>2026-05-01T12:41:25Z</time></trkpt><trkpt lat="44.375048546191145" lon="8.307558574229779"><ele>351.0</ele><time>2026-05-01T12:41:26Z</time></trkpt><trkpt lat="44.374999767737414" lon="8.307787722365498"><ele>351.0</ele><time>2026-05-01T12:41:27Z</time></trkpt><trkpt lat="44.374940917006114" lon="8.308029850780787"><ele>351.0</ele><time>2026-05-01T12:41:28Z</time></trkpt><trkpt lat="44.37489045965437" lon="8.308294528707972"><ele>351.0</ele><time>2026-05-01T12:41:29Z</time></trkpt><trkpt lat="44.37486670730011" lon="8.308592282912535"><ele>355.5</ele><time>2026-05-01T12:41:30Z</time></trkpt><trkpt lat="44.37484675162223" lon="8.308914495227752"><ele>360.0</ele><time>2026-05-01T12:41:31Z</time></trkpt><trkpt lat="44.374842669380726" lon="8.309256327251221"><ele>360.0</ele><time>2026-05-01T12:41:32Z</time></trkpt><trkpt lat="44.374841104700465" lon="8.30960582672382"><ele>360.0</ele><time>2026-05-01T12:41:33Z</time></trkpt><trkpt lat="44.374841304845155" lon="8.309945868998323"><ele>361.0</ele><time>2026-05-01T12:41:34Z</time></trkpt><trkpt lat="44.37484365214851" lon="8.310279261734152"><ele>362.0</ele><time>2026-05-01T12:41:35Z</time></trkpt><trkpt lat="44.37483999399035" lon="8.310563843650646"><ele>363.0</ele><time>2026-05-01T12:41:36Z</time></trkpt><trkpt lat="44.37480632883685" lon="8.310797537194247"><ele>360.3333333333333</ele><time>2026-05-01T12:41:37Z</time></trkpt><trkpt lat="44.37474959731823" lon="8.311019166404053"><ele>357.66666666666663</ele><time>2026-05-01T12:41:38Z</time></trkpt><trkpt lat="44.374691118711326" lon="8.311272398827283"><ele>355.0</ele><time>2026-05-01T12:41:39Z</time></trkpt><trkpt lat="44.37462753334485" lon="8.311540333013408"><ele>353.66666666666663</ele><time>2026-05-01T12:41:40Z</time></trkpt><trkpt lat="44.374560890364975" lon="8.311800754106189"><ele>352.3333333333333</ele><time>2026-05-01T12:41:41Z</time></trkpt><trkpt lat="44.37448610186645" lon="8.31204781398788"><ele>351.0</ele><time>2026-05-01T12:41:42Z</time></trkpt><trkpt lat="44.37439545857364" lon="8.312288813598272"><ele>351.0</ele><time>2026-05-01T12:41:43Z</time></trkpt><trkpt lat="44.3743059471781" lon="8.312530068931917"><ele>351.0</ele><time>2026-05-01T12:41:44Z</time></trkpt><trkpt lat="44.37421979287387" lon="8.312765572101299"><ele>351.0</ele><time>2026-05-01T12:41:45Z</time></trkpt><trkpt lat="44.37413344535324" lon="8.313001747199621"><ele>351.0</ele><time>2026-05-01T12:41:46Z</time></trkpt><trkpt lat="44.374047971204554" lon="8.313262732624256"><ele>351.0</ele><time>2026-05-01T12:41:47Z</time></trkpt><trkpt lat="44.37395046817844" lon="8.313522691400607"><ele>351.0</ele><time>2026-05-01T12:41:48Z</time></trkpt><trkpt lat="44.373855771272254" lon="8.313776260491181"><ele>352.6666666666667</ele><time>2026-05-01T12:41:49Z</time></trkpt><trkpt lat="44.37375847800487" lon="8.31403149073196"><ele>354.33333333333337</ele><time>2026-05-01T12:41:50Z</time></trkpt><trkpt lat="44.37365237399477" lon="8.314300867379773"><ele>356.0</ele><time>2026-05-01T12:41:51Z</time></trkpt><trkpt lat="44.373542288633004" lon="8.314587148221033"><ele>359.5</ele><time>2026-05-01T12:41:52Z</time></trkpt><trkpt lat="44.37343342356762" lon="8.314883167650567"><ele>363.0</ele><time>2026-05-01T12:41:53Z</time></trkpt><trkpt lat="44.373324151233454" lon="8.31518353300328"><ele>363.0</ele><time>2026-05-01T12:41:54Z</time></trkpt><trkpt lat="44.37321783521787" lon="8.31549064410586"><ele>363.0</ele><time>2026-05-01T12:41:55Z</time></trkpt><trkpt lat="44.37311310521077" lon="8.315811389115831"><ele>362.0</ele><time>2026-05-01T12:41:56Z</time></trkpt><trkpt lat="44.37300558122749" lon="8.316135389911137"><ele>361.0</ele><time>2026-05-01T12:41:57Z</time></trkpt><trkpt lat="44.37289700535471" lon="8.31645178204135"><ele>361.0</ele><time>2026-05-01T12:41:58Z</time></trkpt><trkpt lat="44.372788147203124" lon="8.316768795714307"><ele>361.0</ele><time>2026-05-01T12:41:59Z</time></trkpt><trkpt lat="44.37268145854476" lon="8.31707100579212"><ele>362.3333333333333</ele><time>2026-05-01T12:42:00Z</time></trkpt><trkpt lat="44.372585759665306" lon="8.317336705152098"><ele>363.6666666666667</ele><time>2026-05-01T12:42:01Z</time></trkpt><trkpt lat="44.37252341705915" lon="8.317589995125124"><ele>365.0</ele><time>2026-05-01T12:42:02Z</time></trkpt><trkpt lat="44.37250472230636" lon="8.317895531880165"><ele>366.0</ele><time>2026-05-01T12:42:03Z</time></trkpt><trkpt lat="44.37253105751864" lon="8.318214121892986"><ele>367.0</ele><time>2026-05-01T12:42:04Z</time></trkpt><trkpt lat="44.37257712001847" lon="8.318553352129843"><ele>367.0</ele><time>2026-05-01T12:42:05Z</time></trkpt><trkpt lat="44.372620700251694" lon="8.318885588148495"><ele>367.0</ele><time>2026-05-01T12:42:06Z</time></trkpt><trkpt lat="44.372655840569934" lon="8.319221177537306"><ele>366.5</ele><time>2026-05-01T12:42:07Z</time></trkpt><trkpt lat="44.3726482948501" lon="8.319538729878849"><ele>366.0</ele><time>2026-05-01T12:42:08Z</time></trkpt><trkpt lat="44.37261934189392" lon="8.31985842122992"><ele>367.5</ele><time>2026-05-01T12:42:09Z</time></trkpt><trkpt lat="44.372566934831134" lon="8.320184039044822"><ele>369.0</ele><time>2026-05-01T12:42:10Z</time></trkpt><trkpt lat="44.37252586862107" lon="8.320515126862094"><ele>373.6666666666667</ele><time>2026-05-01T12:42:11Z</time></trkpt><trkpt lat="44.37244303610348" lon="8.320800072306321"><ele>378.33333333333337</ele><time>2026-05-01T12:42:12Z</time></trkpt><trkpt lat="44.37235064904904" lon="8.321043851266479"><ele>383.0</ele><time>2026-05-01T12:42:13Z</time></trkpt><trkpt lat="44.37223646981036" lon="8.321269757216356"><ele>377.33333333333337</ele><time>2026-05-01T12:42:14Z</time></trkpt><trkpt lat="44.372101307527245" lon="8.321491842315593"><ele>371.6666666666667</ele><time>2026-05-01T12:42:15Z</time></trkpt><trkpt lat="44.371969160491524" lon="8.321737004254222"><ele>366.0</ele><time>2026-05-01T12:42:16Z</time></trkpt><trkpt lat="44.37183059474472" lon="8.321943858685795"><ele>366.0</ele><time>2026-05-01T12:42:17Z</time></trkpt><trkpt lat="44.371691286156384" lon="8.322124219785032"><ele>366.0</ele><time>2026-05-01T12:42:18Z</time></trkpt><trkpt lat="44.37153787444094" lon="8.322245133535406"><ele>366.0</ele><time>2026-05-01T12:42:19Z</time></trkpt><trkpt lat="44.37136580026833" lon="8.322315386642497"><ele>367.3333333333333</ele><time>2026-05-01T12:42:20Z</time></trkpt><trkpt lat="44.371176787658975" lon="8.322283190617187"><ele>368.66666666666663</ele><time>2026-05-01T12:42:21Z</time></trkpt><trkpt lat="44.371000796766175" lon="8.322235992079918"><ele>370.0</ele><time>2026-05-01T12:42:22Z</time></trkpt><trkpt lat="44.370839598152074" lon="8.322204172574565"><ele>367.5</ele><time>2026-05-01T12:42:23Z</time></trkpt><trkpt lat="44.37069484178537" lon="8.322154393569566"><ele>365.0</ele><time>2026-05-01T12:42:24Z</time></trkpt><trkpt lat="44.37055899085945" lon="8.322152033849902"><ele>362.5</ele><time>2026-05-01T12:42:25Z</time></trkpt><trkpt lat="44.37042212519231" lon="8.322211574366527"><ele>360.0</ele><time>2026-05-01T12:42:26Z</time></trkpt><trkpt lat="44.370294688466394" lon="8.322330306512628"><ele>360.0</ele><time>2026-05-01T12:42:27Z</time></trkpt><trkpt lat="44.37018149544416" lon="8.322493279460861"><ele>360.0</ele><time>2026-05-01T12:42:28Z</time></trkpt><trkpt lat="44.370100917517476" lon="8.322696191808907"><ele>360.0</ele><time>2026-05-01T12:42:29Z</time></trkpt><trkpt lat="44.3700414121641" lon="8.322921321420843"><ele>362.0</ele><time>2026-05-01T12:42:30Z</time></trkpt><trkpt lat="44.36999258058086" lon="8.323164305276986"><ele>364.0</ele><time>2026-05-01T12:42:31Z</time></trkpt><trkpt lat="44.369944760842344" lon="8.323407847220887"><ele>366.0</ele><time>2026-05-01T12:42:32Z</time></trkpt><trkpt lat="44.36988898839661" lon="8.323661308586042"><ele>366.6666666666667</ele><time>2026-05-01T12:42:33Z</time></trkpt><trkpt lat="44.36983016149242" lon="8.323905902058812"><ele>367.33333333333337</ele><time>2026-05-01T12:42:34Z</time></trkpt><trkpt lat="44.36975175079283" lon="8.324112883894564"><ele>368.0</ele><time>2026-05-01T12:42:35Z</time></trkpt><trkpt lat="44.369645285480146" lon="8.324284672881577"><ele>365.0</ele><time>2026-05-01T12:42:36Z</time></trkpt><trkpt lat="44.36952537663242" lon="8.32443189979803"><ele>362.0</ele><time>2026-05-01T12:42:37Z</time></trkpt><trkpt lat="44.36937822215438" lon="8.324520278129592"><ele>359.0</ele><time>2026-05-01T12:42:38Z</time></trkpt><trkpt lat="44.369220431176316" lon="8.324597901560583"><ele>359.0</ele><time>2026-05-01T12:42:39Z</time></trkpt><trkpt lat="44.36903114792459" lon="8.324642071490674"><ele>359.0</ele><time>2026-05-01T12:42:40Z</time></trkpt><trkpt lat="44.368837418841004" lon="8.324678751620992"><ele>359.0</ele><time>2026-05-01T12:42:41Z</time></trkpt><trkpt lat="44.368628645890375" lon="8.324730700705572"><ele>361.6666666666667</ele><time>2026-05-01T12:42:42Z</time></trkpt><trkpt lat="44.36842300770167" lon="8.324768592513076"><ele>364.3333333333333</ele><time>2026-05-01T12:42:43Z</time></trkpt><trkpt lat="44.36824215876136" lon="8.324802634768899"><ele>367.0</ele><time>2026-05-01T12:42:44Z</time></trkpt><trkpt lat="44.36805222697972" lon="8.324840255144832"><ele>366.66666666666663</ele><time>2026-05-01T12:42:45Z</time></trkpt><trkpt lat="44.36785973448271" lon="8.324873216604118"><ele>366.3333333333333</ele><time>2026-05-01T12:42:46Z</time></trkpt><trkpt lat="44.367668663320444" lon="8.32491117382"><ele>366.0</ele><time>2026-05-01T12:42:47Z</time></trkpt><trkpt lat="44.3675041287305" lon="8.32493445699594"><ele>366.0</ele><time>2026-05-01T12:42:48Z</time></trkpt><trkpt lat="44.36734531203951" lon="8.32496270305725"><ele>366.0</ele><time>2026-05-01T12:42:49Z</time></trkpt><trkpt lat="44.367194982873286" lon="8.324992564610914"><ele>366.0</ele><time>2026-05-01T12:42:50Z</time></trkpt><trkpt lat="44.36703546552" lon="8.32504206855856"><ele>365.0</ele><time>2026-05-01T12:42:51Z</time></trkpt><trkpt lat="44.36687351036629" lon="8.325114909137426"><ele>364.0</ele><time>2026-05-01T12:42:52Z</time></trkpt><trkpt lat="44.36671397475775" lon="8.3252105855196"><ele>363.0</ele><time>2026-05-01T12:42:53Z</time></trkpt><trkpt lat="44.36654682880964" lon="8.325315745166787"><ele>363.0</ele><time>2026-05-01T12:42:54Z</time></trkpt><trkpt lat="44.3663797976381" lon="8.32541839176064"><ele>363.0</ele><time>2026-05-01T12:42:55Z</time></trkpt><trkpt lat="44.36622153808712" lon="8.32551246731343"><ele>363.0</ele><time>2026-05-01T12:42:56Z</time></trkpt><trkpt lat="44.3660775588836" lon="8.325604649423559"><ele>364.25</ele><time>2026-05-01T12:42:57Z</time></trkpt><trkpt lat="44.36594758582761" lon="8.325686272560484"><ele>365.5</ele><time>2026-05-01T12:42:58Z</time></trkpt><trkpt lat="44.36582974723336" lon="8.32579421382652"><ele>366.75</ele><time>2026-05-01T12:42:59Z</time></trkpt><trkpt lat="44.36573337518126" lon="8.32592874164741"><ele>368.0</ele><time>2026-05-01T12:43:00Z</time></trkpt><trkpt lat="44.36565564876643" lon="8.326102545399362"><ele>368.0</ele><time>2026-05-01T12:43:01Z</time></trkpt><trkpt lat="44.36559096062992" lon="8.326312620216779"><ele>368.0</ele><time>2026-05-01T12:43:02Z</time></trkpt><trkpt lat="44.36553696239624" lon="8.32654974818089"><ele>368.0</ele><time>2026-05-01T12:43:03Z</time></trkpt><trkpt lat="44.36551439119685" lon="8.326795406029817"><ele>366.33333333333337</ele><time>2026-05-01T12:43:04Z</time></trkpt><trkpt lat="44.365525260948075" lon="8.327051454170642"><ele>364.6666666666667</ele><time>2026-05-01T12:43:05Z</time></trkpt><trkpt lat="44.36557113886585" lon="8.327312916024466"><ele>363.0</ele><time>2026-05-01T12:43:06Z</time></trkpt><trkpt lat="44.36565215474042" lon="8.327587200365658"><ele>367.6666666666667</ele><time>2026-05-01T12:43:07Z</time></trkpt><trkpt lat="44.36573874821239" lon="8.327848866603658"><ele>372.33333333333337</ele><time>2026-05-01T12:43:08Z</time></trkpt><trkpt lat="44.36581265263369" lon="8.328115722814326"><ele>377.0</ele><time>2026-05-01T12:43:09Z</time></trkpt><trkpt lat="44.36587857209242" lon="8.328382890422619"><ele>377.0</ele><time>2026-05-01T12:43:10Z</time></trkpt><trkpt lat="44.36593809552935" lon="8.32863909804903"><ele>377.0</ele><time>2026-05-01T12:43:11Z</time></trkpt><trkpt lat="44.36599482476509" lon="8.328872875986622"><ele>377.0</ele><time>2026-05-01T12:43:12Z</time></trkpt><trkpt lat="44.36604608051208" lon="8.329086269916836"><ele>376.33333333333337</ele><time>2026-05-01T12:43:13Z</time></trkpt><trkpt lat="44.36608860823933" lon="8.329299851919567"><ele>375.6666666666667</ele><time>2026-05-01T12:43:14Z</time></trkpt><trkpt lat="44.36608414931872" lon="8.329542473036257"><ele>375.0</ele><time>2026-05-01T12:43:15Z</time></trkpt><trkpt lat="44.36607653285959" lon="8.329807661504097"><ele>375.0</ele><time>2026-05-01T12:43:16Z</time></trkpt><trkpt lat="44.366075161313496" lon="8.330087035149857"><ele>375.0</ele><time>2026-05-01T12:43:17Z</time></trkpt><trkpt lat="44.366053976545" lon="8.330375008092194"><ele>375.0</ele><time>2026-05-01T12:43:18Z</time></trkpt><trkpt lat="44.36601936338179" lon="8.330665331944141"><ele>376.0</ele><time>2026-05-01T12:43:19Z</time></trkpt><trkpt lat="44.36600817749991" lon="8.33100144540566"><ele>377.0</ele><time>2026-05-01T12:43:20Z</time></trkpt><trkpt lat="44.36600102404284" lon="8.331323421753572"><ele>378.0</ele><time>2026-05-01T12:43:21Z</time></trkpt><trkpt lat="44.36600862842638" lon="8.331606902119985"><ele>379.0</ele><time>2026-05-01T12:43:22Z</time></trkpt><trkpt lat="44.36602033188523" lon="8.33186024129765"><ele>380.0</ele><time>2026-05-01T12:43:23Z</time></trkpt><trkpt lat="44.36602529274506" lon="8.332110637271535"><ele>381.33333333333337</ele><time>2026-05-01T12:43:24Z</time></trkpt><trkpt lat="44.366009372111236" lon="8.332365606510761"><ele>382.6666666666667</ele><time>2026-05-01T12:43:25Z</time></trkpt><trkpt lat="44.36602018495321" lon="8.33263387011239"><ele>384.0</ele><time>2026-05-01T12:43:26Z</time></trkpt><trkpt lat="44.365999085496085" lon="8.332903340524174"><ele>385.0</ele><time>2026-05-01T12:43:27Z</time></trkpt><trkpt lat="44.36599692746442" lon="8.333173119054473"><ele>386.0</ele><time>2026-05-01T12:43:28Z</time></trkpt><trkpt lat="44.365989149433275" lon="8.333453689793743"><ele>387.0</ele><time>2026-05-01T12:43:29Z</time></trkpt><trkpt lat="44.36595938706129" lon="8.333733480696893"><ele>387.33333333333337</ele><time>2026-05-01T12:43:30Z</time></trkpt><trkpt lat="44.36596194764868" lon="8.334019453169969"><ele>387.6666666666667</ele><time>2026-05-01T12:43:31Z</time></trkpt><trkpt lat="44.36594061192065" lon="8.334314228546376"><ele>388.0</ele><time>2026-05-01T12:43:32Z</time></trkpt><trkpt lat="44.36592751080846" lon="8.33463058057616"><ele>388.6666666666667</ele><time>2026-05-01T12:43:33Z</time></trkpt><trkpt lat="44.36592091434605" lon="8.334959223811477"><ele>389.33333333333337</ele><time>2026-05-01T12:43:34Z</time></trkpt><trkpt lat="44.36590089121366" lon="8.335243952963316"><ele>390.0</ele><time>2026-05-01T12:43:35Z</time></trkpt><trkpt lat="44.36588162528676" lon="8.335499699354283"><ele>389.66666666666663</ele><time>2026-05-01T12:43:36Z</time></trkpt><trkpt lat="44.365854029371114" lon="8.335734208547164"><ele>389.3333333333333</ele><time>2026-05-01T12:43:37Z</time></trkpt><trkpt lat="44.36578696854043" lon="8.335959415705831"><ele>389.0</ele><time>2026-05-01T12:43:38Z</time></trkpt><trkpt lat="44.36569174711846" lon="8.33618648826205"><ele>389.66666666666663</ele><time>2026-05-01T12:43:39Z</time></trkpt><trkpt lat="44.36554836464062" lon="8.336395049307706"><ele>390.33333333333337</ele><time>2026-05-01T12:43:40Z</time></trkpt><trkpt lat="44.365397411387136" lon="8.336592908683484"><ele>391.0</ele><time>2026-05-01T12:43:41Z</time></trkpt><trkpt lat="44.36521556560993" lon="8.336746234014976"><ele>389.0</ele><time>2026-05-01T12:43:42Z</time></trkpt><trkpt lat="44.365018341278045" lon="8.33688840002105"><ele>387.0</ele><time>2026-05-01T12:43:43Z</time></trkpt><trkpt lat="44.36482430235636" lon="8.337041840524806"><ele>385.0</ele><time>2026-05-01T12:43:44Z</time></trkpt><trkpt lat="44.36463152526814" lon="8.337174368374315"><ele>386.0</ele><time>2026-05-01T12:43:45Z</time></trkpt><trkpt lat="44.36444274508619" lon="8.337312258546955"><ele>387.0</ele><time>2026-05-01T12:43:46Z</time></trkpt><trkpt lat="44.36427378912676" lon="8.337429860628184"><ele>388.0</ele><time>2026-05-01T12:43:47Z</time></trkpt><trkpt lat="44.36411594896589" lon="8.33753807495473"><ele>388.0</ele><time>2026-05-01T12:43:48Z</time></trkpt><trkpt lat="44.36399274549962" lon="8.33765200003806"><ele>388.0</ele><time>2026-05-01T12:43:49Z</time></trkpt><trkpt lat="44.36391711647278" lon="8.337806461397058"><ele>388.0</ele><time>2026-05-01T12:43:50Z</time></trkpt><trkpt lat="44.36389223150118" lon="8.338027721196848"><ele>388.0</ele><time>2026-05-01T12:43:51Z</time></trkpt><trkpt lat="44.36389796483526" lon="8.338285682165534"><ele>387.6666666666667</ele><time>2026-05-01T12:43:52Z</time></trkpt><trkpt lat="44.36392156727402" lon="8.338566164553304"><ele>387.33333333333337</ele><time>2026-05-01T12:43:53Z</time></trkpt><trkpt lat="44.363938740747265" lon="8.338863129444604"><ele>387.0</ele><time>2026-05-01T12:43:54Z</time></trkpt><trkpt lat="44.36394636891479" lon="8.33918320776792"><ele>387.0</ele><time>2026-05-01T12:43:55Z</time></trkpt><trkpt lat="44.363951643261274" lon="8.33949375975109"><ele>387.0</ele><time>2026-05-01T12:43:56Z</time></trkpt><trkpt lat="44.36395911036736" lon="8.339793680519898"><ele>387.0</ele><time>2026-05-01T12:43:57Z</time></trkpt><trkpt lat="44.3639705328657" lon="8.340102417269526"><ele>388.66666666666663</ele><time>2026-05-01T12:43:58Z</time></trkpt><trkpt lat="44.36398561555821" lon="8.340404864581414"><ele>390.3333333333333</ele><time>2026-05-01T12:43:59Z</time></trkpt><trkpt lat="44.36401345958413" lon="8.340719933120424"><ele>392.0</ele><time>2026-05-01T12:44:00Z</time></trkpt><trkpt lat="44.36406545035257" lon="8.341032612139152"><ele>394.66666666666663</ele><time>2026-05-01T12:44:01Z</time></trkpt><trkpt lat="44.36413969391609" lon="8.34132835513015"><ele>397.33333333333337</ele><time>2026-05-01T12:44:02Z</time></trkpt><trkpt lat="44.364209350685854" lon="8.341593591536743"><ele>400.0</ele><time>2026-05-01T12:44:03Z</time></trkpt><trkpt lat="44.36421082371587" lon="8.341878323150217"><ele>402.5</ele><time>2026-05-01T12:44:04Z</time></trkpt><trkpt lat="44.364205576917115" lon="8.342182393041329"><ele>405.0</ele><time>2026-05-01T12:44:05Z</time></trkpt><trkpt lat="44.364208634071154" lon="8.342520177909883"><ele>405.0</ele><time>2026-05-01T12:44:06Z</time></trkpt><trkpt lat="44.364185674610184" lon="8.342846826037203"><ele>405.0</ele><time>2026-05-01T12:44:07Z</time></trkpt><trkpt lat="44.36416812774379" lon="8.343172719117804"><ele>405.0</ele><time>2026-05-01T12:44:08Z</time></trkpt><trkpt lat="44.36415380915206" lon="8.343485775336582"><ele>405.0</ele><time>2026-05-01T12:44:09Z</time></trkpt><trkpt lat="44.36411595833592" lon="8.34374876485391"><ele>405.0</ele><time>2026-05-01T12:44:10Z</time></trkpt><trkpt lat="44.364063560808766" lon="8.343967611356724"><ele>405.33333333333337</ele><time>2026-05-01T12:44:11Z</time></trkpt><trkpt lat="44.363989250025966" lon="8.344143951589563"><ele>405.6666666666667</ele><time>2026-05-01T12:44:12Z</time></trkpt><trkpt lat="44.36385195092792" lon="8.344297382318862"><ele>406.0</ele><time>2026-05-01T12:44:13Z</time></trkpt><trkpt lat="44.36368069865031" lon="8.344429821085109"><ele>409.33333333333337</ele><time>2026-05-01T12:44:14Z</time></trkpt><trkpt lat="44.36353807089694" lon="8.344555454721615"><ele>412.66666666666663</ele><time>2026-05-01T12:44:15Z</time></trkpt><trkpt lat="44.363355839753346" lon="8.344718540450748"><ele>416.0</ele><time>2026-05-01T12:44:16Z</time></trkpt><trkpt lat="44.36317373982733" lon="8.344930046563281"><ele>421.0</ele><time>2026-05-01T12:44:17Z</time></trkpt><trkpt lat="44.362997893917615" lon="8.345131413939997"><ele>426.0</ele><time>2026-05-01T12:44:18Z</time></trkpt><trkpt lat="44.362847775525815" lon="8.345381852492453"><ele>423.5</ele><time>2026-05-01T12:44:19Z</time></trkpt><trkpt lat="44.36271027609186" lon="8.34566056680584"><ele>421.0</ele><time>2026-05-01T12:44:20Z</time></trkpt><trkpt lat="44.3625788573875" lon="8.345950191"><ele>421.0</ele><time>2026-05-01T12:44:21Z</time></trkpt><trkpt lat="44.36243582703554" lon="8.346228272189906"><ele>421.0</ele><time>2026-05-01T12:44:22Z</time></trkpt><trkpt lat="44.362276391575755" lon="8.346492156587022"><ele>424.5</ele><time>2026-05-01T12:44:23Z</time></trkpt><trkpt lat="44.36210032128429" lon="8.34672901197396"><ele>428.0</ele><time>2026-05-01T12:44:24Z</time></trkpt><trkpt lat="44.36192380750871" lon="8.34696179302228"><ele>428.0</ele><time>2026-05-01T12:44:25Z</time></trkpt><trkpt lat="44.36175085278623" lon="8.34718895565112"><ele>428.0</ele><time>2026-05-01T12:44:26Z</time></trkpt><trkpt lat="44.36160597336728" lon="8.34740726938013"><ele>430.3333333333333</ele><time>2026-05-01T12:44:27Z</time></trkpt><trkpt lat="44.361458233926406" lon="8.347595406202677"><ele>432.66666666666663</ele><time>2026-05-01T12:44:28Z</time></trkpt><trkpt lat="44.36131237843362" lon="8.347788635108094"><ele>435.0</ele><time>2026-05-01T12:44:29Z</time></trkpt><trkpt lat="44.36116036889265" lon="8.347982924659572"><ele>436.0</ele><time>2026-05-01T12:44:30Z</time></trkpt><trkpt lat="44.36100364492445" lon="8.34818099548453"><ele>437.0</ele><time>2026-05-01T12:44:31Z</time></trkpt><trkpt lat="44.36083757196346" lon="8.348390881671175"><ele>438.0</ele><time>2026-05-01T12:44:32Z</time></trkpt><trkpt lat="44.360676453075286" lon="8.348599605803946"><ele>438.0</ele><time>2026-05-01T12:44:33Z</time></trkpt><trkpt lat="44.36053326377687" lon="8.348778788369488"><ele>438.0</ele><time>2026-05-01T12:44:34Z</time></trkpt><trkpt lat="44.360385153047076" lon="8.348951450708459"><ele>438.0</ele><time>2026-05-01T12:44:35Z</time></trkpt><trkpt lat="44.36021564543488" lon="8.349057418596477"><ele>441.0</ele><time>2026-05-01T12:44:36Z</time></trkpt><trkpt lat="44.36004636847512" lon="8.349163526662473"><ele>444.0</ele><time>2026-05-01T12:44:37Z</time></trkpt><trkpt lat="44.35987194702052" lon="8.349260713184819"><ele>447.0</ele><time>2026-05-01T12:44:38Z</time></trkpt><trkpt lat="44.359696014295956" lon="8.349353486073568"><ele>449.0</ele><time>2026-05-01T12:44:39Z</time></trkpt><trkpt lat="44.35952358415155" lon="8.349457465621557"><ele>451.0</ele><time>2026-05-01T12:44:40Z</time></trkpt><trkpt lat="44.35934497445874" lon="8.349548645663933"><ele>453.0</ele><time>2026-05-01T12:44:41Z</time></trkpt><trkpt lat="44.3591620324826" lon="8.349645537982228"><ele>454.33333333333337</ele><time>2026-05-01T12:44:42Z</time></trkpt><trkpt lat="44.358992271780274" lon="8.349739080489831"><ele>455.6666666666667</ele><time>2026-05-01T12:44:43Z</time></trkpt><trkpt lat="44.35883578726332" lon="8.3498277475727"><ele>457.0</ele><time>2026-05-01T12:44:44Z</time></trkpt><trkpt lat="44.358678665660534" lon="8.349923028198152"><ele>457.0</ele><time>2026-05-01T12:44:45Z</time></trkpt><trkpt lat="44.358523017533" lon="8.350002027100649"><ele>457.00000000000006</ele><time>2026-05-01T12:44:46Z</time></trkpt><trkpt lat="44.358412274215596" lon="8.350079953321305"><ele>457.00000000000006</ele><time>2026-05-01T12:44:47Z</time></trkpt><trkpt lat="44.358345507347515" lon="8.35010741529686"><ele>457.0</ele><time>2026-05-01T12:44:48Z</time></trkpt><trkpt lat="44.358264198551815" lon="8.350104105165938"><ele>457.0</ele><time>2026-05-01T12:44:50Z</time></trkpt><trkpt lat="44.35818437633794" lon="8.35006071421614"><ele>457.0</ele><time>2026-05-01T12:44:52Z</time></trkpt><trkpt lat="44.3581103899266" lon="8.350007476835842"><ele>457.00000000000006</ele><time>2026-05-01T12:44:54Z</time></trkpt><trkpt lat="44.35804171849608" lon="8.349867978740404"><ele>457.00000000000006</ele><time>2026-05-01T12:44:56Z</time></trkpt><trkpt lat="44.35800209377534" lon="8.349767477427877"><ele>457.0</ele><time>2026-05-01T12:44:57Z</time></trkpt><trkpt lat="44.35795329208658" lon="8.349658202611007"><ele>457.0</ele><time>2026-05-01T12:44:58Z</time></trkpt><trkpt lat="44.357903316280584" lon="8.349543119525965"><ele>457.75</ele><time>2026-05-01T12:44:59Z</time></trkpt><trkpt lat="44.35785349358985" lon="8.34940977621762"><ele>458.5</ele><time>2026-05-01T12:45:00Z</time></trkpt><trkpt lat="44.35779619536779" lon="8.349272497425787"><ele>459.25</ele><time>2026-05-01T12:45:01Z</time></trkpt><trkpt lat="44.35771540261872" lon="8.349125131178035"><ele>460.0</ele><time>2026-05-01T12:45:02Z</time></trkpt><trkpt lat="44.357611098338616" lon="8.348972023170543"><ele>463.0</ele><time>2026-05-01T12:45:03Z</time></trkpt><trkpt lat="44.35748322452717" lon="8.348826164291914"><ele>466.0</ele><time>2026-05-01T12:45:04Z</time></trkpt><trkpt lat="44.35733846773342" lon="8.348689971815459"><ele>469.0</ele><time>2026-05-01T12:45:05Z</time></trkpt><trkpt lat="44.357179011424954" lon="8.34856666808857"><ele>469.75</ele><time>2026-05-01T12:45:06Z</time></trkpt><trkpt lat="44.35703990541221" lon="8.348491871552614"><ele>470.5</ele><time>2026-05-01T12:45:07Z</time></trkpt><trkpt lat="44.35690374527767" lon="8.348459868145122"><ele>471.25</ele><time>2026-05-01T12:45:08Z</time></trkpt><trkpt lat="44.35677324450859" lon="8.34846053807828"><ele>472.0</ele><time>2026-05-01T12:45:09Z</time></trkpt><trkpt lat="44.356667321253475" lon="8.348472410494912"><ele>472.00000000000006</ele><time>2026-05-01T12:45:10Z</time></trkpt><trkpt lat="44.356575663255484" lon="8.348452035252592"><ele>472.0</ele><time>2026-05-01T12:45:11Z</time></trkpt><trkpt lat="44.35650469783409" lon="8.348425071652397"><ele>472.0</ele><time>2026-05-01T12:45:12Z</time></trkpt><trkpt lat="44.35641984437792" lon="8.348333991442647"><ele>472.0</ele><time>2026-05-01T12:45:14Z</time></trkpt><trkpt lat="44.35634791938467" lon="8.348264969608897"><ele>472.00000000000006</ele><time>2026-05-01T12:45:15Z</time></trkpt><trkpt lat="44.35627924151453" lon="8.348186438796896"><ele>472.0</ele><time>2026-05-01T12:45:16Z</time></trkpt><trkpt lat="44.35621934771543" lon="8.3481039295176"><ele>471.33333333333337</ele><time>2026-05-01T12:45:17Z</time></trkpt><trkpt lat="44.3561586448387" lon="8.348031414522023"><ele>470.6666666666667</ele><time>2026-05-01T12:45:18Z</time></trkpt><trkpt lat="44.35609797393279" lon="8.347963043263988"><ele>470.0</ele><time>2026-05-01T12:45:19Z</time></trkpt><trkpt lat="44.356049140765805" lon="8.347878999085918"><ele>469.33333333333337</ele><time>2026-05-01T12:45:20Z</time></trkpt><trkpt lat="44.35601283606617" lon="8.347775348893475"><ele>468.6666666666667</ele><time>2026-05-01T12:45:21Z</time></trkpt><trkpt lat="44.35598805232481" lon="8.34761611497779"><ele>468.0</ele><time>2026-05-01T12:45:22Z</time></trkpt><trkpt lat="44.35593372247264" lon="8.347433583070098"><ele>468.0</ele><time>2026-05-01T12:45:23Z</time></trkpt><trkpt lat="44.355840219727106" lon="8.347257580984945"><ele>468.0</ele><time>2026-05-01T12:45:24Z</time></trkpt><trkpt lat="44.35573854929268" lon="8.34708059565166"><ele>468.0</ele><time>2026-05-01T12:45:25Z</time></trkpt><trkpt lat="44.35563453180445" lon="8.346912882052667"><ele>468.5</ele><time>2026-05-01T12:45:26Z</time></trkpt><trkpt lat="44.35557198296734" lon="8.346784730978293"><ele>469.0</ele><time>2026-05-01T12:45:27Z</time></trkpt><trkpt lat="44.355533406920046" lon="8.346638670953867"><ele>469.5</ele><time>2026-05-01T12:45:28Z</time></trkpt><trkpt lat="44.35549529291593" lon="8.346476136357602"><ele>470.0</ele><time>2026-05-01T12:45:29Z</time></trkpt><trkpt lat="44.355457917661084" lon="8.346287453785882"><ele>467.25</ele><time>2026-05-01T12:45:30Z</time></trkpt><trkpt lat="44.35542947574549" lon="8.346100306046383"><ele>464.5</ele><time>2026-05-01T12:45:31Z</time></trkpt><trkpt lat="44.35537255354928" lon="8.345935456484032"><ele>461.75</ele><time>2026-05-01T12:45:32Z</time></trkpt><trkpt lat="44.35526822364716" lon="8.345837109925483"><ele>459.0</ele><time>2026-05-01T12:45:33Z</time></trkpt><trkpt lat="44.35513867320676" lon="8.345806463429003"><ele>459.0</ele><time>2026-05-01T12:45:34Z</time></trkpt><trkpt lat="44.35499940842572" lon="8.34582059728924"><ele>459.0</ele><time>2026-05-01T12:45:35Z</time></trkpt><trkpt lat="44.3548546144155" lon="8.345833641334314"><ele>459.0</ele><time>2026-05-01T12:45:36Z</time></trkpt><trkpt lat="44.35470706140288" lon="8.345766407209629"><ele>459.0</ele><time>2026-05-01T12:45:37Z</time></trkpt><trkpt lat="44.354567670891704" lon="8.345647366359733"><ele>457.0</ele><time>2026-05-01T12:45:38Z</time></trkpt><trkpt lat="44.35439165128212" lon="8.345513594158847"><ele>455.0</ele><time>2026-05-01T12:45:39Z</time></trkpt><trkpt lat="44.3542199470154" lon="8.345403119828045"><ele>453.0</ele><time>2026-05-01T12:45:40Z</time></trkpt><trkpt lat="44.35404842108741" lon="8.345296439278265"><ele>453.0</ele><time>2026-05-01T12:45:41Z</time></trkpt><trkpt lat="44.3539074094712" lon="8.345190217727215"><ele>453.0</ele><time>2026-05-01T12:45:42Z</time></trkpt><trkpt lat="44.35379086976727" lon="8.345085904226698"><ele>453.0</ele><time>2026-05-01T12:45:43Z</time></trkpt><trkpt lat="44.35369124283711" lon="8.344947694349358"><ele>453.0</ele><time>2026-05-01T12:45:44Z</time></trkpt><trkpt lat="44.35356738757661" lon="8.344786302755816"><ele>451.0</ele><time>2026-05-01T12:45:45Z</time></trkpt><trkpt lat="44.35342809855247" lon="8.344627003298811"><ele>449.0</ele><time>2026-05-01T12:45:46Z</time></trkpt><trkpt lat="44.35326300811088" lon="8.344505555840502"><ele>447.0</ele><time>2026-05-01T12:45:47Z</time></trkpt><trkpt lat="44.35310918794168" lon="8.344416646687488"><ele>447.0</ele><time>2026-05-01T12:45:48Z</time></trkpt><trkpt lat="44.35297687635435" lon="8.344320116645358"><ele>447.0</ele><time>2026-05-01T12:45:49Z</time></trkpt><trkpt lat="44.352884642828094" lon="8.344152467308257"><ele>447.0</ele><time>2026-05-01T12:45:50Z</time></trkpt><trkpt lat="44.35280979622749" lon="8.343974089935456"><ele>447.0</ele><time>2026-05-01T12:45:51Z</time></trkpt><trkpt lat="44.35272737769707" lon="8.343787506556042"><ele>447.0</ele><time>2026-05-01T12:45:52Z</time></trkpt><trkpt lat="44.35261906162249" lon="8.34362691106273"><ele>447.0</ele><time>2026-05-01T12:45:53Z</time></trkpt><trkpt lat="44.35252949460241" lon="8.343500055019142"><ele>447.0</ele><time>2026-05-01T12:45:54Z</time></trkpt><trkpt lat="44.352415698979854" lon="8.34344720130315"><ele>447.0</ele><time>2026-05-01T12:45:55Z</time></trkpt><trkpt lat="44.35229679236307" lon="8.343448397555395"><ele>450.25</ele><time>2026-05-01T12:45:56Z</time></trkpt><trkpt lat="44.35216711845991" lon="8.343489086961329"><ele>453.5</ele><time>2026-05-01T12:45:57Z</time></trkpt><trkpt lat="44.35202748662981" lon="8.343556903837438"><ele>456.75</ele><time>2026-05-01T12:45:58Z</time></trkpt><trkpt lat="44.351881664577895" lon="8.34363045948643"><ele>460.0</ele><time>2026-05-01T12:45:59Z</time></trkpt><trkpt lat="44.35172266095954" lon="8.34363582350915"><ele>460.0</ele><time>2026-05-01T12:46:00Z</time></trkpt><trkpt lat="44.35155996282071" lon="8.343578693036331"><ele>460.0</ele><time>2026-05-01T12:46:01Z</time></trkpt><trkpt lat="44.35138124553762" lon="8.343512998115106"><ele>460.0</ele><time>2026-05-01T12:46:02Z</time></trkpt><trkpt lat="44.35122848774217" lon="8.343471349943039"><ele>461.33333333333337</ele><time>2026-05-01T12:46:03Z</time></trkpt><trkpt lat="44.351085230089865" lon="8.343472218046411"><ele>462.66666666666663</ele><time>2026-05-01T12:46:04Z</time></trkpt><trkpt lat="44.35092323837413" lon="8.343536539665726"><ele>464.0</ele><time>2026-05-01T12:46:05Z</time></trkpt><trkpt lat="44.350737026624365" lon="8.343572990020911"><ele>464.0</ele><time>2026-05-01T12:46:06Z</time></trkpt><trkpt lat="44.35054914507865" lon="8.343587984394754"><ele>464.0</ele><time>2026-05-01T12:46:07Z</time></trkpt><trkpt lat="44.350394336036885" lon="8.343621554307132"><ele>464.0</ele><time>2026-05-01T12:46:08Z</time></trkpt><trkpt lat="44.3502684293741" lon="8.343610993989765"><ele>464.5</ele><time>2026-05-01T12:46:09Z</time></trkpt><trkpt lat="44.35018268266421" lon="8.34358126463277"><ele>465.0</ele><time>2026-05-01T12:46:10Z</time></trkpt><trkpt lat="44.350110427500915" lon="8.343500865092984"><ele>465.5</ele><time>2026-05-01T12:46:11Z</time></trkpt><trkpt lat="44.34998787024307" lon="8.343416449619152"><ele>466.0</ele><time>2026-05-01T12:46:12Z</time></trkpt><trkpt lat="44.349846337264346" lon="8.343337386286146"><ele>467.33333333333337</ele><time>2026-05-01T12:46:13Z</time></trkpt><trkpt lat="44.34968230798796" lon="8.343341530841252"><ele>468.66666666666663</ele><time>2026-05-01T12:46:14Z</time></trkpt><trkpt lat="44.34951354801393" lon="8.343378705437004"><ele>470.0</ele><time>2026-05-01T12:46:15Z</time></trkpt><trkpt lat="44.349339473028365" lon="8.343440507329115"><ele>470.0</ele><time>2026-05-01T12:46:16Z</time></trkpt><trkpt lat="44.34919698147616" lon="8.343552517004353"><ele>470.0</ele><time>2026-05-01T12:46:17Z</time></trkpt><trkpt lat="44.34905139143838" lon="8.343728237078421"><ele>470.0</ele><time>2026-05-01T12:46:18Z</time></trkpt><trkpt lat="44.348905057859845" lon="8.343896031372653"><ele>469.5</ele><time>2026-05-01T12:46:19Z</time></trkpt><trkpt lat="44.348783493210256" lon="8.344031469457867"><ele>469.0</ele><time>2026-05-01T12:46:20Z</time></trkpt><trkpt lat="44.34868960832843" lon="8.344156505031293"><ele>468.5</ele><time>2026-05-01T12:46:21Z</time></trkpt><trkpt lat="44.348629137951185" lon="8.34429278479824"><ele>468.0</ele><time>2026-05-01T12:46:22Z</time></trkpt><trkpt lat="44.348621476922396" lon="8.344465364441238"><ele>468.0</ele><time>2026-05-01T12:46:23Z</time></trkpt><trkpt lat="44.34862749339755" lon="8.344628838204253"><ele>467.99999999999994</ele><time>2026-05-01T12:46:24Z</time></trkpt><trkpt lat="44.34861382143547" lon="8.34475638008409"><ele>467.99999999999994</ele><time>2026-05-01T12:46:25Z</time></trkpt><trkpt lat="44.348558435175555" lon="8.34482413625491"><ele>468.0</ele><time>2026-05-01T12:46:26Z</time></trkpt><trkpt lat="44.34847627588549" lon="8.344831011252609"><ele>468.0</ele><time>2026-05-01T12:46:27Z</time></trkpt><trkpt lat="44.34836962565037" lon="8.344760574310104"><ele>467.75</ele><time>2026-05-01T12:46:28Z</time></trkpt><trkpt lat="44.34823635968659" lon="8.344752480508284"><ele>467.5</ele><time>2026-05-01T12:46:29Z</time></trkpt><trkpt lat="44.34810263526454" lon="8.344747021789933"><ele>467.25</ele><time>2026-05-01T12:46:30Z</time></trkpt><trkpt lat="44.34795468072021" lon="8.344832582677974"><ele>467.0</ele><time>2026-05-01T12:46:31Z</time></trkpt><trkpt lat="44.34782394618895" lon="8.344987140227122"><ele>467.0</ele><time>2026-05-01T12:46:32Z</time></trkpt><trkpt lat="44.347717168997164" lon="8.345084118531155"><ele>467.0</ele><time>2026-05-01T12:46:33Z</time></trkpt><trkpt lat="44.34760560087055" lon="8.345177849774078"><ele>467.0</ele><time>2026-05-01T12:46:34Z</time></trkpt><trkpt lat="44.34752247496134" lon="8.345292098817984"><ele>467.0</ele><time>2026-05-01T12:46:35Z</time></trkpt><trkpt lat="44.34748812795991" lon="8.34545732629273"><ele>466.0</ele><time>2026-05-01T12:46:36Z</time></trkpt><trkpt lat="44.34748644270143" lon="8.345663717754142"><ele>465.00000000000006</ele><time>2026-05-01T12:46:37Z</time></trkpt><trkpt lat="44.34747590359151" lon="8.345838513280249"><ele>464.00000000000006</ele><time>2026-05-01T12:46:38Z</time></trkpt><trkpt lat="44.34742705570071" lon="8.345936160597084"><ele>463.0</ele><time>2026-05-01T12:46:39Z</time></trkpt><trkpt lat="44.347364166075764" lon="8.345960771354372"><ele>462.0</ele><time>2026-05-01T12:46:40Z</time></trkpt><trkpt lat="44.3472909637018" lon="8.34591603733047"><ele>462.0</ele><time>2026-05-01T12:46:41Z</time></trkpt><trkpt lat="44.347213786347965" lon="8.345801875968576"><ele>462.0</ele><time>2026-05-01T12:46:42Z</time></trkpt><trkpt lat="44.34709312281779" lon="8.3457211829205"><ele>462.0</ele><time>2026-05-01T12:46:43Z</time></trkpt><trkpt lat="44.34696485198661" lon="8.345687118855167"><ele>462.0</ele><time>2026-05-01T12:46:44Z</time></trkpt><trkpt lat="44.34682004963596" lon="8.345734440695297"><ele>460.5</ele><time>2026-05-01T12:46:45Z</time></trkpt><trkpt lat="44.346669175883875" lon="8.345825188820086"><ele>459.0</ele><time>2026-05-01T12:46:46Z</time></trkpt><trkpt lat="44.34654609221686" lon="8.34591293799843"><ele>457.5</ele><time>2026-05-01T12:46:47Z</time></trkpt><trkpt lat="44.34646744672687" lon="8.346018303304383"><ele>456.0</ele><time>2026-05-01T12:46:48Z</time></trkpt><trkpt lat="44.346418287727204" lon="8.346178184978134"><ele>455.75</ele><time>2026-05-01T12:46:49Z</time></trkpt><trkpt lat="44.346352167902914" lon="8.34634182376491"><ele>455.5</ele><time>2026-05-01T12:46:50Z</time></trkpt><trkpt lat="44.346290886930525" lon="8.346459318924614"><ele>455.25</ele><time>2026-05-01T12:46:51Z</time></trkpt><trkpt lat="44.346186717628505" lon="8.34649180830073"><ele>455.0</ele><time>2026-05-01T12:46:52Z</time></trkpt><trkpt lat="44.346079743451966" lon="8.346472512846713"><ele>453.25</ele><time>2026-05-01T12:46:53Z</time></trkpt><trkpt lat="44.34595473029207" lon="8.346411122723646"><ele>451.5</ele><time>2026-05-01T12:46:54Z</time></trkpt><trkpt lat="44.34581883599136" lon="8.346415979130294"><ele>449.75</ele><time>2026-05-01T12:46:55Z</time></trkpt><trkpt lat="44.34567386131824" lon="8.346467473656995"><ele>448.0</ele><time>2026-05-01T12:46:56Z</time></trkpt><trkpt lat="44.34550495429323" lon="8.346569895601032"><ele>446.6666666666667</ele><time>2026-05-01T12:46:57Z</time></trkpt><trkpt lat="44.345333423854974" lon="8.34666312753107"><ele>445.33333333333337</ele><time>2026-05-01T12:46:58Z</time></trkpt><trkpt lat="44.34515985300878" lon="8.346731897404634"><ele>444.0</ele><time>2026-05-01T12:46:59Z</time></trkpt><trkpt lat="44.344922494611176" lon="8.346779472520833"><ele>441.0</ele><time>2026-05-01T12:47:00Z</time></trkpt><trkpt lat="44.344687950544696" lon="8.346744765865175"><ele>438.0</ele><time>2026-05-01T12:47:01Z</time></trkpt><trkpt lat="44.34444023150916" lon="8.346728070289046"><ele>438.0</ele><time>2026-05-01T12:47:02Z</time></trkpt><trkpt lat="44.344187939387105" lon="8.346714157878528"><ele>438.0</ele><time>2026-05-01T12:47:03Z</time></trkpt><trkpt lat="44.34392756530767" lon="8.346696387400664"><ele>438.5</ele><time>2026-05-01T12:47:04Z</time></trkpt><trkpt lat="44.34366374848513" lon="8.346687172436763"><ele>439.0</ele><time>2026-05-01T12:47:05Z</time></trkpt><trkpt lat="44.343402209681855" lon="8.346603530086915"><ele>439.0</ele><time>2026-05-01T12:47:06Z</time></trkpt><trkpt lat="44.343122522826754" lon="8.346506912428547"><ele>439.0</ele><time>2026-05-01T12:47:07Z</time></trkpt><trkpt lat="44.342836763197475" lon="8.346403569802087"><ele>435.5</ele><time>2026-05-01T12:47:08Z</time></trkpt><trkpt lat="44.3425668883449" lon="8.346321780477284"><ele>432.0</ele><time>2026-05-01T12:47:09Z</time></trkpt><trkpt lat="44.34231871055186" lon="8.346229723428277"><ele>429.0</ele><time>2026-05-01T12:47:10Z</time></trkpt><trkpt lat="44.34207017766031" lon="8.346170197041772"><ele>426.0</ele><time>2026-05-01T12:47:11Z</time></trkpt><trkpt lat="44.34181995216593" lon="8.346143908079814"><ele>426.0</ele><time>2026-05-01T12:47:12Z</time></trkpt><trkpt lat="44.34157810514283" lon="8.346135225443994"><ele>426.0</ele><time>2026-05-01T12:47:13Z</time></trkpt><trkpt lat="44.34135254922941" lon="8.346146071393495"><ele>427.5</ele><time>2026-05-01T12:47:14Z</time></trkpt><trkpt lat="44.34111764435262" lon="8.346153772672407"><ele>429.0</ele><time>2026-05-01T12:47:15Z</time></trkpt><trkpt lat="44.34086813121627" lon="8.346129278308199"><ele>429.0</ele><time>2026-05-01T12:47:16Z</time></trkpt><trkpt lat="44.34060849853676" lon="8.346100629691936"><ele>429.0</ele><time>2026-05-01T12:47:17Z</time></trkpt><trkpt lat="44.34033635767428" lon="8.34607641587072"><ele>428.0</ele><time>2026-05-01T12:47:18Z</time></trkpt><trkpt lat="44.34008093853393" lon="8.34605154728328"><ele>427.0</ele><time>2026-05-01T12:47:19Z</time></trkpt><trkpt lat="44.339849040794384" lon="8.346017936022609"><ele>424.0</ele><time>2026-05-01T12:47:20Z</time></trkpt><trkpt lat="44.33966073767932" lon="8.345976056349123"><ele>421.0</ele><time>2026-05-01T12:47:21Z</time></trkpt><trkpt lat="44.33951706963171" lon="8.345879725133859"><ele>418.0</ele><time>2026-05-01T12:47:22Z</time></trkpt><trkpt lat="44.339395438887095" lon="8.345757826747715"><ele>418.0</ele><time>2026-05-01T12:47:23Z</time></trkpt><trkpt lat="44.33926992596567" lon="8.345589684755899"><ele>418.0</ele><time>2026-05-01T12:47:24Z</time></trkpt><trkpt lat="44.339155789981824" lon="8.345383213289733"><ele>418.0</ele><time>2026-05-01T12:47:25Z</time></trkpt><trkpt lat="44.339039064845096" lon="8.345156607188942"><ele>419.0</ele><time>2026-05-01T12:47:26Z</time></trkpt><trkpt lat="44.33893618588711" lon="8.344949958922562"><ele>420.0</ele><time>2026-05-01T12:47:27Z</time></trkpt><trkpt lat="44.33883052097221" lon="8.344774056213002"><ele>421.0</ele><time>2026-05-01T12:47:28Z</time></trkpt><trkpt lat="44.33874729107758" lon="8.344595704943686"><ele>419.5</ele><time>2026-05-01T12:47:29Z</time></trkpt><trkpt lat="44.33867133315685" lon="8.344431640627821"><ele>418.0</ele><time>2026-05-01T12:47:30Z</time></trkpt><trkpt lat="44.3386016808027" lon="8.344276528845734"><ele>416.5</ele><time>2026-05-01T12:47:31Z</time></trkpt><trkpt lat="44.33853527467516" lon="8.344136763390326"><ele>415.0</ele><time>2026-05-01T12:47:32Z</time></trkpt><trkpt lat="44.338468052192454" lon="8.344004445497315"><ele>415.0</ele><time>2026-05-01T12:47:33Z</time></trkpt><trkpt lat="44.338385218198226" lon="8.34384467906854"><ele>415.0</ele><time>2026-05-01T12:47:34Z</time></trkpt><trkpt lat="44.33829820193595" lon="8.343666356853909"><ele>415.0</ele><time>2026-05-01T12:47:35Z</time></trkpt><trkpt lat="44.33823463329094" lon="8.343452734747586"><ele>415.0</ele><time>2026-05-01T12:47:36Z</time></trkpt><trkpt lat="44.338149690296405" lon="8.343229234196322"><ele>415.0</ele><time>2026-05-01T12:47:37Z</time></trkpt><trkpt lat="44.33807698184762" lon="8.34299726392505"><ele>415.0</ele><time>2026-05-01T12:47:38Z</time></trkpt><trkpt lat="44.33798219257153" lon="8.342806146488046"><ele>414.6666666666667</ele><time>2026-05-01T12:47:39Z</time></trkpt><trkpt lat="44.337853573226724" lon="8.34262967509305"><ele>414.33333333333337</ele><time>2026-05-01T12:47:40Z</time></trkpt><trkpt lat="44.337707709994184" lon="8.34247098376082"><ele>414.0</ele><time>2026-05-01T12:47:41Z</time></trkpt><trkpt lat="44.337590460822064" lon="8.342338940058394"><ele>414.0</ele><time>2026-05-01T12:47:42Z</time></trkpt><trkpt lat="44.337480897688586" lon="8.342252779504975"><ele>414.0</ele><time>2026-05-01T12:47:43Z</time></trkpt><trkpt lat="44.33738087117437" lon="8.342167449402346"><ele>414.0</ele><time>2026-05-01T12:47:44Z</time></trkpt><trkpt lat="44.33727718666124" lon="8.342069515368477"><ele>414.0</ele><time>2026-05-01T12:47:45Z</time></trkpt><trkpt lat="44.33719846037275" lon="8.341922030894592"><ele>412.5</ele><time>2026-05-01T12:47:46Z</time></trkpt><trkpt lat="44.33712141283644" lon="8.34175288755772"><ele>411.0</ele><time>2026-05-01T12:47:47Z</time></trkpt><trkpt lat="44.337067283007705" lon="8.341582017056425"><ele>409.5</ele><time>2026-05-01T12:47:48Z</time></trkpt><trkpt lat="44.33702819884493" lon="8.341446220662602"><ele>408.0</ele><time>2026-05-01T12:47:49Z</time></trkpt><trkpt lat="44.33699066134166" lon="8.341354333593536"><ele>408.0</ele><time>2026-05-01T12:47:50Z</time></trkpt><trkpt lat="44.33690896618904" lon="8.341311363693173"><ele>408.0</ele><time>2026-05-01T12:47:51Z</time></trkpt><trkpt lat="44.33681541076518" lon="8.341308163466037"><ele>408.0</ele><time>2026-05-01T12:47:52Z</time></trkpt><trkpt lat="44.33672676757976" lon="8.341366525077497"><ele>408.0</ele><time>2026-05-01T12:47:53Z</time></trkpt><trkpt lat="44.336608222514826" lon="8.341403142743728"><ele>408.0</ele><time>2026-05-01T12:47:55Z</time></trkpt><trkpt lat="44.33653728194134" lon="8.341385568320886"><ele>408.0</ele><time>2026-05-01T12:47:56Z</time></trkpt><trkpt lat="44.33646088246178" lon="8.34132517858455"><ele>408.0</ele><time>2026-05-01T12:47:57Z</time></trkpt><trkpt lat="44.336374122122514" lon="8.341251748323367"><ele>408.0</ele><time>2026-05-01T12:47:58Z</time></trkpt><trkpt lat="44.33628354630645" lon="8.341193565073665"><ele>408.0</ele><time>2026-05-01T12:47:59Z</time></trkpt><trkpt lat="44.33617488432768" lon="8.341129364466259"><ele>408.0</ele><time>2026-05-01T12:48:00Z</time></trkpt><trkpt lat="44.33607582375561" lon="8.341073245496288"><ele>408.2</ele><time>2026-05-01T12:48:01Z</time></trkpt><trkpt lat="44.33599621283468" lon="8.341019780662272"><ele>408.4</ele><time>2026-05-01T12:48:02Z</time></trkpt><trkpt lat="44.33592421588812" lon="8.340918253611962"><ele>408.59999999999997</ele><time>2026-05-01T12:48:03Z</time></trkpt><trkpt lat="44.33588115516981" lon="8.340815616229895"><ele>408.79999999999995</ele><time>2026-05-01T12:48:04Z</time></trkpt><trkpt lat="44.33585250307073" lon="8.340726440952428"><ele>409.0</ele><time>2026-05-01T12:48:05Z</time></trkpt><trkpt lat="44.335798158355004" lon="8.340591745594596"><ele>409.2</ele><time>2026-05-01T12:48:07Z</time></trkpt><trkpt lat="44.335763721232205" lon="8.34049799013306"><ele>409.4</ele><time>2026-05-01T12:48:09Z</time></trkpt><trkpt lat="44.33577730605807" lon="8.340402144912293"><ele>409.6</ele><time>2026-05-01T12:48:10Z</time></trkpt><trkpt lat="44.33581242476895" lon="8.34024297314936"><ele>409.8</ele><time>2026-05-01T12:48:11Z</time></trkpt><trkpt lat="44.335837314038024" lon="8.3400598137939"><ele>410.0</ele><time>2026-05-01T12:48:12Z</time></trkpt><trkpt lat="44.33582799922192" lon="8.339871107157505"><ele>409.25</ele><time>2026-05-01T12:48:13Z</time></trkpt><trkpt lat="44.335819872431614" lon="8.339662956827302"><ele>408.5</ele><time>2026-05-01T12:48:14Z</time></trkpt><trkpt lat="44.3358145182683" lon="8.339454174554833"><ele>407.75</ele><time>2026-05-01T12:48:15Z</time></trkpt><trkpt lat="44.335811109325135" lon="8.339281421422944"><ele>407.0</ele><time>2026-05-01T12:48:16Z</time></trkpt><trkpt lat="44.33580892929787" lon="8.339183064321285"><ele>406.99999999999994</ele><time>2026-05-01T12:48:17Z</time></trkpt><trkpt lat="44.3358079227957" lon="8.339065146095693"><ele>407.0</ele><time>2026-05-01T12:48:20Z</time></trkpt><trkpt lat="44.33580887763833" lon="8.338959131099799"><ele>407.0</ele><time>2026-05-01T12:48:23Z</time></trkpt><trkpt lat="44.33581684389532" lon="8.338775735566848"><ele>407.0</ele><time>2026-05-01T12:48:25Z</time></trkpt><trkpt lat="44.335818084619184" lon="8.338660591393964"><ele>406.99999999999994</ele><time>2026-05-01T12:48:26Z</time></trkpt><trkpt lat="44.335821031446066" lon="8.33855517370385"><ele>407.0</ele><time>2026-05-01T12:48:27Z</time></trkpt><trkpt lat="44.3358003794208" lon="8.338417064606293"><ele>406.6</ele><time>2026-05-01T12:48:29Z</time></trkpt><trkpt lat="44.33569385752243" lon="8.338433207607164"><ele>406.20000000000005</ele><time>2026-05-01T12:48:31Z</time></trkpt><trkpt lat="44.33561680567085" lon="8.338406573691186"><ele>405.8</ele><time>2026-05-01T12:48:32Z</time></trkpt><trkpt lat="44.335521775355275" lon="8.33841875259526"><ele>405.4</ele><time>2026-05-01T12:48:33Z</time></trkpt><trkpt lat="44.33541766047812" lon="8.338454061102698"><ele>405.0</ele><time>2026-05-01T12:48:34Z</time></trkpt><trkpt lat="44.33530110283495" lon="8.338469009157501"><ele>406.6</ele><time>2026-05-01T12:48:35Z</time></trkpt><trkpt lat="44.33520824066682" lon="8.3384566865844"><ele>408.2</ele><time>2026-05-01T12:48:36Z</time></trkpt><trkpt lat="44.335150778658026" lon="8.338404973980694"><ele>409.79999999999995</ele><time>2026-05-01T12:48:37Z</time></trkpt><trkpt lat="44.33510277134597" lon="8.338221893695396"><ele>411.4</ele><time>2026-05-01T12:48:39Z</time></trkpt><trkpt lat="44.33508158775595" lon="8.338090696521045"><ele>413.0</ele><time>2026-05-01T12:48:40Z</time></trkpt><trkpt lat="44.33508632504765" lon="8.337941642780445"><ele>413.0</ele><time>2026-05-01T12:48:41Z</time></trkpt><trkpt lat="44.33511740469063" lon="8.337750342169986"><ele>413.0</ele><time>2026-05-01T12:48:42Z</time></trkpt><trkpt lat="44.335142291887095" lon="8.337525601467766"><ele>413.0</ele><time>2026-05-01T12:48:43Z</time></trkpt><trkpt lat="44.33515855494931" lon="8.33729291111486"><ele>409.66666666666663</ele><time>2026-05-01T12:48:44Z</time></trkpt><trkpt lat="44.335161218330946" lon="8.337061992378999"><ele>406.33333333333337</ele><time>2026-05-01T12:48:45Z</time></trkpt><trkpt lat="44.33512394888503" lon="8.336850399485195"><ele>403.0</ele><time>2026-05-01T12:48:46Z</time></trkpt><trkpt lat="44.335048385648136" lon="8.33662498564001"><ele>403.0</ele><time>2026-05-01T12:48:47Z</time></trkpt><trkpt lat="44.33499530667544" lon="8.336423378013551"><ele>403.0</ele><time>2026-05-01T12:48:48Z</time></trkpt><trkpt lat="44.33499721897848" lon="8.336253380728161"><ele>403.0</ele><time>2026-05-01T12:48:49Z</time></trkpt><trkpt lat="44.33503336221539" lon="8.336073246385686"><ele>403.0</ele><time>2026-05-01T12:48:50Z</time></trkpt><trkpt lat="44.335079326420754" lon="8.335867653037177"><ele>403.33333333333337</ele><time>2026-05-01T12:48:51Z</time></trkpt><trkpt lat="44.33512514310573" lon="8.33563791725888"><ele>403.66666666666663</ele><time>2026-05-01T12:48:52Z</time></trkpt><trkpt lat="44.33516969673705" lon="8.335396354005006"><ele>404.0</ele><time>2026-05-01T12:48:53Z</time></trkpt><trkpt lat="44.33521531998533" lon="8.335141348349918"><ele>405.3333333333333</ele><time>2026-05-01T12:48:54Z</time></trkpt><trkpt lat="44.33526202552719" lon="8.334875160154185"><ele>406.66666666666663</ele><time>2026-05-01T12:48:55Z</time></trkpt><trkpt lat="44.33531426222699" lon="8.33460218780193"><ele>408.0</ele><time>2026-05-01T12:48:56Z</time></trkpt><trkpt lat="44.33536144127895" lon="8.334336932153604"><ele>408.66666666666663</ele><time>2026-05-01T12:48:57Z</time></trkpt><trkpt lat="44.335406614762725" lon="8.33406923257889"><ele>409.3333333333333</ele><time>2026-05-01T12:48:58Z</time></trkpt><trkpt lat="44.33545706487095" lon="8.33378447983169"><ele>410.0</ele><time>2026-05-01T12:48:59Z</time></trkpt><trkpt lat="44.335511050579754" lon="8.333498544432121"><ele>405.66666666666663</ele><time>2026-05-01T12:49:00Z</time></trkpt><trkpt lat="44.3355663533128" lon="8.33321420485435"><ele>401.33333333333337</ele><time>2026-05-01T12:49:01Z</time></trkpt><trkpt lat="44.33561081600917" lon="8.332961583363149"><ele>397.0</ele><time>2026-05-01T12:49:02Z</time></trkpt><trkpt lat="44.335650733071006" lon="8.332747876005728"><ele>396.8</ele><time>2026-05-01T12:49:03Z</time></trkpt><trkpt lat="44.33567408473274" lon="8.332586435450093"><ele>396.6</ele><time>2026-05-01T12:49:04Z</time></trkpt><trkpt lat="44.33568318673917" lon="8.332456128825056"><ele>396.40000000000003</ele><time>2026-05-01T12:49:05Z</time></trkpt><trkpt lat="44.335666660821296" lon="8.332354175714926"><ele>396.20000000000005</ele><time>2026-05-01T12:49:06Z</time></trkpt><trkpt lat="44.335619525522226" lon="8.332267539615966"><ele>396.0</ele><time>2026-05-01T12:49:07Z</time></trkpt><trkpt lat="44.33553869377254" lon="8.332202482512919"><ele>398.75</ele><time>2026-05-01T12:49:08Z</time></trkpt><trkpt lat="44.33541268806131" lon="8.332179143418632"><ele>401.5</ele><time>2026-05-01T12:49:09Z</time></trkpt><trkpt lat="44.33527706925687" lon="8.332160926780803"><ele>404.25</ele><time>2026-05-01T12:49:10Z</time></trkpt><trkpt lat="44.335153395200905" lon="8.332157047906113"><ele>407.0</ele><time>2026-05-01T12:49:11Z</time></trkpt><trkpt lat="44.335011759979686" lon="8.332184875590325"><ele>406.66666666666663</ele><time>2026-05-01T12:49:12Z</time></trkpt><trkpt lat="44.33485711841683" lon="8.33223035953727"><ele>406.33333333333337</ele><time>2026-05-01T12:49:13Z</time></trkpt><trkpt lat="44.33469453775415" lon="8.332291306372232"><ele>406.0</ele><time>2026-05-01T12:49:14Z</time></trkpt><trkpt lat="44.33452558748878" lon="8.332339266690484"><ele>410.33333333333337</ele><time>2026-05-01T12:49:15Z</time></trkpt><trkpt lat="44.33434025590017" lon="8.332391050391582"><ele>414.66666666666663</ele><time>2026-05-01T12:49:16Z</time></trkpt><trkpt lat="44.33415229103235" lon="8.332453381721162"><ele>419.0</ele><time>2026-05-01T12:49:17Z</time></trkpt><trkpt lat="44.33395287463069" lon="8.332525981870985"><ele>424.66666666666663</ele><time>2026-05-01T12:49:18Z</time></trkpt><trkpt lat="44.33376343814277" lon="8.33260941021759"><ele>430.33333333333337</ele><time>2026-05-01T12:49:19Z</time></trkpt><trkpt lat="44.33356171216712" lon="8.332711661969526"><ele>436.0</ele><time>2026-05-01T12:49:20Z</time></trkpt><trkpt lat="44.333372557259246" lon="8.332835697304361"><ele>436.0</ele><time>2026-05-01T12:49:21Z</time></trkpt><trkpt lat="44.333205555166565" lon="8.332908775448175"><ele>436.0</ele><time>2026-05-01T12:49:22Z</time></trkpt><trkpt lat="44.33304632921194" lon="8.3329440563829"><ele>436.0</ele><time>2026-05-01T12:49:23Z</time></trkpt><trkpt lat="44.33288708446761" lon="8.332962725598719"><ele>434.5</ele><time>2026-05-01T12:49:24Z</time></trkpt><trkpt lat="44.332753950826756" lon="8.332956315914625"><ele>433.0</ele><time>2026-05-01T12:49:25Z</time></trkpt><trkpt lat="44.33265028409829" lon="8.332902083034693"><ele>431.5</ele><time>2026-05-01T12:49:26Z</time></trkpt><trkpt lat="44.33255093002551" lon="8.332795907270881"><ele>430.0</ele><time>2026-05-01T12:49:27Z</time></trkpt><trkpt lat="44.33243234734842" lon="8.332730146191759"><ele>430.0</ele><time>2026-05-01T12:49:28Z</time></trkpt><trkpt lat="44.33233816634907" lon="8.332691388977185"><ele>430.0</ele><time>2026-05-01T12:49:29Z</time></trkpt><trkpt lat="44.332255778153915" lon="8.332726495032258"><ele>430.0</ele><time>2026-05-01T12:49:30Z</time></trkpt><trkpt lat="44.332188333885405" lon="8.332807538772167"><ele>430.0</ele><time>2026-05-01T12:49:31Z</time></trkpt><trkpt lat="44.33212458007451" lon="8.332935291873127"><ele>430.0</ele><time>2026-05-01T12:49:32Z</time></trkpt><trkpt lat="44.33205514228413" lon="8.333023750213554"><ele>427.2</ele><time>2026-05-01T12:49:33Z</time></trkpt><trkpt lat="44.33199938195876" lon="8.333105342579998"><ele>424.4</ele><time>2026-05-01T12:49:34Z</time></trkpt><trkpt lat="44.331935776924105" lon="8.33319005225256"><ele>421.6</ele><time>2026-05-01T12:49:35Z</time></trkpt><trkpt lat="44.331866846888694" lon="8.33328174883018"><ele>418.8</ele><time>2026-05-01T12:49:36Z</time></trkpt><trkpt lat="44.331799555322576" lon="8.333374450913592"><ele>416.0</ele><time>2026-05-01T12:49:37Z</time></trkpt><trkpt lat="44.331727460021916" lon="8.33347377078764"><ele>416.0</ele><time>2026-05-01T12:49:38Z</time></trkpt><trkpt lat="44.33165257845538" lon="8.333577795658636"><ele>416.0</ele><time>2026-05-01T12:49:39Z</time></trkpt><trkpt lat="44.33158189368165" lon="8.333676601229378"><ele>416.0</ele><time>2026-05-01T12:49:40Z</time></trkpt><trkpt lat="44.33151579760183" lon="8.33376899246904"><ele>416.0</ele><time>2026-05-01T12:49:41Z</time></trkpt><trkpt lat="44.33146087388934" lon="8.333879218813479"><ele>416.0</ele><time>2026-05-01T12:49:42Z</time></trkpt><trkpt lat="44.33137978336504" lon="8.333974680686428"><ele>414.75</ele><time>2026-05-01T12:49:43Z</time></trkpt><trkpt lat="44.33129884527781" lon="8.334093409682193"><ele>413.5</ele><time>2026-05-01T12:49:44Z</time></trkpt><trkpt lat="44.331203279624724" lon="8.33422836774564"><ele>412.25</ele><time>2026-05-01T12:49:45Z</time></trkpt><trkpt lat="44.331072254800745" lon="8.334386636848508"><ele>411.0</ele><time>2026-05-01T12:49:46Z</time></trkpt><trkpt lat="44.33090619266623" lon="8.334527399805118"><ele>411.0</ele><time>2026-05-01T12:49:47Z</time></trkpt><trkpt lat="44.330750543151865" lon="8.334700641988293"><ele>411.0</ele><time>2026-05-01T12:49:48Z</time></trkpt><trkpt lat="44.33056689789266" lon="8.334867631661801"><ele>411.0</ele><time>2026-05-01T12:49:49Z</time></trkpt><trkpt lat="44.33036626157623" lon="8.334997734178673"><ele>413.0</ele><time>2026-05-01T12:49:50Z</time></trkpt><trkpt lat="44.330136078239306" lon="8.335108474855335"><ele>415.0</ele><time>2026-05-01T12:49:51Z</time></trkpt><trkpt lat="44.32989700616307" lon="8.33520754655236"><ele>412.0</ele><time>2026-05-01T12:49:52Z</time></trkpt><trkpt lat="44.32966883883252" lon="8.335301503009932"><ele>409.0</ele><time>2026-05-01T12:49:53Z</time></trkpt><trkpt lat="44.3294737087936" lon="8.335385404540505"><ele>406.0</ele><time>2026-05-01T12:49:54Z</time></trkpt><trkpt lat="44.32931837894507" lon="8.335449873979906"><ele>406.0</ele><time>2026-05-01T12:49:55Z</time></trkpt><trkpt lat="44.32918038923586" lon="8.335465667579172"><ele>406.0</ele><time>2026-05-01T12:49:56Z</time></trkpt><trkpt lat="44.32904033587217" lon="8.335383338513584"><ele>406.0</ele><time>2026-05-01T12:49:57Z</time></trkpt><trkpt lat="44.3288797407548" lon="8.335280312121542"><ele>406.6666666666667</ele><time>2026-05-01T12:49:58Z</time></trkpt><trkpt lat="44.32869482738549" lon="8.335186279048825"><ele>407.33333333333337</ele><time>2026-05-01T12:49:59Z</time></trkpt><trkpt lat="44.32849963502498" lon="8.335050417079831"><ele>408.0</ele><time>2026-05-01T12:50:00Z</time></trkpt><trkpt lat="44.32829404112628" lon="8.334918851097784"><ele>408.0</ele><time>2026-05-01T12:50:01Z</time></trkpt><trkpt lat="44.32807816592452" lon="8.33478688842265"><ele>408.0</ele><time>2026-05-01T12:50:02Z</time></trkpt><trkpt lat="44.3278645194073" lon="8.334656160647263"><ele>407.66666666666663</ele><time>2026-05-01T12:50:03Z</time></trkpt><trkpt lat="44.32768629991411" lon="8.334537424172492"><ele>407.3333333333333</ele><time>2026-05-01T12:50:04Z</time></trkpt><trkpt lat="44.327553460996114" lon="8.334421351599493"><ele>407.0</ele><time>2026-05-01T12:50:05Z</time></trkpt><trkpt lat="44.32746746306885" lon="8.334261632585186"><ele>407.0</ele><time>2026-05-01T12:50:06Z</time></trkpt><trkpt lat="44.32740310216213" lon="8.334051020024843"><ele>407.0</ele><time>2026-05-01T12:50:07Z</time></trkpt><trkpt lat="44.32739736037851" lon="8.333788102468153"><ele>407.0</ele><time>2026-05-01T12:50:08Z</time></trkpt><trkpt lat="44.32739707791026" lon="8.333502873774046"><ele>403.0</ele><time>2026-05-01T12:50:09Z</time></trkpt><trkpt lat="44.327394321158955" lon="8.333182681933575"><ele>399.0</ele><time>2026-05-01T12:50:10Z</time></trkpt><trkpt lat="44.32738233650669" lon="8.332872094992767"><ele>398.0</ele><time>2026-05-01T12:50:11Z</time></trkpt><trkpt lat="44.32732154486403" lon="8.332550964518138"><ele>397.0</ele><time>2026-05-01T12:50:12Z</time></trkpt><trkpt lat="44.32724666502628" lon="8.332198706177202"><ele>399.5</ele><time>2026-05-01T12:50:13Z</time></trkpt><trkpt lat="44.327161337232866" lon="8.33186295755422"><ele>402.0</ele><time>2026-05-01T12:50:14Z</time></trkpt><trkpt lat="44.327061638706155" lon="8.331536296040685"><ele>401.5</ele><time>2026-05-01T12:50:15Z</time></trkpt><trkpt lat="44.326937292737924" lon="8.331238971882508"><ele>401.0</ele><time>2026-05-01T12:50:16Z</time></trkpt><trkpt lat="44.32681040333879" lon="8.330945649800352"><ele>401.0</ele><time>2026-05-01T12:50:17Z</time></trkpt><trkpt lat="44.32668686402678" lon="8.33063875732369"><ele>401.0</ele><time>2026-05-01T12:50:18Z</time></trkpt><trkpt lat="44.32658067763341" lon="8.33033649274534"><ele>399.5</ele><time>2026-05-01T12:50:19Z</time></trkpt><trkpt lat="44.32649618442321" lon="8.330034261899705"><ele>398.0</ele><time>2026-05-01T12:50:20Z</time></trkpt><trkpt lat="44.326437319413714" lon="8.32972852138667"><ele>402.5</ele><time>2026-05-01T12:50:21Z</time></trkpt><trkpt lat="44.32638246358282" lon="8.329397460819242"><ele>407.0</ele><time>2026-05-01T12:50:22Z</time></trkpt><trkpt lat="44.32634071810937" lon="8.329054865433635"><ele>409.5</ele><time>2026-05-01T12:50:23Z</time></trkpt><trkpt lat="44.326340314094985" lon="8.328695093106212"><ele>412.0</ele><time>2026-05-01T12:50:24Z</time></trkpt><trkpt lat="44.32632005854865" lon="8.328348991295373"><ele>412.0</ele><time>2026-05-01T12:50:25Z</time></trkpt><trkpt lat="44.32631757938334" lon="8.328073653884124"><ele>412.0</ele><time>2026-05-01T12:50:26Z</time></trkpt><trkpt lat="44.32629077053502" lon="8.327839556922264"><ele>412.0</ele><time>2026-05-01T12:50:27Z</time></trkpt><trkpt lat="44.32620695132054" lon="8.327652820165971"><ele>410.0</ele><time>2026-05-01T12:50:28Z</time></trkpt><trkpt lat="44.32606808950314" lon="8.327498431718137"><ele>408.0</ele><time>2026-05-01T12:50:29Z</time></trkpt><trkpt lat="44.32591246473942" lon="8.32732994998915"><ele>406.0</ele><time>2026-05-01T12:50:30Z</time></trkpt><trkpt lat="44.32576242123101" lon="8.327134081042473"><ele>408.0</ele><time>2026-05-01T12:50:31Z</time></trkpt><trkpt lat="44.32560347442341" lon="8.326946047603062"><ele>410.0</ele><time>2026-05-01T12:50:32Z</time></trkpt><trkpt lat="44.32523126530728" lon="8.327084131376274"><ele>410.0</ele><time>2026-05-01T12:50:33Z</time></trkpt><trkpt lat="44.32495871680827" lon="8.327053615057313"><ele>410.0</ele><time>2026-05-01T12:50:34Z</time></trkpt><trkpt lat="44.324728031650544" lon="8.32703686824598"><ele>414.3333333333333</ele><time>2026-05-01T12:50:35Z</time></trkpt><trkpt lat="44.3245077785842" lon="8.326995883215366"><ele>418.66666666666663</ele><time>2026-05-01T12:50:36Z</time></trkpt><trkpt lat="44.32433795291584" lon="8.326894665397186"><ele>423.0</ele><time>2026-05-01T12:50:37Z</time></trkpt><trkpt lat="44.32420058683522" lon="8.326741028056706"><ele>423.0</ele><time>2026-05-01T12:50:38Z</time></trkpt><trkpt lat="44.32412072188714" lon="8.326532627436466"><ele>423.0</ele><time>2026-05-01T12:50:39Z</time></trkpt><trkpt lat="44.324115551763235" lon="8.326260998093057"><ele>423.0</ele><time>2026-05-01T12:50:40Z</time></trkpt><trkpt lat="44.32407202487292" lon="8.325976593672102"><ele>416.5</ele><time>2026-05-01T12:50:41Z</time></trkpt><trkpt lat="44.32404090160218" lon="8.325663326535583"><ele>410.0</ele><time>2026-05-01T12:50:42Z</time></trkpt><trkpt lat="44.323991977361956" lon="8.325349043928863"><ele>410.5</ele><time>2026-05-01T12:50:43Z</time></trkpt><trkpt lat="44.32393785706174" lon="8.325016872699953"><ele>411.0</ele><time>2026-05-01T12:50:44Z</time></trkpt><trkpt lat="44.32389250881534" lon="8.324694671773162"><ele>411.0</ele><time>2026-05-01T12:50:45Z</time></trkpt><trkpt lat="44.323843208945" lon="8.324391458272377"><ele>411.0</ele><time>2026-05-01T12:50:46Z</time></trkpt><trkpt lat="44.32377523641749" lon="8.324163610598674"><ele>411.0</ele><time>2026-05-01T12:50:47Z</time></trkpt><trkpt lat="44.32367037684572" lon="8.324006633977838"><ele>411.0</ele><time>2026-05-01T12:50:48Z</time></trkpt><trkpt lat="44.323530215465865" lon="8.323886437597025"><ele>411.0</ele><time>2026-05-01T12:50:49Z</time></trkpt><trkpt lat="44.32339564878767" lon="8.323865578195523"><ele>411.0</ele><time>2026-05-01T12:50:50Z</time></trkpt><trkpt lat="44.3232520700759" lon="8.323929605464162"><ele>411.0</ele><time>2026-05-01T12:50:51Z</time></trkpt><trkpt lat="44.3230948427434" lon="8.324062765428765"><ele>411.0</ele><time>2026-05-01T12:50:52Z</time></trkpt><trkpt lat="44.322935510444395" lon="8.324232831155468"><ele>411.0</ele><time>2026-05-01T12:50:53Z</time></trkpt><trkpt lat="44.32275532078368" lon="8.32442078642383"><ele>411.0</ele><time>2026-05-01T12:50:54Z</time></trkpt><trkpt lat="44.32258257669343" lon="8.32454470555593"><ele>411.0</ele><time>2026-05-01T12:50:55Z</time></trkpt><trkpt lat="44.32242873213955" lon="8.324594034810618"><ele>411.0</ele><time>2026-05-01T12:50:56Z</time></trkpt><trkpt lat="44.32229204548271" lon="8.32456132016409"><ele>410.33333333333337</ele><time>2026-05-01T12:50:57Z</time></trkpt><trkpt lat="44.32217121266183" lon="8.324461271740358"><ele>409.6666666666667</ele><time>2026-05-01T12:50:58Z</time></trkpt><trkpt lat="44.32205071307713" lon="8.324273634363866"><ele>409.0</ele><time>2026-05-01T12:50:59Z</time></trkpt><trkpt lat="44.32191050630581" lon="8.324087433633894"><ele>409.0</ele><time>2026-05-01T12:51:00Z</time></trkpt><trkpt lat="44.32176083395255" lon="8.323891639395907"><ele>409.0</ele><time>2026-05-01T12:51:01Z</time></trkpt><trkpt lat="44.3215748120499" lon="8.32375665983464"><ele>409.0</ele><time>2026-05-01T12:51:02Z</time></trkpt><trkpt lat="44.32138657938737" lon="8.323680328648997"><ele>409.25</ele><time>2026-05-01T12:51:03Z</time></trkpt><trkpt lat="44.32122446233335" lon="8.323615125582064"><ele>409.5</ele><time>2026-05-01T12:51:04Z</time></trkpt><trkpt lat="44.32109276252381" lon="8.323556462675105"><ele>409.75</ele><time>2026-05-01T12:51:05Z</time></trkpt><trkpt lat="44.320967497537026" lon="8.323495861385025"><ele>410.0</ele><time>2026-05-01T12:51:06Z</time></trkpt><trkpt lat="44.32085072958573" lon="8.323435991592904"><ele>410.0</ele><time>2026-05-01T12:51:07Z</time></trkpt><trkpt lat="44.32073160079555" lon="8.323379105181765"><ele>410.0</ele><time>2026-05-01T12:51:08Z</time></trkpt><trkpt lat="44.32060210869359" lon="8.323314750753665"><ele>410.0</ele><time>2026-05-01T12:51:09Z</time></trkpt><trkpt lat="44.320467564746295" lon="8.323242701173875"><ele>410.0</ele><time>2026-05-01T12:51:10Z</time></trkpt><trkpt lat="44.32032393120729" lon="8.323163292724006"><ele>410.3333333333333</ele><time>2026-05-01T12:51:11Z</time></trkpt><trkpt lat="44.32017162042148" lon="8.323083455684435"><ele>410.66666666666663</ele><time>2026-05-01T12:51:12Z</time></trkpt><trkpt lat="44.32000750154597" lon="8.322997183233243"><ele>411.0</ele><time>2026-05-01T12:51:13Z</time></trkpt><trkpt lat="44.31983236833439" lon="8.322905290129324"><ele>413.0</ele><time>2026-05-01T12:51:14Z</time></trkpt><trkpt lat="44.31966283978599" lon="8.322736950837399"><ele>415.0</ele><time>2026-05-01T12:51:15Z</time></trkpt><trkpt lat="44.31948727363831" lon="8.32252392053448"><ele>417.0</ele><time>2026-05-01T12:51:16Z</time></trkpt><trkpt lat="44.31930541168138" lon="8.322315925308033"><ele>415.0</ele><time>2026-05-01T12:51:17Z</time></trkpt><trkpt lat="44.31913069945018" lon="8.322078018161843"><ele>413.0</ele><time>2026-05-01T12:51:18Z</time></trkpt><trkpt lat="44.3189658837386" lon="8.321867064893667"><ele>414.66666666666663</ele><time>2026-05-01T12:51:19Z</time></trkpt><trkpt lat="44.31884470645931" lon="8.32165522756343"><ele>416.33333333333337</ele><time>2026-05-01T12:51:20Z</time></trkpt><trkpt lat="44.3187545461062" lon="8.321432339007773"><ele>418.0</ele><time>2026-05-01T12:51:21Z</time></trkpt><trkpt lat="44.31864832891762" lon="8.321179069886991"><ele>418.0</ele><time>2026-05-01T12:51:22Z</time></trkpt><trkpt lat="44.3185543433245" lon="8.32089604163101"><ele>418.0</ele><time>2026-05-01T12:51:23Z</time></trkpt><trkpt lat="44.3184565324987" lon="8.320632879930454"><ele>418.0</ele><time>2026-05-01T12:51:24Z</time></trkpt><trkpt lat="44.31837234449395" lon="8.32042650536992"><ele>418.5</ele><time>2026-05-01T12:51:25Z</time></trkpt><trkpt lat="44.318301260155856" lon="8.32027549588832"><ele>419.0</ele><time>2026-05-01T12:51:26Z</time></trkpt><trkpt lat="44.31822062067197" lon="8.320179536942247"><ele>419.5</ele><time>2026-05-01T12:51:27Z</time></trkpt><trkpt lat="44.31812096044907" lon="8.320145458288655"><ele>420.0</ele><time>2026-05-01T12:51:28Z</time></trkpt><trkpt lat="44.31799498511195" lon="8.320155085752734"><ele>420.0</ele><time>2026-05-01T12:51:29Z</time></trkpt><trkpt lat="44.31783523562209" lon="8.32015886006399"><ele>420.0</ele><time>2026-05-01T12:51:30Z</time></trkpt><trkpt lat="44.31767092299236" lon="8.320136994518593"><ele>420.0</ele><time>2026-05-01T12:51:31Z</time></trkpt><trkpt lat="44.31748639897926" lon="8.32007382672046"><ele>420.0</ele><time>2026-05-01T12:51:32Z</time></trkpt><trkpt lat="44.317333145234244" lon="8.319965478848323"><ele>420.0</ele><time>2026-05-01T12:51:33Z</time></trkpt><trkpt lat="44.31720915143614" lon="8.319776203553443"><ele>420.0</ele><time>2026-05-01T12:51:34Z</time></trkpt><trkpt lat="44.317057413328925" lon="8.319523619301005"><ele>423.5</ele><time>2026-05-01T12:51:35Z</time></trkpt><trkpt lat="44.31689625314017" lon="8.319289328947505"><ele>427.0</ele><time>2026-05-01T12:51:36Z</time></trkpt><trkpt lat="44.316763176225805" lon="8.319048799441628"><ele>422.5</ele><time>2026-05-01T12:51:37Z</time></trkpt><trkpt lat="44.316650521076305" lon="8.31883243345201"><ele>418.0</ele><time>2026-05-01T12:51:38Z</time></trkpt><trkpt lat="44.31645386334242" lon="8.318558959347143"><ele>418.25</ele><time>2026-05-01T12:51:39Z</time></trkpt><trkpt lat="44.31637114688477" lon="8.318340033536314"><ele>418.5</ele><time>2026-05-01T12:51:40Z</time></trkpt><trkpt lat="44.316346963972" lon="8.318159242766264"><ele>418.75</ele><time>2026-05-01T12:51:41Z</time></trkpt><trkpt lat="44.31638382036901" lon="8.318002329718352"><ele>419.0</ele><time>2026-05-01T12:51:42Z</time></trkpt><trkpt lat="44.31642964620225" lon="8.317759525489203"><ele>419.0</ele><time>2026-05-01T12:51:43Z</time></trkpt><trkpt lat="44.316472228331094" lon="8.317488371051528"><ele>419.0</ele><time>2026-05-01T12:51:44Z</time></trkpt><trkpt lat="44.316501498659804" lon="8.317180661108177"><ele>419.0</ele><time>2026-05-01T12:51:45Z</time></trkpt><trkpt lat="44.31655648083626" lon="8.31684546430172"><ele>422.0</ele><time>2026-05-01T12:51:46Z</time></trkpt><trkpt lat="44.31659845515718" lon="8.316489664651355"><ele>425.0</ele><time>2026-05-01T12:51:47Z</time></trkpt><trkpt lat="44.316617736660774" lon="8.31612887947297"><ele>426.5</ele><time>2026-05-01T12:51:48Z</time></trkpt><trkpt lat="44.316617949114516" lon="8.315749895166844"><ele>428.0</ele><time>2026-05-01T12:51:49Z</time></trkpt><trkpt lat="44.31660860830788" lon="8.315364327644001"><ele>428.0</ele><time>2026-05-01T12:51:50Z</time></trkpt><trkpt lat="44.31659786641842" lon="8.314978124678543"><ele>428.0</ele><time>2026-05-01T12:51:51Z</time></trkpt><trkpt lat="44.316580901485324" lon="8.314634987775449"><ele>428.3333333333333</ele><time>2026-05-01T12:51:52Z</time></trkpt><trkpt lat="44.316531221296316" lon="8.314337557344063"><ele>428.66666666666663</ele><time>2026-05-01T12:51:53Z</time></trkpt><trkpt lat="44.31647132637986" lon="8.314072720402402"><ele>429.0</ele><time>2026-05-01T12:51:54Z</time></trkpt><trkpt lat="44.31640748974825" lon="8.313849843626775"><ele>428.75</ele><time>2026-05-01T12:51:55Z</time></trkpt><trkpt lat="44.316329991190266" lon="8.313716076742244"><ele>428.5</ele><time>2026-05-01T12:51:56Z</time></trkpt><trkpt lat="44.31624131896441" lon="8.313648477805582"><ele>428.25</ele><time>2026-05-01T12:51:57Z</time></trkpt><trkpt lat="44.31611313127512" lon="8.313637112168971"><ele>428.0</ele><time>2026-05-01T12:51:58Z</time></trkpt><trkpt lat="44.315946368321015" lon="8.313634872320874"><ele>428.0</ele><time>2026-05-01T12:51:59Z</time></trkpt><trkpt lat="44.315744026051" lon="8.313653381133431"><ele>428.0</ele><time>2026-05-01T12:52:00Z</time></trkpt><trkpt lat="44.315479605152035" lon="8.313716469678955"><ele>426.5</ele><time>2026-05-01T12:52:01Z</time></trkpt><trkpt lat="44.31524370303868" lon="8.313766589250314"><ele>425.0</ele><time>2026-05-01T12:52:02Z</time></trkpt><trkpt lat="44.3150035144516" lon="8.31385784927855"><ele>424.0</ele><time>2026-05-01T12:52:03Z</time></trkpt><trkpt lat="44.31478234996412" lon="8.313914642712987"><ele>423.0</ele><time>2026-05-01T12:52:04Z</time></trkpt><trkpt lat="44.31459780428279" lon="8.313882793036218"><ele>422.0</ele><time>2026-05-01T12:52:05Z</time></trkpt><trkpt lat="44.31443702831329" lon="8.313778872028763"><ele>422.0</ele><time>2026-05-01T12:52:06Z</time></trkpt><trkpt lat="44.314251335451644" lon="8.313732364768404"><ele>422.0</ele><time>2026-05-01T12:52:07Z</time></trkpt><trkpt lat="44.31407335418054" lon="8.31375746372123"><ele>422.0</ele><time>2026-05-01T12:52:08Z</time></trkpt><trkpt lat="44.313885548600766" lon="8.313829558210509"><ele>427.0</ele><time>2026-05-01T12:52:09Z</time></trkpt><trkpt lat="44.313694704793164" lon="8.313768408040339"><ele>432.0</ele><time>2026-05-01T12:52:10Z</time></trkpt><trkpt lat="44.31355047357731" lon="8.313660908207169"><ele>437.0</ele><time>2026-05-01T12:52:11Z</time></trkpt><trkpt lat="44.31344417600151" lon="8.313488216983902"><ele>437.0</ele><time>2026-05-01T12:52:12Z</time></trkpt><trkpt lat="44.313315928326816" lon="8.313291474730184"><ele>437.0</ele><time>2026-05-01T12:52:13Z</time></trkpt><trkpt lat="44.31319783989504" lon="8.313055768074706"><ele>437.0</ele><time>2026-05-01T12:52:14Z</time></trkpt><trkpt lat="44.31307023608804" lon="8.312813660107174"><ele>434.0</ele><time>2026-05-01T12:52:15Z</time></trkpt><trkpt lat="44.31293733711083" lon="8.312620810770959"><ele>431.0</ele><time>2026-05-01T12:52:16Z</time></trkpt><trkpt lat="44.312826496984144" lon="8.31246022893392"><ele>428.0</ele><time>2026-05-01T12:52:17Z</time></trkpt><trkpt lat="44.312707800137346" lon="8.312372191651658"><ele>428.0</ele><time>2026-05-01T12:52:18Z</time></trkpt><trkpt lat="44.312564721817346" lon="8.312367371764452"><ele>428.0</ele><time>2026-05-01T12:52:19Z</time></trkpt><trkpt lat="44.312400616901016" lon="8.312436820042482"><ele>428.0</ele><time>2026-05-01T12:52:20Z</time></trkpt><trkpt lat="44.3122442846688" lon="8.312587622644454"><ele>426.3333333333333</ele><time>2026-05-01T12:52:21Z</time></trkpt><trkpt lat="44.31208248048484" lon="8.31278070675665"><ele>424.66666666666663</ele><time>2026-05-01T12:52:22Z</time></trkpt><trkpt lat="44.31190330783235" lon="8.312973141097036"><ele>423.0</ele><time>2026-05-01T12:52:23Z</time></trkpt><trkpt lat="44.31172385556162" lon="8.313142983750943"><ele>425.66666666666663</ele><time>2026-05-01T12:52:24Z</time></trkpt><trkpt lat="44.31155127828516" lon="8.313291671284647"><ele>428.3333333333333</ele><time>2026-05-01T12:52:25Z</time></trkpt><trkpt lat="44.311361837820485" lon="8.31335695182811"><ele>431.0</ele><time>2026-05-01T12:52:26Z</time></trkpt><trkpt lat="44.311152215091774" lon="8.313379974404599"><ele>431.0</ele><time>2026-05-01T12:52:27Z</time></trkpt><trkpt lat="44.3109187386338" lon="8.313372609112454"><ele>431.0</ele><time>2026-05-01T12:52:28Z</time></trkpt><trkpt lat="44.31068573718376" lon="8.313385706180238"><ele>432.3333333333333</ele><time>2026-05-01T12:52:29Z</time></trkpt><trkpt lat="44.310456626308074" lon="8.313374603419044"><ele>433.66666666666663</ele><time>2026-05-01T12:52:30Z</time></trkpt><trkpt lat="44.310257840650706" lon="8.313367908323562"><ele>435.0</ele><time>2026-05-01T12:52:31Z</time></trkpt><trkpt lat="44.31009084348646" lon="8.313292043835295"><ele>435.0</ele><time>2026-05-01T12:52:32Z</time></trkpt><trkpt lat="44.30994756390431" lon="8.313163930051228"><ele>435.0</ele><time>2026-05-01T12:52:33Z</time></trkpt><trkpt lat="44.309844218325374" lon="8.312967856296844"><ele>435.0</ele><time>2026-05-01T12:52:34Z</time></trkpt><trkpt lat="44.30975763898392" lon="8.312719954646715"><ele>442.0</ele><time>2026-05-01T12:52:35Z</time></trkpt><trkpt lat="44.309679331656874" lon="8.312456316306646"><ele>449.0</ele><time>2026-05-01T12:52:36Z</time></trkpt><trkpt lat="44.30964875738467" lon="8.312201209219698"><ele>456.0</ele><time>2026-05-01T12:52:37Z</time></trkpt><trkpt lat="44.30969004610227" lon="8.311979237008698"><ele>451.0</ele><time>2026-05-01T12:52:38Z</time></trkpt><trkpt lat="44.30976187224647" lon="8.31173742864639"><ele>446.0</ele><time>2026-05-01T12:52:39Z</time></trkpt><trkpt lat="44.309820684624825" lon="8.311475914169051"><ele>441.0</ele><time>2026-05-01T12:52:40Z</time></trkpt><trkpt lat="44.30984932234638" lon="8.311238504263594"><ele>441.0</ele><time>2026-05-01T12:52:41Z</time></trkpt><trkpt lat="44.30980232708486" lon="8.311033108673302"><ele>441.0</ele><time>2026-05-01T12:52:42Z</time></trkpt><trkpt lat="44.30968444680773" lon="8.31083868081799"><ele>441.0</ele><time>2026-05-01T12:52:43Z</time></trkpt><trkpt lat="44.309522667176864" lon="8.310645909152024"><ele>439.5</ele><time>2026-05-01T12:52:44Z</time></trkpt><trkpt lat="44.30935829097509" lon="8.310420840951252"><ele>438.0</ele><time>2026-05-01T12:52:45Z</time></trkpt><trkpt lat="44.30918851531422" lon="8.310176002716679"><ele>438.0</ele><time>2026-05-01T12:52:46Z</time></trkpt><trkpt lat="44.30899923653461" lon="8.309953303461958"><ele>438.0</ele><time>2026-05-01T12:52:47Z</time></trkpt><trkpt lat="44.30881226428914" lon="8.309730004877053"><ele>439.66666666666663</ele><time>2026-05-01T12:52:48Z</time></trkpt><trkpt lat="44.308648515134315" lon="8.309521779268948"><ele>441.3333333333333</ele><time>2026-05-01T12:52:49Z</time></trkpt><trkpt lat="44.308485565817634" lon="8.309344084465572"><ele>443.0</ele><time>2026-05-01T12:52:50Z</time></trkpt><trkpt lat="44.308282585776766" lon="8.309205619368633"><ele>451.0</ele><time>2026-05-01T12:52:51Z</time></trkpt><trkpt lat="44.30806179918191" lon="8.309097318466089"><ele>459.0</ele><time>2026-05-01T12:52:52Z</time></trkpt><trkpt lat="44.30781803152397" lon="8.308958331524659"><ele>448.0</ele><time>2026-05-01T12:52:53Z</time></trkpt><trkpt lat="44.30758935030182" lon="8.308804192877865"><ele>437.0</ele><time>2026-05-01T12:52:54Z</time></trkpt><trkpt lat="44.30735824157117" lon="8.30862717192032"><ele>447.5</ele><time>2026-05-01T12:52:55Z</time></trkpt><trkpt lat="44.3071055961328" lon="8.308472067569157"><ele>458.0</ele><time>2026-05-01T12:52:56Z</time></trkpt><trkpt lat="44.30685360252926" lon="8.30835044793481"><ele>458.0</ele><time>2026-05-01T12:52:57Z</time></trkpt><trkpt lat="44.306663481807924" lon="8.308274765170815"><ele>458.0</ele><time>2026-05-01T12:52:58Z</time></trkpt><trkpt lat="44.30654383955151" lon="8.308164267541668"><ele>458.0</ele><time>2026-05-01T12:52:59Z</time></trkpt><trkpt lat="44.306457289427236" lon="8.308010249509566"><ele>466.3333333333333</ele><time>2026-05-01T12:53:00Z</time></trkpt><trkpt lat="44.306404563154004" lon="8.3077865661655"><ele>474.66666666666663</ele><time>2026-05-01T12:53:01Z</time></trkpt><trkpt lat="44.30637070108551" lon="8.307529021850105"><ele>483.0</ele><time>2026-05-01T12:53:02Z</time></trkpt><trkpt lat="44.3063805540385" lon="8.307221632748231"><ele>483.5</ele><time>2026-05-01T12:53:03Z</time></trkpt><trkpt lat="44.306386637505376" lon="8.306896415480757"><ele>484.0</ele><time>2026-05-01T12:53:04Z</time></trkpt><trkpt lat="44.30638066735635" lon="8.306568494365191"><ele>484.0</ele><time>2026-05-01T12:53:05Z</time></trkpt><trkpt lat="44.30637256469734" lon="8.306228738253285"><ele>484.0</ele><time>2026-05-01T12:53:06Z</time></trkpt><trkpt lat="44.3063665219987" lon="8.305890737772623"><ele>483.5</ele><time>2026-05-01T12:53:07Z</time></trkpt><trkpt lat="44.30635848527159" lon="8.30556662013436"><ele>483.0</ele><time>2026-05-01T12:53:08Z</time></trkpt><trkpt lat="44.30634638975378" lon="8.305253951719646"><ele>483.0</ele><time>2026-05-01T12:53:09Z</time></trkpt><trkpt lat="44.306324862556046" lon="8.304780112195852"><ele>483.0</ele><time>2026-05-01T12:53:10Z</time></trkpt><trkpt lat="44.30624938703388" lon="8.304464743643832"><ele>478.5</ele><time>2026-05-01T12:53:11Z</time></trkpt><trkpt lat="44.306155572965864" lon="8.30417004814852"><ele>474.0</ele><time>2026-05-01T12:53:12Z</time></trkpt><trkpt lat="44.30603342649063" lon="8.303901448857479"><ele>464.0</ele><time>2026-05-01T12:53:13Z</time></trkpt><trkpt lat="44.30588142495614" lon="8.303656815433165"><ele>454.0</ele><time>2026-05-01T12:53:14Z</time></trkpt><trkpt lat="44.3057013841607" lon="8.30341398785427"><ele>454.5</ele><time>2026-05-01T12:53:15Z</time></trkpt><trkpt lat="44.30551101357875" lon="8.303162679668993"><ele>455.0</ele><time>2026-05-01T12:53:16Z</time></trkpt><trkpt lat="44.305312693828256" lon="8.302905877364026"><ele>455.0</ele><time>2026-05-01T12:53:17Z</time></trkpt><trkpt lat="44.305105027031026" lon="8.302658981232717"><ele>455.0</ele><time>2026-05-01T12:53:18Z</time></trkpt><trkpt lat="44.304909806990864" lon="8.302395362339551"><ele>457.0</ele><time>2026-05-01T12:53:19Z</time></trkpt><trkpt lat="44.30475311353679" lon="8.302137470487839"><ele>459.0</ele><time>2026-05-01T12:53:20Z</time></trkpt><trkpt lat="44.30463806974186" lon="8.301893536549738"><ele>459.0</ele><time>2026-05-01T12:53:21Z</time></trkpt><trkpt lat="44.30455067319509" lon="8.301695458616432"><ele>459.0</ele><time>2026-05-01T12:53:22Z</time></trkpt><trkpt lat="44.30446136072208" lon="8.301565625150632"><ele>459.0</ele><time>2026-05-01T12:53:23Z</time></trkpt><trkpt lat="44.3043421061118" lon="8.301492084604192"><ele>459.0</ele><time>2026-05-01T12:53:24Z</time></trkpt><trkpt lat="44.30417580604468" lon="8.301489296954813"><ele>459.0</ele><time>2026-05-01T12:53:25Z</time></trkpt><trkpt lat="44.30398903992135" lon="8.301454530616729"><ele>459.0</ele><time>2026-05-01T12:53:26Z</time></trkpt><trkpt lat="44.30378619664604" lon="8.301437422094788"><ele>459.0</ele><time>2026-05-01T12:53:27Z</time></trkpt><trkpt lat="44.30358275376398" lon="8.301386753926911"><ele>455.0</ele><time>2026-05-01T12:53:28Z</time></trkpt><trkpt lat="44.303414677192784" lon="8.301325919939897"><ele>451.0</ele><time>2026-05-01T12:53:29Z</time></trkpt><trkpt lat="44.30328777843078" lon="8.301278441552533"><ele>447.0</ele><time>2026-05-01T12:53:30Z</time></trkpt><trkpt lat="44.30318238568237" lon="8.30130622563061"><ele>443.0</ele><time>2026-05-01T12:53:31Z</time></trkpt><trkpt lat="44.303126149041944" lon="8.301407435436362"><ele>444.66666666666663</ele><time>2026-05-01T12:53:32Z</time></trkpt><trkpt lat="44.30306249270307" lon="8.301592212911146"><ele>446.33333333333337</ele><time>2026-05-01T12:53:33Z</time></trkpt><trkpt lat="44.30301213308217" lon="8.30184175555599"><ele>448.0</ele><time>2026-05-01T12:53:34Z</time></trkpt><trkpt lat="44.30294011910553" lon="8.302091421794978"><ele>447.33333333333337</ele><time>2026-05-01T12:53:35Z</time></trkpt><trkpt lat="44.302845499730886" lon="8.30235027901374"><ele>446.66666666666663</ele><time>2026-05-01T12:53:36Z</time></trkpt><trkpt lat="44.3027726016077" lon="8.302615449616372"><ele>446.0</ele><time>2026-05-01T12:53:37Z</time></trkpt><trkpt lat="44.30270007045193" lon="8.302840457059894"><ele>446.0</ele><time>2026-05-01T12:53:38Z</time></trkpt><trkpt lat="44.30259944223676" lon="8.303032336078804"><ele>446.0</ele><time>2026-05-01T12:53:39Z</time></trkpt><trkpt lat="44.30244632196668" lon="8.303203515395484"><ele>446.0</ele><time>2026-05-01T12:53:40Z</time></trkpt><trkpt lat="44.30230406221772" lon="8.30338033625104"><ele>446.75</ele><time>2026-05-01T12:53:41Z</time></trkpt><trkpt lat="44.30216145783499" lon="8.303494480220571"><ele>447.5</ele><time>2026-05-01T12:53:42Z</time></trkpt><trkpt lat="44.3020393707288" lon="8.303555383863022"><ele>448.25</ele><time>2026-05-01T12:53:43Z</time></trkpt><trkpt lat="44.30190955528227" lon="8.30353639726228"><ele>449.0</ele><time>2026-05-01T12:53:44Z</time></trkpt><trkpt lat="44.30176785953365" lon="8.303506635969706"><ele>449.0</ele><time>2026-05-01T12:53:45Z</time></trkpt><trkpt lat="44.30159663437309" lon="8.303482232297426"><ele>449.0</ele><time>2026-05-01T12:53:46Z</time></trkpt><trkpt lat="44.30142516780059" lon="8.303418606772265"><ele>449.0</ele><time>2026-05-01T12:53:47Z</time></trkpt><trkpt lat="44.301249546218884" lon="8.303408139631657"><ele>448.66666666666663</ele><time>2026-05-01T12:53:48Z</time></trkpt><trkpt lat="44.301072360956304" lon="8.303493761261766"><ele>448.33333333333337</ele><time>2026-05-01T12:53:49Z</time></trkpt><trkpt lat="44.30089576204082" lon="8.303674447924884"><ele>448.0</ele><time>2026-05-01T12:53:50Z</time></trkpt><trkpt lat="44.3006920370501" lon="8.303788108834787"><ele>447.0</ele><time>2026-05-01T12:53:51Z</time></trkpt><trkpt lat="44.300491220121415" lon="8.303837662725545"><ele>446.0</ele><time>2026-05-01T12:53:52Z</time></trkpt><trkpt lat="44.30031942884351" lon="8.30383147864021"><ele>445.0</ele><time>2026-05-01T12:53:53Z</time></trkpt><trkpt lat="44.30013734483514" lon="8.303810993376983"><ele>445.0</ele><time>2026-05-01T12:53:54Z</time></trkpt><trkpt lat="44.299967083196826" lon="8.303782293115612"><ele>445.0</ele><time>2026-05-01T12:53:55Z</time></trkpt><trkpt lat="44.29981947227154" lon="8.303731898671051"><ele>445.0</ele><time>2026-05-01T12:53:56Z</time></trkpt><trkpt lat="44.29968569972924" lon="8.303696945072353"><ele>445.6666666666667</ele><time>2026-05-01T12:53:57Z</time></trkpt><trkpt lat="44.299555257200915" lon="8.303713964682181"><ele>446.33333333333337</ele><time>2026-05-01T12:53:58Z</time></trkpt><trkpt lat="44.2994164316039" lon="8.303816746437043"><ele>447.0</ele><time>2026-05-01T12:53:59Z</time></trkpt><trkpt lat="44.29926788195847" lon="8.303938288548665"><ele>449.0</ele><time>2026-05-01T12:54:00Z</time></trkpt><trkpt lat="44.299088723172254" lon="8.303999930661213"><ele>451.0</ele><time>2026-05-01T12:54:01Z</time></trkpt><trkpt lat="44.298889019419654" lon="8.304000682320035"><ele>453.0</ele><time>2026-05-01T12:54:02Z</time></trkpt><trkpt lat="44.29868793026564" lon="8.303980631979007"><ele>454.0</ele><time>2026-05-01T12:54:03Z</time></trkpt><trkpt lat="44.298473611595846" lon="8.30398611717631"><ele>455.0</ele><time>2026-05-01T12:54:04Z</time></trkpt><trkpt lat="44.29826466172344" lon="8.304020992429452"><ele>456.0</ele><time>2026-05-01T12:54:05Z</time></trkpt><trkpt lat="44.29810011902363" lon="8.304089703702637"><ele>456.33333333333337</ele><time>2026-05-01T12:54:06Z</time></trkpt><trkpt lat="44.29793334942991" lon="8.30413959758812"><ele>456.6666666666667</ele><time>2026-05-01T12:54:07Z</time></trkpt><trkpt lat="44.29779683962655" lon="8.304109635458172"><ele>457.0</ele><time>2026-05-01T12:54:08Z</time></trkpt><trkpt lat="44.297669161325835" lon="8.304022565648893"><ele>455.25</ele><time>2026-05-01T12:54:09Z</time></trkpt><trkpt lat="44.29754065607507" lon="8.303907106307804"><ele>453.5</ele><time>2026-05-01T12:54:10Z</time></trkpt><trkpt lat="44.29742272708698" lon="8.303788426704688"><ele>451.75</ele><time>2026-05-01T12:54:11Z</time></trkpt><trkpt lat="44.297343016583696" lon="8.303699272605924"><ele>450.0</ele><time>2026-05-01T12:54:12Z</time></trkpt><trkpt lat="44.29730556822312" lon="8.303621588674911"><ele>450.0</ele><time>2026-05-01T12:54:13Z</time></trkpt><trkpt lat="44.297283021250976" lon="8.303536518285803"><ele>450.0</ele><time>2026-05-01T12:54:14Z</time></trkpt><trkpt lat="44.297286725787316" lon="8.303432188309701"><ele>450.0</ele><time>2026-05-01T12:54:15Z</time></trkpt><trkpt lat="44.29730539748235" lon="8.303290481798362"><ele>450.0</ele><time>2026-05-01T12:54:16Z</time></trkpt><trkpt lat="44.297346474242055" lon="8.303119907508234"><ele>450.0</ele><time>2026-05-01T12:54:17Z</time></trkpt><trkpt lat="44.297393553554286" lon="8.302910510306207"><ele>449.33333333333337</ele><time>2026-05-01T12:54:18Z</time></trkpt><trkpt lat="44.29743598885385" lon="8.302668991264232"><ele>448.6666666666667</ele><time>2026-05-01T12:54:19Z</time></trkpt><trkpt lat="44.297479985444994" lon="8.302399105805963"><ele>448.0</ele><time>2026-05-01T12:54:20Z</time></trkpt><trkpt lat="44.2975307009518" lon="8.302090153313834"><ele>446.5</ele><time>2026-05-01T12:54:21Z</time></trkpt><trkpt lat="44.29758465921294" lon="8.30178700585134"><ele>445.0</ele><time>2026-05-01T12:54:22Z</time></trkpt><trkpt lat="44.29764454053406" lon="8.301461519829086"><ele>445.6666666666667</ele><time>2026-05-01T12:54:23Z</time></trkpt><trkpt lat="44.297697302289585" lon="8.301181953212021"><ele>446.33333333333337</ele><time>2026-05-01T12:54:24Z</time></trkpt><trkpt lat="44.29774660430977" lon="8.30092529734414"><ele>447.0</ele><time>2026-05-01T12:54:25Z</time></trkpt><trkpt lat="44.297786679824185" lon="8.300704167334764"><ele>448.5</ele><time>2026-05-01T12:54:26Z</time></trkpt><trkpt lat="44.29781042555608" lon="8.300522063544218"><ele>450.0</ele><time>2026-05-01T12:54:27Z</time></trkpt><trkpt lat="44.29780040539066" lon="8.300380419036923"><ele>451.5</ele><time>2026-05-01T12:54:28Z</time></trkpt><trkpt lat="44.29775519657508" lon="8.300249613658893"><ele>453.0</ele><time>2026-05-01T12:54:29Z</time></trkpt><trkpt lat="44.297670888874066" lon="8.300119143350626"><ele>453.0</ele><time>2026-05-01T12:54:30Z</time></trkpt><trkpt lat="44.29755402587582" lon="8.299982025665424"><ele>453.0</ele><time>2026-05-01T12:54:31Z</time></trkpt><trkpt lat="44.29741338557742" lon="8.29982127591363"><ele>453.0</ele><time>2026-05-01T12:54:32Z</time></trkpt><trkpt lat="44.29727701304988" lon="8.29965309662563"><ele>454.66666666666663</ele><time>2026-05-01T12:54:33Z</time></trkpt><trkpt lat="44.297136505734336" lon="8.299495969598716"><ele>456.3333333333333</ele><time>2026-05-01T12:54:34Z</time></trkpt><trkpt lat="44.29697191700845" lon="8.299340317735144"><ele>458.0</ele><time>2026-05-01T12:54:35Z</time></trkpt><trkpt lat="44.29682211612729" lon="8.29919482579995"><ele>458.0</ele><time>2026-05-01T12:54:36Z</time></trkpt><trkpt lat="44.29668535961936" lon="8.299060900863111"><ele>458.0</ele><time>2026-05-01T12:54:37Z</time></trkpt><trkpt lat="44.29657817083124" lon="8.29890648776892"><ele>458.0</ele><time>2026-05-01T12:54:38Z</time></trkpt><trkpt lat="44.29645915600524" lon="8.298733531700769"><ele>460.3333333333333</ele><time>2026-05-01T12:54:39Z</time></trkpt><trkpt lat="44.29633470326371" lon="8.298582864870038"><ele>462.66666666666663</ele><time>2026-05-01T12:54:40Z</time></trkpt><trkpt lat="44.2961820804929" lon="8.298471486913169"><ele>465.0</ele><time>2026-05-01T12:54:41Z</time></trkpt><trkpt lat="44.29600448483184" lon="8.298366759865639"><ele>465.0</ele><time>2026-05-01T12:54:42Z</time></trkpt><trkpt lat="44.295800984571535" lon="8.298275676200841"><ele>465.0</ele><time>2026-05-01T12:54:43Z</time></trkpt><trkpt lat="44.29558475791079" lon="8.298212465951107"><ele>465.0</ele><time>2026-05-01T12:54:44Z</time></trkpt><trkpt lat="44.29538113422888" lon="8.298093793472114"><ele>469.66666666666663</ele><time>2026-05-01T12:54:45Z</time></trkpt><trkpt lat="44.295182228467304" lon="8.297950236929502"><ele>474.3333333333333</ele><time>2026-05-01T12:54:46Z</time></trkpt><trkpt lat="44.29501215223771" lon="8.29784638981813"><ele>479.0</ele><time>2026-05-01T12:54:47Z</time></trkpt><trkpt lat="44.29484547947919" lon="8.297782507761418"><ele>473.75</ele><time>2026-05-01T12:54:48Z</time></trkpt><trkpt lat="44.29469292950486" lon="8.297726945134798"><ele>468.5</ele><time>2026-05-01T12:54:49Z</time></trkpt><trkpt lat="44.29455225665129" lon="8.297657472674157"><ele>463.25</ele><time>2026-05-01T12:54:50Z</time></trkpt><trkpt lat="44.2944444518323" lon="8.297589379729319"><ele>458.0</ele><time>2026-05-01T12:54:51Z</time></trkpt><trkpt lat="44.29436904873755" lon="8.29749415633172"><ele>458.0</ele><time>2026-05-01T12:54:52Z</time></trkpt><trkpt lat="44.29426391517038" lon="8.297366473509491"><ele>458.0</ele><time>2026-05-01T12:54:53Z</time></trkpt><trkpt lat="44.29412285684797" lon="8.297205797213541"><ele>458.0</ele><time>2026-05-01T12:54:54Z</time></trkpt><trkpt lat="44.29396042093734" lon="8.297060678569759"><ele>457.0</ele><time>2026-05-01T12:54:55Z</time></trkpt><trkpt lat="44.29378863691166" lon="8.296924065408428"><ele>456.0</ele><time>2026-05-01T12:54:56Z</time></trkpt><trkpt lat="44.29360236751781" lon="8.296794406745072"><ele>455.0</ele><time>2026-05-01T12:54:57Z</time></trkpt><trkpt lat="44.293411279494684" lon="8.296677166894948"><ele>455.0</ele><time>2026-05-01T12:54:58Z</time></trkpt><trkpt lat="44.29322742599858" lon="8.296535166678671"><ele>455.0</ele><time>2026-05-01T12:54:59Z</time></trkpt><trkpt lat="44.29303073722561" lon="8.296398952898862"><ele>455.0</ele><time>2026-05-01T12:55:00Z</time></trkpt><trkpt lat="44.29282226159016" lon="8.296284003454067"><ele>454.3333333333333</ele><time>2026-05-01T12:55:01Z</time></trkpt><trkpt lat="44.29263760687194" lon="8.296146977549373"><ele>453.66666666666663</ele><time>2026-05-01T12:55:02Z</time></trkpt><trkpt lat="44.29246773476042" lon="8.29604635381113"><ele>453.0</ele><time>2026-05-01T12:55:03Z</time></trkpt><trkpt lat="44.292328224232186" lon="8.295948571350893"><ele>453.25</ele><time>2026-05-01T12:55:04Z</time></trkpt><trkpt lat="44.29221531920014" lon="8.295845381421493"><ele>453.5</ele><time>2026-05-01T12:55:05Z</time></trkpt><trkpt lat="44.29213088611331" lon="8.295744230810811"><ele>453.75</ele><time>2026-05-01T12:55:06Z</time></trkpt><trkpt lat="44.29203287008487" lon="8.295663920300079"><ele>454.0</ele><time>2026-05-01T12:55:07Z</time></trkpt><trkpt lat="44.29193335813734" lon="8.295551118478352"><ele>454.25</ele><time>2026-05-01T12:55:08Z</time></trkpt><trkpt lat="44.29184002213457" lon="8.295396084533502"><ele>454.5</ele><time>2026-05-01T12:55:09Z</time></trkpt><trkpt lat="44.29174311445054" lon="8.29525522847838"><ele>454.75</ele><time>2026-05-01T12:55:10Z</time></trkpt><trkpt lat="44.29167942500894" lon="8.295105518086908"><ele>455.0</ele><time>2026-05-01T12:55:11Z</time></trkpt><trkpt lat="44.29164382262652" lon="8.29492176780611"><ele>455.25</ele><time>2026-05-01T12:55:12Z</time></trkpt><trkpt lat="44.29161964120784" lon="8.294711586690536"><ele>455.5</ele><time>2026-05-01T12:55:13Z</time></trkpt><trkpt lat="44.29160166624905" lon="8.294505018483136"><ele>455.75</ele><time>2026-05-01T12:55:14Z</time></trkpt><trkpt lat="44.291600416955305" lon="8.294342172150811"><ele>456.0</ele><time>2026-05-01T12:55:15Z</time></trkpt><trkpt lat="44.29160723028859" lon="8.294217080451926"><ele>456.0</ele><time>2026-05-01T12:55:16Z</time></trkpt><trkpt lat="44.29161915538271" lon="8.294042229964544"><ele>456.0</ele><time>2026-05-01T12:55:18Z</time></trkpt><trkpt lat="44.29162052713205" lon="8.293887467607826"><ele>456.0</ele><time>2026-05-01T12:55:19Z</time></trkpt><trkpt lat="44.29162301552591" lon="8.293701834901798"><ele>456.0</ele><time>2026-05-01T12:55:20Z</time></trkpt><trkpt lat="44.29163796919954" lon="8.293509984281918"><ele>456.33333333333337</ele><time>2026-05-01T12:55:21Z</time></trkpt><trkpt lat="44.29167282828259" lon="8.293310570124806"><ele>456.6666666666667</ele><time>2026-05-01T12:55:22Z</time></trkpt><trkpt lat="44.29172913559248" lon="8.293107779349452"><ele>457.0</ele><time>2026-05-01T12:55:23Z</time></trkpt><trkpt lat="44.29179863842949" lon="8.292883981128101"><ele>457.33333333333337</ele><time>2026-05-01T12:55:24Z</time></trkpt><trkpt lat="44.29187985324788" lon="8.292666919819053"><ele>457.66666666666663</ele><time>2026-05-01T12:55:25Z</time></trkpt><trkpt lat="44.29198422967414" lon="8.29243693585856"><ele>458.0</ele><time>2026-05-01T12:55:26Z</time></trkpt><trkpt lat="44.2920868720754" lon="8.292215855353142"><ele>458.66666666666663</ele><time>2026-05-01T12:55:27Z</time></trkpt><trkpt lat="44.29218920527199" lon="8.29197925535645"><ele>459.33333333333337</ele><time>2026-05-01T12:55:28Z</time></trkpt><trkpt lat="44.29228489291697" lon="8.291744885211706"><ele>460.0</ele><time>2026-05-01T12:55:29Z</time></trkpt><trkpt lat="44.29236835855542" lon="8.291537350708644"><ele>461.0</ele><time>2026-05-01T12:55:30Z</time></trkpt><trkpt lat="44.29244209290722" lon="8.29134739943456"><ele>462.0</ele><time>2026-05-01T12:55:31Z</time></trkpt><trkpt lat="44.292489959746035" lon="8.291166339918421"><ele>463.0</ele><time>2026-05-01T12:55:32Z</time></trkpt><trkpt lat="44.292520715322716" lon="8.290959004943334"><ele>464.0</ele><time>2026-05-01T12:55:33Z</time></trkpt><trkpt lat="44.29253682099431" lon="8.290730595030162"><ele>464.3333333333333</ele><time>2026-05-01T12:55:34Z</time></trkpt><trkpt lat="44.29254356521373" lon="8.29049782858198"><ele>464.66666666666663</ele><time>2026-05-01T12:55:35Z</time></trkpt><trkpt lat="44.29254841176622" lon="8.290267961102991"><ele>465.0</ele><time>2026-05-01T12:55:36Z</time></trkpt><trkpt lat="44.29255509813994" lon="8.290031835213398"><ele>465.0</ele><time>2026-05-01T12:55:37Z</time></trkpt><trkpt lat="44.29256531228634" lon="8.289795813751482"><ele>465.0</ele><time>2026-05-01T12:55:38Z</time></trkpt><trkpt lat="44.29257807640263" lon="8.289549062014085"><ele>465.0</ele><time>2026-05-01T12:55:39Z</time></trkpt><trkpt lat="44.29259275483737" lon="8.28930614069826"><ele>465.0</ele><time>2026-05-01T12:55:40Z</time></trkpt><trkpt lat="44.2926022264827" lon="8.2890874083659"><ele>465.0</ele><time>2026-05-01T12:55:41Z</time></trkpt><trkpt lat="44.292614810821476" lon="8.288888478941129"><ele>465.0</ele><time>2026-05-01T12:55:42Z</time></trkpt><trkpt lat="44.292641659084744" lon="8.288693953705511"><ele>465.0</ele><time>2026-05-01T12:55:43Z</time></trkpt><trkpt lat="44.29268866808513" lon="8.288494893387998"><ele>465.0</ele><time>2026-05-01T12:55:44Z</time></trkpt><trkpt lat="44.29277389583368" lon="8.288308322136837"><ele>465.0</ele><time>2026-05-01T12:55:45Z</time></trkpt><trkpt lat="44.29285114599967" lon="8.288087432631551"><ele>465.0</ele><time>2026-05-01T12:55:46Z</time></trkpt><trkpt lat="44.2929537500346" lon="8.287880951668601"><ele>464.66666666666663</ele><time>2026-05-01T12:55:47Z</time></trkpt><trkpt lat="44.293058180262555" lon="8.287662689019148"><ele>464.3333333333333</ele><time>2026-05-01T12:55:48Z</time></trkpt><trkpt lat="44.29315401905253" lon="8.28745189284663"><ele>464.0</ele><time>2026-05-01T12:55:49Z</time></trkpt><trkpt lat="44.2932373595488" lon="8.287240240367419"><ele>468.3333333333333</ele><time>2026-05-01T12:55:50Z</time></trkpt><trkpt lat="44.293301857906506" lon="8.287009482474483"><ele>472.66666666666663</ele><time>2026-05-01T12:55:51Z</time></trkpt><trkpt lat="44.29334122614638" lon="8.286746655250937"><ele>477.0</ele><time>2026-05-01T12:55:52Z</time></trkpt><trkpt lat="44.29334963311877" lon="8.286445756803563"><ele>479.0</ele><time>2026-05-01T12:55:53Z</time></trkpt><trkpt lat="44.29332334229204" lon="8.286139086424745"><ele>481.0</ele><time>2026-05-01T12:55:54Z</time></trkpt><trkpt lat="44.293272183383166" lon="8.285853256236386"><ele>483.0</ele><time>2026-05-01T12:55:55Z</time></trkpt><trkpt lat="44.2932023460132" lon="8.285614344925595"><ele>484.0</ele><time>2026-05-01T12:55:56Z</time></trkpt><trkpt lat="44.29310030808326" lon="8.285406957910572"><ele>485.0</ele><time>2026-05-01T12:55:57Z</time></trkpt><trkpt lat="44.29296785490133" lon="8.285207729175852"><ele>486.0</ele><time>2026-05-01T12:55:58Z</time></trkpt><trkpt lat="44.29281389986486" lon="8.284986752183183"><ele>481.0</ele><time>2026-05-01T12:55:59Z</time></trkpt><trkpt lat="44.29266630028495" lon="8.284755564678148"><ele>476.0</ele><time>2026-05-01T12:56:00Z</time></trkpt><trkpt lat="44.292512450933366" lon="8.284514112738089"><ele>476.0</ele><time>2026-05-01T12:56:01Z</time></trkpt><trkpt lat="44.29235574309034" lon="8.28427073534626"><ele>476.0</ele><time>2026-05-01T12:56:02Z</time></trkpt><trkpt lat="44.29217600583018" lon="8.283996564856698"><ele>477.5</ele><time>2026-05-01T12:56:03Z</time></trkpt><trkpt lat="44.29200860977971" lon="8.283770159732832"><ele>479.0</ele><time>2026-05-01T12:56:04Z</time></trkpt><trkpt lat="44.29181540561147" lon="8.283543076032744"><ele>479.0</ele><time>2026-05-01T12:56:05Z</time></trkpt><trkpt lat="44.29161405584746" lon="8.283337246839652"><ele>479.0</ele><time>2026-05-01T12:56:06Z</time></trkpt><trkpt lat="44.29141259843066" lon="8.283149906273485"><ele>481.0</ele><time>2026-05-01T12:56:07Z</time></trkpt><trkpt lat="44.2911961552736" lon="8.282989395179193"><ele>483.0</ele><time>2026-05-01T12:56:08Z</time></trkpt><trkpt lat="44.2909847196712" lon="8.282820152215693"><ele>483.0</ele><time>2026-05-01T12:56:09Z</time></trkpt><trkpt lat="44.29078596878541" lon="8.282625184190834"><ele>483.0</ele><time>2026-05-01T12:56:10Z</time></trkpt><trkpt lat="44.29059067818619" lon="8.282420018813298"><ele>483.0</ele><time>2026-05-01T12:56:11Z</time></trkpt><trkpt lat="44.2903835520907" lon="8.282203193749805"><ele>483.0</ele><time>2026-05-01T12:56:12Z</time></trkpt><trkpt lat="44.290181961850834" lon="8.282000703062653"><ele>483.0</ele><time>2026-05-01T12:56:13Z</time></trkpt><trkpt lat="44.28998941862885" lon="8.281832206627096"><ele>483.0</ele><time>2026-05-01T12:56:14Z</time></trkpt><trkpt lat="44.28981706936567" lon="8.2816809920707"><ele>483.0</ele><time>2026-05-01T12:56:15Z</time></trkpt><trkpt lat="44.28967928718986" lon="8.28148376140989"><ele>485.0</ele><time>2026-05-01T12:56:16Z</time></trkpt><trkpt lat="44.289537568428855" lon="8.281335447982665"><ele>487.0</ele><time>2026-05-01T12:56:17Z</time></trkpt><trkpt lat="44.28939742961186" lon="8.281184963879323"><ele>489.0</ele><time>2026-05-01T12:56:18Z</time></trkpt><trkpt lat="44.28923160893452" lon="8.28105857519843"><ele>489.0</ele><time>2026-05-01T12:56:19Z</time></trkpt><trkpt lat="44.28904420447986" lon="8.28095197011273"><ele>489.0</ele><time>2026-05-01T12:56:20Z</time></trkpt><trkpt lat="44.288845613774775" lon="8.280870796079537"><ele>489.0</ele><time>2026-05-01T12:56:21Z</time></trkpt><trkpt lat="44.28865820262182" lon="8.280812735507032"><ele>490.66666666666663</ele><time>2026-05-01T12:56:22Z</time></trkpt><trkpt lat="44.28848859398478" lon="8.280701436768917"><ele>492.3333333333333</ele><time>2026-05-01T12:56:23Z</time></trkpt><trkpt lat="44.28830895308773" lon="8.280586903998651"><ele>494.0</ele><time>2026-05-01T12:56:24Z</time></trkpt><trkpt lat="44.28811591099456" lon="8.280485362837135"><ele>490.3333333333333</ele><time>2026-05-01T12:56:25Z</time></trkpt><trkpt lat="44.28792333939507" lon="8.280367444347622"><ele>486.66666666666663</ele><time>2026-05-01T12:56:26Z</time></trkpt><trkpt lat="44.28774765518163" lon="8.280262212389486"><ele>483.0</ele><time>2026-05-01T12:56:27Z</time></trkpt><trkpt lat="44.287581923790505" lon="8.28016510414878"><ele>483.0</ele><time>2026-05-01T12:56:28Z</time></trkpt><trkpt lat="44.28741076811572" lon="8.280068594977177"><ele>483.0</ele><time>2026-05-01T12:56:29Z</time></trkpt><trkpt lat="44.287253257353335" lon="8.27997334931768"><ele>483.0</ele><time>2026-05-01T12:56:30Z</time></trkpt><trkpt lat="44.287135322531256" lon="8.279873703993351"><ele>483.0</ele><time>2026-05-01T12:56:31Z</time></trkpt><trkpt lat="44.28707369802093" lon="8.279737416629079"><ele>483.0</ele><time>2026-05-01T12:56:32Z</time></trkpt><trkpt lat="44.28702786540241" lon="8.279598836351873"><ele>483.0</ele><time>2026-05-01T12:56:33Z</time></trkpt><trkpt lat="44.28696245182021" lon="8.27940759394832"><ele>483.0</ele><time>2026-05-01T12:56:34Z</time></trkpt><trkpt lat="44.286898070942165" lon="8.27917214969917"><ele>485.33333333333337</ele><time>2026-05-01T12:56:35Z</time></trkpt><trkpt lat="44.28681651587684" lon="8.278911730143545"><ele>487.6666666666667</ele><time>2026-05-01T12:56:36Z</time></trkpt><trkpt lat="44.28672814521063" lon="8.27864046317829"><ele>490.0</ele><time>2026-05-01T12:56:37Z</time></trkpt><trkpt lat="44.286639664519726" lon="8.278360255236436"><ele>488.6666666666667</ele><time>2026-05-01T12:56:38Z</time></trkpt><trkpt lat="44.28654676315411" lon="8.278074901385612"><ele>487.33333333333337</ele><time>2026-05-01T12:56:39Z</time></trkpt><trkpt lat="44.286457127992044" lon="8.277810973553883"><ele>486.0</ele><time>2026-05-01T12:56:40Z</time></trkpt><trkpt lat="44.28638475614602" lon="8.277566004011716"><ele>486.0</ele><time>2026-05-01T12:56:41Z</time></trkpt><trkpt lat="44.28630416810508" lon="8.27731626979446"><ele>486.0</ele><time>2026-05-01T12:56:42Z</time></trkpt><trkpt lat="44.28621748624711" lon="8.277055005370276"><ele>486.0</ele><time>2026-05-01T12:56:43Z</time></trkpt><trkpt lat="44.286192121638805" lon="8.276749269244313"><ele>487.0</ele><time>2026-05-01T12:56:44Z</time></trkpt><trkpt lat="44.28612165274519" lon="8.276501474055893"><ele>488.0</ele><time>2026-05-01T12:56:45Z</time></trkpt><trkpt lat="44.28605005714387" lon="8.276256406775579"><ele>489.0</ele><time>2026-05-01T12:56:46Z</time></trkpt><trkpt lat="44.28599782374817" lon="8.276037690706186"><ele>489.75</ele><time>2026-05-01T12:56:47Z</time></trkpt><trkpt lat="44.28596740622133" lon="8.275868172778623"><ele>490.5</ele><time>2026-05-01T12:56:48Z</time></trkpt><trkpt lat="44.285956392101866" lon="8.275734501189515"><ele>491.25</ele><time>2026-05-01T12:56:49Z</time></trkpt><trkpt lat="44.2859579181021" lon="8.275588661912353"><ele>492.0</ele><time>2026-05-01T12:56:50Z</time></trkpt><trkpt lat="44.28596144689692" lon="8.275403934783014"><ele>493.33333333333337</ele><time>2026-05-01T12:56:51Z</time></trkpt><trkpt lat="44.28596234478918" lon="8.275189992366622"><ele>494.6666666666667</ele><time>2026-05-01T12:56:52Z</time></trkpt><trkpt lat="44.28596054776768" lon="8.274946116042209"><ele>496.0</ele><time>2026-05-01T12:56:53Z</time></trkpt><trkpt lat="44.285955930261174" lon="8.27468787212213"><ele>498.0</ele><time>2026-05-01T12:56:54Z</time></trkpt><trkpt lat="44.28595381643185" lon="8.27440435335068"><ele>500.0</ele><time>2026-05-01T12:56:55Z</time></trkpt><trkpt lat="44.285942780356926" lon="8.27415270236235"><ele>502.0</ele><time>2026-05-01T12:56:56Z</time></trkpt><trkpt lat="44.285918017758405" lon="8.273934753320795"><ele>509.33333333333337</ele><time>2026-05-01T12:56:57Z</time></trkpt><trkpt lat="44.285868934978154" lon="8.273741609942077"><ele>516.6666666666666</ele><time>2026-05-01T12:56:58Z</time></trkpt><trkpt lat="44.28577282967141" lon="8.273591913095188"><ele>524.0</ele><time>2026-05-01T12:56:59Z</time></trkpt><trkpt lat="44.2856198644361" lon="8.273456663910428"><ele>518.0</ele><time>2026-05-01T12:57:00Z</time></trkpt><trkpt lat="44.28544140752364" lon="8.273351454509427"><ele>512.0</ele><time>2026-05-01T12:57:01Z</time></trkpt><trkpt lat="44.28524338848107" lon="8.273279389456155"><ele>506.0</ele><time>2026-05-01T12:57:02Z</time></trkpt><trkpt lat="44.28503926944889" lon="8.27319582645943"><ele>509.5</ele><time>2026-05-01T12:57:03Z</time></trkpt><trkpt lat="44.2848248022636" lon="8.273102104108268"><ele>513.0</ele><time>2026-05-01T12:57:04Z</time></trkpt><trkpt lat="44.284602962220404" lon="8.27298167494699"><ele>513.0</ele><time>2026-05-01T12:57:05Z</time></trkpt><trkpt lat="44.284389019623276" lon="8.272849525928281"><ele>513.0</ele><time>2026-05-01T12:57:06Z</time></trkpt><trkpt lat="44.28421089977815" lon="8.27273605963842"><ele>513.0</ele><time>2026-05-01T12:57:07Z</time></trkpt><trkpt lat="44.284080393425924" lon="8.272632168083119"><ele>513.0</ele><time>2026-05-01T12:57:08Z</time></trkpt><trkpt lat="44.28399864355199" lon="8.272506080992356"><ele>513.0</ele><time>2026-05-01T12:57:09Z</time></trkpt><trkpt lat="44.28395143629443" lon="8.272326836947153"><ele>513.0</ele><time>2026-05-01T12:57:10Z</time></trkpt><trkpt lat="44.283912508021196" lon="8.272113672285645"><ele>513.0</ele><time>2026-05-01T12:57:11Z</time></trkpt><trkpt lat="44.28385920999845" lon="8.271894166521806"><ele>514.0</ele><time>2026-05-01T12:57:12Z</time></trkpt><trkpt lat="44.28377393698955" lon="8.271686074057065"><ele>515.0</ele><time>2026-05-01T12:57:13Z</time></trkpt><trkpt lat="44.283646869052085" lon="8.27150358033073"><ele>516.0</ele><time>2026-05-01T12:57:14Z</time></trkpt><trkpt lat="44.28349214049752" lon="8.271358784500988"><ele>518.6666666666666</ele><time>2026-05-01T12:57:15Z</time></trkpt><trkpt lat="44.28330811201033" lon="8.271227207715068"><ele>521.3333333333333</ele><time>2026-05-01T12:57:16Z</time></trkpt><trkpt lat="44.28312186537768" lon="8.271139945899451"><ele>524.0</ele><time>2026-05-01T12:57:17Z</time></trkpt><trkpt lat="44.28296856109853" lon="8.271101481981992"><ele>524.0</ele><time>2026-05-01T12:57:18Z</time></trkpt><trkpt lat="44.28285331766226" lon="8.27107826852026"><ele>524.0</ele><time>2026-05-01T12:57:19Z</time></trkpt><trkpt lat="44.282772352966596" lon="8.271012352787423"><ele>524.0</ele><time>2026-05-01T12:57:20Z</time></trkpt><trkpt lat="44.28273563401141" lon="8.270894476435714"><ele>524.0</ele><time>2026-05-01T12:57:21Z</time></trkpt><trkpt lat="44.28275346160112" lon="8.270768204358887"><ele>524.0</ele><time>2026-05-01T12:57:22Z</time></trkpt><trkpt lat="44.28282535261664" lon="8.27062677029084"><ele>523.0</ele><time>2026-05-01T12:57:23Z</time></trkpt><trkpt lat="44.28292168492547" lon="8.270470169043511"><ele>522.0</ele><time>2026-05-01T12:57:24Z</time></trkpt><trkpt lat="44.28299623606638" lon="8.270268014153968"><ele>521.0</ele><time>2026-05-01T12:57:25Z</time></trkpt><trkpt lat="44.28304771682159" lon="8.27001861646775"><ele>529.0</ele><time>2026-05-01T12:57:26Z</time></trkpt><trkpt lat="44.28311228432234" lon="8.269780510559668"><ele>537.0</ele><time>2026-05-01T12:57:27Z</time></trkpt><trkpt lat="44.28318124185176" lon="8.269550830215799"><ele>545.0</ele><time>2026-05-01T12:57:28Z</time></trkpt><trkpt lat="44.28325940718518" lon="8.269369930900076"><ele>545.0</ele><time>2026-05-01T12:57:29Z</time></trkpt><trkpt lat="44.28337228279194" lon="8.26923087789287"><ele>545.0</ele><time>2026-05-01T12:57:30Z</time></trkpt><trkpt lat="44.28351334613482" lon="8.269092589956967"><ele>545.0</ele><time>2026-05-01T12:57:31Z</time></trkpt><trkpt lat="44.28361266406937" lon="8.26888663121882"><ele>545.3333333333333</ele><time>2026-05-01T12:57:32Z</time></trkpt><trkpt lat="44.283641884621545" lon="8.268631066461488"><ele>545.6666666666666</ele><time>2026-05-01T12:57:33Z</time></trkpt><trkpt lat="44.28364997828216" lon="8.268367532581436"><ele>546.0</ele><time>2026-05-01T12:57:34Z</time></trkpt><trkpt lat="44.283639423305296" lon="8.268079069249673"><ele>549.5</ele><time>2026-05-01T12:57:35Z</time></trkpt><trkpt lat="44.28360929352709" lon="8.267764785740473"><ele>553.0</ele><time>2026-05-01T12:57:36Z</time></trkpt><trkpt lat="44.28355970745145" lon="8.267451742075345"><ele>555.3333333333334</ele><time>2026-05-01T12:57:37Z</time></trkpt><trkpt lat="44.283509383401366" lon="8.267157050205643"><ele>557.6666666666666</ele><time>2026-05-01T12:57:38Z</time></trkpt><trkpt lat="44.283451268875176" lon="8.266848015256686"><ele>560.0</ele><time>2026-05-01T12:57:39Z</time></trkpt><trkpt lat="44.28342500429734" lon="8.266540327100897"><ele>560.6666666666666</ele><time>2026-05-01T12:57:40Z</time></trkpt><trkpt lat="44.28341310936998" lon="8.266240890728895"><ele>561.3333333333334</ele><time>2026-05-01T12:57:41Z</time></trkpt><trkpt lat="44.2834123891278" lon="8.265953701008181"><ele>562.0</ele><time>2026-05-01T12:57:42Z</time></trkpt><trkpt lat="44.283402602870815" lon="8.265682702128055"><ele>563.6666666666667</ele><time>2026-05-01T12:57:43Z</time></trkpt><trkpt lat="44.28343963268937" lon="8.265416742490352"><ele>565.3333333333334</ele><time>2026-05-01T12:57:44Z</time></trkpt><trkpt lat="44.283480256648915" lon="8.265135243174138"><ele>567.0</ele><time>2026-05-01T12:57:45Z</time></trkpt><trkpt lat="44.2835281863721" lon="8.264843354482968"><ele>572.0</ele><time>2026-05-01T12:57:46Z</time></trkpt><trkpt lat="44.28351267001913" lon="8.264523467080775"><ele>577.0</ele><time>2026-05-01T12:57:47Z</time></trkpt><trkpt lat="44.28346311926506" lon="8.264199312525312"><ele>581.6666666666667</ele><time>2026-05-01T12:57:48Z</time></trkpt><trkpt lat="44.28342155666262" lon="8.263895005025708"><ele>586.3333333333334</ele><time>2026-05-01T12:57:49Z</time></trkpt><trkpt lat="44.283379588475825" lon="8.263639539453429"><ele>591.0</ele><time>2026-05-01T12:57:50Z</time></trkpt><trkpt lat="44.28331296530937" lon="8.263421604874015"><ele>591.0</ele><time>2026-05-01T12:57:51Z</time></trkpt><trkpt lat="44.28321659909827" lon="8.263256501108309"><ele>591.0</ele><time>2026-05-01T12:57:52Z</time></trkpt><trkpt lat="44.283116875755276" lon="8.263132288706894"><ele>591.0</ele><time>2026-05-01T12:57:53Z</time></trkpt><trkpt lat="44.283086931554635" lon="8.262983974756244"><ele>591.0</ele><time>2026-05-01T12:57:54Z</time></trkpt><trkpt lat="44.28307644983978" lon="8.262874509689151"><ele>591.0</ele><time>2026-05-01T12:57:55Z</time></trkpt><trkpt lat="44.283123359314" lon="8.262794204399908"><ele>591.0</ele><time>2026-05-01T12:57:56Z</time></trkpt><trkpt lat="44.28328270530427" lon="8.262740043333205"><ele>591.0</ele><time>2026-05-01T12:57:57Z</time></trkpt><trkpt lat="44.28342425916265" lon="8.262705277742285"><ele>591.0</ele><time>2026-05-01T12:57:58Z</time></trkpt><trkpt lat="44.283590035814164" lon="8.262685748521747"><ele>591.0</ele><time>2026-05-01T12:57:59Z</time></trkpt><trkpt lat="44.283771488565286" lon="8.262664991415235"><ele>591.0</ele><time>2026-05-01T12:58:00Z</time></trkpt><trkpt lat="44.28396281881758" lon="8.26264524927525"><ele>591.0</ele><time>2026-05-01T12:58:01Z</time></trkpt><trkpt lat="44.28413687115017" lon="8.262599752074653"><ele>588.6666666666666</ele><time>2026-05-01T12:58:02Z</time></trkpt><trkpt lat="44.28430965193815" lon="8.262495179080641"><ele>586.3333333333333</ele><time>2026-05-01T12:58:03Z</time></trkpt><trkpt lat="44.2844662401642" lon="8.262357827377766"><ele>584.0</ele><time>2026-05-01T12:58:04Z</time></trkpt><trkpt lat="44.28460828524784" lon="8.262242907347245"><ele>580.2</ele><time>2026-05-01T12:58:05Z</time></trkpt><trkpt lat="44.28474998740218" lon="8.262219216480855"><ele>576.4</ele><time>2026-05-01T12:58:06Z</time></trkpt><trkpt lat="44.28488063844902" lon="8.262190183537447"><ele>572.6</ele><time>2026-05-01T12:58:07Z</time></trkpt><trkpt lat="44.28497474846637" lon="8.26216901364954"><ele>568.8</ele><time>2026-05-01T12:58:08Z</time></trkpt><trkpt lat="44.2850137968132" lon="8.262074195914163"><ele>565.0</ele><time>2026-05-01T12:58:09Z</time></trkpt><trkpt lat="44.284995749220236" lon="8.261968568688202"><ele>565.0</ele><time>2026-05-01T12:58:10Z</time></trkpt><trkpt lat="44.284931513177426" lon="8.261888940558407"><ele>565.0</ele><time>2026-05-01T12:58:11Z</time></trkpt><trkpt lat="44.28483387684724" lon="8.261855589967434"><ele>565.0</ele><time>2026-05-01T12:58:12Z</time></trkpt><trkpt lat="44.284692567940695" lon="8.26187440895167"><ele>565.0</ele><time>2026-05-01T12:58:13Z</time></trkpt><trkpt lat="44.284543272030106" lon="8.261912360753492"><ele>564.4</ele><time>2026-05-01T12:58:14Z</time></trkpt><trkpt lat="44.28440530433078" lon="8.261947459373625"><ele>563.8</ele><time>2026-05-01T12:58:15Z</time></trkpt><trkpt lat="44.284302096545275" lon="8.26198121525687"><ele>563.2</ele><time>2026-05-01T12:58:16Z</time></trkpt><trkpt lat="44.284234896657736" lon="8.261978392555543"><ele>562.6</ele><time>2026-05-01T12:58:17Z</time></trkpt><trkpt lat="44.28421768146138" lon="8.261833106465543"><ele>562.0</ele><time>2026-05-01T12:58:19Z</time></trkpt><trkpt lat="44.28429724528475" lon="8.261737890068568"><ele>562.0</ele><time>2026-05-01T12:58:20Z</time></trkpt><trkpt lat="44.28445527655863" lon="8.261722564554237"><ele>562.0</ele><time>2026-05-01T12:58:21Z</time></trkpt><trkpt lat="44.28461090942649" lon="8.26165069365372"><ele>562.0</ele><time>2026-05-01T12:58:22Z</time></trkpt><trkpt lat="44.284789124706485" lon="8.261571622836763"><ele>563.0</ele><time>2026-05-01T12:58:23Z</time></trkpt><trkpt lat="44.28497533066735" lon="8.261477664783023"><ele>564.0</ele><time>2026-05-01T12:58:24Z</time></trkpt><trkpt lat="44.28517938670553" lon="8.261412450000924"><ele>565.0</ele><time>2026-05-01T12:58:25Z</time></trkpt><trkpt lat="44.28541129413558" lon="8.261381783529632"><ele>556.0</ele><time>2026-05-01T12:58:26Z</time></trkpt><trkpt lat="44.285622590497155" lon="8.261376384337618"><ele>547.0</ele><time>2026-05-01T12:58:27Z</time></trkpt><trkpt lat="44.28580029616805" lon="8.261366010880035"><ele>538.0</ele><time>2026-05-01T12:58:28Z</time></trkpt><trkpt lat="44.2859203730308" lon="8.261348125983684"><ele>538.0</ele><time>2026-05-01T12:58:29Z</time></trkpt><trkpt lat="44.286002632764344" lon="8.261335506530317"><ele>538.0</ele><time>2026-05-01T12:58:30Z</time></trkpt><trkpt lat="44.28601191886743" lon="8.261180801497416"><ele>538.0</ele><time>2026-05-01T12:58:32Z</time></trkpt><trkpt lat="44.285956680890564" lon="8.261079412908918"><ele>538.0</ele><time>2026-05-01T12:58:33Z</time></trkpt><trkpt lat="44.2858503304172" lon="8.260987148745514"><ele>538.0</ele><time>2026-05-01T12:58:34Z</time></trkpt><trkpt lat="44.28571887532594" lon="8.260890997319954"><ele>538.0</ele><time>2026-05-01T12:58:35Z</time></trkpt><trkpt lat="44.28558093374514" lon="8.260789550835836"><ele>538.0</ele><time>2026-05-01T12:58:36Z</time></trkpt><trkpt lat="44.285448809953635" lon="8.260691577496658"><ele>538.0</ele><time>2026-05-01T12:58:37Z</time></trkpt><trkpt lat="44.28531445866453" lon="8.26064423358531"><ele>538.0</ele><time>2026-05-01T12:58:38Z</time></trkpt><trkpt lat="44.28516611333529" lon="8.260676377951391"><ele>538.0</ele><time>2026-05-01T12:58:39Z</time></trkpt><trkpt lat="44.28501353925769" lon="8.260754334196987"><ele>538.0</ele><time>2026-05-01T12:58:40Z</time></trkpt><trkpt lat="44.28489388571022" lon="8.260787618835794"><ele>538.0</ele><time>2026-05-01T12:58:41Z</time></trkpt><trkpt lat="44.28480446748846" lon="8.260753212402784"><ele>538.0</ele><time>2026-05-01T12:58:43Z</time></trkpt><trkpt lat="44.28481925435107" lon="8.26064997226089"><ele>531.25</ele><time>2026-05-01T12:58:44Z</time></trkpt><trkpt lat="44.284903416655844" lon="8.26054992252104"><ele>524.5</ele><time>2026-05-01T12:58:45Z</time></trkpt><trkpt lat="44.285048395565724" lon="8.260509603269263"><ele>517.75</ele><time>2026-05-01T12:58:46Z</time></trkpt><trkpt lat="44.28521192465623" lon="8.260428613890573"><ele>511.0</ele><time>2026-05-01T12:58:47Z</time></trkpt><trkpt lat="44.28538007442949" lon="8.260335896367891"><ele>511.0</ele><time>2026-05-01T12:58:48Z</time></trkpt><trkpt lat="44.28554723710316" lon="8.260208380470406"><ele>511.0</ele><time>2026-05-01T12:58:49Z</time></trkpt><trkpt lat="44.28571226289972" lon="8.260099093922463"><ele>511.0</ele><time>2026-05-01T12:58:50Z</time></trkpt><trkpt lat="44.28586127187766" lon="8.260033711457952"><ele>512.5</ele><time>2026-05-01T12:58:51Z</time></trkpt><trkpt lat="44.285979026467345" lon="8.260057275506908"><ele>514.0</ele><time>2026-05-01T12:58:52Z</time></trkpt><trkpt lat="44.286079483124276" lon="8.260140747217164"><ele>515.5</ele><time>2026-05-01T12:58:53Z</time></trkpt><trkpt lat="44.28618184127793" lon="8.260240228630751"><ele>517.0</ele><time>2026-05-01T12:58:54Z</time></trkpt><trkpt lat="44.28627162416338" lon="8.260298646299047"><ele>517.0</ele><time>2026-05-01T12:58:55Z</time></trkpt><trkpt lat="44.28634232075181" lon="8.260325599110176"><ele>517.0</ele><time>2026-05-01T12:58:56Z</time></trkpt><trkpt lat="44.28639354212158" lon="8.260236633888214"><ele>517.0</ele><time>2026-05-01T12:58:57Z</time></trkpt><trkpt lat="44.28640233499832" lon="8.260103076363347"><ele>517.0</ele><time>2026-05-01T12:58:58Z</time></trkpt><trkpt lat="44.2863149918022" lon="8.259966206534207"><ele>517.0</ele><time>2026-05-01T12:58:59Z</time></trkpt><trkpt lat="44.28624601665407" lon="8.259789956928525"><ele>509.33333333333337</ele><time>2026-05-01T12:59:00Z</time></trkpt><trkpt lat="44.28613890741234" lon="8.259634115560909"><ele>501.66666666666663</ele><time>2026-05-01T12:59:01Z</time></trkpt><trkpt lat="44.28602013568618" lon="8.259491960546882"><ele>494.0</ele><time>2026-05-01T12:59:02Z</time></trkpt><trkpt lat="44.285875924714404" lon="8.259407502085304"><ele>494.0</ele><time>2026-05-01T12:59:03Z</time></trkpt><trkpt lat="44.2856985622599" lon="8.259376887136405"><ele>494.0</ele><time>2026-05-01T12:59:04Z</time></trkpt><trkpt lat="44.28550188113068" lon="8.259382758645975"><ele>494.0</ele><time>2026-05-01T12:59:05Z</time></trkpt><trkpt lat="44.285307672001665" lon="8.259433612184496"><ele>493.75</ele><time>2026-05-01T12:59:06Z</time></trkpt><trkpt lat="44.285150783624296" lon="8.259514764605244"><ele>493.5</ele><time>2026-05-01T12:59:07Z</time></trkpt><trkpt lat="44.28504697726139" lon="8.259583096296637"><ele>493.25</ele><time>2026-05-01T12:59:08Z</time></trkpt><trkpt lat="44.28497391331132" lon="8.259591339488855"><ele>493.0</ele><time>2026-05-01T12:59:09Z</time></trkpt><trkpt lat="44.284968090212686" lon="8.25943094694344"><ele>493.0</ele><time>2026-05-01T12:59:11Z</time></trkpt><trkpt lat="44.2850365720688" lon="8.259337507244377"><ele>493.0</ele><time>2026-05-01T12:59:12Z</time></trkpt><trkpt lat="44.285180283424005" lon="8.259283158999613"><ele>493.0</ele><time>2026-05-01T12:59:13Z</time></trkpt><trkpt lat="44.28530666670568" lon="8.259170866736223"><ele>493.0</ele><time>2026-05-01T12:59:14Z</time></trkpt><trkpt lat="44.28543644943018" lon="8.259055939531063"><ele>493.0</ele><time>2026-05-01T12:59:15Z</time></trkpt><trkpt lat="44.28558006047308" lon="8.25898714011066"><ele>493.0</ele><time>2026-05-01T12:59:16Z</time></trkpt><trkpt lat="44.28570501079753" lon="8.258953477351548"><ele>493.0</ele><time>2026-05-01T12:59:17Z</time></trkpt><trkpt lat="44.285830666175656" lon="8.258988684873742"><ele>493.0</ele><time>2026-05-01T12:59:18Z</time></trkpt><trkpt lat="44.28597740260827" lon="8.258999059648778"><ele>493.33333333333337</ele><time>2026-05-01T12:59:19Z</time></trkpt><trkpt lat="44.28614557792574" lon="8.259012951087307"><ele>493.66666666666663</ele><time>2026-05-01T12:59:20Z</time></trkpt><trkpt lat="44.286321410166416" lon="8.259039408103657"><ele>494.0</ele><time>2026-05-01T12:59:21Z</time></trkpt><trkpt lat="44.28649398955263" lon="8.259106869732019"><ele>488.66666666666663</ele><time>2026-05-01T12:59:22Z</time></trkpt><trkpt lat="44.286668544886346" lon="8.25920209450789"><ele>483.33333333333337</ele><time>2026-05-01T12:59:23Z</time></trkpt><trkpt lat="44.286827120002265" lon="8.259305568251158"><ele>478.0</ele><time>2026-05-01T12:59:24Z</time></trkpt><trkpt lat="44.286959918745225" lon="8.259452474305172"><ele>478.0</ele><time>2026-05-01T12:59:25Z</time></trkpt><trkpt lat="44.287080562636746" lon="8.259629231662194"><ele>478.0</ele><time>2026-05-01T12:59:26Z</time></trkpt><trkpt lat="44.28719828711895" lon="8.259741235965507"><ele>478.0</ele><time>2026-05-01T12:59:27Z</time></trkpt><trkpt lat="44.2873020320091" lon="8.259817338338529"><ele>478.0</ele><time>2026-05-01T12:59:28Z</time></trkpt><trkpt lat="44.28741052380211" lon="8.259800020770875"><ele>475.79999999999995</ele><time>2026-05-01T12:59:29Z</time></trkpt><trkpt lat="44.287511114102784" lon="8.259731311916006"><ele>473.59999999999997</ele><time>2026-05-01T12:59:30Z</time></trkpt><trkpt lat="44.287590608424345" lon="8.259630308193485"><ele>471.40000000000003</ele><time>2026-05-01T12:59:31Z</time></trkpt><trkpt lat="44.28765457790461" lon="8.259502899737024"><ele>469.20000000000005</ele><time>2026-05-01T12:59:32Z</time></trkpt><trkpt lat="44.287724207612776" lon="8.259374647327359"><ele>467.0</ele><time>2026-05-01T12:59:33Z</time></trkpt><trkpt lat="44.287792630096874" lon="8.259261267128228"><ele>467.0</ele><time>2026-05-01T12:59:34Z</time></trkpt><trkpt lat="44.287858064786846" lon="8.259169430450138"><ele>467.00000000000006</ele><time>2026-05-01T12:59:35Z</time></trkpt><trkpt lat="44.28791093084491" lon="8.259097759282005"><ele>467.00000000000006</ele><time>2026-05-01T12:59:36Z</time></trkpt><trkpt lat="44.28794862544782" lon="8.259025865651404"><ele>467.0</ele><time>2026-05-01T12:59:39Z</time></trkpt><trkpt lat="44.28787142285258" lon="8.258879115634887"><ele>467.0</ele><time>2026-05-01T12:59:46Z</time></trkpt><trkpt lat="44.28776402520219" lon="8.25875902535072"><ele>472.0</ele><time>2026-05-01T12:59:47Z</time></trkpt><trkpt lat="44.287651681573514" lon="8.258628732277932"><ele>477.0</ele><time>2026-05-01T12:59:48Z</time></trkpt><trkpt lat="44.287515962754895" lon="8.25847311590478"><ele>482.0</ele><time>2026-05-01T12:59:49Z</time></trkpt><trkpt lat="44.28733148278355" lon="8.25831327820969"><ele>482.75</ele><time>2026-05-01T12:59:51Z</time></trkpt><trkpt lat="44.28721114026375" lon="8.258193690882862"><ele>483.5</ele><time>2026-05-01T12:59:52Z</time></trkpt><trkpt lat="44.28710476291719" lon="8.258095469117146"><ele>484.25</ele><time>2026-05-01T12:59:53Z</time></trkpt><trkpt lat="44.287012548131116" lon="8.258005184039227"><ele>485.0</ele><time>2026-05-01T12:59:54Z</time></trkpt><trkpt lat="44.286931693533546" lon="8.257921607243084"><ele>485.0</ele><time>2026-05-01T12:59:55Z</time></trkpt><trkpt lat="44.2868560058634" lon="8.257843828659073"><ele>485.0</ele><time>2026-05-01T12:59:56Z</time></trkpt><trkpt lat="44.28677742453433" lon="8.257768786843965"><ele>485.0</ele><time>2026-05-01T12:59:57Z</time></trkpt><trkpt lat="44.28669746352421" lon="8.257693667434872"><ele>485.0</ele><time>2026-05-01T12:59:58Z</time></trkpt><trkpt lat="44.28661535668719" lon="8.257609801042388"><ele>485.0</ele><time>2026-05-01T12:59:59Z</time></trkpt><trkpt lat="44.28652703311702" lon="8.257516856661017"><ele>485.0</ele><time>2026-05-01T13:00:00Z</time></trkpt><trkpt lat="44.28643995462084" lon="8.257422624768184"><ele>485.0</ele><time>2026-05-01T13:00:01Z</time></trkpt><trkpt lat="44.286352055007775" lon="8.257322499256723"><ele>485.0</ele><time>2026-05-01T13:00:02Z</time></trkpt><trkpt lat="44.28627393308779" lon="8.257188922188377"><ele>485.0</ele><time>2026-05-01T13:00:03Z</time></trkpt><trkpt lat="44.286204682552594" lon="8.257024466105975"><ele>485.66666666666663</ele><time>2026-05-01T13:00:04Z</time></trkpt><trkpt lat="44.28616024327711" lon="8.256818213664271"><ele>486.33333333333337</ele><time>2026-05-01T13:00:05Z</time></trkpt><trkpt lat="44.28608809172461" lon="8.25661004855492"><ele>487.0</ele><time>2026-05-01T13:00:06Z</time></trkpt><trkpt lat="44.28604540335011" lon="8.256374013078386"><ele>487.0</ele><time>2026-05-01T13:00:07Z</time></trkpt><trkpt lat="44.28599129827543" lon="8.25615108665063"><ele>487.0</ele><time>2026-05-01T13:00:08Z</time></trkpt><trkpt lat="44.28593468757701" lon="8.255914179870217"><ele>487.0</ele><time>2026-05-01T13:00:09Z</time></trkpt><trkpt lat="44.28588146969758" lon="8.255682413918521"><ele>486.75</ele><time>2026-05-01T13:00:10Z</time></trkpt><trkpt lat="44.285842543558424" lon="8.255475270476714"><ele>486.5</ele><time>2026-05-01T13:00:11Z</time></trkpt><trkpt lat="44.28581319049983" lon="8.255290283136121"><ele>486.25</ele><time>2026-05-01T13:00:12Z</time></trkpt><trkpt lat="44.28580006455488" lon="8.25509148997918"><ele>486.0</ele><time>2026-05-01T13:00:13Z</time></trkpt><trkpt lat="44.28580385600408" lon="8.254884539187797"><ele>485.33333333333337</ele><time>2026-05-01T13:00:14Z</time></trkpt><trkpt lat="44.28581662354345" lon="8.254681496360982"><ele>484.6666666666667</ele><time>2026-05-01T13:00:15Z</time></trkpt><trkpt lat="44.28582908407737" lon="8.254464781204536"><ele>484.0</ele><time>2026-05-01T13:00:16Z</time></trkpt><trkpt lat="44.28583567810799" lon="8.254232304025894"><ele>484.0</ele><time>2026-05-01T13:00:17Z</time></trkpt><trkpt lat="44.28584197982772" lon="8.253991143096204"><ele>484.0</ele><time>2026-05-01T13:00:18Z</time></trkpt><trkpt lat="44.28585023577187" lon="8.253747311721266"><ele>484.0</ele><time>2026-05-01T13:00:19Z</time></trkpt><trkpt lat="44.28586039111056" lon="8.25349586433935"><ele>487.33333333333337</ele><time>2026-05-01T13:00:20Z</time></trkpt><trkpt lat="44.28585429842509" lon="8.25324368700679"><ele>490.66666666666663</ele><time>2026-05-01T13:00:21Z</time></trkpt><trkpt lat="44.28580723388962" lon="8.253005965512626"><ele>494.0</ele><time>2026-05-01T13:00:22Z</time></trkpt><trkpt lat="44.28571075665847" lon="8.252782335066673"><ele>496.3333333333333</ele><time>2026-05-01T13:00:23Z</time></trkpt><trkpt lat="44.28559754422416" lon="8.252548834116208"><ele>498.66666666666663</ele><time>2026-05-01T13:00:24Z</time></trkpt><trkpt lat="44.28552570348745" lon="8.252319755307475"><ele>501.0</ele><time>2026-05-01T13:00:25Z</time></trkpt><trkpt lat="44.28547798485852" lon="8.252055240234986"><ele>496.0</ele><time>2026-05-01T13:00:26Z</time></trkpt><trkpt lat="44.28543215178409" lon="8.251768659406071"><ele>491.0</ele><time>2026-05-01T13:00:27Z</time></trkpt><trkpt lat="44.28537642318966" lon="8.251459945222054"><ele>486.0</ele><time>2026-05-01T13:00:28Z</time></trkpt><trkpt lat="44.28531937772372" lon="8.251129254568491"><ele>486.0</ele><time>2026-05-01T13:00:29Z</time></trkpt><trkpt lat="44.28526425747174" lon="8.250792894757238"><ele>486.0</ele><time>2026-05-01T13:00:30Z</time></trkpt><trkpt lat="44.28521358774258" lon="8.25042216981909"><ele>488.0</ele><time>2026-05-01T13:00:31Z</time></trkpt><trkpt lat="44.28516609504959" lon="8.25005741885949"><ele>490.0</ele><time>2026-05-01T13:00:32Z</time></trkpt><trkpt lat="44.28511737517282" lon="8.249703213737503"><ele>491.5</ele><time>2026-05-01T13:00:33Z</time></trkpt><trkpt lat="44.285075034380945" lon="8.249364556725858"><ele>493.0</ele><time>2026-05-01T13:00:34Z</time></trkpt><trkpt lat="44.285044288449434" lon="8.249058019586183"><ele>493.33333333333337</ele><time>2026-05-01T13:00:35Z</time></trkpt><trkpt lat="44.28503567954224" lon="8.248753934998682"><ele>493.66666666666663</ele><time>2026-05-01T13:00:36Z</time></trkpt><trkpt lat="44.285025582713374" lon="8.248443218152351"><ele>494.0</ele><time>2026-05-01T13:00:37Z</time></trkpt><trkpt lat="44.28499197462423" lon="8.24812090424778"><ele>495.5</ele><time>2026-05-01T13:00:38Z</time></trkpt><trkpt lat="44.28494218926544" lon="8.247804213486987"><ele>497.0</ele><time>2026-05-01T13:00:39Z</time></trkpt><trkpt lat="44.284897460748525" lon="8.247506524113495"><ele>500.3333333333333</ele><time>2026-05-01T13:00:40Z</time></trkpt><trkpt lat="44.28485424985836" lon="8.247216523593742"><ele>503.66666666666663</ele><time>2026-05-01T13:00:41Z</time></trkpt><trkpt lat="44.28481409829034" lon="8.24694270371585"><ele>507.0</ele><time>2026-05-01T13:00:42Z</time></trkpt><trkpt lat="44.284777378624156" lon="8.246689346726484"><ele>503.25</ele><time>2026-05-01T13:00:43Z</time></trkpt><trkpt lat="44.2847436346067" lon="8.246452960548737"><ele>499.5</ele><time>2026-05-01T13:00:44Z</time></trkpt><trkpt lat="44.28471440442325" lon="8.246255399809066"><ele>495.75</ele><time>2026-05-01T13:00:45Z</time></trkpt><trkpt lat="44.28468505102834" lon="8.246076920249841"><ele>492.0</ele><time>2026-05-01T13:00:46Z</time></trkpt><trkpt lat="44.28465640200553" lon="8.245917775669842"><ele>492.0</ele><time>2026-05-01T13:00:47Z</time></trkpt><trkpt lat="44.28462214337785" lon="8.245757217209228"><ele>492.0</ele><time>2026-05-01T13:00:48Z</time></trkpt><trkpt lat="44.284574027548814" lon="8.245593138027461"><ele>492.0</ele><time>2026-05-01T13:00:49Z</time></trkpt><trkpt lat="44.28450470796777" lon="8.245430363276363"><ele>492.0</ele><time>2026-05-01T13:00:50Z</time></trkpt><trkpt lat="44.284418413461076" lon="8.24528375335375"><ele>492.5</ele><time>2026-05-01T13:00:51Z</time></trkpt><trkpt lat="44.28432606373822" lon="8.245140552847333"><ele>493.0</ele><time>2026-05-01T13:00:52Z</time></trkpt><trkpt lat="44.2842317725915" lon="8.244995239893244"><ele>493.5</ele><time>2026-05-01T13:00:53Z</time></trkpt><trkpt lat="44.2841377599045" lon="8.244839898748015"><ele>494.0</ele><time>2026-05-01T13:00:54Z</time></trkpt><trkpt lat="44.28404473802947" lon="8.244678061913953"><ele>494.75</ele><time>2026-05-01T13:00:55Z</time></trkpt><trkpt lat="44.28394887536693" lon="8.244513942610752"><ele>495.5</ele><time>2026-05-01T13:00:56Z</time></trkpt><trkpt lat="44.28385745286842" lon="8.244349758744464"><ele>496.25</ele><time>2026-05-01T13:00:57Z</time></trkpt><trkpt lat="44.2837820617087" lon="8.244196437392386"><ele>497.0</ele><time>2026-05-01T13:00:58Z</time></trkpt><trkpt lat="44.28371931125278" lon="8.244037467034095"><ele>496.75</ele><time>2026-05-01T13:00:59Z</time></trkpt><trkpt lat="44.28366607709742" lon="8.243880787881702"><ele>496.5</ele><time>2026-05-01T13:01:00Z</time></trkpt><trkpt lat="44.28361379787239" lon="8.243724588160491"><ele>496.25</ele><time>2026-05-01T13:01:01Z</time></trkpt><trkpt lat="44.283557007853105" lon="8.243575661704325"><ele>496.0</ele><time>2026-05-01T13:01:02Z</time></trkpt><trkpt lat="44.283493421639726" lon="8.243424918431147"><ele>496.0</ele><time>2026-05-01T13:01:03Z</time></trkpt><trkpt lat="44.28341963114551" lon="8.243276223447713"><ele>496.0</ele><time>2026-05-01T13:01:04Z</time></trkpt><trkpt lat="44.28333465077786" lon="8.243128907006765"><ele>496.0</ele><time>2026-05-01T13:01:05Z</time></trkpt><trkpt lat="44.283235197206956" lon="8.242992268139615"><ele>496.0</ele><time>2026-05-01T13:01:06Z</time></trkpt><trkpt lat="44.2831176731769" lon="8.242856932633918"><ele>496.25</ele><time>2026-05-01T13:01:07Z</time></trkpt><trkpt lat="44.28299947051392" lon="8.242724774166565"><ele>496.5</ele><time>2026-05-01T13:01:08Z</time></trkpt><trkpt lat="44.282881529447224" lon="8.242598256747668"><ele>496.75</ele><time>2026-05-01T13:01:09Z</time></trkpt><trkpt lat="44.28277342755144" lon="8.242485907935247"><ele>497.0</ele><time>2026-05-01T13:01:10Z</time></trkpt><trkpt lat="44.282671915874495" lon="8.24238337941563"><ele>497.25</ele><time>2026-05-01T13:01:11Z</time></trkpt><trkpt lat="44.28256989481638" lon="8.242278611006316"><ele>497.5</ele><time>2026-05-01T13:01:12Z</time></trkpt><trkpt lat="44.28246187926788" lon="8.242159902885225"><ele>497.75</ele><time>2026-05-01T13:01:13Z</time></trkpt><trkpt lat="44.28235589081212" lon="8.242021192884037"><ele>498.0</ele><time>2026-05-01T13:01:14Z</time></trkpt><trkpt lat="44.28225110133533" lon="8.241872256094194"><ele>498.0</ele><time>2026-05-01T13:01:15Z</time></trkpt><trkpt lat="44.28213856038279" lon="8.24172855414917"><ele>498.0</ele><time>2026-05-01T13:01:16Z</time></trkpt><trkpt lat="44.28201685848676" lon="8.241600950181757"><ele>498.0</ele><time>2026-05-01T13:01:17Z</time></trkpt><trkpt lat="44.28189216028369" lon="8.24148927507117"><ele>499.75</ele><time>2026-05-01T13:01:18Z</time></trkpt><trkpt lat="44.28177833472126" lon="8.241391561125283"><ele>501.5</ele><time>2026-05-01T13:01:19Z</time></trkpt><trkpt lat="44.281673350422125" lon="8.241300190883074"><ele>503.25</ele><time>2026-05-01T13:01:20Z</time></trkpt><trkpt lat="44.281572395820525" lon="8.241213717644197"><ele>505.0</ele><time>2026-05-01T13:01:21Z</time></trkpt><trkpt lat="44.28148416693026" lon="8.241128902113088"><ele>504.4</ele><time>2026-05-01T13:01:22Z</time></trkpt><trkpt lat="44.28140609737925" lon="8.241043646412434"><ele>503.8</ele><time>2026-05-01T13:01:23Z</time></trkpt><trkpt lat="44.28133795350447" lon="8.240964068984137"><ele>503.20000000000005</ele><time>2026-05-01T13:01:24Z</time></trkpt><trkpt lat="44.28127564128709" lon="8.240876793553495"><ele>502.6</ele><time>2026-05-01T13:01:25Z</time></trkpt><trkpt lat="44.281222483199066" lon="8.240753645316799"><ele>502.0</ele><time>2026-05-01T13:01:26Z</time></trkpt><trkpt lat="44.281176603639786" lon="8.240611584926949"><ele>503.75</ele><time>2026-05-01T13:01:27Z</time></trkpt><trkpt lat="44.281133763711" lon="8.240442388960794"><ele>505.5</ele><time>2026-05-01T13:01:28Z</time></trkpt><trkpt lat="44.28107989967366" lon="8.24027396633407"><ele>507.25</ele><time>2026-05-01T13:01:29Z</time></trkpt><trkpt lat="44.28101740507277" lon="8.240105002794227"><ele>509.0</ele><time>2026-05-01T13:01:30Z</time></trkpt><trkpt lat="44.280953568701975" lon="8.239948030279292"><ele>511.75</ele><time>2026-05-01T13:01:31Z</time></trkpt><trkpt lat="44.28087844266467" lon="8.239800144207857"><ele>514.5</ele><time>2026-05-01T13:01:32Z</time></trkpt><trkpt lat="44.28080619522959" lon="8.239655305895923"><ele>517.25</ele><time>2026-05-01T13:01:33Z</time></trkpt><trkpt lat="44.28073121243757" lon="8.239521060747547"><ele>520.0</ele><time>2026-05-01T13:01:34Z</time></trkpt><trkpt lat="44.28064803226122" lon="8.239393682111984"><ele>518.25</ele><time>2026-05-01T13:01:35Z</time></trkpt><trkpt lat="44.28055608590539" lon="8.239276960285826"><ele>516.5</ele><time>2026-05-01T13:01:36Z</time></trkpt><trkpt lat="44.28046487579251" lon="8.239166210721908"><ele>514.75</ele><time>2026-05-01T13:01:37Z</time></trkpt><trkpt lat="44.28040680126924" lon="8.239049771826945"><ele>513.0</ele><time>2026-05-01T13:01:38Z</time></trkpt><trkpt lat="44.28038991276709" lon="8.238905472816414"><ele>513.0</ele><time>2026-05-01T13:01:39Z</time></trkpt><trkpt lat="44.280388516171946" lon="8.238748733445936"><ele>513.0</ele><time>2026-05-01T13:01:40Z</time></trkpt><trkpt lat="44.28036755399999" lon="8.238590976627387"><ele>513.0</ele><time>2026-05-01T13:01:41Z</time></trkpt><trkpt lat="44.28031638581318" lon="8.238437318462855"><ele>513.0</ele><time>2026-05-01T13:01:42Z</time></trkpt><trkpt lat="44.28025769164252" lon="8.238282461548154"><ele>515.5</ele><time>2026-05-01T13:01:43Z</time></trkpt><trkpt lat="44.28019572056672" lon="8.238122458607322"><ele>518.0</ele><time>2026-05-01T13:01:44Z</time></trkpt><trkpt lat="44.28013972309057" lon="8.23795643104412"><ele>520.5</ele><time>2026-05-01T13:01:45Z</time></trkpt><trkpt lat="44.28007939965475" lon="8.237779189311391"><ele>523.0</ele><time>2026-05-01T13:01:46Z</time></trkpt><trkpt lat="44.280015048339635" lon="8.237591599608916"><ele>523.0</ele><time>2026-05-01T13:01:47Z</time></trkpt><trkpt lat="44.279952492749885" lon="8.237404571610462"><ele>523.0</ele><time>2026-05-01T13:01:48Z</time></trkpt><trkpt lat="44.27989418472488" lon="8.237224648502687"><ele>523.0</ele><time>2026-05-01T13:01:49Z</time></trkpt><trkpt lat="44.27984412414243" lon="8.237061468101684"><ele>523.0</ele><time>2026-05-01T13:01:50Z</time></trkpt><trkpt lat="44.279806779915866" lon="8.236922714570564"><ele>521.8</ele><time>2026-05-01T13:01:51Z</time></trkpt><trkpt lat="44.27978229693757" lon="8.23680909818019"><ele>520.5999999999999</ele><time>2026-05-01T13:01:52Z</time></trkpt><trkpt lat="44.27973708639272" lon="8.236662131835873"><ele>519.4000000000001</ele><time>2026-05-01T13:01:54Z</time></trkpt><trkpt lat="44.279703019639356" lon="8.236564810859313"><ele>518.2</ele><time>2026-05-01T13:01:55Z</time></trkpt><trkpt lat="44.27966288971138" lon="8.236438995612533"><ele>517.0</ele><time>2026-05-01T13:01:56Z</time></trkpt><trkpt lat="44.279621986565665" lon="8.236280445124791"><ele>517.0</ele><time>2026-05-01T13:01:57Z</time></trkpt><trkpt lat="44.279561814530126" lon="8.236099578745579"><ele>517.0</ele><time>2026-05-01T13:01:58Z</time></trkpt><trkpt lat="44.27948541565025" lon="8.235912193075086"><ele>517.0</ele><time>2026-05-01T13:01:59Z</time></trkpt><trkpt lat="44.27941444132998" lon="8.23574527027692"><ele>517.0</ele><time>2026-05-01T13:02:00Z</time></trkpt><trkpt lat="44.27933242602011" lon="8.235632404944996"><ele>522.75</ele><time>2026-05-01T13:02:01Z</time></trkpt><trkpt lat="44.27922554850525" lon="8.235592483422826"><ele>528.5</ele><time>2026-05-01T13:02:02Z</time></trkpt><trkpt lat="44.279095923451095" lon="8.23559671136099"><ele>534.25</ele><time>2026-05-01T13:02:03Z</time></trkpt><trkpt lat="44.2789452021224" lon="8.235596693998406"><ele>540.0</ele><time>2026-05-01T13:02:04Z</time></trkpt><trkpt lat="44.27877574591784" lon="8.235588063567043"><ele>540.6666666666666</ele><time>2026-05-01T13:02:05Z</time></trkpt><trkpt lat="44.278608545821186" lon="8.235581613946723"><ele>541.3333333333333</ele><time>2026-05-01T13:02:06Z</time></trkpt><trkpt lat="44.278430855721524" lon="8.23557453061203"><ele>542.0</ele><time>2026-05-01T13:02:07Z</time></trkpt><trkpt lat="44.27824947003116" lon="8.235564183695363"><ele>537.0</ele><time>2026-05-01T13:02:08Z</time></trkpt><trkpt lat="44.27808442454428" lon="8.235561492485457"><ele>532.0</ele><time>2026-05-01T13:02:09Z</time></trkpt><trkpt lat="44.27795579509947" lon="8.235555894387051"><ele>527.0</ele><time>2026-05-01T13:02:10Z</time></trkpt><trkpt lat="44.2778529246453" lon="8.235530413721575"><ele>522.0</ele><time>2026-05-01T13:02:11Z</time></trkpt><trkpt lat="44.277769232416354" lon="8.235477192292295"><ele>522.0</ele><time>2026-05-01T13:02:12Z</time></trkpt><trkpt lat="44.277695724601045" lon="8.235388714515203"><ele>522.0</ele><time>2026-05-01T13:02:13Z</time></trkpt><trkpt lat="44.27763359523677" lon="8.235269304293414"><ele>522.0</ele><time>2026-05-01T13:02:14Z</time></trkpt><trkpt lat="44.27757768401154" lon="8.23511430708091"><ele>522.0</ele><time>2026-05-01T13:02:15Z</time></trkpt><trkpt lat="44.27752009628597" lon="8.234944543403337"><ele>528.0</ele><time>2026-05-01T13:02:16Z</time></trkpt><trkpt lat="44.27745061560953" lon="8.234765960948208"><ele>534.0</ele><time>2026-05-01T13:02:17Z</time></trkpt><trkpt lat="44.277377006013616" lon="8.234576984204182"><ele>540.0</ele><time>2026-05-01T13:02:18Z</time></trkpt><trkpt lat="44.277298885665864" lon="8.234381337234943"><ele>535.6666666666666</ele><time>2026-05-01T13:02:19Z</time></trkpt><trkpt lat="44.2772214437287" lon="8.23417791738305"><ele>531.3333333333333</ele><time>2026-05-01T13:02:20Z</time></trkpt><trkpt lat="44.277140716226135" lon="8.233967743144833"><ele>527.0</ele><time>2026-05-01T13:02:21Z</time></trkpt><trkpt lat="44.27706049897225" lon="8.233762689207449"><ele>527.0</ele><time>2026-05-01T13:02:22Z</time></trkpt><trkpt lat="44.27698296061551" lon="8.233564906132171"><ele>527.0</ele><time>2026-05-01T13:02:23Z</time></trkpt><trkpt lat="44.27689976418093" lon="8.233392025452439"><ele>527.0</ele><time>2026-05-01T13:02:24Z</time></trkpt><trkpt lat="44.27684103037297" lon="8.23323979346612"><ele>527.0</ele><time>2026-05-01T13:02:25Z</time></trkpt><trkpt lat="44.27678009066567" lon="8.233119385979322"><ele>526.25</ele><time>2026-05-01T13:02:26Z</time></trkpt><trkpt lat="44.27670249867386" lon="8.23302527859787"><ele>525.5</ele><time>2026-05-01T13:02:27Z</time></trkpt><trkpt lat="44.27659067886127" lon="8.232938086911819"><ele>524.75</ele><time>2026-05-01T13:02:28Z</time></trkpt><trkpt lat="44.276435182798814" lon="8.23285363259162"><ele>524.0</ele><time>2026-05-01T13:02:29Z</time></trkpt><trkpt lat="44.27631276394048" lon="8.232762966882088"><ele>524.0</ele><time>2026-05-01T13:02:30Z</time></trkpt><trkpt lat="44.27622834172972" lon="8.232668805950906"><ele>524.0</ele><time>2026-05-01T13:02:31Z</time></trkpt><trkpt lat="44.27614571299837" lon="8.232533724091727"><ele>524.0</ele><time>2026-05-01T13:02:32Z</time></trkpt><trkpt lat="44.27606385513233" lon="8.232357530111328"><ele>524.0</ele><time>2026-05-01T13:02:33Z</time></trkpt><trkpt lat="44.27597778061323" lon="8.232183812913851"><ele>525.5</ele><time>2026-05-01T13:02:34Z</time></trkpt><trkpt lat="44.27589064119707" lon="8.232018694028884"><ele>527.0</ele><time>2026-05-01T13:02:35Z</time></trkpt><trkpt lat="44.27579853674877" lon="8.231893593759866"><ele>528.5</ele><time>2026-05-01T13:02:36Z</time></trkpt><trkpt lat="44.27569730434192" lon="8.231820090315162"><ele>530.0</ele><time>2026-05-01T13:02:37Z</time></trkpt><trkpt lat="44.275578247519725" lon="8.231791489281564"><ele>530.0</ele><time>2026-05-01T13:02:38Z</time></trkpt><trkpt lat="44.27544664118349" lon="8.231787057003949"><ele>530.0</ele><time>2026-05-01T13:02:39Z</time></trkpt><trkpt lat="44.27530874813373" lon="8.231779770011876"><ele>530.0</ele><time>2026-05-01T13:02:40Z</time></trkpt><trkpt lat="44.27517101779187" lon="8.231753911302368"><ele>530.0</ele><time>2026-05-01T13:02:41Z</time></trkpt><trkpt lat="44.2750468371933" lon="8.231719616852912"><ele>530.0</ele><time>2026-05-01T13:02:42Z</time></trkpt><trkpt lat="44.274937895935565" lon="8.231690161539044"><ele>530.0</ele><time>2026-05-01T13:02:43Z</time></trkpt><trkpt lat="44.274839328872275" lon="8.231659818408568"><ele>530.0</ele><time>2026-05-01T13:02:44Z</time></trkpt><trkpt lat="44.274749772544205" lon="8.231632121948438"><ele>530.0</ele><time>2026-05-01T13:02:45Z</time></trkpt><trkpt lat="44.27464801658085" lon="8.231580623096422"><ele>530.0</ele><time>2026-05-01T13:02:46Z</time></trkpt><trkpt lat="44.274549021906715" lon="8.231519751006658"><ele>530.0</ele><time>2026-05-01T13:02:47Z</time></trkpt><trkpt lat="44.27447207698374" lon="8.23147387997416"><ele>530.0</ele><time>2026-05-01T13:02:48Z</time></trkpt><trkpt lat="44.27440005581617" lon="8.23143766768037"><ele>530.0</ele><time>2026-05-01T13:02:49Z</time></trkpt><trkpt lat="44.27432414756481" lon="8.231397794688847"><ele>530.0</ele><time>2026-05-01T13:02:50Z</time></trkpt><trkpt lat="44.27423739819863" lon="8.231356818093845"><ele>530.0</ele><time>2026-05-01T13:02:51Z</time></trkpt><trkpt lat="44.274137308422084" lon="8.231308878096495"><ele>530.0</ele><time>2026-05-01T13:02:52Z</time></trkpt><trkpt lat="44.27403220313249" lon="8.231251387423317"><ele>531.75</ele><time>2026-05-01T13:02:53Z</time></trkpt><trkpt lat="44.273916960680474" lon="8.231192591976523"><ele>533.5</ele><time>2026-05-01T13:02:54Z</time></trkpt><trkpt lat="44.273797412175504" lon="8.231134589291896"><ele>535.25</ele><time>2026-05-01T13:02:55Z</time></trkpt><trkpt lat="44.2736670469576" lon="8.231074968848542"><ele>537.0</ele><time>2026-05-01T13:02:56Z</time></trkpt><trkpt lat="44.27353451096443" lon="8.231012456932726"><ele>537.0</ele><time>2026-05-01T13:02:57Z</time></trkpt><trkpt lat="44.273389784112176" lon="8.230946805972067"><ele>537.0</ele><time>2026-05-01T13:02:58Z</time></trkpt><trkpt lat="44.27325142905457" lon="8.230884198477634"><ele>537.0</ele><time>2026-05-01T13:02:59Z</time></trkpt><trkpt lat="44.27310928324731" lon="8.230816133303673"><ele>537.0</ele><time>2026-05-01T13:03:00Z</time></trkpt><trkpt lat="44.272989260651194" lon="8.230770801917638"><ele>537.25</ele><time>2026-05-01T13:03:01Z</time></trkpt><trkpt lat="44.272868736388396" lon="8.230755956023332"><ele>537.5</ele><time>2026-05-01T13:03:02Z</time></trkpt><trkpt lat="44.27273427775034" lon="8.230761840865043"><ele>537.75</ele><time>2026-05-01T13:03:03Z</time></trkpt><trkpt lat="44.27258451115727" lon="8.230777806855123"><ele>538.0</ele><time>2026-05-01T13:03:04Z</time></trkpt><trkpt lat="44.27242593856252" lon="8.230785677411227"><ele>536.5</ele><time>2026-05-01T13:03:05Z</time></trkpt><trkpt lat="44.27226604055169" lon="8.230790339355043"><ele>535.0</ele><time>2026-05-01T13:03:06Z</time></trkpt><trkpt lat="44.272123257078114" lon="8.230788209754014"><ele>533.5</ele><time>2026-05-01T13:03:07Z</time></trkpt><trkpt lat="44.27199715547164" lon="8.23075363284619"><ele>532.0</ele><time>2026-05-01T13:03:08Z</time></trkpt><trkpt lat="44.271881149014725" lon="8.230686579797963"><ele>536.25</ele><time>2026-05-01T13:03:09Z</time></trkpt><trkpt lat="44.2717963955377" lon="8.230592910839434"><ele>540.5</ele><time>2026-05-01T13:03:10Z</time></trkpt><trkpt lat="44.2717402460007" lon="8.230455720249097"><ele>544.75</ele><time>2026-05-01T13:03:11Z</time></trkpt><trkpt lat="44.27167493905343" lon="8.230287339828187"><ele>549.0</ele><time>2026-05-01T13:03:12Z</time></trkpt><trkpt lat="44.271582489480274" lon="8.230115122822571"><ele>549.0</ele><time>2026-05-01T13:03:13Z</time></trkpt><trkpt lat="44.271459637144915" lon="8.229956614035583"><ele>549.0</ele><time>2026-05-01T13:03:14Z</time></trkpt><trkpt lat="44.27133988779683" lon="8.229840605729398"><ele>549.0</ele><time>2026-05-01T13:03:15Z</time></trkpt><trkpt lat="44.27121249685252" lon="8.229813306817398"><ele>549.0</ele><time>2026-05-01T13:03:16Z</time></trkpt><trkpt lat="44.2710674392658" lon="8.229812985262555"><ele>555.0</ele><time>2026-05-01T13:03:17Z</time></trkpt><trkpt lat="44.27090402875946" lon="8.229802043254098"><ele>561.0</ele><time>2026-05-01T13:03:18Z</time></trkpt><trkpt lat="44.27073290984347" lon="8.22977544934546"><ele>567.0</ele><time>2026-05-01T13:03:19Z</time></trkpt><trkpt lat="44.27055894400609" lon="8.229753752031245"><ele>567.0</ele><time>2026-05-01T13:03:20Z</time></trkpt><trkpt lat="44.270410893661186" lon="8.229758357552225"><ele>567.0</ele><time>2026-05-01T13:03:21Z</time></trkpt><trkpt lat="44.27027255666452" lon="8.229783426669838"><ele>567.0</ele><time>2026-05-01T13:03:22Z</time></trkpt><trkpt lat="44.270124682440034" lon="8.22980724111475"><ele>567.0</ele><time>2026-05-01T13:03:23Z</time></trkpt><trkpt lat="44.269960730381094" lon="8.22982432222199"><ele>559.6666666666666</ele><time>2026-05-01T13:03:24Z</time></trkpt><trkpt lat="44.26978656576065" lon="8.229839440280786"><ele>552.3333333333333</ele><time>2026-05-01T13:03:25Z</time></trkpt><trkpt lat="44.269600185920304" lon="8.229864563031036"><ele>545.0</ele><time>2026-05-01T13:03:26Z</time></trkpt><trkpt lat="44.269423444823865" lon="8.229890802737104"><ele>545.0</ele><time>2026-05-01T13:03:27Z</time></trkpt><trkpt lat="44.26928707391275" lon="8.229903807194233"><ele>545.0</ele><time>2026-05-01T13:03:28Z</time></trkpt><trkpt lat="44.26919703999585" lon="8.229904956481386"><ele>545.0</ele><time>2026-05-01T13:03:29Z</time></trkpt><trkpt lat="44.26907696563157" lon="8.229900152933176"><ele>545.0</ele><time>2026-05-01T13:03:31Z</time></trkpt><trkpt lat="44.268999449654046" lon="8.229889461369712"><ele>545.0</ele><time>2026-05-01T13:03:32Z</time></trkpt><trkpt lat="44.26891465625719" lon="8.229823639201513"><ele>548.25</ele><time>2026-05-01T13:03:33Z</time></trkpt><trkpt lat="44.26883588643685" lon="8.229700568872932"><ele>551.5</ele><time>2026-05-01T13:03:34Z</time></trkpt><trkpt lat="44.26877670781885" lon="8.229528829002234"><ele>554.75</ele><time>2026-05-01T13:03:35Z</time></trkpt><trkpt lat="44.26872429904293" lon="8.229320755972132"><ele>558.0</ele><time>2026-05-01T13:03:36Z</time></trkpt><trkpt lat="44.268665127685885" lon="8.229088893088896"><ele>558.0</ele><time>2026-05-01T13:03:37Z</time></trkpt><trkpt lat="44.268591373207386" lon="8.228848245004817"><ele>558.0</ele><time>2026-05-01T13:03:38Z</time></trkpt><trkpt lat="44.2685155396533" lon="8.22860420452596"><ele>558.0</ele><time>2026-05-01T13:03:39Z</time></trkpt><trkpt lat="44.26844010360666" lon="8.228356229890068"><ele>560.0</ele><time>2026-05-01T13:03:40Z</time></trkpt><trkpt lat="44.26840121078287" lon="8.228136082318416"><ele>562.0</ele><time>2026-05-01T13:03:41Z</time></trkpt><trkpt lat="44.26839546712556" lon="8.227941898425367"><ele>564.0</ele><time>2026-05-01T13:03:42Z</time></trkpt><trkpt lat="44.268395224731584" lon="8.22780323638317"><ele>566.0</ele><time>2026-05-01T13:03:43Z</time></trkpt><trkpt lat="44.26836985738134" lon="8.22771701880271"><ele>566.0</ele><time>2026-05-01T13:03:44Z</time></trkpt><trkpt lat="44.26829961713091" lon="8.227692680976462"><ele>566.0</ele><time>2026-05-01T13:03:45Z</time></trkpt><trkpt lat="44.268215159869264" lon="8.227724679676616"><ele>566.0</ele><time>2026-05-01T13:03:46Z</time></trkpt><trkpt lat="44.26816371246758" lon="8.227821991333807"><ele>566.0</ele><time>2026-05-01T13:03:47Z</time></trkpt><trkpt lat="44.26815896059965" lon="8.227954744057254"><ele>566.0</ele><time>2026-05-01T13:03:48Z</time></trkpt><trkpt lat="44.26819118650478" lon="8.228115253775798"><ele>563.3333333333333</ele><time>2026-05-01T13:03:49Z</time></trkpt><trkpt lat="44.268239424920374" lon="8.228304350876547"><ele>560.6666666666666</ele><time>2026-05-01T13:03:50Z</time></trkpt><trkpt lat="44.26826625697853" lon="8.228524559916538"><ele>558.0</ele><time>2026-05-01T13:03:51Z</time></trkpt><trkpt lat="44.268269998048815" lon="8.228752691393717"><ele>558.0</ele><time>2026-05-01T13:03:52Z</time></trkpt><trkpt lat="44.26826199744862" lon="8.228931682449957"><ele>558.0</ele><time>2026-05-01T13:03:53Z</time></trkpt><trkpt lat="44.26826173345098" lon="8.229080438539375"><ele>558.0</ele><time>2026-05-01T13:03:54Z</time></trkpt><trkpt lat="44.268241026457034" lon="8.2292082666027"><ele>558.0</ele><time>2026-05-01T13:03:55Z</time></trkpt><trkpt lat="44.26819466543031" lon="8.229346736773918"><ele>558.0</ele><time>2026-05-01T13:03:56Z</time></trkpt><trkpt lat="44.26812007924335" lon="8.229474700544257"><ele>565.0</ele><time>2026-05-01T13:03:57Z</time></trkpt><trkpt lat="44.26802865059715" lon="8.229551691356942"><ele>572.0</ele><time>2026-05-01T13:03:58Z</time></trkpt><trkpt lat="44.2679195490417" lon="8.229601567924465"><ele>579.0</ele><time>2026-05-01T13:03:59Z</time></trkpt><trkpt lat="44.26778026877723" lon="8.229643514854038"><ele>586.0</ele><time>2026-05-01T13:04:00Z</time></trkpt><trkpt lat="44.2676292069679" lon="8.229689218413524"><ele>586.0</ele><time>2026-05-01T13:04:01Z</time></trkpt><trkpt lat="44.26747917694763" lon="8.229741784888189"><ele>586.0</ele><time>2026-05-01T13:04:02Z</time></trkpt><trkpt lat="44.26731390924833" lon="8.229810949196146"><ele>586.0</ele><time>2026-05-01T13:04:03Z</time></trkpt><trkpt lat="44.26713602410117" lon="8.229885148217065"><ele>584.3333333333334</ele><time>2026-05-01T13:04:04Z</time></trkpt><trkpt lat="44.26694971413729" lon="8.229960294581167"><ele>582.6666666666666</ele><time>2026-05-01T13:04:05Z</time></trkpt><trkpt lat="44.26675776759705" lon="8.230043665560512"><ele>581.0</ele><time>2026-05-01T13:04:06Z</time></trkpt><trkpt lat="44.26658102810377" lon="8.230121965999578"><ele>580.75</ele><time>2026-05-01T13:04:07Z</time></trkpt><trkpt lat="44.26643615089801" lon="8.230176650910865"><ele>580.5</ele><time>2026-05-01T13:04:08Z</time></trkpt><trkpt lat="44.266304097429675" lon="8.230214283900336"><ele>580.25</ele><time>2026-05-01T13:04:09Z</time></trkpt><trkpt lat="44.26618804801554" lon="8.230217783954245"><ele>580.0</ele><time>2026-05-01T13:04:10Z</time></trkpt><trkpt lat="44.266079199952905" lon="8.230166627274988"><ele>580.0</ele><time>2026-05-01T13:04:11Z</time></trkpt><trkpt lat="44.26596706613368" lon="8.230086499447545"><ele>580.0</ele><time>2026-05-01T13:04:12Z</time></trkpt><trkpt lat="44.26584251255377" lon="8.229961286650974"><ele>580.0</ele><time>2026-05-01T13:04:13Z</time></trkpt><trkpt lat="44.265706357588066" lon="8.229833439270017"><ele>580.0</ele><time>2026-05-01T13:04:14Z</time></trkpt><trkpt lat="44.265589763475006" lon="8.229764286725148"><ele>579.6</ele><time>2026-05-01T13:04:15Z</time></trkpt><trkpt lat="44.265487635663916" lon="8.229694319037874"><ele>579.2</ele><time>2026-05-01T13:04:16Z</time></trkpt><trkpt lat="44.26541066222695" lon="8.229604570885366"><ele>578.8</ele><time>2026-05-01T13:04:17Z</time></trkpt><trkpt lat="44.2653650538342" lon="8.229499192214028"><ele>578.4</ele><time>2026-05-01T13:04:18Z</time></trkpt><trkpt lat="44.26535730617935" lon="8.229337790647572"><ele>578.0</ele><time>2026-05-01T13:04:19Z</time></trkpt><trkpt lat="44.26537196747322" lon="8.229144711381668"><ele>585.0</ele><time>2026-05-01T13:04:20Z</time></trkpt><trkpt lat="44.265385369273986" lon="8.228958200039655"><ele>592.0</ele><time>2026-05-01T13:04:21Z</time></trkpt><trkpt lat="44.265354638784785" lon="8.228818430614897"><ele>599.0</ele><time>2026-05-01T13:04:22Z</time></trkpt><trkpt lat="44.26527968413139" lon="8.22872600421908"><ele>606.0</ele><time>2026-05-01T13:04:23Z</time></trkpt><trkpt lat="44.265168560864375" lon="8.228664345361071"><ele>606.0</ele><time>2026-05-01T13:04:24Z</time></trkpt><trkpt lat="44.26503667478024" lon="8.228588041427798"><ele>606.0</ele><time>2026-05-01T13:04:25Z</time></trkpt><trkpt lat="44.26490415536553" lon="8.228472919420769"><ele>606.0</ele><time>2026-05-01T13:04:26Z</time></trkpt><trkpt lat="44.264767690705824" lon="8.22834529234946"><ele>602.5</ele><time>2026-05-01T13:04:27Z</time></trkpt><trkpt lat="44.2646143266662" lon="8.228219959743894"><ele>599.0</ele><time>2026-05-01T13:04:28Z</time></trkpt><trkpt lat="44.264491720743884" lon="8.228120684584583"><ele>595.5</ele><time>2026-05-01T13:04:29Z</time></trkpt><trkpt lat="44.26440525805973" lon="8.228047978339534"><ele>592.0</ele><time>2026-05-01T13:04:30Z</time></trkpt><trkpt lat="44.26435598256424" lon="8.22795757993679"><ele>592.0</ele><time>2026-05-01T13:04:31Z</time></trkpt><trkpt lat="44.26434251121105" lon="8.227827437369777"><ele>592.0</ele><time>2026-05-01T13:04:32Z</time></trkpt><trkpt lat="44.264364144647736" lon="8.227660610585145"><ele>592.0</ele><time>2026-05-01T13:04:33Z</time></trkpt><trkpt lat="44.264401417364766" lon="8.227464624784712"><ele>592.0</ele><time>2026-05-01T13:04:34Z</time></trkpt><trkpt lat="44.26441248672779" lon="8.227269082342763"><ele>596.5</ele><time>2026-05-01T13:04:35Z</time></trkpt><trkpt lat="44.264360489409896" lon="8.227102977403979"><ele>601.0</ele><time>2026-05-01T13:04:36Z</time></trkpt><trkpt lat="44.26425929724598" lon="8.226943289706039"><ele>605.5</ele><time>2026-05-01T13:04:37Z</time></trkpt><trkpt lat="44.264146528810585" lon="8.226783129476912"><ele>610.0</ele><time>2026-05-01T13:04:38Z</time></trkpt><trkpt lat="44.264075553536095" lon="8.22663992744442"><ele>611.0</ele><time>2026-05-01T13:04:39Z</time></trkpt><trkpt lat="44.26401532314762" lon="8.226465050015658"><ele>612.0</ele><time>2026-05-01T13:04:40Z</time></trkpt><trkpt lat="44.26393821420254" lon="8.226251078970698"><ele>613.0</ele><time>2026-05-01T13:04:41Z</time></trkpt><trkpt lat="44.26383536775248" lon="8.226105680024617"><ele>613.0</ele><time>2026-05-01T13:04:42Z</time></trkpt><trkpt lat="44.26367579331748" lon="8.226007634011754"><ele>613.0</ele><time>2026-05-01T13:04:43Z</time></trkpt><trkpt lat="44.26349222560949" lon="8.225908889294773"><ele>613.0</ele><time>2026-05-01T13:04:44Z</time></trkpt><trkpt lat="44.26333903918212" lon="8.225839495563537"><ele>613.0</ele><time>2026-05-01T13:04:45Z</time></trkpt><trkpt lat="44.2632113454649" lon="8.225800839164497"><ele>613.0</ele><time>2026-05-01T13:04:46Z</time></trkpt><trkpt lat="44.26311480144518" lon="8.225824602457232"><ele>613.0</ele><time>2026-05-01T13:04:47Z</time></trkpt><trkpt lat="44.263021770288994" lon="8.225868238940965"><ele>613.0</ele><time>2026-05-01T13:04:48Z</time></trkpt><trkpt lat="44.26292923072072" lon="8.225858764026842"><ele>613.0</ele><time>2026-05-01T13:04:49Z</time></trkpt><trkpt lat="44.26282547995012" lon="8.225763286021696"><ele>618.75</ele><time>2026-05-01T13:04:50Z</time></trkpt><trkpt lat="44.26272107798212" lon="8.225616071159665"><ele>624.5</ele><time>2026-05-01T13:04:51Z</time></trkpt><trkpt lat="44.26261713923968" lon="8.225469946917674"><ele>630.25</ele><time>2026-05-01T13:04:52Z</time></trkpt><trkpt lat="44.26252245153838" lon="8.2253779417172"><ele>636.0</ele><time>2026-05-01T13:04:53Z</time></trkpt><trkpt lat="44.262436067950524" lon="8.225326073849084"><ele>636.0</ele><time>2026-05-01T13:04:54Z</time></trkpt><trkpt lat="44.26235583539563" lon="8.225293352066476"><ele>636.0</ele><time>2026-05-01T13:04:55Z</time></trkpt><trkpt lat="44.26228581176261" lon="8.22526505418421"><ele>636.0</ele><time>2026-05-01T13:04:56Z</time></trkpt><trkpt lat="44.262217233349894" lon="8.225236176136741"><ele>636.0</ele><time>2026-05-01T13:04:57Z</time></trkpt><trkpt lat="44.262108521304796" lon="8.225188528723836"><ele>636.0</ele><time>2026-05-01T13:04:59Z</time></trkpt><trkpt lat="44.26197724206151" lon="8.225117400206898"><ele>637.0</ele><time>2026-05-01T13:05:01Z</time></trkpt><trkpt lat="44.26188380129063" lon="8.225049172649683"><ele>638.0</ele><time>2026-05-01T13:05:02Z</time></trkpt><trkpt lat="44.261781216515054" lon="8.224940443213235"><ele>639.0</ele><time>2026-05-01T13:05:03Z</time></trkpt><trkpt lat="44.26169791791592" lon="8.224816417903106"><ele>640.0</ele><time>2026-05-01T13:05:04Z</time></trkpt><trkpt lat="44.261620794072016" lon="8.224701934894393"><ele>640.0</ele><time>2026-05-01T13:05:05Z</time></trkpt><trkpt lat="44.26153731473386" lon="8.224619433268195"><ele>640.0</ele><time>2026-05-01T13:05:06Z</time></trkpt><trkpt lat="44.261437395831365" lon="8.224579404152692"><ele>640.0</ele><time>2026-05-01T13:05:07Z</time></trkpt><trkpt lat="44.261321171956446" lon="8.2246098217745"><ele>640.0</ele><time>2026-05-01T13:05:08Z</time></trkpt><trkpt lat="44.26119409948566" lon="8.224649972149058"><ele>638.2</ele><time>2026-05-01T13:05:09Z</time></trkpt><trkpt lat="44.261077892206124" lon="8.224651532772938"><ele>636.4</ele><time>2026-05-01T13:05:10Z</time></trkpt><trkpt lat="44.26098270336003" lon="8.224590308242172"><ele>634.6</ele><time>2026-05-01T13:05:11Z</time></trkpt><trkpt lat="44.26091573023286" lon="8.224503194851753"><ele>632.8</ele><time>2026-05-01T13:05:12Z</time></trkpt><trkpt lat="44.26089689740887" lon="8.224410557711822"><ele>631.0</ele><time>2026-05-01T13:05:13Z</time></trkpt><trkpt lat="44.26091274230248" lon="8.224316791385167"><ele>631.0</ele><time>2026-05-01T13:05:14Z</time></trkpt><trkpt lat="44.260942758537894" lon="8.22421067563807"><ele>631.0</ele><time>2026-05-01T13:05:15Z</time></trkpt><trkpt lat="44.260940701529925" lon="8.224092108795839"><ele>631.0</ele><time>2026-05-01T13:05:16Z</time></trkpt><trkpt lat="44.260875010052786" lon="8.223996904995541"><ele>631.0</ele><time>2026-05-01T13:05:17Z</time></trkpt><trkpt lat="44.260774585637385" lon="8.223933508666825"><ele>631.0</ele><time>2026-05-01T13:05:18Z</time></trkpt><trkpt lat="44.26065062763879" lon="8.223899364964215"><ele>634.5</ele><time>2026-05-01T13:05:19Z</time></trkpt><trkpt lat="44.26051549210913" lon="8.223883880923292"><ele>638.0</ele><time>2026-05-01T13:05:20Z</time></trkpt><trkpt lat="44.2603834903544" lon="8.223882226396176"><ele>641.5</ele><time>2026-05-01T13:05:21Z</time></trkpt><trkpt lat="44.26025273225818" lon="8.223842419850804"><ele>645.0</ele><time>2026-05-01T13:05:22Z</time></trkpt><trkpt lat="44.26013333755709" lon="8.223750067492904"><ele>645.0</ele><time>2026-05-01T13:05:23Z</time></trkpt><trkpt lat="44.26001958199445" lon="8.223604556939456"><ele>645.0</ele><time>2026-05-01T13:05:24Z</time></trkpt><trkpt lat="44.25990186839337" lon="8.223414231141373"><ele>645.0</ele><time>2026-05-01T13:05:25Z</time></trkpt><trkpt lat="44.25976348941555" lon="8.223225414609036"><ele>644.25</ele><time>2026-05-01T13:05:26Z</time></trkpt><trkpt lat="44.25968735205363" lon="8.223097575866023"><ele>643.5</ele><time>2026-05-01T13:05:27Z</time></trkpt><trkpt lat="44.259631379893534" lon="8.222924163352989"><ele>642.75</ele><time>2026-05-01T13:05:28Z</time></trkpt><trkpt lat="44.25958668577001" lon="8.222722118540643"><ele>642.0</ele><time>2026-05-01T13:05:29Z</time></trkpt><trkpt lat="44.25954881156429" lon="8.222515754595504"><ele>648.0</ele><time>2026-05-01T13:05:30Z</time></trkpt><trkpt lat="44.2595455693335" lon="8.222306169687755"><ele>654.0</ele><time>2026-05-01T13:05:31Z</time></trkpt><trkpt lat="44.25955096015567" lon="8.222117362368"><ele>660.0</ele><time>2026-05-01T13:05:32Z</time></trkpt><trkpt lat="44.25952508431586" lon="8.221994996246368"><ele>666.0</ele><time>2026-05-01T13:05:33Z</time></trkpt><trkpt lat="44.25949684375271" lon="8.22190061378711"><ele>666.0</ele><time>2026-05-01T13:05:34Z</time></trkpt><trkpt lat="44.25941410565738" lon="8.221838339455383"><ele>666.0</ele><time>2026-05-01T13:05:35Z</time></trkpt><trkpt lat="44.259293935695844" lon="8.221842894541064"><ele>666.0</ele><time>2026-05-01T13:05:36Z</time></trkpt><trkpt lat="44.25916827764428" lon="8.221829488356818"><ele>666.0</ele><time>2026-05-01T13:05:37Z</time></trkpt><trkpt lat="44.2590829207561" lon="8.221787893798526"><ele>666.0</ele><time>2026-05-01T13:05:38Z</time></trkpt><trkpt lat="44.25900191833214" lon="8.221718391538944"><ele>668.0</ele><time>2026-05-01T13:05:39Z</time></trkpt><trkpt lat="44.25894717999338" lon="8.221593079457723"><ele>670.0</ele><time>2026-05-01T13:05:40Z</time></trkpt><trkpt lat="44.25887750405939" lon="8.221454070497598"><ele>672.0</ele><time>2026-05-01T13:05:41Z</time></trkpt><trkpt lat="44.25880653854774" lon="8.22135042129711"><ele>674.0</ele><time>2026-05-01T13:05:42Z</time></trkpt><trkpt lat="44.25872294114394" lon="8.22129899728895"><ele>676.0</ele><time>2026-05-01T13:05:43Z</time></trkpt><trkpt lat="44.258642547491434" lon="8.221364414832225"><ele>676.0</ele><time>2026-05-01T13:05:44Z</time></trkpt><trkpt lat="44.258570228434124" lon="8.22146729981337"><ele>676.0</ele><time>2026-05-01T13:05:45Z</time></trkpt><trkpt lat="44.25848972793191" lon="8.221610512603393"><ele>676.0</ele><time>2026-05-01T13:05:46Z</time></trkpt><trkpt lat="44.2584103632776" lon="8.221741358385446"><ele>676.0</ele><time>2026-05-01T13:05:47Z</time></trkpt><trkpt lat="44.258324840089855" lon="8.221859782200521"><ele>676.0</ele><time>2026-05-01T13:05:48Z</time></trkpt><trkpt lat="44.25825455225622" lon="8.221935961598659"><ele>676.0</ele><time>2026-05-01T13:05:49Z</time></trkpt><trkpt lat="44.25819035567076" lon="8.221963553364676"><ele>676.0</ele><time>2026-05-01T13:05:50Z</time></trkpt><trkpt lat="44.25810189003794" lon="8.221929745696933"><ele>676.0</ele><time>2026-05-01T13:05:51Z</time></trkpt><trkpt lat="44.25798271413944" lon="8.2218921841845"><ele>676.0</ele><time>2026-05-01T13:05:52Z</time></trkpt><trkpt lat="44.25788578557644" lon="8.22184740092293"><ele>675.4</ele><time>2026-05-01T13:05:53Z</time></trkpt><trkpt lat="44.257823453090495" lon="8.221788033281223"><ele>674.8</ele><time>2026-05-01T13:05:54Z</time></trkpt><trkpt lat="44.2578069484609" lon="8.22168987300709"><ele>674.1999999999999</ele><time>2026-05-01T13:05:55Z</time></trkpt><trkpt lat="44.25775523838536" lon="8.221575265594335"><ele>673.5999999999999</ele><time>2026-05-01T13:05:56Z</time></trkpt><trkpt lat="44.25766958176293" lon="8.22144493520426"><ele>673.0</ele><time>2026-05-01T13:05:57Z</time></trkpt><trkpt lat="44.25755043328515" lon="8.221352692111529"><ele>675.25</ele><time>2026-05-01T13:05:58Z</time></trkpt><trkpt lat="44.2574186865539" lon="8.22127337420608"><ele>677.5</ele><time>2026-05-01T13:05:59Z</time></trkpt><trkpt lat="44.25727201517659" lon="8.221197264335506"><ele>679.75</ele><time>2026-05-01T13:06:00Z</time></trkpt><trkpt lat="44.257139843333185" lon="8.221126680852025"><ele>682.0</ele><time>2026-05-01T13:06:01Z</time></trkpt><trkpt lat="44.257032930719475" lon="8.221093024327795"><ele>682.0</ele><time>2026-05-01T13:06:02Z</time></trkpt><trkpt lat="44.25698235308231" lon="8.221023932320236"><ele>682.0</ele><time>2026-05-01T13:06:03Z</time></trkpt><trkpt lat="44.256976830390634" lon="8.220902981960727"><ele>682.0</ele><time>2026-05-01T13:06:04Z</time></trkpt><trkpt lat="44.25699303135263" lon="8.22076115063735"><ele>682.0</ele><time>2026-05-01T13:06:05Z</time></trkpt><trkpt lat="44.25696139878276" lon="8.220626925808439"><ele>682.0</ele><time>2026-05-01T13:06:06Z</time></trkpt><trkpt lat="44.256875904636864" lon="8.220539305761145"><ele>688.0</ele><time>2026-05-01T13:06:07Z</time></trkpt><trkpt lat="44.25675933477893" lon="8.220494678877271"><ele>694.0</ele><time>2026-05-01T13:06:08Z</time></trkpt><trkpt lat="44.256616370474504" lon="8.220475375719005"><ele>700.0</ele><time>2026-05-01T13:06:09Z</time></trkpt><trkpt lat="44.25648274312187" lon="8.220415454636171"><ele>706.0</ele><time>2026-05-01T13:06:10Z</time></trkpt><trkpt lat="44.256389097567165" lon="8.220291808573846"><ele>707.8</ele><time>2026-05-01T13:06:11Z</time></trkpt><trkpt lat="44.25631236735877" lon="8.220223799330372"><ele>709.5999999999999</ele><time>2026-05-01T13:06:12Z</time></trkpt><trkpt lat="44.25624532995004" lon="8.220207687352318"><ele>711.4</ele><time>2026-05-01T13:06:13Z</time></trkpt><trkpt lat="44.25614824089866" lon="8.220268884026822"><ele>713.2</ele><time>2026-05-01T13:06:14Z</time></trkpt><trkpt lat="44.25604741239677" lon="8.220370677234566"><ele>715.0</ele><time>2026-05-01T13:06:15Z</time></trkpt><trkpt lat="44.25593451347362" lon="8.220485692833389"><ele>715.0</ele><time>2026-05-01T13:06:16Z</time></trkpt><trkpt lat="44.25582586189133" lon="8.220611735310259"><ele>715.0</ele><time>2026-05-01T13:06:17Z</time></trkpt><trkpt lat="44.25572740025919" lon="8.220728414971854"><ele>715.0</ele><time>2026-05-01T13:06:18Z</time></trkpt><trkpt lat="44.25566015854248" lon="8.220827939909267"><ele>715.0</ele><time>2026-05-01T13:06:19Z</time></trkpt><trkpt lat="44.255556681824196" lon="8.220884385330605"><ele>710.0</ele><time>2026-05-01T13:06:20Z</time></trkpt><trkpt lat="44.25542596846504" lon="8.220908768082076"><ele>705.0</ele><time>2026-05-01T13:06:21Z</time></trkpt><trkpt lat="44.25529893187345" lon="8.220857524910148"><ele>700.0</ele><time>2026-05-01T13:06:22Z</time></trkpt><trkpt lat="44.25517901891937" lon="8.220771860017399"><ele>695.0</ele><time>2026-05-01T13:06:23Z</time></trkpt><trkpt lat="44.255049381863664" lon="8.220692834596312"><ele>699.0</ele><time>2026-05-01T13:06:24Z</time></trkpt><trkpt lat="44.2549519550228" lon="8.220594976855104"><ele>703.0</ele><time>2026-05-01T13:06:25Z</time></trkpt><trkpt lat="44.25489473842794" lon="8.220497547951343"><ele>707.0</ele><time>2026-05-01T13:06:26Z</time></trkpt><trkpt lat="44.254866915910924" lon="8.220385320795751"><ele>711.0</ele><time>2026-05-01T13:06:27Z</time></trkpt><trkpt lat="44.25485936388908" lon="8.220257855337085"><ele>715.0</ele><time>2026-05-01T13:06:28Z</time></trkpt><trkpt lat="44.25484318733238" lon="8.220152612536644"><ele>715.0</ele><time>2026-05-01T13:06:29Z</time></trkpt><trkpt lat="44.2548408565902" lon="8.220050073631375"><ele>715.0</ele><time>2026-05-01T13:06:30Z</time></trkpt><trkpt lat="44.25491296238351" lon="8.21993951087742"><ele>715.0</ele><time>2026-05-01T13:06:32Z</time></trkpt><trkpt lat="44.25497872785605" lon="8.219950206819991"><ele>715.0</ele><time>2026-05-01T13:06:33Z</time></trkpt><trkpt lat="44.25502764643887" lon="8.220010945129353"><ele>715.0</ele><time>2026-05-01T13:06:34Z</time></trkpt><trkpt lat="44.25500704843888" lon="8.220124911123607"><ele>715.0</ele><time>2026-05-01T13:06:35Z</time></trkpt><trkpt lat="44.25503428096346" lon="8.220229662769587"><ele>715.0</ele><time>2026-05-01T13:06:36Z</time></trkpt><trkpt lat="44.25505618339983" lon="8.22035209773186"><ele>715.0</ele><time>2026-05-01T13:06:37Z</time></trkpt><trkpt lat="44.25512099316679" lon="8.220413576656574"><ele>715.0</ele><time>2026-05-01T13:06:38Z</time></trkpt><trkpt lat="44.25521108587109" lon="8.220436416296751"><ele>715.0</ele><time>2026-05-01T13:06:39Z</time></trkpt><trkpt lat="44.255331701723186" lon="8.22038537581786"><ele>715.0</ele><time>2026-05-01T13:06:40Z</time></trkpt><trkpt lat="44.2554665557868" lon="8.220327128443332"><ele>715.0</ele><time>2026-05-01T13:06:41Z</time></trkpt><trkpt lat="44.255595381179745" lon="8.220265307608324"><ele>715.0</ele><time>2026-05-01T13:06:42Z</time></trkpt><trkpt lat="44.25568542729173" lon="8.220201001430134"><ele>715.0</ele><time>2026-05-01T13:06:43Z</time></trkpt><trkpt lat="44.255749945218945" lon="8.220106861244018"><ele>715.0</ele><time>2026-05-01T13:06:44Z</time></trkpt><trkpt lat="44.25579453242891" lon="8.21998553958095"><ele>715.0</ele><time>2026-05-01T13:06:45Z</time></trkpt><trkpt lat="44.25583628860578" lon="8.219837808854024"><ele>719.25</ele><time>2026-05-01T13:06:46Z</time></trkpt><trkpt lat="44.255907600885195" lon="8.21968686262356"><ele>723.5</ele><time>2026-05-01T13:06:47Z</time></trkpt><trkpt lat="44.25601317138169" lon="8.219560204324953"><ele>727.75</ele><time>2026-05-01T13:06:48Z</time></trkpt><trkpt lat="44.256124358184074" lon="8.21946684070461"><ele>732.0</ele><time>2026-05-01T13:06:49Z</time></trkpt><trkpt lat="44.25619784412569" lon="8.219370489119173"><ele>732.0</ele><time>2026-05-01T13:06:50Z</time></trkpt><trkpt lat="44.25626197456757" lon="8.21932317159237"><ele>732.0</ele><time>2026-05-01T13:06:51Z</time></trkpt><trkpt lat="44.25627672582735" lon="8.219236033702424"><ele>732.0</ele><time>2026-05-01T13:06:52Z</time></trkpt><trkpt lat="44.256273393725536" lon="8.219141012392706"><ele>732.0</ele><time>2026-05-01T13:06:53Z</time></trkpt><trkpt lat="44.256199987551874" lon="8.219065873964503"><ele>732.0</ele><time>2026-05-01T13:06:54Z</time></trkpt><trkpt lat="44.256099812003015" lon="8.21907927064011"><ele>732.0</ele><time>2026-05-01T13:06:55Z</time></trkpt><trkpt lat="44.256018246717005" lon="8.219139756284784"><ele>732.0</ele><time>2026-05-01T13:06:56Z</time></trkpt><trkpt lat="44.25592561043952" lon="8.219247424349156"><ele>732.0</ele><time>2026-05-01T13:06:57Z</time></trkpt><trkpt lat="44.25581431121443" lon="8.219368002761978"><ele>732.0</ele><time>2026-05-01T13:06:58Z</time></trkpt><trkpt lat="44.25572064419801" lon="8.219472444161639"><ele>732.0</ele><time>2026-05-01T13:06:59Z</time></trkpt><trkpt lat="44.25563978903305" lon="8.219523654675058"><ele>731.1666666666666</ele><time>2026-05-01T13:07:00Z</time></trkpt><trkpt lat="44.25557395664232" lon="8.219514620203075"><ele>730.3333333333334</ele><time>2026-05-01T13:07:01Z</time></trkpt><trkpt lat="44.255520432928" lon="8.219461293792323"><ele>729.5</ele><time>2026-05-01T13:07:02Z</time></trkpt><trkpt lat="44.255450483854474" lon="8.219414697853487"><ele>728.6666666666667</ele><time>2026-05-01T13:07:03Z</time></trkpt><trkpt lat="44.255402392439784" lon="8.219281553565668"><ele>727.8333333333334</ele><time>2026-05-01T13:07:04Z</time></trkpt><trkpt lat="44.25534748624041" lon="8.219133879632913"><ele>727.0</ele><time>2026-05-01T13:07:05Z</time></trkpt><trkpt lat="44.255264876731964" lon="8.219008710994022"><ele>730.1666666666667</ele><time>2026-05-01T13:07:06Z</time></trkpt><trkpt lat="44.25521564405021" lon="8.218911856491268"><ele>733.3333333333334</ele><time>2026-05-01T13:07:07Z</time></trkpt><trkpt lat="44.255185689250695" lon="8.218833298365967"><ele>736.5</ele><time>2026-05-01T13:07:08Z</time></trkpt><trkpt lat="44.25521236199089" lon="8.218730109298935"><ele>739.6666666666666</ele><time>2026-05-01T13:07:09Z</time></trkpt><trkpt lat="44.25524976083102" lon="8.218616459524442"><ele>742.8333333333333</ele><time>2026-05-01T13:07:10Z</time></trkpt><trkpt lat="44.25530805191693" lon="8.218493695946341"><ele>746.0</ele><time>2026-05-01T13:07:11Z</time></trkpt><trkpt lat="44.25530988621894" lon="8.218383091302783"><ele>746.0</ele><time>2026-05-01T13:07:12Z</time></trkpt><trkpt lat="44.2551929617366" lon="8.218299278844261"><ele>746.0</ele><time>2026-05-01T13:07:14Z</time></trkpt><trkpt lat="44.2550912989496" lon="8.218380040610729"><ele>746.0</ele><time>2026-05-01T13:07:15Z</time></trkpt><trkpt lat="44.25499251581921" lon="8.218396557827333"><ele>746.0</ele><time>2026-05-01T13:07:16Z</time></trkpt><trkpt lat="44.25491761760888" lon="8.218407609824942"><ele>746.0</ele><time>2026-05-01T13:07:17Z</time></trkpt><trkpt lat="44.254837764867396" lon="8.218355841928423"><ele>746.0</ele><time>2026-05-01T13:07:18Z</time></trkpt><trkpt lat="44.25478994802523" lon="8.218189314005262"><ele>746.0</ele><time>2026-05-01T13:07:19Z</time></trkpt><trkpt lat="44.25466149607737" lon="8.218139004991349"><ele>746.0</ele><time>2026-05-01T13:07:21Z</time></trkpt><trkpt lat="44.2545601911266" lon="8.218192901549996"><ele>746.0</ele><time>2026-05-01T13:07:22Z</time></trkpt><trkpt lat="44.25449685797661" lon="8.218342740421043"><ele>745.8</ele><time>2026-05-01T13:07:23Z</time></trkpt><trkpt lat="44.25441976833728" lon="8.218387568220738"><ele>745.5999999999999</ele><time>2026-05-01T13:07:24Z</time></trkpt><trkpt lat="44.254336060665665" lon="8.21836593764775"><ele>745.4</ele><time>2026-05-01T13:07:25Z</time></trkpt><trkpt lat="44.254242906277085" lon="8.218304674155876"><ele>745.2</ele><time>2026-05-01T13:07:26Z</time></trkpt><trkpt lat="44.25410026237518" lon="8.21822413947829"><ele>745.0</ele><time>2026-05-01T13:07:27Z</time></trkpt><trkpt lat="44.25396402746517" lon="8.218186381615055"><ele>742.0</ele><time>2026-05-01T13:07:28Z</time></trkpt><trkpt lat="44.253841834215585" lon="8.218220714981026"><ele>739.0</ele><time>2026-05-01T13:07:29Z</time></trkpt><trkpt lat="44.25375303071202" lon="8.218218024014323"><ele>736.0</ele><time>2026-05-01T13:07:30Z</time></trkpt><trkpt lat="44.253655248071865" lon="8.218153401042905"><ele>733.0</ele><time>2026-05-01T13:07:32Z</time></trkpt><trkpt lat="44.25365652253181" lon="8.217951191898152"><ele>732.75</ele><time>2026-05-01T13:07:34Z</time></trkpt><trkpt lat="44.2536792877939" lon="8.217756053371561"><ele>732.5</ele><time>2026-05-01T13:07:35Z</time></trkpt><trkpt lat="44.25369551035429" lon="8.2175645090238"><ele>732.25</ele><time>2026-05-01T13:07:36Z</time></trkpt><trkpt lat="44.25371728977851" lon="8.217365796045247"><ele>732.0</ele><time>2026-05-01T13:07:37Z</time></trkpt><trkpt lat="44.25374285996393" lon="8.21715571113932"><ele>732.6666666666666</ele><time>2026-05-01T13:07:38Z</time></trkpt><trkpt lat="44.25377287654719" lon="8.216920926667537"><ele>733.3333333333333</ele><time>2026-05-01T13:07:39Z</time></trkpt><trkpt lat="44.25380306839589" lon="8.216673256456012"><ele>734.0</ele><time>2026-05-01T13:07:40Z</time></trkpt><trkpt lat="44.253826167507356" lon="8.216419940172107"><ele>736.3333333333333</ele><time>2026-05-01T13:07:41Z</time></trkpt><trkpt lat="44.25384511906974" lon="8.216151429192568"><ele>738.6666666666666</ele><time>2026-05-01T13:07:42Z</time></trkpt><trkpt lat="44.253865872166834" lon="8.215913386996727"><ele>741.0</ele><time>2026-05-01T13:07:43Z</time></trkpt><trkpt lat="44.253863233068586" lon="8.215704387513574"><ele>741.75</ele><time>2026-05-01T13:07:44Z</time></trkpt><trkpt lat="44.253889337824745" lon="8.215545062251287"><ele>742.5</ele><time>2026-05-01T13:07:45Z</time></trkpt><trkpt lat="44.25394993592217" lon="8.215392854201388"><ele>743.25</ele><time>2026-05-01T13:07:46Z</time></trkpt><trkpt lat="44.254033600747" lon="8.215222548046784"><ele>744.0</ele><time>2026-05-01T13:07:47Z</time></trkpt><trkpt lat="44.25411034811526" lon="8.215038191701128"><ele>752.25</ele><time>2026-05-01T13:07:48Z</time></trkpt><trkpt lat="44.254141619760624" lon="8.214870811580816"><ele>760.5</ele><time>2026-05-01T13:07:49Z</time></trkpt><trkpt lat="44.25412812613134" lon="8.21471106189376"><ele>768.75</ele><time>2026-05-01T13:07:50Z</time></trkpt><trkpt lat="44.25408607817866" lon="8.21452236981497"><ele>777.0</ele><time>2026-05-01T13:07:51Z</time></trkpt><trkpt lat="44.2540428188135" lon="8.214312715227825"><ele>777.6666666666667</ele><time>2026-05-01T13:07:52Z</time></trkpt><trkpt lat="44.25398421936365" lon="8.214094963983314"><ele>778.3333333333334</ele><time>2026-05-01T13:07:53Z</time></trkpt><trkpt lat="44.25392295482255" lon="8.213886738511476"><ele>779.0</ele><time>2026-05-01T13:07:54Z</time></trkpt><trkpt lat="44.25389123870269" lon="8.213666924980517"><ele>779.0</ele><time>2026-05-01T13:07:55Z</time></trkpt><trkpt lat="44.25387185282987" lon="8.213444670339799"><ele>779.0</ele><time>2026-05-01T13:07:56Z</time></trkpt><trkpt lat="44.2538509937622" lon="8.213205374684929"><ele>779.0</ele><time>2026-05-01T13:07:57Z</time></trkpt><trkpt lat="44.25382889998724" lon="8.213009833806607"><ele>782.0000000000001</ele><time>2026-05-01T13:07:58Z</time></trkpt><trkpt lat="44.253814338321064" lon="8.212850428685318"><ele>785.0</ele><time>2026-05-01T13:07:59Z</time></trkpt><trkpt lat="44.253824175034225" lon="8.21274444625541"><ele>788.0</ele><time>2026-05-01T13:08:00Z</time></trkpt><trkpt lat="44.253911813716776" lon="8.21266776647686"><ele>791.0</ele><time>2026-05-01T13:08:01Z</time></trkpt><trkpt lat="44.25396632261307" lon="8.212606513362463"><ele>794.0000000000001</ele><time>2026-05-01T13:08:02Z</time></trkpt><trkpt lat="44.253981219910195" lon="8.212506531380486"><ele>797.0</ele><time>2026-05-01T13:08:03Z</time></trkpt><trkpt lat="44.253945277115456" lon="8.21241667816926"><ele>799.2</ele><time>2026-05-01T13:08:04Z</time></trkpt><trkpt lat="44.25386542902967" lon="8.212385596327927"><ele>801.4000000000001</ele><time>2026-05-01T13:08:05Z</time></trkpt><trkpt lat="44.25375495363429" lon="8.212382462760724"><ele>803.5999999999999</ele><time>2026-05-01T13:08:06Z</time></trkpt><trkpt lat="44.25363948672819" lon="8.212432326413971"><ele>805.8</ele><time>2026-05-01T13:08:07Z</time></trkpt><trkpt lat="44.253522699798076" lon="8.212509216943733"><ele>808.0</ele><time>2026-05-01T13:08:08Z</time></trkpt><trkpt lat="44.25344809191578" lon="8.212627303017438"><ele>808.0</ele><time>2026-05-01T13:08:09Z</time></trkpt><trkpt lat="44.25340486206666" lon="8.21275963165395"><ele>808.0</ele><time>2026-05-01T13:08:10Z</time></trkpt><trkpt lat="44.25338288231679" lon="8.212937495308429"><ele>808.0</ele><time>2026-05-01T13:08:11Z</time></trkpt><trkpt lat="44.25333503684306" lon="8.213128470908064"><ele>808.0</ele><time>2026-05-01T13:08:12Z</time></trkpt><trkpt lat="44.25329267806258" lon="8.213257384831977"><ele>802.8</ele><time>2026-05-01T13:08:13Z</time></trkpt><trkpt lat="44.25324164601709" lon="8.213350853737483"><ele>797.5999999999999</ele><time>2026-05-01T13:08:14Z</time></trkpt><trkpt lat="44.25317794028679" lon="8.213416589801025"><ele>792.4000000000001</ele><time>2026-05-01T13:08:15Z</time></trkpt><trkpt lat="44.25307000616488" lon="8.213387933339122"><ele>787.2</ele><time>2026-05-01T13:08:16Z</time></trkpt><trkpt lat="44.25297267239946" lon="8.213405312936795"><ele>782.0</ele><time>2026-05-01T13:08:17Z</time></trkpt><trkpt lat="44.252881273724974" lon="8.213380785547924"><ele>782.0</ele><time>2026-05-01T13:08:18Z</time></trkpt><trkpt lat="44.252764217755754" lon="8.213324250166247"><ele>782.0</ele><time>2026-05-01T13:08:19Z</time></trkpt><trkpt lat="44.25263901621947" lon="8.2132549871623"><ele>782.0</ele><time>2026-05-01T13:08:20Z</time></trkpt><trkpt lat="44.25252997116678" lon="8.213146506005998"><ele>782.0</ele><time>2026-05-01T13:08:21Z</time></trkpt><trkpt lat="44.25243802245302" lon="8.212998670097678"><ele>790.6666666666667</ele><time>2026-05-01T13:08:22Z</time></trkpt><trkpt lat="44.2523441981804" lon="8.212832415614221"><ele>799.3333333333333</ele><time>2026-05-01T13:08:23Z</time></trkpt><trkpt lat="44.25223925808399" lon="8.212641318286954"><ele>808.0</ele><time>2026-05-01T13:08:24Z</time></trkpt><trkpt lat="44.25214044190118" lon="8.212472530453562"><ele>811.5</ele><time>2026-05-01T13:08:25Z</time></trkpt><trkpt lat="44.25205688679517" lon="8.212310769519522"><ele>815.0</ele><time>2026-05-01T13:08:26Z</time></trkpt><trkpt lat="44.251988465236046" lon="8.212182313166844"><ele>818.5</ele><time>2026-05-01T13:08:27Z</time></trkpt><trkpt lat="44.25193032968289" lon="8.212081000498166"><ele>822.0</ele><time>2026-05-01T13:08:28Z</time></trkpt><trkpt lat="44.2518258457749" lon="8.21203692041251"><ele>822.0</ele><time>2026-05-01T13:08:30Z</time></trkpt><trkpt lat="44.251737742735784" lon="8.21206600397554"><ele>822.0</ele><time>2026-05-01T13:08:31Z</time></trkpt><trkpt lat="44.251688921701124" lon="8.212208595893518"><ele>822.0</ele><time>2026-05-01T13:08:32Z</time></trkpt><trkpt lat="44.25167939153536" lon="8.212381627727062"><ele>822.0</ele><time>2026-05-01T13:08:33Z</time></trkpt><trkpt lat="44.25167033492946" lon="8.212555300149543"><ele>818.5</ele><time>2026-05-01T13:08:34Z</time></trkpt><trkpt lat="44.25167483831241" lon="8.212738589080832"><ele>815.0</ele><time>2026-05-01T13:08:35Z</time></trkpt><trkpt lat="44.25169478832281" lon="8.212937607325248"><ele>811.5</ele><time>2026-05-01T13:08:36Z</time></trkpt><trkpt lat="44.251699555673206" lon="8.21314770697165"><ele>808.0</ele><time>2026-05-01T13:08:37Z</time></trkpt><trkpt lat="44.25172496187528" lon="8.213358397104637"><ele>808.0</ele><time>2026-05-01T13:08:38Z</time></trkpt><trkpt lat="44.251726492490505" lon="8.2135228521607"><ele>808.0</ele><time>2026-05-01T13:08:39Z</time></trkpt><trkpt lat="44.25169538286946" lon="8.213683942657177"><ele>808.0</ele><time>2026-05-01T13:08:40Z</time></trkpt><trkpt lat="44.25164306891025" lon="8.213846667188806"><ele>808.0</ele><time>2026-05-01T13:08:41Z</time></trkpt><trkpt lat="44.25161394553422" lon="8.213989345196294"><ele>806.4</ele><time>2026-05-01T13:08:42Z</time></trkpt><trkpt lat="44.25159801361541" lon="8.214107110140866"><ele>804.8</ele><time>2026-05-01T13:08:43Z</time></trkpt><trkpt lat="44.251530213380306" lon="8.214178956201444"><ele>803.2</ele><time>2026-05-01T13:08:44Z</time></trkpt><trkpt lat="44.25144149386741" lon="8.21420167571088"><ele>801.6</ele><time>2026-05-01T13:08:45Z</time></trkpt><trkpt lat="44.2513598727759" lon="8.214145753077043"><ele>800.0</ele><time>2026-05-01T13:08:46Z</time></trkpt><trkpt lat="44.251275852087936" lon="8.214072623230031"><ele>800.0</ele><time>2026-05-01T13:08:47Z</time></trkpt><trkpt lat="44.25116904546143" lon="8.214016323172398"><ele>800.0</ele><time>2026-05-01T13:08:48Z</time></trkpt><trkpt lat="44.25105599686119" lon="8.213927702952617"><ele>800.0</ele><time>2026-05-01T13:08:49Z</time></trkpt><trkpt lat="44.250928607306285" lon="8.213858578089317"><ele>800.0</ele><time>2026-05-01T13:08:50Z</time></trkpt><trkpt lat="44.25078370109657" lon="8.213812210297636"><ele>807.5</ele><time>2026-05-01T13:08:51Z</time></trkpt><trkpt lat="44.25063179786469" lon="8.213778882180318"><ele>815.0</ele><time>2026-05-01T13:08:52Z</time></trkpt><trkpt lat="44.2504941924673" lon="8.213712764788994"><ele>822.5</ele><time>2026-05-01T13:08:53Z</time></trkpt><trkpt lat="44.25036927256778" lon="8.213622724771655"><ele>830.0</ele><time>2026-05-01T13:08:54Z</time></trkpt><trkpt lat="44.25024481969804" lon="8.213547699398704"><ele>830.0</ele><time>2026-05-01T13:08:55Z</time></trkpt><trkpt lat="44.250122831777176" lon="8.213506913425794"><ele>830.0</ele><time>2026-05-01T13:08:56Z</time></trkpt><trkpt lat="44.250018317834325" lon="8.213497638425837"><ele>830.0</ele><time>2026-05-01T13:08:57Z</time></trkpt><trkpt lat="44.24993298284189" lon="8.213490386417726"><ele>830.0</ele><time>2026-05-01T13:08:58Z</time></trkpt><trkpt lat="44.24985237295191" lon="8.21343628401116"><ele>830.0</ele><time>2026-05-01T13:08:59Z</time></trkpt><trkpt lat="44.24979224161174" lon="8.21331824376403"><ele>832.4</ele><time>2026-05-01T13:09:00Z</time></trkpt><trkpt lat="44.24975312832252" lon="8.21318484206074"><ele>834.8</ele><time>2026-05-01T13:09:01Z</time></trkpt><trkpt lat="44.249730981761665" lon="8.213032822400773"><ele>837.2</ele><time>2026-05-01T13:09:02Z</time></trkpt><trkpt lat="44.24967502292931" lon="8.212899720504804"><ele>839.6</ele><time>2026-05-01T13:09:03Z</time></trkpt><trkpt lat="44.24958929276265" lon="8.212817201392625"><ele>842.0</ele><time>2026-05-01T13:09:04Z</time></trkpt><trkpt lat="44.24947143828551" lon="8.212751398350216"><ele>842.0</ele><time>2026-05-01T13:09:05Z</time></trkpt><trkpt lat="44.24935227843398" lon="8.212643521137808"><ele>842.0</ele><time>2026-05-01T13:09:06Z</time></trkpt><trkpt lat="44.24925695463622" lon="8.212527158383564"><ele>842.0</ele><time>2026-05-01T13:09:07Z</time></trkpt><trkpt lat="44.24917008563935" lon="8.212466951800558"><ele>842.0</ele><time>2026-05-01T13:09:08Z</time></trkpt><trkpt lat="44.24908091906232" lon="8.212445215853977"><ele>842.0</ele><time>2026-05-01T13:09:09Z</time></trkpt><trkpt lat="44.24900886581807" lon="8.212353745256005"><ele>842.0</ele><time>2026-05-01T13:09:10Z</time></trkpt><trkpt lat="44.24894711338298" lon="8.212207872604383"><ele>842.0</ele><time>2026-05-01T13:09:11Z</time></trkpt><trkpt lat="44.248861664198195" lon="8.212064287340427"><ele>842.0</ele><time>2026-05-01T13:09:12Z</time></trkpt><trkpt lat="44.2487754183913" lon="8.211953379499146"><ele>846.0</ele><time>2026-05-01T13:09:13Z</time></trkpt><trkpt lat="44.24868466986639" lon="8.211908518282343"><ele>850.0</ele><time>2026-05-01T13:09:14Z</time></trkpt><trkpt lat="44.248583975628826" lon="8.211919428391754"><ele>854.0</ele><time>2026-05-01T13:09:15Z</time></trkpt><trkpt lat="44.24849076850662" lon="8.211967541785402"><ele>858.0</ele><time>2026-05-01T13:09:16Z</time></trkpt><trkpt lat="44.248408049103546" lon="8.212049226471821"><ele>862.0</ele><time>2026-05-01T13:09:17Z</time></trkpt><trkpt lat="44.248358735082604" lon="8.212142957914224"><ele>862.0</ele><time>2026-05-01T13:09:18Z</time></trkpt><trkpt lat="44.248316146305804" lon="8.212286362234277"><ele>862.0</ele><time>2026-05-01T13:09:19Z</time></trkpt><trkpt lat="44.248362850350354" lon="8.212471219114075"><ele>862.0</ele><time>2026-05-01T13:09:20Z</time></trkpt><trkpt lat="44.248412593795855" lon="8.212647355077868"><ele>862.0</ele><time>2026-05-01T13:09:21Z</time></trkpt><trkpt lat="44.24846704198997" lon="8.212828234038787"><ele>858.3333333333333</ele><time>2026-05-01T13:09:22Z</time></trkpt><trkpt lat="44.24849120295204" lon="8.213028494090677"><ele>854.6666666666667</ele><time>2026-05-01T13:09:23Z</time></trkpt><trkpt lat="44.24847091693652" lon="8.213237267489697"><ele>851.0</ele><time>2026-05-01T13:09:24Z</time></trkpt><trkpt lat="44.2484980007379" lon="8.213461972715931"><ele>851.0</ele><time>2026-05-01T13:09:25Z</time></trkpt><trkpt lat="44.24852113394807" lon="8.213715891473557"><ele>851.0</ele><time>2026-05-01T13:09:26Z</time></trkpt><trkpt lat="44.24855048852786" lon="8.21400012954289"><ele>851.0</ele><time>2026-05-01T13:09:27Z</time></trkpt><trkpt lat="44.248546553693664" lon="8.214186556900385"><ele>852.25</ele><time>2026-05-01T13:09:28Z</time></trkpt><trkpt lat="44.24854812653608" lon="8.214383657811135"><ele>853.5</ele><time>2026-05-01T13:09:29Z</time></trkpt><trkpt lat="44.24854975864312" lon="8.214579815496899"><ele>854.75</ele><time>2026-05-01T13:09:30Z</time></trkpt><trkpt lat="44.24855764318592" lon="8.214769082844635"><ele>856.0</ele><time>2026-05-01T13:09:31Z</time></trkpt><trkpt lat="44.248564027341644" lon="8.214949027125925"><ele>856.0</ele><time>2026-05-01T13:09:32Z</time></trkpt><trkpt lat="44.24858509211798" lon="8.215121348489738"><ele>855.9999999999999</ele><time>2026-05-01T13:09:33Z</time></trkpt><trkpt lat="44.24859950731815" lon="8.215252393764269"><ele>855.9999999999999</ele><time>2026-05-01T13:09:34Z</time></trkpt><trkpt lat="44.24857215068155" lon="8.215347319624348"><ele>856.0</ele><time>2026-05-01T13:09:35Z</time></trkpt><trkpt lat="44.24848530410403" lon="8.215457882092526"><ele>856.0</ele><time>2026-05-01T13:09:37Z</time></trkpt><trkpt lat="44.24839995996221" lon="8.215444254343064"><ele>856.0</ele><time>2026-05-01T13:09:38Z</time></trkpt><trkpt lat="44.24829723490464" lon="8.215479327438048"><ele>856.0</ele><time>2026-05-01T13:09:39Z</time></trkpt><trkpt lat="44.24818007051516" lon="8.21548254484233"><ele>856.0</ele><time>2026-05-01T13:09:40Z</time></trkpt><trkpt lat="44.24806419434819" lon="8.21552112630649"><ele>856.0</ele><time>2026-05-01T13:09:41Z</time></trkpt><trkpt lat="44.24794010357326" lon="8.215592955017337"><ele>858.25</ele><time>2026-05-01T13:09:42Z</time></trkpt><trkpt lat="44.24782914494709" lon="8.215696987271558"><ele>860.5</ele><time>2026-05-01T13:09:43Z</time></trkpt><trkpt lat="44.24773356688177" lon="8.215839781112464"><ele>862.75</ele><time>2026-05-01T13:09:44Z</time></trkpt><trkpt lat="44.24767317646239" lon="8.216013557225171"><ele>865.0</ele><time>2026-05-01T13:09:45Z</time></trkpt><trkpt lat="44.24760146588972" lon="8.216154249496697"><ele>865.0</ele><time>2026-05-01T13:09:46Z</time></trkpt><trkpt lat="44.24753368259929" lon="8.216238004391569"><ele>865.0</ele><time>2026-05-01T13:09:47Z</time></trkpt><trkpt lat="44.24746141478064" lon="8.216287288901345"><ele>865.0</ele><time>2026-05-01T13:09:48Z</time></trkpt><trkpt lat="44.247354417458126" lon="8.21630520334571"><ele>865.0</ele><time>2026-05-01T13:09:49Z</time></trkpt><trkpt lat="44.247224058382294" lon="8.216292878396324"><ele>865.0</ele><time>2026-05-01T13:09:50Z</time></trkpt><trkpt lat="44.24712552475439" lon="8.216261970507253"><ele>863.75</ele><time>2026-05-01T13:09:51Z</time></trkpt><trkpt lat="44.24703899000043" lon="8.216184845925637"><ele>862.5</ele><time>2026-05-01T13:09:52Z</time></trkpt><trkpt lat="44.24696355260139" lon="8.216025655930109"><ele>861.25</ele><time>2026-05-01T13:09:53Z</time></trkpt><trkpt lat="44.24686898341643" lon="8.215859012292507"><ele>860.0</ele><time>2026-05-01T13:09:54Z</time></trkpt><trkpt lat="44.246794343683625" lon="8.215688604585404"><ele>869.0</ele><time>2026-05-01T13:09:55Z</time></trkpt><trkpt lat="44.24667418450985" lon="8.215579031955548"><ele>878.0</ele><time>2026-05-01T13:09:56Z</time></trkpt><trkpt lat="44.24654054416777" lon="8.215483515140598"><ele>887.0</ele><time>2026-05-01T13:09:57Z</time></trkpt><trkpt lat="44.24641867254423" lon="8.215429925087346"><ele>896.0</ele><time>2026-05-01T13:09:58Z</time></trkpt><trkpt lat="44.24629444550997" lon="8.215432921398227"><ele>898.25</ele><time>2026-05-01T13:09:59Z</time></trkpt><trkpt lat="44.2461775574803" lon="8.215469576336499"><ele>900.5</ele><time>2026-05-01T13:10:00Z</time></trkpt><trkpt lat="44.24605728323286" lon="8.215571517952641"><ele>902.75</ele><time>2026-05-01T13:10:01Z</time></trkpt><trkpt lat="44.245929651587765" lon="8.215645671556157"><ele>905.0</ele><time>2026-05-01T13:10:02Z</time></trkpt><trkpt lat="44.24581847736739" lon="8.2157860978345"><ele>908.8</ele><time>2026-05-01T13:10:03Z</time></trkpt><trkpt lat="44.24569527555373" lon="8.21581569357869"><ele>912.6</ele><time>2026-05-01T13:10:04Z</time></trkpt><trkpt lat="44.24561000793738" lon="8.215815821041929"><ele>916.4000000000001</ele><time>2026-05-01T13:10:05Z</time></trkpt><trkpt lat="44.245536218783606" lon="8.215765745836086"><ele>920.2</ele><time>2026-05-01T13:10:06Z</time></trkpt><trkpt lat="44.2454475837028" lon="8.215704241721744"><ele>924.0</ele><time>2026-05-01T13:10:07Z</time></trkpt><trkpt lat="44.24532591621799" lon="8.215634892502923"><ele>924.0</ele><time>2026-05-01T13:10:08Z</time></trkpt><trkpt lat="44.24519758508501" lon="8.215611336094447"><ele>924.0</ele><time>2026-05-01T13:10:09Z</time></trkpt><trkpt lat="44.24508118654983" lon="8.21561100587894"><ele>924.0</ele><time>2026-05-01T13:10:10Z</time></trkpt><trkpt lat="44.24497671513561" lon="8.215669643809038"><ele>924.0</ele><time>2026-05-01T13:10:11Z</time></trkpt><trkpt lat="44.24488443473568" lon="8.215767665969013"><ele>920.0</ele><time>2026-05-01T13:10:12Z</time></trkpt><trkpt lat="44.24478687436806" lon="8.215898610147905"><ele>916.0</ele><time>2026-05-01T13:10:13Z</time></trkpt><trkpt lat="44.244674177384034" lon="8.216021512224964"><ele>912.0</ele><time>2026-05-01T13:10:14Z</time></trkpt><trkpt lat="44.2445763527189" lon="8.216127493161968"><ele>908.0</ele><time>2026-05-01T13:10:15Z</time></trkpt><trkpt lat="44.2444761587528" lon="8.21614881559254"><ele>908.0</ele><time>2026-05-01T13:10:16Z</time></trkpt><trkpt lat="44.2443734204604" lon="8.216119896134142"><ele>908.0</ele><time>2026-05-01T13:10:17Z</time></trkpt><trkpt lat="44.24426683977568" lon="8.216152547438956"><ele>908.0</ele><time>2026-05-01T13:10:18Z</time></trkpt><trkpt lat="44.244157577961595" lon="8.216261767096"><ele>908.0</ele><time>2026-05-01T13:10:19Z</time></trkpt><trkpt lat="44.24405421398007" lon="8.21634818535585"><ele>908.0</ele><time>2026-05-01T13:10:20Z</time></trkpt><trkpt lat="44.243968563189924" lon="8.21640449537906"><ele>908.0</ele><time>2026-05-01T13:10:21Z</time></trkpt><trkpt lat="44.243884254614706" lon="8.21642038738894"><ele>908.0</ele><time>2026-05-01T13:10:22Z</time></trkpt><trkpt lat="44.24375312012086" lon="8.216409148758379"><ele>908.0</ele><time>2026-05-01T13:10:23Z</time></trkpt><trkpt lat="44.24362472128378" lon="8.216423042599253"><ele>908.0</ele><time>2026-05-01T13:10:24Z</time></trkpt><trkpt lat="44.243500572746214" lon="8.216457248337298"><ele>907.8</ele><time>2026-05-01T13:10:25Z</time></trkpt><trkpt lat="44.24339607949499" lon="8.216569307471973"><ele>907.5999999999999</ele><time>2026-05-01T13:10:26Z</time></trkpt><trkpt lat="44.24332144048576" lon="8.216683081559674"><ele>907.4000000000001</ele><time>2026-05-01T13:10:27Z</time></trkpt><trkpt lat="44.243237848927585" lon="8.216713150489996"><ele>907.2</ele><time>2026-05-01T13:10:28Z</time></trkpt><trkpt lat="44.24315397152376" lon="8.216691043971833"><ele>907.0</ele><time>2026-05-01T13:10:29Z</time></trkpt><trkpt lat="44.2430410763471" lon="8.216679246031761"><ele>907.0</ele><time>2026-05-01T13:10:30Z</time></trkpt><trkpt lat="44.2429312151687" lon="8.216657106671526"><ele>907.0</ele><time>2026-05-01T13:10:31Z</time></trkpt><trkpt lat="44.2428160761394" lon="8.21671592383748"><ele>907.0</ele><time>2026-05-01T13:10:32Z</time></trkpt><trkpt lat="44.24270421956353" lon="8.21684801489553"><ele>907.0</ele><time>2026-05-01T13:10:33Z</time></trkpt><trkpt lat="44.24259679289903" lon="8.21700530537352"><ele>907.0</ele><time>2026-05-01T13:10:34Z</time></trkpt><trkpt lat="44.242515411623295" lon="8.217135846693232"><ele>907.0</ele><time>2026-05-01T13:10:35Z</time></trkpt><trkpt lat="44.24242630552257" lon="8.21718246374698"><ele>907.0</ele><time>2026-05-01T13:10:36Z</time></trkpt><trkpt lat="44.242339467113176" lon="8.21721871679522"><ele>907.0</ele><time>2026-05-01T13:10:37Z</time></trkpt><trkpt lat="44.24224238529485" lon="8.21719750978354"><ele>907.0</ele><time>2026-05-01T13:10:38Z</time></trkpt><trkpt lat="44.2421733727345" lon="8.217087488474784"><ele>906.0</ele><time>2026-05-01T13:10:39Z</time></trkpt><trkpt lat="44.24211367365421" lon="8.216975073143248"><ele>905.0</ele><time>2026-05-01T13:10:40Z</time></trkpt><trkpt lat="44.242064835720434" lon="8.21680660950779"><ele>904.0</ele><time>2026-05-01T13:10:41Z</time></trkpt><trkpt lat="44.242020865735824" lon="8.216603444780663"><ele>903.0</ele><time>2026-05-01T13:10:42Z</time></trkpt><trkpt lat="44.241976129097566" lon="8.216390127310637"><ele>909.6666666666667</ele><time>2026-05-01T13:10:43Z</time></trkpt><trkpt lat="44.24190015866717" lon="8.216176947231785"><ele>916.3333333333334</ele><time>2026-05-01T13:10:44Z</time></trkpt><trkpt lat="44.24184532497515" lon="8.215972706931984"><ele>923.0</ele><time>2026-05-01T13:10:45Z</time></trkpt><trkpt lat="44.241806196046156" lon="8.215758424374547"><ele>926.8</ele><time>2026-05-01T13:10:46Z</time></trkpt><trkpt lat="44.24177750612293" lon="8.215568948456317"><ele>930.5999999999999</ele><time>2026-05-01T13:10:47Z</time></trkpt><trkpt lat="44.24176036834943" lon="8.21540681084272"><ele>934.4000000000001</ele><time>2026-05-01T13:10:48Z</time></trkpt><trkpt lat="44.2417352935632" lon="8.215273070278517"><ele>938.2</ele><time>2026-05-01T13:10:49Z</time></trkpt><trkpt lat="44.2416739725809" lon="8.215237649862972"><ele>942.0</ele><time>2026-05-01T13:10:50Z</time></trkpt><trkpt lat="44.24159805645604" lon="8.215221074579716"><ele>942.0</ele><time>2026-05-01T13:10:51Z</time></trkpt><trkpt lat="44.24151415058991" lon="8.215263786448089"><ele>942.0</ele><time>2026-05-01T13:10:52Z</time></trkpt><trkpt lat="44.241437501428734" lon="8.215387906594241"><ele>942.0</ele><time>2026-05-01T13:10:53Z</time></trkpt><trkpt lat="44.24137227764818" lon="8.215554415469661"><ele>942.0</ele><time>2026-05-01T13:10:54Z</time></trkpt><trkpt lat="44.24127884518415" lon="8.215682997855385"><ele>942.0</ele><time>2026-05-01T13:10:55Z</time></trkpt><trkpt lat="44.241185520633515" lon="8.215790119053523"><ele>942.0</ele><time>2026-05-01T13:10:56Z</time></trkpt><trkpt lat="44.241078629103775" lon="8.215896498529073"><ele>942.0</ele><time>2026-05-01T13:10:57Z</time></trkpt><trkpt lat="44.240945634913736" lon="8.21602112799228"><ele>942.0</ele><time>2026-05-01T13:10:58Z</time></trkpt><trkpt lat="44.24083364182121" lon="8.216166292117057"><ele>942.0</ele><time>2026-05-01T13:10:59Z</time></trkpt><trkpt lat="44.24073088855432" lon="8.21633201318222"><ele>942.0</ele><time>2026-05-01T13:11:00Z</time></trkpt><trkpt lat="44.240638580758265" lon="8.21651125589543"><ele>942.0</ele><time>2026-05-01T13:11:01Z</time></trkpt><trkpt lat="44.24054111427566" lon="8.21668519772914"><ele>943.2</ele><time>2026-05-01T13:11:02Z</time></trkpt><trkpt lat="44.24046036505044" lon="8.216818027311723"><ele>944.4000000000001</ele><time>2026-05-01T13:11:03Z</time></trkpt><trkpt lat="44.240386050697126" lon="8.216914163470822"><ele>945.5999999999999</ele><time>2026-05-01T13:11:04Z</time></trkpt><trkpt lat="44.24030595734668" lon="8.216953771979322"><ele>946.8</ele><time>2026-05-01T13:11:05Z</time></trkpt><trkpt lat="44.24020987534299" lon="8.216918756271076"><ele>948.0</ele><time>2026-05-01T13:11:06Z</time></trkpt><trkpt lat="44.24009445575445" lon="8.216922081612918"><ele>948.0</ele><time>2026-05-01T13:11:07Z</time></trkpt><trkpt lat="44.23995488025342" lon="8.216898035935762"><ele>948.0</ele><time>2026-05-01T13:11:08Z</time></trkpt><trkpt lat="44.239813633514075" lon="8.21694233076877"><ele>948.0</ele><time>2026-05-01T13:11:09Z</time></trkpt><trkpt lat="44.23967109253611" lon="8.217040936344906"><ele>948.0</ele><time>2026-05-01T13:11:10Z</time></trkpt><trkpt lat="44.23956592927784" lon="8.217135775774485"><ele>949.5</ele><time>2026-05-01T13:11:11Z</time></trkpt><trkpt lat="44.23948924036914" lon="8.217208374154351"><ele>951.0</ele><time>2026-05-01T13:11:12Z</time></trkpt><trkpt lat="44.23945189473422" lon="8.217355011836146"><ele>952.5</ele><time>2026-05-01T13:11:13Z</time></trkpt><trkpt lat="44.23945015580483" lon="8.217527010108832"><ele>954.0</ele><time>2026-05-01T13:11:14Z</time></trkpt><trkpt lat="44.2394521156597" lon="8.217707196261136"><ele>954.0</ele><time>2026-05-01T13:11:15Z</time></trkpt><trkpt lat="44.239434773084334" lon="8.217861728554512"><ele>954.0000000000001</ele><time>2026-05-01T13:11:16Z</time></trkpt><trkpt lat="44.23940116116554" lon="8.21797090194087"><ele>954.0000000000001</ele><time>2026-05-01T13:11:17Z</time></trkpt><trkpt lat="44.239340765766244" lon="8.218091177401783"><ele>954.0</ele><time>2026-05-01T13:11:18Z</time></trkpt><trkpt lat="44.23924105241916" lon="8.218204948232062"><ele>954.0</ele><time>2026-05-01T13:11:19Z</time></trkpt><trkpt lat="44.239112587338745" lon="8.218295840689757"><ele>951.75</ele><time>2026-05-01T13:11:20Z</time></trkpt><trkpt lat="44.23898656083804" lon="8.218414376230607"><ele>949.5</ele><time>2026-05-01T13:11:21Z</time></trkpt><trkpt lat="44.23885033033222" lon="8.218491594128768"><ele>947.25</ele><time>2026-05-01T13:11:22Z</time></trkpt><trkpt lat="44.23876045894858" lon="8.218564799883993"><ele>945.0</ele><time>2026-05-01T13:11:23Z</time></trkpt><trkpt lat="44.2387234061193" lon="8.218665001431765"><ele>950.0</ele><time>2026-05-01T13:11:24Z</time></trkpt><trkpt lat="44.23872162512761" lon="8.218811458040214"><ele>955.0</ele><time>2026-05-01T13:11:25Z</time></trkpt><trkpt lat="44.238739022205685" lon="8.21898951518464"><ele>960.0</ele><time>2026-05-01T13:11:26Z</time></trkpt><trkpt lat="44.23876464729857" lon="8.219192983877024"><ele>965.0</ele><time>2026-05-01T13:11:27Z</time></trkpt><trkpt lat="44.238804667542325" lon="8.219408928112406"><ele>965.0</ele><time>2026-05-01T13:11:28Z</time></trkpt><trkpt lat="44.23886624203863" lon="8.219613457621659"><ele>965.0</ele><time>2026-05-01T13:11:29Z</time></trkpt><trkpt lat="44.238936769768436" lon="8.219747166170091"><ele>965.0</ele><time>2026-05-01T13:11:30Z</time></trkpt><trkpt lat="44.239032493597385" lon="8.219844342352967"><ele>965.0</ele><time>2026-05-01T13:11:31Z</time></trkpt><trkpt lat="44.23915475082938" lon="8.219908319720492"><ele>964.0</ele><time>2026-05-01T13:11:32Z</time></trkpt><trkpt lat="44.239299038057474" lon="8.219943524127558"><ele>963.0</ele><time>2026-05-01T13:11:33Z</time></trkpt><trkpt lat="44.23946595978198" lon="8.219946749565054"><ele>962.0</ele><time>2026-05-01T13:11:34Z</time></trkpt><trkpt lat="44.239638205289246" lon="8.219934270567746"><ele>962.0</ele><time>2026-05-01T13:11:35Z</time></trkpt><trkpt lat="44.239794822421544" lon="8.219944577285597"><ele>962.0</ele><time>2026-05-01T13:11:36Z</time></trkpt><trkpt lat="44.23993034590375" lon="8.219955949885934"><ele>962.0</ele><time>2026-05-01T13:11:37Z</time></trkpt><trkpt lat="44.24003694207011" lon="8.219927028165205"><ele>962.0</ele><time>2026-05-01T13:11:38Z</time></trkpt><trkpt lat="44.24013574427568" lon="8.219971787546035"><ele>962.0</ele><time>2026-05-01T13:11:40Z</time></trkpt><trkpt lat="44.24008179288261" lon="8.220117522149664"><ele>962.0</ele><time>2026-05-01T13:11:42Z</time></trkpt><trkpt lat="44.23999953346028" lon="8.220112414094109"><ele>962.0</ele><time>2026-05-01T13:11:43Z</time></trkpt><trkpt lat="44.2399172608921" lon="8.22008732645885"><ele>962.0</ele><time>2026-05-01T13:11:44Z</time></trkpt><trkpt lat="44.23977980390904" lon="8.220092147971947"><ele>962.0</ele><time>2026-05-01T13:11:45Z</time></trkpt><trkpt lat="44.23963684809948" lon="8.220148733504868"><ele>962.0</ele><time>2026-05-01T13:11:46Z</time></trkpt><trkpt lat="44.23949472926503" lon="8.22024138171413"><ele>962.0</ele><time>2026-05-01T13:11:47Z</time></trkpt><trkpt lat="44.23936448798831" lon="8.220352868718216"><ele>962.0</ele><time>2026-05-01T13:11:48Z</time></trkpt><trkpt lat="44.23922594815455" lon="8.220402286513169"><ele>962.0</ele><time>2026-05-01T13:11:49Z</time></trkpt><trkpt lat="44.239099916283706" lon="8.22042917010685"><ele>962.0</ele><time>2026-05-01T13:11:50Z</time></trkpt><trkpt lat="44.238973436989404" lon="8.220432937960824"><ele>962.0</ele><time>2026-05-01T13:11:51Z</time></trkpt><trkpt lat="44.23882467179247" lon="8.22042838208743"><ele>962.0</ele><time>2026-05-01T13:11:52Z</time></trkpt><trkpt lat="44.23867054602262" lon="8.220419754924263"><ele>963.8</ele><time>2026-05-01T13:11:53Z</time></trkpt><trkpt lat="44.238520678981246" lon="8.220433859224421"><ele>965.6</ele><time>2026-05-01T13:11:54Z</time></trkpt><trkpt lat="44.23839359440203" lon="8.220418097155951"><ele>967.3999999999999</ele><time>2026-05-01T13:11:55Z</time></trkpt><trkpt lat="44.238308126980314" lon="8.22039791478201"><ele>969.1999999999999</ele><time>2026-05-01T13:11:56Z</time></trkpt><trkpt lat="44.238253111771854" lon="8.22032290041039"><ele>971.0</ele><time>2026-05-01T13:11:59Z</time></trkpt><trkpt lat="44.23818748108947" lon="8.220323433344918"><ele>971.0</ele><time>2026-05-01T13:12:09Z</time></trkpt><trkpt lat="44.23820511685614" lon="8.220200731732005"><ele>970.9999999999999</ele><time>2026-05-01T13:15:31Z</time></trkpt><trkpt lat="44.23810563878814" lon="8.220202071663905"><ele>970.9999999999999</ele><time>2026-05-01T13:15:45Z</time></trkpt><trkpt lat="44.23804057077368" lon="8.220279122264758"><ele>971.0</ele><time>2026-05-01T13:15:46Z</time></trkpt><trkpt lat="44.23797770076265" lon="8.220349660986974"><ele>971.0</ele><time>2026-05-01T13:15:47Z</time></trkpt><trkpt lat="44.23785372393396" lon="8.220325283294585"><ele>972.1999999999999</ele><time>2026-05-01T13:15:49Z</time></trkpt><trkpt lat="44.237777611205544" lon="8.220258292238583"><ele>973.3999999999999</ele><time>2026-05-01T13:15:50Z</time></trkpt><trkpt lat="44.23770016124978" lon="8.220194199598607"><ele>974.6</ele><time>2026-05-01T13:15:51Z</time></trkpt><trkpt lat="44.23762518331361" lon="8.22014310165655"><ele>975.8</ele><time>2026-05-01T13:15:52Z</time></trkpt><trkpt lat="44.23753165748596" lon="8.220084374138612"><ele>977.0</ele><time>2026-05-01T13:15:53Z</time></trkpt><trkpt lat="44.23742725198691" lon="8.220014890198103"><ele>977.6666666666667</ele><time>2026-05-01T13:15:54Z</time></trkpt><trkpt lat="44.23729218272404" lon="8.21991757104846"><ele>978.3333333333333</ele><time>2026-05-01T13:15:55Z</time></trkpt><trkpt lat="44.23713684533753" lon="8.219802297472182"><ele>979.0</ele><time>2026-05-01T13:15:56Z</time></trkpt><trkpt lat="44.236964366844276" lon="8.219683829324351"><ele>979.0</ele><time>2026-05-01T13:15:57Z</time></trkpt><trkpt lat="44.236779290155866" lon="8.21956186242846"><ele>979.0</ele><time>2026-05-01T13:15:58Z</time></trkpt><trkpt lat="44.23658861807657" lon="8.219432320550611"><ele>979.0</ele><time>2026-05-01T13:15:59Z</time></trkpt><trkpt lat="44.23637913316648" lon="8.219292016114137"><ele>977.6666666666666</ele><time>2026-05-01T13:16:00Z</time></trkpt><trkpt lat="44.23616350005554" lon="8.219146999869313"><ele>976.3333333333333</ele><time>2026-05-01T13:16:01Z</time></trkpt><trkpt lat="44.235980775768596" lon="8.219013265502078"><ele>975.0</ele><time>2026-05-01T13:16:02Z</time></trkpt><trkpt lat="44.23581460202302" lon="8.218855682644044"><ele>975.0</ele><time>2026-05-01T13:16:03Z</time></trkpt><trkpt lat="44.23567812882081" lon="8.218684827187714"><ele>975.0</ele><time>2026-05-01T13:16:04Z</time></trkpt><trkpt lat="44.235559370206985" lon="8.218513114409442"><ele>975.0</ele><time>2026-05-01T13:16:05Z</time></trkpt><trkpt lat="44.23543776150431" lon="8.218354402591666"><ele>976.3333333333333</ele><time>2026-05-01T13:16:06Z</time></trkpt><trkpt lat="44.235298411218416" lon="8.218207860713653"><ele>977.6666666666666</ele><time>2026-05-01T13:16:07Z</time></trkpt><trkpt lat="44.23512720340825" lon="8.21806557140718"><ele>979.0</ele><time>2026-05-01T13:16:08Z</time></trkpt><trkpt lat="44.234933588365486" lon="8.217933609213942"><ele>971.0</ele><time>2026-05-01T13:16:09Z</time></trkpt><trkpt lat="44.23472668270682" lon="8.217811365635631"><ele>963.0</ele><time>2026-05-01T13:16:10Z</time></trkpt><trkpt lat="44.234506203852014" lon="8.217688393569908"><ele>963.0</ele><time>2026-05-01T13:16:11Z</time></trkpt><trkpt lat="44.23427063916281" lon="8.217560329903874"><ele>963.0</ele><time>2026-05-01T13:16:12Z</time></trkpt><trkpt lat="44.23401618575424" lon="8.21740670453221"><ele>959.5</ele><time>2026-05-01T13:16:13Z</time></trkpt><trkpt lat="44.23374535018552" lon="8.217236353849948"><ele>956.0</ele><time>2026-05-01T13:16:14Z</time></trkpt><trkpt lat="44.23350734439221" lon="8.217022713535815"><ele>956.0</ele><time>2026-05-01T13:16:15Z</time></trkpt><trkpt lat="44.2333145562235" lon="8.216757242261577"><ele>956.0</ele><time>2026-05-01T13:16:16Z</time></trkpt><trkpt lat="44.233396760278055" lon="8.216873502536968"><ele>956.0</ele><time>2026-05-01T13:16:17Z</time></trkpt><trkpt lat="44.23325603085887" lon="8.216673469540336"><ele>953.6666666666667</ele><time>2026-05-01T13:16:18Z</time></trkpt><trkpt lat="44.233110361147524" lon="8.216459521965382"><ele>951.3333333333333</ele><time>2026-05-01T13:16:19Z</time></trkpt><trkpt lat="44.23296440585712" lon="8.216247888800977"><ele>949.0</ele><time>2026-05-01T13:16:20Z</time></trkpt><trkpt lat="44.23280518530696" lon="8.21604679606378"><ele>949.0</ele><time>2026-05-01T13:16:21Z</time></trkpt><trkpt lat="44.23268630226405" lon="8.215846778954225"><ele>949.0</ele><time>2026-05-01T13:16:22Z</time></trkpt><trkpt lat="44.23255684975496" lon="8.215663120616068"><ele>949.0</ele><time>2026-05-01T13:16:23Z</time></trkpt><trkpt lat="44.23243652321541" lon="8.215502045589888"><ele>947.0</ele><time>2026-05-01T13:16:24Z</time></trkpt><trkpt lat="44.23230980108983" lon="8.215369983574856"><ele>945.0</ele><time>2026-05-01T13:16:25Z</time></trkpt><trkpt lat="44.23220155354391" lon="8.215230201914094"><ele>943.0</ele><time>2026-05-01T13:16:26Z</time></trkpt><trkpt lat="44.232094427831804" lon="8.21510764289029"><ele>941.0</ele><time>2026-05-01T13:16:27Z</time></trkpt><trkpt lat="44.23199811221543" lon="8.214989204165626"><ele>941.0</ele><time>2026-05-01T13:16:28Z</time></trkpt><trkpt lat="44.23190971673405" lon="8.214873154654006"><ele>940.9999999999999</ele><time>2026-05-01T13:16:29Z</time></trkpt><trkpt lat="44.231828770569905" lon="8.21476828705116"><ele>940.9999999999999</ele><time>2026-05-01T13:16:30Z</time></trkpt><trkpt lat="44.23175313053233" lon="8.214668040513118"><ele>941.0</ele><time>2026-05-01T13:16:31Z</time></trkpt><trkpt lat="44.23168576798703" lon="8.214577784756916"><ele>941.0</ele><time>2026-05-01T13:16:32Z</time></trkpt><trkpt lat="44.23162389011741" lon="8.214493815661429"><ele>939.8333333333334</ele><time>2026-05-01T13:16:33Z</time></trkpt><trkpt lat="44.23156728201446" lon="8.214420138705618"><ele>938.6666666666667</ele><time>2026-05-01T13:16:34Z</time></trkpt><trkpt lat="44.23151539258207" lon="8.21435337670553"><ele>937.5</ele><time>2026-05-01T13:16:35Z</time></trkpt><trkpt lat="44.231447116986395" lon="8.21425217046293"><ele>936.3333333333333</ele><time>2026-05-01T13:16:37Z</time></trkpt><trkpt lat="44.23141353565932" lon="8.21414852460771"><ele>935.1666666666666</ele><time>2026-05-01T13:16:40Z</time></trkpt><trkpt lat="44.23136875793285" lon="8.214080607098749"><ele>934.0</ele><time>2026-05-01T13:16:49Z</time></trkpt><trkpt lat="44.23148745262325" lon="8.213871624014516"><ele>938.25</ele><time>2026-05-01T13:16:51Z</time></trkpt><trkpt lat="44.231550270479666" lon="8.213738144428225"><ele>942.5</ele><time>2026-05-01T13:16:52Z</time></trkpt><trkpt lat="44.23160140582703" lon="8.213583884082182"><ele>946.75</ele><time>2026-05-01T13:16:53Z</time></trkpt><trkpt lat="44.23164595187525" lon="8.213392556552305"><ele>951.0</ele><time>2026-05-01T13:16:54Z</time></trkpt><trkpt lat="44.23170068780308" lon="8.213197113203684"><ele>950.0</ele><time>2026-05-01T13:16:55Z</time></trkpt><trkpt lat="44.231718593896154" lon="8.213022495510371"><ele>949.0</ele><time>2026-05-01T13:16:56Z</time></trkpt><trkpt lat="44.23173585438497" lon="8.212843924074415"><ele>948.0</ele><time>2026-05-01T13:16:57Z</time></trkpt><trkpt lat="44.23177164678859" lon="8.212650658738372"><ele>947.0</ele><time>2026-05-01T13:16:58Z</time></trkpt><trkpt lat="44.2317743717517" lon="8.212440533260375"><ele>946.3333333333334</ele><time>2026-05-01T13:16:59Z</time></trkpt><trkpt lat="44.231781429914264" lon="8.212211504835535"><ele>945.6666666666667</ele><time>2026-05-01T13:17:00Z</time></trkpt><trkpt lat="44.231797384858496" lon="8.211946834302733"><ele>945.0</ele><time>2026-05-01T13:17:01Z</time></trkpt><trkpt lat="44.23183749415105" lon="8.211678689905131"><ele>941.0</ele><time>2026-05-01T13:17:02Z</time></trkpt><trkpt lat="44.231932175909535" lon="8.211418082380806"><ele>937.0</ele><time>2026-05-01T13:17:03Z</time></trkpt><trkpt lat="44.232035060013295" lon="8.211163162468255"><ele>933.0</ele><time>2026-05-01T13:17:04Z</time></trkpt><trkpt lat="44.232167198291755" lon="8.210919346506751"><ele>933.0</ele><time>2026-05-01T13:17:05Z</time></trkpt><trkpt lat="44.23226535057213" lon="8.21066795212584"><ele>933.0</ele><time>2026-05-01T13:17:06Z</time></trkpt><trkpt lat="44.232337111148375" lon="8.210400804902427"><ele>933.0</ele><time>2026-05-01T13:17:07Z</time></trkpt><trkpt lat="44.23238202189156" lon="8.210103385958721"><ele>946.0</ele><time>2026-05-01T13:17:08Z</time></trkpt><trkpt lat="44.23242299151379" lon="8.209798721157503"><ele>959.0</ele><time>2026-05-01T13:17:09Z</time></trkpt><trkpt lat="44.232478807884284" lon="8.209496638187083"><ele>972.0</ele><time>2026-05-01T13:17:10Z</time></trkpt><trkpt lat="44.23255356503042" lon="8.209192517231886"><ele>973.3333333333333</ele><time>2026-05-01T13:17:11Z</time></trkpt><trkpt lat="44.23263585095909" lon="8.208918442607668"><ele>974.6666666666666</ele><time>2026-05-01T13:17:12Z</time></trkpt><trkpt lat="44.232697032557915" lon="8.208699327315834"><ele>976.0</ele><time>2026-05-01T13:17:13Z</time></trkpt><trkpt lat="44.23273736707373" lon="8.208512857734243"><ele>976.0</ele><time>2026-05-01T13:17:14Z</time></trkpt><trkpt lat="44.23272493808908" lon="8.208288518751694"><ele>976.0</ele><time>2026-05-01T13:17:15Z</time></trkpt><trkpt lat="44.232690193405546" lon="8.208055741765527"><ele>976.0</ele><time>2026-05-01T13:17:16Z</time></trkpt><trkpt lat="44.23265492546325" lon="8.20784702045363"><ele>979.75</ele><time>2026-05-01T13:17:17Z</time></trkpt><trkpt lat="44.23259204184075" lon="8.207687985227441"><ele>983.5</ele><time>2026-05-01T13:17:18Z</time></trkpt><trkpt lat="44.232493105206906" lon="8.20756985163868"><ele>987.25</ele><time>2026-05-01T13:17:19Z</time></trkpt><trkpt lat="44.23237597486588" lon="8.207493948076436"><ele>991.0</ele><time>2026-05-01T13:17:20Z</time></trkpt><trkpt lat="44.232282584769564" lon="8.207424412634959"><ele>983.5</ele><time>2026-05-01T13:17:21Z</time></trkpt><trkpt lat="44.23227894441243" lon="8.20726784183849"><ele>976.0</ele><time>2026-05-01T13:17:22Z</time></trkpt><trkpt lat="44.2322773877927" lon="8.20711711748118"><ele>968.5</ele><time>2026-05-01T13:17:23Z</time></trkpt><trkpt lat="44.232264387288176" lon="8.20691452002461"><ele>961.0</ele><time>2026-05-01T13:17:24Z</time></trkpt><trkpt lat="44.232207623024685" lon="8.206706694931958"><ele>961.0</ele><time>2026-05-01T13:17:25Z</time></trkpt><trkpt lat="44.23216559733813" lon="8.206502171613696"><ele>961.0</ele><time>2026-05-01T13:17:26Z</time></trkpt><trkpt lat="44.232145038424555" lon="8.20632261241311"><ele>961.0</ele><time>2026-05-01T13:17:27Z</time></trkpt><trkpt lat="44.23219251014736" lon="8.206162773181463"><ele>961.0</ele><time>2026-05-01T13:17:28Z</time></trkpt><trkpt lat="44.232232784513386" lon="8.205966061186988"><ele>959.3333333333333</ele><time>2026-05-01T13:17:29Z</time></trkpt><trkpt lat="44.23227867027229" lon="8.205743320203673"><ele>957.6666666666667</ele><time>2026-05-01T13:17:30Z</time></trkpt><trkpt lat="44.23232564987801" lon="8.20549153197683"><ele>956.0</ele><time>2026-05-01T13:17:31Z</time></trkpt><trkpt lat="44.23238424328708" lon="8.20522280883775"><ele>971.6666666666667</ele><time>2026-05-01T13:17:32Z</time></trkpt><trkpt lat="44.23244433672634" lon="8.204939884541572"><ele>987.3333333333333</ele><time>2026-05-01T13:17:33Z</time></trkpt><trkpt lat="44.2324984457246" lon="8.20465173654075"><ele>1003.0</ele><time>2026-05-01T13:17:34Z</time></trkpt><trkpt lat="44.23253485661013" lon="8.20434048318116"><ele>1003.0</ele><time>2026-05-01T13:17:35Z</time></trkpt><trkpt lat="44.23255419546353" lon="8.204022889271744"><ele>1003.0</ele><time>2026-05-01T13:17:36Z</time></trkpt><trkpt lat="44.232555412862006" lon="8.203714158677016"><ele>1002.6666666666666</ele><time>2026-05-01T13:17:37Z</time></trkpt><trkpt lat="44.232578957232654" lon="8.203456321004776"><ele>1002.3333333333333</ele><time>2026-05-01T13:17:38Z</time></trkpt><trkpt lat="44.232638066868304" lon="8.20321268132523"><ele>1002.0</ele><time>2026-05-01T13:17:39Z</time></trkpt><trkpt lat="44.2326824985635" lon="8.202973872978717"><ele>1004.6666666666667</ele><time>2026-05-01T13:17:40Z</time></trkpt><trkpt lat="44.23270606628962" lon="8.202792801587018"><ele>1007.3333333333334</ele><time>2026-05-01T13:17:41Z</time></trkpt><trkpt lat="44.23265896142514" lon="8.202599336711826"><ele>1010.0</ele><time>2026-05-01T13:17:42Z</time></trkpt><trkpt lat="44.232577656722334" lon="8.202384757801303"><ele>1013.6666666666667</ele><time>2026-05-01T13:17:43Z</time></trkpt><trkpt lat="44.232521282174496" lon="8.202140557154388"><ele>1017.3333333333333</ele><time>2026-05-01T13:17:44Z</time></trkpt><trkpt lat="44.23240928849296" lon="8.201937491395602"><ele>1021.0</ele><time>2026-05-01T13:17:45Z</time></trkpt><trkpt lat="44.23230035615787" lon="8.201755071402298"><ele>1017.8</ele><time>2026-05-01T13:17:46Z</time></trkpt><trkpt lat="44.23224394276" lon="8.20158906216379"><ele>1014.5999999999999</ele><time>2026-05-01T13:17:47Z</time></trkpt><trkpt lat="44.23221695212984" lon="8.201455563937952"><ele>1011.4</ele><time>2026-05-01T13:17:48Z</time></trkpt><trkpt lat="44.23222728965447" lon="8.201326172064785"><ele>1008.2</ele><time>2026-05-01T13:17:49Z</time></trkpt><trkpt lat="44.232231204565785" lon="8.201154797077056"><ele>1005.0</ele><time>2026-05-01T13:17:50Z</time></trkpt><trkpt lat="44.2322689712211" lon="8.200959721615904"><ele>1005.0</ele><time>2026-05-01T13:17:51Z</time></trkpt><trkpt lat="44.23229051084497" lon="8.200741034480561"><ele>1005.0</ele><time>2026-05-01T13:17:52Z</time></trkpt><trkpt lat="44.23225542032792" lon="8.200499666836897"><ele>1005.0</ele><time>2026-05-01T13:17:53Z</time></trkpt><trkpt lat="44.23216872092931" lon="8.200270023362418"><ele>1009.0</ele><time>2026-05-01T13:17:54Z</time></trkpt><trkpt lat="44.2320698943449" lon="8.200059866161302"><ele>1013.0</ele><time>2026-05-01T13:17:55Z</time></trkpt><trkpt lat="44.23194964265022" lon="8.19984959947923"><ele>1017.0</ele><time>2026-05-01T13:17:56Z</time></trkpt><trkpt lat="44.2318068051603" lon="8.199650904563951"><ele>1017.3333333333333</ele><time>2026-05-01T13:17:57Z</time></trkpt><trkpt lat="44.23166201634162" lon="8.19945948624304"><ele>1017.6666666666666</ele><time>2026-05-01T13:17:58Z</time></trkpt><trkpt lat="44.23152622284302" lon="8.199277902006877"><ele>1018.0</ele><time>2026-05-01T13:17:59Z</time></trkpt><trkpt lat="44.231405901402056" lon="8.199110870083558"><ele>1023.0</ele><time>2026-05-01T13:18:00Z</time></trkpt><trkpt lat="44.231308876483155" lon="8.198946627913006"><ele>1028.0</ele><time>2026-05-01T13:18:01Z</time></trkpt><trkpt lat="44.23121408116977" lon="8.198816709865067"><ele>1033.0</ele><time>2026-05-01T13:18:02Z</time></trkpt><trkpt lat="44.231115590441036" lon="8.19870952687255"><ele>1038.0</ele><time>2026-05-01T13:18:03Z</time></trkpt><trkpt lat="44.23103502110939" lon="8.198575011148515"><ele>1038.0</ele><time>2026-05-01T13:18:04Z</time></trkpt><trkpt lat="44.23095534208876" lon="8.198458571165101"><ele>1038.0</ele><time>2026-05-01T13:18:05Z</time></trkpt><trkpt lat="44.230893430327804" lon="8.198364797592388"><ele>1038.0</ele><time>2026-05-01T13:18:06Z</time></trkpt><trkpt lat="44.23083795483586" lon="8.198286658174961"><ele>1038.0</ele><time>2026-05-01T13:18:07Z</time></trkpt><trkpt lat="44.230787291694384" lon="8.198214484578154"><ele>1038.0</ele><time>2026-05-01T13:18:08Z</time></trkpt><trkpt lat="44.230742089077495" lon="8.198147743689143"><ele>1038.0</ele><time>2026-05-01T13:18:09Z</time></trkpt><trkpt lat="44.230700118875085" lon="8.198080349406533"><ele>1037.5</ele><time>2026-05-01T13:18:10Z</time></trkpt><trkpt lat="44.23061753321321" lon="8.197952112290082"><ele>1037.0</ele><time>2026-05-01T13:18:12Z</time></trkpt><trkpt lat="44.230547482721505" lon="8.19787106815231"><ele>1036.5</ele><time>2026-05-01T13:18:14Z</time></trkpt><trkpt lat="44.2304560206328" lon="8.197766519642261"><ele>1036.0</ele><time>2026-05-01T13:18:16Z</time></trkpt><trkpt lat="44.230363991798065" lon="8.197662443447378"><ele>1036.0</ele><time>2026-05-01T13:18:18Z</time></trkpt><trkpt lat="44.23030141187411" lon="8.19753577367276"><ele>1036.0</ele><time>2026-05-01T13:18:20Z</time></trkpt><trkpt lat="44.23027009152563" lon="8.197450756659059"><ele>1036.0</ele><time>2026-05-01T13:18:21Z</time></trkpt><trkpt lat="44.23024994562845" lon="8.197357041141238"><ele>1036.0</ele><time>2026-05-01T13:18:22Z</time></trkpt><trkpt lat="44.2302528750136" lon="8.197210960240687"><ele>1036.0</ele><time>2026-05-01T13:18:24Z</time></trkpt><trkpt lat="44.23027297196" lon="8.19709335526278"><ele>1036.0</ele><time>2026-05-01T13:18:26Z</time></trkpt><trkpt lat="44.23031685201735" lon="8.19698215763587"><ele>1035.2</ele><time>2026-05-01T13:18:28Z</time></trkpt><trkpt lat="44.230389345538576" lon="8.196859074187895"><ele>1034.3999999999999</ele><time>2026-05-01T13:18:30Z</time></trkpt><trkpt lat="44.23045504973522" lon="8.196795106897422"><ele>1033.6</ele><time>2026-05-01T13:18:31Z</time></trkpt><trkpt lat="44.230544371588856" lon="8.196751506706793"><ele>1032.8</ele><time>2026-05-01T13:18:32Z</time></trkpt><trkpt lat="44.230669121655886" lon="8.196730155294919"><ele>1032.0</ele><time>2026-05-01T13:18:33Z</time></trkpt><trkpt lat="44.23081349447098" lon="8.196730854362336"><ele>1032.0</ele><time>2026-05-01T13:18:34Z</time></trkpt><trkpt lat="44.23096021296297" lon="8.196739197288606"><ele>1032.0</ele><time>2026-05-01T13:18:35Z</time></trkpt><trkpt lat="44.231116975179376" lon="8.196746836280479"><ele>1032.0</ele><time>2026-05-01T13:18:36Z</time></trkpt><trkpt lat="44.231285344609944" lon="8.19675036475758"><ele>1032.0</ele><time>2026-05-01T13:18:37Z</time></trkpt><trkpt lat="44.23146013868244" lon="8.196757949915558"><ele>1032.0</ele><time>2026-05-01T13:18:38Z</time></trkpt><trkpt lat="44.23161887352397" lon="8.196753384253975"><ele>1032.0</ele><time>2026-05-01T13:18:39Z</time></trkpt><trkpt lat="44.23175940635818" lon="8.196707840571529"><ele>1032.3333333333333</ele><time>2026-05-01T13:18:40Z</time></trkpt><trkpt lat="44.23188777162529" lon="8.196615972085056"><ele>1032.6666666666665</ele><time>2026-05-01T13:18:41Z</time></trkpt><trkpt lat="44.232012152515345" lon="8.196466169334476"><ele>1033.0</ele><time>2026-05-01T13:18:42Z</time></trkpt><trkpt lat="44.23214270866755" lon="8.196289098508524"><ele>1032.6666666666665</ele><time>2026-05-01T13:18:43Z</time></trkpt><trkpt lat="44.232279056876685" lon="8.19608603440185"><ele>1032.3333333333333</ele><time>2026-05-01T13:18:44Z</time></trkpt><trkpt lat="44.232429491827666" lon="8.195905110432069"><ele>1032.0</ele><time>2026-05-01T13:18:45Z</time></trkpt><trkpt lat="44.2325855942608" lon="8.195688328826911"><ele>1024.0</ele><time>2026-05-01T13:18:46Z</time></trkpt><trkpt lat="44.23271208072871" lon="8.195471956459002"><ele>1016.0</ele><time>2026-05-01T13:18:47Z</time></trkpt><trkpt lat="44.232828364557264" lon="8.195296938627418"><ele>1008.0</ele><time>2026-05-01T13:18:48Z</time></trkpt><trkpt lat="44.23293385440757" lon="8.195194947075443"><ele>1008.0</ele><time>2026-05-01T13:18:49Z</time></trkpt><trkpt lat="44.23301557884915" lon="8.195140413005195"><ele>1008.0</ele><time>2026-05-01T13:18:50Z</time></trkpt><trkpt lat="44.23308322036213" lon="8.195149999336406"><ele>1008.0</ele><time>2026-05-01T13:18:51Z</time></trkpt><trkpt lat="44.23314218094225" lon="8.195190196507129"><ele>1008.0</ele><time>2026-05-01T13:18:52Z</time></trkpt><trkpt lat="44.233249974875214" lon="8.1952168714322"><ele>1008.0</ele><time>2026-05-01T13:18:53Z</time></trkpt><trkpt lat="44.23343852335665" lon="8.195263513711444"><ele>1008.3333333333333</ele><time>2026-05-01T13:18:54Z</time></trkpt><trkpt lat="44.23365216556399" lon="8.195319483624072"><ele>1008.6666666666666</ele><time>2026-05-01T13:18:55Z</time></trkpt><trkpt lat="44.23385670466212" lon="8.195364333538258"><ele>1009.0</ele><time>2026-05-01T13:18:56Z</time></trkpt><trkpt lat="44.23404262810136" lon="8.1954085517384"><ele>1009.0</ele><time>2026-05-01T13:18:57Z</time></trkpt><trkpt lat="44.23420161878251" lon="8.195500669311667"><ele>1009.0</ele><time>2026-05-01T13:18:58Z</time></trkpt><trkpt lat="44.23437740686646" lon="8.195654526207008"><ele>1009.0</ele><time>2026-05-01T13:18:59Z</time></trkpt><trkpt lat="44.23455424080558" lon="8.195720749141168"><ele>1014.6666666666666</ele><time>2026-05-01T13:19:00Z</time></trkpt><trkpt lat="44.234718714172814" lon="8.195752715687345"><ele>1020.3333333333333</ele><time>2026-05-01T13:19:01Z</time></trkpt><trkpt lat="44.23489040575675" lon="8.195803579132432"><ele>1026.0</ele><time>2026-05-01T13:19:02Z</time></trkpt><trkpt lat="44.23504026092833" lon="8.195847541729007"><ele>1026.0</ele><time>2026-05-01T13:19:03Z</time></trkpt><trkpt lat="44.23516022256888" lon="8.195857062373799"><ele>1026.0</ele><time>2026-05-01T13:19:04Z</time></trkpt><trkpt lat="44.23524841625891" lon="8.195865864804201"><ele>1026.0</ele><time>2026-05-01T13:19:05Z</time></trkpt><trkpt lat="44.23531080525371" lon="8.195709410700259"><ele>1026.0</ele><time>2026-05-01T13:19:07Z</time></trkpt><trkpt lat="44.23526147284336" lon="8.195579943499387"><ele>1026.0</ele><time>2026-05-01T13:19:08Z</time></trkpt><trkpt lat="44.235196992069945" lon="8.195451017208857"><ele>1025.25</ele><time>2026-05-01T13:19:09Z</time></trkpt><trkpt lat="44.23509432424005" lon="8.19531057568388"><ele>1024.5</ele><time>2026-05-01T13:19:10Z</time></trkpt><trkpt lat="44.23498070394368" lon="8.195175404055425"><ele>1023.75</ele><time>2026-05-01T13:19:11Z</time></trkpt><trkpt lat="44.23485429620744" lon="8.1950662691276"><ele>1023.0</ele><time>2026-05-01T13:19:12Z</time></trkpt><trkpt lat="44.23473399846877" lon="8.194991187680577"><ele>1019.5</ele><time>2026-05-01T13:19:13Z</time></trkpt><trkpt lat="44.23468877479422" lon="8.19488511795016"><ele>1016.0</ele><time>2026-05-01T13:19:14Z</time></trkpt><trkpt lat="44.234700113497496" lon="8.194765436638988"><ele>1012.5</ele><time>2026-05-01T13:19:15Z</time></trkpt><trkpt lat="44.23469632553629" lon="8.19458157011315"><ele>1009.0</ele><time>2026-05-01T13:19:16Z</time></trkpt><trkpt lat="44.23469066858456" lon="8.194311505280405"><ele>1003.6666666666666</ele><time>2026-05-01T13:19:17Z</time></trkpt><trkpt lat="44.23469298978586" lon="8.19403170088698"><ele>998.3333333333333</ele><time>2026-05-01T13:19:18Z</time></trkpt><trkpt lat="44.234671572404935" lon="8.193767955564326"><ele>993.0</ele><time>2026-05-01T13:19:19Z</time></trkpt><trkpt lat="44.23462681676943" lon="8.193508363309805"><ele>993.0</ele><time>2026-05-01T13:19:20Z</time></trkpt><trkpt lat="44.23453433319252" lon="8.193274934886018"><ele>993.0</ele><time>2026-05-01T13:19:21Z</time></trkpt><trkpt lat="44.23442735795256" lon="8.193051199578036"><ele>993.0</ele><time>2026-05-01T13:19:22Z</time></trkpt><trkpt lat="44.23432012452101" lon="8.192825107386495"><ele>996.0</ele><time>2026-05-01T13:19:23Z</time></trkpt><trkpt lat="44.23422617662575" lon="8.192590722081642"><ele>999.0</ele><time>2026-05-01T13:19:24Z</time></trkpt><trkpt lat="44.23414041157953" lon="8.19236857290997"><ele>1002.0</ele><time>2026-05-01T13:19:25Z</time></trkpt><trkpt lat="44.23404957718941" lon="8.192157480145163"><ele>994.0</ele><time>2026-05-01T13:19:26Z</time></trkpt><trkpt lat="44.233947980272426" lon="8.191952125943638"><ele>986.0</ele><time>2026-05-01T13:19:27Z</time></trkpt><trkpt lat="44.233859487842714" lon="8.191755339486175"><ele>978.0</ele><time>2026-05-01T13:19:28Z</time></trkpt><trkpt lat="44.23376070216008" lon="8.191594513461034"><ele>976.5</ele><time>2026-05-01T13:19:29Z</time></trkpt><trkpt lat="44.23367793515018" lon="8.191428817893712"><ele>975.0</ele><time>2026-05-01T13:19:30Z</time></trkpt><trkpt lat="44.23365034331701" lon="8.19126291868807"><ele>973.5</ele><time>2026-05-01T13:19:31Z</time></trkpt><trkpt lat="44.2336740642448" lon="8.191139050764939"><ele>972.0</ele><time>2026-05-01T13:19:32Z</time></trkpt><trkpt lat="44.23373004053807" lon="8.191034375658148"><ele>972.0</ele><time>2026-05-01T13:19:33Z</time></trkpt><trkpt lat="44.233809123867736" lon="8.190903282257908"><ele>972.0</ele><time>2026-05-01T13:19:34Z</time></trkpt><trkpt lat="44.23392229245354" lon="8.190750877673677"><ele>972.0</ele><time>2026-05-01T13:19:35Z</time></trkpt><trkpt lat="44.23406363187436" lon="8.19059269926841"><ele>974.0</ele><time>2026-05-01T13:19:36Z</time></trkpt><trkpt lat="44.234217848884285" lon="8.19043310068313"><ele>976.0</ele><time>2026-05-01T13:19:37Z</time></trkpt><trkpt lat="44.234347696475886" lon="8.190272791595964"><ele>978.0</ele><time>2026-05-01T13:19:38Z</time></trkpt><trkpt lat="44.2344532688789" lon="8.190101747272628"><ele>978.0</ele><time>2026-05-01T13:19:39Z</time></trkpt><trkpt lat="44.23454190482986" lon="8.189917817953683"><ele>978.0</ele><time>2026-05-01T13:19:40Z</time></trkpt><trkpt lat="44.234614857181285" lon="8.189777043187702"><ele>978.0</ele><time>2026-05-01T13:19:41Z</time></trkpt><trkpt lat="44.2346458214139" lon="8.189667337895008"><ele>978.0</ele><time>2026-05-01T13:19:42Z</time></trkpt><trkpt lat="44.23465934510226" lon="8.189529226997381"><ele>982.0</ele><time>2026-05-01T13:19:44Z</time></trkpt><trkpt lat="44.23430541545933" lon="8.18934185118891"><ele>986.0</ele><time>2026-05-01T13:19:46Z</time></trkpt><trkpt lat="44.234141351335474" lon="8.189273703183153"><ele>986.0</ele><time>2026-05-01T13:19:47Z</time></trkpt><trkpt lat="44.234008941010856" lon="8.18922630919084"><ele>985.9999999999999</ele><time>2026-05-01T13:19:48Z</time></trkpt><trkpt lat="44.23396167055033" lon="8.18915881737273"><ele>985.9999999999999</ele><time>2026-05-01T13:19:49Z</time></trkpt><trkpt lat="44.23391149561302" lon="8.189074179803237"><ele>986.0</ele><time>2026-05-01T13:19:50Z</time></trkpt><trkpt lat="44.23388063080913" lon="8.188922026885344"><ele>986.0</ele><time>2026-05-01T13:19:51Z</time></trkpt><trkpt lat="44.233857284126394" lon="8.188720813275689"><ele>980.0</ele><time>2026-05-01T13:19:52Z</time></trkpt><trkpt lat="44.23379656567345" lon="8.188518411428644"><ele>974.0</ele><time>2026-05-01T13:19:53Z</time></trkpt><trkpt lat="44.233728183508205" lon="8.188344821966623"><ele>968.0</ele><time>2026-05-01T13:19:54Z</time></trkpt><trkpt lat="44.23366804018745" lon="8.18818488729796"><ele>962.0</ele><time>2026-05-01T13:19:55Z</time></trkpt><trkpt lat="44.23361140482871" lon="8.188039833912278"><ele>960.0</ele><time>2026-05-01T13:19:56Z</time></trkpt><trkpt lat="44.23359158003586" lon="8.18788000896171"><ele>958.0</ele><time>2026-05-01T13:19:57Z</time></trkpt><trkpt lat="44.23360260759747" lon="8.187719740622594"><ele>956.0</ele><time>2026-05-01T13:19:58Z</time></trkpt><trkpt lat="44.23370642172261" lon="8.187507243875737"><ele>954.0</ele><time>2026-05-01T13:19:59Z</time></trkpt><trkpt lat="44.23384138081812" lon="8.187283967297978"><ele>957.6666666666667</ele><time>2026-05-01T13:20:00Z</time></trkpt><trkpt lat="44.233984131789136" lon="8.187084776937905"><ele>961.3333333333334</ele><time>2026-05-01T13:20:01Z</time></trkpt><trkpt lat="44.23414078420735" lon="8.1869218802344"><ele>965.0</ele><time>2026-05-01T13:20:02Z</time></trkpt><trkpt lat="44.23429845351823" lon="8.186804509667468"><ele>965.0</ele><time>2026-05-01T13:20:03Z</time></trkpt><trkpt lat="44.23441481997155" lon="8.186665816616866"><ele>965.0</ele><time>2026-05-01T13:20:04Z</time></trkpt><trkpt lat="44.23450863992941" lon="8.18649340391245"><ele>965.0</ele><time>2026-05-01T13:20:05Z</time></trkpt><trkpt lat="44.2345775628017" lon="8.186276094129779"><ele>958.0</ele><time>2026-05-01T13:20:06Z</time></trkpt><trkpt lat="44.23465815206296" lon="8.186043382946119"><ele>951.0</ele><time>2026-05-01T13:20:07Z</time></trkpt><trkpt lat="44.23473153605146" lon="8.185818707741314"><ele>944.0</ele><time>2026-05-01T13:20:08Z</time></trkpt><trkpt lat="44.23475074218733" lon="8.185605092227517"><ele>946.6666666666667</ele><time>2026-05-01T13:20:09Z</time></trkpt><trkpt lat="44.234778230119765" lon="8.185390388791959"><ele>949.3333333333333</ele><time>2026-05-01T13:20:10Z</time></trkpt><trkpt lat="44.23481813307516" lon="8.185169269832222"><ele>952.0</ele><time>2026-05-01T13:20:11Z</time></trkpt><trkpt lat="44.23486723298078" lon="8.184981002459143"><ele>952.0</ele><time>2026-05-01T13:20:12Z</time></trkpt><trkpt lat="44.234995705995665" lon="8.184888261798589"><ele>952.0</ele><time>2026-05-01T13:20:13Z</time></trkpt><trkpt lat="44.23514195476888" lon="8.184707516066595"><ele>952.0</ele><time>2026-05-01T13:20:14Z</time></trkpt><trkpt lat="44.23528655990416" lon="8.184565804379861"><ele>946.75</ele><time>2026-05-01T13:20:15Z</time></trkpt><trkpt lat="44.23542877771341" lon="8.184463184535272"><ele>941.5</ele><time>2026-05-01T13:20:16Z</time></trkpt><trkpt lat="44.23554884482446" lon="8.18440445980213"><ele>936.25</ele><time>2026-05-01T13:20:17Z</time></trkpt><trkpt lat="44.23566436236476" lon="8.184387136934056"><ele>931.0</ele><time>2026-05-01T13:20:18Z</time></trkpt><trkpt lat="44.235796068245946" lon="8.184411390379575"><ele>931.0</ele><time>2026-05-01T13:20:19Z</time></trkpt><trkpt lat="44.23591844454269" lon="8.184460518423062"><ele>931.0</ele><time>2026-05-01T13:20:20Z</time></trkpt><trkpt lat="44.23604902754594" lon="8.184557255019106"><ele>931.0</ele><time>2026-05-01T13:20:21Z</time></trkpt><trkpt lat="44.236201519310164" lon="8.184701405191564"><ele>938.0</ele><time>2026-05-01T13:20:22Z</time></trkpt><trkpt lat="44.236371142894875" lon="8.184855804285625"><ele>945.0</ele><time>2026-05-01T13:20:23Z</time></trkpt><trkpt lat="44.236516578422346" lon="8.185014581831652"><ele>952.0</ele><time>2026-05-01T13:20:24Z</time></trkpt><trkpt lat="44.23663382889289" lon="8.185154530709946"><ele>952.0</ele><time>2026-05-01T13:20:25Z</time></trkpt><trkpt lat="44.236724259903184" lon="8.185275923420264"><ele>952.0</ele><time>2026-05-01T13:20:26Z</time></trkpt><trkpt lat="44.236803397488494" lon="8.18538653405547"><ele>952.0</ele><time>2026-05-01T13:20:27Z</time></trkpt><trkpt lat="44.23688436226259" lon="8.185400547059706"><ele>952.0</ele><time>2026-05-01T13:20:28Z</time></trkpt><trkpt lat="44.236968823526254" lon="8.185360481371061"><ele>952.0</ele><time>2026-05-01T13:20:29Z</time></trkpt><trkpt lat="44.23700605212004" lon="8.185259982220659"><ele>952.0</ele><time>2026-05-01T13:20:30Z</time></trkpt><trkpt lat="44.23702507554547" lon="8.185134772236744"><ele>952.0</ele><time>2026-05-01T13:20:31Z</time></trkpt><trkpt lat="44.23702135233909" lon="8.184986457242479"><ele>952.0</ele><time>2026-05-01T13:20:32Z</time></trkpt><trkpt lat="44.23699805093023" lon="8.184814683094059"><ele>952.0</ele><time>2026-05-01T13:20:33Z</time></trkpt><trkpt lat="44.23689781718001" lon="8.18462023217676"><ele>948.6666666666666</ele><time>2026-05-01T13:20:34Z</time></trkpt><trkpt lat="44.236820150244334" lon="8.184382310946583"><ele>945.3333333333333</ele><time>2026-05-01T13:20:35Z</time></trkpt><trkpt lat="44.23675041097141" lon="8.184149340202536"><ele>942.0</ele><time>2026-05-01T13:20:36Z</time></trkpt><trkpt lat="44.2367086151018" lon="8.183918144872344"><ele>940.0</ele><time>2026-05-01T13:20:37Z</time></trkpt><trkpt lat="44.236666308704386" lon="8.183671606288573"><ele>938.0</ele><time>2026-05-01T13:20:38Z</time></trkpt><trkpt lat="44.23664522866413" lon="8.183429260804893"><ele>936.0</ele><time>2026-05-01T13:20:39Z</time></trkpt><trkpt lat="44.23663417371883" lon="8.183194346027836"><ele>931.3333333333333</ele><time>2026-05-01T13:20:40Z</time></trkpt><trkpt lat="44.236644793043155" lon="8.182984908932637"><ele>926.6666666666666</ele><time>2026-05-01T13:20:41Z</time></trkpt><trkpt lat="44.23669743074352" lon="8.182776185810273"><ele>922.0</ele><time>2026-05-01T13:20:42Z</time></trkpt><trkpt lat="44.23675832134899" lon="8.182561711781029"><ele>914.3333333333333</ele><time>2026-05-01T13:20:43Z</time></trkpt><trkpt lat="44.23684662409713" lon="8.182342591408297"><ele>906.6666666666667</ele><time>2026-05-01T13:20:44Z</time></trkpt><trkpt lat="44.236950547965336" lon="8.18211419690852"><ele>899.0</ele><time>2026-05-01T13:20:45Z</time></trkpt><trkpt lat="44.23704877509469" lon="8.181932827023154"><ele>899.0</ele><time>2026-05-01T13:20:46Z</time></trkpt><trkpt lat="44.2371401413037" lon="8.18178070384356"><ele>899.0000000000001</ele><time>2026-05-01T13:20:47Z</time></trkpt><trkpt lat="44.23723088940968" lon="8.181680447321744"><ele>899.0000000000001</ele><time>2026-05-01T13:20:48Z</time></trkpt><trkpt lat="44.23732157778057" lon="8.181619666720861"><ele>899.0</ele><time>2026-05-01T13:20:49Z</time></trkpt><trkpt lat="44.237398272431314" lon="8.181616286138107"><ele>899.0</ele><time>2026-05-01T13:20:50Z</time></trkpt><trkpt lat="44.23746251096095" lon="8.181684303158328"><ele>904.6666666666667</ele><time>2026-05-01T13:20:51Z</time></trkpt><trkpt lat="44.23754307503005" lon="8.181829517776137"><ele>910.3333333333333</ele><time>2026-05-01T13:20:52Z</time></trkpt><trkpt lat="44.237645493169715" lon="8.181977919260778"><ele>916.0</ele><time>2026-05-01T13:20:53Z</time></trkpt><trkpt lat="44.23777071981912" lon="8.182147162567253"><ele>916.0</ele><time>2026-05-01T13:20:54Z</time></trkpt><trkpt lat="44.23794241814502" lon="8.18228470134779"><ele>916.0</ele><time>2026-05-01T13:20:55Z</time></trkpt><trkpt lat="44.23812577065403" lon="8.182366571478854"><ele>916.0</ele><time>2026-05-01T13:20:56Z</time></trkpt><trkpt lat="44.23827856441462" lon="8.182446002631082"><ele>917.0</ele><time>2026-05-01T13:20:57Z</time></trkpt><trkpt lat="44.238393538222084" lon="8.182512655139336"><ele>917.9999999999999</ele><time>2026-05-01T13:20:58Z</time></trkpt><trkpt lat="44.2384791951635" lon="8.182530656798559"><ele>918.9999999999999</ele><time>2026-05-01T13:20:59Z</time></trkpt><trkpt lat="44.23855250563192" lon="8.182454533426291"><ele>920.0</ele><time>2026-05-01T13:21:00Z</time></trkpt><trkpt lat="44.238594381046646" lon="8.182310210085504"><ele>921.0</ele><time>2026-05-01T13:21:01Z</time></trkpt><trkpt lat="44.238590934953876" lon="8.182122718068015"><ele>921.0</ele><time>2026-05-01T13:21:02Z</time></trkpt><trkpt lat="44.23857778835349" lon="8.181899369795005"><ele>921.0</ele><time>2026-05-01T13:21:03Z</time></trkpt><trkpt lat="44.23855846054175" lon="8.18166467284702"><ele>921.0</ele><time>2026-05-01T13:21:04Z</time></trkpt><trkpt lat="44.238545282481795" lon="8.181411373510716"><ele>921.6666666666667</ele><time>2026-05-01T13:21:05Z</time></trkpt><trkpt lat="44.238503301390175" lon="8.181145849527923"><ele>922.3333333333334</ele><time>2026-05-01T13:21:06Z</time></trkpt><trkpt lat="44.23839052940063" lon="8.180887083289816"><ele>923.0</ele><time>2026-05-01T13:21:07Z</time></trkpt><trkpt lat="44.23828098931512" lon="8.180673393226348"><ele>924.25</ele><time>2026-05-01T13:21:08Z</time></trkpt><trkpt lat="44.23814582688843" lon="8.180515951302056"><ele>925.5</ele><time>2026-05-01T13:21:09Z</time></trkpt><trkpt lat="44.238011521381054" lon="8.180430721890847"><ele>926.75</ele><time>2026-05-01T13:21:10Z</time></trkpt><trkpt lat="44.237938903197374" lon="8.180376897593801"><ele>928.0</ele><time>2026-05-01T13:21:11Z</time></trkpt><trkpt lat="44.2378906298939" lon="8.18025918977409"><ele>913.6666666666666</ele><time>2026-05-01T13:21:12Z</time></trkpt><trkpt lat="44.23788126908503" lon="8.180094373880447"><ele>899.3333333333333</ele><time>2026-05-01T13:21:13Z</time></trkpt><trkpt lat="44.23791813103732" lon="8.179836054065484"><ele>885.0</ele><time>2026-05-01T13:21:14Z</time></trkpt><trkpt lat="44.237859089438395" lon="8.179632085989624"><ele>885.0</ele><time>2026-05-01T13:21:15Z</time></trkpt><trkpt lat="44.237800060209" lon="8.179449007646005"><ele>885.0</ele><time>2026-05-01T13:21:16Z</time></trkpt><trkpt lat="44.237774174246404" lon="8.179223382111914"><ele>885.0</ele><time>2026-05-01T13:21:17Z</time></trkpt><trkpt lat="44.237804207648274" lon="8.17897580273582"><ele>886.6666666666667</ele><time>2026-05-01T13:21:18Z</time></trkpt><trkpt lat="44.23779953912097" lon="8.178736211924363"><ele>888.3333333333334</ele><time>2026-05-01T13:21:19Z</time></trkpt><trkpt lat="44.237767275160344" lon="8.178452988747939"><ele>890.0</ele><time>2026-05-01T13:21:20Z</time></trkpt><trkpt lat="44.23768544077921" lon="8.178181529460607"><ele>891.3333333333334</ele><time>2026-05-01T13:21:21Z</time></trkpt><trkpt lat="44.23761475367842" lon="8.17790271540413"><ele>892.6666666666667</ele><time>2026-05-01T13:21:22Z</time></trkpt><trkpt lat="44.2375628019046" lon="8.17762650144941"><ele>894.0</ele><time>2026-05-01T13:21:23Z</time></trkpt><trkpt lat="44.2375089595395" lon="8.177407239731835"><ele>894.0</ele><time>2026-05-01T13:21:24Z</time></trkpt><trkpt lat="44.237449445057365" lon="8.177268042926208"><ele>894.0000000000001</ele><time>2026-05-01T13:21:25Z</time></trkpt><trkpt lat="44.23742289865816" lon="8.177159473167704"><ele>894.0000000000001</ele><time>2026-05-01T13:21:26Z</time></trkpt><trkpt lat="44.23744951140334" lon="8.177016354738859"><ele>894.0</ele><time>2026-05-01T13:21:27Z</time></trkpt><trkpt lat="44.237524029388624" lon="8.176844580156846"><ele>894.0</ele><time>2026-05-01T13:21:28Z</time></trkpt><trkpt lat="44.237588195977935" lon="8.176625950002046"><ele>896.0</ele><time>2026-05-01T13:21:29Z</time></trkpt><trkpt lat="44.23759353799003" lon="8.1763626776407"><ele>898.0</ele><time>2026-05-01T13:21:30Z</time></trkpt><trkpt lat="44.23756732384875" lon="8.176091837851468"><ele>900.0</ele><time>2026-05-01T13:21:31Z</time></trkpt><trkpt lat="44.23749007867319" lon="8.175825654949389"><ele>903.6666666666667</ele><time>2026-05-01T13:21:32Z</time></trkpt><trkpt lat="44.237413279259655" lon="8.175591883758356"><ele>907.3333333333334</ele><time>2026-05-01T13:21:33Z</time></trkpt><trkpt lat="44.237326216615436" lon="8.175393168264938"><ele>911.0</ele><time>2026-05-01T13:21:34Z</time></trkpt><trkpt lat="44.23718879811532" lon="8.175230591274138"><ele>895.6666666666667</ele><time>2026-05-01T13:21:35Z</time></trkpt><trkpt lat="44.23701013366163" lon="8.175065087047079"><ele>880.3333333333333</ele><time>2026-05-01T13:21:36Z</time></trkpt><trkpt lat="44.23686651796696" lon="8.174923244134629"><ele>865.0</ele><time>2026-05-01T13:21:37Z</time></trkpt><trkpt lat="44.2367799632677" lon="8.174795317690231"><ele>863.6</ele><time>2026-05-01T13:21:38Z</time></trkpt><trkpt lat="44.23674245386761" lon="8.17468983569639"><ele>862.2</ele><time>2026-05-01T13:21:39Z</time></trkpt><trkpt lat="44.23674161873141" lon="8.174568439976845"><ele>860.8</ele><time>2026-05-01T13:21:40Z</time></trkpt><trkpt lat="44.236787290187536" lon="8.174425584169745"><ele>859.4</ele><time>2026-05-01T13:21:41Z</time></trkpt><trkpt lat="44.2368934015745" lon="8.174280885921508"><ele>858.0</ele><time>2026-05-01T13:21:42Z</time></trkpt><trkpt lat="44.23698826830074" lon="8.174112323962833"><ele>849.3333333333333</ele><time>2026-05-01T13:21:43Z</time></trkpt><trkpt lat="44.237079157991666" lon="8.173924350322867"><ele>840.6666666666666</ele><time>2026-05-01T13:21:44Z</time></trkpt><trkpt lat="44.237166605129154" lon="8.173712624250212"><ele>832.0</ele><time>2026-05-01T13:21:45Z</time></trkpt><trkpt lat="44.237248012876776" lon="8.17350295816184"><ele>831.5</ele><time>2026-05-01T13:21:46Z</time></trkpt><trkpt lat="44.2373321547469" lon="8.173342876277111"><ele>831.0</ele><time>2026-05-01T13:21:47Z</time></trkpt><trkpt lat="44.23742165505149" lon="8.17323139819094"><ele>830.5</ele><time>2026-05-01T13:21:48Z</time></trkpt><trkpt lat="44.23752374726783" lon="8.173178914340106"><ele>830.0</ele><time>2026-05-01T13:21:49Z</time></trkpt><trkpt lat="44.23765097109408" lon="8.173175728759693"><ele>841.0</ele><time>2026-05-01T13:21:50Z</time></trkpt><trkpt lat="44.23780403214012" lon="8.173216140426405"><ele>852.0</ele><time>2026-05-01T13:21:51Z</time></trkpt><trkpt lat="44.2379719394093" lon="8.17326607397465"><ele>863.0</ele><time>2026-05-01T13:21:52Z</time></trkpt><trkpt lat="44.238144774135684" lon="8.173328871507655"><ele>865.0</ele><time>2026-05-01T13:21:53Z</time></trkpt><trkpt lat="44.23829889297556" lon="8.173388793241863"><ele>867.0</ele><time>2026-05-01T13:21:54Z</time></trkpt><trkpt lat="44.23842473119358" lon="8.173436007727139"><ele>869.0</ele><time>2026-05-01T13:21:55Z</time></trkpt><trkpt lat="44.23849938057442" lon="8.173409064171699"><ele>871.0</ele><time>2026-05-01T13:21:56Z</time></trkpt><trkpt lat="44.23854850944716" lon="8.173320469194158"><ele>873.0</ele><time>2026-05-01T13:21:57Z</time></trkpt><trkpt lat="44.23855158037446" lon="8.173186788050785"><ele>867.0</ele><time>2026-05-01T13:21:58Z</time></trkpt><trkpt lat="44.238512539137474" lon="8.173016099860387"><ele>861.0</ele><time>2026-05-01T13:21:59Z</time></trkpt><trkpt lat="44.23849543416296" lon="8.172855641067807"><ele>855.0</ele><time>2026-05-01T13:22:00Z</time></trkpt><trkpt lat="44.238534498241144" lon="8.172723608330557"><ele>849.0</ele><time>2026-05-01T13:22:01Z</time></trkpt><trkpt lat="44.23860131823205" lon="8.172593175589771"><ele>849.0</ele><time>2026-05-01T13:22:02Z</time></trkpt><trkpt lat="44.23865856355028" lon="8.172452418943683"><ele>849.0</ele><time>2026-05-01T13:22:03Z</time></trkpt><trkpt lat="44.23877023556548" lon="8.172304543449318"><ele>849.0</ele><time>2026-05-01T13:22:04Z</time></trkpt><trkpt lat="44.23886322891227" lon="8.172103637267114"><ele>849.0</ele><time>2026-05-01T13:22:05Z</time></trkpt><trkpt lat="44.238943993730985" lon="8.171879463248782"><ele>848.5</ele><time>2026-05-01T13:22:06Z</time></trkpt><trkpt lat="44.23902155904721" lon="8.171669811400024"><ele>848.0</ele><time>2026-05-01T13:22:07Z</time></trkpt><trkpt lat="44.239098227878316" lon="8.171481025311449"><ele>847.5</ele><time>2026-05-01T13:22:08Z</time></trkpt><trkpt lat="44.23917006218418" lon="8.171389305416644"><ele>847.0</ele><time>2026-05-01T13:22:09Z</time></trkpt><trkpt lat="44.23925626645839" lon="8.171365370027184"><ele>847.0</ele><time>2026-05-01T13:22:10Z</time></trkpt><trkpt lat="44.239351359523" lon="8.171404393526526"><ele>847.0</ele><time>2026-05-01T13:22:11Z</time></trkpt><trkpt lat="44.23946357541444" lon="8.171514804174574"><ele>847.0</ele><time>2026-05-01T13:22:12Z</time></trkpt><trkpt lat="44.23959239273121" lon="8.171650038138125"><ele>847.0</ele><time>2026-05-01T13:22:13Z</time></trkpt><trkpt lat="44.23972901435869" lon="8.171799827027947"><ele>845.3333333333333</ele><time>2026-05-01T13:22:14Z</time></trkpt><trkpt lat="44.23987762206402" lon="8.1719248052635"><ele>843.6666666666667</ele><time>2026-05-01T13:22:15Z</time></trkpt><trkpt lat="44.24001394676688" lon="8.172042919227472"><ele>842.0</ele><time>2026-05-01T13:22:16Z</time></trkpt><trkpt lat="44.24016242984962" lon="8.172121899515934"><ele>842.0</ele><time>2026-05-01T13:22:17Z</time></trkpt><trkpt lat="44.240306277037504" lon="8.172164364446571"><ele>842.0</ele><time>2026-05-01T13:22:18Z</time></trkpt><trkpt lat="44.240443898321075" lon="8.172211155667101"><ele>842.0</ele><time>2026-05-01T13:22:19Z</time></trkpt><trkpt lat="44.240587867187614" lon="8.1721892838828"><ele>842.0</ele><time>2026-05-01T13:22:20Z</time></trkpt><trkpt lat="44.24069033963494" lon="8.172193342358593"><ele>842.0</ele><time>2026-05-01T13:22:21Z</time></trkpt><trkpt lat="44.24075675836637" lon="8.172122029098304"><ele>842.0</ele><time>2026-05-01T13:22:22Z</time></trkpt><trkpt lat="44.24076872003477" lon="8.172004677569117"><ele>842.0</ele><time>2026-05-01T13:22:23Z</time></trkpt><trkpt lat="44.24072713403742" lon="8.1718685434729"><ele>842.0</ele><time>2026-05-01T13:22:24Z</time></trkpt><trkpt lat="44.24061610036668" lon="8.171743852405712"><ele>842.0</ele><time>2026-05-01T13:22:25Z</time></trkpt><trkpt lat="44.24047082669477" lon="8.17161161869564"><ele>841.6666666666667</ele><time>2026-05-01T13:22:26Z</time></trkpt><trkpt lat="44.240330080180485" lon="8.171458349328116"><ele>841.3333333333333</ele><time>2026-05-01T13:22:27Z</time></trkpt><trkpt lat="44.24021021619863" lon="8.171314781681811"><ele>841.0</ele><time>2026-05-01T13:22:28Z</time></trkpt><trkpt lat="44.24011588803612" lon="8.171158122556804"><ele>841.0</ele><time>2026-05-01T13:22:29Z</time></trkpt><trkpt lat="44.2400431604087" lon="8.170956691725362"><ele>841.0</ele><time>2026-05-01T13:22:30Z</time></trkpt><trkpt lat="44.239998438572584" lon="8.170711359802926"><ele>841.0</ele><time>2026-05-01T13:22:31Z</time></trkpt><trkpt lat="44.239934542712824" lon="8.170464535642953"><ele>843.6666666666666</ele><time>2026-05-01T13:22:32Z</time></trkpt><trkpt lat="44.23983220340557" lon="8.17024261947959"><ele>846.3333333333333</ele><time>2026-05-01T13:22:33Z</time></trkpt><trkpt lat="44.2396966813072" lon="8.17003230603298"><ele>849.0</ele><time>2026-05-01T13:22:34Z</time></trkpt><trkpt lat="44.239548685781195" lon="8.169826571867807"><ele>840.3333333333333</ele><time>2026-05-01T13:22:35Z</time></trkpt><trkpt lat="44.2393722651347" lon="8.169628272585276"><ele>831.6666666666666</ele><time>2026-05-01T13:22:36Z</time></trkpt><trkpt lat="44.23918964047511" lon="8.169454289969009"><ele>823.0</ele><time>2026-05-01T13:22:37Z</time></trkpt><trkpt lat="44.23901947444606" lon="8.169298858076404"><ele>817.75</ele><time>2026-05-01T13:22:38Z</time></trkpt><trkpt lat="44.23886237086134" lon="8.169158580582838"><ele>812.5</ele><time>2026-05-01T13:22:39Z</time></trkpt><trkpt lat="44.238754681582364" lon="8.169046472698298"><ele>807.25</ele><time>2026-05-01T13:22:40Z</time></trkpt><trkpt lat="44.23868604809511" lon="8.168953657558564"><ele>802.0</ele><time>2026-05-01T13:22:41Z</time></trkpt><trkpt lat="44.23865129672022" lon="8.168868591757974"><ele>801.6</ele><time>2026-05-01T13:22:42Z</time></trkpt><trkpt lat="44.23865892876985" lon="8.168775610343676"><ele>801.2</ele><time>2026-05-01T13:22:43Z</time></trkpt><trkpt lat="44.238720259397105" lon="8.168691035930784"><ele>800.8</ele><time>2026-05-01T13:22:44Z</time></trkpt><trkpt lat="44.238847688992706" lon="8.16860512561576"><ele>800.4</ele><time>2026-05-01T13:22:45Z</time></trkpt><trkpt lat="44.23898639175214" lon="8.16852980383803"><ele>800.0</ele><time>2026-05-01T13:22:46Z</time></trkpt><trkpt lat="44.23913451763341" lon="8.168409805441566"><ele>804.25</ele><time>2026-05-01T13:22:47Z</time></trkpt><trkpt lat="44.23926101418268" lon="8.168272963309668"><ele>808.5</ele><time>2026-05-01T13:22:48Z</time></trkpt><trkpt lat="44.239358720858185" lon="8.16813751611024"><ele>812.75</ele><time>2026-05-01T13:22:49Z</time></trkpt><trkpt lat="44.23939608128876" lon="8.168007094173129"><ele>817.0</ele><time>2026-05-01T13:22:50Z</time></trkpt><trkpt lat="44.23937223213594" lon="8.1678949610472"><ele>818.2</ele><time>2026-05-01T13:22:51Z</time></trkpt><trkpt lat="44.239315919600024" lon="8.167809871875154"><ele>819.4000000000001</ele><time>2026-05-01T13:22:52Z</time></trkpt><trkpt lat="44.239226196724665" lon="8.167760348464205"><ele>820.5999999999999</ele><time>2026-05-01T13:22:53Z</time></trkpt><trkpt lat="44.23914984738114" lon="8.167781052183587"><ele>821.8</ele><time>2026-05-01T13:22:54Z</time></trkpt><trkpt lat="44.23904590904141" lon="8.167837727030918"><ele>823.0</ele><time>2026-05-01T13:22:55Z</time></trkpt><trkpt lat="44.238877709724306" lon="8.16796287000245"><ele>817.0</ele><time>2026-05-01T13:22:56Z</time></trkpt><trkpt lat="44.23870717660776" lon="8.16805645798441"><ele>811.0</ele><time>2026-05-01T13:22:57Z</time></trkpt><trkpt lat="44.238559291642474" lon="8.168071916948078"><ele>805.0</ele><time>2026-05-01T13:22:58Z</time></trkpt><trkpt lat="44.23842086205453" lon="8.16801500293887"><ele>805.0</ele><time>2026-05-01T13:22:59Z</time></trkpt><trkpt lat="44.23827796637576" lon="8.167921560085269"><ele>805.0</ele><time>2026-05-01T13:23:00Z</time></trkpt><trkpt lat="44.238159665397255" lon="8.167877581343518"><ele>805.0</ele><time>2026-05-01T13:23:01Z</time></trkpt><trkpt lat="44.23809389107559" lon="8.167834162914865"><ele>805.0</ele><time>2026-05-01T13:23:02Z</time></trkpt><trkpt lat="44.23804552910664" lon="8.16776630026675"><ele>805.0</ele><time>2026-05-01T13:23:03Z</time></trkpt><trkpt lat="44.23800476419349" lon="8.167674456859867"><ele>801.8</ele><time>2026-05-01T13:23:04Z</time></trkpt><trkpt lat="44.23797504461198" lon="8.167578844169542"><ele>798.6</ele><time>2026-05-01T13:23:05Z</time></trkpt><trkpt lat="44.23793890739087" lon="8.16748083777738"><ele>795.4000000000001</ele><time>2026-05-01T13:23:06Z</time></trkpt><trkpt lat="44.23789191188982" lon="8.167366521911188"><ele>792.2</ele><time>2026-05-01T13:23:07Z</time></trkpt><trkpt lat="44.23778785884283" lon="8.167220636502625"><ele>789.0</ele><time>2026-05-01T13:23:08Z</time></trkpt><trkpt lat="44.23768268518802" lon="8.167044132647495"><ele>789.0</ele><time>2026-05-01T13:23:09Z</time></trkpt><trkpt lat="44.237597583139035" lon="8.1668295204197"><ele>789.0</ele><time>2026-05-01T13:23:10Z</time></trkpt><trkpt lat="44.237534257538556" lon="8.166598150202987"><ele>789.0</ele><time>2026-05-01T13:23:11Z</time></trkpt><trkpt lat="44.237460294036104" lon="8.166379584324702"><ele>789.3333333333333</ele><time>2026-05-01T13:23:12Z</time></trkpt><trkpt lat="44.23734608105456" lon="8.166210392162112"><ele>789.6666666666666</ele><time>2026-05-01T13:23:13Z</time></trkpt><trkpt lat="44.23718064572425" lon="8.166108307039138"><ele>790.0</ele><time>2026-05-01T13:23:14Z</time></trkpt><trkpt lat="44.23701225564575" lon="8.166017226856303"><ele>790.0</ele><time>2026-05-01T13:23:15Z</time></trkpt><trkpt lat="44.23683778543487" lon="8.165927472915596"><ele>790.0</ele><time>2026-05-01T13:23:16Z</time></trkpt><trkpt lat="44.23667849933371" lon="8.165849703309602"><ele>790.0</ele><time>2026-05-01T13:23:17Z</time></trkpt><trkpt lat="44.23651382289827" lon="8.16581446027644"><ele>785.3333333333333</ele><time>2026-05-01T13:23:18Z</time></trkpt><trkpt lat="44.236341739529486" lon="8.16582807827718"><ele>780.6666666666667</ele><time>2026-05-01T13:23:19Z</time></trkpt><trkpt lat="44.2361823146741" lon="8.165806559219552"><ele>776.0</ele><time>2026-05-01T13:23:20Z</time></trkpt><trkpt lat="44.236055771635996" lon="8.165738741873582"><ele>779.0</ele><time>2026-05-01T13:23:21Z</time></trkpt><trkpt lat="44.2359126457675" lon="8.165666484320425"><ele>782.0</ele><time>2026-05-01T13:23:22Z</time></trkpt><trkpt lat="44.23580914130954" lon="8.16555159235852"><ele>785.0</ele><time>2026-05-01T13:23:23Z</time></trkpt><trkpt lat="44.235730770603205" lon="8.165406499493237"><ele>788.0</ele><time>2026-05-01T13:23:24Z</time></trkpt><trkpt lat="44.235655962394105" lon="8.165234806664886"><ele>781.6666666666667</ele><time>2026-05-01T13:23:25Z</time></trkpt><trkpt lat="44.23558447314023" lon="8.165055159859651"><ele>775.3333333333333</ele><time>2026-05-01T13:23:26Z</time></trkpt><trkpt lat="44.235479006057886" lon="8.164858867305906"><ele>769.0</ele><time>2026-05-01T13:23:27Z</time></trkpt><trkpt lat="44.235298257055824" lon="8.164728547246305"><ele>768.25</ele><time>2026-05-01T13:23:28Z</time></trkpt><trkpt lat="44.23512955690589" lon="8.164611448867864"><ele>767.5</ele><time>2026-05-01T13:23:29Z</time></trkpt><trkpt lat="44.23502033468046" lon="8.1644981163126"><ele>766.75</ele><time>2026-05-01T13:23:30Z</time></trkpt><trkpt lat="44.234953106949845" lon="8.164407020480978"><ele>766.0</ele><time>2026-05-01T13:23:31Z</time></trkpt><trkpt lat="44.23491854978327" lon="8.16428201581015"><ele>766.0</ele><time>2026-05-01T13:23:32Z</time></trkpt><trkpt lat="44.234917299435956" lon="8.164155199192594"><ele>766.0</ele><time>2026-05-01T13:23:33Z</time></trkpt><trkpt lat="44.234983324247445" lon="8.163978901952703"><ele>766.0</ele><time>2026-05-01T13:23:34Z</time></trkpt><trkpt lat="44.2350870978845" lon="8.16377143122869"><ele>766.0</ele><time>2026-05-01T13:23:35Z</time></trkpt><trkpt lat="44.235201425055386" lon="8.16355205714139"><ele>766.6666666666667</ele><time>2026-05-01T13:23:36Z</time></trkpt><trkpt lat="44.235284943341256" lon="8.163313137519639"><ele>767.3333333333334</ele><time>2026-05-01T13:23:37Z</time></trkpt><trkpt lat="44.23527807077934" lon="8.16309261245982"><ele>768.0</ele><time>2026-05-01T13:23:38Z</time></trkpt><trkpt lat="44.23521669047604" lon="8.162919150614243"><ele>768.0</ele><time>2026-05-01T13:23:39Z</time></trkpt><trkpt lat="44.235108360668654" lon="8.16279362234832"><ele>768.0</ele><time>2026-05-01T13:23:40Z</time></trkpt><trkpt lat="44.23492717407831" lon="8.162684591086343"><ele>768.0</ele><time>2026-05-01T13:23:41Z</time></trkpt><trkpt lat="44.234750298848915" lon="8.162584560489567"><ele>768.3333333333333</ele><time>2026-05-01T13:23:42Z</time></trkpt><trkpt lat="44.234620599310446" lon="8.162477055821297"><ele>768.6666666666666</ele><time>2026-05-01T13:23:43Z</time></trkpt><trkpt lat="44.234553787911885" lon="8.162305689668074"><ele>769.0</ele><time>2026-05-01T13:23:44Z</time></trkpt><trkpt lat="44.23455170549765" lon="8.162075382595091"><ele>769.6666666666666</ele><time>2026-05-01T13:23:45Z</time></trkpt><trkpt lat="44.234587782800794" lon="8.161818337043337"><ele>770.3333333333333</ele><time>2026-05-01T13:23:46Z</time></trkpt><trkpt lat="44.23464596608211" lon="8.161538713042649"><ele>771.0</ele><time>2026-05-01T13:23:47Z</time></trkpt><trkpt lat="44.23467250743723" lon="8.161232051905296"><ele>765.0</ele><time>2026-05-01T13:23:48Z</time></trkpt><trkpt lat="44.23466250164355" lon="8.160913218616015"><ele>759.0</ele><time>2026-05-01T13:23:49Z</time></trkpt><trkpt lat="44.234643237846164" lon="8.16061307508019"><ele>753.0</ele><time>2026-05-01T13:23:50Z</time></trkpt><trkpt lat="44.23458738926952" lon="8.160306978085488"><ele>752.0</ele><time>2026-05-01T13:23:51Z</time></trkpt><trkpt lat="44.23449778034007" lon="8.16006445218814"><ele>751.0</ele><time>2026-05-01T13:23:52Z</time></trkpt><trkpt lat="44.234375180080896" lon="8.159837650911854"><ele>750.0</ele><time>2026-05-01T13:23:53Z</time></trkpt><trkpt lat="44.23424483172223" lon="8.159631751788213"><ele>750.0</ele><time>2026-05-01T13:23:54Z</time></trkpt><trkpt lat="44.23415787660757" lon="8.159419123021731"><ele>750.0</ele><time>2026-05-01T13:23:55Z</time></trkpt><trkpt lat="44.23409190176965" lon="8.159174134770327"><ele>750.0</ele><time>2026-05-01T13:23:56Z</time></trkpt><trkpt lat="44.234049198608375" lon="8.158920951891998"><ele>749.3333333333334</ele><time>2026-05-01T13:23:57Z</time></trkpt><trkpt lat="44.23402783055551" lon="8.158701278678212"><ele>748.6666666666667</ele><time>2026-05-01T13:23:58Z</time></trkpt><trkpt lat="44.2340492961024" lon="8.158486434760434"><ele>748.0</ele><time>2026-05-01T13:23:59Z</time></trkpt><trkpt lat="44.23408513811914" lon="8.158242309594565"><ele>745.6666666666667</ele><time>2026-05-01T13:24:00Z</time></trkpt><trkpt lat="44.23409494271273" lon="8.15796186618961"><ele>743.3333333333334</ele><time>2026-05-01T13:24:01Z</time></trkpt><trkpt lat="44.23407730743919" lon="8.15767685452709"><ele>741.0</ele><time>2026-05-01T13:24:02Z</time></trkpt><trkpt lat="44.234078814304745" lon="8.157410757990478"><ele>736.6666666666666</ele><time>2026-05-01T13:24:03Z</time></trkpt><trkpt lat="44.23411846938836" lon="8.157145360252834"><ele>732.3333333333333</ele><time>2026-05-01T13:24:04Z</time></trkpt><trkpt lat="44.234190465602936" lon="8.156855296962174"><ele>728.0</ele><time>2026-05-01T13:24:05Z</time></trkpt><trkpt lat="44.23427065884575" lon="8.156543955472072"><ele>725.5</ele><time>2026-05-01T13:24:06Z</time></trkpt><trkpt lat="44.23434948831784" lon="8.15621333627149"><ele>723.0</ele><time>2026-05-01T13:24:07Z</time></trkpt><trkpt lat="44.23442807941119" lon="8.155876042443797"><ele>721.0</ele><time>2026-05-01T13:24:08Z</time></trkpt><trkpt lat="44.23448685535263" lon="8.155526286446747"><ele>719.0</ele><time>2026-05-01T13:24:09Z</time></trkpt><trkpt lat="44.2345071523727" lon="8.155157625850123"><ele>718.3333333333333</ele><time>2026-05-01T13:24:10Z</time></trkpt><trkpt lat="44.234527021353706" lon="8.154760046156"><ele>717.6666666666666</ele><time>2026-05-01T13:24:11Z</time></trkpt><trkpt lat="44.23443655494305" lon="8.154598968730733"><ele>717.0</ele><time>2026-05-01T13:24:12Z</time></trkpt><trkpt lat="44.2343465847704" lon="8.154313727006185"><ele>716.3333333333334</ele><time>2026-05-01T13:24:13Z</time></trkpt><trkpt lat="44.23422672328661" lon="8.154030005672771"><ele>715.6666666666667</ele><time>2026-05-01T13:24:14Z</time></trkpt><trkpt lat="44.23412175677961" lon="8.15377495850252"><ele>715.0</ele><time>2026-05-01T13:24:15Z</time></trkpt><trkpt lat="44.234046368393315" lon="8.1535507527979"><ele>715.0</ele><time>2026-05-01T13:24:16Z</time></trkpt><trkpt lat="44.23400902564486" lon="8.153344780385233"><ele>715.0</ele><time>2026-05-01T13:24:17Z</time></trkpt><trkpt lat="44.23400743027385" lon="8.153140058289296"><ele>715.0</ele><time>2026-05-01T13:24:18Z</time></trkpt><trkpt lat="44.234023441926354" lon="8.152888559881069"><ele>714.6666666666667</ele><time>2026-05-01T13:24:19Z</time></trkpt><trkpt lat="44.23402410971581" lon="8.152608763732138"><ele>714.3333333333334</ele><time>2026-05-01T13:24:20Z</time></trkpt><trkpt lat="44.23397757275956" lon="8.152308116198668"><ele>714.0</ele><time>2026-05-01T13:24:21Z</time></trkpt><trkpt lat="44.23388823613544" lon="8.151993750345445"><ele>714.0</ele><time>2026-05-01T13:24:22Z</time></trkpt><trkpt lat="44.23379025061152" lon="8.151672827845122"><ele>714.0</ele><time>2026-05-01T13:24:23Z</time></trkpt><trkpt lat="44.23369799720133" lon="8.151361232293832"><ele>714.0</ele><time>2026-05-01T13:24:24Z</time></trkpt><trkpt lat="44.23362061168533" lon="8.15107912090994"><ele>714.0</ele><time>2026-05-01T13:24:25Z</time></trkpt><trkpt lat="44.23355256710754" lon="8.150832108982222"><ele>714.0</ele><time>2026-05-01T13:24:26Z</time></trkpt><trkpt lat="44.23347823209307" lon="8.150622229475836"><ele>718.0</ele><time>2026-05-01T13:24:27Z</time></trkpt><trkpt lat="44.23338988441732" lon="8.15044878797335"><ele>722.0</ele><time>2026-05-01T13:24:28Z</time></trkpt><trkpt lat="44.23327374925485" lon="8.150277835620056"><ele>726.0</ele><time>2026-05-01T13:24:29Z</time></trkpt><trkpt lat="44.23315383580957" lon="8.150087775572489"><ele>723.0</ele><time>2026-05-01T13:24:30Z</time></trkpt><trkpt lat="44.233056585799616" lon="8.149927060567036"><ele>720.0</ele><time>2026-05-01T13:24:31Z</time></trkpt><trkpt lat="44.23298514111055" lon="8.149807298266085"><ele>717.0</ele><time>2026-05-01T13:24:32Z</time></trkpt><trkpt lat="44.23292807268531" lon="8.149708394916818"><ele>714.0</ele><time>2026-05-01T13:24:33Z</time></trkpt><trkpt lat="44.23288757059957" lon="8.149622472498939"><ele>711.0</ele><time>2026-05-01T13:24:34Z</time></trkpt><trkpt lat="44.23284553053151" lon="8.149500040142396"><ele>710.0</ele><time>2026-05-01T13:24:35Z</time></trkpt><trkpt lat="44.23281207352736" lon="8.149351907913314"><ele>709.0</ele><time>2026-05-01T13:24:36Z</time></trkpt><trkpt lat="44.23279808740553" lon="8.14918747522042"><ele>708.0</ele><time>2026-05-01T13:24:37Z</time></trkpt><trkpt lat="44.232805607437825" lon="8.149001639570137"><ele>707.0</ele><time>2026-05-01T13:24:38Z</time></trkpt><trkpt lat="44.23282484277668" lon="8.148789601716791"><ele>706.0</ele><time>2026-05-01T13:24:39Z</time></trkpt><trkpt lat="44.23284641008615" lon="8.148549731355358"><ele>705.0</ele><time>2026-05-01T13:24:40Z</time></trkpt><trkpt lat="44.232873975175934" lon="8.148308741094795"><ele>704.0</ele><time>2026-05-01T13:24:41Z</time></trkpt><trkpt lat="44.23290210430762" lon="8.14810464322583"><ele>703.6</ele><time>2026-05-01T13:24:42Z</time></trkpt><trkpt lat="44.23292586914311" lon="8.14793196469788"><ele>703.2</ele><time>2026-05-01T13:24:43Z</time></trkpt><trkpt lat="44.23293834580075" lon="8.147793793487693"><ele>702.8000000000001</ele><time>2026-05-01T13:24:44Z</time></trkpt><trkpt lat="44.23294736277434" lon="8.14768881327096"><ele>702.4000000000001</ele><time>2026-05-01T13:24:45Z</time></trkpt><trkpt lat="44.23295862077401" lon="8.1475837587169"><ele>702.0</ele><time>2026-05-01T13:24:46Z</time></trkpt><trkpt lat="44.2329770775381" lon="8.147462065253146"><ele>701.6</ele><time>2026-05-01T13:24:47Z</time></trkpt><trkpt lat="44.233001850768055" lon="8.147335854362707"><ele>701.2</ele><time>2026-05-01T13:24:48Z</time></trkpt><trkpt lat="44.23304003779945" lon="8.147198841412438"><ele>700.8</ele><time>2026-05-01T13:24:49Z</time></trkpt><trkpt lat="44.23308569111474" lon="8.147063695377096"><ele>700.4</ele><time>2026-05-01T13:24:50Z</time></trkpt><trkpt lat="44.23313268002438" lon="8.146929980960262"><ele>700.0</ele><time>2026-05-01T13:24:51Z</time></trkpt><trkpt lat="44.233183636578744" lon="8.14678933027583"><ele>701.2</ele><time>2026-05-01T13:24:52Z</time></trkpt><trkpt lat="44.233244701570676" lon="8.146646565462985"><ele>702.4</ele><time>2026-05-01T13:24:53Z</time></trkpt><trkpt lat="44.23329156912143" lon="8.14650571013719"><ele>703.5999999999999</ele><time>2026-05-01T13:24:54Z</time></trkpt><trkpt lat="44.23334607944107" lon="8.146363680383955"><ele>704.8</ele><time>2026-05-01T13:24:55Z</time></trkpt><trkpt lat="44.23339533059354" lon="8.146252051911713"><ele>706.0</ele><time>2026-05-01T13:24:56Z</time></trkpt><trkpt lat="44.23345201922753" lon="8.146119368175412"><ele>706.0</ele><time>2026-05-01T13:24:57Z</time></trkpt><trkpt lat="44.23348953276574" lon="8.146004550545829"><ele>706.0</ele><time>2026-05-01T13:24:58Z</time></trkpt><trkpt lat="44.233532121796266" lon="8.145881247155268"><ele>706.0</ele><time>2026-05-01T13:24:59Z</time></trkpt><trkpt lat="44.23356035500489" lon="8.145742255252546"><ele>706.0</ele><time>2026-05-01T13:25:00Z</time></trkpt><trkpt lat="44.23356386045892" lon="8.145570474226668"><ele>706.0</ele><time>2026-05-01T13:25:01Z</time></trkpt><trkpt lat="44.233542652646584" lon="8.145350122801508"><ele>705.0</ele><time>2026-05-01T13:25:02Z</time></trkpt><trkpt lat="44.23352921520377" lon="8.145066115056348"><ele>704.0</ele><time>2026-05-01T13:25:03Z</time></trkpt><trkpt lat="44.23352208026676" lon="8.144788518546283"><ele>703.0</ele><time>2026-05-01T13:25:04Z</time></trkpt><trkpt lat="44.23351482160975" lon="8.144502913074005"><ele>701.6666666666667</ele><time>2026-05-01T13:25:05Z</time></trkpt><trkpt lat="44.23352248862602" lon="8.144210608631724"><ele>700.3333333333334</ele><time>2026-05-01T13:25:06Z</time></trkpt><trkpt lat="44.233527290025705" lon="8.143915535647915"><ele>699.0</ele><time>2026-05-01T13:25:07Z</time></trkpt><trkpt lat="44.2335223483072" lon="8.14360756003404"><ele>698.3333333333334</ele><time>2026-05-01T13:25:08Z</time></trkpt><trkpt lat="44.233515189337965" lon="8.14329409696234"><ele>697.6666666666667</ele><time>2026-05-01T13:25:09Z</time></trkpt><trkpt lat="44.23350647529371" lon="8.14298923003125"><ele>697.0</ele><time>2026-05-01T13:25:10Z</time></trkpt><trkpt lat="44.2334950106031" lon="8.142693546573085"><ele>696.0</ele><time>2026-05-01T13:25:11Z</time></trkpt><trkpt lat="44.23349792743793" lon="8.142418031082569"><ele>695.0</ele><time>2026-05-01T13:25:12Z</time></trkpt><trkpt lat="44.23351133497537" lon="8.142160459689663"><ele>694.0</ele><time>2026-05-01T13:25:13Z</time></trkpt><trkpt lat="44.23355513031969" lon="8.141888051189461"><ele>692.5</ele><time>2026-05-01T13:25:14Z</time></trkpt><trkpt lat="44.23361327106966" lon="8.141588374191398"><ele>691.0</ele><time>2026-05-01T13:25:15Z</time></trkpt><trkpt lat="44.23366903071618" lon="8.141272195429055"><ele>689.0</ele><time>2026-05-01T13:25:16Z</time></trkpt><trkpt lat="44.23372276603185" lon="8.140948149856335"><ele>687.0</ele><time>2026-05-01T13:25:17Z</time></trkpt><trkpt lat="44.23376491178268" lon="8.140599600920895"><ele>686.5</ele><time>2026-05-01T13:25:18Z</time></trkpt><trkpt lat="44.233798408524926" lon="8.140268339371426"><ele>686.0</ele><time>2026-05-01T13:25:19Z</time></trkpt><trkpt lat="44.23382035353007" lon="8.13989376642358"><ele>686.0</ele><time>2026-05-01T13:25:20Z</time></trkpt><trkpt lat="44.233854556485284" lon="8.13946202628017"><ele>686.0</ele><time>2026-05-01T13:25:21Z</time></trkpt><trkpt lat="44.23386483720772" lon="8.139239378248444"><ele>685.5</ele><time>2026-05-01T13:25:22Z</time></trkpt><trkpt lat="44.23387880345355" lon="8.138892866549497"><ele>685.0</ele><time>2026-05-01T13:25:23Z</time></trkpt><trkpt lat="44.233892384990575" lon="8.138554296513727"><ele>684.0</ele><time>2026-05-01T13:25:24Z</time></trkpt><trkpt lat="44.23390872900323" lon="8.138217055940459"><ele>683.0</ele><time>2026-05-01T13:25:25Z</time></trkpt><trkpt lat="44.23392923804544" lon="8.13788437769281"><ele>683.0</ele><time>2026-05-01T13:25:26Z</time></trkpt><trkpt lat="44.23394729749121" lon="8.137556654394793"><ele>683.0</ele><time>2026-05-01T13:25:27Z</time></trkpt><trkpt lat="44.23396527268942" lon="8.137234279401753"><ele>682.0</ele><time>2026-05-01T13:25:28Z</time></trkpt><trkpt lat="44.23398428311474" lon="8.136920592338504"><ele>681.0</ele><time>2026-05-01T13:25:29Z</time></trkpt><trkpt lat="44.234003075069666" lon="8.136613897909792"><ele>680.0</ele><time>2026-05-01T13:25:30Z</time></trkpt><trkpt lat="44.234021524096306" lon="8.136308541951369"><ele>679.6666666666666</ele><time>2026-05-01T13:25:31Z</time></trkpt><trkpt lat="44.23403611676502" lon="8.136005017229962"><ele>679.3333333333334</ele><time>2026-05-01T13:25:32Z</time></trkpt><trkpt lat="44.234059880999055" lon="8.135689582205453"><ele>679.0</ele><time>2026-05-01T13:25:33Z</time></trkpt><trkpt lat="44.23409178947638" lon="8.135403061600798"><ele>679.0</ele><time>2026-05-01T13:25:34Z</time></trkpt><trkpt lat="44.234113051750406" lon="8.135202563310703"><ele>679.0</ele><time>2026-05-01T13:25:35Z</time></trkpt><trkpt lat="44.23412730165289" lon="8.13501413061584"><ele>679.0</ele><time>2026-05-01T13:25:36Z</time></trkpt><trkpt lat="44.234142195591616" lon="8.134835607294566"><ele>679.0</ele><time>2026-05-01T13:25:37Z</time></trkpt><trkpt lat="44.23415267023695" lon="8.134685424726593"><ele>678.6</ele><time>2026-05-01T13:25:38Z</time></trkpt><trkpt lat="44.23415623736044" lon="8.134544399866282"><ele>678.2</ele><time>2026-05-01T13:25:39Z</time></trkpt><trkpt lat="44.23415787174507" lon="8.13439765993052"><ele>677.8000000000001</ele><time>2026-05-01T13:25:40Z</time></trkpt><trkpt lat="44.23416503788921" lon="8.13424115549798"><ele>677.4000000000001</ele><time>2026-05-01T13:25:41Z</time></trkpt><trkpt lat="44.234190298240456" lon="8.134080253749834"><ele>677.0</ele><time>2026-05-01T13:25:42Z</time></trkpt><trkpt lat="44.23423360481665" lon="8.133909296435615"><ele>677.0</ele><time>2026-05-01T13:25:43Z</time></trkpt><trkpt lat="44.23428402881146" lon="8.133714959117471"><ele>677.0</ele><time>2026-05-01T13:25:44Z</time></trkpt><trkpt lat="44.234334001614386" lon="8.133501245079605"><ele>677.0</ele><time>2026-05-01T13:25:45Z</time></trkpt><trkpt lat="44.2343755786761" lon="8.133272923691472"><ele>676.6666666666666</ele><time>2026-05-01T13:25:46Z</time></trkpt><trkpt lat="44.234415114250794" lon="8.133031827820057"><ele>676.3333333333334</ele><time>2026-05-01T13:25:47Z</time></trkpt><trkpt lat="44.2344471381639" lon="8.13277109957636"><ele>676.0</ele><time>2026-05-01T13:25:48Z</time></trkpt><trkpt lat="44.234476829434904" lon="8.132542127813842"><ele>676.0</ele><time>2026-05-01T13:25:49Z</time></trkpt><trkpt lat="44.23451140549188" lon="8.132338375622925"><ele>676.0</ele><time>2026-05-01T13:25:50Z</time></trkpt><trkpt lat="44.234559049705126" lon="8.132136111277996"><ele>676.0</ele><time>2026-05-01T13:25:51Z</time></trkpt><trkpt lat="44.23461337322852" lon="8.131939460555895"><ele>676.0</ele><time>2026-05-01T13:25:52Z</time></trkpt><trkpt lat="44.2346645536998" lon="8.1317581455806"><ele>676.0</ele><time>2026-05-01T13:25:53Z</time></trkpt><trkpt lat="44.23470509186381" lon="8.131606832933485"><ele>676.0</ele><time>2026-05-01T13:25:54Z</time></trkpt><trkpt lat="44.23474249103948" lon="8.131462236301154"><ele>676.0</ele><time>2026-05-01T13:25:55Z</time></trkpt><trkpt lat="44.23477265611541" lon="8.13132242822231"><ele>675.25</ele><time>2026-05-01T13:25:56Z</time></trkpt><trkpt lat="44.2348042066495" lon="8.131191255139273"><ele>674.5</ele><time>2026-05-01T13:25:57Z</time></trkpt><trkpt lat="44.234835980847144" lon="8.131051543141417"><ele>673.75</ele><time>2026-05-01T13:25:58Z</time></trkpt><trkpt lat="44.23488121662763" lon="8.130888555893439"><ele>673.0</ele><time>2026-05-01T13:25:59Z</time></trkpt><trkpt lat="44.23492814265132" lon="8.130713319337266"><ele>672.5</ele><time>2026-05-01T13:26:00Z</time></trkpt><trkpt lat="44.23498037387643" lon="8.130561498211318"><ele>672.0</ele><time>2026-05-01T13:26:01Z</time></trkpt><trkpt lat="44.23502116826462" lon="8.13041479638938"><ele>671.5</ele><time>2026-05-01T13:26:02Z</time></trkpt><trkpt lat="44.23505736849546" lon="8.130262120688977"><ele>671.0</ele><time>2026-05-01T13:26:03Z</time></trkpt><trkpt lat="44.2350865861614" lon="8.130087311196283"><ele>670.6666666666666</ele><time>2026-05-01T13:26:04Z</time></trkpt><trkpt lat="44.23508672076573" lon="8.129879190788735"><ele>670.3333333333334</ele><time>2026-05-01T13:26:05Z</time></trkpt><trkpt lat="44.23505386542127" lon="8.129650926734588"><ele>670.0</ele><time>2026-05-01T13:26:06Z</time></trkpt><trkpt lat="44.235013191237464" lon="8.129425855298239"><ele>670.0</ele><time>2026-05-01T13:26:07Z</time></trkpt><trkpt lat="44.23495664599672" lon="8.129191225340293"><ele>670.0</ele><time>2026-05-01T13:26:08Z</time></trkpt><trkpt lat="44.23492157636629" lon="8.128959987343547"><ele>670.0</ele><time>2026-05-01T13:26:09Z</time></trkpt><trkpt lat="44.23488989108827" lon="8.128711721432362"><ele>670.0</ele><time>2026-05-01T13:26:10Z</time></trkpt><trkpt lat="44.23485943602716" lon="8.128474142414076"><ele>670.0</ele><time>2026-05-01T13:26:11Z</time></trkpt><trkpt lat="44.23482683112718" lon="8.128246865497756"><ele>670.0</ele><time>2026-05-01T13:26:12Z</time></trkpt><trkpt lat="44.23479349105103" lon="8.12800400525151"><ele>670.3333333333334</ele><time>2026-05-01T13:26:13Z</time></trkpt><trkpt lat="44.23475611362259" lon="8.12774971192593"><ele>670.6666666666666</ele><time>2026-05-01T13:26:14Z</time></trkpt><trkpt lat="44.23471596051861" lon="8.127470493963427"><ele>671.0</ele><time>2026-05-01T13:26:15Z</time></trkpt><trkpt lat="44.23467765497522" lon="8.127183329054398"><ele>671.3333333333333</ele><time>2026-05-01T13:26:16Z</time></trkpt><trkpt lat="44.2346411135784" lon="8.126893888568397"><ele>671.6666666666666</ele><time>2026-05-01T13:26:17Z</time></trkpt><trkpt lat="44.234604121807436" lon="8.126605668489496"><ele>672.0</ele><time>2026-05-01T13:26:18Z</time></trkpt><trkpt lat="44.23455459799297" lon="8.126316152619827"><ele>673.3333333333334</ele><time>2026-05-01T13:26:19Z</time></trkpt><trkpt lat="44.2345121032167" lon="8.126063574521188"><ele>674.6666666666667</ele><time>2026-05-01T13:26:20Z</time></trkpt><trkpt lat="44.234493452023365" lon="8.125832770563832"><ele>676.0</ele><time>2026-05-01T13:26:21Z</time></trkpt><trkpt lat="44.23451747516472" lon="8.12560836955398"><ele>676.6666666666667</ele><time>2026-05-01T13:26:22Z</time></trkpt><trkpt lat="44.23458737902326" lon="8.125422231302672"><ele>677.3333333333334</ele><time>2026-05-01T13:26:23Z</time></trkpt><trkpt lat="44.234696010063416" lon="8.125261247842593"><ele>678.0</ele><time>2026-05-01T13:26:24Z</time></trkpt><trkpt lat="44.23484157399244" lon="8.125107168574408"><ele>676.3333333333334</ele><time>2026-05-01T13:26:25Z</time></trkpt><trkpt lat="44.234995955767424" lon="8.124953527626941"><ele>674.6666666666667</ele><time>2026-05-01T13:26:26Z</time></trkpt><trkpt lat="44.23514908276201" lon="8.124787643798658"><ele>673.0</ele><time>2026-05-01T13:26:27Z</time></trkpt><trkpt lat="44.23527538037452" lon="8.124621526706964"><ele>673.0</ele><time>2026-05-01T13:26:28Z</time></trkpt><trkpt lat="44.235377073249566" lon="8.124454758389199"><ele>673.0</ele><time>2026-05-01T13:26:29Z</time></trkpt><trkpt lat="44.23545434541456" lon="8.124249893924974"><ele>673.0</ele><time>2026-05-01T13:26:30Z</time></trkpt><trkpt lat="44.23551628438541" lon="8.124004617149806"><ele>674.3333333333334</ele><time>2026-05-01T13:26:31Z</time></trkpt><trkpt lat="44.2355621678843" lon="8.12373433261221"><ele>675.6666666666666</ele><time>2026-05-01T13:26:32Z</time></trkpt><trkpt lat="44.235613634023636" lon="8.123445025105601"><ele>677.0</ele><time>2026-05-01T13:26:33Z</time></trkpt><trkpt lat="44.23567257551995" lon="8.123154462923745"><ele>671.6666666666666</ele><time>2026-05-01T13:26:34Z</time></trkpt><trkpt lat="44.23572727436043" lon="8.122893325144657"><ele>666.3333333333334</ele><time>2026-05-01T13:26:35Z</time></trkpt><trkpt lat="44.23577431199795" lon="8.12265907551465"><ele>661.0</ele><time>2026-05-01T13:26:36Z</time></trkpt><trkpt lat="44.23582386252498" lon="8.122437708377312"><ele>661.3333333333334</ele><time>2026-05-01T13:26:37Z</time></trkpt><trkpt lat="44.23587531546941" lon="8.122213050332007"><ele>661.6666666666666</ele><time>2026-05-01T13:26:38Z</time></trkpt><trkpt lat="44.23593046745999" lon="8.121982189517048"><ele>662.0</ele><time>2026-05-01T13:26:39Z</time></trkpt><trkpt lat="44.235985999746156" lon="8.121746400418187"><ele>661.6666666666666</ele><time>2026-05-01T13:26:40Z</time></trkpt><trkpt lat="44.236039107193264" lon="8.121516641646652"><ele>661.3333333333334</ele><time>2026-05-01T13:26:41Z</time></trkpt><trkpt lat="44.236082901155655" lon="8.121290681358865"><ele>661.0</ele><time>2026-05-01T13:26:42Z</time></trkpt><trkpt lat="44.23610414467681" lon="8.121051215900552"><ele>661.0</ele><time>2026-05-01T13:26:43Z</time></trkpt><trkpt lat="44.236099230263775" lon="8.12078507226236"><ele>661.0</ele><time>2026-05-01T13:26:44Z</time></trkpt><trkpt lat="44.236096561366054" lon="8.120514390979263"><ele>661.0</ele><time>2026-05-01T13:26:45Z</time></trkpt><trkpt lat="44.236104299370396" lon="8.120242550912348"><ele>658.6666666666667</ele><time>2026-05-01T13:26:46Z</time></trkpt><trkpt lat="44.2361114483388" lon="8.119975353161031"><ele>656.3333333333334</ele><time>2026-05-01T13:26:47Z</time></trkpt><trkpt lat="44.236117433260866" lon="8.119730240365179"><ele>654.0</ele><time>2026-05-01T13:26:48Z</time></trkpt><trkpt lat="44.23612147619313" lon="8.119496312381951"><ele>653.0</ele><time>2026-05-01T13:26:49Z</time></trkpt><trkpt lat="44.23612695409034" lon="8.119270439506076"><ele>652.0</ele><time>2026-05-01T13:26:50Z</time></trkpt><trkpt lat="44.23613840274336" lon="8.119040065319176"><ele>651.0</ele><time>2026-05-01T13:26:51Z</time></trkpt><trkpt lat="44.2361480395332" lon="8.118808693302572"><ele>651.0</ele><time>2026-05-01T13:26:52Z</time></trkpt><trkpt lat="44.23615789466715" lon="8.118595173951313"><ele>651.0</ele><time>2026-05-01T13:26:53Z</time></trkpt><trkpt lat="44.23617389989557" lon="8.118400633390497"><ele>651.0</ele><time>2026-05-01T13:26:54Z</time></trkpt><trkpt lat="44.2362019005578" lon="8.118234638609847"><ele>651.0</ele><time>2026-05-01T13:26:55Z</time></trkpt><trkpt lat="44.236255530900166" lon="8.118088937806991"><ele>650.5999999999999</ele><time>2026-05-01T13:26:56Z</time></trkpt><trkpt lat="44.23631568359597" lon="8.11795432899654"><ele>650.2</ele><time>2026-05-01T13:26:57Z</time></trkpt><trkpt lat="44.23637083243111" lon="8.11782222723866"><ele>649.8</ele><time>2026-05-01T13:26:58Z</time></trkpt><trkpt lat="44.23642348917169" lon="8.117693936867767"><ele>649.4000000000001</ele><time>2026-05-01T13:26:59Z</time></trkpt><trkpt lat="44.2364695474792" lon="8.117559929088602"><ele>649.0</ele><time>2026-05-01T13:27:00Z</time></trkpt><trkpt lat="44.23651690176865" lon="8.117428047385058"><ele>648.4000000000001</ele><time>2026-05-01T13:27:01Z</time></trkpt><trkpt lat="44.23655840874602" lon="8.117305965839448"><ele>647.8</ele><time>2026-05-01T13:27:02Z</time></trkpt><trkpt lat="44.23660247366571" lon="8.11717223331412"><ele>647.2</ele><time>2026-05-01T13:27:03Z</time></trkpt><trkpt lat="44.23665065101182" lon="8.117045424268317"><ele>646.5999999999999</ele><time>2026-05-01T13:27:04Z</time></trkpt><trkpt lat="44.23669817698475" lon="8.116929126995531"><ele>646.0</ele><time>2026-05-01T13:27:05Z</time></trkpt><trkpt lat="44.236731308074475" lon="8.116825071089668"><ele>646.0</ele><time>2026-05-01T13:27:06Z</time></trkpt><trkpt lat="44.23675568799602" lon="8.116734164427374"><ele>646.0</ele><time>2026-05-01T13:27:07Z</time></trkpt><trkpt lat="44.23679316802399" lon="8.116638277160929"><ele>646.0</ele><time>2026-05-01T13:27:08Z</time></trkpt><trkpt lat="44.23683756233815" lon="8.116536662330935"><ele>646.0</ele><time>2026-05-01T13:27:09Z</time></trkpt><trkpt lat="44.236883810248486" lon="8.116418016847048"><ele>646.0</ele><time>2026-05-01T13:27:10Z</time></trkpt><trkpt lat="44.23693062195373" lon="8.116305534078109"><ele>646.0</ele><time>2026-05-01T13:27:11Z</time></trkpt><trkpt lat="44.236984267773344" lon="8.116199591529577"><ele>645.8333333333334</ele><time>2026-05-01T13:27:12Z</time></trkpt><trkpt lat="44.23702244921214" lon="8.116112358851312"><ele>645.6666666666667</ele><time>2026-05-01T13:27:13Z</time></trkpt><trkpt lat="44.23697033955805" lon="8.11595619985312"><ele>645.5</ele><time>2026-05-01T13:27:15Z</time></trkpt><trkpt lat="44.23689719227608" lon="8.115916982123823"><ele>645.3333333333334</ele><time>2026-05-01T13:27:16Z</time></trkpt><trkpt lat="44.23680654468267" lon="8.115899801755106"><ele>645.1666666666666</ele><time>2026-05-01T13:27:17Z</time></trkpt><trkpt lat="44.23674163419262" lon="8.115835937798208"><ele>645.0</ele><time>2026-05-01T13:27:18Z</time></trkpt><trkpt lat="44.236699763527604" lon="8.115722506650735"><ele>645.0</ele><time>2026-05-01T13:27:19Z</time></trkpt><trkpt lat="44.23668326529075" lon="8.11558038075733"><ele>645.0</ele><time>2026-05-01T13:27:20Z</time></trkpt><trkpt lat="44.23665668691106" lon="8.115436285733052"><ele>645.0</ele><time>2026-05-01T13:27:21Z</time></trkpt><trkpt lat="44.23662383799836" lon="8.115299081654717"><ele>645.0</ele><time>2026-05-01T13:27:22Z</time></trkpt><trkpt lat="44.23659382031102" lon="8.115177302587076"><ele>645.0</ele><time>2026-05-01T13:27:23Z</time></trkpt><trkpt lat="44.23656930135576" lon="8.115070156172536"><ele>645.0</ele><time>2026-05-01T13:27:24Z</time></trkpt><trkpt lat="44.236549602400565" lon="8.114968151544037"><ele>645.0</ele><time>2026-05-01T13:27:25Z</time></trkpt><trkpt lat="44.23653028127686" lon="8.114874926637938"><ele>645.0</ele><time>2026-05-01T13:27:26Z</time></trkpt><trkpt lat="44.23650862908737" lon="8.11479096801448"><ele>645.0</ele><time>2026-05-01T13:27:27Z</time></trkpt><trkpt lat="44.236488482529744" lon="8.114698986320551"><ele>645.0</ele><time>2026-05-01T13:27:28Z</time></trkpt><trkpt lat="44.236471222439235" lon="8.114587063097211"><ele>645.0</ele><time>2026-05-01T13:27:29Z</time></trkpt><trkpt lat="44.23645807899653" lon="8.114464402611699"><ele>645.0</ele><time>2026-05-01T13:27:30Z</time></trkpt><trkpt lat="44.23645277379524" lon="8.114358560974749"><ele>645.6666666666666</ele><time>2026-05-01T13:27:31Z</time></trkpt><trkpt lat="44.23646395549142" lon="8.114264773274"><ele>646.3333333333334</ele><time>2026-05-01T13:27:32Z</time></trkpt><trkpt lat="44.23650479813089" lon="8.1141784892046"><ele>647.0</ele><time>2026-05-01T13:27:33Z</time></trkpt><trkpt lat="44.23655944318441" lon="8.11408910910994"><ele>647.6666666666667</ele><time>2026-05-01T13:27:34Z</time></trkpt><trkpt lat="44.23662276724731" lon="8.114004599087416"><ele>648.3333333333334</ele><time>2026-05-01T13:27:35Z</time></trkpt><trkpt lat="44.23668469303931" lon="8.113906075662145"><ele>649.0</ele><time>2026-05-01T13:27:36Z</time></trkpt><trkpt lat="44.23674277474039" lon="8.113814151954333"><ele>651.0</ele><time>2026-05-01T13:27:37Z</time></trkpt><trkpt lat="44.23681186941906" lon="8.113722189820988"><ele>653.0</ele><time>2026-05-01T13:27:38Z</time></trkpt><trkpt lat="44.23687809591142" lon="8.113635225185478"><ele>655.0</ele><time>2026-05-01T13:27:39Z</time></trkpt><trkpt lat="44.23694360662989" lon="8.113550859957074"><ele>657.0</ele><time>2026-05-01T13:27:40Z</time></trkpt><trkpt lat="44.23700658496514" lon="8.113469915159124"><ele>659.0</ele><time>2026-05-01T13:27:41Z</time></trkpt><trkpt lat="44.23706972177522" lon="8.113389235174214"><ele>661.0</ele><time>2026-05-01T13:27:42Z</time></trkpt><trkpt lat="44.2371412544593" lon="8.11329940231632"><ele>660.8</ele><time>2026-05-01T13:27:43Z</time></trkpt><trkpt lat="44.2372138398255" lon="8.113215828602838"><ele>660.5999999999999</ele><time>2026-05-01T13:27:44Z</time></trkpt><trkpt lat="44.23728829878349" lon="8.113125560095991"><ele>660.4</ele><time>2026-05-01T13:27:45Z</time></trkpt><trkpt lat="44.237365129986955" lon="8.113038694903032"><ele>660.2</ele><time>2026-05-01T13:27:46Z</time></trkpt><trkpt lat="44.23745017990194" lon="8.112937968395796"><ele>660.0</ele><time>2026-05-01T13:27:47Z</time></trkpt><trkpt lat="44.237545210496755" lon="8.112819814923325"><ele>660.0</ele><time>2026-05-01T13:27:48Z</time></trkpt><trkpt lat="44.23765849629533" lon="8.11269077954441"><ele>660.0</ele><time>2026-05-01T13:27:49Z</time></trkpt><trkpt lat="44.2377691522747" lon="8.112562836754162"><ele>660.0</ele><time>2026-05-01T13:27:50Z</time></trkpt><trkpt lat="44.237861025804506" lon="8.112455583639095"><ele>660.0</ele><time>2026-05-01T13:27:51Z</time></trkpt><trkpt lat="44.23792956962227" lon="8.112319575039901"><ele>664.5</ele><time>2026-05-01T13:27:52Z</time></trkpt><trkpt lat="44.237979482974225" lon="8.112148041855693"><ele>669.0</ele><time>2026-05-01T13:27:53Z</time></trkpt><trkpt lat="44.23802779877191" lon="8.111969652175569"><ele>673.5</ele><time>2026-05-01T13:27:54Z</time></trkpt><trkpt lat="44.23807751346079" lon="8.11180997540631"><ele>678.0</ele><time>2026-05-01T13:27:55Z</time></trkpt><trkpt lat="44.238125954963394" lon="8.111676828901299"><ele>672.2</ele><time>2026-05-01T13:27:56Z</time></trkpt><trkpt lat="44.23818839024939" lon="8.111579776482852"><ele>666.4</ele><time>2026-05-01T13:27:57Z</time></trkpt><trkpt lat="44.2382746987686" lon="8.11153481002721"><ele>660.6</ele><time>2026-05-01T13:27:58Z</time></trkpt><trkpt lat="44.23834561433369" lon="8.111526339283836"><ele>654.8000000000001</ele><time>2026-05-01T13:27:59Z</time></trkpt><trkpt lat="44.23845292669235" lon="8.11157079166767"><ele>649.0</ele><time>2026-05-01T13:28:01Z</time></trkpt><trkpt lat="44.23854885606796" lon="8.11159939437704"><ele>649.0</ele><time>2026-05-01T13:28:02Z</time></trkpt><trkpt lat="44.23867354891695" lon="8.111627753729147"><ele>649.0</ele><time>2026-05-01T13:28:03Z</time></trkpt><trkpt lat="44.23876530333435" lon="8.111658036900758"><ele>649.0</ele><time>2026-05-01T13:28:04Z</time></trkpt><trkpt lat="44.23884333673751" lon="8.11170340276144"><ele>649.0</ele><time>2026-05-01T13:28:06Z</time></trkpt><trkpt lat="44.23889664280542" lon="8.111596574424814"><ele>649.0</ele><time>2026-05-01T13:28:10Z</time></trkpt><trkpt lat="44.23884634344439" lon="8.111456688829708"><ele>649.0</ele><time>2026-05-01T13:28:31Z</time></trkpt><trkpt lat="44.23883202265486" lon="8.111340164339493"><ele>649.0</ele><time>2026-05-01T13:28:32Z</time></trkpt><trkpt lat="44.238814258428796" lon="8.11120111663776"><ele>649.0</ele><time>2026-05-01T13:28:33Z</time></trkpt><trkpt lat="44.238786966280315" lon="8.11102539842183"><ele>649.0</ele><time>2026-05-01T13:28:34Z</time></trkpt><trkpt lat="44.238763025851995" lon="8.110855758156836"><ele>649.0</ele><time>2026-05-01T13:28:35Z</time></trkpt><trkpt lat="44.23873024055691" lon="8.110636587525846"><ele>649.5</ele><time>2026-05-01T13:28:36Z</time></trkpt><trkpt lat="44.23871220190101" lon="8.110399506932815"><ele>650.0</ele><time>2026-05-01T13:28:37Z</time></trkpt><trkpt lat="44.23871797790682" lon="8.110179222476669"><ele>650.5</ele><time>2026-05-01T13:28:38Z</time></trkpt><trkpt lat="44.23870031706917" lon="8.110019794544906"><ele>651.0</ele><time>2026-05-01T13:28:39Z</time></trkpt><trkpt lat="44.23872309855278" lon="8.109877229757021"><ele>651.75</ele><time>2026-05-01T13:28:40Z</time></trkpt><trkpt lat="44.238729647426986" lon="8.109732606048524"><ele>652.5</ele><time>2026-05-01T13:28:41Z</time></trkpt><trkpt lat="44.23872281969591" lon="8.109563831158733"><ele>653.25</ele><time>2026-05-01T13:28:42Z</time></trkpt><trkpt lat="44.23870150182212" lon="8.109387277821845"><ele>654.0</ele><time>2026-05-01T13:28:43Z</time></trkpt><trkpt lat="44.23869489187908" lon="8.109214864162547"><ele>654.0</ele><time>2026-05-01T13:28:44Z</time></trkpt><trkpt lat="44.23871962895514" lon="8.109084301144499"><ele>654.0</ele><time>2026-05-01T13:28:45Z</time></trkpt><trkpt lat="44.23875185521804" lon="8.108976691666568"><ele>654.0</ele><time>2026-05-01T13:28:46Z</time></trkpt><trkpt lat="44.238742771617666" lon="8.108887928565064"><ele>654.0</ele><time>2026-05-01T13:28:47Z</time></trkpt><trkpt lat="44.238783102624105" lon="8.108376539004139"><ele>655.0</ele><time>2026-05-01T13:28:48Z</time></trkpt><trkpt lat="44.23880292884168" lon="8.108162798419272"><ele>656.0</ele><time>2026-05-01T13:28:49Z</time></trkpt><trkpt lat="44.238816593466" lon="8.107958738710177"><ele>657.0</ele><time>2026-05-01T13:28:50Z</time></trkpt><trkpt lat="44.23884553104058" lon="8.107756093549689"><ele>658.0</ele><time>2026-05-01T13:28:51Z</time></trkpt><trkpt lat="44.23889670135227" lon="8.107551260692068"><ele>658.0</ele><time>2026-05-01T13:28:52Z</time></trkpt><trkpt lat="44.23895138145205" lon="8.10735394520957"><ele>658.0</ele><time>2026-05-01T13:28:53Z</time></trkpt><trkpt lat="44.2389886461757" lon="8.107173497212825"><ele>658.0</ele><time>2026-05-01T13:28:54Z</time></trkpt><trkpt lat="44.239000286999854" lon="8.107001953389931"><ele>658.0</ele><time>2026-05-01T13:28:55Z</time></trkpt><trkpt lat="44.2389622857138" lon="8.106807238542164"><ele>658.0</ele><time>2026-05-01T13:28:56Z</time></trkpt><trkpt lat="44.23894276591862" lon="8.10658463032129"><ele>658.0</ele><time>2026-05-01T13:28:57Z</time></trkpt><trkpt lat="44.23890882524069" lon="8.106352759355818"><ele>658.0</ele><time>2026-05-01T13:28:58Z</time></trkpt><trkpt lat="44.23889886434184" lon="8.106102262318686"><ele>659.3333333333334</ele><time>2026-05-01T13:28:59Z</time></trkpt><trkpt lat="44.238858942376446" lon="8.105867892686257"><ele>660.6666666666666</ele><time>2026-05-01T13:29:00Z</time></trkpt><trkpt lat="44.238787007521104" lon="8.105633842204018"><ele>662.0</ele><time>2026-05-01T13:29:01Z</time></trkpt><trkpt lat="44.23869023593941" lon="8.105387334080481"><ele>662.75</ele><time>2026-05-01T13:29:02Z</time></trkpt><trkpt lat="44.23859673374976" lon="8.105179510522262"><ele>663.5</ele><time>2026-05-01T13:29:03Z</time></trkpt><trkpt lat="44.238537559805195" lon="8.105012596522633"><ele>664.25</ele><time>2026-05-01T13:29:04Z</time></trkpt><trkpt lat="44.23849708531659" lon="8.10483421222304"><ele>665.0</ele><time>2026-05-01T13:29:05Z</time></trkpt><trkpt lat="44.23845669639431" lon="8.104632022925083"><ele>665.3333333333333</ele><time>2026-05-01T13:29:06Z</time></trkpt><trkpt lat="44.238411575149755" lon="8.104407557436545"><ele>665.6666666666666</ele><time>2026-05-01T13:29:07Z</time></trkpt><trkpt lat="44.238358417829616" lon="8.104167216236057"><ele>666.0</ele><time>2026-05-01T13:29:08Z</time></trkpt><trkpt lat="44.238292977562" lon="8.103914294025966"><ele>667.0</ele><time>2026-05-01T13:29:09Z</time></trkpt><trkpt lat="44.23823674134629" lon="8.103664076163026"><ele>668.0</ele><time>2026-05-01T13:29:10Z</time></trkpt><trkpt lat="44.238206150805155" lon="8.103443761123248"><ele>669.0</ele><time>2026-05-01T13:29:11Z</time></trkpt><trkpt lat="44.23820661814336" lon="8.103204800883478"><ele>669.6666666666666</ele><time>2026-05-01T13:29:12Z</time></trkpt><trkpt lat="44.23821799133371" lon="8.10294825067006"><ele>670.3333333333333</ele><time>2026-05-01T13:29:13Z</time></trkpt><trkpt lat="44.23823698988227" lon="8.102681530172678"><ele>671.0</ele><time>2026-05-01T13:29:14Z</time></trkpt><trkpt lat="44.23827443154649" lon="8.102416540553122"><ele>671.6666666666666</ele><time>2026-05-01T13:29:15Z</time></trkpt><trkpt lat="44.23834157125934" lon="8.102147732013027"><ele>672.3333333333334</ele><time>2026-05-01T13:29:16Z</time></trkpt><trkpt lat="44.238421447476675" lon="8.101853122065188"><ele>673.0</ele><time>2026-05-01T13:29:17Z</time></trkpt><trkpt lat="44.23848481539779" lon="8.101604069023733"><ele>675.0</ele><time>2026-05-01T13:29:18Z</time></trkpt><trkpt lat="44.23849332761219" lon="8.101463136905883"><ele>677.0</ele><time>2026-05-01T13:29:19Z</time></trkpt><trkpt lat="44.23846994131406" lon="8.101280098301592"><ele>679.0</ele><time>2026-05-01T13:29:20Z</time></trkpt><trkpt lat="44.23843124939039" lon="8.101026045947382"><ele>681.0</ele><time>2026-05-01T13:29:21Z</time></trkpt><trkpt lat="44.23836788283806" lon="8.100781266805665"><ele>680.6666666666666</ele><time>2026-05-01T13:29:22Z</time></trkpt><trkpt lat="44.238279241627886" lon="8.100567646977733"><ele>680.3333333333333</ele><time>2026-05-01T13:29:23Z</time></trkpt><trkpt lat="44.23813768622924" lon="8.100369091902671"><ele>680.0</ele><time>2026-05-01T13:29:24Z</time></trkpt><trkpt lat="44.237954094570554" lon="8.100218959586982"><ele>680.0</ele><time>2026-05-01T13:29:25Z</time></trkpt><trkpt lat="44.23774754501815" lon="8.100111619365363"><ele>680.0</ele><time>2026-05-01T13:29:26Z</time></trkpt><trkpt lat="44.237543117412876" lon="8.10002458036766"><ele>680.0</ele><time>2026-05-01T13:29:27Z</time></trkpt><trkpt lat="44.237346437024776" lon="8.099908591276334"><ele>682.3333333333333</ele><time>2026-05-01T13:29:28Z</time></trkpt><trkpt lat="44.23714598861769" lon="8.099802993617617"><ele>684.6666666666666</ele><time>2026-05-01T13:29:29Z</time></trkpt><trkpt lat="44.23695828304719" lon="8.09967719088252"><ele>687.0</ele><time>2026-05-01T13:29:30Z</time></trkpt><trkpt lat="44.236775506379246" lon="8.099490383454162"><ele>687.0</ele><time>2026-05-01T13:29:31Z</time></trkpt><trkpt lat="44.23660341705581" lon="8.099314675831376"><ele>687.0</ele><time>2026-05-01T13:29:32Z</time></trkpt><trkpt lat="44.23645215046867" lon="8.099167441304896"><ele>687.0</ele><time>2026-05-01T13:29:33Z</time></trkpt><trkpt lat="44.23627900977086" lon="8.099046819215973"><ele>696.6666666666666</ele><time>2026-05-01T13:29:34Z</time></trkpt><trkpt lat="44.23608479071373" lon="8.098953468957335"><ele>706.3333333333333</ele><time>2026-05-01T13:29:35Z</time></trkpt><trkpt lat="44.23586550468548" lon="8.09889513749181"><ele>716.0</ele><time>2026-05-01T13:29:36Z</time></trkpt><trkpt lat="44.2356442270867" lon="8.09884735079548"><ele>714.6666666666666</ele><time>2026-05-01T13:29:37Z</time></trkpt><trkpt lat="44.23542803881107" lon="8.098779986406134"><ele>713.3333333333334</ele><time>2026-05-01T13:29:38Z</time></trkpt><trkpt lat="44.23521332309766" lon="8.098780598553422"><ele>712.0</ele><time>2026-05-01T13:29:39Z</time></trkpt><trkpt lat="44.23498472924071" lon="8.098813068084164"><ele>721.5</ele><time>2026-05-01T13:29:40Z</time></trkpt><trkpt lat="44.23474776347642" lon="8.098893180861522"><ele>731.0</ele><time>2026-05-01T13:29:41Z</time></trkpt><trkpt lat="44.23450862738132" lon="8.098960807551665"><ele>731.0</ele><time>2026-05-01T13:29:42Z</time></trkpt><trkpt lat="44.234282049119635" lon="8.099016281744802"><ele>731.0</ele><time>2026-05-01T13:29:43Z</time></trkpt><trkpt lat="44.23403774618838" lon="8.099087719843283"><ele>733.0</ele><time>2026-05-01T13:29:44Z</time></trkpt><trkpt lat="44.23381731219228" lon="8.09914022488906"><ele>735.0</ele><time>2026-05-01T13:29:45Z</time></trkpt><trkpt lat="44.23360801188375" lon="8.099119517394083"><ele>737.0</ele><time>2026-05-01T13:29:46Z</time></trkpt><trkpt lat="44.233402865726546" lon="8.099081170177477"><ele>737.0</ele><time>2026-05-01T13:29:47Z</time></trkpt><trkpt lat="44.23318655822295" lon="8.099030538925065"><ele>737.0</ele><time>2026-05-01T13:29:48Z</time></trkpt><trkpt lat="44.232962316122176" lon="8.098951083036185"><ele>732.5</ele><time>2026-05-01T13:29:49Z</time></trkpt><trkpt lat="44.23274249307016" lon="8.098876657851621"><ele>728.0</ele><time>2026-05-01T13:29:50Z</time></trkpt><trkpt lat="44.23251852287278" lon="8.09883581365918"><ele>728.0</ele><time>2026-05-01T13:29:51Z</time></trkpt><trkpt lat="44.232325068322446" lon="8.098829797124111"><ele>728.0</ele><time>2026-05-01T13:29:52Z</time></trkpt><trkpt lat="44.232120257701446" lon="8.098873557296411"><ele>728.0</ele><time>2026-05-01T13:29:53Z</time></trkpt><trkpt lat="44.23189810650434" lon="8.098958969769845"><ele>726.5</ele><time>2026-05-01T13:29:54Z</time></trkpt><trkpt lat="44.23167529585784" lon="8.099034628290422"><ele>725.0</ele><time>2026-05-01T13:29:55Z</time></trkpt><trkpt lat="44.23143487083888" lon="8.099052713220177"><ele>720.0</ele><time>2026-05-01T13:29:56Z</time></trkpt><trkpt lat="44.231207500592284" lon="8.099089207101912"><ele>715.0</ele><time>2026-05-01T13:29:57Z</time></trkpt><trkpt lat="44.231001277543974" lon="8.099118385535052"><ele>710.0</ele><time>2026-05-01T13:29:58Z</time></trkpt><trkpt lat="44.23081761063531" lon="8.09910348939191"><ele>718.3333333333333</ele><time>2026-05-01T13:29:59Z</time></trkpt><trkpt lat="44.23062416412953" lon="8.099055586808225"><ele>726.6666666666666</ele><time>2026-05-01T13:30:00Z</time></trkpt><trkpt lat="44.23042162444398" lon="8.099001278912331"><ele>735.0</ele><time>2026-05-01T13:30:01Z</time></trkpt><trkpt lat="44.230213288068505" lon="8.098963646615834"><ele>735.0</ele><time>2026-05-01T13:30:02Z</time></trkpt><trkpt lat="44.230003258916895" lon="8.098859917132758"><ele>735.0</ele><time>2026-05-01T13:30:03Z</time></trkpt><trkpt lat="44.22979744873592" lon="8.09877610997182"><ele>735.0</ele><time>2026-05-01T13:30:04Z</time></trkpt><trkpt lat="44.22956738148317" lon="8.09875843669071"><ele>734.0</ele><time>2026-05-01T13:30:05Z</time></trkpt><trkpt lat="44.229347687512494" lon="8.09876725167273"><ele>733.0</ele><time>2026-05-01T13:30:06Z</time></trkpt><trkpt lat="44.229164133862064" lon="8.098717881665396"><ele>732.0</ele><time>2026-05-01T13:30:07Z</time></trkpt><trkpt lat="44.22900690340427" lon="8.098693621569911"><ele>729.0</ele><time>2026-05-01T13:30:08Z</time></trkpt><trkpt lat="44.22887760803586" lon="8.098645339941518"><ele>726.0</ele><time>2026-05-01T13:30:09Z</time></trkpt><trkpt lat="44.22880717865854" lon="8.098502372256007"><ele>723.0</ele><time>2026-05-01T13:30:10Z</time></trkpt><trkpt lat="44.228681680353844" lon="8.098325195762877"><ele>720.0</ele><time>2026-05-01T13:30:11Z</time></trkpt><trkpt lat="44.22850816993284" lon="8.098183117244552"><ele>725.3333333333334</ele><time>2026-05-01T13:30:12Z</time></trkpt><trkpt lat="44.22832680363319" lon="8.09810913014566"><ele>730.6666666666667</ele><time>2026-05-01T13:30:13Z</time></trkpt><trkpt lat="44.22815560324647" lon="8.097971450712773"><ele>736.0</ele><time>2026-05-01T13:30:14Z</time></trkpt><trkpt lat="44.22797361591703" lon="8.097838210614679"><ele>736.0</ele><time>2026-05-01T13:30:15Z</time></trkpt><trkpt lat="44.22779142425349" lon="8.097706875862977"><ele>736.0</ele><time>2026-05-01T13:30:16Z</time></trkpt><trkpt lat="44.22762738642713" lon="8.097592653748247"><ele>736.0</ele><time>2026-05-01T13:30:17Z</time></trkpt><trkpt lat="44.22738740478599" lon="8.097460086015749"><ele>744.0</ele><time>2026-05-01T13:30:18Z</time></trkpt><trkpt lat="44.227175559688895" lon="8.097337160566974"><ele>752.0</ele><time>2026-05-01T13:30:19Z</time></trkpt><trkpt lat="44.22694458506043" lon="8.097248487002611"><ele>752.0</ele><time>2026-05-01T13:30:20Z</time></trkpt><trkpt lat="44.22671588332169" lon="8.097187150911347"><ele>752.0</ele><time>2026-05-01T13:30:21Z</time></trkpt><trkpt lat="44.22649642352422" lon="8.097102513921524"><ele>748.0</ele><time>2026-05-01T13:30:22Z</time></trkpt><trkpt lat="44.22627413708616" lon="8.096997443898672"><ele>744.0</ele><time>2026-05-01T13:30:23Z</time></trkpt><trkpt lat="44.226055004450714" lon="8.096902755220784"><ele>744.0</ele><time>2026-05-01T13:30:24Z</time></trkpt><trkpt lat="44.225859671864875" lon="8.096825494752304"><ele>744.0</ele><time>2026-05-01T13:30:25Z</time></trkpt><trkpt lat="44.22567294571489" lon="8.096796954785216"><ele>744.0</ele><time>2026-05-01T13:30:26Z</time></trkpt><trkpt lat="44.22549029682411" lon="8.096778086973487"><ele>744.6666666666666</ele><time>2026-05-01T13:30:27Z</time></trkpt><trkpt lat="44.22534469015578" lon="8.096685079392266"><ele>745.3333333333333</ele><time>2026-05-01T13:30:28Z</time></trkpt><trkpt lat="44.2252093381384" lon="8.096582560459845"><ele>746.0</ele><time>2026-05-01T13:30:29Z</time></trkpt><trkpt lat="44.2250614156197" lon="8.096414350076007"><ele>746.0</ele><time>2026-05-01T13:30:30Z</time></trkpt><trkpt lat="44.22488827412719" lon="8.096270705753438"><ele>746.0</ele><time>2026-05-01T13:30:31Z</time></trkpt><trkpt lat="44.22468870525437" lon="8.096110150600184"><ele>746.0</ele><time>2026-05-01T13:30:32Z</time></trkpt><trkpt lat="44.22450114175149" lon="8.095960157975798"><ele>746.25</ele><time>2026-05-01T13:30:33Z</time></trkpt><trkpt lat="44.22435029662494" lon="8.095835520545664"><ele>746.5</ele><time>2026-05-01T13:30:34Z</time></trkpt><trkpt lat="44.22424980202485" lon="8.095708162836571"><ele>746.75</ele><time>2026-05-01T13:30:35Z</time></trkpt><trkpt lat="44.22419999314414" lon="8.095561915453093"><ele>747.0</ele><time>2026-05-01T13:30:36Z</time></trkpt><trkpt lat="44.2241654923749" lon="8.095402444755196"><ele>747.0</ele><time>2026-05-01T13:30:37Z</time></trkpt><trkpt lat="44.22411405525755" lon="8.095154672971674"><ele>747.0</ele><time>2026-05-01T13:30:38Z</time></trkpt><trkpt lat="44.22404788944969" lon="8.09490563926281"><ele>747.0</ele><time>2026-05-01T13:30:39Z</time></trkpt><trkpt lat="44.223931355406314" lon="8.094644685863415"><ele>749.0</ele><time>2026-05-01T13:30:40Z</time></trkpt><trkpt lat="44.22380512188335" lon="8.094410763816436"><ele>751.0</ele><time>2026-05-01T13:30:41Z</time></trkpt><trkpt lat="44.22373349393008" lon="8.094133308255557"><ele>753.0</ele><time>2026-05-01T13:30:42Z</time></trkpt><trkpt lat="44.223648716598106" lon="8.093837204324256"><ele>753.5</ele><time>2026-05-01T13:30:43Z</time></trkpt><trkpt lat="44.223544673265955" lon="8.093534133324084"><ele>754.0</ele><time>2026-05-01T13:30:44Z</time></trkpt><trkpt lat="44.22345051875064" lon="8.09323460247893"><ele>756.3333333333334</ele><time>2026-05-01T13:30:45Z</time></trkpt><trkpt lat="44.223323260121894" lon="8.092958771159516"><ele>758.6666666666666</ele><time>2026-05-01T13:30:46Z</time></trkpt><trkpt lat="44.22318253422025" lon="8.092754985530833"><ele>761.0</ele><time>2026-05-01T13:30:47Z</time></trkpt><trkpt lat="44.22305821496492" lon="8.092582026446227"><ele>759.5</ele><time>2026-05-01T13:30:48Z</time></trkpt><trkpt lat="44.22300472546618" lon="8.092383262110866"><ele>758.0</ele><time>2026-05-01T13:30:49Z</time></trkpt><trkpt lat="44.22297732225866" lon="8.092196434193704"><ele>756.5</ele><time>2026-05-01T13:30:50Z</time></trkpt><trkpt lat="44.222965003933716" lon="8.092013320313036"><ele>755.0</ele><time>2026-05-01T13:30:51Z</time></trkpt><trkpt lat="44.22296191002802" lon="8.091770183895036"><ele>756.3333333333333</ele><time>2026-05-01T13:30:52Z</time></trkpt><trkpt lat="44.222938631664405" lon="8.091478787469617"><ele>757.6666666666666</ele><time>2026-05-01T13:30:53Z</time></trkpt><trkpt lat="44.22289650932073" lon="8.09124852028451"><ele>759.0</ele><time>2026-05-01T13:30:54Z</time></trkpt><trkpt lat="44.22282801029284" lon="8.091033562374909"><ele>759.0</ele><time>2026-05-01T13:30:55Z</time></trkpt><trkpt lat="44.22270042250495" lon="8.090837133375341"><ele>759.0</ele><time>2026-05-01T13:30:56Z</time></trkpt><trkpt lat="44.222555961816646" lon="8.090636524983307"><ele>759.0</ele><time>2026-05-01T13:30:57Z</time></trkpt><trkpt lat="44.22243572475437" lon="8.090381773188819"><ele>765.5</ele><time>2026-05-01T13:30:58Z</time></trkpt><trkpt lat="44.22231732158538" lon="8.09015689446503"><ele>772.0</ele><time>2026-05-01T13:30:59Z</time></trkpt><trkpt lat="44.222148180044584" lon="8.089889817833805"><ele>772.0</ele><time>2026-05-01T13:31:00Z</time></trkpt><trkpt lat="44.2219921917008" lon="8.089617162087297"><ele>772.0</ele><time>2026-05-01T13:31:01Z</time></trkpt><trkpt lat="44.22183951182126" lon="8.089357409705135"><ele>772.0</ele><time>2026-05-01T13:31:02Z</time></trkpt><trkpt lat="44.221686321334644" lon="8.089094594338915"><ele>772.0</ele><time>2026-05-01T13:31:03Z</time></trkpt><trkpt lat="44.22155138211044" lon="8.088849720712963"><ele>772.5</ele><time>2026-05-01T13:31:04Z</time></trkpt><trkpt lat="44.22135345449842" lon="8.088606407198991"><ele>773.0</ele><time>2026-05-01T13:31:05Z</time></trkpt><trkpt lat="44.22114934178043" lon="8.088383435240171"><ele>775.5</ele><time>2026-05-01T13:31:06Z</time></trkpt><trkpt lat="44.22094389777522" lon="8.0881520973729"><ele>778.0</ele><time>2026-05-01T13:31:07Z</time></trkpt><trkpt lat="44.22088047739427" lon="8.087830551955768"><ele>778.0</ele><time>2026-05-01T13:31:08Z</time></trkpt><trkpt lat="44.22090961765307" lon="8.087952088054383"><ele>778.0</ele><time>2026-05-01T13:31:09Z</time></trkpt><trkpt lat="44.22085311455995" lon="8.087716978072994"><ele>778.0</ele><time>2026-05-01T13:31:10Z</time></trkpt><trkpt lat="44.22078696572179" lon="8.087492590159474"><ele>778.0</ele><time>2026-05-01T13:31:11Z</time></trkpt><trkpt lat="44.22069690665368" lon="8.087335439981498"><ele>784.0</ele><time>2026-05-01T13:31:12Z</time></trkpt><trkpt lat="44.220586715302574" lon="8.087258340499359"><ele>790.0</ele><time>2026-05-01T13:31:13Z</time></trkpt><trkpt lat="44.22044622841455" lon="8.087229041594174"><ele>796.0</ele><time>2026-05-01T13:31:14Z</time></trkpt><trkpt lat="44.22026992497735" lon="8.087180362040296"><ele>802.0</ele><time>2026-05-01T13:31:15Z</time></trkpt><trkpt lat="44.220067637564576" lon="8.087154368684816"><ele>802.0</ele><time>2026-05-01T13:31:16Z</time></trkpt><trkpt lat="44.21987205317363" lon="8.08711575469201"><ele>802.0</ele><time>2026-05-01T13:31:17Z</time></trkpt><trkpt lat="44.219660637161326" lon="8.087085806403113"><ele>802.0</ele><time>2026-05-01T13:31:18Z</time></trkpt><trkpt lat="44.21943668941144" lon="8.087082547856003"><ele>809.0</ele><time>2026-05-01T13:31:19Z</time></trkpt><trkpt lat="44.21920144456874" lon="8.087111344381142"><ele>816.0</ele><time>2026-05-01T13:31:20Z</time></trkpt><trkpt lat="44.21896723403812" lon="8.087184110582816"><ele>819.5</ele><time>2026-05-01T13:31:21Z</time></trkpt><trkpt lat="44.21873691309199" lon="8.087303661054541"><ele>823.0</ele><time>2026-05-01T13:31:22Z</time></trkpt><trkpt lat="44.21852907853734" lon="8.087408328602036"><ele>816.6666666666666</ele><time>2026-05-01T13:31:23Z</time></trkpt><trkpt lat="44.21835135035876" lon="8.087447780328462"><ele>810.3333333333333</ele><time>2026-05-01T13:31:24Z</time></trkpt><trkpt lat="44.2181905569339" lon="8.08746662682904"><ele>804.0</ele><time>2026-05-01T13:31:25Z</time></trkpt><trkpt lat="44.21806300592556" lon="8.08740419434422"><ele>804.0</ele><time>2026-05-01T13:31:26Z</time></trkpt><trkpt lat="44.21797750663563" lon="8.087306850602351"><ele>804.0</ele><time>2026-05-01T13:31:27Z</time></trkpt><trkpt lat="44.21789594807939" lon="8.087174058059086"><ele>804.0</ele><time>2026-05-01T13:31:28Z</time></trkpt><trkpt lat="44.217780597132354" lon="8.087010890736998"><ele>804.0</ele><time>2026-05-01T13:31:29Z</time></trkpt><trkpt lat="44.217675145896834" lon="8.086835275833776"><ele>804.0</ele><time>2026-05-01T13:31:30Z</time></trkpt><trkpt lat="44.217606775983725" lon="8.0866348915175"><ele>804.0</ele><time>2026-05-01T13:31:31Z</time></trkpt><trkpt lat="44.21755023699825" lon="8.08637574982421"><ele>804.0</ele><time>2026-05-01T13:31:32Z</time></trkpt><trkpt lat="44.21746447400243" lon="8.08612227650418"><ele>806.3333333333333</ele><time>2026-05-01T13:31:33Z</time></trkpt><trkpt lat="44.21731889432739" lon="8.085906463619514"><ele>808.6666666666666</ele><time>2026-05-01T13:31:34Z</time></trkpt><trkpt lat="44.217165441827596" lon="8.085690062309304"><ele>811.0</ele><time>2026-05-01T13:31:35Z</time></trkpt><trkpt lat="44.217012334256175" lon="8.085500869932002"><ele>814.0</ele><time>2026-05-01T13:31:36Z</time></trkpt><trkpt lat="44.216836844236674" lon="8.085320969180472"><ele>817.0</ele><time>2026-05-01T13:31:37Z</time></trkpt><trkpt lat="44.216663230477245" lon="8.08513725364959"><ele>820.0</ele><time>2026-05-01T13:31:38Z</time></trkpt><trkpt lat="44.21649562978417" lon="8.084959991809455"><ele>822.3333333333333</ele><time>2026-05-01T13:31:39Z</time></trkpt><trkpt lat="44.21632455574773" lon="8.084776949249596"><ele>824.6666666666667</ele><time>2026-05-01T13:31:40Z</time></trkpt><trkpt lat="44.21615253312194" lon="8.084589042314715"><ele>827.0</ele><time>2026-05-01T13:31:41Z</time></trkpt><trkpt lat="44.21597036459395" lon="8.084415678469599"><ele>827.0</ele><time>2026-05-01T13:31:42Z</time></trkpt><trkpt lat="44.2157724565773" lon="8.084265249406775"><ele>827.0</ele><time>2026-05-01T13:31:43Z</time></trkpt><trkpt lat="44.215563560926185" lon="8.084130055382838"><ele>831.5</ele><time>2026-05-01T13:31:44Z</time></trkpt><trkpt lat="44.21535455670633" lon="8.083993598284724"><ele>836.0</ele><time>2026-05-01T13:31:45Z</time></trkpt><trkpt lat="44.21514751195626" lon="8.083863088949121"><ele>836.0</ele><time>2026-05-01T13:31:46Z</time></trkpt><trkpt lat="44.21494599766721" lon="8.08372930889931"><ele>836.0</ele><time>2026-05-01T13:31:47Z</time></trkpt><trkpt lat="44.214745614212134" lon="8.083593190876657"><ele>836.0</ele><time>2026-05-01T13:31:48Z</time></trkpt><trkpt lat="44.21454624483337" lon="8.083455707721836"><ele>833.0</ele><time>2026-05-01T13:31:49Z</time></trkpt><trkpt lat="44.214300553856724" lon="8.08342279245135"><ele>830.0</ele><time>2026-05-01T13:31:50Z</time></trkpt><trkpt lat="44.2140738413099" lon="8.083332084372088"><ele>837.0</ele><time>2026-05-01T13:31:51Z</time></trkpt><trkpt lat="44.21385658013713" lon="8.08322292831849"><ele>844.0</ele><time>2026-05-01T13:31:52Z</time></trkpt><trkpt lat="44.21363801642632" lon="8.083113487748713"><ele>844.0</ele><time>2026-05-01T13:31:53Z</time></trkpt><trkpt lat="44.213424857178616" lon="8.08299771193948"><ele>844.0</ele><time>2026-05-01T13:31:54Z</time></trkpt><trkpt lat="44.21322307383592" lon="8.082873984344724"><ele>844.0</ele><time>2026-05-01T13:31:55Z</time></trkpt><trkpt lat="44.21305012720075" lon="8.082763813537769"><ele>848.6666666666666</ele><time>2026-05-01T13:31:56Z</time></trkpt><trkpt lat="44.21289930336511" lon="8.082613997037248"><ele>853.3333333333333</ele><time>2026-05-01T13:31:57Z</time></trkpt><trkpt lat="44.21278212409157" lon="8.08244163819106"><ele>858.0</ele><time>2026-05-01T13:31:58Z</time></trkpt><trkpt lat="44.21268797344952" lon="8.082239853421825"><ele>858.0</ele><time>2026-05-01T13:31:59Z</time></trkpt><trkpt lat="44.21262593753095" lon="8.082024078284077"><ele>858.0</ele><time>2026-05-01T13:32:00Z</time></trkpt><trkpt lat="44.21259159599535" lon="8.081793509196247"><ele>858.0</ele><time>2026-05-01T13:32:01Z</time></trkpt><trkpt lat="44.2125730122552" lon="8.081542169410188"><ele>859.6666666666667</ele><time>2026-05-01T13:32:02Z</time></trkpt><trkpt lat="44.212539927890944" lon="8.081270479407786"><ele>861.3333333333334</ele><time>2026-05-01T13:32:03Z</time></trkpt><trkpt lat="44.212503323637215" lon="8.080998636360837"><ele>863.0</ele><time>2026-05-01T13:32:04Z</time></trkpt><trkpt lat="44.212471724212165" lon="8.080746169177273"><ele>866.0</ele><time>2026-05-01T13:32:05Z</time></trkpt><trkpt lat="44.21247530583226" lon="8.080532991263038"><ele>869.0</ele><time>2026-05-01T13:32:06Z</time></trkpt><trkpt lat="44.21253410010423" lon="8.08036331412601"><ele>872.0</ele><time>2026-05-01T13:32:07Z</time></trkpt><trkpt lat="44.212663980434925" lon="8.08021149796347"><ele>872.0</ele><time>2026-05-01T13:32:08Z</time></trkpt><trkpt lat="44.212778286412856" lon="8.080046786034378"><ele>872.0</ele><time>2026-05-01T13:32:09Z</time></trkpt><trkpt lat="44.21284448364955" lon="8.079823744456448"><ele>872.0</ele><time>2026-05-01T13:32:10Z</time></trkpt><trkpt lat="44.2128915546997" lon="8.079566115719024"><ele>878.0</ele><time>2026-05-01T13:32:11Z</time></trkpt><trkpt lat="44.212919540756495" lon="8.079288770712925"><ele>884.0</ele><time>2026-05-01T13:32:12Z</time></trkpt><trkpt lat="44.21292495453448" lon="8.079016523739066"><ele>890.0</ele><time>2026-05-01T13:32:13Z</time></trkpt><trkpt lat="44.21292019962054" lon="8.078719405657083"><ele>890.6666666666667</ele><time>2026-05-01T13:32:14Z</time></trkpt><trkpt lat="44.2129396585936" lon="8.078431713990842"><ele>891.3333333333333</ele><time>2026-05-01T13:32:15Z</time></trkpt><trkpt lat="44.212933447450276" lon="8.078149058980882"><ele>892.0</ele><time>2026-05-01T13:32:16Z</time></trkpt><trkpt lat="44.21291481465965" lon="8.077859809839092"><ele>892.0</ele><time>2026-05-01T13:32:17Z</time></trkpt><trkpt lat="44.21290218027207" lon="8.077608736816773"><ele>892.0</ele><time>2026-05-01T13:32:18Z</time></trkpt><trkpt lat="44.21285503064588" lon="8.07737413092845"><ele>892.0</ele><time>2026-05-01T13:32:19Z</time></trkpt><trkpt lat="44.21277110202958" lon="8.077138269947751"><ele>892.3333333333333</ele><time>2026-05-01T13:32:20Z</time></trkpt><trkpt lat="44.21264841780762" lon="8.076924391100327"><ele>892.6666666666667</ele><time>2026-05-01T13:32:21Z</time></trkpt><trkpt lat="44.21250358471776" lon="8.076706084525826"><ele>893.0</ele><time>2026-05-01T13:32:22Z</time></trkpt><trkpt lat="44.21235862955919" lon="8.07649815447438"><ele>895.0</ele><time>2026-05-01T13:32:23Z</time></trkpt><trkpt lat="44.21219736700614" lon="8.076289403641775"><ele>897.0</ele><time>2026-05-01T13:32:24Z</time></trkpt><trkpt lat="44.21202257498617" lon="8.076082802431944"><ele>899.0</ele><time>2026-05-01T13:32:25Z</time></trkpt><trkpt lat="44.21184142503845" lon="8.075878856426694"><ele>902.6666666666667</ele><time>2026-05-01T13:32:26Z</time></trkpt><trkpt lat="44.211665801354314" lon="8.075671488291931"><ele>906.3333333333333</ele><time>2026-05-01T13:32:27Z</time></trkpt><trkpt lat="44.21150933059898" lon="8.07547940334109"><ele>910.0</ele><time>2026-05-01T13:32:28Z</time></trkpt><trkpt lat="44.21142176780532" lon="8.075306102569817"><ele>910.25</ele><time>2026-05-01T13:32:29Z</time></trkpt><trkpt lat="44.211361249568604" lon="8.075151518773081"><ele>910.5</ele><time>2026-05-01T13:32:30Z</time></trkpt><trkpt lat="44.21133319130392" lon="8.075007913661304"><ele>910.75</ele><time>2026-05-01T13:32:31Z</time></trkpt><trkpt lat="44.211352080672796" lon="8.074841271565216"><ele>911.0</ele><time>2026-05-01T13:32:32Z</time></trkpt><trkpt lat="44.21139954157755" lon="8.074661446127388"><ele>912.3333333333334</ele><time>2026-05-01T13:32:33Z</time></trkpt><trkpt lat="44.211446201070494" lon="8.07445087025166"><ele>913.6666666666667</ele><time>2026-05-01T13:32:34Z</time></trkpt><trkpt lat="44.21145591523386" lon="8.074235843161906"><ele>915.0</ele><time>2026-05-01T13:32:35Z</time></trkpt><trkpt lat="44.21141304949256" lon="8.07403534304203"><ele>920.3333333333333</ele><time>2026-05-01T13:32:36Z</time></trkpt><trkpt lat="44.21133235675423" lon="8.073836483993825"><ele>925.6666666666666</ele><time>2026-05-01T13:32:37Z</time></trkpt><trkpt lat="44.211274339866826" lon="8.07365172584231"><ele>931.0</ele><time>2026-05-01T13:32:38Z</time></trkpt><trkpt lat="44.21126080658918" lon="8.073435533884693"><ele>934.6666666666666</ele><time>2026-05-01T13:32:39Z</time></trkpt><trkpt lat="44.211288940942445" lon="8.073223705450024"><ele>938.3333333333333</ele><time>2026-05-01T13:32:40Z</time></trkpt><trkpt lat="44.21134102983428" lon="8.072999772808032"><ele>942.0</ele><time>2026-05-01T13:32:41Z</time></trkpt><trkpt lat="44.21139536807323" lon="8.072787651185294"><ele>942.0</ele><time>2026-05-01T13:32:42Z</time></trkpt><trkpt lat="44.21145734278128" lon="8.07258109669249"><ele>942.0</ele><time>2026-05-01T13:32:43Z</time></trkpt><trkpt lat="44.21153856543732" lon="8.072381406822075"><ele>942.0</ele><time>2026-05-01T13:32:44Z</time></trkpt><trkpt lat="44.21161876012927" lon="8.072170420098645"><ele>940.3333333333333</ele><time>2026-05-01T13:32:45Z</time></trkpt><trkpt lat="44.21169387192016" lon="8.071950880241818"><ele>938.6666666666666</ele><time>2026-05-01T13:32:46Z</time></trkpt><trkpt lat="44.211754771294395" lon="8.071746769120322"><ele>937.0</ele><time>2026-05-01T13:32:47Z</time></trkpt><trkpt lat="44.21179219558576" lon="8.071584362867588"><ele>939.8</ele><time>2026-05-01T13:32:48Z</time></trkpt><trkpt lat="44.21179850707709" lon="8.071447083008788"><ele>942.6</ele><time>2026-05-01T13:32:49Z</time></trkpt><trkpt lat="44.211746975361955" lon="8.071334420344398"><ele>945.3999999999999</ele><time>2026-05-01T13:32:50Z</time></trkpt><trkpt lat="44.2116527889122" lon="8.07128915137528"><ele>948.1999999999999</ele><time>2026-05-01T13:32:51Z</time></trkpt><trkpt lat="44.21153291552786" lon="8.071303630109592"><ele>951.0</ele><time>2026-05-01T13:32:52Z</time></trkpt><trkpt lat="44.21141375686111" lon="8.071395053539824"><ele>955.3333333333333</ele><time>2026-05-01T13:32:53Z</time></trkpt><trkpt lat="44.211318359435" lon="8.071540701436948"><ele>959.6666666666666</ele><time>2026-05-01T13:32:54Z</time></trkpt><trkpt lat="44.2111967714323" lon="8.07170197048325"><ele>964.0</ele><time>2026-05-01T13:32:55Z</time></trkpt><trkpt lat="44.21104846861153" lon="8.071860319310954"><ele>964.0</ele><time>2026-05-01T13:32:56Z</time></trkpt><trkpt lat="44.21094384089357" lon="8.07208008077609"><ele>964.0</ele><time>2026-05-01T13:32:57Z</time></trkpt><trkpt lat="44.21087249714167" lon="8.072314591591795"><ele>964.0</ele><time>2026-05-01T13:32:58Z</time></trkpt><trkpt lat="44.21079588814742" lon="8.072562336101948"><ele>959.0</ele><time>2026-05-01T13:32:59Z</time></trkpt><trkpt lat="44.21070940906304" lon="8.072806289317283"><ele>954.0</ele><time>2026-05-01T13:33:00Z</time></trkpt><trkpt lat="44.21061617360067" lon="8.073038591935338"><ele>949.0</ele><time>2026-05-01T13:33:01Z</time></trkpt><trkpt lat="44.2105535282685" lon="8.07323205993993"><ele>949.0</ele><time>2026-05-01T13:33:02Z</time></trkpt><trkpt lat="44.21050949926556" lon="8.073365429272148"><ele>949.0000000000001</ele><time>2026-05-01T13:33:03Z</time></trkpt><trkpt lat="44.210442899207855" lon="8.073422692193516"><ele>949.0000000000001</ele><time>2026-05-01T13:33:04Z</time></trkpt><trkpt lat="44.21037816060403" lon="8.073415173693176"><ele>949.0</ele><time>2026-05-01T13:33:05Z</time></trkpt><trkpt lat="44.21029125244014" lon="8.073349711373368"><ele>949.0</ele><time>2026-05-01T13:33:06Z</time></trkpt><trkpt lat="44.21023197485566" lon="8.073207399381225"><ele>949.0</ele><time>2026-05-01T13:33:07Z</time></trkpt><trkpt lat="44.21022591285323" lon="8.072990809795483"><ele>949.0</ele><time>2026-05-01T13:33:08Z</time></trkpt><trkpt lat="44.21024246813723" lon="8.072742415766157"><ele>949.0</ele><time>2026-05-01T13:33:09Z</time></trkpt><trkpt lat="44.210224212161314" lon="8.072481958173567"><ele>955.6666666666666</ele><time>2026-05-01T13:33:10Z</time></trkpt><trkpt lat="44.21012058247156" lon="8.072260764618658"><ele>962.3333333333333</ele><time>2026-05-01T13:33:11Z</time></trkpt><trkpt lat="44.20999578918376" lon="8.072040601903478"><ele>969.0</ele><time>2026-05-01T13:33:12Z</time></trkpt><trkpt lat="44.20988100380549" lon="8.071803438285379"><ele>977.75</ele><time>2026-05-01T13:33:13Z</time></trkpt><trkpt lat="44.209816793716506" lon="8.071563380395782"><ele>986.5</ele><time>2026-05-01T13:33:14Z</time></trkpt><trkpt lat="44.20976404351064" lon="8.071401552395242"><ele>995.25</ele><time>2026-05-01T13:33:15Z</time></trkpt><trkpt lat="44.209689397773666" lon="8.071339388861224"><ele>1004.0</ele><time>2026-05-01T13:33:16Z</time></trkpt><trkpt lat="44.20960469340665" lon="8.07137410257515"><ele>1004.0</ele><time>2026-05-01T13:33:17Z</time></trkpt><trkpt lat="44.20952907389031" lon="8.071493550019518"><ele>1004.0</ele><time>2026-05-01T13:33:18Z</time></trkpt><trkpt lat="44.209473100450914" lon="8.07165922765341"><ele>1004.0</ele><time>2026-05-01T13:33:19Z</time></trkpt><trkpt lat="44.209421691200454" lon="8.07184022705951"><ele>1004.0</ele><time>2026-05-01T13:33:20Z</time></trkpt><trkpt lat="44.20937606984141" lon="8.072042537613774"><ele>999.3333333333334</ele><time>2026-05-01T13:33:21Z</time></trkpt><trkpt lat="44.20932410211323" lon="8.07225253680197"><ele>994.6666666666667</ele><time>2026-05-01T13:33:22Z</time></trkpt><trkpt lat="44.209234960067796" lon="8.072426109302285"><ele>990.0</ele><time>2026-05-01T13:33:23Z</time></trkpt><trkpt lat="44.20910764925606" lon="8.072544915942267"><ele>992.6666666666667</ele><time>2026-05-01T13:33:24Z</time></trkpt><trkpt lat="44.2089366679148" lon="8.072629856736592"><ele>995.3333333333334</ele><time>2026-05-01T13:33:25Z</time></trkpt><trkpt lat="44.20875334526311" lon="8.072718473855652"><ele>998.0</ele><time>2026-05-01T13:33:26Z</time></trkpt><trkpt lat="44.2085685003449" lon="8.072808094914526"><ele>998.0</ele><time>2026-05-01T13:33:27Z</time></trkpt><trkpt lat="44.20838630594033" lon="8.072898364045393"><ele>998.0</ele><time>2026-05-01T13:33:28Z</time></trkpt><trkpt lat="44.20820367659776" lon="8.072962348952936"><ele>998.0</ele><time>2026-05-01T13:33:29Z</time></trkpt><trkpt lat="44.20804043243268" lon="8.072956718828886"><ele>1000.0</ele><time>2026-05-01T13:33:30Z</time></trkpt><trkpt lat="44.20789231279173" lon="8.07289187906739"><ele>1002.0</ele><time>2026-05-01T13:33:31Z</time></trkpt><trkpt lat="44.20773844558545" lon="8.072797777304844"><ele>1004.0</ele><time>2026-05-01T13:33:32Z</time></trkpt><trkpt lat="44.20758915902848" lon="8.072654234943549"><ele>1004.0</ele><time>2026-05-01T13:33:33Z</time></trkpt><trkpt lat="44.207462112953756" lon="8.0724949556966"><ele>1004.0</ele><time>2026-05-01T13:33:34Z</time></trkpt><trkpt lat="44.20735080099845" lon="8.072378941886218"><ele>1004.0</ele><time>2026-05-01T13:33:35Z</time></trkpt><trkpt lat="44.207239991486524" lon="8.072362883878283"><ele>1004.0</ele><time>2026-05-01T13:33:36Z</time></trkpt><trkpt lat="44.20714133605956" lon="8.07244232210486"><ele>1006.5</ele><time>2026-05-01T13:33:37Z</time></trkpt><trkpt lat="44.207053825043914" lon="8.072572764867125"><ele>1009.0</ele><time>2026-05-01T13:33:38Z</time></trkpt><trkpt lat="44.206976312340196" lon="8.072764272720855"><ele>1011.5</ele><time>2026-05-01T13:33:39Z</time></trkpt><trkpt lat="44.2068710650208" lon="8.072901880484194"><ele>1014.0</ele><time>2026-05-01T13:33:40Z</time></trkpt><trkpt lat="44.206726131094044" lon="8.072950075664101"><ele>1014.0</ele><time>2026-05-01T13:33:41Z</time></trkpt><trkpt lat="44.206555549949606" lon="8.072921510502331"><ele>1014.0</ele><time>2026-05-01T13:33:42Z</time></trkpt><trkpt lat="44.2063630652807" lon="8.072888085906705"><ele>1014.0</ele><time>2026-05-01T13:33:43Z</time></trkpt><trkpt lat="44.20617476624102" lon="8.072865308393311"><ele>1014.8000000000001</ele><time>2026-05-01T13:33:44Z</time></trkpt><trkpt lat="44.20605499477199" lon="8.072821988297175"><ele>1015.6000000000001</ele><time>2026-05-01T13:33:45Z</time></trkpt><trkpt lat="44.20597993562965" lon="8.072735774369944"><ele>1016.4</ele><time>2026-05-01T13:33:46Z</time></trkpt><trkpt lat="44.20594408783077" lon="8.07261348471504"><ele>1017.2</ele><time>2026-05-01T13:33:47Z</time></trkpt><trkpt lat="44.20589575045399" lon="8.072440406972117"><ele>1018.0</ele><time>2026-05-01T13:33:48Z</time></trkpt><trkpt lat="44.20582912826604" lon="8.072304256229318"><ele>1023.0</ele><time>2026-05-01T13:33:49Z</time></trkpt><trkpt lat="44.20575103788966" lon="8.072262588466568"><ele>1028.0</ele><time>2026-05-01T13:33:50Z</time></trkpt><trkpt lat="44.205662997475386" lon="8.072315545696194"><ele>1033.0</ele><time>2026-05-01T13:33:51Z</time></trkpt><trkpt lat="44.20559166989386" lon="8.072451193359166"><ele>1038.0</ele><time>2026-05-01T13:33:52Z</time></trkpt><trkpt lat="44.20553567811885" lon="8.072621869956093"><ele>1043.0</ele><time>2026-05-01T13:33:53Z</time></trkpt><trkpt lat="44.20547660852416" lon="8.072812109195887"><ele>1044.6666666666667</ele><time>2026-05-01T13:33:54Z</time></trkpt><trkpt lat="44.20540920548552" lon="8.073004199928763"><ele>1046.3333333333333</ele><time>2026-05-01T13:33:55Z</time></trkpt><trkpt lat="44.20532329725589" lon="8.073209887889185"><ele>1048.0</ele><time>2026-05-01T13:33:56Z</time></trkpt><trkpt lat="44.20521959175988" lon="8.073410789636425"><ele>1044.3333333333333</ele><time>2026-05-01T13:33:57Z</time></trkpt><trkpt lat="44.205088734843805" lon="8.073575509980289"><ele>1040.6666666666667</ele><time>2026-05-01T13:33:58Z</time></trkpt><trkpt lat="44.204940154053354" lon="8.073659171661708"><ele>1037.0</ele><time>2026-05-01T13:33:59Z</time></trkpt><trkpt lat="44.204754734313426" lon="8.073714836353233"><ele>1037.0</ele><time>2026-05-01T13:34:00Z</time></trkpt><trkpt lat="44.20457378215652" lon="8.073758306980094"><ele>1037.0</ele><time>2026-05-01T13:34:01Z</time></trkpt><trkpt lat="44.20443205254498" lon="8.073767599705986"><ele>1037.0</ele><time>2026-05-01T13:34:02Z</time></trkpt><trkpt lat="44.20430122158413" lon="8.073715276641865"><ele>1037.0</ele><time>2026-05-01T13:34:03Z</time></trkpt><trkpt lat="44.20418743866101" lon="8.07360751103813"><ele>1037.0</ele><time>2026-05-01T13:34:04Z</time></trkpt><trkpt lat="44.20407161640954" lon="8.073527204392922"><ele>1037.0</ele><time>2026-05-01T13:34:05Z</time></trkpt><trkpt lat="44.20394778255454" lon="8.073488854031751"><ele>1037.0</ele><time>2026-05-01T13:34:06Z</time></trkpt><trkpt lat="44.203807245614584" lon="8.073592681272409"><ele>1038.3333333333335</ele><time>2026-05-01T13:34:07Z</time></trkpt><trkpt lat="44.20363510982073" lon="8.073686143660327"><ele>1039.6666666666667</ele><time>2026-05-01T13:34:08Z</time></trkpt><trkpt lat="44.20345649938808" lon="8.073732639445224"><ele>1041.0</ele><time>2026-05-01T13:34:09Z</time></trkpt><trkpt lat="44.20328431470949" lon="8.073720110391871"><ele>1038.0</ele><time>2026-05-01T13:34:10Z</time></trkpt><trkpt lat="44.203123588959414" lon="8.073679557963615"><ele>1035.0</ele><time>2026-05-01T13:34:11Z</time></trkpt><trkpt lat="44.20300480224438" lon="8.07361223051911"><ele>1032.0</ele><time>2026-05-01T13:34:12Z</time></trkpt><trkpt lat="44.202916751725574" lon="8.073516049028768"><ele>1029.0</ele><time>2026-05-01T13:34:13Z</time></trkpt><trkpt lat="44.20286379485921" lon="8.073424069559548"><ele>1029.0</ele><time>2026-05-01T13:34:14Z</time></trkpt><trkpt lat="44.20292795899306" lon="8.073292795365184"><ele>1029.0</ele><time>2026-05-01T13:34:16Z</time></trkpt><trkpt lat="44.20300826790566" lon="8.073296515465842"><ele>1029.0</ele><time>2026-05-01T13:34:17Z</time></trkpt><trkpt lat="44.2031035310069" lon="8.073358961023413"><ele>1029.0</ele><time>2026-05-01T13:34:18Z</time></trkpt><trkpt lat="44.20320130867478" lon="8.073466428352027"><ele>1029.0</ele><time>2026-05-01T13:34:19Z</time></trkpt><trkpt lat="44.20332918782742" lon="8.073513553393331"><ele>1033.0</ele><time>2026-05-01T13:34:20Z</time></trkpt><trkpt lat="44.20348693135607" lon="8.073496272457321"><ele>1037.0</ele><time>2026-05-01T13:34:21Z</time></trkpt><trkpt lat="44.20364525656486" lon="8.07338671422189"><ele>1041.0</ele><time>2026-05-01T13:34:22Z</time></trkpt><trkpt lat="44.20377929204821" lon="8.073241716262462"><ele>1046.0</ele><time>2026-05-01T13:34:23Z</time></trkpt><trkpt lat="44.20385809593736" lon="8.073084107174656"><ele>1051.0</ele><time>2026-05-01T13:34:24Z</time></trkpt><trkpt lat="44.20394571736329" lon="8.072992232846344"><ele>1056.0</ele><time>2026-05-01T13:34:25Z</time></trkpt><trkpt lat="44.20408508559458" lon="8.072936863623148"><ele>1061.0</ele><time>2026-05-01T13:34:26Z</time></trkpt><trkpt lat="44.20423360614356" lon="8.073002402546189"><ele>1062.25</ele><time>2026-05-01T13:34:27Z</time></trkpt><trkpt lat="44.204377254430604" lon="8.073094041701236"><ele>1063.5</ele><time>2026-05-01T13:34:28Z</time></trkpt><trkpt lat="44.20452636654652" lon="8.073122519093488"><ele>1064.75</ele><time>2026-05-01T13:34:29Z</time></trkpt><trkpt lat="44.204649172651436" lon="8.0730863819013"><ele>1066.0</ele><time>2026-05-01T13:34:30Z</time></trkpt><trkpt lat="44.20473955769829" lon="8.073022762427902"><ele>1066.0</ele><time>2026-05-01T13:34:31Z</time></trkpt><trkpt lat="44.20479381742616" lon="8.072952786806605"><ele>1066.0</ele><time>2026-05-01T13:34:32Z</time></trkpt><trkpt lat="44.204767770192596" lon="8.072803373234981"><ele>1066.0</ele><time>2026-05-01T13:34:34Z</time></trkpt><trkpt lat="44.20469456330948" lon="8.072778411245059"><ele>1066.0</ele><time>2026-05-01T13:34:35Z</time></trkpt><trkpt lat="44.20459374177795" lon="8.07280980102973"><ele>1066.0</ele><time>2026-05-01T13:34:36Z</time></trkpt><trkpt lat="44.20448683979802" lon="8.07287598629636"><ele>1066.0</ele><time>2026-05-01T13:34:37Z</time></trkpt><trkpt lat="44.20435855036536" lon="8.07285536754684"><ele>1066.0</ele><time>2026-05-01T13:34:38Z</time></trkpt><trkpt lat="44.20421358233307" lon="8.072801242321006"><ele>1066.0</ele><time>2026-05-01T13:34:39Z</time></trkpt><trkpt lat="44.204060743853596" lon="8.072726862475594"><ele>1066.0</ele><time>2026-05-01T13:34:40Z</time></trkpt><trkpt lat="44.20393530050025" lon="8.072573430235927"><ele>1064.75</ele><time>2026-05-01T13:34:41Z</time></trkpt><trkpt lat="44.20377146236008" lon="8.072532034976483"><ele>1063.5</ele><time>2026-05-01T13:34:42Z</time></trkpt><trkpt lat="44.20360643932184" lon="8.072540693419649"><ele>1062.25</ele><time>2026-05-01T13:34:43Z</time></trkpt><trkpt lat="44.20349424881769" lon="8.07251820487571"><ele>1061.0</ele><time>2026-05-01T13:34:44Z</time></trkpt><trkpt lat="44.20340991813434" lon="8.072460540462504"><ele>1060.5</ele><time>2026-05-01T13:34:45Z</time></trkpt><trkpt lat="44.203349046304155" lon="8.072338492066251"><ele>1060.0</ele><time>2026-05-01T13:34:46Z</time></trkpt><trkpt lat="44.2032644519483" lon="8.072170138226541"><ele>1059.5</ele><time>2026-05-01T13:34:47Z</time></trkpt><trkpt lat="44.203152575753265" lon="8.072046423734237"><ele>1059.0</ele><time>2026-05-01T13:34:48Z</time></trkpt><trkpt lat="44.202997332588026" lon="8.072060237859036"><ele>1059.0</ele><time>2026-05-01T13:34:49Z</time></trkpt><trkpt lat="44.20289891375996" lon="8.072031868458199"><ele>1059.0</ele><time>2026-05-01T13:34:50Z</time></trkpt><trkpt lat="44.202808517048425" lon="8.07198392781234"><ele>1059.0</ele><time>2026-05-01T13:34:51Z</time></trkpt><trkpt lat="44.20277247702721" lon="8.071821684310276"><ele>1059.0</ele><time>2026-05-01T13:34:52Z</time></trkpt><trkpt lat="44.202735464801016" lon="8.07164426539056"><ele>1061.6666666666667</ele><time>2026-05-01T13:34:53Z</time></trkpt><trkpt lat="44.20269847410026" lon="8.071447991990311"><ele>1064.3333333333335</ele><time>2026-05-01T13:34:54Z</time></trkpt><trkpt lat="44.20277884533163" lon="8.071241937802618"><ele>1067.0</ele><time>2026-05-01T13:34:55Z</time></trkpt><trkpt lat="44.2028141841559" lon="8.070974043278166"><ele>1072.3333333333335</ele><time>2026-05-01T13:34:56Z</time></trkpt><trkpt lat="44.20280863242001" lon="8.070685601914192"><ele>1077.6666666666667</ele><time>2026-05-01T13:34:57Z</time></trkpt><trkpt lat="44.2027879141962" lon="8.0704201714936"><ele>1083.0</ele><time>2026-05-01T13:34:58Z</time></trkpt><trkpt lat="44.20265429293245" lon="8.070262526970865"><ele>1083.0</ele><time>2026-05-01T13:34:59Z</time></trkpt><trkpt lat="44.20262582901525" lon="8.070021431669135"><ele>1083.0</ele><time>2026-05-01T13:35:00Z</time></trkpt><trkpt lat="44.20258896984739" lon="8.069838280150814"><ele>1083.0</ele><time>2026-05-01T13:35:01Z</time></trkpt><trkpt lat="44.20251187321151" lon="8.06973372997851"><ele>1083.0</ele><time>2026-05-01T13:35:02Z</time></trkpt><trkpt lat="44.202385498568944" lon="8.069665150755814"><ele>1086.6666666666667</ele><time>2026-05-01T13:35:03Z</time></trkpt><trkpt lat="44.202292677260864" lon="8.069503014291604"><ele>1090.3333333333335</ele><time>2026-05-01T13:35:04Z</time></trkpt><trkpt lat="44.202278800832325" lon="8.06929799049946"><ele>1094.0</ele><time>2026-05-01T13:35:05Z</time></trkpt><trkpt lat="44.202247868102106" lon="8.069041563434245"><ele>1095.0</ele><time>2026-05-01T13:35:06Z</time></trkpt><trkpt lat="44.20223682417416" lon="8.068801891739934"><ele>1096.0</ele><time>2026-05-01T13:35:07Z</time></trkpt><trkpt lat="44.20225347873337" lon="8.068578892389116"><ele>1097.0</ele><time>2026-05-01T13:35:08Z</time></trkpt><trkpt lat="44.20231680575765" lon="8.068366169124188"><ele>1101.0</ele><time>2026-05-01T13:35:09Z</time></trkpt><trkpt lat="44.20240727574928" lon="8.068141848568246"><ele>1105.0</ele><time>2026-05-01T13:35:10Z</time></trkpt><trkpt lat="44.20249804682278" lon="8.067941163973913"><ele>1109.0</ele><time>2026-05-01T13:35:11Z</time></trkpt><trkpt lat="44.202549746408" lon="8.067814570278237"><ele>1109.0</ele><time>2026-05-01T13:35:12Z</time></trkpt><trkpt lat="44.202535237113075" lon="8.06772433682013"><ele>1109.0</ele><time>2026-05-01T13:35:13Z</time></trkpt><trkpt lat="44.202460978214354" lon="8.06766156705041"><ele>1109.0</ele><time>2026-05-01T13:35:14Z</time></trkpt><trkpt lat="44.20235728038237" lon="8.067657834407703"><ele>1109.0</ele><time>2026-05-01T13:35:15Z</time></trkpt><trkpt lat="44.20223549861151" lon="8.067709967072567"><ele>1109.0</ele><time>2026-05-01T13:35:16Z</time></trkpt><trkpt lat="44.20209892115154" lon="8.067798417951924"><ele>1106.8</ele><time>2026-05-01T13:35:17Z</time></trkpt><trkpt lat="44.201966318053664" lon="8.067855958164799"><ele>1104.6000000000001</ele><time>2026-05-01T13:35:18Z</time></trkpt><trkpt lat="44.20185964047763" lon="8.067882846401782"><ele>1102.4</ele><time>2026-05-01T13:35:19Z</time></trkpt><trkpt lat="44.201769972127174" lon="8.067885058884931"><ele>1100.2</ele><time>2026-05-01T13:35:20Z</time></trkpt><trkpt lat="44.20168777609698" lon="8.06787175052224"><ele>1098.0</ele><time>2026-05-01T13:35:21Z</time></trkpt><trkpt lat="44.201640266763405" lon="8.067792359831712"><ele>1098.0</ele><time>2026-05-01T13:35:22Z</time></trkpt><trkpt lat="44.20161968492145" lon="8.067681773077762"><ele>1098.0</ele><time>2026-05-01T13:35:23Z</time></trkpt><trkpt lat="44.201612137309496" lon="8.067553807454873"><ele>1098.0</ele><time>2026-05-01T13:35:24Z</time></trkpt><trkpt lat="44.20160485009079" lon="8.067425196742072"><ele>1098.0</ele><time>2026-05-01T13:35:25Z</time></trkpt><trkpt lat="44.20159557709203" lon="8.06729262842269"><ele>1098.0</ele><time>2026-05-01T13:35:26Z</time></trkpt><trkpt lat="44.20158442760776" lon="8.067155279057772"><ele>1098.5</ele><time>2026-05-01T13:35:27Z</time></trkpt><trkpt lat="44.201575164685885" lon="8.067008068857731"><ele>1099.0</ele><time>2026-05-01T13:35:28Z</time></trkpt><trkpt lat="44.201565636939705" lon="8.066849058618853"><ele>1099.5</ele><time>2026-05-01T13:35:29Z</time></trkpt><trkpt lat="44.20155829636215" lon="8.066671899257306"><ele>1100.0</ele><time>2026-05-01T13:35:30Z</time></trkpt><trkpt lat="44.201556944615795" lon="8.066480176161335"><ele>1100.0</ele><time>2026-05-01T13:35:31Z</time></trkpt><trkpt lat="44.20156771145901" lon="8.06627215035146"><ele>1100.0</ele><time>2026-05-01T13:35:32Z</time></trkpt><trkpt lat="44.20155375825082" lon="8.066055309643058"><ele>1100.0</ele><time>2026-05-01T13:35:33Z</time></trkpt><trkpt lat="44.20150044230814" lon="8.065865512672074"><ele>1095.75</ele><time>2026-05-01T13:35:34Z</time></trkpt><trkpt lat="44.20146964088313" lon="8.065696909146913"><ele>1091.5</ele><time>2026-05-01T13:35:35Z</time></trkpt><trkpt lat="44.201504111909045" lon="8.065532261351843"><ele>1087.25</ele><time>2026-05-01T13:35:36Z</time></trkpt><trkpt lat="44.201539210917" lon="8.06534954370933"><ele>1083.0</ele><time>2026-05-01T13:35:37Z</time></trkpt><trkpt lat="44.201575937400875" lon="8.065172966333643"><ele>1083.0</ele><time>2026-05-01T13:35:38Z</time></trkpt><trkpt lat="44.20163193809202" lon="8.065020223879552"><ele>1083.0</ele><time>2026-05-01T13:35:39Z</time></trkpt><trkpt lat="44.201719311706825" lon="8.064897343260032"><ele>1083.0</ele><time>2026-05-01T13:35:40Z</time></trkpt><trkpt lat="44.20183966305019" lon="8.06483105950835"><ele>1083.0</ele><time>2026-05-01T13:35:41Z</time></trkpt><trkpt lat="44.20198919190199" lon="8.064794543098554"><ele>1075.75</ele><time>2026-05-01T13:35:42Z</time></trkpt><trkpt lat="44.20213490300445" lon="8.064749905308066"><ele>1068.5</ele><time>2026-05-01T13:35:43Z</time></trkpt><trkpt lat="44.20227436434564" lon="8.064753311758244"><ele>1061.25</ele><time>2026-05-01T13:35:44Z</time></trkpt><trkpt lat="44.202405423346015" lon="8.064774350336432"><ele>1054.0</ele><time>2026-05-01T13:35:45Z</time></trkpt><trkpt lat="44.20253636881505" lon="8.064796020198157"><ele>1054.0</ele><time>2026-05-01T13:35:46Z</time></trkpt><trkpt lat="44.20266548784845" lon="8.06479875053014"><ele>1054.0</ele><time>2026-05-01T13:35:47Z</time></trkpt><trkpt lat="44.20280075693298" lon="8.064786088808988"><ele>1054.0</ele><time>2026-05-01T13:35:48Z</time></trkpt><trkpt lat="44.2029577648881" lon="8.064771312437736"><ele>1054.0</ele><time>2026-05-01T13:35:49Z</time></trkpt><trkpt lat="44.203116867663475" lon="8.06476997080858"><ele>1060.4</ele><time>2026-05-01T13:35:50Z</time></trkpt><trkpt lat="44.20323464667173" lon="8.064747919145256"><ele>1066.8000000000002</ele><time>2026-05-01T13:35:51Z</time></trkpt><trkpt lat="44.203309362154634" lon="8.064694849037203"><ele>1073.1999999999998</ele><time>2026-05-01T13:35:52Z</time></trkpt><trkpt lat="44.203335475163584" lon="8.064578041548927"><ele>1079.6</ele><time>2026-05-01T13:35:53Z</time></trkpt><trkpt lat="44.2033300622023" lon="8.064436738816616"><ele>1086.0</ele><time>2026-05-01T13:35:54Z</time></trkpt><trkpt lat="44.203279291548206" lon="8.064273970524507"><ele>1084.0</ele><time>2026-05-01T13:35:55Z</time></trkpt><trkpt lat="44.203191644293334" lon="8.06409570772199"><ele>1082.0</ele><time>2026-05-01T13:35:56Z</time></trkpt><trkpt lat="44.20317121308535" lon="8.063877286941118"><ele>1080.0</ele><time>2026-05-01T13:35:57Z</time></trkpt><trkpt lat="44.20316913547032" lon="8.063658590978223"><ele>1080.0</ele><time>2026-05-01T13:35:58Z</time></trkpt><trkpt lat="44.20318490892492" lon="8.06345452726437"><ele>1080.0</ele><time>2026-05-01T13:35:59Z</time></trkpt><trkpt lat="44.20320680904024" lon="8.063267800526793"><ele>1080.0</ele><time>2026-05-01T13:36:00Z</time></trkpt><trkpt lat="44.20322817085013" lon="8.063076478727577"><ele>1080.0</ele><time>2026-05-01T13:36:01Z</time></trkpt><trkpt lat="44.203266049313555" lon="8.062863098245275"><ele>1080.0</ele><time>2026-05-01T13:36:02Z</time></trkpt><trkpt lat="44.20327538200009" lon="8.062647708592513"><ele>1080.0</ele><time>2026-05-01T13:36:03Z</time></trkpt><trkpt lat="44.20326154225594" lon="8.062457810557687"><ele>1080.0</ele><time>2026-05-01T13:36:04Z</time></trkpt><trkpt lat="44.203159859016274" lon="8.062292697191948"><ele>1080.0</ele><time>2026-05-01T13:36:05Z</time></trkpt><trkpt lat="44.20305028455031" lon="8.06214668674051"><ele>1070.2</ele><time>2026-05-01T13:36:06Z</time></trkpt><trkpt lat="44.20296561735766" lon="8.062034033321327"><ele>1060.4</ele><time>2026-05-01T13:36:07Z</time></trkpt><trkpt lat="44.2029297846445" lon="8.061923185424863"><ele>1050.6</ele><time>2026-05-01T13:36:08Z</time></trkpt><trkpt lat="44.202959207037935" lon="8.061820541326494"><ele>1040.8</ele><time>2026-05-01T13:36:09Z</time></trkpt><trkpt lat="44.20305066502164" lon="8.061719721911885"><ele>1031.0</ele><time>2026-05-01T13:36:10Z</time></trkpt><trkpt lat="44.203130718956004" lon="8.061557282207504"><ele>1040.6666666666667</ele><time>2026-05-01T13:36:11Z</time></trkpt><trkpt lat="44.20320913676446" lon="8.061375593138443"><ele>1050.3333333333333</ele><time>2026-05-01T13:36:12Z</time></trkpt><trkpt lat="44.20326189993807" lon="8.061156140146972"><ele>1060.0</ele><time>2026-05-01T13:36:13Z</time></trkpt><trkpt lat="44.20329968464742" lon="8.060921840157256"><ele>1058.6666666666665</ele><time>2026-05-01T13:36:14Z</time></trkpt><trkpt lat="44.20333402293235" lon="8.06069764654896"><ele>1057.3333333333333</ele><time>2026-05-01T13:36:15Z</time></trkpt><trkpt lat="44.20341147512808" lon="8.06050982836122"><ele>1056.0</ele><time>2026-05-01T13:36:16Z</time></trkpt><trkpt lat="44.203515539909674" lon="8.0603830849372"><ele>1056.0</ele><time>2026-05-01T13:36:17Z</time></trkpt><trkpt lat="44.20365247928111" lon="8.060298878231361"><ele>1056.0</ele><time>2026-05-01T13:36:18Z</time></trkpt><trkpt lat="44.203762879331016" lon="8.06022148479676"><ele>1056.0</ele><time>2026-05-01T13:36:19Z</time></trkpt><trkpt lat="44.20382802141206" lon="8.060118311113316"><ele>1056.0</ele><time>2026-05-01T13:36:20Z</time></trkpt><trkpt lat="44.20380579054137" lon="8.059995291692958"><ele>1063.0</ele><time>2026-05-01T13:36:21Z</time></trkpt><trkpt lat="44.203740878219236" lon="8.059877682196207"><ele>1070.0</ele><time>2026-05-01T13:36:22Z</time></trkpt><trkpt lat="44.20360808996502" lon="8.059830053956533"><ele>1077.0</ele><time>2026-05-01T13:36:23Z</time></trkpt><trkpt lat="44.20344623818988" lon="8.059715516465376"><ele>1084.0</ele><time>2026-05-01T13:36:24Z</time></trkpt><trkpt lat="44.20330689621089" lon="8.059551155961994"><ele>1078.6666666666665</ele><time>2026-05-01T13:36:25Z</time></trkpt><trkpt lat="44.20315257041499" lon="8.059474877277294"><ele>1073.3333333333333</ele><time>2026-05-01T13:36:26Z</time></trkpt><trkpt lat="44.20297575610347" lon="8.059450516678044"><ele>1068.0</ele><time>2026-05-01T13:36:27Z</time></trkpt><trkpt lat="44.20278616221918" lon="8.059487076790953"><ele>1068.0</ele><time>2026-05-01T13:36:28Z</time></trkpt><trkpt lat="44.20262784604096" lon="8.05952850385696"><ele>1068.0</ele><time>2026-05-01T13:36:29Z</time></trkpt><trkpt lat="44.202525689213545" lon="8.0595433437342"><ele>1068.0</ele><time>2026-05-01T13:36:30Z</time></trkpt><trkpt lat="44.20250830107934" lon="8.059397378156548"><ele>1068.0</ele><time>2026-05-01T13:36:31Z</time></trkpt><trkpt lat="44.20242887540268" lon="8.05929950216604"><ele>1061.25</ele><time>2026-05-01T13:36:32Z</time></trkpt><trkpt lat="44.20231904429047" lon="8.059255816921835"><ele>1054.5</ele><time>2026-05-01T13:36:33Z</time></trkpt><trkpt lat="44.20215838360386" lon="8.059274364102128"><ele>1047.75</ele><time>2026-05-01T13:36:34Z</time></trkpt><trkpt lat="44.20200294762386" lon="8.059306147571672"><ele>1041.0</ele><time>2026-05-01T13:36:35Z</time></trkpt><trkpt lat="44.201842370986704" lon="8.059300696681392"><ele>1041.0</ele><time>2026-05-01T13:36:36Z</time></trkpt><trkpt lat="44.20170255887314" lon="8.059263172646443"><ele>1041.0</ele><time>2026-05-01T13:36:37Z</time></trkpt><trkpt lat="44.20161985103592" lon="8.05921306010601"><ele>1041.0</ele><time>2026-05-01T13:36:38Z</time></trkpt><trkpt lat="44.201602735957714" lon="8.059039436935825"><ele>1041.0</ele><time>2026-05-01T13:36:40Z</time></trkpt><trkpt lat="44.2016531554586" lon="8.058889069642941"><ele>1043.0</ele><time>2026-05-01T13:36:41Z</time></trkpt><trkpt lat="44.20170472195531" lon="8.05870500767168"><ele>1045.0</ele><time>2026-05-01T13:36:42Z</time></trkpt><trkpt lat="44.201702116896215" lon="8.058521667049634"><ele>1047.0</ele><time>2026-05-01T13:36:43Z</time></trkpt><trkpt lat="44.20162605933644" lon="8.0583667853982"><ele>1049.0</ele><time>2026-05-01T13:36:44Z</time></trkpt><trkpt lat="44.20150873278125" lon="8.058241696120785"><ele>1039.25</ele><time>2026-05-01T13:36:45Z</time></trkpt><trkpt lat="44.20139078789468" lon="8.058124649826489"><ele>1029.5</ele><time>2026-05-01T13:36:46Z</time></trkpt><trkpt lat="44.20132915086138" lon="8.057988554521794"><ele>1019.75</ele><time>2026-05-01T13:36:47Z</time></trkpt><trkpt lat="44.20132036093395" lon="8.057833779211881"><ele>1010.0</ele><time>2026-05-01T13:36:48Z</time></trkpt><trkpt lat="44.201307793966805" lon="8.057628331799856"><ele>1013.3333333333334</ele><time>2026-05-01T13:36:49Z</time></trkpt><trkpt lat="44.20126693476587" lon="8.05741194680074"><ele>1016.6666666666667</ele><time>2026-05-01T13:36:50Z</time></trkpt><trkpt lat="44.201144919294286" lon="8.057248626831926"><ele>1020.0</ele><time>2026-05-01T13:36:51Z</time></trkpt><trkpt lat="44.2010008956356" lon="8.057093753138728"><ele>1020.0</ele><time>2026-05-01T13:36:52Z</time></trkpt><trkpt lat="44.200920131795336" lon="8.05689094765511"><ele>1020.0</ele><time>2026-05-01T13:36:53Z</time></trkpt><trkpt lat="44.20086292358563" lon="8.056703460916777"><ele>1020.0</ele><time>2026-05-01T13:36:54Z</time></trkpt><trkpt lat="44.20085008336705" lon="8.05651298124042"><ele>1016.6666666666667</ele><time>2026-05-01T13:36:55Z</time></trkpt><trkpt lat="44.200850671509414" lon="8.056302154857256"><ele>1013.3333333333334</ele><time>2026-05-01T13:36:56Z</time></trkpt><trkpt lat="44.20087717542483" lon="8.056064551230456"><ele>1010.0</ele><time>2026-05-01T13:36:57Z</time></trkpt><trkpt lat="44.200881511300665" lon="8.055810075688564"><ele>1002.0</ele><time>2026-05-01T13:36:58Z</time></trkpt><trkpt lat="44.20089899725035" lon="8.055559112334604"><ele>994.0</ele><time>2026-05-01T13:36:59Z</time></trkpt><trkpt lat="44.20093051554446" lon="8.055349802649124"><ele>986.0</ele><time>2026-05-01T13:37:00Z</time></trkpt><trkpt lat="44.20097587439046" lon="8.055185182610444"><ele>986.0</ele><time>2026-05-01T13:37:01Z</time></trkpt><trkpt lat="44.201042876159256" lon="8.055078256685801"><ele>985.9999999999999</ele><time>2026-05-01T13:37:02Z</time></trkpt><trkpt lat="44.20113179683261" lon="8.055039027116903"><ele>985.9999999999999</ele><time>2026-05-01T13:37:03Z</time></trkpt><trkpt lat="44.20122628172762" lon="8.055105371899744"><ele>986.0</ele><time>2026-05-01T13:37:04Z</time></trkpt><trkpt lat="44.20133720155315" lon="8.055101827338772"><ele>986.0</ele><time>2026-05-01T13:37:05Z</time></trkpt><trkpt lat="44.20146218632852" lon="8.055081810088826"><ele>987.0</ele><time>2026-05-01T13:37:06Z</time></trkpt><trkpt lat="44.201531388552965" lon="8.054903956813378"><ele>988.0</ele><time>2026-05-01T13:37:07Z</time></trkpt><trkpt lat="44.20160751473631" lon="8.054693172594472"><ele>989.0</ele><time>2026-05-01T13:37:08Z</time></trkpt><trkpt lat="44.20167142452184" lon="8.054468136572353"><ele>989.0</ele><time>2026-05-01T13:37:09Z</time></trkpt><trkpt lat="44.20170235641202" lon="8.054261366566134"><ele>989.0</ele><time>2026-05-01T13:37:10Z</time></trkpt><trkpt lat="44.201697568064745" lon="8.054077984063396"><ele>989.0</ele><time>2026-05-01T13:37:11Z</time></trkpt><trkpt lat="44.20173607498415" lon="8.053935690268148"><ele>989.0</ele><time>2026-05-01T13:37:12Z</time></trkpt><trkpt lat="44.20180750208624" lon="8.053792370219623"><ele>985.8000000000001</ele><time>2026-05-01T13:37:13Z</time></trkpt><trkpt lat="44.20191069064754" lon="8.053708677830608"><ele>982.6000000000001</ele><time>2026-05-01T13:37:14Z</time></trkpt><trkpt lat="44.20198314444742" lon="8.05361657492463"><ele>979.4</ele><time>2026-05-01T13:37:15Z</time></trkpt><trkpt lat="44.20202828532706" lon="8.053520655368818"><ele>976.2</ele><time>2026-05-01T13:37:16Z</time></trkpt><trkpt lat="44.20201283691961" lon="8.053348239577668"><ele>973.0</ele><time>2026-05-01T13:37:17Z</time></trkpt><trkpt lat="44.20194390929997" lon="8.053148471009333"><ele>971.0</ele><time>2026-05-01T13:37:18Z</time></trkpt><trkpt lat="44.20191615546459" lon="8.05296722151525"><ele>969.0</ele><time>2026-05-01T13:37:19Z</time></trkpt><trkpt lat="44.20197108132876" lon="8.052793094334525"><ele>967.0</ele><time>2026-05-01T13:37:20Z</time></trkpt><trkpt lat="44.202019252447975" lon="8.052576555712154"><ele>965.0</ele><time>2026-05-01T13:37:21Z</time></trkpt><trkpt lat="44.202050252766796" lon="8.052316212484959"><ele>962.3333333333334</ele><time>2026-05-01T13:37:22Z</time></trkpt><trkpt lat="44.20203287661623" lon="8.052037712990703"><ele>959.6666666666667</ele><time>2026-05-01T13:37:23Z</time></trkpt><trkpt lat="44.20201289598682" lon="8.051765702168803"><ele>957.0</ele><time>2026-05-01T13:37:24Z</time></trkpt><trkpt lat="44.202007992349515" lon="8.051488942498658"><ele>954.3333333333333</ele><time>2026-05-01T13:37:25Z</time></trkpt><trkpt lat="44.20202326182224" lon="8.05123119316543"><ele>951.6666666666666</ele><time>2026-05-01T13:37:26Z</time></trkpt><trkpt lat="44.20205110759274" lon="8.050976435549202"><ele>949.0</ele><time>2026-05-01T13:37:27Z</time></trkpt><trkpt lat="44.202097522784186" lon="8.050734759934791"><ele>945.3333333333333</ele><time>2026-05-01T13:37:28Z</time></trkpt><trkpt lat="44.20216459811492" lon="8.05050581000367"><ele>941.6666666666667</ele><time>2026-05-01T13:37:29Z</time></trkpt><trkpt lat="44.20225593451836" lon="8.05025656945114"><ele>938.0</ele><time>2026-05-01T13:37:30Z</time></trkpt><trkpt lat="44.20235188065485" lon="8.050011343654127"><ele>938.6666666666667</ele><time>2026-05-01T13:37:31Z</time></trkpt><trkpt lat="44.20244944245428" lon="8.04981888410955"><ele>939.3333333333333</ele><time>2026-05-01T13:37:32Z</time></trkpt><trkpt lat="44.202562044056556" lon="8.04966384279934"><ele>940.0</ele><time>2026-05-01T13:37:33Z</time></trkpt><trkpt lat="44.202682262925755" lon="8.049544362297306"><ele>940.0</ele><time>2026-05-01T13:37:34Z</time></trkpt><trkpt lat="44.20282417893646" lon="8.049514851028798"><ele>940.0</ele><time>2026-05-01T13:37:35Z</time></trkpt><trkpt lat="44.20296293225408" lon="8.049516642984406"><ele>940.0</ele><time>2026-05-01T13:37:36Z</time></trkpt><trkpt lat="44.20312025684158" lon="8.049561851605944"><ele>940.0</ele><time>2026-05-01T13:37:37Z</time></trkpt><trkpt lat="44.203275809340646" lon="8.049642698776701"><ele>938.3333333333333</ele><time>2026-05-01T13:37:38Z</time></trkpt><trkpt lat="44.20341641607852" lon="8.049765960364118"><ele>936.6666666666667</ele><time>2026-05-01T13:37:39Z</time></trkpt><trkpt lat="44.203549158705535" lon="8.049914511048282"><ele>935.0</ele><time>2026-05-01T13:37:40Z</time></trkpt><trkpt lat="44.20365092793957" lon="8.050001667650715"><ele>935.0</ele><time>2026-05-01T13:37:41Z</time></trkpt><trkpt lat="44.203717807999205" lon="8.050031873317721"><ele>935.0</ele><time>2026-05-01T13:37:42Z</time></trkpt><trkpt lat="44.203774308165116" lon="8.049850156776023"><ele>935.0</ele><time>2026-05-01T13:37:44Z</time></trkpt><trkpt lat="44.20373422302318" lon="8.04973191891862"><ele>935.0</ele><time>2026-05-01T13:37:45Z</time></trkpt><trkpt lat="44.203641266196854" lon="8.049607526062065"><ele>935.0</ele><time>2026-05-01T13:37:46Z</time></trkpt><trkpt lat="44.2034923675357" lon="8.04944500495504"><ele>935.0</ele><time>2026-05-01T13:37:47Z</time></trkpt><trkpt lat="44.20336627234495" lon="8.049275986324142"><ele>935.0</ele><time>2026-05-01T13:37:48Z</time></trkpt><trkpt lat="44.20325553786673" lon="8.049114969100138"><ele>935.0</ele><time>2026-05-01T13:37:49Z</time></trkpt><trkpt lat="44.20311543747029" lon="8.048955380581475"><ele>930.3333333333334</ele><time>2026-05-01T13:37:50Z</time></trkpt><trkpt lat="44.20292796258679" lon="8.048828484756898"><ele>925.6666666666667</ele><time>2026-05-01T13:37:51Z</time></trkpt><trkpt lat="44.20276578541902" lon="8.048737208656258"><ele>921.0</ele><time>2026-05-01T13:37:52Z</time></trkpt><trkpt lat="44.2026401517313" lon="8.048632420549591"><ele>921.0</ele><time>2026-05-01T13:37:53Z</time></trkpt><trkpt lat="44.202566857346625" lon="8.048475349309614"><ele>921.0</ele><time>2026-05-01T13:37:54Z</time></trkpt><trkpt lat="44.202480398939485" lon="8.048377145699416"><ele>921.0</ele><time>2026-05-01T13:37:55Z</time></trkpt><trkpt lat="44.202362130160274" lon="8.04832792195939"><ele>921.0</ele><time>2026-05-01T13:37:56Z</time></trkpt><trkpt lat="44.20227574042636" lon="8.048414131226918"><ele>918.25</ele><time>2026-05-01T13:37:57Z</time></trkpt><trkpt lat="44.202142764957266" lon="8.048513792045071"><ele>915.5</ele><time>2026-05-01T13:37:58Z</time></trkpt><trkpt lat="44.20200584449336" lon="8.048618997053927"><ele>912.75</ele><time>2026-05-01T13:37:59Z</time></trkpt><trkpt lat="44.201881943358664" lon="8.048712559267331"><ele>910.0</ele><time>2026-05-01T13:38:00Z</time></trkpt><trkpt lat="44.201757065901425" lon="8.048741430783217"><ele>910.0</ele><time>2026-05-01T13:38:01Z</time></trkpt><trkpt lat="44.20163729175385" lon="8.048766075502506"><ele>910.0</ele><time>2026-05-01T13:38:02Z</time></trkpt><trkpt lat="44.2014872965258" lon="8.048790057013655"><ele>910.0</ele><time>2026-05-01T13:38:03Z</time></trkpt><trkpt lat="44.20131651555995" lon="8.04883518736501"><ele>910.0</ele><time>2026-05-01T13:38:04Z</time></trkpt><trkpt lat="44.201162215946276" lon="8.048857208162731"><ele>908.75</ele><time>2026-05-01T13:38:05Z</time></trkpt><trkpt lat="44.20102720677242" lon="8.048944542565584"><ele>907.5</ele><time>2026-05-01T13:38:06Z</time></trkpt><trkpt lat="44.20092231132246" lon="8.049086875675009"><ele>906.25</ele><time>2026-05-01T13:38:07Z</time></trkpt><trkpt lat="44.20089553279824" lon="8.049285296910236"><ele>905.0</ele><time>2026-05-01T13:38:08Z</time></trkpt><trkpt lat="44.20084413257921" lon="8.049485809150433"><ele>905.0</ele><time>2026-05-01T13:38:09Z</time></trkpt><trkpt lat="44.20077918073504" lon="8.049671376373196"><ele>905.0</ele><time>2026-05-01T13:38:10Z</time></trkpt><trkpt lat="44.20070802480708" lon="8.049821871232329"><ele>905.0</ele><time>2026-05-01T13:38:11Z</time></trkpt><trkpt lat="44.200697914574" lon="8.049992195169168"><ele>905.0</ele><time>2026-05-01T13:38:12Z</time></trkpt><trkpt lat="44.20074302870131" lon="8.05016153830844"><ele>905.2</ele><time>2026-05-01T13:38:13Z</time></trkpt><trkpt lat="44.20076235409542" lon="8.05032825956122"><ele>905.4</ele><time>2026-05-01T13:38:14Z</time></trkpt><trkpt lat="44.200734275810454" lon="8.050442830741558"><ele>905.5999999999999</ele><time>2026-05-01T13:38:15Z</time></trkpt><trkpt lat="44.200667164566894" lon="8.050477391349112"><ele>905.8</ele><time>2026-05-01T13:38:16Z</time></trkpt><trkpt lat="44.20057508835673" lon="8.050425853520151"><ele>906.0</ele><time>2026-05-01T13:38:18Z</time></trkpt><trkpt lat="44.20055982191478" lon="8.05018035764831"><ele>899.25</ele><time>2026-05-01T13:38:19Z</time></trkpt><trkpt lat="44.200494966242644" lon="8.05001143779004"><ele>892.5</ele><time>2026-05-01T13:38:20Z</time></trkpt><trkpt lat="44.20038991978402" lon="8.049857759626658"><ele>885.75</ele><time>2026-05-01T13:38:21Z</time></trkpt><trkpt lat="44.20030087724535" lon="8.049695188879072"><ele>879.0</ele><time>2026-05-01T13:38:22Z</time></trkpt><trkpt lat="44.20029561014759" lon="8.049488332992077"><ele>877.6666666666667</ele><time>2026-05-01T13:38:23Z</time></trkpt><trkpt lat="44.20026891685989" lon="8.049249506714961"><ele>876.3333333333334</ele><time>2026-05-01T13:38:24Z</time></trkpt><trkpt lat="44.200290157627954" lon="8.049008265347814"><ele>875.0</ele><time>2026-05-01T13:38:25Z</time></trkpt><trkpt lat="44.20031152686728" lon="8.048773328694827"><ele>874.6666666666667</ele><time>2026-05-01T13:38:26Z</time></trkpt><trkpt lat="44.20028372013183" lon="8.048538510943139"><ele>874.3333333333333</ele><time>2026-05-01T13:38:27Z</time></trkpt><trkpt lat="44.20019818430186" lon="8.048305788353435"><ele>874.0</ele><time>2026-05-01T13:38:28Z</time></trkpt><trkpt lat="44.200095911927754" lon="8.048112386359922"><ele>872.75</ele><time>2026-05-01T13:38:29Z</time></trkpt><trkpt lat="44.20003558758115" lon="8.047962184493674"><ele>871.5</ele><time>2026-05-01T13:38:30Z</time></trkpt><trkpt lat="44.20004859971498" lon="8.04778066526324"><ele>870.25</ele><time>2026-05-01T13:38:31Z</time></trkpt><trkpt lat="44.200046312751816" lon="8.04757027721106"><ele>869.0</ele><time>2026-05-01T13:38:32Z</time></trkpt><trkpt lat="44.200092485822104" lon="8.047394474308529"><ele>867.6</ele><time>2026-05-01T13:38:33Z</time></trkpt><trkpt lat="44.200196099602024" lon="8.04729519415428"><ele>866.2</ele><time>2026-05-01T13:38:34Z</time></trkpt><trkpt lat="44.20025713430537" lon="8.047209836251408"><ele>864.8000000000001</ele><time>2026-05-01T13:38:35Z</time></trkpt><trkpt lat="44.20024144924245" lon="8.047057466113264"><ele>863.4000000000001</ele><time>2026-05-01T13:38:37Z</time></trkpt><trkpt lat="44.200151654298566" lon="8.047015542403475"><ele>862.0</ele><time>2026-05-01T13:38:38Z</time></trkpt><trkpt lat="44.20003806330672" lon="8.047142459641853"><ele>862.0</ele><time>2026-05-01T13:38:39Z</time></trkpt><trkpt lat="44.199934769615986" lon="8.047280273476218"><ele>862.0</ele><time>2026-05-01T13:38:40Z</time></trkpt><trkpt lat="44.19981240074958" lon="8.047440445888048"><ele>862.0</ele><time>2026-05-01T13:38:41Z</time></trkpt><trkpt lat="44.19966946572939" lon="8.047600358512327"><ele>857.6666666666666</ele><time>2026-05-01T13:38:42Z</time></trkpt><trkpt lat="44.199530999726385" lon="8.047728205951625"><ele>853.3333333333333</ele><time>2026-05-01T13:38:43Z</time></trkpt><trkpt lat="44.19942135546127" lon="8.047881705094213"><ele>849.0</ele><time>2026-05-01T13:38:44Z</time></trkpt><trkpt lat="44.1993271567788" lon="8.048042855373579"><ele>849.0</ele><time>2026-05-01T13:38:45Z</time></trkpt><trkpt lat="44.199279203415706" lon="8.048209659641412"><ele>849.0</ele><time>2026-05-01T13:38:46Z</time></trkpt><trkpt lat="44.1992791534788" lon="8.04839287487586"><ele>849.0</ele><time>2026-05-01T13:38:47Z</time></trkpt><trkpt lat="44.19930966021378" lon="8.048565847269668"><ele>849.0</ele><time>2026-05-01T13:38:48Z</time></trkpt><trkpt lat="44.19930495298452" lon="8.048693397754805"><ele>850.25</ele><time>2026-05-01T13:38:49Z</time></trkpt><trkpt lat="44.19921682010896" lon="8.048758830376643"><ele>851.5</ele><time>2026-05-01T13:38:51Z</time></trkpt><trkpt lat="44.199129766924244" lon="8.048686691460858"><ele>852.75</ele><time>2026-05-01T13:38:52Z</time></trkpt><trkpt lat="44.19907445052675" lon="8.0484893649777"><ele>854.0</ele><time>2026-05-01T13:38:53Z</time></trkpt><trkpt lat="44.19901218095864" lon="8.04829437288121"><ele>852.75</ele><time>2026-05-01T13:38:54Z</time></trkpt><trkpt lat="44.19896417169055" lon="8.04812207427805"><ele>851.5</ele><time>2026-05-01T13:38:55Z</time></trkpt><trkpt lat="44.19900780653415" lon="8.0479598631845"><ele>850.25</ele><time>2026-05-01T13:38:56Z</time></trkpt><trkpt lat="44.199078974049485" lon="8.047806194982574"><ele>849.0</ele><time>2026-05-01T13:38:57Z</time></trkpt><trkpt lat="44.19914526936261" lon="8.047606965695751"><ele>847.0</ele><time>2026-05-01T13:38:58Z</time></trkpt><trkpt lat="44.199200795351125" lon="8.047408192066447"><ele>845.0</ele><time>2026-05-01T13:38:59Z</time></trkpt><trkpt lat="44.19914555980742" lon="8.047181454528337"><ele>843.0</ele><time>2026-05-01T13:39:00Z</time></trkpt><trkpt lat="44.199048382957336" lon="8.046953149014925"><ele>835.6666666666667</ele><time>2026-05-01T13:39:01Z</time></trkpt><trkpt lat="44.19894553484642" lon="8.046714758222693"><ele>828.3333333333334</ele><time>2026-05-01T13:39:02Z</time></trkpt><trkpt lat="44.198904862758056" lon="8.04647637387312"><ele>821.0</ele><time>2026-05-01T13:39:03Z</time></trkpt><trkpt lat="44.198878268335044" lon="8.046227632999614"><ele>819.25</ele><time>2026-05-01T13:39:04Z</time></trkpt><trkpt lat="44.19883741607536" lon="8.045988854416116"><ele>817.5</ele><time>2026-05-01T13:39:05Z</time></trkpt><trkpt lat="44.198814837900656" lon="8.045779408416443"><ele>815.75</ele><time>2026-05-01T13:39:06Z</time></trkpt><trkpt lat="44.198831137479125" lon="8.045625091505142"><ele>814.0</ele><time>2026-05-01T13:39:07Z</time></trkpt><trkpt lat="44.19889941423443" lon="8.045521231749118"><ele>815.0</ele><time>2026-05-01T13:39:08Z</time></trkpt><trkpt lat="44.199024347060956" lon="8.045447577567941"><ele>816.0</ele><time>2026-05-01T13:39:09Z</time></trkpt><trkpt lat="44.199172994048965" lon="8.045346179237127"><ele>817.0</ele><time>2026-05-01T13:39:10Z</time></trkpt><trkpt lat="44.19934064794041" lon="8.045257669748764"><ele>817.0</ele><time>2026-05-01T13:39:11Z</time></trkpt><trkpt lat="44.199504313799785" lon="8.045130799477406"><ele>817.0</ele><time>2026-05-01T13:39:12Z</time></trkpt><trkpt lat="44.199635815140105" lon="8.044980784463611"><ele>817.0</ele><time>2026-05-01T13:39:13Z</time></trkpt><trkpt lat="44.19975486309809" lon="8.044810608204028"><ele>815.6666666666666</ele><time>2026-05-01T13:39:14Z</time></trkpt><trkpt lat="44.19985699502126" lon="8.044636561239088"><ele>814.3333333333333</ele><time>2026-05-01T13:39:15Z</time></trkpt><trkpt lat="44.19994996052934" lon="8.044458849154742"><ele>813.0</ele><time>2026-05-01T13:39:16Z</time></trkpt><trkpt lat="44.200012886535944" lon="8.044260391180199"><ele>811.25</ele><time>2026-05-01T13:39:17Z</time></trkpt><trkpt lat="44.200019081466564" lon="8.044036685407102"><ele>809.5</ele><time>2026-05-01T13:39:18Z</time></trkpt><trkpt lat="44.19999020075458" lon="8.043829460314768"><ele>807.75</ele><time>2026-05-01T13:39:19Z</time></trkpt><trkpt lat="44.19997106689787" lon="8.043658921339345"><ele>806.0</ele><time>2026-05-01T13:39:20Z</time></trkpt><trkpt lat="44.20002226654292" lon="8.04351374864034"><ele>806.0</ele><time>2026-05-01T13:39:21Z</time></trkpt><trkpt lat="44.20010334622995" lon="8.043411911850274"><ele>806.0</ele><time>2026-05-01T13:39:22Z</time></trkpt><trkpt lat="44.200183834246516" lon="8.043236804239843"><ele>806.0</ele><time>2026-05-01T13:39:23Z</time></trkpt><trkpt lat="44.20026551114166" lon="8.04303926227127"><ele>806.0</ele><time>2026-05-01T13:39:24Z</time></trkpt><trkpt lat="44.20031173785415" lon="8.04280277808253"><ele>802.5</ele><time>2026-05-01T13:39:25Z</time></trkpt><trkpt lat="44.200386452997904" lon="8.042606619969648"><ele>799.0</ele><time>2026-05-01T13:39:26Z</time></trkpt><trkpt lat="44.200487876760846" lon="8.042454835984067"><ele>795.5</ele><time>2026-05-01T13:39:27Z</time></trkpt><trkpt lat="44.20057858188748" lon="8.042305063666074"><ele>792.0</ele><time>2026-05-01T13:39:28Z</time></trkpt><trkpt lat="44.20067060490964" lon="8.042233920835212"><ele>792.8</ele><time>2026-05-01T13:39:29Z</time></trkpt><trkpt lat="44.2007605997825" lon="8.042216101271192"><ele>793.6</ele><time>2026-05-01T13:39:30Z</time></trkpt><trkpt lat="44.20084752924566" lon="8.042317919157446"><ele>794.4</ele><time>2026-05-01T13:39:31Z</time></trkpt><trkpt lat="44.20092946314708" lon="8.04245015133647"><ele>795.1999999999999</ele><time>2026-05-01T13:39:32Z</time></trkpt><trkpt lat="44.201018623042124" lon="8.042502538574094"><ele>796.0</ele><time>2026-05-01T13:39:33Z</time></trkpt><trkpt lat="44.20108529744177" lon="8.042497569599531"><ele>792.5999999999999</ele><time>2026-05-01T13:39:34Z</time></trkpt><trkpt lat="44.20113280500438" lon="8.042411263357156"><ele>789.2</ele><time>2026-05-01T13:39:35Z</time></trkpt><trkpt lat="44.20112930121872" lon="8.042285400591933"><ele>785.8</ele><time>2026-05-01T13:39:36Z</time></trkpt><trkpt lat="44.20104953801356" lon="8.042158095893742"><ele>782.4000000000001</ele><time>2026-05-01T13:39:37Z</time></trkpt><trkpt lat="44.200934375396926" lon="8.042026715775258"><ele>779.0</ele><time>2026-05-01T13:39:38Z</time></trkpt><trkpt lat="44.20081236843563" lon="8.04187113740376"><ele>779.0</ele><time>2026-05-01T13:39:39Z</time></trkpt><trkpt lat="44.200712976855066" lon="8.041686574956229"><ele>779.0</ele><time>2026-05-01T13:39:40Z</time></trkpt><trkpt lat="44.20061973311692" lon="8.041535356671805"><ele>779.0</ele><time>2026-05-01T13:39:41Z</time></trkpt><trkpt lat="44.20051058846567" lon="8.041447577667226"><ele>779.0</ele><time>2026-05-01T13:39:42Z</time></trkpt><trkpt lat="44.20037201624508" lon="8.041438031408026"><ele>772.6666666666667</ele><time>2026-05-01T13:39:43Z</time></trkpt><trkpt lat="44.200211822176435" lon="8.041460031552745"><ele>766.3333333333334</ele><time>2026-05-01T13:39:44Z</time></trkpt><trkpt lat="44.200056683172875" lon="8.041466409009958"><ele>760.0</ele><time>2026-05-01T13:39:45Z</time></trkpt><trkpt lat="44.199923250996626" lon="8.04146871968519"><ele>757.25</ele><time>2026-05-01T13:39:46Z</time></trkpt><trkpt lat="44.19980796154232" lon="8.041511652184171"><ele>754.5</ele><time>2026-05-01T13:39:47Z</time></trkpt><trkpt lat="44.19972580315327" lon="8.041585317793547"><ele>751.75</ele><time>2026-05-01T13:39:48Z</time></trkpt><trkpt lat="44.19964493799671" lon="8.0415396990225"><ele>749.0</ele><time>2026-05-01T13:39:50Z</time></trkpt><trkpt lat="44.19972901441449" lon="8.041349685339055"><ele>752.6666666666666</ele><time>2026-05-01T13:39:52Z</time></trkpt><trkpt lat="44.19985859468005" lon="8.041253814458193"><ele>756.3333333333334</ele><time>2026-05-01T13:39:53Z</time></trkpt><trkpt lat="44.19999242530377" lon="8.04110672785981"><ele>760.0</ele><time>2026-05-01T13:39:54Z</time></trkpt><trkpt lat="44.2000847444527" lon="8.040914785020865"><ele>755.25</ele><time>2026-05-01T13:39:55Z</time></trkpt><trkpt lat="44.20015798292347" lon="8.04073501161978"><ele>750.5</ele><time>2026-05-01T13:39:56Z</time></trkpt><trkpt lat="44.200214813996254" lon="8.040594261444005"><ele>745.75</ele><time>2026-05-01T13:39:57Z</time></trkpt><trkpt lat="44.20029100051563" lon="8.040476493208915"><ele>741.0</ele><time>2026-05-01T13:39:58Z</time></trkpt><trkpt lat="44.200387445502194" lon="8.04041148875089"><ele>741.0</ele><time>2026-05-01T13:39:59Z</time></trkpt><trkpt lat="44.20049276716148" lon="8.040376890034016"><ele>741.0</ele><time>2026-05-01T13:40:00Z</time></trkpt><trkpt lat="44.20060666951859" lon="8.040365448505641"><ele>741.0</ele><time>2026-05-01T13:40:01Z</time></trkpt><trkpt lat="44.20073071675944" lon="8.040426240596123"><ele>741.0</ele><time>2026-05-01T13:40:02Z</time></trkpt><trkpt lat="44.20086055042284" lon="8.040507031915553"><ele>741.0</ele><time>2026-05-01T13:40:03Z</time></trkpt><trkpt lat="44.20100303468755" lon="8.040586986197482"><ele>741.0</ele><time>2026-05-01T13:40:04Z</time></trkpt><trkpt lat="44.20112106706645" lon="8.040657597598818"><ele>741.0</ele><time>2026-05-01T13:40:05Z</time></trkpt><trkpt lat="44.20123862158393" lon="8.040683115021846"><ele>741.0</ele><time>2026-05-01T13:40:06Z</time></trkpt><trkpt lat="44.20135574312466" lon="8.040667179533742"><ele>741.0</ele><time>2026-05-01T13:40:07Z</time></trkpt><trkpt lat="44.20146509187742" lon="8.040616988491598"><ele>741.0</ele><time>2026-05-01T13:40:08Z</time></trkpt><trkpt lat="44.2015690409847" lon="8.04059641326337"><ele>741.0</ele><time>2026-05-01T13:40:09Z</time></trkpt><trkpt lat="44.20166868039673" lon="8.040623299999755"><ele>741.0</ele><time>2026-05-01T13:40:10Z</time></trkpt><trkpt lat="44.20175692483568" lon="8.040703817390051"><ele>741.0</ele><time>2026-05-01T13:40:11Z</time></trkpt><trkpt lat="44.201809460248846" lon="8.04083735739379"><ele>742.4</ele><time>2026-05-01T13:40:12Z</time></trkpt><trkpt lat="44.20187908536662" lon="8.040934171817195"><ele>743.8</ele><time>2026-05-01T13:40:13Z</time></trkpt><trkpt lat="44.2019281059964" lon="8.041013456009765"><ele>745.1999999999999</ele><time>2026-05-01T13:40:14Z</time></trkpt><trkpt lat="44.20200363457945" lon="8.041027141211371"><ele>746.5999999999999</ele><time>2026-05-01T13:40:15Z</time></trkpt><trkpt lat="44.20210372537595" lon="8.040977353063544"><ele>748.0</ele><time>2026-05-01T13:40:16Z</time></trkpt><trkpt lat="44.2022409749761" lon="8.040899345002023"><ele>744.0</ele><time>2026-05-01T13:40:17Z</time></trkpt><trkpt lat="44.20240645234762" lon="8.040819468623916"><ele>740.0</ele><time>2026-05-01T13:40:18Z</time></trkpt><trkpt lat="44.20258204892023" lon="8.040760393908489"><ele>736.0</ele><time>2026-05-01T13:40:19Z</time></trkpt><trkpt lat="44.20278428740439" lon="8.04073785091533"><ele>729.0</ele><time>2026-05-01T13:40:20Z</time></trkpt><trkpt lat="44.202966702737484" lon="8.040691860836365"><ele>722.0</ele><time>2026-05-01T13:40:21Z</time></trkpt><trkpt lat="44.203126522812376" lon="8.04058661567254"><ele>715.0</ele><time>2026-05-01T13:40:22Z</time></trkpt><trkpt lat="44.20324862973859" lon="8.040434540008278"><ele>715.0</ele><time>2026-05-01T13:40:23Z</time></trkpt><trkpt lat="44.20337590455019" lon="8.04029860880165"><ele>715.0</ele><time>2026-05-01T13:40:24Z</time></trkpt><trkpt lat="44.203500077574766" lon="8.040175985099921"><ele>715.0</ele><time>2026-05-01T13:40:25Z</time></trkpt><trkpt lat="44.20362391222154" lon="8.04005389144652"><ele>712.4</ele><time>2026-05-01T13:40:26Z</time></trkpt><trkpt lat="44.203740912278356" lon="8.039936565723893"><ele>709.8</ele><time>2026-05-01T13:40:27Z</time></trkpt><trkpt lat="44.203830496736515" lon="8.039837493986928"><ele>707.2</ele><time>2026-05-01T13:40:28Z</time></trkpt><trkpt lat="44.20387620529709" lon="8.039752253772724"><ele>704.6</ele><time>2026-05-01T13:40:29Z</time></trkpt><trkpt lat="44.20388577622585" lon="8.039632940956796"><ele>702.0</ele><time>2026-05-01T13:40:30Z</time></trkpt><trkpt lat="44.20388767184485" lon="8.039501816416823"><ele>702.0</ele><time>2026-05-01T13:40:31Z</time></trkpt><trkpt lat="44.20391645191672" lon="8.039381546190063"><ele>702.0</ele><time>2026-05-01T13:40:32Z</time></trkpt><trkpt lat="44.203984857196694" lon="8.039300043052563"><ele>702.0</ele><time>2026-05-01T13:40:33Z</time></trkpt><trkpt lat="44.20406230814408" lon="8.03924414636358"><ele>702.0</ele><time>2026-05-01T13:40:34Z</time></trkpt><trkpt lat="44.20413095698984" lon="8.039165803987506"><ele>702.0</ele><time>2026-05-01T13:40:35Z</time></trkpt><trkpt lat="44.204172119384275" lon="8.039041636245463"><ele>699.25</ele><time>2026-05-01T13:40:36Z</time></trkpt><trkpt lat="44.20415873207147" lon="8.038878041232136"><ele>696.5</ele><time>2026-05-01T13:40:37Z</time></trkpt><trkpt lat="44.20410991285415" lon="8.03869206266337"><ele>693.75</ele><time>2026-05-01T13:40:38Z</time></trkpt><trkpt lat="44.20405416693477" lon="8.038523719620677"><ele>691.0</ele><time>2026-05-01T13:40:39Z</time></trkpt><trkpt lat="44.20402021909932" lon="8.03838849307467"><ele>691.0</ele><time>2026-05-01T13:40:40Z</time></trkpt><trkpt lat="44.203990052251115" lon="8.038306977173074"><ele>691.0</ele><time>2026-05-01T13:40:41Z</time></trkpt><trkpt lat="44.20391373952173" lon="8.038308666177464"><ele>691.0</ele><time>2026-05-01T13:40:42Z</time></trkpt><trkpt lat="44.20384651310879" lon="8.038337187583133"><ele>691.0</ele><time>2026-05-01T13:40:43Z</time></trkpt><trkpt lat="44.20375454495457" lon="8.038345085788702"><ele>691.0</ele><time>2026-05-01T13:40:44Z</time></trkpt><trkpt lat="44.20365323414543" lon="8.03836207202056"><ele>691.0</ele><time>2026-05-01T13:40:45Z</time></trkpt><trkpt lat="44.203588460625966" lon="8.038393501195893"><ele>691.0</ele><time>2026-05-01T13:40:46Z</time></trkpt><trkpt lat="44.203518706543655" lon="8.038415809030344"><ele>691.0</ele><time>2026-05-01T13:40:50Z</time></trkpt><trkpt lat="44.20349654546347" lon="8.038503838262661"><ele>691.0</ele><time>2026-05-01T13:40:54Z</time></trkpt><trkpt lat="44.203445131585816" lon="8.038597503387606"><ele>691.0</ele><time>2026-05-01T13:40:55Z</time></trkpt><trkpt lat="44.20337467895247" lon="8.038701396326857"><ele>691.0</ele><time>2026-05-01T13:40:56Z</time></trkpt><trkpt lat="44.20327992841506" lon="8.038784627297225"><ele>691.0</ele><time>2026-05-01T13:40:57Z</time></trkpt><trkpt lat="44.203159001280206" lon="8.038887797532617"><ele>689.0</ele><time>2026-05-01T13:40:58Z</time></trkpt><trkpt lat="44.20306822154876" lon="8.038986007136666"><ele>687.0</ele><time>2026-05-01T13:40:59Z</time></trkpt><trkpt lat="44.203000837655416" lon="8.03909858175354"><ele>685.0</ele><time>2026-05-01T13:41:00Z</time></trkpt><trkpt lat="44.20294419799076" lon="8.039144830648633"><ele>683.0</ele><time>2026-05-01T13:41:01Z</time></trkpt><trkpt lat="44.20289873520288" lon="8.0389635338742"><ele>681.0</ele><time>2026-05-01T13:41:04Z</time></trkpt><trkpt lat="44.20298982787576" lon="8.038797171610513"><ele>681.0</ele><time>2026-05-01T13:41:05Z</time></trkpt><trkpt lat="44.20306015123045" lon="8.038608888055007"><ele>681.0</ele><time>2026-05-01T13:41:06Z</time></trkpt><trkpt lat="44.20309006356009" lon="8.038371506520905"><ele>681.0</ele><time>2026-05-01T13:41:07Z</time></trkpt><trkpt lat="44.20307311864021" lon="8.038121829101527"><ele>678.3333333333334</ele><time>2026-05-01T13:41:08Z</time></trkpt><trkpt lat="44.20301107538081" lon="8.037877731272852"><ele>675.6666666666667</ele><time>2026-05-01T13:41:09Z</time></trkpt><trkpt lat="44.202910019862095" lon="8.037660528137963"><ele>673.0</ele><time>2026-05-01T13:41:10Z</time></trkpt><trkpt lat="44.202808790080276" lon="8.037479460059519"><ele>672.75</ele><time>2026-05-01T13:41:11Z</time></trkpt><trkpt lat="44.20272776565406" lon="8.037325506298917"><ele>672.5</ele><time>2026-05-01T13:41:12Z</time></trkpt><trkpt lat="44.202721150549976" lon="8.037146240189855"><ele>672.25</ele><time>2026-05-01T13:41:13Z</time></trkpt><trkpt lat="44.20271838672917" lon="8.036934023453417"><ele>672.0</ele><time>2026-05-01T13:41:14Z</time></trkpt><trkpt lat="44.202699251296586" lon="8.03670140421695"><ele>671.0</ele><time>2026-05-01T13:41:15Z</time></trkpt><trkpt lat="44.202687051679725" lon="8.036446643335859"><ele>670.0</ele><time>2026-05-01T13:41:16Z</time></trkpt><trkpt lat="44.20265534636095" lon="8.036198420955198"><ele>669.0</ele><time>2026-05-01T13:41:17Z</time></trkpt><trkpt lat="44.202667663031946" lon="8.035997028673602"><ele>669.0</ele><time>2026-05-01T13:41:18Z</time></trkpt><trkpt lat="44.202722039994015" lon="8.035839361692904"><ele>669.0</ele><time>2026-05-01T13:41:19Z</time></trkpt><trkpt lat="44.20278606952883" lon="8.035663619645192"><ele>669.0</ele><time>2026-05-01T13:41:20Z</time></trkpt><trkpt lat="44.20283673739555" lon="8.035465477887836"><ele>669.0</ele><time>2026-05-01T13:41:21Z</time></trkpt><trkpt lat="44.20287199336984" lon="8.03524118498444"><ele>668.0</ele><time>2026-05-01T13:41:22Z</time></trkpt><trkpt lat="44.20287690722225" lon="8.035000120743806"><ele>667.0</ele><time>2026-05-01T13:41:23Z</time></trkpt><trkpt lat="44.20288580116877" lon="8.034797443590147"><ele>666.0</ele><time>2026-05-01T13:41:24Z</time></trkpt><trkpt lat="44.202920821760074" lon="8.03464563539896"><ele>665.0</ele><time>2026-05-01T13:41:25Z</time></trkpt><trkpt lat="44.20299334608204" lon="8.03455020952421"><ele>663.0</ele><time>2026-05-01T13:41:26Z</time></trkpt><trkpt lat="44.20309963990503" lon="8.034526097385168"><ele>661.0</ele><time>2026-05-01T13:41:27Z</time></trkpt><trkpt lat="44.20320966392443" lon="8.034559060184785"><ele>659.0</ele><time>2026-05-01T13:41:28Z</time></trkpt><trkpt lat="44.20329337984274" lon="8.034701347477895"><ele>657.0</ele><time>2026-05-01T13:41:29Z</time></trkpt><trkpt lat="44.20340626024508" lon="8.034836268374706"><ele>660.0</ele><time>2026-05-01T13:41:30Z</time></trkpt><trkpt lat="44.203527531232936" lon="8.034985523689224"><ele>663.0</ele><time>2026-05-01T13:41:31Z</time></trkpt><trkpt lat="44.20362346200504" lon="8.035148225921565"><ele>666.0</ele><time>2026-05-01T13:41:32Z</time></trkpt><trkpt lat="44.20366802932232" lon="8.03532150274993"><ele>669.0</ele><time>2026-05-01T13:41:33Z</time></trkpt><trkpt lat="44.20369707233903" lon="8.035495636918695"><ele>669.0</ele><time>2026-05-01T13:41:34Z</time></trkpt><trkpt lat="44.20375839399447" lon="8.035655185939726"><ele>669.0</ele><time>2026-05-01T13:41:35Z</time></trkpt><trkpt lat="44.2038146632374" lon="8.035789419549916"><ele>669.0</ele><time>2026-05-01T13:41:36Z</time></trkpt><trkpt lat="44.203905310576054" lon="8.03587839627181"><ele>669.0</ele><time>2026-05-01T13:41:37Z</time></trkpt><trkpt lat="44.2040234552989" lon="8.035952520219382"><ele>668.0</ele><time>2026-05-01T13:41:38Z</time></trkpt><trkpt lat="44.2041399128398" lon="8.03604113579072"><ele>667.0</ele><time>2026-05-01T13:41:39Z</time></trkpt><trkpt lat="44.204238335438596" lon="8.036128454640293"><ele>666.0</ele><time>2026-05-01T13:41:40Z</time></trkpt><trkpt lat="44.20431595566972" lon="8.036158313491546"><ele>665.0</ele><time>2026-05-01T13:41:41Z</time></trkpt><trkpt lat="44.204393564708575" lon="8.036112469239853"><ele>664.0</ele><time>2026-05-01T13:41:42Z</time></trkpt><trkpt lat="44.20445704468467" lon="8.035993782170861"><ele>664.0</ele><time>2026-05-01T13:41:43Z</time></trkpt><trkpt lat="44.204484764371934" lon="8.0358209061036"><ele>664.0</ele><time>2026-05-01T13:41:44Z</time></trkpt><trkpt lat="44.2044898197804" lon="8.035597815357107"><ele>664.0</ele><time>2026-05-01T13:41:45Z</time></trkpt><trkpt lat="44.2044955990263" lon="8.03535045632402"><ele>661.6666666666667</ele><time>2026-05-01T13:41:46Z</time></trkpt><trkpt lat="44.20451763572081" lon="8.0350952463971"><ele>659.3333333333334</ele><time>2026-05-01T13:41:47Z</time></trkpt><trkpt lat="44.20453847025548" lon="8.03486350389112"><ele>657.0</ele><time>2026-05-01T13:41:48Z</time></trkpt><trkpt lat="44.20452107525681" lon="8.034661864182643"><ele>656.6666666666666</ele><time>2026-05-01T13:41:49Z</time></trkpt><trkpt lat="44.20444337337131" lon="8.034479173401365"><ele>656.3333333333333</ele><time>2026-05-01T13:41:50Z</time></trkpt><trkpt lat="44.20433560966471" lon="8.03429147096414"><ele>656.0</ele><time>2026-05-01T13:41:51Z</time></trkpt><trkpt lat="44.20421122730271" lon="8.034081882216034"><ele>656.0</ele><time>2026-05-01T13:41:52Z</time></trkpt><trkpt lat="44.204091878403354" lon="8.03385144701833"><ele>656.0</ele><time>2026-05-01T13:41:53Z</time></trkpt><trkpt lat="44.20397584261221" lon="8.03361279942103"><ele>656.0</ele><time>2026-05-01T13:41:54Z</time></trkpt><trkpt lat="44.20385969276748" lon="8.033374021972831"><ele>650.5</ele><time>2026-05-01T13:41:55Z</time></trkpt><trkpt lat="44.20373478452478" lon="8.033152074234813"><ele>645.0</ele><time>2026-05-01T13:41:56Z</time></trkpt><trkpt lat="44.20356422877281" lon="8.032887589714393"><ele>645.0</ele><time>2026-05-01T13:41:57Z</time></trkpt><trkpt lat="44.20337621104617" lon="8.032672134539325"><ele>645.0</ele><time>2026-05-01T13:41:58Z</time></trkpt><trkpt lat="44.20321786628928" lon="8.032504297991224"><ele>645.0</ele><time>2026-05-01T13:41:59Z</time></trkpt><trkpt lat="44.203108342541974" lon="8.032319512843626"><ele>640.3333333333334</ele><time>2026-05-01T13:42:00Z</time></trkpt><trkpt lat="44.20302639829418" lon="8.032127713850294"><ele>635.6666666666667</ele><time>2026-05-01T13:42:01Z</time></trkpt><trkpt lat="44.202955727825746" lon="8.031906044110436"><ele>631.0</ele><time>2026-05-01T13:42:02Z</time></trkpt><trkpt lat="44.20290281849933" lon="8.031653553086201"><ele>632.6666666666667</ele><time>2026-05-01T13:42:03Z</time></trkpt><trkpt lat="44.20286024175898" lon="8.031362885499119"><ele>634.3333333333334</ele><time>2026-05-01T13:42:04Z</time></trkpt><trkpt lat="44.202778910220744" lon="8.031079078230118"><ele>636.0</ele><time>2026-05-01T13:42:05Z</time></trkpt><trkpt lat="44.20268844954527" lon="8.030793689018878"><ele>638.0</ele><time>2026-05-01T13:42:06Z</time></trkpt><trkpt lat="44.20259891587249" lon="8.0305331252604"><ele>640.0</ele><time>2026-05-01T13:42:07Z</time></trkpt><trkpt lat="44.202512085915494" lon="8.030304100156965"><ele>642.0</ele><time>2026-05-01T13:42:08Z</time></trkpt><trkpt lat="44.20242798149616" lon="8.030083432520227"><ele>641.6666666666666</ele><time>2026-05-01T13:42:09Z</time></trkpt><trkpt lat="44.20238624180312" lon="8.02986202427808"><ele>641.3333333333333</ele><time>2026-05-01T13:42:10Z</time></trkpt><trkpt lat="44.20236886782047" lon="8.029648129875659"><ele>641.0</ele><time>2026-05-01T13:42:11Z</time></trkpt><trkpt lat="44.2023894741059" lon="8.029462855881672"><ele>641.0</ele><time>2026-05-01T13:42:12Z</time></trkpt><trkpt lat="44.20240751568596" lon="8.02923578487218"><ele>641.0</ele><time>2026-05-01T13:42:13Z</time></trkpt><trkpt lat="44.20242291025942" lon="8.029021409311218"><ele>641.0</ele><time>2026-05-01T13:42:14Z</time></trkpt><trkpt lat="44.20250577017552" lon="8.028862986817668"><ele>640.3333333333333</ele><time>2026-05-01T13:42:15Z</time></trkpt><trkpt lat="44.202584154382095" lon="8.028681805585949"><ele>639.6666666666666</ele><time>2026-05-01T13:42:16Z</time></trkpt><trkpt lat="44.20264754271928" lon="8.028485557898058"><ele>639.0</ele><time>2026-05-01T13:42:17Z</time></trkpt><trkpt lat="44.202679630443754" lon="8.028289619648477"><ele>638.6</ele><time>2026-05-01T13:42:18Z</time></trkpt><trkpt lat="44.202725500907974" lon="8.028135582511013"><ele>638.2</ele><time>2026-05-01T13:42:19Z</time></trkpt><trkpt lat="44.202762583263386" lon="8.028019263726673"><ele>637.8000000000001</ele><time>2026-05-01T13:42:20Z</time></trkpt><trkpt lat="44.202736825308165" lon="8.02789468033332"><ele>637.4</ele><time>2026-05-01T13:42:21Z</time></trkpt><trkpt lat="44.20265328671857" lon="8.027791313251504"><ele>637.0</ele><time>2026-05-01T13:42:22Z</time></trkpt><trkpt lat="44.20254212245389" lon="8.027733636710643"><ele>637.0</ele><time>2026-05-01T13:42:23Z</time></trkpt><trkpt lat="44.20245816014486" lon="8.02767715217652"><ele>637.0</ele><time>2026-05-01T13:42:24Z</time></trkpt><trkpt lat="44.2024110870122" lon="8.027585766159307"><ele>637.0</ele><time>2026-05-01T13:42:25Z</time></trkpt><trkpt lat="44.202370753999276" lon="8.027483980240625"><ele>637.0</ele><time>2026-05-01T13:42:26Z</time></trkpt><trkpt lat="44.20239634913681" lon="8.027363563511747"><ele>637.0</ele><time>2026-05-01T13:42:27Z</time></trkpt><trkpt lat="44.20241719205975" lon="8.027179852745922"><ele>635.5</ele><time>2026-05-01T13:42:28Z</time></trkpt><trkpt lat="44.20246856250865" lon="8.026999281431479"><ele>634.0</ele><time>2026-05-01T13:42:29Z</time></trkpt><trkpt lat="44.20250295601886" lon="8.026796016511494"><ele>632.5</ele><time>2026-05-01T13:42:30Z</time></trkpt><trkpt lat="44.20253613945635" lon="8.026589567835053"><ele>631.0</ele><time>2026-05-01T13:42:31Z</time></trkpt><trkpt lat="44.20256802503502" lon="8.026379955406522"><ele>628.5</ele><time>2026-05-01T13:42:32Z</time></trkpt><trkpt lat="44.20258623008803" lon="8.026141371228624"><ele>626.0</ele><time>2026-05-01T13:42:33Z</time></trkpt><trkpt lat="44.20257544098255" lon="8.025938469042302"><ele>623.5</ele><time>2026-05-01T13:42:34Z</time></trkpt><trkpt lat="44.20257029665159" lon="8.025789326504544"><ele>621.0</ele><time>2026-05-01T13:42:35Z</time></trkpt><trkpt lat="44.20260960576384" lon="8.025679787911264"><ele>617.75</ele><time>2026-05-01T13:42:36Z</time></trkpt><trkpt lat="44.20269074465876" lon="8.02561634022469"><ele>614.5</ele><time>2026-05-01T13:42:37Z</time></trkpt><trkpt lat="44.20280898369178" lon="8.025595166451286"><ele>611.25</ele><time>2026-05-01T13:42:38Z</time></trkpt><trkpt lat="44.20293920449868" lon="8.025627404369528"><ele>608.0</ele><time>2026-05-01T13:42:39Z</time></trkpt><trkpt lat="44.20308145170831" lon="8.02565041138576"><ele>607.0</ele><time>2026-05-01T13:42:40Z</time></trkpt><trkpt lat="44.203238833431875" lon="8.025588055800533"><ele>606.0</ele><time>2026-05-01T13:42:41Z</time></trkpt><trkpt lat="44.20340912600778" lon="8.025511313917798"><ele>605.0</ele><time>2026-05-01T13:42:42Z</time></trkpt><trkpt lat="44.203573603986165" lon="8.025402280795417"><ele>605.0</ele><time>2026-05-01T13:42:43Z</time></trkpt><trkpt lat="44.2037278639338" lon="8.025337368270105"><ele>605.0</ele><time>2026-05-01T13:42:44Z</time></trkpt><trkpt lat="44.203897332141324" lon="8.025318869186487"><ele>605.0</ele><time>2026-05-01T13:42:45Z</time></trkpt><trkpt lat="44.20406508662837" lon="8.025316330135778"><ele>604.6666666666666</ele><time>2026-05-01T13:42:46Z</time></trkpt><trkpt lat="44.20423451701489" lon="8.025275670525858"><ele>604.3333333333334</ele><time>2026-05-01T13:42:47Z</time></trkpt><trkpt lat="44.20438596878781" lon="8.02520223365069"><ele>604.0</ele><time>2026-05-01T13:42:48Z</time></trkpt><trkpt lat="44.204547410520654" lon="8.025146058975915"><ele>604.0</ele><time>2026-05-01T13:42:49Z</time></trkpt><trkpt lat="44.20471905354332" lon="8.025100284400457"><ele>604.0</ele><time>2026-05-01T13:42:50Z</time></trkpt><trkpt lat="44.20488936115877" lon="8.025027146755045"><ele>604.0</ele><time>2026-05-01T13:42:51Z</time></trkpt><trkpt lat="44.2050434767297" lon="8.0249320292928"><ele>600.0</ele><time>2026-05-01T13:42:52Z</time></trkpt><trkpt lat="44.20518795665541" lon="8.024838390677603"><ele>596.0</ele><time>2026-05-01T13:42:53Z</time></trkpt><trkpt lat="44.205326858741316" lon="8.024756669697904"><ele>592.0</ele><time>2026-05-01T13:42:54Z</time></trkpt><trkpt lat="44.20547003496234" lon="8.024672706814556"><ele>592.0</ele><time>2026-05-01T13:42:55Z</time></trkpt><trkpt lat="44.205604395390004" lon="8.024594303092798"><ele>592.0</ele><time>2026-05-01T13:42:56Z</time></trkpt><trkpt lat="44.205725679886996" lon="8.024508505771786"><ele>592.0</ele><time>2026-05-01T13:42:57Z</time></trkpt><trkpt lat="44.20580848417238" lon="8.024405567146548"><ele>592.0</ele><time>2026-05-01T13:42:58Z</time></trkpt><trkpt lat="44.20585006232992" lon="8.024262500855862"><ele>590.5</ele><time>2026-05-01T13:42:59Z</time></trkpt><trkpt lat="44.20585190587363" lon="8.024079988364583"><ele>589.0</ele><time>2026-05-01T13:43:00Z</time></trkpt><trkpt lat="44.205835716580225" lon="8.023867304243028"><ele>587.5</ele><time>2026-05-01T13:43:01Z</time></trkpt><trkpt lat="44.205818859810265" lon="8.023639111280898"><ele>586.0</ele><time>2026-05-01T13:43:02Z</time></trkpt><trkpt lat="44.205815376844654" lon="8.023383221946801"><ele>585.0</ele><time>2026-05-01T13:43:03Z</time></trkpt><trkpt lat="44.20581551629546" lon="8.023115224086416"><ele>584.0</ele><time>2026-05-01T13:43:04Z</time></trkpt><trkpt lat="44.20581585671221" lon="8.022833556698629"><ele>583.0</ele><time>2026-05-01T13:43:05Z</time></trkpt><trkpt lat="44.20581260480727" lon="8.022571340764346"><ele>582.6666666666667</ele><time>2026-05-01T13:43:06Z</time></trkpt><trkpt lat="44.20580686724974" lon="8.02233565511778"><ele>582.3333333333334</ele><time>2026-05-01T13:43:07Z</time></trkpt><trkpt lat="44.20580007517769" lon="8.022115144615187"><ele>582.0</ele><time>2026-05-01T13:43:08Z</time></trkpt><trkpt lat="44.20579509979156" lon="8.02190881106344"><ele>582.0</ele><time>2026-05-01T13:43:09Z</time></trkpt><trkpt lat="44.20579012251731" lon="8.021718111511497"><ele>582.0</ele><time>2026-05-01T13:43:10Z</time></trkpt><trkpt lat="44.205786143907645" lon="8.021544063186974"><ele>582.0</ele><time>2026-05-01T13:43:11Z</time></trkpt><trkpt lat="44.20578680171273" lon="8.02139751446248"><ele>582.0</ele><time>2026-05-01T13:43:12Z</time></trkpt><trkpt lat="44.20579828201546" lon="8.021278805677476"><ele>582.0</ele><time>2026-05-01T13:43:13Z</time></trkpt><trkpt lat="44.20581763744274" lon="8.021177056629009"><ele>582.0</ele><time>2026-05-01T13:43:14Z</time></trkpt><trkpt lat="44.205841807191305" lon="8.020978647234793"><ele>582.0</ele><time>2026-05-01T13:43:20Z</time></trkpt><trkpt lat="44.20580784397937" lon="8.020840582377446"><ele>582.0</ele><time>2026-05-01T13:43:21Z</time></trkpt><trkpt lat="44.205760733638456" lon="8.020687966493329"><ele>582.0</ele><time>2026-05-01T13:43:22Z</time></trkpt><trkpt lat="44.20572998790923" lon="8.020511785188146"><ele>582.0</ele><time>2026-05-01T13:43:23Z</time></trkpt><trkpt lat="44.205711644947634" lon="8.020335106853135"><ele>582.0</ele><time>2026-05-01T13:43:24Z</time></trkpt><trkpt lat="44.20569851593139" lon="8.02013880344715"><ele>582.0</ele><time>2026-05-01T13:43:25Z</time></trkpt><trkpt lat="44.20569198954851" lon="8.019969797337755"><ele>582.0</ele><time>2026-05-01T13:43:26Z</time></trkpt><trkpt lat="44.205685897741674" lon="8.019822724934015"><ele>581.6666666666666</ele><time>2026-05-01T13:43:27Z</time></trkpt><trkpt lat="44.20567830331595" lon="8.01968874458347"><ele>581.3333333333334</ele><time>2026-05-01T13:43:28Z</time></trkpt><trkpt lat="44.20567203955245" lon="8.019578311561993"><ele>581.0</ele><time>2026-05-01T13:43:29Z</time></trkpt><trkpt lat="44.205671784395015" lon="8.019481042627529"><ele>580.6666666666667</ele><time>2026-05-01T13:43:30Z</time></trkpt><trkpt lat="44.20569699977796" lon="8.019386447582244"><ele>580.3333333333334</ele><time>2026-05-01T13:43:31Z</time></trkpt><trkpt lat="44.2057662952136" lon="8.019334134695706"><ele>580.0</ele><time>2026-05-01T13:43:32Z</time></trkpt><trkpt lat="44.205821406879274" lon="8.019278925256442"><ele>580.0</ele><time>2026-05-01T13:43:33Z</time></trkpt><trkpt lat="44.205882100339075" lon="8.019255468432656"><ele>580.0</ele><time>2026-05-01T13:43:34Z</time></trkpt><trkpt lat="44.20598910353015" lon="8.019208797344323"><ele>580.0</ele><time>2026-05-01T13:43:36Z</time></trkpt><trkpt lat="44.20607159660146" lon="8.019093499436138"><ele>580.0</ele><time>2026-05-01T13:43:38Z</time></trkpt><trkpt lat="44.20609458886036" lon="8.019007231651448"><ele>580.0</ele><time>2026-05-01T13:43:39Z</time></trkpt><trkpt lat="44.206132568266376" lon="8.018841657254104"><ele>580.0</ele><time>2026-05-01T13:43:41Z</time></trkpt><trkpt lat="44.206250256994224" lon="8.018814233298"><ele>580.0</ele><time>2026-05-01T13:43:42Z</time></trkpt><trkpt lat="44.20636783582093" lon="8.018794172059252"><ele>580.0</ele><time>2026-05-01T13:43:43Z</time></trkpt><trkpt lat="44.20649790064822" lon="8.01876571522774"><ele>580.0</ele><time>2026-05-01T13:43:44Z</time></trkpt><trkpt lat="44.20662814186475" lon="8.018727296290551"><ele>580.0</ele><time>2026-05-01T13:43:45Z</time></trkpt><trkpt lat="44.20675711603027" lon="8.018686890095694"><ele>580.0</ele><time>2026-05-01T13:43:46Z</time></trkpt><trkpt lat="44.20688528997372" lon="8.01863250913626"><ele>580.0</ele><time>2026-05-01T13:43:47Z</time></trkpt><trkpt lat="44.207015501024955" lon="8.018581657440667"><ele>580.0</ele><time>2026-05-01T13:43:48Z</time></trkpt><trkpt lat="44.20714260008508" lon="8.018521220140434"><ele>580.0</ele><time>2026-05-01T13:43:49Z</time></trkpt><trkpt lat="44.20726049453594" lon="8.018450445124383"><ele>580.0</ele><time>2026-05-01T13:43:50Z</time></trkpt><trkpt lat="44.20735953010263" lon="8.018386877631938"><ele>580.0</ele><time>2026-05-01T13:43:51Z</time></trkpt><trkpt lat="44.20744962254078" lon="8.01832752250257"><ele>580.0</ele><time>2026-05-01T13:43:52Z</time></trkpt><trkpt lat="44.207531678350044" lon="8.018275303367096"><ele>580.0</ele><time>2026-05-01T13:43:53Z</time></trkpt><trkpt lat="44.207617107454844" lon="8.018219957209405"><ele>578.75</ele><time>2026-05-01T13:43:54Z</time></trkpt><trkpt lat="44.207711946492104" lon="8.018143798685786"><ele>577.5</ele><time>2026-05-01T13:43:55Z</time></trkpt><trkpt lat="44.20778233137531" lon="8.018011112800414"><ele>576.25</ele><time>2026-05-01T13:43:56Z</time></trkpt><trkpt lat="44.20784368410133" lon="8.017852483282974"><ele>575.0</ele><time>2026-05-01T13:43:57Z</time></trkpt><trkpt lat="44.20786964195721" lon="8.017669973267674"><ele>575.0</ele><time>2026-05-01T13:43:58Z</time></trkpt><trkpt lat="44.20787099543308" lon="8.017509788924636"><ele>575.0</ele><time>2026-05-01T13:43:59Z</time></trkpt><trkpt lat="44.20788395701333" lon="8.017366624707847"><ele>575.0</ele><time>2026-05-01T13:44:00Z</time></trkpt><trkpt lat="44.20787167375702" lon="8.017238236219223"><ele>575.0</ele><time>2026-05-01T13:44:01Z</time></trkpt><trkpt lat="44.20785707113056" lon="8.017123101759704"><ele>575.0</ele><time>2026-05-01T13:44:02Z</time></trkpt><trkpt lat="44.20785133385261" lon="8.017014721025806"><ele>575.0</ele><time>2026-05-01T13:44:03Z</time></trkpt><trkpt lat="44.20784521246234" lon="8.016914870572998"><ele>575.0</ele><time>2026-05-01T13:44:04Z</time></trkpt><trkpt lat="44.207839555858534" lon="8.016810540864308"><ele>575.0</ele><time>2026-05-01T13:44:05Z</time></trkpt><trkpt lat="44.20783326432761" lon="8.016705409741416"><ele>575.0</ele><time>2026-05-01T13:44:06Z</time></trkpt><trkpt lat="44.20782497444857" lon="8.016584794537161"><ele>575.0</ele><time>2026-05-01T13:44:07Z</time></trkpt><trkpt lat="44.207817038897396" lon="8.016454075342972"><ele>575.0</ele><time>2026-05-01T13:44:08Z</time></trkpt><trkpt lat="44.20781050093152" lon="8.016305912950331"><ele>576.0</ele><time>2026-05-01T13:44:09Z</time></trkpt><trkpt lat="44.20780053101856" lon="8.016128974623875"><ele>577.0</ele><time>2026-05-01T13:44:10Z</time></trkpt><trkpt lat="44.20778882641297" lon="8.015943150393838"><ele>578.0</ele><time>2026-05-01T13:44:11Z</time></trkpt><trkpt lat="44.20778190096449" lon="8.01574358266852"><ele>579.0</ele><time>2026-05-01T13:44:12Z</time></trkpt><trkpt lat="44.207774053085764" lon="8.015551903841171"><ele>579.0</ele><time>2026-05-01T13:44:13Z</time></trkpt><trkpt lat="44.207768316212075" lon="8.015392012779472"><ele>579.0</ele><time>2026-05-01T13:44:14Z</time></trkpt><trkpt lat="44.20775987175604" lon="8.015251699448932"><ele>579.0</ele><time>2026-05-01T13:44:15Z</time></trkpt><trkpt lat="44.20774939021265" lon="8.015133957231944"><ele>579.0</ele><time>2026-05-01T13:44:16Z</time></trkpt><trkpt lat="44.20774293454003" lon="8.015037282023325"><ele>579.0</ele><time>2026-05-01T13:44:17Z</time></trkpt><trkpt lat="44.20773702396591" lon="8.014917355327322"><ele>578.75</ele><time>2026-05-01T13:44:19Z</time></trkpt><trkpt lat="44.2077279972824" lon="8.014783576717603"><ele>578.5</ele><time>2026-05-01T13:44:31Z</time></trkpt><trkpt lat="44.20759050731359" lon="8.014786884351373"><ele>578.25</ele><time>2026-05-01T13:44:32Z</time></trkpt><trkpt lat="44.20748743360774" lon="8.014780272105307"><ele>578.0</ele><time>2026-05-01T13:44:33Z</time></trkpt><trkpt lat="44.207369940326565" lon="8.014775311119857"><ele>578.25</ele><time>2026-05-01T13:44:34Z</time></trkpt><trkpt lat="44.207242592882665" lon="8.014770199246042"><ele>578.5</ele><time>2026-05-01T13:44:35Z</time></trkpt><trkpt lat="44.207098536328346" lon="8.01475407278273"><ele>578.75</ele><time>2026-05-01T13:44:36Z</time></trkpt><trkpt lat="44.20694711850939" lon="8.014745880913841"><ele>579.0</ele><time>2026-05-01T13:44:37Z</time></trkpt><trkpt lat="44.20679385792373" lon="8.01473238419065"><ele>579.0</ele><time>2026-05-01T13:44:38Z</time></trkpt><trkpt lat="44.20666323946242" lon="8.014727288686084"><ele>579.0</ele><time>2026-05-01T13:44:39Z</time></trkpt><trkpt lat="44.20654839923998" lon="8.014719801665844"><ele>579.0</ele><time>2026-05-01T13:44:40Z</time></trkpt><trkpt lat="44.20644440535928" lon="8.014710399062386"><ele>579.0</ele><time>2026-05-01T13:44:41Z</time></trkpt><trkpt lat="44.206348561461866" lon="8.014704669196089"><ele>579.0</ele><time>2026-05-01T13:44:42Z</time></trkpt><trkpt lat="44.206255669160996" lon="8.014699525557576"><ele>579.6666666666666</ele><time>2026-05-01T13:44:43Z</time></trkpt><trkpt lat="44.20616729406714" lon="8.014693936676267"><ele>580.3333333333334</ele><time>2026-05-01T13:44:44Z</time></trkpt><trkpt lat="44.20610256863358" lon="8.014689903539225"><ele>581.0</ele><time>2026-05-01T13:44:45Z</time></trkpt><trkpt lat="44.20606934031455" lon="8.01461234240741"><ele>581.6666666666667</ele><time>2026-05-01T13:44:48Z</time></trkpt><trkpt lat="44.206009371114185" lon="8.014673111160553"><ele>582.3333333333334</ele><time>2026-05-01T13:45:01Z</time></trkpt><trkpt lat="44.205916940186455" lon="8.014678164403234"><ele>583.0</ele><time>2026-05-01T13:45:02Z</time></trkpt><trkpt lat="44.205791984374606" lon="8.014666205015763"><ele>583.75</ele><time>2026-05-01T13:45:03Z</time></trkpt><trkpt lat="44.20566080143014" lon="8.014657247003429"><ele>584.5</ele><time>2026-05-01T13:45:04Z</time></trkpt><trkpt lat="44.205526023075976" lon="8.014628956889968"><ele>585.25</ele><time>2026-05-01T13:45:05Z</time></trkpt><trkpt lat="44.20540031206601" lon="8.014619815951365"><ele>586.0</ele><time>2026-05-01T13:45:06Z</time></trkpt><trkpt lat="44.20527486004615" lon="8.014611586630297"><ele>586.0</ele><time>2026-05-01T13:45:07Z</time></trkpt><trkpt lat="44.20516772789575" lon="8.01460441259835"><ele>586.0</ele><time>2026-05-01T13:45:08Z</time></trkpt><trkpt lat="44.2050705239074" lon="8.014597903404303"><ele>586.0</ele><time>2026-05-01T13:45:09Z</time></trkpt><trkpt lat="44.20498225186372" lon="8.01459143913284"><ele>586.0</ele><time>2026-05-01T13:45:10Z</time></trkpt><trkpt lat="44.204886285823335" lon="8.014599514489557"><ele>586.0</ele><time>2026-05-01T13:45:11Z</time></trkpt><trkpt lat="44.204788436085195" lon="8.01454510196242"><ele>586.0</ele><time>2026-05-01T13:45:12Z</time></trkpt><trkpt lat="44.20466731384761" lon="8.014494033261052"><ele>586.0</ele><time>2026-05-01T13:45:13Z</time></trkpt><trkpt lat="44.20452449890204" lon="8.014455352279883"><ele>586.0</ele><time>2026-05-01T13:45:14Z</time></trkpt><trkpt lat="44.204414940472674" lon="8.014387625213685"><ele>586.0</ele><time>2026-05-01T13:45:15Z</time></trkpt><trkpt lat="44.20431663068743" lon="8.014368770050758"><ele>586.0</ele><time>2026-05-01T13:45:16Z</time></trkpt><trkpt lat="44.20423862812041" lon="8.014313985952707"><ele>586.0</ele><time>2026-05-01T13:45:17Z</time></trkpt><trkpt lat="44.204163609694476" lon="8.014282928228392"><ele>586.0</ele><time>2026-05-01T13:45:18Z</time></trkpt><trkpt lat="44.20407486034529" lon="8.014265738811792"><ele>586.0</ele><time>2026-05-01T13:45:19Z</time></trkpt><trkpt lat="44.20396890398774" lon="8.014217089899907"><ele>586.0</ele><time>2026-05-01T13:45:20Z</time></trkpt><trkpt lat="44.203860071903456" lon="8.014169029073802"><ele>585.8333333333334</ele><time>2026-05-01T13:45:21Z</time></trkpt><trkpt lat="44.2037733196584" lon="8.01412665443607"><ele>585.6666666666667</ele><time>2026-05-01T13:45:22Z</time></trkpt><trkpt lat="44.203723013249096" lon="8.014066188076882"><ele>585.5</ele><time>2026-05-01T13:45:23Z</time></trkpt><trkpt lat="44.20370916928056" lon="8.013909234989374"><ele>585.3333333333334</ele><time>2026-05-01T13:45:25Z</time></trkpt><trkpt lat="44.20373208630723" lon="8.013825554160688"><ele>585.1666666666666</ele><time>2026-05-01T13:45:26Z</time></trkpt><trkpt lat="44.20377594437555" lon="8.013693434321723"><ele>585.0</ele><time>2026-05-01T13:45:27Z</time></trkpt><trkpt lat="44.203819867317904" lon="8.013549040569098"><ele>585.0</ele><time>2026-05-01T13:45:28Z</time></trkpt><trkpt lat="44.203866618576065" lon="8.013383075377313"><ele>585.0</ele><time>2026-05-01T13:45:29Z</time></trkpt><trkpt lat="44.203922549973775" lon="8.013180292120843"><ele>585.0</ele><time>2026-05-01T13:45:30Z</time></trkpt><trkpt lat="44.204061346234326" lon="8.012767174611646"><ele>586.0</ele><time>2026-05-01T13:45:32Z</time></trkpt><trkpt lat="44.204161938041906" lon="8.012583191253851"><ele>587.0</ele><time>2026-05-01T13:45:33Z</time></trkpt><trkpt lat="44.204282616418816" lon="8.012413747875055"><ele>588.0</ele><time>2026-05-01T13:45:34Z</time></trkpt><trkpt lat="44.20439412023344" lon="8.012268327649325"><ele>588.6666666666666</ele><time>2026-05-01T13:45:35Z</time></trkpt><trkpt lat="44.20452072414396" lon="8.012131761811945"><ele>589.3333333333333</ele><time>2026-05-01T13:45:36Z</time></trkpt><trkpt lat="44.20466354045204" lon="8.011979579049232"><ele>590.0</ele><time>2026-05-01T13:45:37Z</time></trkpt><trkpt lat="44.2048085099967" lon="8.011817475657342"><ele>591.0</ele><time>2026-05-01T13:45:38Z</time></trkpt><trkpt lat="44.20495650450024" lon="8.011647746155052"><ele>592.0</ele><time>2026-05-01T13:45:39Z</time></trkpt><trkpt lat="44.20512042608802" lon="8.011467568876107"><ele>593.0</ele><time>2026-05-01T13:45:40Z</time></trkpt><trkpt lat="44.205293158669676" lon="8.011273510388454"><ele>593.0</ele><time>2026-05-01T13:45:41Z</time></trkpt><trkpt lat="44.20543614705538" lon="8.011102702526527"><ele>593.0</ele><time>2026-05-01T13:45:42Z</time></trkpt><trkpt lat="44.20556016765016" lon="8.010960089657406"><ele>593.0</ele><time>2026-05-01T13:45:43Z</time></trkpt><trkpt lat="44.205665458186864" lon="8.010842975138893"><ele>593.5</ele><time>2026-05-01T13:45:44Z</time></trkpt><trkpt lat="44.20576700336504" lon="8.010734257934335"><ele>594.0</ele><time>2026-05-01T13:45:45Z</time></trkpt><trkpt lat="44.20586672554485" lon="8.010626187532065"><ele>594.5</ele><time>2026-05-01T13:45:46Z</time></trkpt><trkpt lat="44.20596752763949" lon="8.010509754699056"><ele>595.0</ele><time>2026-05-01T13:45:47Z</time></trkpt><trkpt lat="44.206071123156555" lon="8.010382214739378"><ele>595.0</ele><time>2026-05-01T13:45:48Z</time></trkpt><trkpt lat="44.20618057964128" lon="8.010247470959719"><ele>595.0</ele><time>2026-05-01T13:45:49Z</time></trkpt><trkpt lat="44.206297036661944" lon="8.010114911319322"><ele>595.0</ele><time>2026-05-01T13:45:50Z</time></trkpt><trkpt lat="44.20643078586541" lon="8.009972402417057"><ele>596.6666666666667</ele><time>2026-05-01T13:45:51Z</time></trkpt><trkpt lat="44.206578123808484" lon="8.009809617959428"><ele>598.3333333333334</ele><time>2026-05-01T13:45:52Z</time></trkpt><trkpt lat="44.20672429601642" lon="8.009637596096136"><ele>600.0</ele><time>2026-05-01T13:45:53Z</time></trkpt><trkpt lat="44.20685204965681" lon="8.009446500351222"><ele>600.0</ele><time>2026-05-01T13:45:54Z</time></trkpt><trkpt lat="44.206956034939545" lon="8.00921120020774"><ele>600.0</ele><time>2026-05-01T13:45:55Z</time></trkpt><trkpt lat="44.20703781061043" lon="8.008946539304107"><ele>600.0</ele><time>2026-05-01T13:45:56Z</time></trkpt><trkpt lat="44.207108925516096" lon="8.008654515532383"><ele>601.5</ele><time>2026-05-01T13:45:57Z</time></trkpt><trkpt lat="44.20716405319602" lon="8.008352071464545"><ele>603.0</ele><time>2026-05-01T13:45:58Z</time></trkpt><trkpt lat="44.20720853863337" lon="8.008019892424105"><ele>604.0</ele><time>2026-05-01T13:45:59Z</time></trkpt><trkpt lat="44.20723236342" lon="8.007690824791341"><ele>605.0</ele><time>2026-05-01T13:46:00Z</time></trkpt><trkpt lat="44.20724067860963" lon="8.007372966962196"><ele>606.0</ele><time>2026-05-01T13:46:01Z</time></trkpt><trkpt lat="44.20723357732797" lon="8.007100684509565"><ele>607.0</ele><time>2026-05-01T13:46:02Z</time></trkpt><trkpt lat="44.20721710110537" lon="8.00684094527669"><ele>608.0</ele><time>2026-05-01T13:46:03Z</time></trkpt><trkpt lat="44.20719223172821" lon="8.0065847599325"><ele>609.3333333333333</ele><time>2026-05-01T13:46:04Z</time></trkpt><trkpt lat="44.20715612395822" lon="8.006306624681221"><ele>610.6666666666666</ele><time>2026-05-01T13:46:05Z</time></trkpt><trkpt lat="44.20711789847193" lon="8.006026327612508"><ele>612.0</ele><time>2026-05-01T13:46:06Z</time></trkpt><trkpt lat="44.207086175048666" lon="8.005742297156228"><ele>613.0</ele><time>2026-05-01T13:46:07Z</time></trkpt><trkpt lat="44.207054954552866" lon="8.00545356388894"><ele>614.0</ele><time>2026-05-01T13:46:08Z</time></trkpt><trkpt lat="44.207020832302796" lon="8.005162144606178"><ele>615.0</ele><time>2026-05-01T13:46:09Z</time></trkpt><trkpt lat="44.2069887670506" lon="8.004883676851794"><ele>616.6666666666666</ele><time>2026-05-01T13:46:10Z</time></trkpt><trkpt lat="44.20695931372764" lon="8.004632964021747"><ele>618.3333333333333</ele><time>2026-05-01T13:46:11Z</time></trkpt><trkpt lat="44.20694082520444" lon="8.004408465151961"><ele>620.0</ele><time>2026-05-01T13:46:12Z</time></trkpt><trkpt lat="44.20693343383092" lon="8.004200419484365"><ele>621.0</ele><time>2026-05-01T13:46:13Z</time></trkpt><trkpt lat="44.20693588018801" lon="8.003992053963296"><ele>622.0</ele><time>2026-05-01T13:46:14Z</time></trkpt><trkpt lat="44.20697764107745" lon="8.003790107762976"><ele>623.0</ele><time>2026-05-01T13:46:15Z</time></trkpt><trkpt lat="44.207014696944256" lon="8.003568167643332"><ele>623.3333333333333</ele><time>2026-05-01T13:46:16Z</time></trkpt><trkpt lat="44.20702525270103" lon="8.00332351002339"><ele>623.6666666666666</ele><time>2026-05-01T13:46:17Z</time></trkpt><trkpt lat="44.207049606827326" lon="8.003069872698212"><ele>624.0</ele><time>2026-05-01T13:46:18Z</time></trkpt><trkpt lat="44.20703063746761" lon="8.002813269808822"><ele>624.0</ele><time>2026-05-01T13:46:19Z</time></trkpt><trkpt lat="44.20700637380147" lon="8.002539473137176"><ele>624.0</ele><time>2026-05-01T13:46:20Z</time></trkpt><trkpt lat="44.20701206730695" lon="8.002243174784853"><ele>624.0</ele><time>2026-05-01T13:46:21Z</time></trkpt><trkpt lat="44.20702731205537" lon="8.001955064070172"><ele>626.0</ele><time>2026-05-01T13:46:22Z</time></trkpt><trkpt lat="44.20703208025837" lon="8.001645433543462"><ele>628.0</ele><time>2026-05-01T13:46:23Z</time></trkpt><trkpt lat="44.20705871090826" lon="8.001333967519425"><ele>630.0</ele><time>2026-05-01T13:46:24Z</time></trkpt><trkpt lat="44.20707860047257" lon="8.001102102561502"><ele>630.0</ele><time>2026-05-01T13:46:25Z</time></trkpt><trkpt lat="44.207083995404126" lon="8.000878646444942"><ele>630.0</ele><time>2026-05-01T13:46:26Z</time></trkpt><trkpt lat="44.20709904987249" lon="8.000690593284872"><ele>630.0</ele><time>2026-05-01T13:46:27Z</time></trkpt><trkpt lat="44.20708063798035" lon="8.00050806221036"><ele>630.0</ele><time>2026-05-01T13:46:28Z</time></trkpt><trkpt lat="44.20703688223874" lon="8.000320649912071"><ele>631.0</ele><time>2026-05-01T13:46:29Z</time></trkpt><trkpt lat="44.20696854438765" lon="8.000126822648614"><ele>632.0</ele><time>2026-05-01T13:46:30Z</time></trkpt><trkpt lat="44.20688220415441" lon="7.999926133718787"><ele>633.0</ele><time>2026-05-01T13:46:31Z</time></trkpt><trkpt lat="44.20679322429159" lon="7.999717019306417"><ele>633.0</ele><time>2026-05-01T13:46:32Z</time></trkpt><trkpt lat="44.20670922702013" lon="7.999487204231804"><ele>633.0</ele><time>2026-05-01T13:46:33Z</time></trkpt><trkpt lat="44.206621862181365" lon="7.999250672798433"><ele>633.0</ele><time>2026-05-01T13:46:34Z</time></trkpt><trkpt lat="44.206532030272825" lon="7.999006540628113"><ele>632.6666666666666</ele><time>2026-05-01T13:46:35Z</time></trkpt><trkpt lat="44.20644732562172" lon="7.9987685190006195"><ele>632.3333333333333</ele><time>2026-05-01T13:46:36Z</time></trkpt><trkpt lat="44.20636805035749" lon="7.998551315540715"><ele>632.0</ele><time>2026-05-01T13:46:37Z</time></trkpt><trkpt lat="44.206296836600124" lon="7.998347618881902"><ele>635.0</ele><time>2026-05-01T13:46:38Z</time></trkpt><trkpt lat="44.20622987943025" lon="7.998134577171"><ele>638.0</ele><time>2026-05-01T13:46:39Z</time></trkpt><trkpt lat="44.20620781355315" lon="7.997897361080769"><ele>641.0</ele><time>2026-05-01T13:46:40Z</time></trkpt><trkpt lat="44.20620991002905" lon="7.997694573862908"><ele>641.0</ele><time>2026-05-01T13:46:41Z</time></trkpt><trkpt lat="44.20622813987256" lon="7.9975155528535575"><ele>641.0</ele><time>2026-05-01T13:46:42Z</time></trkpt><trkpt lat="44.20623862356838" lon="7.997364432758177"><ele>641.0</ele><time>2026-05-01T13:46:43Z</time></trkpt><trkpt lat="44.20623050057929" lon="7.997213414848263"><ele>641.0</ele><time>2026-05-01T13:46:44Z</time></trkpt><trkpt lat="44.206223851007024" lon="7.997052832671242"><ele>646.0</ele><time>2026-05-01T13:46:45Z</time></trkpt><trkpt lat="44.206209594699" lon="7.996860673499274"><ele>651.0</ele><time>2026-05-01T13:46:46Z</time></trkpt><trkpt lat="44.20618357090109" lon="7.996631947792184"><ele>656.0</ele><time>2026-05-01T13:46:47Z</time></trkpt><trkpt lat="44.20616282332608" lon="7.996392476652832"><ele>656.3333333333333</ele><time>2026-05-01T13:46:48Z</time></trkpt><trkpt lat="44.206134785876976" lon="7.99612737854682"><ele>656.6666666666666</ele><time>2026-05-01T13:46:49Z</time></trkpt><trkpt lat="44.206097854167986" lon="7.995853725153397"><ele>657.0</ele><time>2026-05-01T13:46:50Z</time></trkpt><trkpt lat="44.206061529913306" lon="7.9955818958238725"><ele>657.0</ele><time>2026-05-01T13:46:51Z</time></trkpt><trkpt lat="44.20600823016602" lon="7.995277694946957"><ele>657.0</ele><time>2026-05-01T13:46:52Z</time></trkpt><trkpt lat="44.205923050721324" lon="7.994972964086804"><ele>656.5</ele><time>2026-05-01T13:46:53Z</time></trkpt><trkpt lat="44.205843754806004" lon="7.994655476056809"><ele>656.0</ele><time>2026-05-01T13:46:54Z</time></trkpt><trkpt lat="44.205811720055046" lon="7.994329713935081"><ele>656.0</ele><time>2026-05-01T13:46:55Z</time></trkpt><trkpt lat="44.20579328622909" lon="7.993995074423932"><ele>656.0</ele><time>2026-05-01T13:46:56Z</time></trkpt><trkpt lat="44.205762227060724" lon="7.9936503072198635"><ele>658.5</ele><time>2026-05-01T13:46:57Z</time></trkpt><trkpt lat="44.20575046104837" lon="7.993303871386922"><ele>661.0</ele><time>2026-05-01T13:46:58Z</time></trkpt><trkpt lat="44.20573807844092" lon="7.992948688648363"><ele>661.0</ele><time>2026-05-01T13:46:59Z</time></trkpt><trkpt lat="44.205715326891344" lon="7.992586345430383"><ele>661.0</ele><time>2026-05-01T13:47:00Z</time></trkpt><trkpt lat="44.20568702459044" lon="7.9922167111438505"><ele>663.0</ele><time>2026-05-01T13:47:01Z</time></trkpt><trkpt lat="44.20566870385458" lon="7.991849081095747"><ele>665.0</ele><time>2026-05-01T13:47:02Z</time></trkpt><trkpt lat="44.20565665854088" lon="7.991484113153952"><ele>667.5</ele><time>2026-05-01T13:47:03Z</time></trkpt><trkpt lat="44.205673498423295" lon="7.991114038802866"><ele>670.0</ele><time>2026-05-01T13:47:04Z</time></trkpt><trkpt lat="44.20566479020884" lon="7.990733818727285"><ele>672.5</ele><time>2026-05-01T13:47:05Z</time></trkpt><trkpt lat="44.2056789937548" lon="7.990354945064836"><ele>675.0</ele><time>2026-05-01T13:47:06Z</time></trkpt><trkpt lat="44.2056860107374" lon="7.989993159278238"><ele>676.5</ele><time>2026-05-01T13:47:07Z</time></trkpt><trkpt lat="44.20569379670674" lon="7.989620436371679"><ele>678.0</ele><time>2026-05-01T13:47:08Z</time></trkpt><trkpt lat="44.20570385475644" lon="7.989246379813995"><ele>680.5</ele><time>2026-05-01T13:47:09Z</time></trkpt><trkpt lat="44.20571442125747" lon="7.988902950645671"><ele>683.0</ele><time>2026-05-01T13:47:10Z</time></trkpt><trkpt lat="44.20571262578312" lon="7.988576126176434"><ele>684.6666666666666</ele><time>2026-05-01T13:47:11Z</time></trkpt><trkpt lat="44.205722629037766" lon="7.98826660119503"><ele>686.3333333333334</ele><time>2026-05-01T13:47:12Z</time></trkpt><trkpt lat="44.205789488675116" lon="7.987963705962883"><ele>688.0</ele><time>2026-05-01T13:47:13Z</time></trkpt><trkpt lat="44.20584821095973" lon="7.987644791944278"><ele>691.5</ele><time>2026-05-01T13:47:14Z</time></trkpt><trkpt lat="44.205929361116794" lon="7.987334221858218"><ele>695.0</ele><time>2026-05-01T13:47:15Z</time></trkpt><trkpt lat="44.20600277859143" lon="7.987022927579765"><ele>695.0</ele><time>2026-05-01T13:47:16Z</time></trkpt><trkpt lat="44.20605487013733" lon="7.986706493217433"><ele>695.0</ele><time>2026-05-01T13:47:17Z</time></trkpt><trkpt lat="44.20606880478363" lon="7.986369964816385"><ele>699.0</ele><time>2026-05-01T13:47:18Z</time></trkpt><trkpt lat="44.20606285551832" lon="7.986018000493097"><ele>703.0</ele><time>2026-05-01T13:47:19Z</time></trkpt><trkpt lat="44.20606066389652" lon="7.985660591053482"><ele>707.0</ele><time>2026-05-01T13:47:20Z</time></trkpt><trkpt lat="44.20606555450757" lon="7.985303753034699"><ele>711.0</ele><time>2026-05-01T13:47:21Z</time></trkpt><trkpt lat="44.2060734757115" lon="7.98495423770617"><ele>713.5</ele><time>2026-05-01T13:47:22Z</time></trkpt><trkpt lat="44.20608024236182" lon="7.984596629955223"><ele>716.0</ele><time>2026-05-01T13:47:23Z</time></trkpt><trkpt lat="44.20608506365737" lon="7.984228841939122"><ele>718.5</ele><time>2026-05-01T13:47:24Z</time></trkpt><trkpt lat="44.20609624212223" lon="7.983877128922832"><ele>721.0</ele><time>2026-05-01T13:47:25Z</time></trkpt><trkpt lat="44.206114946131684" lon="7.983527147114579"><ele>724.0</ele><time>2026-05-01T13:47:26Z</time></trkpt><trkpt lat="44.206159656284434" lon="7.983190173041365"><ele>727.0</ele><time>2026-05-01T13:47:27Z</time></trkpt><trkpt lat="44.20622530640299" lon="7.982849933682089"><ele>731.5</ele><time>2026-05-01T13:47:28Z</time></trkpt><trkpt lat="44.20630221511823" lon="7.982504705846929"><ele>736.0</ele><time>2026-05-01T13:47:29Z</time></trkpt><trkpt lat="44.20637562542946" lon="7.982158116449067"><ele>736.0</ele><time>2026-05-01T13:47:30Z</time></trkpt><trkpt lat="44.206414620739096" lon="7.981834295335352"><ele>736.0</ele><time>2026-05-01T13:47:31Z</time></trkpt><trkpt lat="44.20640883261697" lon="7.981493055527405"><ele>739.0</ele><time>2026-05-01T13:47:32Z</time></trkpt><trkpt lat="44.20637633219587" lon="7.981156297607762"><ele>742.0</ele><time>2026-05-01T13:47:33Z</time></trkpt><trkpt lat="44.2063663938996" lon="7.98081101504483"><ele>746.0</ele><time>2026-05-01T13:47:34Z</time></trkpt><trkpt lat="44.206394145897946" lon="7.980460484514641"><ele>750.0</ele><time>2026-05-01T13:47:35Z</time></trkpt><trkpt lat="44.20642799414003" lon="7.980112124598885"><ele>753.5</ele><time>2026-05-01T13:47:36Z</time></trkpt><trkpt lat="44.20645799127532" lon="7.9797714317655215"><ele>757.0</ele><time>2026-05-01T13:47:37Z</time></trkpt><trkpt lat="44.20647925124289" lon="7.979466801242982"><ele>757.0</ele><time>2026-05-01T13:47:38Z</time></trkpt><trkpt lat="44.206487798206425" lon="7.979217077998155"><ele>757.0</ele><time>2026-05-01T13:47:39Z</time></trkpt><trkpt lat="44.20647056768771" lon="7.979030730976427"><ele>757.0</ele><time>2026-05-01T13:47:40Z</time></trkpt><trkpt lat="44.20641548066416" lon="7.978892247977847"><ele>757.0</ele><time>2026-05-01T13:47:41Z</time></trkpt><trkpt lat="44.20631348511055" lon="7.978804145820252"><ele>757.6666666666667</ele><time>2026-05-01T13:47:42Z</time></trkpt><trkpt lat="44.20617522590184" lon="7.978771398893181"><ele>758.3333333333334</ele><time>2026-05-01T13:47:43Z</time></trkpt><trkpt lat="44.20602985970213" lon="7.9788254225275175"><ele>759.0</ele><time>2026-05-01T13:47:44Z</time></trkpt><trkpt lat="44.20590644762472" lon="7.978970273689289"><ele>758.3333333333334</ele><time>2026-05-01T13:47:45Z</time></trkpt><trkpt lat="44.2058210563199" lon="7.979200637452675"><ele>757.6666666666667</ele><time>2026-05-01T13:47:46Z</time></trkpt><trkpt lat="44.20572488230943" lon="7.9794917531625895"><ele>757.0</ele><time>2026-05-01T13:47:47Z</time></trkpt><trkpt lat="44.20561715334135" lon="7.97974704941242"><ele>761.3333333333334</ele><time>2026-05-01T13:47:48Z</time></trkpt><trkpt lat="44.2054856321483" lon="7.979994910047167"><ele>765.6666666666667</ele><time>2026-05-01T13:47:49Z</time></trkpt><trkpt lat="44.205338761972605" lon="7.980224445933557"><ele>770.0</ele><time>2026-05-01T13:47:50Z</time></trkpt><trkpt lat="44.20523969120264" lon="7.980537963761866"><ele>770.0</ele><time>2026-05-01T13:47:51Z</time></trkpt><trkpt lat="44.20515378470543" lon="7.980805217690635"><ele>770.0</ele><time>2026-05-01T13:47:52Z</time></trkpt><trkpt lat="44.20508435135505" lon="7.981067792859164"><ele>770.0</ele><time>2026-05-01T13:47:53Z</time></trkpt><trkpt lat="44.20497010607623" lon="7.981249525062189"><ele>775.3333333333334</ele><time>2026-05-01T13:47:54Z</time></trkpt><trkpt lat="44.2048289218341" lon="7.981469403248076"><ele>780.6666666666667</ele><time>2026-05-01T13:47:55Z</time></trkpt><trkpt lat="44.20468974171491" lon="7.98171016268094"><ele>786.0</ele><time>2026-05-01T13:47:56Z</time></trkpt><trkpt lat="44.20452852633511" lon="7.981944689005821"><ele>786.0</ele><time>2026-05-01T13:47:57Z</time></trkpt><trkpt lat="44.20437702278258" lon="7.982181143054371"><ele>786.0</ele><time>2026-05-01T13:47:58Z</time></trkpt><trkpt lat="44.20422126768619" lon="7.9824241786441466"><ele>781.5</ele><time>2026-05-01T13:47:59Z</time></trkpt><trkpt lat="44.204071783248175" lon="7.982672013355538"><ele>777.0</ele><time>2026-05-01T13:48:00Z</time></trkpt><trkpt lat="44.203936209199114" lon="7.982953567826436"><ele>782.3333333333333</ele><time>2026-05-01T13:48:01Z</time></trkpt><trkpt lat="44.203841275396854" lon="7.983244861653799"><ele>787.6666666666666</ele><time>2026-05-01T13:48:02Z</time></trkpt><trkpt lat="44.20375803545108" lon="7.983508206811188"><ele>793.0</ele><time>2026-05-01T13:48:03Z</time></trkpt><trkpt lat="44.20368586570915" lon="7.983754504127059"><ele>793.0</ele><time>2026-05-01T13:48:04Z</time></trkpt><trkpt lat="44.20353929007992" lon="7.983911948169304"><ele>793.0</ele><time>2026-05-01T13:48:05Z</time></trkpt><trkpt lat="44.203362583927465" lon="7.984076650098109"><ele>793.0</ele><time>2026-05-01T13:48:06Z</time></trkpt><trkpt lat="44.20317434266333" lon="7.984288706492007"><ele>802.0</ele><time>2026-05-01T13:48:07Z</time></trkpt><trkpt lat="44.203031442406065" lon="7.98452625981828"><ele>811.0</ele><time>2026-05-01T13:48:08Z</time></trkpt><trkpt lat="44.20290860374539" lon="7.984811433523402"><ele>807.5</ele><time>2026-05-01T13:48:09Z</time></trkpt><trkpt lat="44.20279869048207" lon="7.985102283592556"><ele>804.0</ele><time>2026-05-01T13:48:10Z</time></trkpt><trkpt lat="44.20267833578305" lon="7.985389096314142"><ele>804.0</ele><time>2026-05-01T13:48:11Z</time></trkpt><trkpt lat="44.202565178094204" lon="7.985654880293884"><ele>804.0</ele><time>2026-05-01T13:48:12Z</time></trkpt><trkpt lat="44.202438355175936" lon="7.985871149711308"><ele>804.0</ele><time>2026-05-01T13:48:13Z</time></trkpt><trkpt lat="44.20229635759849" lon="7.986066732993415"><ele>811.0</ele><time>2026-05-01T13:48:14Z</time></trkpt><trkpt lat="44.20213702152474" lon="7.986271855610733"><ele>818.0</ele><time>2026-05-01T13:48:15Z</time></trkpt><trkpt lat="44.20198231238531" lon="7.986444992592632"><ele>825.0</ele><time>2026-05-01T13:48:16Z</time></trkpt><trkpt lat="44.20182819345068" lon="7.986568141897159"><ele>821.6666666666667</ele><time>2026-05-01T13:48:17Z</time></trkpt><trkpt lat="44.2016651914225" lon="7.986740395870689"><ele>818.3333333333334</ele><time>2026-05-01T13:48:18Z</time></trkpt><trkpt lat="44.2015835702086" lon="7.986964672094801"><ele>815.0</ele><time>2026-05-01T13:48:19Z</time></trkpt><trkpt lat="44.20155281842695" lon="7.987229899454137"><ele>816.0</ele><time>2026-05-01T13:48:20Z</time></trkpt><trkpt lat="44.20151938170731" lon="7.987529009230973"><ele>817.0</ele><time>2026-05-01T13:48:21Z</time></trkpt><trkpt lat="44.20148857025198" lon="7.987835356114348"><ele>818.0</ele><time>2026-05-01T13:48:22Z</time></trkpt><trkpt lat="44.20149505709233" lon="7.988172751692364"><ele>817.3333333333334</ele><time>2026-05-01T13:48:23Z</time></trkpt><trkpt lat="44.20151311383672" lon="7.988451446076112"><ele>816.6666666666667</ele><time>2026-05-01T13:48:24Z</time></trkpt><trkpt lat="44.20155033089369" lon="7.988685083715079"><ele>816.0</ele><time>2026-05-01T13:48:25Z</time></trkpt><trkpt lat="44.20157009782958" lon="7.988878875176805"><ele>816.0</ele><time>2026-05-01T13:48:26Z</time></trkpt><trkpt lat="44.20156078726736" lon="7.989007730288371"><ele>816.0</ele><time>2026-05-01T13:48:27Z</time></trkpt><trkpt lat="44.20146821098899" lon="7.9891007805998475"><ele>816.0</ele><time>2026-05-01T13:48:29Z</time></trkpt><trkpt lat="44.20138857170217" lon="7.989075328905449"><ele>816.0</ele><time>2026-05-01T13:48:30Z</time></trkpt><trkpt lat="44.20133322954001" lon="7.988942985397686"><ele>816.0</ele><time>2026-05-01T13:48:31Z</time></trkpt><trkpt lat="44.201340817866466" lon="7.988752347888607"><ele>827.3333333333333</ele><time>2026-05-01T13:48:32Z</time></trkpt><trkpt lat="44.20138859593594" lon="7.988524930461902"><ele>838.6666666666666</ele><time>2026-05-01T13:48:33Z</time></trkpt><trkpt lat="44.201348456369885" lon="7.988319523793211"><ele>850.0</ele><time>2026-05-01T13:48:34Z</time></trkpt><trkpt lat="44.20132225050936" lon="7.988089653623723"><ele>850.3333333333333</ele><time>2026-05-01T13:48:35Z</time></trkpt><trkpt lat="44.20122621269048" lon="7.987910986344277"><ele>850.6666666666667</ele><time>2026-05-01T13:48:36Z</time></trkpt><trkpt lat="44.201107147924546" lon="7.987688422721904"><ele>851.0</ele><time>2026-05-01T13:48:37Z</time></trkpt><trkpt lat="44.201015968378734" lon="7.987421490481616"><ele>851.0</ele><time>2026-05-01T13:48:38Z</time></trkpt><trkpt lat="44.20095582195227" lon="7.987167473613492"><ele>851.0</ele><time>2026-05-01T13:48:39Z</time></trkpt><trkpt lat="44.200961313800185" lon="7.986915392060993"><ele>851.0</ele><time>2026-05-01T13:48:40Z</time></trkpt><trkpt lat="44.200956633478775" lon="7.986672849529994"><ele>851.5</ele><time>2026-05-01T13:48:41Z</time></trkpt><trkpt lat="44.200980955723246" lon="7.986453893007802"><ele>852.0</ele><time>2026-05-01T13:48:42Z</time></trkpt><trkpt lat="44.20105872529543" lon="7.986339967664308"><ele>852.5</ele><time>2026-05-01T13:48:43Z</time></trkpt><trkpt lat="44.201133950951366" lon="7.986295751004357"><ele>853.0</ele><time>2026-05-01T13:48:44Z</time></trkpt><trkpt lat="44.20121819817912" lon="7.986208779064665"><ele>853.0</ele><time>2026-05-01T13:48:45Z</time></trkpt><trkpt lat="44.20128715415308" lon="7.986093839722917"><ele>853.0</ele><time>2026-05-01T13:48:46Z</time></trkpt><trkpt lat="44.20131698068551" lon="7.9859267041985795"><ele>853.0</ele><time>2026-05-01T13:48:47Z</time></trkpt><trkpt lat="44.20129415716837" lon="7.985734988600716"><ele>853.0</ele><time>2026-05-01T13:48:48Z</time></trkpt><trkpt lat="44.201231442083966" lon="7.985531432396315"><ele>855.0</ele><time>2026-05-01T13:48:49Z</time></trkpt><trkpt lat="44.2011258256709" lon="7.985342813912269"><ele>857.0</ele><time>2026-05-01T13:48:50Z</time></trkpt><trkpt lat="44.20096213489134" lon="7.985168291166044"><ele>859.0</ele><time>2026-05-01T13:48:51Z</time></trkpt><trkpt lat="44.200868569715794" lon="7.98500588149665"><ele>859.6</ele><time>2026-05-01T13:48:52Z</time></trkpt><trkpt lat="44.200821669231445" lon="7.984872333059087"><ele>860.2</ele><time>2026-05-01T13:48:53Z</time></trkpt><trkpt lat="44.200815592619" lon="7.9847542076673195"><ele>860.8000000000001</ele><time>2026-05-01T13:48:54Z</time></trkpt><trkpt lat="44.20087588184072" lon="7.98465069434351"><ele>861.4000000000001</ele><time>2026-05-01T13:48:55Z</time></trkpt><trkpt lat="44.20092283623298" lon="7.984463880032391"><ele>862.0</ele><time>2026-05-01T13:48:56Z</time></trkpt><trkpt lat="44.200974985811506" lon="7.984209058010784"><ele>863.3333333333333</ele><time>2026-05-01T13:48:57Z</time></trkpt><trkpt lat="44.20102946901838" lon="7.983944185219039"><ele>864.6666666666667</ele><time>2026-05-01T13:48:58Z</time></trkpt><trkpt lat="44.20107971322183" lon="7.983675890303411"><ele>866.0</ele><time>2026-05-01T13:48:59Z</time></trkpt><trkpt lat="44.20107099525946" lon="7.983408790185525"><ele>868.0</ele><time>2026-05-01T13:49:00Z</time></trkpt><trkpt lat="44.20105511987422" lon="7.983108870317105"><ele>870.0</ele><time>2026-05-01T13:49:01Z</time></trkpt><trkpt lat="44.20103889721776" lon="7.982845463755865"><ele>872.0</ele><time>2026-05-01T13:49:02Z</time></trkpt><trkpt lat="44.20109740996277" lon="7.98262909837352"><ele>874.6666666666667</ele><time>2026-05-01T13:49:03Z</time></trkpt><trkpt lat="44.20117448898395" lon="7.982434140461806"><ele>877.3333333333333</ele><time>2026-05-01T13:49:04Z</time></trkpt><trkpt lat="44.2012721432891" lon="7.982250217212358"><ele>880.0</ele><time>2026-05-01T13:49:05Z</time></trkpt><trkpt lat="44.201417607535646" lon="7.982138544402825"><ele>877.0</ele><time>2026-05-01T13:49:06Z</time></trkpt><trkpt lat="44.2015348944847" lon="7.981987676281352"><ele>874.0</ele><time>2026-05-01T13:49:07Z</time></trkpt><trkpt lat="44.201610701910916" lon="7.98185808727557"><ele>871.0</ele><time>2026-05-01T13:49:08Z</time></trkpt><trkpt lat="44.201650123927784" lon="7.981703523735057"><ele>868.0</ele><time>2026-05-01T13:49:09Z</time></trkpt><trkpt lat="44.201657116902375" lon="7.98151090059651"><ele>868.0</ele><time>2026-05-01T13:49:10Z</time></trkpt><trkpt lat="44.2016498990325" lon="7.981283778216895"><ele>868.0</ele><time>2026-05-01T13:49:11Z</time></trkpt><trkpt lat="44.20162688571434" lon="7.981036832447646"><ele>868.0</ele><time>2026-05-01T13:49:12Z</time></trkpt><trkpt lat="44.201591409028545" lon="7.980783143148617"><ele>869.6666666666666</ele><time>2026-05-01T13:49:13Z</time></trkpt><trkpt lat="44.20154968185652" lon="7.980526562744729"><ele>871.3333333333333</ele><time>2026-05-01T13:49:14Z</time></trkpt><trkpt lat="44.20150973886339" lon="7.9802614941307795"><ele>873.0</ele><time>2026-05-01T13:49:15Z</time></trkpt><trkpt lat="44.20147140481579" lon="7.979988351444052"><ele>883.6666666666667</ele><time>2026-05-01T13:49:16Z</time></trkpt><trkpt lat="44.20144261640204" lon="7.97969177122762"><ele>894.3333333333334</ele><time>2026-05-01T13:49:17Z</time></trkpt><trkpt lat="44.201450861795884" lon="7.97937695341846"><ele>905.0</ele><time>2026-05-01T13:49:18Z</time></trkpt><trkpt lat="44.20145973537196" lon="7.979065104183714"><ele>905.6666666666667</ele><time>2026-05-01T13:49:19Z</time></trkpt><trkpt lat="44.201458203580415" lon="7.978776468556063"><ele>906.3333333333333</ele><time>2026-05-01T13:49:20Z</time></trkpt><trkpt lat="44.20147253643407" lon="7.978524320589984"><ele>907.0</ele><time>2026-05-01T13:49:21Z</time></trkpt><trkpt lat="44.201539316788" lon="7.978316481437958"><ele>901.3333333333333</ele><time>2026-05-01T13:49:22Z</time></trkpt><trkpt lat="44.20162368485001" lon="7.97809279572964"><ele>895.6666666666667</ele><time>2026-05-01T13:49:23Z</time></trkpt><trkpt lat="44.20168053155897" lon="7.97785189126026"><ele>890.0</ele><time>2026-05-01T13:49:24Z</time></trkpt><trkpt lat="44.20170757563625" lon="7.977589843230092"><ele>894.0</ele><time>2026-05-01T13:49:25Z</time></trkpt><trkpt lat="44.201748954741134" lon="7.9773108502109356"><ele>898.0</ele><time>2026-05-01T13:49:26Z</time></trkpt><trkpt lat="44.201806627241304" lon="7.97704828555101"><ele>902.0</ele><time>2026-05-01T13:49:27Z</time></trkpt><trkpt lat="44.20186754971185" lon="7.976823053229169"><ele>905.0</ele><time>2026-05-01T13:49:28Z</time></trkpt><trkpt lat="44.201903857663865" lon="7.976560939501698"><ele>908.0</ele><time>2026-05-01T13:49:29Z</time></trkpt><trkpt lat="44.2019062254589" lon="7.976257782499293"><ele>911.0</ele><time>2026-05-01T13:49:30Z</time></trkpt><trkpt lat="44.20191170184604" lon="7.975942397199246"><ele>913.5</ele><time>2026-05-01T13:49:31Z</time></trkpt><trkpt lat="44.20192114569748" lon="7.975618036615553"><ele>916.0</ele><time>2026-05-01T13:49:32Z</time></trkpt><trkpt lat="44.20192649866486" lon="7.975311078311281"><ele>916.0</ele><time>2026-05-01T13:49:33Z</time></trkpt><trkpt lat="44.20192228975773" lon="7.975035359586671"><ele>916.0</ele><time>2026-05-01T13:49:34Z</time></trkpt><trkpt lat="44.20188467741217" lon="7.9747549724490385"><ele>916.0</ele><time>2026-05-01T13:49:35Z</time></trkpt><trkpt lat="44.20181866960006" lon="7.9744634142896365"><ele>915.0</ele><time>2026-05-01T13:49:36Z</time></trkpt><trkpt lat="44.20174998604136" lon="7.974157056374203"><ele>914.0</ele><time>2026-05-01T13:49:37Z</time></trkpt><trkpt lat="44.20168054503414" lon="7.973826744568989"><ele>914.0</ele><time>2026-05-01T13:49:38Z</time></trkpt><trkpt lat="44.201613332142394" lon="7.973522402267531"><ele>914.0</ele><time>2026-05-01T13:49:39Z</time></trkpt><trkpt lat="44.2015448557422" lon="7.973210211352738"><ele>929.0</ele><time>2026-05-01T13:49:40Z</time></trkpt><trkpt lat="44.20148656900241" lon="7.9728845754558355"><ele>944.0</ele><time>2026-05-01T13:49:41Z</time></trkpt><trkpt lat="44.20144911579736" lon="7.97255791585623"><ele>944.0</ele><time>2026-05-01T13:49:42Z</time></trkpt><trkpt lat="44.20143857364955" lon="7.972219677248063"><ele>944.0</ele><time>2026-05-01T13:49:43Z</time></trkpt><trkpt lat="44.201401515193716" lon="7.971863299462688"><ele>946.0</ele><time>2026-05-01T13:49:44Z</time></trkpt><trkpt lat="44.201381060804415" lon="7.971551305733442"><ele>948.0</ele><time>2026-05-01T13:49:45Z</time></trkpt><trkpt lat="44.2013805342974" lon="7.971278248858689"><ele>950.0</ele><time>2026-05-01T13:49:46Z</time></trkpt><trkpt lat="44.201383450853285" lon="7.971005112414692"><ele>953.3333333333334</ele><time>2026-05-01T13:49:47Z</time></trkpt><trkpt lat="44.20144134680074" lon="7.970729735361125"><ele>956.6666666666667</ele><time>2026-05-01T13:49:48Z</time></trkpt><trkpt lat="44.20149405565514" lon="7.970434513076385"><ele>960.0</ele><time>2026-05-01T13:49:49Z</time></trkpt><trkpt lat="44.20154762292099" lon="7.970169791322675"><ele>953.6666666666667</ele><time>2026-05-01T13:49:50Z</time></trkpt><trkpt lat="44.20165388695919" lon="7.969955937866495"><ele>947.3333333333334</ele><time>2026-05-01T13:49:51Z</time></trkpt><trkpt lat="44.201788944240164" lon="7.969788474284714"><ele>941.0</ele><time>2026-05-01T13:49:52Z</time></trkpt><trkpt lat="44.201937355878215" lon="7.969607344424485"><ele>941.0</ele><time>2026-05-01T13:49:53Z</time></trkpt><trkpt lat="44.20207365820743" lon="7.969392815029201"><ele>941.0</ele><time>2026-05-01T13:49:54Z</time></trkpt><trkpt lat="44.20221341157477" lon="7.969179306625186"><ele>941.0</ele><time>2026-05-01T13:49:55Z</time></trkpt><trkpt lat="44.20233689608871" lon="7.968958596895611"><ele>938.6666666666667</ele><time>2026-05-01T13:49:56Z</time></trkpt><trkpt lat="44.202447378364425" lon="7.96871971865357"><ele>936.3333333333333</ele><time>2026-05-01T13:49:57Z</time></trkpt><trkpt lat="44.2025366615769" lon="7.968469479962825"><ele>934.0</ele><time>2026-05-01T13:49:58Z</time></trkpt><trkpt lat="44.20261273607916" lon="7.968259136027551"><ele>939.6666666666666</ele><time>2026-05-01T13:49:59Z</time></trkpt><trkpt lat="44.2027151113864" lon="7.968089674597459"><ele>945.3333333333333</ele><time>2026-05-01T13:50:00Z</time></trkpt><trkpt lat="44.202839627445115" lon="7.967990701694417"><ele>951.0</ele><time>2026-05-01T13:50:01Z</time></trkpt><trkpt lat="44.20297794471935" lon="7.967861085544674"><ele>951.0</ele><time>2026-05-01T13:50:02Z</time></trkpt><trkpt lat="44.20310927242207" lon="7.967679125594428"><ele>951.0</ele><time>2026-05-01T13:50:03Z</time></trkpt><trkpt lat="44.203201578472225" lon="7.967438733860376"><ele>951.0</ele><time>2026-05-01T13:50:04Z</time></trkpt><trkpt lat="44.20330361199634" lon="7.967169761097533"><ele>952.0</ele><time>2026-05-01T13:50:05Z</time></trkpt><trkpt lat="44.20343074080309" lon="7.966916957584262"><ele>953.0</ele><time>2026-05-01T13:50:06Z</time></trkpt><trkpt lat="44.203575488420974" lon="7.966667758475792"><ele>961.5</ele><time>2026-05-01T13:50:07Z</time></trkpt><trkpt lat="44.20372233893039" lon="7.966401973160592"><ele>970.0</ele><time>2026-05-01T13:50:08Z</time></trkpt><trkpt lat="44.203827899802015" lon="7.966109270819234"><ele>964.5</ele><time>2026-05-01T13:50:09Z</time></trkpt><trkpt lat="44.203946693172135" lon="7.965812958690545"><ele>959.0</ele><time>2026-05-01T13:50:10Z</time></trkpt><trkpt lat="44.204046415950245" lon="7.965514219571893"><ele>959.0</ele><time>2026-05-01T13:50:11Z</time></trkpt><trkpt lat="44.2041356570291" lon="7.965217489207278"><ele>959.0</ele><time>2026-05-01T13:50:12Z</time></trkpt><trkpt lat="44.20419294176201" lon="7.9649301837820605"><ele>959.0</ele><time>2026-05-01T13:50:13Z</time></trkpt><trkpt lat="44.20424106556509" lon="7.964625125658477"><ele>963.3333333333334</ele><time>2026-05-01T13:50:14Z</time></trkpt><trkpt lat="44.204284767356626" lon="7.964335696809067"><ele>967.6666666666667</ele><time>2026-05-01T13:50:15Z</time></trkpt><trkpt lat="44.204331387397254" lon="7.96403028825867"><ele>972.0</ele><time>2026-05-01T13:50:16Z</time></trkpt><trkpt lat="44.20439597213387" lon="7.963780806555036"><ele>976.6666666666667</ele><time>2026-05-01T13:50:17Z</time></trkpt><trkpt lat="44.204473388995034" lon="7.963553432883933"><ele>981.3333333333334</ele><time>2026-05-01T13:50:18Z</time></trkpt><trkpt lat="44.20455416000912" lon="7.963349271176338"><ele>986.0</ele><time>2026-05-01T13:50:19Z</time></trkpt><trkpt lat="44.204641282241646" lon="7.963126441772177"><ele>990.3333333333334</ele><time>2026-05-01T13:50:20Z</time></trkpt><trkpt lat="44.2047018791648" lon="7.962888921530745"><ele>994.6666666666667</ele><time>2026-05-01T13:50:21Z</time></trkpt><trkpt lat="44.20471938656617" lon="7.962629988433085"><ele>999.0</ele><time>2026-05-01T13:50:22Z</time></trkpt><trkpt lat="44.20471826929124" lon="7.962371016583445"><ele>1002.3333333333333</ele><time>2026-05-01T13:50:23Z</time></trkpt><trkpt lat="44.20472327783786" lon="7.962119692848874"><ele>1005.6666666666666</ele><time>2026-05-01T13:50:24Z</time></trkpt><trkpt lat="44.204745815187984" lon="7.961865922480823"><ele>1009.0</ele><time>2026-05-01T13:50:25Z</time></trkpt><trkpt lat="44.20478448239374" lon="7.961609369535928"><ele>1004.6666666666666</ele><time>2026-05-01T13:50:26Z</time></trkpt><trkpt lat="44.20488438960533" lon="7.961397729834316"><ele>1000.3333333333333</ele><time>2026-05-01T13:50:27Z</time></trkpt><trkpt lat="44.20501343429291" lon="7.96119700948738"><ele>996.0</ele><time>2026-05-01T13:50:28Z</time></trkpt><trkpt lat="44.20515799833315" lon="7.961021662539032"><ele>1001.6666666666667</ele><time>2026-05-01T13:50:29Z</time></trkpt><trkpt lat="44.2052955357644" lon="7.960824722195652"><ele>1007.3333333333334</ele><time>2026-05-01T13:50:30Z</time></trkpt><trkpt lat="44.20540874922858" lon="7.960587323622565"><ele>1013.0</ele><time>2026-05-01T13:50:31Z</time></trkpt><trkpt lat="44.20550185808374" lon="7.960336094009343"><ele>1013.0</ele><time>2026-05-01T13:50:32Z</time></trkpt><trkpt lat="44.20559917863513" lon="7.96007678124726"><ele>1013.0</ele><time>2026-05-01T13:50:33Z</time></trkpt><trkpt lat="44.20569775306695" lon="7.959821284310853"><ele>1013.0</ele><time>2026-05-01T13:50:34Z</time></trkpt><trkpt lat="44.20580460673131" lon="7.959549258911417"><ele>1011.0</ele><time>2026-05-01T13:50:35Z</time></trkpt><trkpt lat="44.20591553746611" lon="7.959291661363398"><ele>1009.0</ele><time>2026-05-01T13:50:36Z</time></trkpt><trkpt lat="44.20602845989862" lon="7.959040310869022"><ele>1007.0</ele><time>2026-05-01T13:50:37Z</time></trkpt><trkpt lat="44.206133997912715" lon="7.958783286553767"><ele>1012.3333333333334</ele><time>2026-05-01T13:50:38Z</time></trkpt><trkpt lat="44.206243452300605" lon="7.958519789914653"><ele>1017.6666666666667</ele><time>2026-05-01T13:50:39Z</time></trkpt><trkpt lat="44.206356234128116" lon="7.9582443614275915"><ele>1023.0</ele><time>2026-05-01T13:50:40Z</time></trkpt><trkpt lat="44.20645912984391" lon="7.957989027370301"><ele>1021.3333333333333</ele><time>2026-05-01T13:50:41Z</time></trkpt><trkpt lat="44.2065435509011" lon="7.957756080216751"><ele>1019.6666666666666</ele><time>2026-05-01T13:50:42Z</time></trkpt><trkpt lat="44.20661012342227" lon="7.957494053930247"><ele>1018.0</ele><time>2026-05-01T13:50:43Z</time></trkpt><trkpt lat="44.20665701479061" lon="7.957239960435603"><ele>1021.25</ele><time>2026-05-01T13:50:44Z</time></trkpt><trkpt lat="44.20669037126866" lon="7.957016066766667"><ele>1024.5</ele><time>2026-05-01T13:50:45Z</time></trkpt><trkpt lat="44.20672521177647" lon="7.956838952819547"><ele>1027.75</ele><time>2026-05-01T13:50:46Z</time></trkpt><trkpt lat="44.20678495206441" lon="7.956706718968536"><ele>1031.0</ele><time>2026-05-01T13:50:47Z</time></trkpt><trkpt lat="44.20688511968832" lon="7.956659825456238"><ele>1035.6666666666667</ele><time>2026-05-01T13:50:48Z</time></trkpt><trkpt lat="44.20700334057049" lon="7.9566088281851775"><ele>1040.3333333333333</ele><time>2026-05-01T13:50:49Z</time></trkpt><trkpt lat="44.207159003933164" lon="7.95668968731261"><ele>1045.0</ele><time>2026-05-01T13:50:50Z</time></trkpt><trkpt lat="44.207342663914" lon="7.956699828077706"><ele>1045.0</ele><time>2026-05-01T13:50:51Z</time></trkpt><trkpt lat="44.20754596837587" lon="7.956712755612401"><ele>1045.0</ele><time>2026-05-01T13:50:52Z</time></trkpt><trkpt lat="44.20773226733714" lon="7.956692321922054"><ele>1045.0</ele><time>2026-05-01T13:50:53Z</time></trkpt><trkpt lat="44.2078970440775" lon="7.95661386066627"><ele>1045.0</ele><time>2026-05-01T13:50:54Z</time></trkpt><trkpt lat="44.20802505596088" lon="7.956525936189595"><ele>1045.0</ele><time>2026-05-01T13:50:55Z</time></trkpt><trkpt lat="44.20812178424525" lon="7.956478526620861"><ele>1045.0</ele><time>2026-05-01T13:50:56Z</time></trkpt><trkpt lat="44.20820916499877" lon="7.956547413641533"><ele>1045.0</ele><time>2026-05-01T13:50:57Z</time></trkpt><trkpt lat="44.20827511506056" lon="7.956649517635775"><ele>1045.0</ele><time>2026-05-01T13:50:58Z</time></trkpt><trkpt lat="44.2082978041306" lon="7.9567852584447225"><ele>1048.0</ele><time>2026-05-01T13:50:59Z</time></trkpt><trkpt lat="44.208263968492226" lon="7.956924750326901"><ele>1051.0</ele><time>2026-05-01T13:51:00Z</time></trkpt><trkpt lat="44.20817509057464" lon="7.9570761027231605"><ele>1054.0</ele><time>2026-05-01T13:51:01Z</time></trkpt><trkpt lat="44.20812968131791" lon="7.957254301655008"><ele>1057.0</ele><time>2026-05-01T13:51:02Z</time></trkpt><trkpt lat="44.208144310981865" lon="7.9574925683601965"><ele>1058.0</ele><time>2026-05-01T13:51:03Z</time></trkpt><trkpt lat="44.20817692052873" lon="7.957761499752322"><ele>1059.0</ele><time>2026-05-01T13:51:04Z</time></trkpt><trkpt lat="44.20819460288167" lon="7.958032768150806"><ele>1060.0</ele><time>2026-05-01T13:51:05Z</time></trkpt><trkpt lat="44.20821746590255" lon="7.958332188341162"><ele>1058.0</ele><time>2026-05-01T13:51:06Z</time></trkpt><trkpt lat="44.20823941086042" lon="7.958619585127056"><ele>1056.0</ele><time>2026-05-01T13:51:07Z</time></trkpt><trkpt lat="44.208275521627854" lon="7.958856755480668"><ele>1054.0</ele><time>2026-05-01T13:51:08Z</time></trkpt><trkpt lat="44.208333393046146" lon="7.959072266285804"><ele>1050.0</ele><time>2026-05-01T13:51:09Z</time></trkpt><trkpt lat="44.20843219196785" lon="7.959265358276044"><ele>1046.0</ele><time>2026-05-01T13:51:10Z</time></trkpt><trkpt lat="44.208569136796534" lon="7.959420770622303"><ele>1042.0</ele><time>2026-05-01T13:51:11Z</time></trkpt><trkpt lat="44.2087040749857" lon="7.959511511496105"><ele>1042.0</ele><time>2026-05-01T13:51:12Z</time></trkpt><trkpt lat="44.20876944530515" lon="7.959607756612712"><ele>1042.0</ele><time>2026-05-01T13:51:13Z</time></trkpt><trkpt lat="44.208777360575695" lon="7.959727985280442"><ele>1042.0</ele><time>2026-05-01T13:51:14Z</time></trkpt><trkpt lat="44.2087217502142" lon="7.959875367897738"><ele>1042.0</ele><time>2026-05-01T13:51:15Z</time></trkpt><trkpt lat="44.20866916332971" lon="7.9600745684399"><ele>1039.6666666666665</ele><time>2026-05-01T13:51:16Z</time></trkpt><trkpt lat="44.20866271372019" lon="7.960282066604754"><ele>1037.3333333333333</ele><time>2026-05-01T13:51:17Z</time></trkpt><trkpt lat="44.20870488007207" lon="7.960513124863786"><ele>1035.0</ele><time>2026-05-01T13:51:18Z</time></trkpt><trkpt lat="44.20879917618538" lon="7.960741329216336"><ele>1035.0</ele><time>2026-05-01T13:51:19Z</time></trkpt><trkpt lat="44.20894579050466" lon="7.960923455870479"><ele>1035.0</ele><time>2026-05-01T13:51:20Z</time></trkpt><trkpt lat="44.20910421048068" lon="7.96109265104042"><ele>1035.0</ele><time>2026-05-01T13:51:21Z</time></trkpt><trkpt lat="44.20926111335696" lon="7.961263771911483"><ele>1039.25</ele><time>2026-05-01T13:51:22Z</time></trkpt><trkpt lat="44.20932800024082" lon="7.961482008211826"><ele>1043.5</ele><time>2026-05-01T13:51:23Z</time></trkpt><trkpt lat="44.2094063482774" lon="7.961638610244691"><ele>1047.75</ele><time>2026-05-01T13:51:24Z</time></trkpt><trkpt lat="44.209457789894095" lon="7.9617593328152605"><ele>1052.0</ele><time>2026-05-01T13:51:25Z</time></trkpt><trkpt lat="44.209563749438836" lon="7.961822141936471"><ele>1052.0</ele><time>2026-05-01T13:51:26Z</time></trkpt><trkpt lat="44.209713901726936" lon="7.961793753481047"><ele>1052.0</ele><time>2026-05-01T13:51:27Z</time></trkpt><trkpt lat="44.2098748086301" lon="7.96169593886525"><ele>1052.0</ele><time>2026-05-01T13:51:28Z</time></trkpt><trkpt lat="44.21006504820748" lon="7.961571333603355"><ele>1062.0</ele><time>2026-05-01T13:51:29Z</time></trkpt><trkpt lat="44.210293565928424" lon="7.961510536198878"><ele>1072.0</ele><time>2026-05-01T13:51:30Z</time></trkpt><trkpt lat="44.210506308339156" lon="7.9614900007935105"><ele>1082.0</ele><time>2026-05-01T13:51:31Z</time></trkpt><trkpt lat="44.21070054511398" lon="7.961475938569338"><ele>1085.5</ele><time>2026-05-01T13:51:32Z</time></trkpt><trkpt lat="44.21091697375039" lon="7.961465098663079"><ele>1089.0</ele><time>2026-05-01T13:51:33Z</time></trkpt><trkpt lat="44.211150646092946" lon="7.96142581887628"><ele>1089.0</ele><time>2026-05-01T13:51:34Z</time></trkpt><trkpt lat="44.21135968148494" lon="7.961396848200574"><ele>1089.0</ele><time>2026-05-01T13:51:35Z</time></trkpt><trkpt lat="44.21151612688845" lon="7.961404462170052"><ele>1089.0</ele><time>2026-05-01T13:51:36Z</time></trkpt><trkpt lat="44.21164876447471" lon="7.961427302662918"><ele>1091.75</ele><time>2026-05-01T13:51:37Z</time></trkpt><trkpt lat="44.211749246630184" lon="7.961520425405738"><ele>1094.5</ele><time>2026-05-01T13:51:38Z</time></trkpt><trkpt lat="44.21183995859537" lon="7.961647217792012"><ele>1097.25</ele><time>2026-05-01T13:51:39Z</time></trkpt><trkpt lat="44.21199224498232" lon="7.961823832777011"><ele>1100.0</ele><time>2026-05-01T13:51:40Z</time></trkpt><trkpt lat="44.212173269297615" lon="7.961945156337264"><ele>1101.3333333333335</ele><time>2026-05-01T13:51:41Z</time></trkpt><trkpt lat="44.212330761817334" lon="7.962027916917189"><ele>1102.6666666666667</ele><time>2026-05-01T13:51:42Z</time></trkpt><trkpt lat="44.21249769630408" lon="7.962123526416983"><ele>1104.0</ele><time>2026-05-01T13:51:43Z</time></trkpt><trkpt lat="44.212604166373275" lon="7.962222232730478"><ele>1104.0</ele><time>2026-05-01T13:51:44Z</time></trkpt><trkpt lat="44.212643281872246" lon="7.9623327544938105"><ele>1104.0</ele><time>2026-05-01T13:51:45Z</time></trkpt><trkpt lat="44.21265901910013" lon="7.962499240300797"><ele>1104.0</ele><time>2026-05-01T13:51:46Z</time></trkpt><trkpt lat="44.212677296293165" lon="7.962712909708401"><ele>1104.0</ele><time>2026-05-01T13:51:47Z</time></trkpt><trkpt lat="44.212704470207626" lon="7.962955864193203"><ele>1101.0</ele><time>2026-05-01T13:51:48Z</time></trkpt><trkpt lat="44.21271532701039" lon="7.963214173535933"><ele>1098.0</ele><time>2026-05-01T13:51:49Z</time></trkpt><trkpt lat="44.21272492757995" lon="7.963441703405515"><ele>1095.0</ele><time>2026-05-01T13:51:50Z</time></trkpt><trkpt lat="44.21274745354638" lon="7.963615087489467"><ele>1092.75</ele><time>2026-05-01T13:51:51Z</time></trkpt><trkpt lat="44.2127928699486" lon="7.963735249470402"><ele>1090.5</ele><time>2026-05-01T13:51:52Z</time></trkpt><trkpt lat="44.21288355093032" lon="7.9638142516871095"><ele>1088.25</ele><time>2026-05-01T13:51:53Z</time></trkpt><trkpt lat="44.21301003199308" lon="7.963876348337361"><ele>1086.0</ele><time>2026-05-01T13:51:54Z</time></trkpt><trkpt lat="44.213150432706286" lon="7.963942289050078"><ele>1095.3333333333333</ele><time>2026-05-01T13:51:55Z</time></trkpt><trkpt lat="44.213245657203686" lon="7.96408083293665"><ele>1104.6666666666665</ele><time>2026-05-01T13:51:56Z</time></trkpt><trkpt lat="44.21335372143008" lon="7.964258056223171"><ele>1114.0</ele><time>2026-05-01T13:51:57Z</time></trkpt><trkpt lat="44.21346074794457" lon="7.964471099096986"><ele>1114.0</ele><time>2026-05-01T13:51:58Z</time></trkpt><trkpt lat="44.21355369289094" lon="7.9646952294666"><ele>1114.0</ele><time>2026-05-01T13:51:59Z</time></trkpt><trkpt lat="44.2136061478233" lon="7.96490121810224"><ele>1114.0</ele><time>2026-05-01T13:52:00Z</time></trkpt><trkpt lat="44.213609329729344" lon="7.965103006706221"><ele>1113.6666666666665</ele><time>2026-05-01T13:52:01Z</time></trkpt><trkpt lat="44.213595882751086" lon="7.965342973738271"><ele>1113.3333333333333</ele><time>2026-05-01T13:52:02Z</time></trkpt><trkpt lat="44.21358711814223" lon="7.965601085086677"><ele>1113.0</ele><time>2026-05-01T13:52:03Z</time></trkpt><trkpt lat="44.213543602890006" lon="7.965863040431667"><ele>1113.0</ele><time>2026-05-01T13:52:04Z</time></trkpt><trkpt lat="44.2134906215165" lon="7.96612340820649"><ele>1113.0</ele><time>2026-05-01T13:52:05Z</time></trkpt><trkpt lat="44.21343824510792" lon="7.966355434636358"><ele>1113.0</ele><time>2026-05-01T13:52:06Z</time></trkpt><trkpt lat="44.2133966357123" lon="7.966543664125822"><ele>1111.5</ele><time>2026-05-01T13:52:07Z</time></trkpt><trkpt lat="44.213385695779245" lon="7.966710419152387"><ele>1110.0</ele><time>2026-05-01T13:52:08Z</time></trkpt><trkpt lat="44.21342026048455" lon="7.966863131887383"><ele>1108.5</ele><time>2026-05-01T13:52:09Z</time></trkpt><trkpt lat="44.213502682845096" lon="7.966997345817582"><ele>1107.0</ele><time>2026-05-01T13:52:10Z</time></trkpt><trkpt lat="44.21362916327842" lon="7.967098874354743"><ele>1107.0</ele><time>2026-05-01T13:52:11Z</time></trkpt><trkpt lat="44.21378184384194" lon="7.967172261897021"><ele>1107.0</ele><time>2026-05-01T13:52:12Z</time></trkpt><trkpt lat="44.213942952713346" lon="7.967199504036719"><ele>1107.0</ele><time>2026-05-01T13:52:13Z</time></trkpt><trkpt lat="44.2140932229017" lon="7.967170134359299"><ele>1108.75</ele><time>2026-05-01T13:52:14Z</time></trkpt><trkpt lat="44.214240266379086" lon="7.967099620279991"><ele>1110.5</ele><time>2026-05-01T13:52:15Z</time></trkpt><trkpt lat="44.21438185263393" lon="7.96705854511746"><ele>1112.25</ele><time>2026-05-01T13:52:16Z</time></trkpt><trkpt lat="44.21452100053914" lon="7.967124290782637"><ele>1114.0</ele><time>2026-05-01T13:52:17Z</time></trkpt><trkpt lat="44.214667047492874" lon="7.967138031208651"><ele>1114.0</ele><time>2026-05-01T13:52:18Z</time></trkpt><trkpt lat="44.214803300088654" lon="7.96714829438485"><ele>1114.0</ele><time>2026-05-01T13:52:19Z</time></trkpt><trkpt lat="44.21493973832143" lon="7.9670650227162865"><ele>1114.0</ele><time>2026-05-01T13:52:20Z</time></trkpt><trkpt lat="44.21509626883683" lon="7.966943347176286"><ele>1113.6666666666665</ele><time>2026-05-01T13:52:21Z</time></trkpt><trkpt lat="44.21526247785882" lon="7.966808903673664"><ele>1113.3333333333333</ele><time>2026-05-01T13:52:22Z</time></trkpt><trkpt lat="44.21544209036581" lon="7.96669708907495"><ele>1113.0</ele><time>2026-05-01T13:52:23Z</time></trkpt><trkpt lat="44.21560761263402" lon="7.96662562833206"><ele>1114.0</ele><time>2026-05-01T13:52:24Z</time></trkpt><trkpt lat="44.21573175264625" lon="7.9666158735076875"><ele>1115.0</ele><time>2026-05-01T13:52:25Z</time></trkpt><trkpt lat="44.21584694151692" lon="7.96670658535062"><ele>1116.0</ele><time>2026-05-01T13:52:26Z</time></trkpt><trkpt lat="44.21595625403922" lon="7.96682305067062"><ele>1117.0</ele><time>2026-05-01T13:52:27Z</time></trkpt><trkpt lat="44.216081335936934" lon="7.966885201465523"><ele>1117.0</ele><time>2026-05-01T13:52:28Z</time></trkpt><trkpt lat="44.216228006446414" lon="7.966839042281837"><ele>1117.0</ele><time>2026-05-01T13:52:29Z</time></trkpt><trkpt lat="44.21638543593112" lon="7.96682842403841"><ele>1117.0</ele><time>2026-05-01T13:52:30Z</time></trkpt><trkpt lat="44.216498413372456" lon="7.966903755958905"><ele>1117.0</ele><time>2026-05-01T13:52:31Z</time></trkpt><trkpt lat="44.216591459058776" lon="7.967041649607704"><ele>1123.0</ele><time>2026-05-01T13:52:32Z</time></trkpt><trkpt lat="44.216724031711315" lon="7.9671462396758574"><ele>1129.0</ele><time>2026-05-01T13:52:33Z</time></trkpt><trkpt lat="44.21687395167479" lon="7.967239425502662"><ele>1135.0</ele><time>2026-05-01T13:52:34Z</time></trkpt><trkpt lat="44.21708867484402" lon="7.967311077021919"><ele>1135.0</ele><time>2026-05-01T13:52:35Z</time></trkpt><trkpt lat="44.21727583854083" lon="7.967370341485462"><ele>1135.0</ele><time>2026-05-01T13:52:36Z</time></trkpt><trkpt lat="44.2174533919866" lon="7.967442015511715"><ele>1135.0</ele><time>2026-05-01T13:52:37Z</time></trkpt><trkpt lat="44.21762716000977" lon="7.967491526804289"><ele>1138.0</ele><time>2026-05-01T13:52:38Z</time></trkpt><trkpt lat="44.217772505735915" lon="7.967525874258681"><ele>1141.0</ele><time>2026-05-01T13:52:39Z</time></trkpt><trkpt lat="44.21790592501845" lon="7.967599502952525"><ele>1144.0</ele><time>2026-05-01T13:52:40Z</time></trkpt><trkpt lat="44.21804732873218" lon="7.967572173847091"><ele>1147.0</ele><time>2026-05-01T13:52:41Z</time></trkpt><trkpt lat="44.218154329619644" lon="7.967376653841565"><ele>1147.0</ele><time>2026-05-01T13:52:42Z</time></trkpt><trkpt lat="44.21827306493486" lon="7.967235724060613"><ele>1147.0</ele><time>2026-05-01T13:52:43Z</time></trkpt><trkpt lat="44.218395792041505" lon="7.967104743512336"><ele>1147.0</ele><time>2026-05-01T13:52:44Z</time></trkpt><trkpt lat="44.21852682511765" lon="7.967052722875432"><ele>1147.0</ele><time>2026-05-01T13:52:45Z</time></trkpt><trkpt lat="44.21865996452414" lon="7.96707601323338"><ele>1147.0</ele><time>2026-05-01T13:52:46Z</time></trkpt><trkpt lat="44.218766135406085" lon="7.967138185358559"><ele>1147.0</ele><time>2026-05-01T13:52:47Z</time></trkpt><trkpt lat="44.2188453926569" lon="7.967130126524855"><ele>1147.0</ele><time>2026-05-01T13:52:48Z</time></trkpt><trkpt lat="44.21888573854127" lon="7.967027473743902"><ele>1147.0</ele><time>2026-05-01T13:52:49Z</time></trkpt><trkpt lat="44.21886576759308" lon="7.966891731124532"><ele>1147.0</ele><time>2026-05-01T13:52:50Z</time></trkpt><trkpt lat="44.21877905582861" lon="7.966793864324272"><ele>1147.0</ele><time>2026-05-01T13:52:51Z</time></trkpt><trkpt lat="44.218655769455616" lon="7.966776035221357"><ele>1147.0</ele><time>2026-05-01T13:52:52Z</time></trkpt><trkpt lat="44.21852780630672" lon="7.966878522769026"><ele>1147.0</ele><time>2026-05-01T13:52:53Z</time></trkpt><trkpt lat="44.2183564515481" lon="7.966949450859544"><ele>1147.0</ele><time>2026-05-01T13:52:54Z</time></trkpt><trkpt lat="44.21816039316151" lon="7.966993117232451"><ele>1147.0</ele><time>2026-05-01T13:52:55Z</time></trkpt><trkpt lat="44.21796201608399" lon="7.967043898793039"><ele>1147.0</ele><time>2026-05-01T13:52:56Z</time></trkpt><trkpt lat="44.21776144428478" lon="7.967075226517676"><ele>1148.5</ele><time>2026-05-01T13:52:57Z</time></trkpt><trkpt lat="44.21759240438978" lon="7.96701241598298"><ele>1150.0</ele><time>2026-05-01T13:52:58Z</time></trkpt><trkpt lat="44.21749406918307" lon="7.966922852861681"><ele>1151.5</ele><time>2026-05-01T13:52:59Z</time></trkpt><trkpt lat="44.21740795564924" lon="7.966788528999192"><ele>1153.0</ele><time>2026-05-01T13:53:00Z</time></trkpt><trkpt lat="44.217311765597" lon="7.96664669895324"><ele>1157.6666666666665</ele><time>2026-05-01T13:53:01Z</time></trkpt><trkpt lat="44.2171936991412" lon="7.966483647119702"><ele>1162.3333333333333</ele><time>2026-05-01T13:53:02Z</time></trkpt><trkpt lat="44.21707140781077" lon="7.966350500820853"><ele>1167.0</ele><time>2026-05-01T13:53:03Z</time></trkpt><trkpt lat="44.21695434809865" lon="7.966202403742471"><ele>1167.0</ele><time>2026-05-01T13:53:04Z</time></trkpt><trkpt lat="44.21678294947665" lon="7.966096139199887"><ele>1167.0</ele><time>2026-05-01T13:53:05Z</time></trkpt><trkpt lat="44.21663327493479" lon="7.965990182937115"><ele>1167.0</ele><time>2026-05-01T13:53:06Z</time></trkpt><trkpt lat="44.21651888389756" lon="7.965836835758455"><ele>1168.3333333333333</ele><time>2026-05-01T13:53:07Z</time></trkpt><trkpt lat="44.21640759069271" lon="7.965655713319022"><ele>1169.6666666666665</ele><time>2026-05-01T13:53:08Z</time></trkpt><trkpt lat="44.21628542194524" lon="7.965462958528848"><ele>1171.0</ele><time>2026-05-01T13:53:09Z</time></trkpt><trkpt lat="44.21615052647958" lon="7.965311648594573"><ele>1171.0</ele><time>2026-05-01T13:53:10Z</time></trkpt><trkpt lat="44.21599354516643" lon="7.965218376227193"><ele>1171.0</ele><time>2026-05-01T13:53:11Z</time></trkpt><trkpt lat="44.2158033315509" lon="7.965147152832644"><ele>1171.0</ele><time>2026-05-01T13:53:12Z</time></trkpt><trkpt lat="44.21558914105049" lon="7.965099116857222"><ele>1169.3333333333333</ele><time>2026-05-01T13:53:13Z</time></trkpt><trkpt lat="44.2153818348437" lon="7.965084976526237"><ele>1167.6666666666667</ele><time>2026-05-01T13:53:14Z</time></trkpt><trkpt lat="44.21522317498522" lon="7.9651315201751896"><ele>1166.0</ele><time>2026-05-01T13:53:15Z</time></trkpt><trkpt lat="44.21507261185863" lon="7.965180512210104"><ele>1166.0</ele><time>2026-05-01T13:53:16Z</time></trkpt><trkpt lat="44.21494886502274" lon="7.965202391435126"><ele>1166.0</ele><time>2026-05-01T13:53:17Z</time></trkpt><trkpt lat="44.21485151658717" lon="7.965114246964099"><ele>1166.0</ele><time>2026-05-01T13:53:18Z</time></trkpt><trkpt lat="44.214768969774276" lon="7.964973054309671"><ele>1166.0</ele><time>2026-05-01T13:53:19Z</time></trkpt><trkpt lat="44.21470423993761" lon="7.9647996479021925"><ele>1166.3333333333335</ele><time>2026-05-01T13:53:20Z</time></trkpt><trkpt lat="44.21470134607775" lon="7.964612769878755"><ele>1166.6666666666667</ele><time>2026-05-01T13:53:21Z</time></trkpt><trkpt lat="44.21473545323552" lon="7.964388614504772"><ele>1167.0</ele><time>2026-05-01T13:53:22Z</time></trkpt><trkpt lat="44.214777966681744" lon="7.964084913010754"><ele>1167.0</ele><time>2026-05-01T13:53:23Z</time></trkpt><trkpt lat="44.214789127624954" lon="7.963823963388216"><ele>1167.0</ele><time>2026-05-01T13:53:24Z</time></trkpt><trkpt lat="44.2147580103341" lon="7.963543909008186"><ele>1167.0</ele><time>2026-05-01T13:53:25Z</time></trkpt><trkpt lat="44.214720830332645" lon="7.963256187885567"><ele>1171.0</ele><time>2026-05-01T13:53:26Z</time></trkpt><trkpt lat="44.21468964290139" lon="7.962959518921603"><ele>1175.0</ele><time>2026-05-01T13:53:27Z</time></trkpt><trkpt lat="44.214675205687" lon="7.962658345640734"><ele>1179.0</ele><time>2026-05-01T13:53:28Z</time></trkpt><trkpt lat="44.21466953067925" lon="7.962352033449621"><ele>1180.3333333333333</ele><time>2026-05-01T13:53:29Z</time></trkpt><trkpt lat="44.21467787514156" lon="7.962055342494905"><ele>1181.6666666666665</ele><time>2026-05-01T13:53:30Z</time></trkpt><trkpt lat="44.2146864703908" lon="7.9617635405872464"><ele>1183.0</ele><time>2026-05-01T13:53:31Z</time></trkpt><trkpt lat="44.21467666217844" lon="7.961464844862415"><ele>1184.3333333333333</ele><time>2026-05-01T13:53:32Z</time></trkpt><trkpt lat="44.21465308265261" lon="7.961167588268104"><ele>1185.6666666666667</ele><time>2026-05-01T13:53:33Z</time></trkpt><trkpt lat="44.21459984055415" lon="7.960886426186124"><ele>1187.0</ele><time>2026-05-01T13:53:34Z</time></trkpt><trkpt lat="44.2145270448655" lon="7.96065890887351"><ele>1192.6666666666667</ele><time>2026-05-01T13:53:35Z</time></trkpt><trkpt lat="44.21442273798733" lon="7.960471618656891"><ele>1198.3333333333333</ele><time>2026-05-01T13:53:36Z</time></trkpt><trkpt lat="44.21428976168225" lon="7.96031753612214"><ele>1204.0</ele><time>2026-05-01T13:53:37Z</time></trkpt><trkpt lat="44.21414087272488" lon="7.960157748855758"><ele>1208.25</ele><time>2026-05-01T13:53:38Z</time></trkpt><trkpt lat="44.21402785726162" lon="7.9600129657205585"><ele>1212.5</ele><time>2026-05-01T13:53:39Z</time></trkpt><trkpt lat="44.213989776832626" lon="7.959837192964191"><ele>1216.75</ele><time>2026-05-01T13:53:40Z</time></trkpt><trkpt lat="44.21400472742193" lon="7.959650370531652"><ele>1221.0</ele><time>2026-05-01T13:53:41Z</time></trkpt><trkpt lat="44.21405629683001" lon="7.959451373629601"><ele>1221.0</ele><time>2026-05-01T13:53:42Z</time></trkpt><trkpt lat="44.21410894363313" lon="7.959206880977081"><ele>1221.0</ele><time>2026-05-01T13:53:43Z</time></trkpt><trkpt lat="44.214193109749914" lon="7.958982430436773"><ele>1221.0</ele><time>2026-05-01T13:53:44Z</time></trkpt><trkpt lat="44.21428293841561" lon="7.9587386695112246"><ele>1222.6666666666667</ele><time>2026-05-01T13:53:45Z</time></trkpt><trkpt lat="44.2143659577144" lon="7.958490191280682"><ele>1224.3333333333335</ele><time>2026-05-01T13:53:46Z</time></trkpt><trkpt lat="44.21445122497668" lon="7.958250022967491"><ele>1226.0</ele><time>2026-05-01T13:53:47Z</time></trkpt><trkpt lat="44.21454222187544" lon="7.957997237713106"><ele>1226.0</ele><time>2026-05-01T13:53:48Z</time></trkpt><trkpt lat="44.21464235002936" lon="7.957765223397334"><ele>1226.0</ele><time>2026-05-01T13:53:49Z</time></trkpt><trkpt lat="44.21472624911884" lon="7.957597323187797"><ele>1226.0</ele><time>2026-05-01T13:53:50Z</time></trkpt><trkpt lat="44.214788386890554" lon="7.9574861905711884"><ele>1226.0</ele><time>2026-05-01T13:53:51Z</time></trkpt><trkpt lat="44.214811132228334" lon="7.957363712972569"><ele>1227.75</ele><time>2026-05-01T13:53:52Z</time></trkpt><trkpt lat="44.21477862241597" lon="7.957242480780163"><ele>1229.5</ele><time>2026-05-01T13:53:53Z</time></trkpt><trkpt lat="44.214700667452874" lon="7.9571265484764515"><ele>1231.25</ele><time>2026-05-01T13:53:54Z</time></trkpt><trkpt lat="44.214585562496254" lon="7.9570478336731325"><ele>1233.0</ele><time>2026-05-01T13:53:55Z</time></trkpt><trkpt lat="44.21444388191338" lon="7.957013447350168"><ele>1233.0</ele><time>2026-05-01T13:53:56Z</time></trkpt><trkpt lat="44.214287973312544" lon="7.956994336680239"><ele>1233.0</ele><time>2026-05-01T13:53:57Z</time></trkpt><trkpt lat="44.214157633219365" lon="7.9569897642441285"><ele>1233.0</ele><time>2026-05-01T13:53:58Z</time></trkpt><trkpt lat="44.2140626838506" lon="7.956965118581334"><ele>1233.0</ele><time>2026-05-01T13:53:59Z</time></trkpt><trkpt lat="44.21397248720319" lon="7.95686072918227"><ele>1231.0</ele><time>2026-05-01T13:54:01Z</time></trkpt><trkpt lat="44.21395434786404" lon="7.956755914642956"><ele>1229.0</ele><time>2026-05-01T13:54:02Z</time></trkpt><trkpt lat="44.213955704036884" lon="7.956644800538387"><ele>1227.0</ele><time>2026-05-01T13:54:03Z</time></trkpt><trkpt lat="44.21398454751979" lon="7.95653437262934"><ele>1225.0</ele><time>2026-05-01T13:54:04Z</time></trkpt><trkpt lat="44.214044898551045" lon="7.956457934721451"><ele>1223.0</ele><time>2026-05-01T13:54:05Z</time></trkpt><trkpt lat="44.21409160941611" lon="7.95636330290806"><ele>1221.0</ele><time>2026-05-01T13:54:06Z</time></trkpt><trkpt lat="44.2141507733177" lon="7.956272937914008"><ele>1226.75</ele><time>2026-05-01T13:54:07Z</time></trkpt><trkpt lat="44.21420407197564" lon="7.956147630668596"><ele>1232.5</ele><time>2026-05-01T13:54:08Z</time></trkpt><trkpt lat="44.21425575824564" lon="7.955990661770486"><ele>1238.25</ele><time>2026-05-01T13:54:09Z</time></trkpt><trkpt lat="44.21432369742704" lon="7.955801306970246"><ele>1244.0</ele><time>2026-05-01T13:54:10Z</time></trkpt><trkpt lat="44.214377263606686" lon="7.955557526426707"><ele>1244.0</ele><time>2026-05-01T13:54:11Z</time></trkpt><trkpt lat="44.214415375038705" lon="7.95528673655128"><ele>1244.0</ele><time>2026-05-01T13:54:12Z</time></trkpt><trkpt lat="44.214431770299335" lon="7.9549995013319235"><ele>1244.0</ele><time>2026-05-01T13:54:13Z</time></trkpt><trkpt lat="44.21445696920664" lon="7.954713543194232"><ele>1242.0</ele><time>2026-05-01T13:54:14Z</time></trkpt><trkpt lat="44.21451724013158" lon="7.954418448707766"><ele>1240.0</ele><time>2026-05-01T13:54:15Z</time></trkpt><trkpt lat="44.21459121636102" lon="7.954111645452684"><ele>1240.0</ele><time>2026-05-01T13:54:16Z</time></trkpt><trkpt lat="44.21465488384575" lon="7.953804882141081"><ele>1240.0</ele><time>2026-05-01T13:54:17Z</time></trkpt><trkpt lat="44.21473243558882" lon="7.953500032662486"><ele>1237.6666666666665</ele><time>2026-05-01T13:54:18Z</time></trkpt><trkpt lat="44.214784391117995" lon="7.953200939796675"><ele>1235.3333333333333</ele><time>2026-05-01T13:54:19Z</time></trkpt><trkpt lat="44.21481858972959" lon="7.952889338063161"><ele>1233.0</ele><time>2026-05-01T13:54:20Z</time></trkpt><trkpt lat="44.21485242021765" lon="7.952578253022854"><ele>1246.3333333333333</ele><time>2026-05-01T13:54:21Z</time></trkpt><trkpt lat="44.21489018016448" lon="7.952281483118503"><ele>1259.6666666666665</ele><time>2026-05-01T13:54:22Z</time></trkpt><trkpt lat="44.21492793026266" lon="7.951979374641864"><ele>1273.0</ele><time>2026-05-01T13:54:23Z</time></trkpt><trkpt lat="44.21500144605541" lon="7.951690514469257"><ele>1273.6666666666665</ele><time>2026-05-01T13:54:24Z</time></trkpt><trkpt lat="44.21507629531652" lon="7.951450917244218"><ele>1274.3333333333333</ele><time>2026-05-01T13:54:25Z</time></trkpt><trkpt lat="44.21513459143433" lon="7.951233246923359"><ele>1275.0</ele><time>2026-05-01T13:54:26Z</time></trkpt><trkpt lat="44.215181991672125" lon="7.951061394810699"><ele>1275.0</ele><time>2026-05-01T13:54:27Z</time></trkpt><trkpt lat="44.215171568850764" lon="7.950928687360306"><ele>1275.0</ele><time>2026-05-01T13:54:28Z</time></trkpt><trkpt lat="44.21510377707198" lon="7.950832386001241"><ele>1275.0</ele><time>2026-05-01T13:54:29Z</time></trkpt><trkpt lat="44.21497849732799" lon="7.950770416615852"><ele>1275.0</ele><time>2026-05-01T13:54:30Z</time></trkpt><trkpt lat="44.214824873299136" lon="7.950746263159752"><ele>1278.0</ele><time>2026-05-01T13:54:31Z</time></trkpt><trkpt lat="44.214655641317606" lon="7.9507290379605475"><ele>1281.0</ele><time>2026-05-01T13:54:32Z</time></trkpt><trkpt lat="44.21446062284331" lon="7.950745168023183"><ele>1284.0</ele><time>2026-05-01T13:54:33Z</time></trkpt><trkpt lat="44.21425637124519" lon="7.950809936729931"><ele>1275.0</ele><time>2026-05-01T13:54:34Z</time></trkpt><trkpt lat="44.21403862785228" lon="7.950888577834541"><ele>1266.0</ele><time>2026-05-01T13:54:35Z</time></trkpt><trkpt lat="44.213799975507975" lon="7.9509573465443655"><ele>1266.0</ele><time>2026-05-01T13:54:36Z</time></trkpt><trkpt lat="44.21354495461761" lon="7.95102999222719"><ele>1266.0</ele><time>2026-05-01T13:54:37Z</time></trkpt><trkpt lat="44.21333400351744" lon="7.951080053136901"><ele>1272.5</ele><time>2026-05-01T13:54:38Z</time></trkpt><trkpt lat="44.21309782857211" lon="7.95114386558698"><ele>1279.0</ele><time>2026-05-01T13:54:39Z</time></trkpt><trkpt lat="44.21285757849369" lon="7.951205000496118"><ele>1279.0</ele><time>2026-05-01T13:54:40Z</time></trkpt><trkpt lat="44.21263505570469" lon="7.951266377845704"><ele>1279.0</ele><time>2026-05-01T13:54:41Z</time></trkpt><trkpt lat="44.212437574600045" lon="7.951283465538763"><ele>1279.0</ele><time>2026-05-01T13:54:42Z</time></trkpt><trkpt lat="44.212236308841604" lon="7.951263630056362"><ele>1278.3333333333333</ele><time>2026-05-01T13:54:43Z</time></trkpt><trkpt lat="44.21205255203199" lon="7.951198602162251"><ele>1277.6666666666667</ele><time>2026-05-01T13:54:44Z</time></trkpt><trkpt lat="44.211873854066475" lon="7.951080831026959"><ele>1277.0</ele><time>2026-05-01T13:54:45Z</time></trkpt><trkpt lat="44.21169211874712" lon="7.95093336640607"><ele>1278.6666666666667</ele><time>2026-05-01T13:54:46Z</time></trkpt><trkpt lat="44.21150598774175" lon="7.950779919844919"><ele>1280.3333333333333</ele><time>2026-05-01T13:54:47Z</time></trkpt><trkpt lat="44.211322323023474" lon="7.950615987532286"><ele>1282.0</ele><time>2026-05-01T13:54:48Z</time></trkpt><trkpt lat="44.21116906643069" lon="7.950418858909958"><ele>1282.0</ele><time>2026-05-01T13:54:49Z</time></trkpt><trkpt lat="44.2110390384182" lon="7.950225116669736"><ele>1282.0</ele><time>2026-05-01T13:54:50Z</time></trkpt><trkpt lat="44.21093362554526" lon="7.9499970047461055"><ele>1282.0</ele><time>2026-05-01T13:54:51Z</time></trkpt><trkpt lat="44.210852467230794" lon="7.949744569099087"><ele>1289.0</ele><time>2026-05-01T13:54:52Z</time></trkpt><trkpt lat="44.2107701871456" lon="7.949485459568809"><ele>1296.0</ele><time>2026-05-01T13:54:53Z</time></trkpt><trkpt lat="44.210682864409236" lon="7.949247529096061"><ele>1303.0</ele><time>2026-05-01T13:54:54Z</time></trkpt><trkpt lat="44.21058521497465" lon="7.949051166207708"><ele>1304.3333333333333</ele><time>2026-05-01T13:54:55Z</time></trkpt><trkpt lat="44.21044123135499" lon="7.948929967700792"><ele>1305.6666666666667</ele><time>2026-05-01T13:54:56Z</time></trkpt><trkpt lat="44.21025059480385" lon="7.948845779779777"><ele>1307.0</ele><time>2026-05-01T13:54:57Z</time></trkpt><trkpt lat="44.210034925159945" lon="7.948777719674415"><ele>1303.5</ele><time>2026-05-01T13:54:58Z</time></trkpt><trkpt lat="44.20981636066614" lon="7.948673770993641"><ele>1300.0</ele><time>2026-05-01T13:54:59Z</time></trkpt><trkpt lat="44.20957923361922" lon="7.948581962298127"><ele>1300.0</ele><time>2026-05-01T13:55:00Z</time></trkpt><trkpt lat="44.2093435004146" lon="7.948507136243089"><ele>1300.0</ele><time>2026-05-01T13:55:01Z</time></trkpt><trkpt lat="44.209149400807384" lon="7.948439318672022"><ele>1300.0</ele><time>2026-05-01T13:55:02Z</time></trkpt><trkpt lat="44.20901107590062" lon="7.948400150761442"><ele>1303.1666666666665</ele><time>2026-05-01T13:55:03Z</time></trkpt><trkpt lat="44.20892148520118" lon="7.9483630997103445"><ele>1306.3333333333333</ele><time>2026-05-01T13:55:04Z</time></trkpt><trkpt lat="44.20885796067981" lon="7.948345040813684"><ele>1309.5</ele><time>2026-05-01T13:55:05Z</time></trkpt><trkpt lat="44.20884598706349" lon="7.948252043388847"><ele>1312.6666666666667</ele><time>2026-05-01T13:55:06Z</time></trkpt><trkpt lat="44.208887985222944" lon="7.948152007201094"><ele>1315.8333333333335</ele><time>2026-05-01T13:55:07Z</time></trkpt><trkpt lat="44.20895911322433" lon="7.948097869584728"><ele>1319.0</ele><time>2026-05-01T13:55:08Z</time></trkpt><trkpt lat="44.209055345320486" lon="7.948169032223114"><ele>1320.0</ele><time>2026-05-01T13:55:09Z</time></trkpt><trkpt lat="44.20913576955215" lon="7.948254530643785"><ele>1321.0</ele><time>2026-05-01T13:55:10Z</time></trkpt><trkpt lat="44.209278121312366" lon="7.9483504351684156"><ele>1322.0</ele><time>2026-05-01T13:55:11Z</time></trkpt><trkpt lat="44.20943859598823" lon="7.948399809048073"><ele>1323.0</ele><time>2026-05-01T13:55:12Z</time></trkpt><trkpt lat="44.209616810036835" lon="7.94835455240027"><ele>1323.0</ele><time>2026-05-01T13:55:13Z</time></trkpt><trkpt lat="44.20981195183386" lon="7.948282176239882"><ele>1323.0</ele><time>2026-05-01T13:55:14Z</time></trkpt><trkpt lat="44.21000962329847" lon="7.948254809842198"><ele>1323.0</ele><time>2026-05-01T13:55:15Z</time></trkpt><trkpt lat="44.21019896751482" lon="7.948307130366997"><ele>1322.3333333333333</ele><time>2026-05-01T13:55:16Z</time></trkpt><trkpt lat="44.21038185526179" lon="7.948361223601976"><ele>1321.6666666666665</ele><time>2026-05-01T13:55:17Z</time></trkpt><trkpt lat="44.2105891185997" lon="7.948437968220258"><ele>1321.0</ele><time>2026-05-01T13:55:18Z</time></trkpt><trkpt lat="44.210782423832086" lon="7.948431609400951"><ele>1328.3333333333333</ele><time>2026-05-01T13:55:19Z</time></trkpt><trkpt lat="44.21099258558811" lon="7.948373684486199"><ele>1335.6666666666667</ele><time>2026-05-01T13:55:20Z</time></trkpt><trkpt lat="44.211176781195896" lon="7.948286565304745"><ele>1343.0</ele><time>2026-05-01T13:55:21Z</time></trkpt><trkpt lat="44.211382207387416" lon="7.948216215897209"><ele>1342.6666666666667</ele><time>2026-05-01T13:55:22Z</time></trkpt><trkpt lat="44.21159918194884" lon="7.94816044564305"><ele>1342.3333333333333</ele><time>2026-05-01T13:55:23Z</time></trkpt><trkpt lat="44.211821200398475" lon="7.948104279261067"><ele>1342.0</ele><time>2026-05-01T13:55:24Z</time></trkpt><trkpt lat="44.21204321344745" lon="7.948117994624161"><ele>1342.0</ele><time>2026-05-01T13:55:25Z</time></trkpt><trkpt lat="44.212266890375396" lon="7.948155104406201"><ele>1342.0</ele><time>2026-05-01T13:55:26Z</time></trkpt><trkpt lat="44.212488281508264" lon="7.948187177239901"><ele>1342.0</ele><time>2026-05-01T13:55:27Z</time></trkpt><trkpt lat="44.212698063345485" lon="7.948242339890206"><ele>1344.3333333333333</ele><time>2026-05-01T13:55:28Z</time></trkpt><trkpt lat="44.212879294770524" lon="7.948291792490743"><ele>1346.6666666666667</ele><time>2026-05-01T13:55:29Z</time></trkpt><trkpt lat="44.21303808553386" lon="7.948294568521127"><ele>1349.0</ele><time>2026-05-01T13:55:30Z</time></trkpt><trkpt lat="44.21318840218432" lon="7.948243598406331"><ele>1350.0</ele><time>2026-05-01T13:55:31Z</time></trkpt><trkpt lat="44.21336657807826" lon="7.948150840721315"><ele>1351.0</ele><time>2026-05-01T13:55:32Z</time></trkpt><trkpt lat="44.21353047191935" lon="7.948020309808716"><ele>1352.0</ele><time>2026-05-01T13:55:33Z</time></trkpt><trkpt lat="44.21370303306816" lon="7.94785080538725"><ele>1352.0</ele><time>2026-05-01T13:55:34Z</time></trkpt><trkpt lat="44.21387993143856" lon="7.947684917332581"><ele>1352.0</ele><time>2026-05-01T13:55:35Z</time></trkpt><trkpt lat="44.21407386519428" lon="7.947513351275447"><ele>1352.0</ele><time>2026-05-01T13:55:36Z</time></trkpt><trkpt lat="44.21428133611557" lon="7.947338975813382"><ele>1355.0</ele><time>2026-05-01T13:55:37Z</time></trkpt><trkpt lat="44.21450082532131" lon="7.9471560878077305"><ele>1358.0</ele><time>2026-05-01T13:55:38Z</time></trkpt><trkpt lat="44.214716507204756" lon="7.946981177907134"><ele>1357.5</ele><time>2026-05-01T13:55:39Z</time></trkpt><trkpt lat="44.214931831972244" lon="7.9468082701936185"><ele>1357.0</ele><time>2026-05-01T13:55:40Z</time></trkpt><trkpt lat="44.2151519963303" lon="7.946629963238344"><ele>1360.5</ele><time>2026-05-01T13:55:41Z</time></trkpt><trkpt lat="44.215374779754825" lon="7.946447949111056"><ele>1364.0</ele><time>2026-05-01T13:55:42Z</time></trkpt><trkpt lat="44.215592582853446" lon="7.946267882126557"><ele>1366.6666666666667</ele><time>2026-05-01T13:55:43Z</time></trkpt><trkpt lat="44.2157746082359" lon="7.946112044225198"><ele>1369.3333333333333</ele><time>2026-05-01T13:55:44Z</time></trkpt><trkpt lat="44.2159350856514" lon="7.9459637476163945"><ele>1372.0</ele><time>2026-05-01T13:55:45Z</time></trkpt><trkpt lat="44.216059026639144" lon="7.94582078562292"><ele>1373.25</ele><time>2026-05-01T13:55:46Z</time></trkpt><trkpt lat="44.216148482963696" lon="7.945656201597525"><ele>1374.5</ele><time>2026-05-01T13:55:47Z</time></trkpt><trkpt lat="44.216207250152195" lon="7.945492592747369"><ele>1375.75</ele><time>2026-05-01T13:55:48Z</time></trkpt><trkpt lat="44.21625505081364" lon="7.94533394645539"><ele>1377.0</ele><time>2026-05-01T13:55:49Z</time></trkpt><trkpt lat="44.21630221059314" lon="7.945172630889714"><ele>1378.6666666666667</ele><time>2026-05-01T13:55:50Z</time></trkpt><trkpt lat="44.21635835183002" lon="7.9449922945156475"><ele>1380.3333333333335</ele><time>2026-05-01T13:55:51Z</time></trkpt><trkpt lat="44.21642671314115" lon="7.944790497203734"><ele>1382.0</ele><time>2026-05-01T13:55:52Z</time></trkpt><trkpt lat="44.21651209750007" lon="7.94457456771747"><ele>1382.0</ele><time>2026-05-01T13:55:53Z</time></trkpt><trkpt lat="44.21660821154933" lon="7.944346337555259"><ele>1382.0</ele><time>2026-05-01T13:55:54Z</time></trkpt><trkpt lat="44.21670769719287" lon="7.944099240033449"><ele>1382.0</ele><time>2026-05-01T13:55:55Z</time></trkpt><trkpt lat="44.216812113020524" lon="7.943853302564975"><ele>1379.3333333333335</ele><time>2026-05-01T13:55:56Z</time></trkpt><trkpt lat="44.21692938009436" lon="7.943609716840251"><ele>1376.6666666666667</ele><time>2026-05-01T13:55:57Z</time></trkpt><trkpt lat="44.21706413297728" lon="7.943367981133205"><ele>1374.0</ele><time>2026-05-01T13:55:58Z</time></trkpt><trkpt lat="44.21721152286452" lon="7.943130738815413"><ele>1376.0</ele><time>2026-05-01T13:55:59Z</time></trkpt><trkpt lat="44.21735817859236" lon="7.942920246561032"><ele>1378.0</ele><time>2026-05-01T13:56:00Z</time></trkpt><trkpt lat="44.21750733961209" lon="7.942718741651246"><ele>1380.0</ele><time>2026-05-01T13:56:01Z</time></trkpt><trkpt lat="44.21765035270039" lon="7.942539046034915"><ele>1372.6666666666667</ele><time>2026-05-01T13:56:02Z</time></trkpt><trkpt lat="44.21780824634644" lon="7.942376434232958"><ele>1365.3333333333335</ele><time>2026-05-01T13:56:03Z</time></trkpt><trkpt lat="44.217979920354786" lon="7.942226852103852"><ele>1358.0</ele><time>2026-05-01T13:56:04Z</time></trkpt><trkpt lat="44.218137141026716" lon="7.942080275425148"><ele>1358.0</ele><time>2026-05-01T13:56:05Z</time></trkpt><trkpt lat="44.21826773252614" lon="7.941908068699766"><ele>1358.0</ele><time>2026-05-01T13:56:06Z</time></trkpt><trkpt lat="44.218363146556946" lon="7.9417012038537225"><ele>1358.0</ele><time>2026-05-01T13:56:07Z</time></trkpt><trkpt lat="44.21842852623467" lon="7.9414773259252875"><ele>1358.0</ele><time>2026-05-01T13:56:08Z</time></trkpt><trkpt lat="44.21847239312514" lon="7.941263735717738"><ele>1358.0</ele><time>2026-05-01T13:56:09Z</time></trkpt><trkpt lat="44.21848698044452" lon="7.941074827700996"><ele>1358.0</ele><time>2026-05-01T13:56:10Z</time></trkpt><trkpt lat="44.218456033503685" lon="7.94091026456259"><ele>1358.0</ele><time>2026-05-01T13:56:11Z</time></trkpt><trkpt lat="44.21838707498062" lon="7.940762695093373"><ele>1356.25</ele><time>2026-05-01T13:56:12Z</time></trkpt><trkpt lat="44.2183079476232" lon="7.9406213250620095"><ele>1354.5</ele><time>2026-05-01T13:56:13Z</time></trkpt><trkpt lat="44.21824212402173" lon="7.940459603356041"><ele>1352.75</ele><time>2026-05-01T13:56:14Z</time></trkpt><trkpt lat="44.21819689107992" lon="7.940261349610725"><ele>1351.0</ele><time>2026-05-01T13:56:15Z</time></trkpt><trkpt lat="44.21816754700001" lon="7.9400529245917495"><ele>1340.3333333333333</ele><time>2026-05-01T13:56:16Z</time></trkpt><trkpt lat="44.21813966911697" lon="7.939828477236438"><ele>1329.6666666666667</ele><time>2026-05-01T13:56:17Z</time></trkpt><trkpt lat="44.21811712840174" lon="7.93960161725576"><ele>1319.0</ele><time>2026-05-01T13:56:18Z</time></trkpt><trkpt lat="44.21809121560766" lon="7.939369619185021"><ele>1317.3333333333335</ele><time>2026-05-01T13:56:19Z</time></trkpt><trkpt lat="44.2180613015186" lon="7.9391347427025165"><ele>1315.6666666666667</ele><time>2026-05-01T13:56:20Z</time></trkpt><trkpt lat="44.218038760067614" lon="7.938915209455152"><ele>1314.0</ele><time>2026-05-01T13:56:21Z</time></trkpt><trkpt lat="44.21802292377133" lon="7.938717289910724"><ele>1314.0</ele><time>2026-05-01T13:56:22Z</time></trkpt><trkpt lat="44.21803276877622" lon="7.93853028014094"><ele>1314.0</ele><time>2026-05-01T13:56:23Z</time></trkpt><trkpt lat="44.21807746620762" lon="7.938350649962139"><ele>1314.0</ele><time>2026-05-01T13:56:24Z</time></trkpt><trkpt lat="44.218174111534665" lon="7.938183332651268"><ele>1314.0</ele><time>2026-05-01T13:56:25Z</time></trkpt><trkpt lat="44.21826143372481" lon="7.937992115216237"><ele>1319.0</ele><time>2026-05-01T13:56:26Z</time></trkpt><trkpt lat="44.21835006203643" lon="7.937801353964059"><ele>1324.0</ele><time>2026-05-01T13:56:27Z</time></trkpt><trkpt lat="44.21839059041568" lon="7.937579839801018"><ele>1329.0</ele><time>2026-05-01T13:56:28Z</time></trkpt><trkpt lat="44.21838569932853" lon="7.937357382329604"><ele>1329.0</ele><time>2026-05-01T13:56:29Z</time></trkpt><trkpt lat="44.21837459470201" lon="7.9371241002980915"><ele>1329.0</ele><time>2026-05-01T13:56:30Z</time></trkpt><trkpt lat="44.218373583809345" lon="7.936897146581125"><ele>1329.0</ele><time>2026-05-01T13:56:31Z</time></trkpt><trkpt lat="44.21838253915945" lon="7.936694531421635"><ele>1326.0</ele><time>2026-05-01T13:56:32Z</time></trkpt><trkpt lat="44.218410991317356" lon="7.936540124460712"><ele>1323.0</ele><time>2026-05-01T13:56:33Z</time></trkpt><trkpt lat="44.21847573201121" lon="7.9364317433325375"><ele>1320.0</ele><time>2026-05-01T13:56:34Z</time></trkpt><trkpt lat="44.21856324465171" lon="7.9363458739156885"><ele>1317.0</ele><time>2026-05-01T13:56:35Z</time></trkpt><trkpt lat="44.21866531120354" lon="7.936228057050046"><ele>1317.0</ele><time>2026-05-01T13:56:36Z</time></trkpt><trkpt lat="44.218786550797404" lon="7.936111759617652"><ele>1317.0</ele><time>2026-05-01T13:56:37Z</time></trkpt><trkpt lat="44.218890985392754" lon="7.935992040722331"><ele>1317.0</ele><time>2026-05-01T13:56:38Z</time></trkpt><trkpt lat="44.21896215952531" lon="7.9358655129347495"><ele>1317.0</ele><time>2026-05-01T13:56:39Z</time></trkpt><trkpt lat="44.2189858738137" lon="7.9357297896747525"><ele>1313.5</ele><time>2026-05-01T13:56:40Z</time></trkpt><trkpt lat="44.218960314372815" lon="7.935589041287012"><ele>1310.0</ele><time>2026-05-01T13:56:41Z</time></trkpt><trkpt lat="44.218897479640155" lon="7.935428234070442"><ele>1306.5</ele><time>2026-05-01T13:56:42Z</time></trkpt><trkpt lat="44.21881573303067" lon="7.935251307704901"><ele>1303.0</ele><time>2026-05-01T13:56:43Z</time></trkpt><trkpt lat="44.218751744381755" lon="7.935071031070545"><ele>1299.5</ele><time>2026-05-01T13:56:44Z</time></trkpt><trkpt lat="44.218716262852965" lon="7.934914441979453"><ele>1296.0</ele><time>2026-05-01T13:56:45Z</time></trkpt><trkpt lat="44.218709809472" lon="7.934770297530859"><ele>1292.5</ele><time>2026-05-01T13:56:46Z</time></trkpt><trkpt lat="44.218771214741444" lon="7.934629866750051"><ele>1289.0</ele><time>2026-05-01T13:56:47Z</time></trkpt><trkpt lat="44.21882865651246" lon="7.934445894640884"><ele>1289.0</ele><time>2026-05-01T13:56:48Z</time></trkpt><trkpt lat="44.21891461741088" lon="7.9342504131037686"><ele>1289.0</ele><time>2026-05-01T13:56:49Z</time></trkpt><trkpt lat="44.2189706436151" lon="7.9340234531165645"><ele>1289.0</ele><time>2026-05-01T13:56:50Z</time></trkpt><trkpt lat="44.2189980329399" lon="7.933770620188953"><ele>1293.6666666666667</ele><time>2026-05-01T13:56:51Z</time></trkpt><trkpt lat="44.219022769459606" lon="7.933529519207556"><ele>1298.3333333333333</ele><time>2026-05-01T13:56:52Z</time></trkpt><trkpt lat="44.21908469795547" lon="7.933293943055759"><ele>1303.0</ele><time>2026-05-01T13:56:53Z</time></trkpt><trkpt lat="44.219195350669786" lon="7.933086027298993"><ele>1303.0</ele><time>2026-05-01T13:56:54Z</time></trkpt><trkpt lat="44.21928324621695" lon="7.932874857798714"><ele>1303.0</ele><time>2026-05-01T13:56:55Z</time></trkpt><trkpt lat="44.21937757461069" lon="7.932695826334964"><ele>1303.0</ele><time>2026-05-01T13:56:56Z</time></trkpt><trkpt lat="44.2195065675069" lon="7.932555844296354"><ele>1304.6666666666665</ele><time>2026-05-01T13:56:57Z</time></trkpt><trkpt lat="44.21964839059887" lon="7.932425697700729"><ele>1306.3333333333333</ele><time>2026-05-01T13:56:58Z</time></trkpt><trkpt lat="44.21981186266488" lon="7.93232407731352"><ele>1308.0</ele><time>2026-05-01T13:56:59Z</time></trkpt><trkpt lat="44.219938786981736" lon="7.932206232685165"><ele>1308.0</ele><time>2026-05-01T13:57:00Z</time></trkpt><trkpt lat="44.22003682275969" lon="7.9321279313909185"><ele>1308.0</ele><time>2026-05-01T13:57:01Z</time></trkpt><trkpt lat="44.220107703857394" lon="7.93193937956446"><ele>1308.0</ele><time>2026-05-01T13:57:02Z</time></trkpt><trkpt lat="44.22017118946118" lon="7.931716188211146"><ele>1308.0</ele><time>2026-05-01T13:57:03Z</time></trkpt><trkpt lat="44.22022755519725" lon="7.931481591899094"><ele>1299.0</ele><time>2026-05-01T13:57:04Z</time></trkpt><trkpt lat="44.220324513776745" lon="7.931260076080518"><ele>1290.0</ele><time>2026-05-01T13:57:05Z</time></trkpt><trkpt lat="44.220428819739475" lon="7.9310463010580365"><ele>1281.0</ele><time>2026-05-01T13:57:06Z</time></trkpt><trkpt lat="44.220520861528904" lon="7.93086187196565"><ele>1283.6666666666667</ele><time>2026-05-01T13:57:07Z</time></trkpt><trkpt lat="44.220610032271296" lon="7.930694511496728"><ele>1286.3333333333335</ele><time>2026-05-01T13:57:08Z</time></trkpt><trkpt lat="44.22073992431449" lon="7.930567079249752"><ele>1289.0</ele><time>2026-05-01T13:57:09Z</time></trkpt><trkpt lat="44.2208849929811" lon="7.93043334156599"><ele>1289.0</ele><time>2026-05-01T13:57:10Z</time></trkpt><trkpt lat="44.22103004625269" lon="7.930326551699128"><ele>1289.0</ele><time>2026-05-01T13:57:11Z</time></trkpt><trkpt lat="44.221157738576515" lon="7.9302585867499165"><ele>1289.0</ele><time>2026-05-01T13:57:12Z</time></trkpt><trkpt lat="44.221260765983935" lon="7.930239572907921"><ele>1289.0</ele><time>2026-05-01T13:57:13Z</time></trkpt><trkpt lat="44.2213578660324" lon="7.930314133567863"><ele>1291.3333333333335</ele><time>2026-05-01T13:57:14Z</time></trkpt><trkpt lat="44.22149454186706" lon="7.9303800298169875"><ele>1293.6666666666667</ele><time>2026-05-01T13:57:15Z</time></trkpt><trkpt lat="44.22165375477093" lon="7.930396651688621"><ele>1296.0</ele><time>2026-05-01T13:57:16Z</time></trkpt><trkpt lat="44.22182263977093" lon="7.930367645225575"><ele>1296.0</ele><time>2026-05-01T13:57:17Z</time></trkpt><trkpt lat="44.222006909498674" lon="7.930312683611686"><ele>1296.0</ele><time>2026-05-01T13:57:18Z</time></trkpt><trkpt lat="44.222194590032096" lon="7.930216022726434"><ele>1296.0</ele><time>2026-05-01T13:57:19Z</time></trkpt><trkpt lat="44.22237679837116" lon="7.930110386092347"><ele>1287.0</ele><time>2026-05-01T13:57:20Z</time></trkpt><trkpt lat="44.222552473198995" lon="7.929985765646504"><ele>1278.0</ele><time>2026-05-01T13:57:21Z</time></trkpt><trkpt lat="44.22270558727527" lon="7.92985249546834"><ele>1269.0</ele><time>2026-05-01T13:57:22Z</time></trkpt><trkpt lat="44.22284510806528" lon="7.929718842581567"><ele>1269.0</ele><time>2026-05-01T13:57:23Z</time></trkpt><trkpt lat="44.22296965976579" lon="7.929570021719425"><ele>1269.0</ele><time>2026-05-01T13:57:24Z</time></trkpt><trkpt lat="44.22307503052287" lon="7.929385261406397"><ele>1269.0</ele><time>2026-05-01T13:57:25Z</time></trkpt><trkpt lat="44.223171934741906" lon="7.929164890693082"><ele>1268.3333333333333</ele><time>2026-05-01T13:57:26Z</time></trkpt><trkpt lat="44.223268335544184" lon="7.928923663840348"><ele>1267.6666666666665</ele><time>2026-05-01T13:57:27Z</time></trkpt><trkpt lat="44.22334658572774" lon="7.928705921211376"><ele>1267.0</ele><time>2026-05-01T13:57:28Z</time></trkpt><trkpt lat="44.223413898144535" lon="7.928498293580645"><ele>1256.6666666666665</ele><time>2026-05-01T13:57:29Z</time></trkpt><trkpt lat="44.22348946014867" lon="7.928323178943313"><ele>1246.3333333333333</ele><time>2026-05-01T13:57:30Z</time></trkpt><trkpt lat="44.2235925703958" lon="7.928169066427522"><ele>1236.0</ele><time>2026-05-01T13:57:31Z</time></trkpt><trkpt lat="44.2237388573994" lon="7.928065315579492"><ele>1236.0</ele><time>2026-05-01T13:57:32Z</time></trkpt><trkpt lat="44.223894986185144" lon="7.9279292293521895"><ele>1236.0</ele><time>2026-05-01T13:57:33Z</time></trkpt><trkpt lat="44.22406674062593" lon="7.927813922141832"><ele>1236.0</ele><time>2026-05-01T13:57:34Z</time></trkpt><trkpt lat="44.22423164531722" lon="7.92768996424763"><ele>1234.0</ele><time>2026-05-01T13:57:35Z</time></trkpt><trkpt lat="44.22438306483758" lon="7.927589312492236"><ele>1232.0</ele><time>2026-05-01T13:57:36Z</time></trkpt><trkpt lat="44.22455776915511" lon="7.927519113079419"><ele>1230.0</ele><time>2026-05-01T13:57:37Z</time></trkpt><trkpt lat="44.22473919676948" lon="7.927458385482837"><ele>1234.6666666666667</ele><time>2026-05-01T13:57:38Z</time></trkpt><trkpt lat="44.22490485664861" lon="7.927414091122558"><ele>1239.3333333333335</ele><time>2026-05-01T13:57:39Z</time></trkpt><trkpt lat="44.225073818375066" lon="7.927431618410635"><ele>1244.0</ele><time>2026-05-01T13:57:40Z</time></trkpt><trkpt lat="44.225255687281106" lon="7.927456435451365"><ele>1244.0</ele><time>2026-05-01T13:57:41Z</time></trkpt><trkpt lat="44.22545277473788" lon="7.92751684825123"><ele>1244.0</ele><time>2026-05-01T13:57:42Z</time></trkpt><trkpt lat="44.225664152283336" lon="7.927523972547855"><ele>1244.0</ele><time>2026-05-01T13:57:43Z</time></trkpt><trkpt lat="44.22587901009693" lon="7.927555408847026"><ele>1240.3333333333335</ele><time>2026-05-01T13:57:44Z</time></trkpt><trkpt lat="44.22609250387764" lon="7.927559113417043"><ele>1236.6666666666667</ele><time>2026-05-01T13:57:45Z</time></trkpt><trkpt lat="44.22629545013347" lon="7.927567934241855"><ele>1233.0</ele><time>2026-05-01T13:57:46Z</time></trkpt><trkpt lat="44.22648634570258" lon="7.927570653077012"><ele>1243.6666666666667</ele><time>2026-05-01T13:57:47Z</time></trkpt><trkpt lat="44.22667067402862" lon="7.927569944350565"><ele>1254.3333333333335</ele><time>2026-05-01T13:57:48Z</time></trkpt><trkpt lat="44.226846881269644" lon="7.927629625254049"><ele>1265.0</ele><time>2026-05-01T13:57:49Z</time></trkpt><trkpt lat="44.22701181065498" lon="7.927679285108215"><ele>1265.0</ele><time>2026-05-01T13:57:50Z</time></trkpt><trkpt lat="44.227221337286245" lon="7.927723593218148"><ele>1265.0</ele><time>2026-05-01T13:57:51Z</time></trkpt><trkpt lat="44.22743278437052" lon="7.927816650547438"><ele>1265.0</ele><time>2026-05-01T13:57:52Z</time></trkpt><trkpt lat="44.22763835101625" lon="7.927885645337015"><ele>1256.3333333333335</ele><time>2026-05-01T13:57:53Z</time></trkpt><trkpt lat="44.22783573065101" lon="7.927937694170399"><ele>1247.6666666666667</ele><time>2026-05-01T13:57:54Z</time></trkpt><trkpt lat="44.22801114466171" lon="7.928027205710021"><ele>1239.0</ele><time>2026-05-01T13:57:55Z</time></trkpt><trkpt lat="44.228170282943964" lon="7.928156836869852"><ele>1235.0</ele><time>2026-05-01T13:57:56Z</time></trkpt><trkpt lat="44.228333447757734" lon="7.928270421956666"><ele>1231.0</ele><time>2026-05-01T13:57:57Z</time></trkpt><trkpt lat="44.228473930423156" lon="7.928434253394232"><ele>1227.0</ele><time>2026-05-01T13:57:58Z</time></trkpt><trkpt lat="44.228619605533666" lon="7.928613284362151"><ele>1227.0</ele><time>2026-05-01T13:57:59Z</time></trkpt><trkpt lat="44.22875189057301" lon="7.928816576073652"><ele>1227.0</ele><time>2026-05-01T13:58:00Z</time></trkpt><trkpt lat="44.22885864126209" lon="7.929040364092722"><ele>1227.0</ele><time>2026-05-01T13:58:01Z</time></trkpt><trkpt lat="44.22896016609177" lon="7.9292489201715695"><ele>1219.6666666666667</ele><time>2026-05-01T13:58:02Z</time></trkpt><trkpt lat="44.22904498861952" lon="7.929471912957559"><ele>1212.3333333333335</ele><time>2026-05-01T13:58:03Z</time></trkpt><trkpt lat="44.229112105210426" lon="7.9297113282946174"><ele>1205.0</ele><time>2026-05-01T13:58:04Z</time></trkpt><trkpt lat="44.22919994809783" lon="7.929956186788053"><ele>1205.3333333333335</ele><time>2026-05-01T13:58:05Z</time></trkpt><trkpt lat="44.22927305275235" lon="7.930194391814462"><ele>1205.6666666666667</ele><time>2026-05-01T13:58:06Z</time></trkpt><trkpt lat="44.22933429665975" lon="7.930415665596469"><ele>1206.0</ele><time>2026-05-01T13:58:07Z</time></trkpt><trkpt lat="44.22936998882176" lon="7.930622288611514"><ele>1206.0</ele><time>2026-05-01T13:58:08Z</time></trkpt><trkpt lat="44.22935885723821" lon="7.930826039962957"><ele>1206.0</ele><time>2026-05-01T13:58:09Z</time></trkpt><trkpt lat="44.22933243185755" lon="7.931025376983044"><ele>1206.0</ele><time>2026-05-01T13:58:10Z</time></trkpt><trkpt lat="44.229330313014984" lon="7.931200028635236"><ele>1206.0</ele><time>2026-05-01T13:58:11Z</time></trkpt><trkpt lat="44.22933215752916" lon="7.931348856029966"><ele>1207.5</ele><time>2026-05-01T13:58:12Z</time></trkpt><trkpt lat="44.22937653603952" lon="7.931473815293358"><ele>1209.0</ele><time>2026-05-01T13:58:13Z</time></trkpt><trkpt lat="44.22946673561747" lon="7.931553592760329"><ele>1210.5</ele><time>2026-05-01T13:58:14Z</time></trkpt><trkpt lat="44.229611841926115" lon="7.931562311078668"><ele>1212.0</ele><time>2026-05-01T13:58:15Z</time></trkpt><trkpt lat="44.229756787823604" lon="7.931482602762693"><ele>1210.3333333333333</ele><time>2026-05-01T13:58:16Z</time></trkpt><trkpt lat="44.22989923360614" lon="7.9313407761054435"><ele>1208.6666666666665</ele><time>2026-05-01T13:58:17Z</time></trkpt><trkpt lat="44.230064024631844" lon="7.93121494091722"><ele>1207.0</ele><time>2026-05-01T13:58:18Z</time></trkpt><trkpt lat="44.23019965159044" lon="7.931099726519948"><ele>1207.0</ele><time>2026-05-01T13:58:19Z</time></trkpt><trkpt lat="44.230323666357094" lon="7.931030737336347"><ele>1207.0</ele><time>2026-05-01T13:58:20Z</time></trkpt><trkpt lat="44.2304301851456" lon="7.931003465516919"><ele>1207.0</ele><time>2026-05-01T13:58:21Z</time></trkpt><trkpt lat="44.23050236807952" lon="7.93110544638179"><ele>1207.0</ele><time>2026-05-01T13:58:22Z</time></trkpt><trkpt lat="44.230572909417816" lon="7.931189722448766"><ele>1207.0</ele><time>2026-05-01T13:58:23Z</time></trkpt><trkpt lat="44.23062304718781" lon="7.931354878515611"><ele>1206.0</ele><time>2026-05-01T13:58:24Z</time></trkpt><trkpt lat="44.230642251825365" lon="7.931531125438325"><ele>1205.0</ele><time>2026-05-01T13:58:25Z</time></trkpt><trkpt lat="44.23067905458383" lon="7.93166077562571"><ele>1204.0</ele><time>2026-05-01T13:58:26Z</time></trkpt><trkpt lat="44.23073827563923" lon="7.931749897350743"><ele>1203.0</ele><time>2026-05-01T13:58:27Z</time></trkpt><trkpt lat="44.23084004654621" lon="7.931779042911686"><ele>1202.0</ele><time>2026-05-01T13:58:28Z</time></trkpt><trkpt lat="44.23096818591355" lon="7.9317537658978505"><ele>1197.6666666666667</ele><time>2026-05-01T13:58:29Z</time></trkpt><trkpt lat="44.23110007440189" lon="7.931666776275426"><ele>1193.3333333333333</ele><time>2026-05-01T13:58:30Z</time></trkpt><trkpt lat="44.231237376328274" lon="7.931515116516773"><ele>1189.0</ele><time>2026-05-01T13:58:31Z</time></trkpt><trkpt lat="44.231362332801446" lon="7.931365647371574"><ele>1189.0</ele><time>2026-05-01T13:58:32Z</time></trkpt><trkpt lat="44.23146626238883" lon="7.931230010440718"><ele>1189.0</ele><time>2026-05-01T13:58:33Z</time></trkpt><trkpt lat="44.23152991124089" lon="7.931085630573005"><ele>1189.0</ele><time>2026-05-01T13:58:34Z</time></trkpt><trkpt lat="44.23154719246441" lon="7.930947089178026"><ele>1189.0</ele><time>2026-05-01T13:58:35Z</time></trkpt><trkpt lat="44.23153627815902" lon="7.93078115532696"><ele>1187.6666666666665</ele><time>2026-05-01T13:58:36Z</time></trkpt><trkpt lat="44.23151498261756" lon="7.930584146994859"><ele>1186.3333333333333</ele><time>2026-05-01T13:58:37Z</time></trkpt><trkpt lat="44.23149365072719" lon="7.930356886359375"><ele>1185.0</ele><time>2026-05-01T13:58:38Z</time></trkpt><trkpt lat="44.23147885666466" lon="7.930101974088411"><ele>1183.3333333333333</ele><time>2026-05-01T13:58:39Z</time></trkpt><trkpt lat="44.23147180069053" lon="7.929834706027363"><ele>1181.6666666666665</ele><time>2026-05-01T13:58:40Z</time></trkpt><trkpt lat="44.231470943048635" lon="7.929551584939406"><ele>1180.0</ele><time>2026-05-01T13:58:41Z</time></trkpt><trkpt lat="44.231495548811" lon="7.929265255522647"><ele>1178.0</ele><time>2026-05-01T13:58:42Z</time></trkpt><trkpt lat="44.23150756383985" lon="7.928947775089476"><ele>1176.0</ele><time>2026-05-01T13:58:43Z</time></trkpt><trkpt lat="44.2315551139466" lon="7.928584229538059"><ele>1173.0</ele><time>2026-05-01T13:58:44Z</time></trkpt><trkpt lat="44.23160001719539" lon="7.928199378893263"><ele>1170.0</ele><time>2026-05-01T13:58:45Z</time></trkpt><trkpt lat="44.231580074693426" lon="7.928055582682748"><ele>1167.0</ele><time>2026-05-01T13:58:46Z</time></trkpt><trkpt lat="44.23159761233028" lon="7.927778905655112"><ele>1164.0</ele><time>2026-05-01T13:58:47Z</time></trkpt><trkpt lat="44.23161497410145" lon="7.9275055251437285"><ele>1161.0</ele><time>2026-05-01T13:58:48Z</time></trkpt><trkpt lat="44.23163332159254" lon="7.927233754989286"><ele>1158.0</ele><time>2026-05-01T13:58:49Z</time></trkpt><trkpt lat="44.23165555993243" lon="7.926971477289039"><ele>1158.0</ele><time>2026-05-01T13:58:50Z</time></trkpt><trkpt lat="44.2316723958225" lon="7.926731658995374"><ele>1158.0</ele><time>2026-05-01T13:58:51Z</time></trkpt><trkpt lat="44.2316976230627" lon="7.9265524809809715"><ele>1158.0</ele><time>2026-05-01T13:58:52Z</time></trkpt><trkpt lat="44.23174968801033" lon="7.926442776956771"><ele>1158.0</ele><time>2026-05-01T13:58:53Z</time></trkpt><trkpt lat="44.23184037001562" lon="7.926409110357425"><ele>1154.5</ele><time>2026-05-01T13:58:54Z</time></trkpt><trkpt lat="44.23194253260246" lon="7.9264179745991035"><ele>1151.0</ele><time>2026-05-01T13:58:55Z</time></trkpt><trkpt lat="44.232050153303724" lon="7.926504983299189"><ele>1147.5</ele><time>2026-05-01T13:58:56Z</time></trkpt><trkpt lat="44.23220282524681" lon="7.9265804289237245"><ele>1144.0</ele><time>2026-05-01T13:58:57Z</time></trkpt><trkpt lat="44.23237327069719" lon="7.926660026117777"><ele>1144.0</ele><time>2026-05-01T13:58:58Z</time></trkpt><trkpt lat="44.23257996010784" lon="7.926695948614502"><ele>1144.0</ele><time>2026-05-01T13:58:59Z</time></trkpt><trkpt lat="44.23276440220029" lon="7.926713062976177"><ele>1144.0</ele><time>2026-05-01T13:59:00Z</time></trkpt><trkpt lat="44.23293606938229" lon="7.926726021782919"><ele>1144.0</ele><time>2026-05-01T13:59:01Z</time></trkpt><trkpt lat="44.233097262453306" lon="7.92671775527965"><ele>1144.0</ele><time>2026-05-01T13:59:02Z</time></trkpt><trkpt lat="44.23325962396184" lon="7.926648065873056"><ele>1144.0</ele><time>2026-05-01T13:59:03Z</time></trkpt><trkpt lat="44.23335223611462" lon="7.92648691901315"><ele>1144.0</ele><time>2026-05-01T13:59:04Z</time></trkpt><trkpt lat="44.233406835620315" lon="7.926325149437481"><ele>1144.0</ele><time>2026-05-01T13:59:05Z</time></trkpt><trkpt lat="44.233328237033994" lon="7.9262705531923565"><ele>1144.0</ele><time>2026-05-01T13:59:06Z</time></trkpt><trkpt lat="44.23323719940518" lon="7.926181896021878"><ele>1144.0</ele><time>2026-05-01T13:59:07Z</time></trkpt><trkpt lat="44.23306962307179" lon="7.925966028725654"><ele>1137.3333333333333</ele><time>2026-05-01T13:59:08Z</time></trkpt><trkpt lat="44.23291736512117" lon="7.925837678754955"><ele>1130.6666666666667</ele><time>2026-05-01T13:59:09Z</time></trkpt><trkpt lat="44.23278640978166" lon="7.92570961072508"><ele>1124.0</ele><time>2026-05-01T13:59:10Z</time></trkpt><trkpt lat="44.2327253141787" lon="7.925478721518108"><ele>1124.0</ele><time>2026-05-01T13:59:11Z</time></trkpt><trkpt lat="44.232635836042135" lon="7.925245110418064"><ele>1124.0</ele><time>2026-05-01T13:59:12Z</time></trkpt><trkpt lat="44.23250325385979" lon="7.925054055740125"><ele>1124.0</ele><time>2026-05-01T13:59:13Z</time></trkpt><trkpt lat="44.232416863953006" lon="7.924844079727279"><ele>1124.0</ele><time>2026-05-01T13:59:14Z</time></trkpt><trkpt lat="44.232336794995355" lon="7.92463387279501"><ele>1124.0</ele><time>2026-05-01T13:59:15Z</time></trkpt><trkpt lat="44.23228685424264" lon="7.9244169547995"><ele>1124.0</ele><time>2026-05-01T13:59:16Z</time></trkpt><trkpt lat="44.23224711797243" lon="7.924167090677762"><ele>1114.6666666666667</ele><time>2026-05-01T13:59:17Z</time></trkpt><trkpt lat="44.23219928230268" lon="7.9239010611529785"><ele>1105.3333333333333</ele><time>2026-05-01T13:59:18Z</time></trkpt><trkpt lat="44.23215404710138" lon="7.9236589770446"><ele>1096.0</ele><time>2026-05-01T13:59:19Z</time></trkpt><trkpt lat="44.23212581291867" lon="7.923436330206644"><ele>1094.6666666666665</ele><time>2026-05-01T13:59:20Z</time></trkpt><trkpt lat="44.232153477669335" lon="7.923226891419694"><ele>1093.3333333333333</ele><time>2026-05-01T13:59:21Z</time></trkpt><trkpt lat="44.23218221113778" lon="7.922996882789442"><ele>1092.0</ele><time>2026-05-01T13:59:22Z</time></trkpt><trkpt lat="44.23223135045875" lon="7.9227601652908355"><ele>1090.3333333333333</ele><time>2026-05-01T13:59:23Z</time></trkpt><trkpt lat="44.23226646277271" lon="7.922496275010859"><ele>1088.6666666666665</ele><time>2026-05-01T13:59:24Z</time></trkpt><trkpt lat="44.23229698064042" lon="7.922220180129292"><ele>1087.0</ele><time>2026-05-01T13:59:25Z</time></trkpt><trkpt lat="44.23229812584264" lon="7.9219380444108065"><ele>1085.0</ele><time>2026-05-01T13:59:26Z</time></trkpt><trkpt lat="44.23226722075845" lon="7.9216782275660576"><ele>1083.0</ele><time>2026-05-01T13:59:27Z</time></trkpt><trkpt lat="44.23221680074205" lon="7.921436451845267"><ele>1081.0</ele><time>2026-05-01T13:59:28Z</time></trkpt><trkpt lat="44.23219821289594" lon="7.921201451487872"><ele>1081.0</ele><time>2026-05-01T13:59:29Z</time></trkpt><trkpt lat="44.23220652859157" lon="7.920977773749512"><ele>1081.0</ele><time>2026-05-01T13:59:30Z</time></trkpt><trkpt lat="44.232239950290776" lon="7.9207732161774915"><ele>1081.0</ele><time>2026-05-01T13:59:31Z</time></trkpt><trkpt lat="44.232288625890995" lon="7.92057166377933"><ele>1088.6666666666665</ele><time>2026-05-01T13:59:32Z</time></trkpt><trkpt lat="44.23238420288171" lon="7.920428601425692"><ele>1096.3333333333333</ele><time>2026-05-01T13:59:33Z</time></trkpt><trkpt lat="44.23251017554627" lon="7.920321435493082"><ele>1104.0</ele><time>2026-05-01T13:59:34Z</time></trkpt><trkpt lat="44.23266546761715" lon="7.92023667176445"><ele>1104.0</ele><time>2026-05-01T13:59:35Z</time></trkpt><trkpt lat="44.23280648391447" lon="7.920102686107562"><ele>1104.0</ele><time>2026-05-01T13:59:36Z</time></trkpt><trkpt lat="44.232931090488776" lon="7.919977511796411"><ele>1104.0</ele><time>2026-05-01T13:59:37Z</time></trkpt><trkpt lat="44.23304870169085" lon="7.919819571428842"><ele>1103.6666666666667</ele><time>2026-05-01T13:59:38Z</time></trkpt><trkpt lat="44.2331526920424" lon="7.919626980953294"><ele>1103.3333333333335</ele><time>2026-05-01T13:59:39Z</time></trkpt><trkpt lat="44.23322937619105" lon="7.919433945814426"><ele>1103.0</ele><time>2026-05-01T13:59:40Z</time></trkpt><trkpt lat="44.23331958665433" lon="7.919253618175607"><ele>1099.75</ele><time>2026-05-01T13:59:41Z</time></trkpt><trkpt lat="44.23339631178593" lon="7.919096147286795"><ele>1096.5</ele><time>2026-05-01T13:59:42Z</time></trkpt><trkpt lat="44.23345560530042" lon="7.91893412377627"><ele>1093.25</ele><time>2026-05-01T13:59:43Z</time></trkpt><trkpt lat="44.2334436926372" lon="7.918771357608588"><ele>1090.0</ele><time>2026-05-01T13:59:44Z</time></trkpt><trkpt lat="44.23338414223852" lon="7.918669237673429"><ele>1090.0</ele><time>2026-05-01T13:59:45Z</time></trkpt><trkpt lat="44.233291851211035" lon="7.9185761536741825"><ele>1090.0</ele><time>2026-05-01T13:59:46Z</time></trkpt><trkpt lat="44.23316770694345" lon="7.918544753875035"><ele>1090.0</ele><time>2026-05-01T13:59:47Z</time></trkpt><trkpt lat="44.23303468722096" lon="7.918513947872547"><ele>1090.0</ele><time>2026-05-01T13:59:48Z</time></trkpt><trkpt lat="44.23292502355083" lon="7.918669013999334"><ele>1085.25</ele><time>2026-05-01T13:59:49Z</time></trkpt><trkpt lat="44.23280516875869" lon="7.918781834685788"><ele>1080.5</ele><time>2026-05-01T13:59:50Z</time></trkpt><trkpt lat="44.232705450210645" lon="7.918875145547421"><ele>1075.75</ele><time>2026-05-01T13:59:51Z</time></trkpt><trkpt lat="44.232597550784455" lon="7.918961795416994"><ele>1071.0</ele><time>2026-05-01T13:59:52Z</time></trkpt><trkpt lat="44.23248593836487" lon="7.919014169060378"><ele>1071.0</ele><time>2026-05-01T13:59:53Z</time></trkpt><trkpt lat="44.232385718459184" lon="7.9190181694952155"><ele>1071.0</ele><time>2026-05-01T13:59:54Z</time></trkpt><trkpt lat="44.23234214833323" lon="7.91888565048725"><ele>1071.0</ele><time>2026-05-01T13:59:55Z</time></trkpt><trkpt lat="44.232310773134465" lon="7.918790838899936"><ele>1071.0</ele><time>2026-05-01T13:59:56Z</time></trkpt><trkpt lat="44.23227369872665" lon="7.918631667463671"><ele>1071.0</ele><time>2026-05-01T13:59:57Z</time></trkpt><trkpt lat="44.232241645988815" lon="7.91843801509835"><ele>1063.3333333333333</ele><time>2026-05-01T13:59:58Z</time></trkpt><trkpt lat="44.23223996737866" lon="7.918213352477578"><ele>1055.6666666666665</ele><time>2026-05-01T13:59:59Z</time></trkpt><trkpt lat="44.23226927198631" lon="7.917983828565101"><ele>1048.0</ele><time>2026-05-01T14:00:00Z</time></trkpt><trkpt lat="44.232295267886236" lon="7.917743201453916"><ele>1056.3333333333333</ele><time>2026-05-01T14:00:01Z</time></trkpt><trkpt lat="44.23232577021752" lon="7.917479081750882"><ele>1064.6666666666667</ele><time>2026-05-01T14:00:02Z</time></trkpt><trkpt lat="44.232356867104826" lon="7.917223756975683"><ele>1073.0</ele><time>2026-05-01T14:00:03Z</time></trkpt><trkpt lat="44.23239625074578" lon="7.91697953450467"><ele>1073.0</ele><time>2026-05-01T14:00:04Z</time></trkpt><trkpt lat="44.23247525105763" lon="7.916755462903422"><ele>1073.0</ele><time>2026-05-01T14:00:05Z</time></trkpt><trkpt lat="44.23258804479676" lon="7.916558173191706"><ele>1073.0</ele><time>2026-05-01T14:00:06Z</time></trkpt><trkpt lat="44.232719295663145" lon="7.916388960431666"><ele>1075.6666666666667</ele><time>2026-05-01T14:00:07Z</time></trkpt><trkpt lat="44.232859245894424" lon="7.916255547921894"><ele>1078.3333333333333</ele><time>2026-05-01T14:00:08Z</time></trkpt><trkpt lat="44.23300494514469" lon="7.916159646180169"><ele>1081.0</ele><time>2026-05-01T14:00:09Z</time></trkpt><trkpt lat="44.2331569668523" lon="7.916089872514124"><ele>1081.0</ele><time>2026-05-01T14:00:10Z</time></trkpt><trkpt lat="44.23328533921773" lon="7.915987578516421"><ele>1081.0</ele><time>2026-05-01T14:00:11Z</time></trkpt><trkpt lat="44.23336707173765" lon="7.915857085519168"><ele>1081.0</ele><time>2026-05-01T14:00:12Z</time></trkpt><trkpt lat="44.23339170359041" lon="7.915685605010599"><ele>1081.0</ele><time>2026-05-01T14:00:13Z</time></trkpt><trkpt lat="44.23337944925336" lon="7.915482456659623"><ele>1072.6666666666665</ele><time>2026-05-01T14:00:14Z</time></trkpt><trkpt lat="44.23336661825127" lon="7.915256464911559"><ele>1064.3333333333333</ele><time>2026-05-01T14:00:15Z</time></trkpt><trkpt lat="44.233370389654986" lon="7.9150179371092735"><ele>1056.0</ele><time>2026-05-01T14:00:16Z</time></trkpt><trkpt lat="44.23338125436273" lon="7.914768457444606"><ele>1051.3333333333333</ele><time>2026-05-01T14:00:17Z</time></trkpt><trkpt lat="44.2333934116396" lon="7.914513585021758"><ele>1046.6666666666665</ele><time>2026-05-01T14:00:18Z</time></trkpt><trkpt lat="44.23343973554977" lon="7.91427719631572"><ele>1042.0</ele><time>2026-05-01T14:00:19Z</time></trkpt><trkpt lat="44.23349967995133" lon="7.914023531929991"><ele>1039.6666666666665</ele><time>2026-05-01T14:00:20Z</time></trkpt><trkpt lat="44.233560792065695" lon="7.9137529243390565"><ele>1037.3333333333333</ele><time>2026-05-01T14:00:21Z</time></trkpt><trkpt lat="44.233610776083914" lon="7.913493439277095"><ele>1035.0</ele><time>2026-05-01T14:00:22Z</time></trkpt><trkpt lat="44.233707376962904" lon="7.913268595100233"><ele>1039.0</ele><time>2026-05-01T14:00:23Z</time></trkpt><trkpt lat="44.23382536871584" lon="7.913056965182338"><ele>1043.0</ele><time>2026-05-01T14:00:24Z</time></trkpt><trkpt lat="44.23396648667332" lon="7.912851719534147"><ele>1047.0</ele><time>2026-05-01T14:00:25Z</time></trkpt><trkpt lat="44.23409902412295" lon="7.912659690417431"><ele>1042.25</ele><time>2026-05-01T14:00:26Z</time></trkpt><trkpt lat="44.23420558366423" lon="7.912477676729367"><ele>1037.5</ele><time>2026-05-01T14:00:27Z</time></trkpt><trkpt lat="44.23432571229268" lon="7.912381158924831"><ele>1032.75</ele><time>2026-05-01T14:00:28Z</time></trkpt><trkpt lat="44.2344495535874" lon="7.912347030577351"><ele>1028.0</ele><time>2026-05-01T14:00:29Z</time></trkpt><trkpt lat="44.234583278717686" lon="7.912294374604737"><ele>1028.0</ele><time>2026-05-01T14:00:30Z</time></trkpt><trkpt lat="44.23469692656629" lon="7.912210708741567"><ele>1028.0</ele><time>2026-05-01T14:00:31Z</time></trkpt><trkpt lat="44.23476254696743" lon="7.912065120075987"><ele>1028.0</ele><time>2026-05-01T14:00:32Z</time></trkpt><trkpt lat="44.234776423574864" lon="7.911862973635741"><ele>1028.0</ele><time>2026-05-01T14:00:33Z</time></trkpt><trkpt lat="44.23476083268709" lon="7.911634544725524"><ele>1031.6666666666667</ele><time>2026-05-01T14:00:34Z</time></trkpt><trkpt lat="44.23473903089473" lon="7.911402896873665"><ele>1035.3333333333333</ele><time>2026-05-01T14:00:35Z</time></trkpt><trkpt lat="44.23476032265361" lon="7.911206370465074"><ele>1039.0</ele><time>2026-05-01T14:00:36Z</time></trkpt><trkpt lat="44.234812345968834" lon="7.911001324855846"><ele>1035.0</ele><time>2026-05-01T14:00:37Z</time></trkpt><trkpt lat="44.23488334968982" lon="7.910762985985624"><ele>1031.0</ele><time>2026-05-01T14:00:38Z</time></trkpt><trkpt lat="44.234974328883055" lon="7.91052200642715"><ele>1027.0</ele><time>2026-05-01T14:00:39Z</time></trkpt><trkpt lat="44.23507032041366" lon="7.910275292065003"><ele>1023.0</ele><time>2026-05-01T14:00:40Z</time></trkpt><trkpt lat="44.23514955007227" lon="7.910009854599859"><ele>1019.0</ele><time>2026-05-01T14:00:41Z</time></trkpt><trkpt lat="44.235208137888726" lon="7.909754553413723"><ele>1015.0</ele><time>2026-05-01T14:00:42Z</time></trkpt><trkpt lat="44.23521618027077" lon="7.909510597224981"><ele>1015.0</ele><time>2026-05-01T14:00:43Z</time></trkpt><trkpt lat="44.235228180565336" lon="7.909288947072805"><ele>1015.0</ele><time>2026-05-01T14:00:44Z</time></trkpt><trkpt lat="44.235286911700804" lon="7.909084049114224"><ele>1015.0</ele><time>2026-05-01T14:00:45Z</time></trkpt><trkpt lat="44.2353658697221" lon="7.908869125617216"><ele>1012.6666666666666</ele><time>2026-05-01T14:00:46Z</time></trkpt><trkpt lat="44.235478453490565" lon="7.908648123143029"><ele>1010.3333333333333</ele><time>2026-05-01T14:00:47Z</time></trkpt><trkpt lat="44.235610119977906" lon="7.908419384248867"><ele>1008.0</ele><time>2026-05-01T14:00:48Z</time></trkpt><trkpt lat="44.235726532456056" lon="7.908214646437127"><ele>1008.0</ele><time>2026-05-01T14:00:49Z</time></trkpt><trkpt lat="44.2358043256251" lon="7.908031671021211"><ele>1008.0</ele><time>2026-05-01T14:00:50Z</time></trkpt><trkpt lat="44.2358748010382" lon="7.907897431473612"><ele>1008.0</ele><time>2026-05-01T14:00:51Z</time></trkpt><trkpt lat="44.235979733721905" lon="7.9078377505825"><ele>1008.0</ele><time>2026-05-01T14:00:52Z</time></trkpt><trkpt lat="44.23608913978741" lon="7.907859152558355"><ele>1008.0</ele><time>2026-05-01T14:00:53Z</time></trkpt><trkpt lat="44.236189584635476" lon="7.907954389995347"><ele>1008.0</ele><time>2026-05-01T14:00:54Z</time></trkpt><trkpt lat="44.23631500384884" lon="7.908053212791987"><ele>1008.0</ele><time>2026-05-01T14:00:55Z</time></trkpt><trkpt lat="44.23642888768229" lon="7.908125264647737"><ele>1008.0</ele><time>2026-05-01T14:00:56Z</time></trkpt><trkpt lat="44.236549636181266" lon="7.908076593650241"><ele>1008.5</ele><time>2026-05-01T14:00:57Z</time></trkpt><trkpt lat="44.23664042674815" lon="7.907951326864474"><ele>1009.0</ele><time>2026-05-01T14:00:58Z</time></trkpt><trkpt lat="44.236677541434204" lon="7.907778639678262"><ele>1009.5</ele><time>2026-05-01T14:00:59Z</time></trkpt><trkpt lat="44.23665606644139" lon="7.9075904322716015"><ele>1010.0</ele><time>2026-05-01T14:01:00Z</time></trkpt><trkpt lat="44.23659935685692" lon="7.907394183804213"><ele>1010.0</ele><time>2026-05-01T14:01:01Z</time></trkpt><trkpt lat="44.23654603373052" lon="7.907164960288774"><ele>1010.0</ele><time>2026-05-01T14:01:02Z</time></trkpt><trkpt lat="44.236524787457874" lon="7.906941165366964"><ele>1010.0</ele><time>2026-05-01T14:01:03Z</time></trkpt><trkpt lat="44.23653090988725" lon="7.906737511129985"><ele>1006.75</ele><time>2026-05-01T14:01:04Z</time></trkpt><trkpt lat="44.23657173540806" lon="7.906576388595087"><ele>1003.5</ele><time>2026-05-01T14:01:05Z</time></trkpt><trkpt lat="44.23666202920329" lon="7.906465340523022"><ele>1000.25</ele><time>2026-05-01T14:01:06Z</time></trkpt><trkpt lat="44.23677150926111" lon="7.906383038069236"><ele>997.0</ele><time>2026-05-01T14:01:07Z</time></trkpt><trkpt lat="44.23688871920287" lon="7.90635337685764"><ele>997.0</ele><time>2026-05-01T14:01:08Z</time></trkpt><trkpt lat="44.237021610729116" lon="7.906344039271826"><ele>997.0</ele><time>2026-05-01T14:01:09Z</time></trkpt><trkpt lat="44.23718423072867" lon="7.906300497618046"><ele>997.0</ele><time>2026-05-01T14:01:10Z</time></trkpt><trkpt lat="44.237352117317116" lon="7.906232546101935"><ele>992.6666666666666</ele><time>2026-05-01T14:01:11Z</time></trkpt><trkpt lat="44.23753105232706" lon="7.906103354858206"><ele>988.3333333333333</ele><time>2026-05-01T14:01:12Z</time></trkpt><trkpt lat="44.23768886387671" lon="7.905931453598355"><ele>984.0</ele><time>2026-05-01T14:01:13Z</time></trkpt><trkpt lat="44.23783549021943" lon="7.905720756845622"><ele>984.0</ele><time>2026-05-01T14:01:14Z</time></trkpt><trkpt lat="44.237955314391314" lon="7.9055122744128665"><ele>984.0</ele><time>2026-05-01T14:01:15Z</time></trkpt><trkpt lat="44.23806949090485" lon="7.905313082478494"><ele>984.0</ele><time>2026-05-01T14:01:16Z</time></trkpt><trkpt lat="44.23818148660228" lon="7.905123197238795"><ele>983.6666666666667</ele><time>2026-05-01T14:01:17Z</time></trkpt><trkpt lat="44.238290734346805" lon="7.904943845138511"><ele>983.3333333333334</ele><time>2026-05-01T14:01:18Z</time></trkpt><trkpt lat="44.238407711795624" lon="7.9047670859764"><ele>983.0</ele><time>2026-05-01T14:01:19Z</time></trkpt><trkpt lat="44.23851660738888" lon="7.90460899882202"><ele>983.0</ele><time>2026-05-01T14:01:20Z</time></trkpt><trkpt lat="44.23862187838509" lon="7.904464034918288"><ele>983.0</ele><time>2026-05-01T14:01:21Z</time></trkpt><trkpt lat="44.23871710085664" lon="7.904333745475218"><ele>983.0</ele><time>2026-05-01T14:01:22Z</time></trkpt><trkpt lat="44.23881003181257" lon="7.90420986110471"><ele>983.0</ele><time>2026-05-01T14:01:23Z</time></trkpt><trkpt lat="44.238902623531125" lon="7.904093223091606"><ele>982.0</ele><time>2026-05-01T14:01:24Z</time></trkpt><trkpt lat="44.238995448366914" lon="7.903995364755419"><ele>981.0</ele><time>2026-05-01T14:01:25Z</time></trkpt><trkpt lat="44.23908971659355" lon="7.9039190068576"><ele>980.0</ele><time>2026-05-01T14:01:26Z</time></trkpt><trkpt lat="44.23918267869774" lon="7.9038637379784396"><ele>979.0</ele><time>2026-05-01T14:01:27Z</time></trkpt><trkpt lat="44.239274179735226" lon="7.903814286321505"><ele>978.0</ele><time>2026-05-01T14:01:28Z</time></trkpt><trkpt lat="44.23936223715164" lon="7.903761822546854"><ele>978.0</ele><time>2026-05-01T14:01:29Z</time></trkpt><trkpt lat="44.23944706312922" lon="7.903719404524063"><ele>978.0</ele><time>2026-05-01T14:01:30Z</time></trkpt><trkpt lat="44.23953474695753" lon="7.903685938666991"><ele>978.0</ele><time>2026-05-01T14:01:31Z</time></trkpt><trkpt lat="44.23961832538261" lon="7.903663990504191"><ele>978.0</ele><time>2026-05-01T14:01:32Z</time></trkpt><trkpt lat="44.23969645838001" lon="7.903641375395498"><ele>978.0</ele><time>2026-05-01T14:01:33Z</time></trkpt><trkpt lat="44.23977080251327" lon="7.903613230815999"><ele>978.0</ele><time>2026-05-01T14:01:34Z</time></trkpt><trkpt lat="44.23984362844995" lon="7.903576640040217"><ele>977.6666666666666</ele><time>2026-05-01T14:01:35Z</time></trkpt><trkpt lat="44.23990343992997" lon="7.903521271962005"><ele>977.3333333333333</ele><time>2026-05-01T14:01:36Z</time></trkpt><trkpt lat="44.23995341032741" lon="7.903444018824431"><ele>977.0</ele><time>2026-05-01T14:01:37Z</time></trkpt><trkpt lat="44.23998328831645" lon="7.903324487156177"><ele>976.6666666666666</ele><time>2026-05-01T14:01:38Z</time></trkpt><trkpt lat="44.23999727437674" lon="7.903186870683848"><ele>976.3333333333333</ele><time>2026-05-01T14:01:39Z</time></trkpt><trkpt lat="44.240002652417175" lon="7.903048613276838"><ele>976.0</ele><time>2026-05-01T14:01:40Z</time></trkpt><trkpt lat="44.240027149707316" lon="7.902905289360852"><ele>976.0</ele><time>2026-05-01T14:01:41Z</time></trkpt><trkpt lat="44.24009948335932" lon="7.902801550929921"><ele>975.9999999999999</ele><time>2026-05-01T14:01:42Z</time></trkpt><trkpt lat="44.24015667800634" lon="7.902692881573588"><ele>975.9999999999999</ele><time>2026-05-01T14:01:43Z</time></trkpt><trkpt lat="44.24023571359556" lon="7.902632227724454"><ele>976.0</ele><time>2026-05-01T14:01:44Z</time></trkpt><trkpt lat="44.240316011594814" lon="7.902578200348813"><ele>976.0</ele><time>2026-05-01T14:01:45Z</time></trkpt><trkpt lat="44.240404841615074" lon="7.902528531081418"><ele>978.4</ele><time>2026-05-01T14:01:46Z</time></trkpt><trkpt lat="44.24049992303751" lon="7.902529659317034"><ele>980.8</ele><time>2026-05-01T14:01:47Z</time></trkpt><trkpt lat="44.24060247798395" lon="7.9025693508061305"><ele>983.1999999999999</ele><time>2026-05-01T14:01:48Z</time></trkpt><trkpt lat="44.24070783308452" lon="7.902636717247783"><ele>985.5999999999999</ele><time>2026-05-01T14:01:49Z</time></trkpt><trkpt lat="44.24081743748674" lon="7.902709011148135"><ele>988.0</ele><time>2026-05-01T14:01:50Z</time></trkpt><trkpt lat="44.24092496407229" lon="7.902803564567075"><ele>988.0</ele><time>2026-05-01T14:01:51Z</time></trkpt><trkpt lat="44.24104190777949" lon="7.9028636798047405"><ele>988.0</ele><time>2026-05-01T14:01:52Z</time></trkpt><trkpt lat="44.24116753013523" lon="7.902865909689991"><ele>988.0</ele><time>2026-05-01T14:01:53Z</time></trkpt><trkpt lat="44.241303681762346" lon="7.902826550409994"><ele>988.0</ele><time>2026-05-01T14:01:54Z</time></trkpt><trkpt lat="44.24144463030207" lon="7.902768753959477"><ele>989.25</ele><time>2026-05-01T14:01:55Z</time></trkpt><trkpt lat="44.241587520870176" lon="7.9027093976248395"><ele>990.5</ele><time>2026-05-01T14:01:56Z</time></trkpt><trkpt lat="44.24172756508116" lon="7.9026624800660406"><ele>991.75</ele><time>2026-05-01T14:01:57Z</time></trkpt><trkpt lat="44.241853127645676" lon="7.902626450203398"><ele>993.0</ele><time>2026-05-01T14:01:58Z</time></trkpt><trkpt lat="44.24197266952953" lon="7.902584640412784"><ele>990.2</ele><time>2026-05-01T14:01:59Z</time></trkpt><trkpt lat="44.242076516822166" lon="7.9025406317066125"><ele>987.4</ele><time>2026-05-01T14:02:00Z</time></trkpt><trkpt lat="44.24217314149526" lon="7.902462396144935"><ele>984.6000000000001</ele><time>2026-05-01T14:02:01Z</time></trkpt><trkpt lat="44.242256975415515" lon="7.902381747861174"><ele>981.8000000000001</ele><time>2026-05-01T14:02:02Z</time></trkpt><trkpt lat="44.24233650672137" lon="7.902298055110005"><ele>979.0</ele><time>2026-05-01T14:02:03Z</time></trkpt><trkpt lat="44.242412233140826" lon="7.9022007977672795"><ele>979.0</ele><time>2026-05-01T14:02:04Z</time></trkpt><trkpt lat="44.24248900491193" lon="7.9021064421955645"><ele>979.0000000000001</ele><time>2026-05-01T14:02:05Z</time></trkpt><trkpt lat="44.242565268657756" lon="7.902014630186092"><ele>979.0000000000001</ele><time>2026-05-01T14:02:06Z</time></trkpt><trkpt lat="44.2426545542442" lon="7.901944012126973"><ele>979.0</ele><time>2026-05-01T14:02:07Z</time></trkpt><trkpt lat="44.242753457457376" lon="7.9018843649668975"><ele>979.0</ele><time>2026-05-01T14:02:08Z</time></trkpt><trkpt lat="44.24285549549706" lon="7.9018378181123134"><ele>979.0</ele><time>2026-05-01T14:02:09Z</time></trkpt><trkpt lat="44.24296434898378" lon="7.901789438722785"><ele>979.0</ele><time>2026-05-01T14:02:10Z</time></trkpt><trkpt lat="44.243076747346" lon="7.901733540289742"><ele>979.0</ele><time>2026-05-01T14:02:11Z</time></trkpt><trkpt lat="44.24319483282465" lon="7.90167422965183"><ele>979.0</ele><time>2026-05-01T14:02:12Z</time></trkpt><trkpt lat="44.24331801209714" lon="7.901615446170032"><ele>975.0</ele><time>2026-05-01T14:02:13Z</time></trkpt><trkpt lat="44.24344311857881" lon="7.901556273236026"><ele>971.0</ele><time>2026-05-01T14:02:14Z</time></trkpt><trkpt lat="44.24356190493286" lon="7.901496391915674"><ele>967.0</ele><time>2026-05-01T14:02:15Z</time></trkpt><trkpt lat="44.24368826289664" lon="7.90143907225118"><ele>963.0</ele><time>2026-05-01T14:02:16Z</time></trkpt><trkpt lat="44.24381277302638" lon="7.901382286381414"><ele>963.0</ele><time>2026-05-01T14:02:17Z</time></trkpt><trkpt lat="44.2439410708782" lon="7.901348084602273"><ele>963.0</ele><time>2026-05-01T14:02:18Z</time></trkpt><trkpt lat="44.244069079731034" lon="7.901343426083721"><ele>963.0</ele><time>2026-05-01T14:02:19Z</time></trkpt><trkpt lat="44.24419434384585" lon="7.901407963686147"><ele>963.0</ele><time>2026-05-01T14:02:20Z</time></trkpt><trkpt lat="44.24433013230863" lon="7.901440243452602"><ele>963.5</ele><time>2026-05-01T14:02:21Z</time></trkpt><trkpt lat="44.24445813705473" lon="7.901500324477213"><ele>964.0</ele><time>2026-05-01T14:02:22Z</time></trkpt><trkpt lat="44.24458920465785" lon="7.901523795471218"><ele>964.5</ele><time>2026-05-01T14:02:23Z</time></trkpt><trkpt lat="44.24472307541352" lon="7.901598483373504"><ele>965.0</ele><time>2026-05-01T14:02:24Z</time></trkpt><trkpt lat="44.24486860581468" lon="7.901456539352535"><ele>965.0</ele><time>2026-05-01T14:02:25Z</time></trkpt><trkpt lat="44.24499392387903" lon="7.901379530218542"><ele>965.0</ele><time>2026-05-01T14:02:26Z</time></trkpt><trkpt lat="44.24508137288215" lon="7.901278241937676"><ele>965.0</ele><time>2026-05-01T14:02:27Z</time></trkpt><trkpt lat="44.24513263418208" lon="7.90113812204914"><ele>965.0</ele><time>2026-05-01T14:02:28Z</time></trkpt><trkpt lat="44.245153919624116" lon="7.900980195776648"><ele>961.8</ele><time>2026-05-01T14:02:29Z</time></trkpt><trkpt lat="44.245172572063005" lon="7.900813496859124"><ele>958.6</ele><time>2026-05-01T14:02:30Z</time></trkpt><trkpt lat="44.245236364032195" lon="7.9006852111778745"><ele>955.4000000000001</ele><time>2026-05-01T14:02:31Z</time></trkpt><trkpt lat="44.24530243223684" lon="7.900575041783907"><ele>952.2</ele><time>2026-05-01T14:02:32Z</time></trkpt><trkpt lat="44.24535272816187" lon="7.900455933786288"><ele>949.0</ele><time>2026-05-01T14:02:33Z</time></trkpt><trkpt lat="44.24541221700258" lon="7.900364894383141"><ele>949.0</ele><time>2026-05-01T14:02:34Z</time></trkpt><trkpt lat="44.24547198234363" lon="7.900267716240309"><ele>949.0000000000001</ele><time>2026-05-01T14:02:35Z</time></trkpt><trkpt lat="44.24553802453089" lon="7.900192499949963"><ele>949.0000000000001</ele><time>2026-05-01T14:02:36Z</time></trkpt><trkpt lat="44.245617663218596" lon="7.900126871388732"><ele>949.0</ele><time>2026-05-01T14:02:37Z</time></trkpt><trkpt lat="44.2457113805466" lon="7.900070900248131"><ele>949.0</ele><time>2026-05-01T14:02:38Z</time></trkpt><trkpt lat="44.24581690373163" lon="7.900027980254993"><ele>948.5</ele><time>2026-05-01T14:02:39Z</time></trkpt><trkpt lat="44.24594417105918" lon="7.899959512102573"><ele>948.0</ele><time>2026-05-01T14:02:40Z</time></trkpt><trkpt lat="44.24606841374316" lon="7.899898860206203"><ele>947.5</ele><time>2026-05-01T14:02:41Z</time></trkpt><trkpt lat="44.24620130568034" lon="7.899830582726235"><ele>947.0</ele><time>2026-05-01T14:02:42Z</time></trkpt><trkpt lat="44.24632914550027" lon="7.899764880195885"><ele>955.0</ele><time>2026-05-01T14:02:43Z</time></trkpt><trkpt lat="44.246465845770935" lon="7.899702986570648"><ele>963.0</ele><time>2026-05-01T14:02:44Z</time></trkpt><trkpt lat="44.24661576439777" lon="7.899634253132499"><ele>971.0</ele><time>2026-05-01T14:02:45Z</time></trkpt><trkpt lat="44.246783436608865" lon="7.89955908472494"><ele>971.0</ele><time>2026-05-01T14:02:46Z</time></trkpt><trkpt lat="44.24698881504223" lon="7.899499657360194"><ele>971.0</ele><time>2026-05-01T14:02:47Z</time></trkpt><trkpt lat="44.24722462157441" lon="7.899444860441146"><ele>971.0</ele><time>2026-05-01T14:02:48Z</time></trkpt><trkpt lat="44.247359945651915" lon="7.899412775336744"><ele>975.5</ele><time>2026-05-01T14:02:49Z</time></trkpt><trkpt lat="44.247601099342106" lon="7.899378756309877"><ele>980.0</ele><time>2026-05-01T14:02:50Z</time></trkpt><trkpt lat="44.24781643520585" lon="7.899294009437626"><ele>977.25</ele><time>2026-05-01T14:02:51Z</time></trkpt><trkpt lat="44.24798440808607" lon="7.899194182043578"><ele>974.5</ele><time>2026-05-01T14:02:52Z</time></trkpt><trkpt lat="44.248122683584384" lon="7.899169887596734"><ele>971.75</ele><time>2026-05-01T14:02:53Z</time></trkpt><trkpt lat="44.24824226053375" lon="7.899220578640283"><ele>969.0</ele><time>2026-05-01T14:02:54Z</time></trkpt><trkpt lat="44.248376116420765" lon="7.899348375228332"><ele>969.0</ele><time>2026-05-01T14:02:55Z</time></trkpt><trkpt lat="44.24851889584405" lon="7.899527436626249"><ele>969.0</ele><time>2026-05-01T14:02:56Z</time></trkpt><trkpt lat="44.248667693230075" lon="7.899656269470469"><ele>969.0</ele><time>2026-05-01T14:02:57Z</time></trkpt><trkpt lat="44.24880143068381" lon="7.899692279907899"><ele>969.0</ele><time>2026-05-01T14:02:58Z</time></trkpt><trkpt lat="44.24890773268812" lon="7.8995743005872106"><ele>969.0</ele><time>2026-05-01T14:02:59Z</time></trkpt><trkpt lat="44.24905062230453" lon="7.899472275953688"><ele>969.0</ele><time>2026-05-01T14:03:00Z</time></trkpt><trkpt lat="44.24919502018502" lon="7.899389735818873"><ele>967.3333333333333</ele><time>2026-05-01T14:03:01Z</time></trkpt><trkpt lat="44.24933052455155" lon="7.899351568971022"><ele>965.6666666666666</ele><time>2026-05-01T14:03:02Z</time></trkpt><trkpt lat="44.24947800044881" lon="7.899383914915305"><ele>964.0</ele><time>2026-05-01T14:03:03Z</time></trkpt><trkpt lat="44.24965947394416" lon="7.899426213975165"><ele>970.0</ele><time>2026-05-01T14:03:04Z</time></trkpt><trkpt lat="44.24985845795734" lon="7.899473511710163"><ele>976.0</ele><time>2026-05-01T14:03:05Z</time></trkpt><trkpt lat="44.25007908479442" lon="7.899521687961223"><ele>982.0</ele><time>2026-05-01T14:03:06Z</time></trkpt><trkpt lat="44.25031392344322" lon="7.899553865606169"><ele>982.0</ele><time>2026-05-01T14:03:07Z</time></trkpt><trkpt lat="44.25055291816882" lon="7.899577596258767"><ele>982.0</ele><time>2026-05-01T14:03:08Z</time></trkpt><trkpt lat="44.250800566995125" lon="7.899596802747593"><ele>976.0</ele><time>2026-05-01T14:03:09Z</time></trkpt><trkpt lat="44.25105937763458" lon="7.899617258518225"><ele>970.0</ele><time>2026-05-01T14:03:10Z</time></trkpt><trkpt lat="44.25132134413722" lon="7.8996396912535145"><ele>963.0</ele><time>2026-05-01T14:03:11Z</time></trkpt><trkpt lat="44.251572140479524" lon="7.8996584771055565"><ele>956.0</ele><time>2026-05-01T14:03:12Z</time></trkpt><trkpt lat="44.25180343695784" lon="7.899649924465727"><ele>956.0</ele><time>2026-05-01T14:03:13Z</time></trkpt><trkpt lat="44.252027527199026" lon="7.8996367546311275"><ele>956.0</ele><time>2026-05-01T14:03:14Z</time></trkpt><trkpt lat="44.252244223147095" lon="7.899598430154483"><ele>956.0</ele><time>2026-05-01T14:03:15Z</time></trkpt><trkpt lat="44.25243692075428" lon="7.899578952942378"><ele>954.3333333333334</ele><time>2026-05-01T14:03:16Z</time></trkpt><trkpt lat="44.25260164540391" lon="7.899642055186854"><ele>952.6666666666667</ele><time>2026-05-01T14:03:17Z</time></trkpt><trkpt lat="44.25278719103208" lon="7.899711070558149"><ele>951.0</ele><time>2026-05-01T14:03:18Z</time></trkpt><trkpt lat="44.252982838620945" lon="7.899784686205338"><ele>948.6666666666667</ele><time>2026-05-01T14:03:19Z</time></trkpt><trkpt lat="44.25317996588098" lon="7.899865508366265"><ele>946.3333333333334</ele><time>2026-05-01T14:03:20Z</time></trkpt><trkpt lat="44.253382270511736" lon="7.899940730104441"><ele>944.0</ele><time>2026-05-01T14:03:21Z</time></trkpt><trkpt lat="44.25354306174377" lon="7.900088857663087"><ele>942.5</ele><time>2026-05-01T14:03:22Z</time></trkpt><trkpt lat="44.25368701111689" lon="7.900167872263546"><ele>941.0</ele><time>2026-05-01T14:03:23Z</time></trkpt><trkpt lat="44.25379775426602" lon="7.900218203062525"><ele>939.5</ele><time>2026-05-01T14:03:24Z</time></trkpt><trkpt lat="44.25387871291064" lon="7.900109365285956"><ele>938.0</ele><time>2026-05-01T14:03:25Z</time></trkpt><trkpt lat="44.25400412919208" lon="7.900011742664401"><ele>938.0</ele><time>2026-05-01T14:03:26Z</time></trkpt><trkpt lat="44.25415917032132" lon="7.899912731881989"><ele>938.0</ele><time>2026-05-01T14:03:27Z</time></trkpt><trkpt lat="44.254330252071384" lon="7.89980247785006"><ele>938.0</ele><time>2026-05-01T14:03:28Z</time></trkpt><trkpt lat="44.25449229894793" lon="7.899703821963244"><ele>938.0</ele><time>2026-05-01T14:03:29Z</time></trkpt><trkpt lat="44.25463259909576" lon="7.899632551269588"><ele>938.0</ele><time>2026-05-01T14:03:30Z</time></trkpt><trkpt lat="44.254742334003964" lon="7.899615308821294"><ele>938.0</ele><time>2026-05-01T14:03:31Z</time></trkpt><trkpt lat="44.25483364039174" lon="7.899681790333094"><ele>938.0</ele><time>2026-05-01T14:03:32Z</time></trkpt><trkpt lat="44.25489817503446" lon="7.899783814619358"><ele>935.0</ele><time>2026-05-01T14:03:33Z</time></trkpt><trkpt lat="44.25498206022199" lon="7.899931466372485"><ele>932.0</ele><time>2026-05-01T14:03:34Z</time></trkpt><trkpt lat="44.255096134881704" lon="7.900112179215387"><ele>929.0</ele><time>2026-05-01T14:03:35Z</time></trkpt><trkpt lat="44.25523138530596" lon="7.900293423126806"><ele>930.3333333333334</ele><time>2026-05-01T14:03:36Z</time></trkpt><trkpt lat="44.25538414077833" lon="7.900452928481587"><ele>931.6666666666667</ele><time>2026-05-01T14:03:37Z</time></trkpt><trkpt lat="44.255553293740824" lon="7.900596129846445"><ele>933.0</ele><time>2026-05-01T14:03:38Z</time></trkpt><trkpt lat="44.255727502790364" lon="7.9007053409447225"><ele>933.0</ele><time>2026-05-01T14:03:39Z</time></trkpt><trkpt lat="44.2559023584082" lon="7.90074868591197"><ele>933.0</ele><time>2026-05-01T14:03:40Z</time></trkpt><trkpt lat="44.2560639635874" lon="7.90081323890197"><ele>933.0</ele><time>2026-05-01T14:03:41Z</time></trkpt><trkpt lat="44.25623683689693" lon="7.900824151409373"><ele>933.0</ele><time>2026-05-01T14:03:42Z</time></trkpt><trkpt lat="44.25638393017995" lon="7.900874225445543"><ele>933.0</ele><time>2026-05-01T14:03:43Z</time></trkpt><trkpt lat="44.256524179152215" lon="7.900955849637512"><ele>933.0</ele><time>2026-05-01T14:03:44Z</time></trkpt><trkpt lat="44.256644338293825" lon="7.901058351159176"><ele>933.0</ele><time>2026-05-01T14:03:45Z</time></trkpt><trkpt lat="44.25675414632395" lon="7.901130371708944"><ele>929.75</ele><time>2026-05-01T14:03:46Z</time></trkpt><trkpt lat="44.25686060806116" lon="7.901118220019539"><ele>926.5</ele><time>2026-05-01T14:03:47Z</time></trkpt><trkpt lat="44.25696053728443" lon="7.901015192349389"><ele>923.25</ele><time>2026-05-01T14:03:48Z</time></trkpt><trkpt lat="44.2570459667932" lon="7.900860745555227"><ele>920.0</ele><time>2026-05-01T14:03:49Z</time></trkpt><trkpt lat="44.257138183765626" lon="7.900722792211899"><ele>920.0</ele><time>2026-05-01T14:03:50Z</time></trkpt><trkpt lat="44.25726035551525" lon="7.900679421787953"><ele>920.0</ele><time>2026-05-01T14:03:51Z</time></trkpt><trkpt lat="44.25739232709068" lon="7.900628040771851"><ele>920.0</ele><time>2026-05-01T14:03:52Z</time></trkpt><trkpt lat="44.25752903593036" lon="7.900607702834952"><ele>920.0</ele><time>2026-05-01T14:03:53Z</time></trkpt><trkpt lat="44.25766226374953" lon="7.900570191584065"><ele>922.5</ele><time>2026-05-01T14:03:54Z</time></trkpt><trkpt lat="44.257796040097254" lon="7.900516269500467"><ele>925.0</ele><time>2026-05-01T14:03:55Z</time></trkpt><trkpt lat="44.25790184768402" lon="7.900395329502083"><ele>927.5</ele><time>2026-05-01T14:03:56Z</time></trkpt><trkpt lat="44.257984794414995" lon="7.9002274960770045"><ele>930.0</ele><time>2026-05-01T14:03:57Z</time></trkpt><trkpt lat="44.25807802621695" lon="7.900090549722454"><ele>935.75</ele><time>2026-05-01T14:03:58Z</time></trkpt><trkpt lat="44.258205725011464" lon="7.900092594919465"><ele>941.5</ele><time>2026-05-01T14:03:59Z</time></trkpt><trkpt lat="44.25832634738212" lon="7.900095761737373"><ele>947.25</ele><time>2026-05-01T14:04:00Z</time></trkpt><trkpt lat="44.25846173928194" lon="7.900121718904338"><ele>953.0</ele><time>2026-05-01T14:04:01Z</time></trkpt><trkpt lat="44.25861450895929" lon="7.900159484574608"><ele>953.0</ele><time>2026-05-01T14:04:02Z</time></trkpt><trkpt lat="44.25876726274294" lon="7.900175597292767"><ele>953.0</ele><time>2026-05-01T14:04:03Z</time></trkpt><trkpt lat="44.258922609351956" lon="7.900158643113413"><ele>953.0</ele><time>2026-05-01T14:04:04Z</time></trkpt><trkpt lat="44.25906631343023" lon="7.9000952870831425"><ele>942.0</ele><time>2026-05-01T14:04:05Z</time></trkpt><trkpt lat="44.25919386670635" lon="7.900015614849454"><ele>931.0</ele><time>2026-05-01T14:04:06Z</time></trkpt><trkpt lat="44.259302220103066" lon="7.89993731439562"><ele>920.0</ele><time>2026-05-01T14:04:07Z</time></trkpt><trkpt lat="44.259409686042645" lon="7.899885352565717"><ele>909.0</ele><time>2026-05-01T14:04:08Z</time></trkpt><trkpt lat="44.25951761725951" lon="7.899886057494665"><ele>909.0</ele><time>2026-05-01T14:04:09Z</time></trkpt><trkpt lat="44.25960735653663" lon="7.899982034531617"><ele>909.0</ele><time>2026-05-01T14:04:10Z</time></trkpt><trkpt lat="44.25966213789658" lon="7.900102125424993"><ele>909.0</ele><time>2026-05-01T14:04:11Z</time></trkpt><trkpt lat="44.25972134590021" lon="7.900259094718396"><ele>909.0</ele><time>2026-05-01T14:04:12Z</time></trkpt><trkpt lat="44.25981356558782" lon="7.900429820722634"><ele>910.25</ele><time>2026-05-01T14:04:13Z</time></trkpt><trkpt lat="44.25988575889149" lon="7.900599784225463"><ele>911.5</ele><time>2026-05-01T14:04:14Z</time></trkpt><trkpt lat="44.25997641348697" lon="7.900749281190396"><ele>912.75</ele><time>2026-05-01T14:04:15Z</time></trkpt><trkpt lat="44.26008510353072" lon="7.900894060776472"><ele>914.0</ele><time>2026-05-01T14:04:16Z</time></trkpt><trkpt lat="44.26021766658922" lon="7.901020154289966"><ele>926.3333333333334</ele><time>2026-05-01T14:04:17Z</time></trkpt><trkpt lat="44.260339770250596" lon="7.901143498376728"><ele>938.6666666666667</ele><time>2026-05-01T14:04:18Z</time></trkpt><trkpt lat="44.26044379468245" lon="7.901299583299363"><ele>951.0</ele><time>2026-05-01T14:04:19Z</time></trkpt><trkpt lat="44.26057219171855" lon="7.901444843072879"><ele>931.6666666666667</ele><time>2026-05-01T14:04:20Z</time></trkpt><trkpt lat="44.26066692686343" lon="7.901633821757409"><ele>912.3333333333334</ele><time>2026-05-01T14:04:21Z</time></trkpt><trkpt lat="44.26077223446838" lon="7.901810058405934"><ele>893.0</ele><time>2026-05-01T14:04:22Z</time></trkpt><trkpt lat="44.26086924147581" lon="7.9019707096534635"><ele>893.0</ele><time>2026-05-01T14:04:23Z</time></trkpt><trkpt lat="44.26094337658297" lon="7.902091563698335"><ele>893.0</ele><time>2026-05-01T14:04:24Z</time></trkpt><trkpt lat="44.26096047390199" lon="7.902245459574782"><ele>893.0</ele><time>2026-05-01T14:04:25Z</time></trkpt><trkpt lat="44.26093268720946" lon="7.902388635855836"><ele>893.0</ele><time>2026-05-01T14:04:26Z</time></trkpt><trkpt lat="44.26089403618517" lon="7.902540509993447"><ele>893.0</ele><time>2026-05-01T14:04:27Z</time></trkpt><trkpt lat="44.26084861674266" lon="7.902703977200154"><ele>895.0</ele><time>2026-05-01T14:04:28Z</time></trkpt><trkpt lat="44.260792313156415" lon="7.902853979667722"><ele>897.0</ele><time>2026-05-01T14:04:29Z</time></trkpt><trkpt lat="44.26078582239071" lon="7.902994969589441"><ele>899.0</ele><time>2026-05-01T14:04:30Z</time></trkpt><trkpt lat="44.260799933253516" lon="7.903113679588673"><ele>901.0</ele><time>2026-05-01T14:04:31Z</time></trkpt><trkpt lat="44.26086379844015" lon="7.903202506712033"><ele>903.0</ele><time>2026-05-01T14:04:32Z</time></trkpt><trkpt lat="44.26094784384509" lon="7.903290257265361"><ele>903.0</ele><time>2026-05-01T14:04:33Z</time></trkpt><trkpt lat="44.261100686802735" lon="7.903315660837448"><ele>903.0</ele><time>2026-05-01T14:04:34Z</time></trkpt><trkpt lat="44.26123931083944" lon="7.9033412549418625"><ele>903.0</ele><time>2026-05-01T14:04:35Z</time></trkpt><trkpt lat="44.26134233459412" lon="7.903421639091378"><ele>903.0</ele><time>2026-05-01T14:04:36Z</time></trkpt><trkpt lat="44.261440033029785" lon="7.903554314152324"><ele>903.25</ele><time>2026-05-01T14:04:37Z</time></trkpt><trkpt lat="44.26151810948542" lon="7.903705348031401"><ele>903.5</ele><time>2026-05-01T14:04:38Z</time></trkpt><trkpt lat="44.2616110901958" lon="7.903818340680409"><ele>903.75</ele><time>2026-05-01T14:04:39Z</time></trkpt><trkpt lat="44.26173502328123" lon="7.903886559281467"><ele>904.0</ele><time>2026-05-01T14:04:40Z</time></trkpt><trkpt lat="44.26187033414046" lon="7.903905733314211"><ele>904.0</ele><time>2026-05-01T14:04:41Z</time></trkpt><trkpt lat="44.26201865210092" lon="7.903916653819454"><ele>904.0</ele><time>2026-05-01T14:04:42Z</time></trkpt><trkpt lat="44.26216623621081" lon="7.903957487501667"><ele>904.0</ele><time>2026-05-01T14:04:43Z</time></trkpt><trkpt lat="44.262309487182314" lon="7.9040265535395005"><ele>907.0</ele><time>2026-05-01T14:04:44Z</time></trkpt><trkpt lat="44.26244714756163" lon="7.904113427244034"><ele>910.0</ele><time>2026-05-01T14:04:45Z</time></trkpt><trkpt lat="44.26256500212944" lon="7.904189562836157"><ele>913.0</ele><time>2026-05-01T14:04:46Z</time></trkpt><trkpt lat="44.26267936907567" lon="7.904259697268851"><ele>916.0</ele><time>2026-05-01T14:04:47Z</time></trkpt><trkpt lat="44.26282990293107" lon="7.904350106071099"><ele>916.0</ele><time>2026-05-01T14:04:48Z</time></trkpt><trkpt lat="44.26296845146574" lon="7.904469926489377"><ele>916.0</ele><time>2026-05-01T14:04:49Z</time></trkpt><trkpt lat="44.26308872171648" lon="7.904608610025941"><ele>916.0</ele><time>2026-05-01T14:04:50Z</time></trkpt><trkpt lat="44.26321191825335" lon="7.904746444042433"><ele>911.75</ele><time>2026-05-01T14:04:51Z</time></trkpt><trkpt lat="44.26333025915746" lon="7.904867186189084"><ele>907.5</ele><time>2026-05-01T14:04:52Z</time></trkpt><trkpt lat="44.263445017590854" lon="7.9049807946160415"><ele>903.25</ele><time>2026-05-01T14:04:53Z</time></trkpt><trkpt lat="44.26355478635441" lon="7.905098554843589"><ele>899.0</ele><time>2026-05-01T14:04:54Z</time></trkpt><trkpt lat="44.26366288235698" lon="7.9052212901269"><ele>899.0</ele><time>2026-05-01T14:04:55Z</time></trkpt><trkpt lat="44.26375215802012" lon="7.905357621288064"><ele>899.0</ele><time>2026-05-01T14:04:56Z</time></trkpt><trkpt lat="44.26381110610624" lon="7.905527736211987"><ele>899.0</ele><time>2026-05-01T14:04:57Z</time></trkpt><trkpt lat="44.2638809602029" lon="7.905656949428898"><ele>899.0</ele><time>2026-05-01T14:04:58Z</time></trkpt><trkpt lat="44.26400448615394" lon="7.905714762011347"><ele>890.75</ele><time>2026-05-01T14:04:59Z</time></trkpt><trkpt lat="44.2641345771119" lon="7.905660475234756"><ele>882.5</ele><time>2026-05-01T14:05:00Z</time></trkpt><trkpt lat="44.26426054600927" lon="7.905592667670238"><ele>874.25</ele><time>2026-05-01T14:05:01Z</time></trkpt><trkpt lat="44.264389557208624" lon="7.905632581480719"><ele>866.0</ele><time>2026-05-01T14:05:02Z</time></trkpt><trkpt lat="44.264517319236724" lon="7.905677570749402"><ele>866.0</ele><time>2026-05-01T14:05:03Z</time></trkpt><trkpt lat="44.26464605495459" lon="7.905716716043541"><ele>866.0</ele><time>2026-05-01T14:05:04Z</time></trkpt><trkpt lat="44.26475837789719" lon="7.905790957206348"><ele>866.0</ele><time>2026-05-01T14:05:05Z</time></trkpt><trkpt lat="44.26489999521269" lon="7.905788946136417"><ele>866.0</ele><time>2026-05-01T14:05:06Z</time></trkpt><trkpt lat="44.26503233153861" lon="7.9056822805332425"><ele>864.5</ele><time>2026-05-01T14:05:07Z</time></trkpt><trkpt lat="44.26515651782287" lon="7.905592231987984"><ele>863.0</ele><time>2026-05-01T14:05:08Z</time></trkpt><trkpt lat="44.26526240261085" lon="7.905523824742609"><ele>861.5</ele><time>2026-05-01T14:05:09Z</time></trkpt><trkpt lat="44.26536298925507" lon="7.905478607935312"><ele>860.0</ele><time>2026-05-01T14:05:10Z</time></trkpt><trkpt lat="44.26546051692885" lon="7.905532968523015"><ele>860.0</ele><time>2026-05-01T14:05:11Z</time></trkpt><trkpt lat="44.26555067862644" lon="7.905638438204031"><ele>860.0</ele><time>2026-05-01T14:05:12Z</time></trkpt><trkpt lat="44.26567867705912" lon="7.905769174417473"><ele>860.0</ele><time>2026-05-01T14:05:13Z</time></trkpt><trkpt lat="44.26582670894899" lon="7.905914735159856"><ele>866.3333333333334</ele><time>2026-05-01T14:05:14Z</time></trkpt><trkpt lat="44.26598288063967" lon="7.906063126826562"><ele>872.6666666666667</ele><time>2026-05-01T14:05:15Z</time></trkpt><trkpt lat="44.26616644406301" lon="7.906238789652229"><ele>879.0</ele><time>2026-05-01T14:05:16Z</time></trkpt><trkpt lat="44.266322696379454" lon="7.90640399615649"><ele>871.0</ele><time>2026-05-01T14:05:17Z</time></trkpt><trkpt lat="44.26647779647761" lon="7.906515673960446"><ele>863.0</ele><time>2026-05-01T14:05:18Z</time></trkpt><trkpt lat="44.26665339476817" lon="7.906541599628374"><ele>855.0</ele><time>2026-05-01T14:05:19Z</time></trkpt><trkpt lat="44.266867995729875" lon="7.906492286622538"><ele>855.0</ele><time>2026-05-01T14:05:20Z</time></trkpt><trkpt lat="44.26705232488712" lon="7.90640898515649"><ele>855.0</ele><time>2026-05-01T14:05:21Z</time></trkpt><trkpt lat="44.26722800329134" lon="7.906371765837345"><ele>855.0</ele><time>2026-05-01T14:05:22Z</time></trkpt><trkpt lat="44.26737094562006" lon="7.906379423351655"><ele>851.3333333333333</ele><time>2026-05-01T14:05:23Z</time></trkpt><trkpt lat="44.26747063877929" lon="7.906477678100831"><ele>847.6666666666666</ele><time>2026-05-01T14:05:24Z</time></trkpt><trkpt lat="44.26760465775861" lon="7.906606795722862"><ele>844.0</ele><time>2026-05-01T14:05:25Z</time></trkpt><trkpt lat="44.26775576361353" lon="7.906731636484994"><ele>850.0</ele><time>2026-05-01T14:05:26Z</time></trkpt><trkpt lat="44.26793763610472" lon="7.906867093845601"><ele>856.0</ele><time>2026-05-01T14:05:27Z</time></trkpt><trkpt lat="44.26813922426699" lon="7.906989756918707"><ele>862.0</ele><time>2026-05-01T14:05:28Z</time></trkpt><trkpt lat="44.26833719023668" lon="7.907115521669266"><ele>862.0</ele><time>2026-05-01T14:05:29Z</time></trkpt><trkpt lat="44.268491475772066" lon="7.907221109274066"><ele>862.0</ele><time>2026-05-01T14:05:30Z</time></trkpt><trkpt lat="44.268611219511655" lon="7.907272835368827"><ele>862.0</ele><time>2026-05-01T14:05:31Z</time></trkpt><trkpt lat="44.2687367254142" lon="7.907252174455016"><ele>862.0</ele><time>2026-05-01T14:05:32Z</time></trkpt><trkpt lat="44.26886859199713" lon="7.90713550371883"><ele>860.3333333333333</ele><time>2026-05-01T14:05:33Z</time></trkpt><trkpt lat="44.2689901299826" lon="7.907011201790306"><ele>858.6666666666667</ele><time>2026-05-01T14:05:34Z</time></trkpt><trkpt lat="44.26910706864554" lon="7.906833832890629"><ele>857.0</ele><time>2026-05-01T14:05:35Z</time></trkpt><trkpt lat="44.269217354409776" lon="7.906611088099697"><ele>848.25</ele><time>2026-05-01T14:05:36Z</time></trkpt><trkpt lat="44.269322880444435" lon="7.906432984763599"><ele>839.5</ele><time>2026-05-01T14:05:37Z</time></trkpt><trkpt lat="44.26941516498232" lon="7.906359723813817"><ele>830.75</ele><time>2026-05-01T14:05:38Z</time></trkpt><trkpt lat="44.26951778623625" lon="7.906363349355942"><ele>822.0</ele><time>2026-05-01T14:05:39Z</time></trkpt><trkpt lat="44.26963190528794" lon="7.906395774211795"><ele>822.0</ele><time>2026-05-01T14:05:40Z</time></trkpt><trkpt lat="44.26976332033336" lon="7.906487205696372"><ele>822.0</ele><time>2026-05-01T14:05:41Z</time></trkpt><trkpt lat="44.26986196896685" lon="7.906697978755059"><ele>822.0</ele><time>2026-05-01T14:05:42Z</time></trkpt><trkpt lat="44.26998291165781" lon="7.90694751690902"><ele>826.0</ele><time>2026-05-01T14:05:43Z</time></trkpt><trkpt lat="44.27011739520435" lon="7.9071664823739365"><ele>830.0</ele><time>2026-05-01T14:05:44Z</time></trkpt><trkpt lat="44.27026218028103" lon="7.907385740838294"><ele>834.0</ele><time>2026-05-01T14:05:45Z</time></trkpt><trkpt lat="44.270451438924546" lon="7.907554736709037"><ele>828.5</ele><time>2026-05-01T14:05:46Z</time></trkpt><trkpt lat="44.270657900693415" lon="7.907689730979077"><ele>823.0</ele><time>2026-05-01T14:05:47Z</time></trkpt><trkpt lat="44.270886443425994" lon="7.9078074444919615"><ele>823.0</ele><time>2026-05-01T14:05:48Z</time></trkpt><trkpt lat="44.27110843552192" lon="7.907926495136228"><ele>823.0</ele><time>2026-05-01T14:05:49Z</time></trkpt><trkpt lat="44.271298157211994" lon="7.9080668852372185"><ele>820.3333333333333</ele><time>2026-05-01T14:05:50Z</time></trkpt><trkpt lat="44.27145136990443" lon="7.90825947129004"><ele>817.6666666666667</ele><time>2026-05-01T14:05:51Z</time></trkpt><trkpt lat="44.27160997733796" lon="7.90839093682292"><ele>815.0</ele><time>2026-05-01T14:05:52Z</time></trkpt><trkpt lat="44.271766929678144" lon="7.908489591550125"><ele>815.0</ele><time>2026-05-01T14:05:53Z</time></trkpt><trkpt lat="44.27195538954965" lon="7.908518537903057"><ele>815.0</ele><time>2026-05-01T14:05:54Z</time></trkpt><trkpt lat="44.27215513031645" lon="7.908555974575912"><ele>815.0</ele><time>2026-05-01T14:05:55Z</time></trkpt><trkpt lat="44.272333442470064" lon="7.908629049995125"><ele>805.5</ele><time>2026-05-01T14:05:56Z</time></trkpt><trkpt lat="44.27267620401422" lon="7.908846705321744"><ele>796.0</ele><time>2026-05-01T14:05:58Z</time></trkpt><trkpt lat="44.272802216916965" lon="7.908948630521023"><ele>796.0</ele><time>2026-05-01T14:05:59Z</time></trkpt><trkpt lat="44.272897557800455" lon="7.909076218515882"><ele>796.0</ele><time>2026-05-01T14:06:00Z</time></trkpt><trkpt lat="44.27293532437344" lon="7.909233787709686"><ele>796.0</ele><time>2026-05-01T14:06:01Z</time></trkpt><trkpt lat="44.272879148862266" lon="7.909427771803694"><ele>796.0</ele><time>2026-05-01T14:06:02Z</time></trkpt><trkpt lat="44.272914880639675" lon="7.909589908174063"><ele>794.0</ele><time>2026-05-01T14:06:03Z</time></trkpt><trkpt lat="44.27294866967654" lon="7.90973907588926"><ele>792.0</ele><time>2026-05-01T14:06:04Z</time></trkpt><trkpt lat="44.2730299316115" lon="7.909844938685503"><ele>790.0</ele><time>2026-05-01T14:06:05Z</time></trkpt><trkpt lat="44.27314880716532" lon="7.909921034509652"><ele>788.0</ele><time>2026-05-01T14:06:06Z</time></trkpt><trkpt lat="44.27329552842554" lon="7.91002119969368"><ele>796.0</ele><time>2026-05-01T14:06:07Z</time></trkpt><trkpt lat="44.27344599153777" lon="7.910114254501642"><ele>804.0</ele><time>2026-05-01T14:06:08Z</time></trkpt><trkpt lat="44.27360064202394" lon="7.910226757738802"><ele>812.0</ele><time>2026-05-01T14:06:09Z</time></trkpt><trkpt lat="44.2737391174401" lon="7.9103126783413975"><ele>812.0</ele><time>2026-05-01T14:06:10Z</time></trkpt><trkpt lat="44.27388175768791" lon="7.910370655334503"><ele>812.0</ele><time>2026-05-01T14:06:11Z</time></trkpt><trkpt lat="44.27402038044192" lon="7.910405560026177"><ele>812.0</ele><time>2026-05-01T14:06:12Z</time></trkpt><trkpt lat="44.274146171158584" lon="7.910420577187915"><ele>812.0</ele><time>2026-05-01T14:06:13Z</time></trkpt><trkpt lat="44.274263202682235" lon="7.910441321377955"><ele>809.2</ele><time>2026-05-01T14:06:14Z</time></trkpt><trkpt lat="44.274449116780225" lon="7.910513463942189"><ele>806.4000000000001</ele><time>2026-05-01T14:06:16Z</time></trkpt><trkpt lat="44.27451202053085" lon="7.910517434199747"><ele>803.5999999999999</ele><time>2026-05-01T14:06:17Z</time></trkpt><trkpt lat="44.27456591476423" lon="7.910459247964661"><ele>800.8</ele><time>2026-05-01T14:06:18Z</time></trkpt><trkpt lat="44.27459942635951" lon="7.910359172577905"><ele>798.0</ele><time>2026-05-01T14:06:19Z</time></trkpt><trkpt lat="44.27462942065994" lon="7.910256951362502"><ele>798.0</ele><time>2026-05-01T14:06:20Z</time></trkpt><trkpt lat="44.274697567590444" lon="7.910163432366626"><ele>798.0</ele><time>2026-05-01T14:06:21Z</time></trkpt><trkpt lat="44.27480845209291" lon="7.910107619034945"><ele>798.0</ele><time>2026-05-01T14:06:22Z</time></trkpt><trkpt lat="44.27492032565573" lon="7.910032312891953"><ele>798.0</ele><time>2026-05-01T14:06:23Z</time></trkpt><trkpt lat="44.27503329331917" lon="7.90993293524786"><ele>790.5</ele><time>2026-05-01T14:06:24Z</time></trkpt><trkpt lat="44.275146653450896" lon="7.909863753885327"><ele>783.0</ele><time>2026-05-01T14:06:25Z</time></trkpt><trkpt lat="44.275234831388715" lon="7.90985893606852"><ele>775.5</ele><time>2026-05-01T14:06:26Z</time></trkpt><trkpt lat="44.275360299645854" lon="7.909872136720991"><ele>768.0</ele><time>2026-05-01T14:06:28Z</time></trkpt><trkpt lat="44.27547295011453" lon="7.909930246971042"><ele>768.0</ele><time>2026-05-01T14:06:30Z</time></trkpt><trkpt lat="44.27554109277984" lon="7.909971417936953"><ele>768.0</ele><time>2026-05-01T14:06:31Z</time></trkpt><trkpt lat="44.27563333814559" lon="7.910018409625469"><ele>768.0</ele><time>2026-05-01T14:06:32Z</time></trkpt><trkpt lat="44.27573296332218" lon="7.910067451864573"><ele>768.0</ele><time>2026-05-01T14:06:33Z</time></trkpt><trkpt lat="44.27582734721413" lon="7.910117359146222"><ele>768.0</ele><time>2026-05-01T14:06:34Z</time></trkpt><trkpt lat="44.27590518101351" lon="7.9101595036153896"><ele>767.8333333333334</ele><time>2026-05-01T14:06:35Z</time></trkpt><trkpt lat="44.27597636075193" lon="7.910193828115734"><ele>767.6666666666666</ele><time>2026-05-01T14:06:36Z</time></trkpt><trkpt lat="44.27604251511356" lon="7.910232468164667"><ele>767.5</ele><time>2026-05-01T14:06:38Z</time></trkpt><trkpt lat="44.27610558181217" lon="7.910252660395441"><ele>767.3333333333333</ele><time>2026-05-01T14:06:43Z</time></trkpt><trkpt lat="44.276099625500855" lon="7.910157394904905"><ele>767.1666666666666</ele><time>2026-05-01T14:08:06Z</time></trkpt><trkpt lat="44.275952428432994" lon="7.910107068222403"><ele>767.0</ele><time>2026-05-01T14:08:08Z</time></trkpt><trkpt lat="44.27585028895099" lon="7.910070923147805"><ele>767.0</ele><time>2026-05-01T14:08:09Z</time></trkpt><trkpt lat="44.27573472613386" lon="7.910021352393609"><ele>767.0</ele><time>2026-05-01T14:08:10Z</time></trkpt><trkpt lat="44.27560196124355" lon="7.909956355898319"><ele>767.0</ele><time>2026-05-01T14:08:11Z</time></trkpt><trkpt lat="44.27546298432535" lon="7.909883024684873"><ele>767.0</ele><time>2026-05-01T14:08:12Z</time></trkpt><trkpt lat="44.27532404971547" lon="7.909817441038184"><ele>767.25</ele><time>2026-05-01T14:08:13Z</time></trkpt><trkpt lat="44.27519929625521" lon="7.909798523246477"><ele>767.5</ele><time>2026-05-01T14:08:14Z</time></trkpt><trkpt lat="44.275083758862266" lon="7.909849608831299"><ele>767.75</ele><time>2026-05-01T14:08:15Z</time></trkpt><trkpt lat="44.27495424732039" lon="7.909947378620281"><ele>768.0</ele><time>2026-05-01T14:08:16Z</time></trkpt><trkpt lat="44.27481163953097" lon="7.910057616047096"><ele>769.2</ele><time>2026-05-01T14:08:17Z</time></trkpt><trkpt lat="44.274696120283174" lon="7.910142607029181"><ele>770.4</ele><time>2026-05-01T14:08:18Z</time></trkpt><trkpt lat="44.27459100179339" lon="7.910205871069023"><ele>771.6</ele><time>2026-05-01T14:08:19Z</time></trkpt><trkpt lat="44.274512060749935" lon="7.910234518994842"><ele>772.8000000000001</ele><time>2026-05-01T14:08:20Z</time></trkpt><trkpt lat="44.274402839275794" lon="7.910188914969469"><ele>774.0</ele><time>2026-05-01T14:08:22Z</time></trkpt><trkpt lat="44.27437668390977" lon="7.910036278253424"><ele>774.0</ele><time>2026-05-01T14:08:23Z</time></trkpt><trkpt lat="44.274346119476135" lon="7.909873381802745"><ele>774.0</ele><time>2026-05-01T14:08:24Z</time></trkpt><trkpt lat="44.27434865588739" lon="7.909696811276506"><ele>774.0</ele><time>2026-05-01T14:08:25Z</time></trkpt><trkpt lat="44.27436698152026" lon="7.909534971857564"><ele>774.0</ele><time>2026-05-01T14:08:26Z</time></trkpt><trkpt lat="44.27441435783648" lon="7.909377600951869"><ele>773.3333333333333</ele><time>2026-05-01T14:08:27Z</time></trkpt><trkpt lat="44.27449008764566" lon="7.909199934194363"><ele>772.6666666666666</ele><time>2026-05-01T14:08:28Z</time></trkpt><trkpt lat="44.2745651066423" lon="7.9090194735178665"><ele>772.0</ele><time>2026-05-01T14:08:29Z</time></trkpt><trkpt lat="44.27463865036126" lon="7.908817497925974"><ele>772.0</ele><time>2026-05-01T14:08:30Z</time></trkpt><trkpt lat="44.2747338122835" lon="7.908605533976559"><ele>772.0</ele><time>2026-05-01T14:08:31Z</time></trkpt><trkpt lat="44.27483120714467" lon="7.908375664306959"><ele>772.0</ele><time>2026-05-01T14:08:32Z</time></trkpt><trkpt lat="44.274928033451864" lon="7.908163035284063"><ele>773.3333333333333</ele><time>2026-05-01T14:08:33Z</time></trkpt><trkpt lat="44.275039565279734" lon="7.908025959190687"><ele>774.6666666666667</ele><time>2026-05-01T14:08:34Z</time></trkpt><trkpt lat="44.27515787604079" lon="7.907911242465816"><ele>776.0</ele><time>2026-05-01T14:08:35Z</time></trkpt><trkpt lat="44.275304137477804" lon="7.907791038383746"><ele>776.0</ele><time>2026-05-01T14:08:36Z</time></trkpt><trkpt lat="44.275452467861626" lon="7.907708658556959"><ele>776.0</ele><time>2026-05-01T14:08:37Z</time></trkpt><trkpt lat="44.27558622660768" lon="7.907702514328391"><ele>776.0</ele><time>2026-05-01T14:08:38Z</time></trkpt><trkpt lat="44.27571681954866" lon="7.907781027993583"><ele>776.0</ele><time>2026-05-01T14:08:39Z</time></trkpt><trkpt lat="44.27588001495036" lon="7.907875698496553"><ele>777.6666666666667</ele><time>2026-05-01T14:08:40Z</time></trkpt><trkpt lat="44.27603583389472" lon="7.9079980466803566"><ele>779.3333333333333</ele><time>2026-05-01T14:08:41Z</time></trkpt><trkpt lat="44.27619756892022" lon="7.908143532607929"><ele>781.0</ele><time>2026-05-01T14:08:42Z</time></trkpt><trkpt lat="44.27636819926291" lon="7.90828894050599"><ele>780.0</ele><time>2026-05-01T14:08:43Z</time></trkpt><trkpt lat="44.27652456951786" lon="7.908408765986866"><ele>779.0</ele><time>2026-05-01T14:08:44Z</time></trkpt><trkpt lat="44.276696496267405" lon="7.908458252426245"><ele>778.0</ele><time>2026-05-01T14:08:45Z</time></trkpt><trkpt lat="44.276847180984646" lon="7.908493895077157"><ele>778.0</ele><time>2026-05-01T14:08:46Z</time></trkpt><trkpt lat="44.27694735729563" lon="7.9086074871030565"><ele>778.0</ele><time>2026-05-01T14:08:47Z</time></trkpt><trkpt lat="44.27704949576531" lon="7.908730747652067"><ele>778.0</ele><time>2026-05-01T14:08:48Z</time></trkpt><trkpt lat="44.27715910839537" lon="7.908862937326064"><ele>778.0</ele><time>2026-05-01T14:08:49Z</time></trkpt><trkpt lat="44.27724979821512" lon="7.90896919151018"><ele>782.1666666666666</ele><time>2026-05-01T14:08:50Z</time></trkpt><trkpt lat="44.27731643084012" lon="7.909034675771048"><ele>786.3333333333333</ele><time>2026-05-01T14:08:51Z</time></trkpt><trkpt lat="44.27742784210533" lon="7.909079432069702"><ele>790.5</ele><time>2026-05-01T14:08:53Z</time></trkpt><trkpt lat="44.27747955799283" lon="7.909001522691503"><ele>794.6666666666667</ele><time>2026-05-01T14:08:54Z</time></trkpt><trkpt lat="44.27750442623694" lon="7.908918126610849"><ele>798.8333333333334</ele><time>2026-05-01T14:08:55Z</time></trkpt><trkpt lat="44.277489480998405" lon="7.908824997974285"><ele>803.0</ele><time>2026-05-01T14:08:56Z</time></trkpt><trkpt lat="44.277436076588224" lon="7.908727959073724"><ele>803.0</ele><time>2026-05-01T14:08:57Z</time></trkpt><trkpt lat="44.27736023798425" lon="7.908628252009474"><ele>803.0</ele><time>2026-05-01T14:08:58Z</time></trkpt><trkpt lat="44.277266105873856" lon="7.908495184146131"><ele>803.0</ele><time>2026-05-01T14:08:59Z</time></trkpt><trkpt lat="44.27717085343096" lon="7.908370188934959"><ele>803.0</ele><time>2026-05-01T14:09:00Z</time></trkpt><trkpt lat="44.27710105049924" lon="7.9080231200663595"><ele>807.0</ele><time>2026-05-01T14:09:03Z</time></trkpt><trkpt lat="44.27728220528628" lon="7.908091483917837"><ele>811.0</ele><time>2026-05-01T14:09:05Z</time></trkpt><trkpt lat="44.27739646684127" lon="7.9081993708872025"><ele>815.0</ele><time>2026-05-01T14:09:06Z</time></trkpt><trkpt lat="44.27754714411082" lon="7.908320357033328"><ele>811.0</ele><time>2026-05-01T14:09:07Z</time></trkpt><trkpt lat="44.27767180609706" lon="7.908464131485719"><ele>807.0</ele><time>2026-05-01T14:09:08Z</time></trkpt><trkpt lat="44.2777620341132" lon="7.908679326430625"><ele>803.0</ele><time>2026-05-01T14:09:09Z</time></trkpt><trkpt lat="44.2778305998057" lon="7.908932251541002"><ele>803.0</ele><time>2026-05-01T14:09:10Z</time></trkpt><trkpt lat="44.27789881639232" lon="7.909135183572184"><ele>803.0</ele><time>2026-05-01T14:09:11Z</time></trkpt><trkpt lat="44.277942425631835" lon="7.909276673210448"><ele>803.0</ele><time>2026-05-01T14:09:12Z</time></trkpt><trkpt lat="44.27800810433709" lon="7.909309580999297"><ele>803.0</ele><time>2026-05-01T14:09:13Z</time></trkpt><trkpt lat="44.27811429834201" lon="7.909123469419926"><ele>803.0</ele><time>2026-05-01T14:09:15Z</time></trkpt><trkpt lat="44.27809173955294" lon="7.908948137812235"><ele>803.0</ele><time>2026-05-01T14:09:16Z</time></trkpt><trkpt lat="44.27802802310414" lon="7.908755477701807"><ele>803.0</ele><time>2026-05-01T14:09:17Z</time></trkpt><trkpt lat="44.27797337852366" lon="7.908513825479545"><ele>807.0</ele><time>2026-05-01T14:09:18Z</time></trkpt><trkpt lat="44.27798443901106" lon="7.9082553461714244"><ele>811.0</ele><time>2026-05-01T14:09:19Z</time></trkpt><trkpt lat="44.27796876818837" lon="7.907972789059333"><ele>815.0</ele><time>2026-05-01T14:09:20Z</time></trkpt><trkpt lat="44.27793516275122" lon="7.907701881407015"><ele>823.3333333333334</ele><time>2026-05-01T14:09:21Z</time></trkpt><trkpt lat="44.277845429317175" lon="7.9074891259901205"><ele>831.6666666666667</ele><time>2026-05-01T14:09:22Z</time></trkpt><trkpt lat="44.27773270186334" lon="7.907357680968807"><ele>840.0</ele><time>2026-05-01T14:09:23Z</time></trkpt><trkpt lat="44.277585737913654" lon="7.907304612169603"><ele>840.0</ele><time>2026-05-01T14:09:24Z</time></trkpt><trkpt lat="44.2774096357604" lon="7.907345396157264"><ele>840.0</ele><time>2026-05-01T14:09:25Z</time></trkpt><trkpt lat="44.27721494295075" lon="7.907383150805461"><ele>840.0</ele><time>2026-05-01T14:09:26Z</time></trkpt><trkpt lat="44.27704033489691" lon="7.907386644818"><ele>839.8</ele><time>2026-05-01T14:09:27Z</time></trkpt><trkpt lat="44.27692069048084" lon="7.907323661255809"><ele>839.6</ele><time>2026-05-01T14:09:28Z</time></trkpt><trkpt lat="44.27687239047917" lon="7.907211896077415"><ele>839.4000000000001</ele><time>2026-05-01T14:09:29Z</time></trkpt><trkpt lat="44.276866361858914" lon="7.9070986113668"><ele>839.2</ele><time>2026-05-01T14:09:30Z</time></trkpt><trkpt lat="44.276868918674054" lon="7.906928024882765"><ele>839.0</ele><time>2026-05-01T14:09:31Z</time></trkpt><trkpt lat="44.2768558771141" lon="7.906687448965848"><ele>839.0</ele><time>2026-05-01T14:09:32Z</time></trkpt><trkpt lat="44.276842250016415" lon="7.906438840939035"><ele>839.0</ele><time>2026-05-01T14:09:33Z</time></trkpt><trkpt lat="44.27682520767252" lon="7.906168364826778"><ele>839.0</ele><time>2026-05-01T14:09:34Z</time></trkpt><trkpt lat="44.27680992326105" lon="7.905896852054874"><ele>842.0</ele><time>2026-05-01T14:09:35Z</time></trkpt><trkpt lat="44.2767700494543" lon="7.905656860737224"><ele>845.0</ele><time>2026-05-01T14:09:36Z</time></trkpt><trkpt lat="44.27672168340625" lon="7.905462356094179"><ele>848.0</ele><time>2026-05-01T14:09:37Z</time></trkpt><trkpt lat="44.27663639352015" lon="7.905289882205551"><ele>848.0</ele><time>2026-05-01T14:09:38Z</time></trkpt><trkpt lat="44.276504509780736" lon="7.905132012833932"><ele>848.0</ele><time>2026-05-01T14:09:39Z</time></trkpt><trkpt lat="44.27635007011198" lon="7.904979104932444"><ele>848.0</ele><time>2026-05-01T14:09:40Z</time></trkpt><trkpt lat="44.276205536267895" lon="7.904841813856806"><ele>849.8</ele><time>2026-05-01T14:09:41Z</time></trkpt><trkpt lat="44.27612552109489" lon="7.904739284687695"><ele>851.5999999999999</ele><time>2026-05-01T14:09:42Z</time></trkpt><trkpt lat="44.27608281685134" lon="7.904673531221825"><ele>853.4000000000001</ele><time>2026-05-01T14:09:43Z</time></trkpt><trkpt lat="44.27600647249358" lon="7.904579548124496"><ele>855.2</ele><time>2026-05-01T14:09:45Z</time></trkpt><trkpt lat="44.27598599033971" lon="7.9044711934125"><ele>857.0</ele><time>2026-05-01T14:09:47Z</time></trkpt><trkpt lat="44.27605802964297" lon="7.904380253625148"><ele>857.0</ele><time>2026-05-01T14:09:49Z</time></trkpt><trkpt lat="44.276145009325745" lon="7.904382441039881"><ele>857.0</ele><time>2026-05-01T14:09:50Z</time></trkpt><trkpt lat="44.276250541371724" lon="7.904364645945537"><ele>857.0</ele><time>2026-05-01T14:09:51Z</time></trkpt><trkpt lat="44.27636179433262" lon="7.904342710365941"><ele>857.0</ele><time>2026-05-01T14:09:52Z</time></trkpt><trkpt lat="44.27652116910347" lon="7.904345052503195"><ele>858.6666666666667</ele><time>2026-05-01T14:09:53Z</time></trkpt><trkpt lat="44.276668128019" lon="7.904421967586349"><ele>860.3333333333333</ele><time>2026-05-01T14:09:54Z</time></trkpt><trkpt lat="44.27684066254022" lon="7.90455749481437"><ele>862.0</ele><time>2026-05-01T14:09:55Z</time></trkpt><trkpt lat="44.277025001143954" lon="7.904684177983292"><ele>862.0</ele><time>2026-05-01T14:09:56Z</time></trkpt><trkpt lat="44.277200330686206" lon="7.904836589467024"><ele>862.0</ele><time>2026-05-01T14:09:57Z</time></trkpt><trkpt lat="44.27736425757107" lon="7.904966731151689"><ele>862.0</ele><time>2026-05-01T14:09:58Z</time></trkpt><trkpt lat="44.27752277975387" lon="7.905059214047665"><ele>863.0</ele><time>2026-05-01T14:09:59Z</time></trkpt><trkpt lat="44.277708915299996" lon="7.905105396887589"><ele>864.0</ele><time>2026-05-01T14:10:00Z</time></trkpt><trkpt lat="44.277910648683836" lon="7.905141405161132"><ele>865.0</ele><time>2026-05-01T14:10:01Z</time></trkpt><trkpt lat="44.278109145482446" lon="7.905255655066986"><ele>869.0</ele><time>2026-05-01T14:10:02Z</time></trkpt><trkpt lat="44.27832453780795" lon="7.905398862527571"><ele>873.0</ele><time>2026-05-01T14:10:03Z</time></trkpt><trkpt lat="44.27839822633682" lon="7.905480572541561"><ele>877.0</ele><time>2026-05-01T14:10:04Z</time></trkpt><trkpt lat="44.27845125745397" lon="7.905605555246584"><ele>881.0</ele><time>2026-05-01T14:10:05Z</time></trkpt><trkpt lat="44.27848609181021" lon="7.905751209289688"><ele>879.1999999999999</ele><time>2026-05-01T14:10:06Z</time></trkpt><trkpt lat="44.278485399079536" lon="7.905942184326299"><ele>877.3999999999999</ele><time>2026-05-01T14:10:07Z</time></trkpt><trkpt lat="44.2785000559422" lon="7.906127971191099"><ele>875.6</ele><time>2026-05-01T14:10:08Z</time></trkpt><trkpt lat="44.278524390053235" lon="7.9062661474946285"><ele>873.8</ele><time>2026-05-01T14:10:09Z</time></trkpt><trkpt lat="44.278587798260155" lon="7.906315966139029"><ele>872.0</ele><time>2026-05-01T14:10:10Z</time></trkpt><trkpt lat="44.27868317550878" lon="7.906187704268973"><ele>872.0</ele><time>2026-05-01T14:10:12Z</time></trkpt><trkpt lat="44.27874803171131" lon="7.906113918239151"><ele>872.0</ele><time>2026-05-01T14:10:13Z</time></trkpt><trkpt lat="44.278659952198296" lon="7.9058260124885065"><ele>872.0</ele><time>2026-05-01T14:10:14Z</time></trkpt><trkpt lat="44.27865241840149" lon="7.9055958566488505"><ele>875.0</ele><time>2026-05-01T14:10:15Z</time></trkpt><trkpt lat="44.278667499304326" lon="7.9053572940291374"><ele>878.0</ele><time>2026-05-01T14:10:16Z</time></trkpt><trkpt lat="44.278686554396735" lon="7.905108412928247"><ele>881.0</ele><time>2026-05-01T14:10:17Z</time></trkpt><trkpt lat="44.278676047655715" lon="7.904871718702904"><ele>884.3333333333334</ele><time>2026-05-01T14:10:18Z</time></trkpt><trkpt lat="44.27859446957455" lon="7.904660475055587"><ele>887.6666666666667</ele><time>2026-05-01T14:10:19Z</time></trkpt><trkpt lat="44.27845590738971" lon="7.904467587309788"><ele>891.0</ele><time>2026-05-01T14:10:20Z</time></trkpt><trkpt lat="44.27825950906554" lon="7.904288613782934"><ele>891.6666666666667</ele><time>2026-05-01T14:10:21Z</time></trkpt><trkpt lat="44.27810499423863" lon="7.904107984198359"><ele>892.3333333333334</ele><time>2026-05-01T14:10:22Z</time></trkpt><trkpt lat="44.27795755537951" lon="7.903891438426536"><ele>893.0</ele><time>2026-05-01T14:10:23Z</time></trkpt><trkpt lat="44.27781961536694" lon="7.903703841547058"><ele>893.0</ele><time>2026-05-01T14:10:24Z</time></trkpt><trkpt lat="44.27765614747664" lon="7.903651917768362"><ele>893.0</ele><time>2026-05-01T14:10:25Z</time></trkpt><trkpt lat="44.27754893073996" lon="7.9035860313666495"><ele>893.0</ele><time>2026-05-01T14:10:26Z</time></trkpt><trkpt lat="44.27747063480355" lon="7.9035891997608365"><ele>893.0</ele><time>2026-05-01T14:10:27Z</time></trkpt><trkpt lat="44.277511496751636" lon="7.903443461911801"><ele>893.0</ele><time>2026-05-01T14:10:29Z</time></trkpt><trkpt lat="44.277576672776554" lon="7.903446531055147"><ele>893.0</ele><time>2026-05-01T14:10:30Z</time></trkpt><trkpt lat="44.27768476606856" lon="7.903483985268678"><ele>893.0</ele><time>2026-05-01T14:10:31Z</time></trkpt><trkpt lat="44.27783772089229" lon="7.903561140062041"><ele>893.0</ele><time>2026-05-01T14:10:32Z</time></trkpt><trkpt lat="44.27800073289161" lon="7.903674521061055"><ele>898.6666666666667</ele><time>2026-05-01T14:10:33Z</time></trkpt><trkpt lat="44.278171855275296" lon="7.903792883663943"><ele>904.3333333333333</ele><time>2026-05-01T14:10:34Z</time></trkpt><trkpt lat="44.278306955068516" lon="7.903899241134492"><ele>910.0</ele><time>2026-05-01T14:10:35Z</time></trkpt><trkpt lat="44.278436692832464" lon="7.903926533398662"><ele>910.0</ele><time>2026-05-01T14:10:36Z</time></trkpt><trkpt lat="44.278552805234185" lon="7.90384864001279"><ele>910.0</ele><time>2026-05-01T14:10:37Z</time></trkpt><trkpt lat="44.27864477473638" lon="7.903660576013382"><ele>910.0</ele><time>2026-05-01T14:10:38Z</time></trkpt><trkpt lat="44.278760012793484" lon="7.9034553957495755"><ele>911.6666666666666</ele><time>2026-05-01T14:10:39Z</time></trkpt><trkpt lat="44.27886253950931" lon="7.903199224065351"><ele>913.3333333333333</ele><time>2026-05-01T14:10:40Z</time></trkpt><trkpt lat="44.278956943957404" lon="7.9029333943774605"><ele>915.0</ele><time>2026-05-01T14:10:41Z</time></trkpt><trkpt lat="44.27903057133594" lon="7.902674967604393"><ele>922.3333333333333</ele><time>2026-05-01T14:10:42Z</time></trkpt><trkpt lat="44.27913798834164" lon="7.902481714022105"><ele>929.6666666666666</ele><time>2026-05-01T14:10:43Z</time></trkpt><trkpt lat="44.27928649584098" lon="7.902321440170424"><ele>937.0</ele><time>2026-05-01T14:10:44Z</time></trkpt><trkpt lat="44.27945822995216" lon="7.902158387217122"><ele>937.0</ele><time>2026-05-01T14:10:45Z</time></trkpt><trkpt lat="44.279637391846066" lon="7.9020359626730325"><ele>937.0</ele><time>2026-05-01T14:10:46Z</time></trkpt><trkpt lat="44.279838409538" lon="7.901964838691539"><ele>937.0</ele><time>2026-05-01T14:10:47Z</time></trkpt><trkpt lat="44.28004667219049" lon="7.901902636149708"><ele>936.25</ele><time>2026-05-01T14:10:48Z</time></trkpt><trkpt lat="44.28021502129782" lon="7.901862527093505"><ele>935.5</ele><time>2026-05-01T14:10:49Z</time></trkpt><trkpt lat="44.280355685179124" lon="7.901837812086474"><ele>934.75</ele><time>2026-05-01T14:10:50Z</time></trkpt><trkpt lat="44.28043562951364" lon="7.901955964619628"><ele>934.0</ele><time>2026-05-01T14:10:51Z</time></trkpt><trkpt lat="44.280520935131236" lon="7.902085659972394"><ele>940.0</ele><time>2026-05-01T14:10:52Z</time></trkpt><trkpt lat="44.2806231545417" lon="7.902272851177876"><ele>946.0</ele><time>2026-05-01T14:10:53Z</time></trkpt><trkpt lat="44.28074059263379" lon="7.902469650815782"><ele>952.0</ele><time>2026-05-01T14:10:54Z</time></trkpt><trkpt lat="44.28086050072415" lon="7.902573107507544"><ele>949.5</ele><time>2026-05-01T14:10:55Z</time></trkpt><trkpt lat="44.28099309896448" lon="7.902636726963575"><ele>947.0</ele><time>2026-05-01T14:10:56Z</time></trkpt><trkpt lat="44.28113569031803" lon="7.902672452528378"><ele>944.5</ele><time>2026-05-01T14:10:57Z</time></trkpt><trkpt lat="44.28126613239396" lon="7.9027067815344365"><ele>942.0</ele><time>2026-05-01T14:10:58Z</time></trkpt><trkpt lat="44.28135793056699" lon="7.902781072339429"><ele>942.0</ele><time>2026-05-01T14:10:59Z</time></trkpt><trkpt lat="44.281412741886136" lon="7.902827163648271"><ele>942.0</ele><time>2026-05-01T14:11:00Z</time></trkpt><trkpt lat="44.28146875157385" lon="7.902883747728514"><ele>942.0</ele><time>2026-05-01T14:11:02Z</time></trkpt><trkpt lat="44.28152800254468" lon="7.902705286682064"><ele>942.0</ele><time>2026-05-01T14:11:05Z</time></trkpt><trkpt lat="44.28146918615961" lon="7.902535001097808"><ele>942.0</ele><time>2026-05-01T14:11:07Z</time></trkpt><trkpt lat="44.28140870682997" lon="7.902437640772525"><ele>944.5</ele><time>2026-05-01T14:11:08Z</time></trkpt><trkpt lat="44.28132644258759" lon="7.902323981103105"><ele>947.0</ele><time>2026-05-01T14:11:09Z</time></trkpt><trkpt lat="44.2812289866958" lon="7.902207858237151"><ele>949.5</ele><time>2026-05-01T14:11:10Z</time></trkpt><trkpt lat="44.28112814342647" lon="7.902076965907432"><ele>952.0</ele><time>2026-05-01T14:11:11Z</time></trkpt><trkpt lat="44.28103213366659" lon="7.901932726495268"><ele>952.0</ele><time>2026-05-01T14:11:12Z</time></trkpt><trkpt lat="44.28093545240186" lon="7.901782613818735"><ele>952.0</ele><time>2026-05-01T14:11:13Z</time></trkpt><trkpt lat="44.28083587841293" lon="7.901641521195791"><ele>952.0</ele><time>2026-05-01T14:11:14Z</time></trkpt><trkpt lat="44.28073915570122" lon="7.901515399157358"><ele>952.0</ele><time>2026-05-01T14:11:15Z</time></trkpt><trkpt lat="44.280648470643605" lon="7.901411403409537"><ele>951.75</ele><time>2026-05-01T14:11:16Z</time></trkpt><trkpt lat="44.2805578844835" lon="7.901323178438817"><ele>951.5</ele><time>2026-05-01T14:11:17Z</time></trkpt><trkpt lat="44.28045911897954" lon="7.901238965753269"><ele>951.25</ele><time>2026-05-01T14:11:18Z</time></trkpt><trkpt lat="44.280354650008334" lon="7.901162860517228"><ele>951.0</ele><time>2026-05-01T14:11:19Z</time></trkpt><trkpt lat="44.28024795612008" lon="7.901083584759788"><ele>951.0</ele><time>2026-05-01T14:11:20Z</time></trkpt><trkpt lat="44.2801450746767" lon="7.900995140025024"><ele>951.0</ele><time>2026-05-01T14:11:21Z</time></trkpt><trkpt lat="44.2800472841426" lon="7.900895302572503"><ele>951.0</ele><time>2026-05-01T14:11:22Z</time></trkpt><trkpt lat="44.27996840762125" lon="7.900755309289232"><ele>951.0</ele><time>2026-05-01T14:11:23Z</time></trkpt><trkpt lat="44.279895897624954" lon="7.900582396769876"><ele>953.0</ele><time>2026-05-01T14:11:24Z</time></trkpt><trkpt lat="44.27984860720476" lon="7.900378061348897"><ele>955.0</ele><time>2026-05-01T14:11:25Z</time></trkpt><trkpt lat="44.27976087618809" lon="7.9001534608262425"><ele>957.0</ele><time>2026-05-01T14:11:26Z</time></trkpt><trkpt lat="44.279664319618064" lon="7.899935757019303"><ele>961.6666666666667</ele><time>2026-05-01T14:11:27Z</time></trkpt><trkpt lat="44.279538941763185" lon="7.899783522522315"><ele>966.3333333333334</ele><time>2026-05-01T14:11:28Z</time></trkpt><trkpt lat="44.279378034964715" lon="7.899694248866356"><ele>971.0</ele><time>2026-05-01T14:11:29Z</time></trkpt><trkpt lat="44.27918281060193" lon="7.899645047336962"><ele>971.0</ele><time>2026-05-01T14:11:30Z</time></trkpt><trkpt lat="44.278979217365865" lon="7.899618151134849"><ele>971.0</ele><time>2026-05-01T14:11:31Z</time></trkpt><trkpt lat="44.278775382441786" lon="7.899569692197337"><ele>971.0</ele><time>2026-05-01T14:11:32Z</time></trkpt><trkpt lat="44.27859615137341" lon="7.899486193440905"><ele>970.0</ele><time>2026-05-01T14:11:33Z</time></trkpt><trkpt lat="44.278450862781185" lon="7.899341740918397"><ele>969.0</ele><time>2026-05-01T14:11:34Z</time></trkpt><trkpt lat="44.27830649007459" lon="7.899176294320135"><ele>968.0</ele><time>2026-05-01T14:11:35Z</time></trkpt><trkpt lat="44.27814804339516" lon="7.898983203786859"><ele>975.5</ele><time>2026-05-01T14:11:36Z</time></trkpt><trkpt lat="44.27797805842105" lon="7.898790168595516"><ele>983.0</ele><time>2026-05-01T14:11:37Z</time></trkpt><trkpt lat="44.27781023142952" lon="7.89856930028098"><ele>975.5</ele><time>2026-05-01T14:11:38Z</time></trkpt><trkpt lat="44.27762693908746" lon="7.8983433387938025"><ele>968.0</ele><time>2026-05-01T14:11:39Z</time></trkpt><trkpt lat="44.27744412810449" lon="7.898116015282811"><ele>976.5</ele><time>2026-05-01T14:11:40Z</time></trkpt><trkpt lat="44.277252673704055" lon="7.897876562888764"><ele>985.0</ele><time>2026-05-01T14:11:41Z</time></trkpt><trkpt lat="44.27705838332432" lon="7.897638159443096"><ele>977.0</ele><time>2026-05-01T14:11:42Z</time></trkpt><trkpt lat="44.27687012002413" lon="7.8974185147484794"><ele>969.0</ele><time>2026-05-01T14:11:43Z</time></trkpt><trkpt lat="44.27666460856332" lon="7.8972210658071225"><ele>969.0</ele><time>2026-05-01T14:11:44Z</time></trkpt><trkpt lat="44.27644500733751" lon="7.897061998910606"><ele>969.0</ele><time>2026-05-01T14:11:45Z</time></trkpt><trkpt lat="44.276205940527156" lon="7.896926018132667"><ele>969.5</ele><time>2026-05-01T14:11:46Z</time></trkpt><trkpt lat="44.27596099036305" lon="7.896811182292081"><ele>970.0</ele><time>2026-05-01T14:11:47Z</time></trkpt><trkpt lat="44.27571168813352" lon="7.896701825613084"><ele>978.0</ele><time>2026-05-01T14:11:48Z</time></trkpt><trkpt lat="44.275467129384836" lon="7.896591902140836"><ele>986.0</ele><time>2026-05-01T14:11:49Z</time></trkpt><trkpt lat="44.27524472793992" lon="7.896484307775907"><ele>986.0</ele><time>2026-05-01T14:11:50Z</time></trkpt><trkpt lat="44.275050471752934" lon="7.896363567502115"><ele>986.0</ele><time>2026-05-01T14:11:51Z</time></trkpt><trkpt lat="44.27484898766359" lon="7.896209919371593"><ele>986.0</ele><time>2026-05-01T14:11:52Z</time></trkpt><trkpt lat="44.27465527290426" lon="7.896026907929167"><ele>987.0</ele><time>2026-05-01T14:11:53Z</time></trkpt><trkpt lat="44.274458069208535" lon="7.895838702655059"><ele>988.0</ele><time>2026-05-01T14:11:54Z</time></trkpt><trkpt lat="44.274263626625455" lon="7.895656920734052"><ele>988.0</ele><time>2026-05-01T14:11:55Z</time></trkpt><trkpt lat="44.274068569997034" lon="7.895483340677328"><ele>988.0</ele><time>2026-05-01T14:11:56Z</time></trkpt><trkpt lat="44.27389260616817" lon="7.895337156913702"><ele>988.0</ele><time>2026-05-01T14:11:57Z</time></trkpt><trkpt lat="44.27374152384569" lon="7.895140291168828"><ele>990.0</ele><time>2026-05-01T14:11:58Z</time></trkpt><trkpt lat="44.27359058591013" lon="7.894942974241137"><ele>992.0</ele><time>2026-05-01T14:11:59Z</time></trkpt><trkpt lat="44.27342164911351" lon="7.8947501386671375"><ele>994.0</ele><time>2026-05-01T14:12:00Z</time></trkpt><trkpt lat="44.273268866357284" lon="7.894517065760823"><ele>994.0</ele><time>2026-05-01T14:12:01Z</time></trkpt><trkpt lat="44.27314131885949" lon="7.89429260127641"><ele>994.0</ele><time>2026-05-01T14:12:02Z</time></trkpt><trkpt lat="44.27306847517203" lon="7.894052126723603"><ele>994.0</ele><time>2026-05-01T14:12:03Z</time></trkpt><trkpt lat="44.27299468076362" lon="7.893836201366133"><ele>992.25</ele><time>2026-05-01T14:12:04Z</time></trkpt><trkpt lat="44.27297373398209" lon="7.89365083993022"><ele>990.5</ele><time>2026-05-01T14:12:05Z</time></trkpt><trkpt lat="44.272975576785726" lon="7.893491982375805"><ele>988.75</ele><time>2026-05-01T14:12:06Z</time></trkpt><trkpt lat="44.27306899097115" lon="7.893406301943797"><ele>987.0</ele><time>2026-05-01T14:12:07Z</time></trkpt><trkpt lat="44.27315754846317" lon="7.893341833000688"><ele>986.3333333333333</ele><time>2026-05-01T14:12:08Z</time></trkpt><trkpt lat="44.27329882478035" lon="7.893374669022811"><ele>985.6666666666666</ele><time>2026-05-01T14:12:09Z</time></trkpt><trkpt lat="44.27343928167852" lon="7.893509090194207"><ele>985.0</ele><time>2026-05-01T14:12:10Z</time></trkpt><trkpt lat="44.2736247852625" lon="7.893637924479612"><ele>982.3333333333333</ele><time>2026-05-01T14:12:11Z</time></trkpt><trkpt lat="44.27382750849047" lon="7.893710352021344"><ele>979.6666666666667</ele><time>2026-05-01T14:12:12Z</time></trkpt><trkpt lat="44.27404691149148" lon="7.893741045750645"><ele>977.0</ele><time>2026-05-01T14:12:13Z</time></trkpt><trkpt lat="44.274303955683656" lon="7.893713070069566"><ele>973.0</ele><time>2026-05-01T14:12:14Z</time></trkpt><trkpt lat="44.2745039289792" lon="7.893667730030537"><ele>969.0</ele><time>2026-05-01T14:12:15Z</time></trkpt><trkpt lat="44.274730179292575" lon="7.893705579900756"><ele>965.0</ele><time>2026-05-01T14:12:16Z</time></trkpt><trkpt lat="44.27495013660024" lon="7.893757398954129"><ele>964.3333333333334</ele><time>2026-05-01T14:12:17Z</time></trkpt><trkpt lat="44.27515356537959" lon="7.8937864592869"><ele>963.6666666666667</ele><time>2026-05-01T14:12:18Z</time></trkpt><trkpt lat="44.275355074411024" lon="7.89379743990766"><ele>963.0</ele><time>2026-05-01T14:12:19Z</time></trkpt><trkpt lat="44.275550133442486" lon="7.893739939538906"><ele>960.6666666666667</ele><time>2026-05-01T14:12:20Z</time></trkpt><trkpt lat="44.27574299786474" lon="7.893627885807723"><ele>958.3333333333334</ele><time>2026-05-01T14:12:21Z</time></trkpt><trkpt lat="44.27593401045187" lon="7.893464006084085"><ele>956.0</ele><time>2026-05-01T14:12:22Z</time></trkpt><trkpt lat="44.27612746103752" lon="7.893300099569337"><ele>963.0</ele><time>2026-05-01T14:12:23Z</time></trkpt><trkpt lat="44.27634124088036" lon="7.893143432902529"><ele>970.0</ele><time>2026-05-01T14:12:24Z</time></trkpt><trkpt lat="44.276583687726905" lon="7.893052286721011"><ele>970.0</ele><time>2026-05-01T14:12:25Z</time></trkpt><trkpt lat="44.27685472687139" lon="7.892968620517158"><ele>970.0</ele><time>2026-05-01T14:12:26Z</time></trkpt><trkpt lat="44.277098480595406" lon="7.892903937791472"><ele>966.5</ele><time>2026-05-01T14:12:27Z</time></trkpt><trkpt lat="44.277371572246146" lon="7.892815510937756"><ele>963.0</ele><time>2026-05-01T14:12:28Z</time></trkpt><trkpt lat="44.277637153588174" lon="7.892743026355203"><ele>963.0</ele><time>2026-05-01T14:12:29Z</time></trkpt><trkpt lat="44.277897418125974" lon="7.892679911353138"><ele>963.0</ele><time>2026-05-01T14:12:30Z</time></trkpt><trkpt lat="44.27812070497121" lon="7.892623208927669"><ele>966.6666666666667</ele><time>2026-05-01T14:12:31Z</time></trkpt><trkpt lat="44.27829798967021" lon="7.892533154822873"><ele>970.3333333333334</ele><time>2026-05-01T14:12:32Z</time></trkpt><trkpt lat="44.27850308838199" lon="7.892372172062468"><ele>974.0</ele><time>2026-05-01T14:12:33Z</time></trkpt><trkpt lat="44.278715764296344" lon="7.892165608769386"><ele>974.0</ele><time>2026-05-01T14:12:34Z</time></trkpt><trkpt lat="44.27891750368998" lon="7.891949974309747"><ele>974.0</ele><time>2026-05-01T14:12:35Z</time></trkpt><trkpt lat="44.27913894017708" lon="7.891742346071972"><ele>976.5</ele><time>2026-05-01T14:12:36Z</time></trkpt><trkpt lat="44.279345569756636" lon="7.891567820797551"><ele>979.0</ele><time>2026-05-01T14:12:37Z</time></trkpt><trkpt lat="44.27957310927714" lon="7.891426207978226"><ele>975.6666666666666</ele><time>2026-05-01T14:12:38Z</time></trkpt><trkpt lat="44.279774066784675" lon="7.891322854368859"><ele>972.3333333333333</ele><time>2026-05-01T14:12:39Z</time></trkpt><trkpt lat="44.27993414248588" lon="7.891225875159694"><ele>969.0</ele><time>2026-05-01T14:12:40Z</time></trkpt><trkpt lat="44.28003839066384" lon="7.89109341343352"><ele>974.3333333333333</ele><time>2026-05-01T14:12:41Z</time></trkpt><trkpt lat="44.280133740356426" lon="7.890884202341648"><ele>979.6666666666666</ele><time>2026-05-01T14:12:42Z</time></trkpt><trkpt lat="44.28018369001371" lon="7.890617588226756"><ele>985.0</ele><time>2026-05-01T14:12:43Z</time></trkpt><trkpt lat="44.28019998382211" lon="7.89032701579518"><ele>987.3333333333333</ele><time>2026-05-01T14:12:44Z</time></trkpt><trkpt lat="44.28017753938383" lon="7.890082363745378"><ele>989.6666666666667</ele><time>2026-05-01T14:12:45Z</time></trkpt><trkpt lat="44.28016951908497" lon="7.889863725694007"><ele>992.0</ele><time>2026-05-01T14:12:46Z</time></trkpt><trkpt lat="44.280150889498934" lon="7.8893558729805555"><ele>993.0</ele><time>2026-05-01T14:12:47Z</time></trkpt><trkpt lat="44.28014415938032" lon="7.88902555785232"><ele>994.0</ele><time>2026-05-01T14:12:48Z</time></trkpt><trkpt lat="44.28013332018379" lon="7.88870465248877"><ele>995.3333333333333</ele><time>2026-05-01T14:12:49Z</time></trkpt><trkpt lat="44.280155127853305" lon="7.88840481624878"><ele>996.6666666666667</ele><time>2026-05-01T14:12:50Z</time></trkpt><trkpt lat="44.28023531432678" lon="7.888170243506265"><ele>998.0</ele><time>2026-05-01T14:12:51Z</time></trkpt><trkpt lat="44.2803414363114" lon="7.888004200912141"><ele>998.0</ele><time>2026-05-01T14:12:52Z</time></trkpt><trkpt lat="44.28048762105223" lon="7.8878473879590905"><ele>998.0</ele><time>2026-05-01T14:12:53Z</time></trkpt><trkpt lat="44.28064292359291" lon="7.8876861866335695"><ele>998.0</ele><time>2026-05-01T14:12:54Z</time></trkpt><trkpt lat="44.28080745100654" lon="7.887529311802841"><ele>998.3333333333334</ele><time>2026-05-01T14:12:55Z</time></trkpt><trkpt lat="44.28098627374546" lon="7.8873735716694675"><ele>998.6666666666667</ele><time>2026-05-01T14:12:56Z</time></trkpt><trkpt lat="44.281152004939855" lon="7.887180492728417"><ele>999.0</ele><time>2026-05-01T14:12:57Z</time></trkpt><trkpt lat="44.2813205605752" lon="7.886985128280377"><ele>999.5</ele><time>2026-05-01T14:12:58Z</time></trkpt><trkpt lat="44.281462007807086" lon="7.886741362183153"><ele>1000.0</ele><time>2026-05-01T14:12:59Z</time></trkpt><trkpt lat="44.28157879135413" lon="7.8864622934034845"><ele>1000.0</ele><time>2026-05-01T14:13:00Z</time></trkpt><trkpt lat="44.28168442176454" lon="7.886170828166534"><ele>1000.0</ele><time>2026-05-01T14:13:01Z</time></trkpt><trkpt lat="44.28178771832002" lon="7.8859085692665625"><ele>1000.0</ele><time>2026-05-01T14:13:02Z</time></trkpt><trkpt lat="44.281930291767345" lon="7.885739507014624"><ele>1003.3333333333333</ele><time>2026-05-01T14:13:03Z</time></trkpt><trkpt lat="44.282095355512794" lon="7.885595227269023"><ele>1006.6666666666667</ele><time>2026-05-01T14:13:04Z</time></trkpt><trkpt lat="44.28227979860423" lon="7.885447185834152"><ele>1010.0</ele><time>2026-05-01T14:13:05Z</time></trkpt><trkpt lat="44.282462728860175" lon="7.885300359585348"><ele>1010.0</ele><time>2026-05-01T14:13:06Z</time></trkpt><trkpt lat="44.282638032261474" lon="7.885159654919378"><ele>1010.0</ele><time>2026-05-01T14:13:07Z</time></trkpt><trkpt lat="44.28280242517587" lon="7.885020647691619"><ele>1010.0</ele><time>2026-05-01T14:13:08Z</time></trkpt><trkpt lat="44.28286638683147" lon="7.884634134618268"><ele>1016.0</ele><time>2026-05-01T14:13:09Z</time></trkpt><trkpt lat="44.28296862633755" lon="7.884346700095711"><ele>1022.0</ele><time>2026-05-01T14:13:10Z</time></trkpt><trkpt lat="44.28307695773141" lon="7.8840647530793495"><ele>1019.0</ele><time>2026-05-01T14:13:11Z</time></trkpt><trkpt lat="44.283192404612564" lon="7.883780986860576"><ele>1016.0</ele><time>2026-05-01T14:13:12Z</time></trkpt><trkpt lat="44.28330757162413" lon="7.883508466936638"><ele>1024.5</ele><time>2026-05-01T14:13:13Z</time></trkpt><trkpt lat="44.28342330559517" lon="7.883225543349096"><ele>1033.0</ele><time>2026-05-01T14:13:14Z</time></trkpt><trkpt lat="44.28355667760504" lon="7.882981560403057"><ele>1033.0</ele><time>2026-05-01T14:13:15Z</time></trkpt><trkpt lat="44.28371832973114" lon="7.8827757108481915"><ele>1033.0</ele><time>2026-05-01T14:13:16Z</time></trkpt><trkpt lat="44.28390620398856" lon="7.882619845792798"><ele>1033.0</ele><time>2026-05-01T14:13:17Z</time></trkpt><trkpt lat="44.284129593556216" lon="7.882495211740211"><ele>1034.5</ele><time>2026-05-01T14:13:18Z</time></trkpt><trkpt lat="44.28436401792476" lon="7.88242141946304"><ele>1036.0</ele><time>2026-05-01T14:13:19Z</time></trkpt><trkpt lat="44.28460308731747" lon="7.88239778030639"><ele>1036.6666666666665</ele><time>2026-05-01T14:13:20Z</time></trkpt><trkpt lat="44.2848351976647" lon="7.8824121317732985"><ele>1037.3333333333333</ele><time>2026-05-01T14:13:21Z</time></trkpt><trkpt lat="44.28504113331723" lon="7.882424869943383"><ele>1038.0</ele><time>2026-05-01T14:13:22Z</time></trkpt><trkpt lat="44.285234295259826" lon="7.88242785888138"><ele>1038.0</ele><time>2026-05-01T14:13:23Z</time></trkpt><trkpt lat="44.285399530527634" lon="7.882430144845473"><ele>1038.0</ele><time>2026-05-01T14:13:24Z</time></trkpt><trkpt lat="44.2855386017241" lon="7.882423399859651"><ele>1038.0</ele><time>2026-05-01T14:13:25Z</time></trkpt><trkpt lat="44.28563860332356" lon="7.882400101377148"><ele>1038.0</ele><time>2026-05-01T14:13:26Z</time></trkpt><trkpt lat="44.28572382239741" lon="7.882350914807751"><ele>1038.5</ele><time>2026-05-01T14:13:27Z</time></trkpt><trkpt lat="44.285793341300284" lon="7.882269750544384"><ele>1039.0</ele><time>2026-05-01T14:13:28Z</time></trkpt><trkpt lat="44.285860611651536" lon="7.882164096323719"><ele>1039.5</ele><time>2026-05-01T14:13:29Z</time></trkpt><trkpt lat="44.28593448279961" lon="7.882040613208177"><ele>1040.0</ele><time>2026-05-01T14:13:30Z</time></trkpt><trkpt lat="44.2860193314066" lon="7.8818766027512375"><ele>1044.3333333333335</ele><time>2026-05-01T14:13:31Z</time></trkpt><trkpt lat="44.28609148592748" lon="7.881671762790086"><ele>1048.6666666666667</ele><time>2026-05-01T14:13:32Z</time></trkpt><trkpt lat="44.286167370053114" lon="7.8814288184990415"><ele>1053.0</ele><time>2026-05-01T14:13:33Z</time></trkpt><trkpt lat="44.286254366897246" lon="7.881181722664257"><ele>1053.0</ele><time>2026-05-01T14:13:34Z</time></trkpt><trkpt lat="44.28636202100276" lon="7.880964446178054"><ele>1053.0</ele><time>2026-05-01T14:13:35Z</time></trkpt><trkpt lat="44.28649712393849" lon="7.88075756344688"><ele>1053.0</ele><time>2026-05-01T14:13:36Z</time></trkpt><trkpt lat="44.28657927819926" lon="7.880566002804871"><ele>1050.0</ele><time>2026-05-01T14:13:37Z</time></trkpt><trkpt lat="44.28666618940559" lon="7.88037901519926"><ele>1047.0</ele><time>2026-05-01T14:13:38Z</time></trkpt><trkpt lat="44.28680121505478" lon="7.880189984038487"><ele>1044.0</ele><time>2026-05-01T14:13:39Z</time></trkpt><trkpt lat="44.2869015585167" lon="7.880006270209263"><ele>1044.0</ele><time>2026-05-01T14:13:40Z</time></trkpt><trkpt lat="44.28696198407804" lon="7.8798263972146305"><ele>1044.0</ele><time>2026-05-01T14:13:41Z</time></trkpt><trkpt lat="44.28694131635384" lon="7.879639273005216"><ele>1044.0</ele><time>2026-05-01T14:13:42Z</time></trkpt><trkpt lat="44.286815941795524" lon="7.8794277404352195"><ele>1042.0</ele><time>2026-05-01T14:13:43Z</time></trkpt><trkpt lat="44.28672497482818" lon="7.879209268124872"><ele>1040.0</ele><time>2026-05-01T14:13:44Z</time></trkpt><trkpt lat="44.28666291614555" lon="7.87900274552992"><ele>1038.0</ele><time>2026-05-01T14:13:45Z</time></trkpt><trkpt lat="44.28660682535614" lon="7.878827699341041"><ele>1038.0</ele><time>2026-05-01T14:13:46Z</time></trkpt><trkpt lat="44.286713935512765" lon="7.878656085257546"><ele>1038.0</ele><time>2026-05-01T14:13:47Z</time></trkpt><trkpt lat="44.286800568736496" lon="7.878532640801014"><ele>1038.0</ele><time>2026-05-01T14:13:48Z</time></trkpt><trkpt lat="44.28691693429378" lon="7.87846646181353"><ele>1038.0</ele><time>2026-05-01T14:13:49Z</time></trkpt><trkpt lat="44.2870533158663" lon="7.878451903078984"><ele>1038.0</ele><time>2026-05-01T14:13:50Z</time></trkpt><trkpt lat="44.28720047033971" lon="7.878459788003119"><ele>1038.0</ele><time>2026-05-01T14:13:51Z</time></trkpt><trkpt lat="44.28731663889466" lon="7.878442580194603"><ele>1038.0</ele><time>2026-05-01T14:13:52Z</time></trkpt><trkpt lat="44.28740944152719" lon="7.878388423185784"><ele>1038.0</ele><time>2026-05-01T14:13:53Z</time></trkpt><trkpt lat="44.28748792518464" lon="7.878334468492236"><ele>1036.6666666666667</ele><time>2026-05-01T14:13:54Z</time></trkpt><trkpt lat="44.28755709818758" lon="7.878267447379841"><ele>1035.3333333333333</ele><time>2026-05-01T14:13:55Z</time></trkpt><trkpt lat="44.28761418408229" lon="7.8781926925151415"><ele>1034.0</ele><time>2026-05-01T14:13:56Z</time></trkpt><trkpt lat="44.287666948465116" lon="7.8780988274188"><ele>1032.6666666666665</ele><time>2026-05-01T14:13:57Z</time></trkpt><trkpt lat="44.28772560421361" lon="7.878002135567405"><ele>1031.3333333333333</ele><time>2026-05-01T14:13:58Z</time></trkpt><trkpt lat="44.28779103239716" lon="7.87790227776359"><ele>1030.0</ele><time>2026-05-01T14:13:59Z</time></trkpt><trkpt lat="44.287871421759725" lon="7.877822575921214"><ele>1030.0</ele><time>2026-05-01T14:14:00Z</time></trkpt><trkpt lat="44.287971607979955" lon="7.877774178783371"><ele>1030.0</ele><time>2026-05-01T14:14:01Z</time></trkpt><trkpt lat="44.28805431265497" lon="7.877744257325303"><ele>1030.0</ele><time>2026-05-01T14:14:02Z</time></trkpt><trkpt lat="44.2881302380817" lon="7.87769495955386"><ele>1030.0</ele><time>2026-05-01T14:14:03Z</time></trkpt><trkpt lat="44.28819962371457" lon="7.8776026428565755"><ele>1030.0</ele><time>2026-05-01T14:14:04Z</time></trkpt><trkpt lat="44.28825539102338" lon="7.877465149635666"><ele>1028.6</ele><time>2026-05-01T14:14:05Z</time></trkpt><trkpt lat="44.288304447464796" lon="7.877313754452633"><ele>1027.2</ele><time>2026-05-01T14:14:06Z</time></trkpt><trkpt lat="44.28835433055809" lon="7.877176747031523"><ele>1025.8</ele><time>2026-05-01T14:14:07Z</time></trkpt><trkpt lat="44.28841346316553" lon="7.877069146682498"><ele>1024.4</ele><time>2026-05-01T14:14:08Z</time></trkpt><trkpt lat="44.288499618264964" lon="7.876997024182249"><ele>1023.0</ele><time>2026-05-01T14:14:09Z</time></trkpt><trkpt lat="44.28861162404121" lon="7.876950675057358"><ele>1023.0</ele><time>2026-05-01T14:14:10Z</time></trkpt><trkpt lat="44.28872690480069" lon="7.876916111190193"><ele>1023.0</ele><time>2026-05-01T14:14:11Z</time></trkpt><trkpt lat="44.28882566677746" lon="7.87687823033912"><ele>1023.0</ele><time>2026-05-01T14:14:12Z</time></trkpt><trkpt lat="44.28891733430993" lon="7.876831842002166"><ele>1023.0</ele><time>2026-05-01T14:14:13Z</time></trkpt><trkpt lat="44.28900538829028" lon="7.8767757059387105"><ele>1023.0</ele><time>2026-05-01T14:14:14Z</time></trkpt><trkpt lat="44.28910137642873" lon="7.876703788582942"><ele>1022.25</ele><time>2026-05-01T14:14:15Z</time></trkpt><trkpt lat="44.28920521379995" lon="7.876605152145575"><ele>1021.5</ele><time>2026-05-01T14:14:16Z</time></trkpt><trkpt lat="44.28931448417067" lon="7.876477917938082"><ele>1020.75</ele><time>2026-05-01T14:14:17Z</time></trkpt><trkpt lat="44.28942317411012" lon="7.87631910784518"><ele>1020.0</ele><time>2026-05-01T14:14:18Z</time></trkpt><trkpt lat="44.28952802521729" lon="7.87619111192622"><ele>1020.0</ele><time>2026-05-01T14:14:19Z</time></trkpt><trkpt lat="44.28962003014189" lon="7.876092463125062"><ele>1020.0</ele><time>2026-05-01T14:14:20Z</time></trkpt><trkpt lat="44.28969544148223" lon="7.876038832380704"><ele>1020.0</ele><time>2026-05-01T14:14:21Z</time></trkpt><trkpt lat="44.28976710248337" lon="7.876003673684575"><ele>1020.0</ele><time>2026-05-01T14:14:22Z</time></trkpt><trkpt lat="44.28985519488489" lon="7.875969976731535"><ele>1020.0</ele><time>2026-05-01T14:14:24Z</time></trkpt><trkpt lat="44.28993421409089" lon="7.87593933855776"><ele>1016.4</ele><time>2026-05-01T14:14:28Z</time></trkpt><trkpt lat="44.29002391659327" lon="7.875953722478833"><ele>1012.8</ele><time>2026-05-01T14:14:30Z</time></trkpt><trkpt lat="44.29012079536502" lon="7.875952974589057"><ele>1009.2</ele><time>2026-05-01T14:14:32Z</time></trkpt><trkpt lat="44.29022247242868" lon="7.875959131671697"><ele>1005.6</ele><time>2026-05-01T14:14:34Z</time></trkpt><trkpt lat="44.29032848262864" lon="7.875969508891674"><ele>1002.0</ele><time>2026-05-01T14:14:36Z</time></trkpt><trkpt lat="44.290392642811554" lon="7.87595772095387"><ele>1002.0</ele><time>2026-05-01T14:14:37Z</time></trkpt><trkpt lat="44.290455498594895" lon="7.875983891641897"><ele>1002.0</ele><time>2026-05-01T14:14:38Z</time></trkpt><trkpt lat="44.290505580203195" lon="7.87603730758828"><ele>1002.0</ele><time>2026-05-01T14:14:39Z</time></trkpt><trkpt lat="44.29063143031708" lon="7.876080331337354"><ele>1002.0</ele><time>2026-05-01T14:14:41Z</time></trkpt><trkpt lat="44.290704357581646" lon="7.876085868091856"><ele>1002.0</ele><time>2026-05-01T14:14:42Z</time></trkpt><trkpt lat="44.29076767200853" lon="7.87606802369721"><ele>1002.0</ele><time>2026-05-01T14:14:43Z</time></trkpt><trkpt lat="44.29084583057926" lon="7.876079923458021"><ele>1001.6</ele><time>2026-05-01T14:14:44Z</time></trkpt><trkpt lat="44.29098240949331" lon="7.876100883912579"><ele>1001.2</ele><time>2026-05-01T14:14:46Z</time></trkpt><trkpt lat="44.29107011992242" lon="7.876110263332548"><ele>1000.8</ele><time>2026-05-01T14:14:47Z</time></trkpt><trkpt lat="44.29116712975378" lon="7.876108090988774"><ele>1000.4</ele><time>2026-05-01T14:14:48Z</time></trkpt><trkpt lat="44.29126233434092" lon="7.8760910597881315"><ele>1000.0</ele><time>2026-05-01T14:14:49Z</time></trkpt><trkpt lat="44.29134966773528" lon="7.876071217435278"><ele>999.6</ele><time>2026-05-01T14:14:50Z</time></trkpt><trkpt lat="44.29142824878808" lon="7.87606477063756"><ele>999.2</ele><time>2026-05-01T14:14:51Z</time></trkpt><trkpt lat="44.29150798186246" lon="7.876078976149712"><ele>998.8</ele><time>2026-05-01T14:14:52Z</time></trkpt><trkpt lat="44.29160617180085" lon="7.876125387690676"><ele>998.4</ele><time>2026-05-01T14:14:53Z</time></trkpt><trkpt lat="44.29171141231167" lon="7.876199879744138"><ele>998.0</ele><time>2026-05-01T14:14:54Z</time></trkpt><trkpt lat="44.2918123148281" lon="7.876292131453352"><ele>998.0</ele><time>2026-05-01T14:14:55Z</time></trkpt><trkpt lat="44.29191396968224" lon="7.876382928201044"><ele>998.0</ele><time>2026-05-01T14:14:56Z</time></trkpt><trkpt lat="44.29198331496556" lon="7.8764907807186955"><ele>998.0</ele><time>2026-05-01T14:14:57Z</time></trkpt><trkpt lat="44.29210781315577" lon="7.876467941752443"><ele>998.0</ele><time>2026-05-01T14:14:58Z</time></trkpt><trkpt lat="44.292196519042406" lon="7.876477655134342"><ele>998.0</ele><time>2026-05-01T14:14:59Z</time></trkpt><trkpt lat="44.292280119621346" lon="7.8764851701733365"><ele>999.3333333333334</ele><time>2026-05-01T14:15:00Z</time></trkpt><trkpt lat="44.29236226734293" lon="7.876486311700115"><ele>1000.6666666666667</ele><time>2026-05-01T14:15:01Z</time></trkpt><trkpt lat="44.29244088093087" lon="7.876468838872095"><ele>1002.0</ele><time>2026-05-01T14:15:02Z</time></trkpt><trkpt lat="44.29252225108822" lon="7.876429350359863"><ele>1003.3333333333333</ele><time>2026-05-01T14:15:03Z</time></trkpt><trkpt lat="44.292595611053834" lon="7.876361045701224"><ele>1004.6666666666666</ele><time>2026-05-01T14:15:04Z</time></trkpt><trkpt lat="44.29267219591422" lon="7.876301196170233"><ele>1006.0</ele><time>2026-05-01T14:15:05Z</time></trkpt><trkpt lat="44.29274239384856" lon="7.8762319875491915"><ele>1005.9999999999999</ele><time>2026-05-01T14:15:06Z</time></trkpt><trkpt lat="44.29281380267954" lon="7.876162689248531"><ele>1006.0</ele><time>2026-05-01T14:15:07Z</time></trkpt><trkpt lat="44.292876835070494" lon="7.876097565617885"><ele>1006.0</ele><time>2026-05-01T14:15:08Z</time></trkpt><trkpt lat="44.29293932545738" lon="7.876048082537492"><ele>1006.0</ele><time>2026-05-01T14:15:09Z</time></trkpt><trkpt lat="44.29300848192897" lon="7.875998418770468"><ele>1005.9999999999999</ele><time>2026-05-01T14:15:10Z</time></trkpt><trkpt lat="44.29307880521901" lon="7.875944234046724"><ele>1006.0</ele><time>2026-05-01T14:15:11Z</time></trkpt><trkpt lat="44.29315471854253" lon="7.875883047250197"><ele>1005.4999999999999</ele><time>2026-05-01T14:15:12Z</time></trkpt><trkpt lat="44.29323434228911" lon="7.8758214314680846"><ele>1005.0</ele><time>2026-05-01T14:15:13Z</time></trkpt><trkpt lat="44.293318810230524" lon="7.875765340336941"><ele>1004.5</ele><time>2026-05-01T14:15:14Z</time></trkpt><trkpt lat="44.293397234589314" lon="7.875709163165784"><ele>1004.0</ele><time>2026-05-01T14:15:15Z</time></trkpt><trkpt lat="44.293470120524255" lon="7.875657446732016"><ele>1003.4999999999999</ele><time>2026-05-01T14:15:16Z</time></trkpt><trkpt lat="44.293539564899596" lon="7.875602863482961"><ele>1003.0</ele><time>2026-05-01T14:15:17Z</time></trkpt><trkpt lat="44.293612119741724" lon="7.875546219313363"><ele>1003.0</ele><time>2026-05-01T14:15:18Z</time></trkpt><trkpt lat="44.293691407830636" lon="7.875491326298895"><ele>1003.0</ele><time>2026-05-01T14:15:19Z</time></trkpt><trkpt lat="44.29376826902146" lon="7.875435215733318"><ele>1003.0</ele><time>2026-05-01T14:15:20Z</time></trkpt><trkpt lat="44.293850702573394" lon="7.87537470838009"><ele>1003.0</ele><time>2026-05-01T14:15:21Z</time></trkpt><trkpt lat="44.293949399467394" lon="7.875305041718693"><ele>1003.0</ele><time>2026-05-01T14:15:22Z</time></trkpt><trkpt lat="44.29405878732681" lon="7.875221903167836"><ele>1002.5999999999999</ele><time>2026-05-01T14:15:23Z</time></trkpt><trkpt lat="44.294160208432956" lon="7.875147790398948"><ele>1002.1999999999999</ele><time>2026-05-01T14:15:24Z</time></trkpt><trkpt lat="44.294237675626626" lon="7.8750893688901344"><ele>1001.8</ele><time>2026-05-01T14:15:25Z</time></trkpt><trkpt lat="44.294292609435566" lon="7.8750369094384425"><ele>1001.4</ele><time>2026-05-01T14:15:26Z</time></trkpt><trkpt lat="44.29440295989158" lon="7.874963222141407"><ele>1001.0</ele><time>2026-05-01T14:15:28Z</time></trkpt><trkpt lat="44.29450318012178" lon="7.874898028049242"><ele>1000.8</ele><time>2026-05-01T14:15:30Z</time></trkpt><trkpt lat="44.29456356950731" lon="7.874845236029877"><ele>1000.5999999999999</ele><time>2026-05-01T14:15:31Z</time></trkpt><trkpt lat="44.29464309176072" lon="7.874764263443578"><ele>1000.4</ele><time>2026-05-01T14:15:32Z</time></trkpt><trkpt lat="44.29473222283362" lon="7.874662074635576"><ele>1000.2</ele><time>2026-05-01T14:15:33Z</time></trkpt><trkpt lat="44.2948327746446" lon="7.874541729982394"><ele>1000.0</ele><time>2026-05-01T14:15:34Z</time></trkpt><trkpt lat="44.29494202777863" lon="7.87440253286031"><ele>999.0</ele><time>2026-05-01T14:15:35Z</time></trkpt><trkpt lat="44.29505154123615" lon="7.874257795629694"><ele>998.0</ele><time>2026-05-01T14:15:36Z</time></trkpt><trkpt lat="44.29515872702821" lon="7.874118541428044"><ele>997.0</ele><time>2026-05-01T14:15:37Z</time></trkpt><trkpt lat="44.29527103667353" lon="7.873975320570026"><ele>996.0</ele><time>2026-05-01T14:15:38Z</time></trkpt><trkpt lat="44.295386542368206" lon="7.873831697722406"><ele>996.0</ele><time>2026-05-01T14:15:39Z</time></trkpt><trkpt lat="44.29549833309355" lon="7.87368487865698"><ele>996.0</ele><time>2026-05-01T14:15:40Z</time></trkpt><trkpt lat="44.29560982143801" lon="7.873534232558965"><ele>996.0</ele><time>2026-05-01T14:15:41Z</time></trkpt><trkpt lat="44.29570459180636" lon="7.8734021110376275"><ele>996.0</ele><time>2026-05-01T14:15:42Z</time></trkpt><trkpt lat="44.29579302454565" lon="7.873273083504306"><ele>995.0</ele><time>2026-05-01T14:15:43Z</time></trkpt><trkpt lat="44.295874294359244" lon="7.873155260665563"><ele>994.0</ele><time>2026-05-01T14:15:44Z</time></trkpt><trkpt lat="44.29595770002532" lon="7.873021317507901"><ele>993.0</ele><time>2026-05-01T14:15:45Z</time></trkpt><trkpt lat="44.29604629232294" lon="7.872883936907015"><ele>992.0</ele><time>2026-05-01T14:15:46Z</time></trkpt><trkpt lat="44.296146284639235" lon="7.872769743503578"><ele>992.0</ele><time>2026-05-01T14:15:47Z</time></trkpt><trkpt lat="44.29623540740874" lon="7.8726478185891775"><ele>992.0</ele><time>2026-05-01T14:15:48Z</time></trkpt><trkpt lat="44.29632466589698" lon="7.872525708028156"><ele>992.0</ele><time>2026-05-01T14:15:49Z</time></trkpt><trkpt lat="44.296402920643715" lon="7.872391185336921"><ele>992.0</ele><time>2026-05-01T14:15:50Z</time></trkpt><trkpt lat="44.296498014009074" lon="7.872267628599032"><ele>990.5</ele><time>2026-05-01T14:15:51Z</time></trkpt><trkpt lat="44.29659002938998" lon="7.872140349048045"><ele>989.0</ele><time>2026-05-01T14:15:52Z</time></trkpt><trkpt lat="44.29665562442407" lon="7.871980105687213"><ele>987.5</ele><time>2026-05-01T14:15:53Z</time></trkpt><trkpt lat="44.29668682745733" lon="7.871770015656482"><ele>986.0</ele><time>2026-05-01T14:15:54Z</time></trkpt><trkpt lat="44.29668752011863" lon="7.87153335335143"><ele>984.5</ele><time>2026-05-01T14:15:55Z</time></trkpt><trkpt lat="44.29669981387297" lon="7.871327126810863"><ele>983.0</ele><time>2026-05-01T14:15:56Z</time></trkpt><trkpt lat="44.296741733635834" lon="7.871150678648743"><ele>981.5</ele><time>2026-05-01T14:15:57Z</time></trkpt><trkpt lat="44.29681310139817" lon="7.871016169342495"><ele>980.0</ele><time>2026-05-01T14:15:58Z</time></trkpt><trkpt lat="44.29692300701903" lon="7.870951104779667"><ele>978.5</ele><time>2026-05-01T14:15:59Z</time></trkpt><trkpt lat="44.29703767333071" lon="7.870861238085831"><ele>977.0</ele><time>2026-05-01T14:16:00Z</time></trkpt><trkpt lat="44.29716358693615" lon="7.870740408863016"><ele>975.5</ele><time>2026-05-01T14:16:01Z</time></trkpt><trkpt lat="44.2972931406382" lon="7.870600566127091"><ele>974.0</ele><time>2026-05-01T14:16:02Z</time></trkpt><trkpt lat="44.29741261980931" lon="7.870436371200901"><ele>974.0</ele><time>2026-05-01T14:16:03Z</time></trkpt><trkpt lat="44.297533657825305" lon="7.870275356366135"><ele>974.0</ele><time>2026-05-01T14:16:04Z</time></trkpt><trkpt lat="44.29764681111096" lon="7.870120439423659"><ele>974.0</ele><time>2026-05-01T14:16:05Z</time></trkpt><trkpt lat="44.297747927717246" lon="7.8699633173082955"><ele>971.0</ele><time>2026-05-01T14:16:06Z</time></trkpt><trkpt lat="44.297892031587104" lon="7.8695939570735085"><ele>968.0</ele><time>2026-05-01T14:16:08Z</time></trkpt><trkpt lat="44.29793629913853" lon="7.869374608138988"><ele>965.0</ele><time>2026-05-01T14:16:09Z</time></trkpt><trkpt lat="44.29798047935631" lon="7.8691375630173015"><ele>962.0</ele><time>2026-05-01T14:16:10Z</time></trkpt><trkpt lat="44.298014710853586" lon="7.8688912320644215"><ele>959.0</ele><time>2026-05-01T14:16:11Z</time></trkpt><trkpt lat="44.298041340603845" lon="7.868634426828917"><ele>960.6666666666667</ele><time>2026-05-01T14:16:12Z</time></trkpt><trkpt lat="44.298081975894064" lon="7.868392740583017"><ele>962.3333333333333</ele><time>2026-05-01T14:16:13Z</time></trkpt><trkpt lat="44.29811491037879" lon="7.868142783453962"><ele>964.0</ele><time>2026-05-01T14:16:14Z</time></trkpt><trkpt lat="44.29813520930109" lon="7.867897700435019"><ele>964.0</ele><time>2026-05-01T14:16:15Z</time></trkpt><trkpt lat="44.29813979170788" lon="7.867653841610337"><ele>964.0</ele><time>2026-05-01T14:16:16Z</time></trkpt><trkpt lat="44.29814088630978" lon="7.867436365659638"><ele>964.0</ele><time>2026-05-01T14:16:17Z</time></trkpt><trkpt lat="44.29815035594758" lon="7.867227763646035"><ele>962.3333333333333</ele><time>2026-05-01T14:16:18Z</time></trkpt><trkpt lat="44.29817716752181" lon="7.867021399553718"><ele>960.6666666666667</ele><time>2026-05-01T14:16:19Z</time></trkpt><trkpt lat="44.29820375390611" lon="7.866813015906088"><ele>959.0</ele><time>2026-05-01T14:16:20Z</time></trkpt><trkpt lat="44.298195208890384" lon="7.866598255918476"><ele>957.3333333333334</ele><time>2026-05-01T14:16:21Z</time></trkpt><trkpt lat="44.29815066016448" lon="7.866373742998197"><ele>955.6666666666667</ele><time>2026-05-01T14:16:22Z</time></trkpt><trkpt lat="44.298114272000795" lon="7.866166226207107"><ele>954.0</ele><time>2026-05-01T14:16:23Z</time></trkpt><trkpt lat="44.29808590695953" lon="7.86597268594299"><ele>949.8000000000001</ele><time>2026-05-01T14:16:24Z</time></trkpt><trkpt lat="44.298053988362604" lon="7.865800335756348"><ele>945.6000000000001</ele><time>2026-05-01T14:16:25Z</time></trkpt><trkpt lat="44.298017695964845" lon="7.865668931102126"><ele>941.4</ele><time>2026-05-01T14:16:26Z</time></trkpt><trkpt lat="44.29798734148342" lon="7.865588965850349"><ele>937.2</ele><time>2026-05-01T14:16:27Z</time></trkpt><trkpt lat="44.297944205275826" lon="7.865498658268058"><ele>933.0</ele><time>2026-05-01T14:16:29Z</time></trkpt><trkpt lat="44.297940035793616" lon="7.865375561301131"><ele>933.0</ele><time>2026-05-01T14:16:31Z</time></trkpt><trkpt lat="44.29795881281573" lon="7.865290550859618"><ele>933.0</ele><time>2026-05-01T14:16:32Z</time></trkpt><trkpt lat="44.29798401961087" lon="7.865177668582964"><ele>933.0</ele><time>2026-05-01T14:16:33Z</time></trkpt><trkpt lat="44.29801526159878" lon="7.8650199270189445"><ele>933.0</ele><time>2026-05-01T14:16:34Z</time></trkpt><trkpt lat="44.29803853395325" lon="7.8648330748986295"><ele>933.0</ele><time>2026-05-01T14:16:35Z</time></trkpt><trkpt lat="44.29804039860317" lon="7.864634712156942"><ele>930.75</ele><time>2026-05-01T14:16:36Z</time></trkpt><trkpt lat="44.298024237375046" lon="7.864434638514083"><ele>928.5</ele><time>2026-05-01T14:16:37Z</time></trkpt><trkpt lat="44.29801858160409" lon="7.864263829993583"><ele>926.25</ele><time>2026-05-01T14:16:38Z</time></trkpt><trkpt lat="44.29803438081178" lon="7.864105100421313"><ele>924.0</ele><time>2026-05-01T14:16:39Z</time></trkpt><trkpt lat="44.29806514548313" lon="7.863936658714327"><ele>928.0</ele><time>2026-05-01T14:16:40Z</time></trkpt><trkpt lat="44.29811240431346" lon="7.86374295713882"><ele>932.0</ele><time>2026-05-01T14:16:41Z</time></trkpt><trkpt lat="44.2981710872526" lon="7.863536084061957"><ele>936.0</ele><time>2026-05-01T14:16:42Z</time></trkpt><trkpt lat="44.29823262642434" lon="7.863320615020409"><ele>936.0</ele><time>2026-05-01T14:16:43Z</time></trkpt><trkpt lat="44.29830054168939" lon="7.86310796146537"><ele>936.0</ele><time>2026-05-01T14:16:44Z</time></trkpt><trkpt lat="44.29835229925687" lon="7.862896744414575"><ele>936.0</ele><time>2026-05-01T14:16:45Z</time></trkpt><trkpt lat="44.29838345569018" lon="7.862717707907571"><ele>933.5999999999999</ele><time>2026-05-01T14:16:46Z</time></trkpt><trkpt lat="44.29839690606591" lon="7.862575746021073"><ele>931.1999999999999</ele><time>2026-05-01T14:16:47Z</time></trkpt><trkpt lat="44.29842381164654" lon="7.862427746694541"><ele>928.8000000000001</ele><time>2026-05-01T14:16:48Z</time></trkpt><trkpt lat="44.29846333298236" lon="7.862273520586514"><ele>926.4000000000001</ele><time>2026-05-01T14:16:49Z</time></trkpt><trkpt lat="44.29850584907004" lon="7.862118397308421"><ele>924.0</ele><time>2026-05-01T14:16:50Z</time></trkpt><trkpt lat="44.29855645771202" lon="7.861965077949368"><ele>924.0</ele><time>2026-05-01T14:16:51Z</time></trkpt><trkpt lat="44.29859477187994" lon="7.86183856744214"><ele>924.0</ele><time>2026-05-01T14:16:52Z</time></trkpt><trkpt lat="44.29860880433207" lon="7.861749043050964"><ele>924.0</ele><time>2026-05-01T14:16:53Z</time></trkpt><trkpt lat="44.29858688487285" lon="7.861651771715254"><ele>924.0</ele><time>2026-05-01T14:16:56Z</time></trkpt><trkpt lat="44.298627684047815" lon="7.861530170917213"><ele>924.0</ele><time>2026-05-01T14:16:58Z</time></trkpt><trkpt lat="44.29869646482413" lon="7.861410538431537"><ele>924.0</ele><time>2026-05-01T14:16:59Z</time></trkpt><trkpt lat="44.29876865988943" lon="7.861283017956638"><ele>924.75</ele><time>2026-05-01T14:17:00Z</time></trkpt><trkpt lat="44.29884651544912" lon="7.861137461475264"><ele>925.5</ele><time>2026-05-01T14:17:01Z</time></trkpt><trkpt lat="44.29892820230669" lon="7.860982973257727"><ele>926.25</ele><time>2026-05-01T14:17:02Z</time></trkpt><trkpt lat="44.2990217855994" lon="7.860806329021543"><ele>927.0</ele><time>2026-05-01T14:17:03Z</time></trkpt><trkpt lat="44.29911765629941" lon="7.860621323835841"><ele>923.3333333333333</ele><time>2026-05-01T14:17:04Z</time></trkpt><trkpt lat="44.29921199368609" lon="7.860429415662313"><ele>919.6666666666666</ele><time>2026-05-01T14:17:05Z</time></trkpt><trkpt lat="44.29931422692689" lon="7.860219965713644"><ele>916.0</ele><time>2026-05-01T14:17:06Z</time></trkpt><trkpt lat="44.299421242783595" lon="7.860024691184326"><ele>916.6666666666666</ele><time>2026-05-01T14:17:07Z</time></trkpt><trkpt lat="44.29953127748381" lon="7.85984699946501"><ele>917.3333333333333</ele><time>2026-05-01T14:17:08Z</time></trkpt><trkpt lat="44.29965590310328" lon="7.859679202776704"><ele>918.0</ele><time>2026-05-01T14:17:09Z</time></trkpt><trkpt lat="44.299775185312335" lon="7.859530220388446"><ele>918.0</ele><time>2026-05-01T14:17:10Z</time></trkpt><trkpt lat="44.29988280119491" lon="7.8593802194059945"><ele>918.0</ele><time>2026-05-01T14:17:11Z</time></trkpt><trkpt lat="44.299981332233784" lon="7.8592398666451135"><ele>918.0</ele><time>2026-05-01T14:17:12Z</time></trkpt><trkpt lat="44.3000805530584" lon="7.859094130849441"><ele>918.0</ele><time>2026-05-01T14:17:13Z</time></trkpt><trkpt lat="44.300184213993276" lon="7.8589347720103415"><ele>913.0</ele><time>2026-05-01T14:17:14Z</time></trkpt><trkpt lat="44.300288733735016" lon="7.858767737668533"><ele>908.0</ele><time>2026-05-01T14:17:15Z</time></trkpt><trkpt lat="44.30039342750516" lon="7.858592095243265"><ele>903.0</ele><time>2026-05-01T14:17:16Z</time></trkpt><trkpt lat="44.30050064728499" lon="7.8584127150531025"><ele>903.3333333333333</ele><time>2026-05-01T14:17:17Z</time></trkpt><trkpt lat="44.30062241880583" lon="7.85822958909758"><ele>903.6666666666666</ele><time>2026-05-01T14:17:18Z</time></trkpt><trkpt lat="44.300758284892076" lon="7.858050091297913"><ele>904.0</ele><time>2026-05-01T14:17:19Z</time></trkpt><trkpt lat="44.300909187256856" lon="7.857874527728514"><ele>904.0</ele><time>2026-05-01T14:17:20Z</time></trkpt><trkpt lat="44.301078266371476" lon="7.857689957903328"><ele>904.0</ele><time>2026-05-01T14:17:21Z</time></trkpt><trkpt lat="44.30125316450008" lon="7.857492336959209"><ele>904.0</ele><time>2026-05-01T14:17:22Z</time></trkpt><trkpt lat="44.30142777585674" lon="7.857284203173074"><ele>904.0</ele><time>2026-05-01T14:17:23Z</time></trkpt><trkpt lat="44.301569283511064" lon="7.857090741266119"><ele>904.0</ele><time>2026-05-01T14:17:24Z</time></trkpt><trkpt lat="44.30167142589979" lon="7.856927501431506"><ele>904.0</ele><time>2026-05-01T14:17:25Z</time></trkpt><trkpt lat="44.30174416923705" lon="7.856777957393524"><ele>900.0</ele><time>2026-05-01T14:17:26Z</time></trkpt><trkpt lat="44.3018055411659" lon="7.856609391313202"><ele>896.0</ele><time>2026-05-01T14:17:27Z</time></trkpt><trkpt lat="44.3018571450163" lon="7.856435805607807"><ele>892.0</ele><time>2026-05-01T14:17:28Z</time></trkpt><trkpt lat="44.301910088793164" lon="7.85626950224585"><ele>888.0</ele><time>2026-05-01T14:17:29Z</time></trkpt><trkpt lat="44.30197333145758" lon="7.856107670753204"><ele>889.0</ele><time>2026-05-01T14:17:30Z</time></trkpt><trkpt lat="44.30204790044997" lon="7.855950344649638"><ele>890.0</ele><time>2026-05-01T14:17:31Z</time></trkpt><trkpt lat="44.30213156181572" lon="7.855800162501809"><ele>891.0</ele><time>2026-05-01T14:17:32Z</time></trkpt><trkpt lat="44.30222178838399" lon="7.855642796524957"><ele>892.0</ele><time>2026-05-01T14:17:33Z</time></trkpt><trkpt lat="44.30231262059411" lon="7.855487340972145"><ele>892.0</ele><time>2026-05-01T14:17:34Z</time></trkpt><trkpt lat="44.30239711473181" lon="7.855316536709431"><ele>892.0</ele><time>2026-05-01T14:17:35Z</time></trkpt><trkpt lat="44.30246768139277" lon="7.855111488090489"><ele>892.0</ele><time>2026-05-01T14:17:36Z</time></trkpt><trkpt lat="44.30251558331155" lon="7.854872239691907"><ele>889.6666666666666</ele><time>2026-05-01T14:17:37Z</time></trkpt><trkpt lat="44.30253093011835" lon="7.8546329885173405"><ele>887.3333333333333</ele><time>2026-05-01T14:17:38Z</time></trkpt><trkpt lat="44.3025455489008" lon="7.854427258514147"><ele>885.0</ele><time>2026-05-01T14:17:39Z</time></trkpt><trkpt lat="44.30258739988942" lon="7.854238307251467"><ele>883.25</ele><time>2026-05-01T14:17:40Z</time></trkpt><trkpt lat="44.30265772702962" lon="7.8540524142843156"><ele>881.5</ele><time>2026-05-01T14:17:41Z</time></trkpt><trkpt lat="44.302731634769245" lon="7.853877258374308"><ele>879.75</ele><time>2026-05-01T14:17:42Z</time></trkpt><trkpt lat="44.30279751817321" lon="7.853705393410596"><ele>878.0</ele><time>2026-05-01T14:17:43Z</time></trkpt><trkpt lat="44.30284745581743" lon="7.853527498787893"><ele>875.8</ele><time>2026-05-01T14:17:44Z</time></trkpt><trkpt lat="44.30287597243373" lon="7.853351169691077"><ele>873.5999999999999</ele><time>2026-05-01T14:17:45Z</time></trkpt><trkpt lat="44.30289655248305" lon="7.853175715641134"><ele>871.4000000000001</ele><time>2026-05-01T14:17:46Z</time></trkpt><trkpt lat="44.30291461111078" lon="7.853044951761002"><ele>869.2</ele><time>2026-05-01T14:17:47Z</time></trkpt><trkpt lat="44.302930969242574" lon="7.8529448179755645"><ele>867.0</ele><time>2026-05-01T14:17:48Z</time></trkpt><trkpt lat="44.30295555892844" lon="7.85284804094013"><ele>867.0</ele><time>2026-05-01T14:17:49Z</time></trkpt><trkpt lat="44.30299694792267" lon="7.852745774889063"><ele>867.0</ele><time>2026-05-01T14:17:50Z</time></trkpt><trkpt lat="44.30306775633352" lon="7.852651780807406"><ele>867.0</ele><time>2026-05-01T14:17:51Z</time></trkpt><trkpt lat="44.30315981510329" lon="7.852539813387825"><ele>867.0</ele><time>2026-05-01T14:17:52Z</time></trkpt><trkpt lat="44.303258020829524" lon="7.852431493107865"><ele>867.0</ele><time>2026-05-01T14:17:53Z</time></trkpt><trkpt lat="44.30334353395975" lon="7.8523455138022475"><ele>867.25</ele><time>2026-05-01T14:17:54Z</time></trkpt><trkpt lat="44.30342941532006" lon="7.852290756132268"><ele>867.5</ele><time>2026-05-01T14:17:55Z</time></trkpt><trkpt lat="44.30353758343725" lon="7.852292370077051"><ele>867.75</ele><time>2026-05-01T14:17:56Z</time></trkpt><trkpt lat="44.30367578253767" lon="7.852327345280171"><ele>868.0</ele><time>2026-05-01T14:17:57Z</time></trkpt><trkpt lat="44.30383508974609" lon="7.852394653449953"><ele>869.3333333333333</ele><time>2026-05-01T14:17:58Z</time></trkpt><trkpt lat="44.30398522487883" lon="7.852476850715379"><ele>870.6666666666667</ele><time>2026-05-01T14:17:59Z</time></trkpt><trkpt lat="44.30412010518679" lon="7.852552461286089"><ele>872.0</ele><time>2026-05-01T14:18:00Z</time></trkpt><trkpt lat="44.30425195327962" lon="7.852643313079412"><ele>872.0</ele><time>2026-05-01T14:18:01Z</time></trkpt><trkpt lat="44.30438329822574" lon="7.852784093523578"><ele>872.0</ele><time>2026-05-01T14:18:02Z</time></trkpt><trkpt lat="44.30454355081651" lon="7.852935572072011"><ele>872.0</ele><time>2026-05-01T14:18:03Z</time></trkpt><trkpt lat="44.30469499258373" lon="7.853087088943845"><ele>871.0</ele><time>2026-05-01T14:18:04Z</time></trkpt><trkpt lat="44.30485948290578" lon="7.853196174297552"><ele>870.0</ele><time>2026-05-01T14:18:05Z</time></trkpt><trkpt lat="44.30504504612415" lon="7.853201458318506"><ele>869.0</ele><time>2026-05-01T14:18:06Z</time></trkpt><trkpt lat="44.30524435331346" lon="7.8531778116753905"><ele>869.0</ele><time>2026-05-01T14:18:07Z</time></trkpt><trkpt lat="44.30545496691195" lon="7.853105992506883"><ele>869.0</ele><time>2026-05-01T14:18:08Z</time></trkpt><trkpt lat="44.30569873709604" lon="7.85300957973419"><ele>870.6666666666667</ele><time>2026-05-01T14:18:09Z</time></trkpt><trkpt lat="44.3058805234381" lon="7.852924570727466"><ele>872.3333333333333</ele><time>2026-05-01T14:18:10Z</time></trkpt><trkpt lat="44.306103993635276" lon="7.852841404016265"><ele>874.0</ele><time>2026-05-01T14:18:11Z</time></trkpt><trkpt lat="44.306321635779426" lon="7.852752992038652"><ele>877.3333333333333</ele><time>2026-05-01T14:18:12Z</time></trkpt><trkpt lat="44.30652041297946" lon="7.852659158791407"><ele>880.6666666666667</ele><time>2026-05-01T14:18:13Z</time></trkpt><trkpt lat="44.306699957441865" lon="7.852583838297685"><ele>884.0</ele><time>2026-05-01T14:18:14Z</time></trkpt><trkpt lat="44.30687410325289" lon="7.852513829494543"><ele>876.5</ele><time>2026-05-01T14:18:15Z</time></trkpt><trkpt lat="44.30701036274816" lon="7.852462771178719"><ele>869.0</ele><time>2026-05-01T14:18:16Z</time></trkpt><trkpt lat="44.30712910745066" lon="7.8524606773068415"><ele>861.5</ele><time>2026-05-01T14:18:17Z</time></trkpt><trkpt lat="44.30724772515662" lon="7.852456188159518"><ele>854.0</ele><time>2026-05-01T14:18:18Z</time></trkpt><trkpt lat="44.307384253235114" lon="7.852476605419863"><ele>854.0</ele><time>2026-05-01T14:18:19Z</time></trkpt><trkpt lat="44.307542433711696" lon="7.852509340725252"><ele>854.0</ele><time>2026-05-01T14:18:20Z</time></trkpt><trkpt lat="44.30771240104451" lon="7.852582319243934"><ele>854.0</ele><time>2026-05-01T14:18:21Z</time></trkpt><trkpt lat="44.307892736132025" lon="7.852653468335486"><ele>859.0</ele><time>2026-05-01T14:18:22Z</time></trkpt><trkpt lat="44.308086637144555" lon="7.8527069158552285"><ele>864.0</ele><time>2026-05-01T14:18:23Z</time></trkpt><trkpt lat="44.30829483541467" lon="7.852742437093173"><ele>869.0</ele><time>2026-05-01T14:18:24Z</time></trkpt><trkpt lat="44.30848037297884" lon="7.852796211037552"><ele>869.0</ele><time>2026-05-01T14:18:25Z</time></trkpt><trkpt lat="44.30864971240446" lon="7.852927745211658"><ele>869.0</ele><time>2026-05-01T14:18:26Z</time></trkpt><trkpt lat="44.308839487643546" lon="7.853054241842789"><ele>869.0</ele><time>2026-05-01T14:18:27Z</time></trkpt><trkpt lat="44.30902808584921" lon="7.853211256058255"><ele>861.6666666666667</ele><time>2026-05-01T14:18:28Z</time></trkpt><trkpt lat="44.309226354045066" lon="7.853322120891356"><ele>854.3333333333333</ele><time>2026-05-01T14:18:29Z</time></trkpt><trkpt lat="44.30944112653217" lon="7.853374223663042"><ele>847.0</ele><time>2026-05-01T14:18:30Z</time></trkpt><trkpt lat="44.30962763701505" lon="7.853379199122055"><ele>846.3333333333333</ele><time>2026-05-01T14:18:31Z</time></trkpt><trkpt lat="44.30980704562732" lon="7.8533712961089766"><ele>845.6666666666667</ele><time>2026-05-01T14:18:32Z</time></trkpt><trkpt lat="44.30999122320292" lon="7.853312203275439"><ele>845.0</ele><time>2026-05-01T14:18:33Z</time></trkpt><trkpt lat="44.310185125300045" lon="7.853209773067734"><ele>845.0</ele><time>2026-05-01T14:18:34Z</time></trkpt><trkpt lat="44.310379481401846" lon="7.85309228126591"><ele>845.0</ele><time>2026-05-01T14:18:35Z</time></trkpt><trkpt lat="44.31057306160853" lon="7.85297764232924"><ele>845.0</ele><time>2026-05-01T14:18:36Z</time></trkpt><trkpt lat="44.31075041310914" lon="7.852880898496769"><ele>847.0</ele><time>2026-05-01T14:18:37Z</time></trkpt><trkpt lat="44.31093311704671" lon="7.852810249777383"><ele>849.0</ele><time>2026-05-01T14:18:38Z</time></trkpt><trkpt lat="44.311109303970355" lon="7.852781691095012"><ele>851.0</ele><time>2026-05-01T14:18:39Z</time></trkpt><trkpt lat="44.3112741222959" lon="7.8527932702162655"><ele>851.3333333333334</ele><time>2026-05-01T14:18:40Z</time></trkpt><trkpt lat="44.31144962132269" lon="7.852846130722497"><ele>851.6666666666667</ele><time>2026-05-01T14:18:41Z</time></trkpt><trkpt lat="44.311631501640505" lon="7.8529187773395455"><ele>852.0</ele><time>2026-05-01T14:18:42Z</time></trkpt><trkpt lat="44.31179759194248" lon="7.852998444639037"><ele>852.0</ele><time>2026-05-01T14:18:43Z</time></trkpt><trkpt lat="44.311943241078794" lon="7.853066701779356"><ele>852.0</ele><time>2026-05-01T14:18:44Z</time></trkpt><trkpt lat="44.312084956879325" lon="7.853125077148127"><ele>852.0</ele><time>2026-05-01T14:18:45Z</time></trkpt><trkpt lat="44.3122198103789" lon="7.853174431955348"><ele>852.0</ele><time>2026-05-01T14:18:46Z</time></trkpt><trkpt lat="44.31234792006257" lon="7.853203148762041"><ele>849.25</ele><time>2026-05-01T14:18:47Z</time></trkpt><trkpt lat="44.31247255799262" lon="7.85321124798372"><ele>846.5</ele><time>2026-05-01T14:18:48Z</time></trkpt><trkpt lat="44.312587560492446" lon="7.853218651967838"><ele>843.75</ele><time>2026-05-01T14:18:49Z</time></trkpt><trkpt lat="44.312693072105965" lon="7.853256092461306"><ele>841.0</ele><time>2026-05-01T14:18:50Z</time></trkpt><trkpt lat="44.31276968967955" lon="7.853361207646855"><ele>841.1666666666666</ele><time>2026-05-01T14:18:51Z</time></trkpt><trkpt lat="44.31282762808897" lon="7.853472507555247"><ele>841.3333333333333</ele><time>2026-05-01T14:18:52Z</time></trkpt><trkpt lat="44.31287392324594" lon="7.8535688295681165"><ele>841.5</ele><time>2026-05-01T14:18:53Z</time></trkpt><trkpt lat="44.312876531286555" lon="7.8536758436243135"><ele>841.6666666666667</ele><time>2026-05-01T14:18:54Z</time></trkpt><trkpt lat="44.31285987544965" lon="7.85377250575959"><ele>841.8333333333334</ele><time>2026-05-01T14:18:55Z</time></trkpt><trkpt lat="44.31289543892738" lon="7.8539215713388115"><ele>842.0</ele><time>2026-05-01T14:18:57Z</time></trkpt><trkpt lat="44.31300861226081" lon="7.853933580624773"><ele>842.0000000000001</ele><time>2026-05-01T14:18:59Z</time></trkpt><trkpt lat="44.31305470108387" lon="7.853869426965202"><ele>842.0</ele><time>2026-05-01T14:19:00Z</time></trkpt><trkpt lat="44.31307764332461" lon="7.853778950917577"><ele>842.0</ele><time>2026-05-01T14:19:01Z</time></trkpt><trkpt lat="44.31309033625451" lon="7.853676196829888"><ele>842.0</ele><time>2026-05-01T14:19:02Z</time></trkpt><trkpt lat="44.313094512102914" lon="7.853584023526604"><ele>842.0</ele><time>2026-05-01T14:19:03Z</time></trkpt><trkpt lat="44.31307838400926" lon="7.853493331944187"><ele>842.0000000000001</ele><time>2026-05-01T14:19:04Z</time></trkpt><trkpt lat="44.31304655413735" lon="7.853384452287844"><ele>842.0</ele><time>2026-05-01T14:19:05Z</time></trkpt><trkpt lat="44.31300497499843" lon="7.8532582765262235"><ele>841.75</ele><time>2026-05-01T14:19:06Z</time></trkpt><trkpt lat="44.31294775628071" lon="7.8531192079708365"><ele>841.5</ele><time>2026-05-01T14:19:07Z</time></trkpt><trkpt lat="44.312859891010504" lon="7.852970273357453"><ele>841.25</ele><time>2026-05-01T14:19:08Z</time></trkpt><trkpt lat="44.31273030309276" lon="7.852852258844982"><ele>841.0</ele><time>2026-05-01T14:19:09Z</time></trkpt><trkpt lat="44.31256152017199" lon="7.852781950615128"><ele>841.0</ele><time>2026-05-01T14:19:10Z</time></trkpt><trkpt lat="44.31237618649923" lon="7.852751933764604"><ele>841.0</ele><time>2026-05-01T14:19:11Z</time></trkpt><trkpt lat="44.31219502357067" lon="7.852721459151804"><ele>841.0</ele><time>2026-05-01T14:19:12Z</time></trkpt><trkpt lat="44.31204786654903" lon="7.852586795269115"><ele>837.0</ele><time>2026-05-01T14:19:13Z</time></trkpt><trkpt lat="44.31190860861547" lon="7.85246048916399"><ele>833.0</ele><time>2026-05-01T14:19:14Z</time></trkpt><trkpt lat="44.31179617260052" lon="7.852325721834558"><ele>829.0</ele><time>2026-05-01T14:19:15Z</time></trkpt><trkpt lat="44.31171050061129" lon="7.852172351582708"><ele>829.0</ele><time>2026-05-01T14:19:16Z</time></trkpt><trkpt lat="44.311644019319615" lon="7.852001371629427"><ele>829.0</ele><time>2026-05-01T14:19:17Z</time></trkpt><trkpt lat="44.31155515738817" lon="7.851890675874507"><ele>829.0</ele><time>2026-05-01T14:19:18Z</time></trkpt><trkpt lat="44.31146641493825" lon="7.851798534100055"><ele>829.0</ele><time>2026-05-01T14:19:19Z</time></trkpt><trkpt lat="44.311351744851684" lon="7.8517687297291605"><ele>829.0</ele><time>2026-05-01T14:19:20Z</time></trkpt><trkpt lat="44.311229907046624" lon="7.851805343404726"><ele>829.0</ele><time>2026-05-01T14:19:21Z</time></trkpt><trkpt lat="44.3110993920898" lon="7.8518999682058555"><ele>829.0</ele><time>2026-05-01T14:19:22Z</time></trkpt><trkpt lat="44.3109636674944" lon="7.852029316763098"><ele>829.0</ele><time>2026-05-01T14:19:23Z</time></trkpt><trkpt lat="44.31081791527404" lon="7.852092729633971"><ele>829.0</ele><time>2026-05-01T14:19:24Z</time></trkpt><trkpt lat="44.31070648363763" lon="7.852079633330517"><ele>829.0</ele><time>2026-05-01T14:19:25Z</time></trkpt><trkpt lat="44.31060553326281" lon="7.8520326095615145"><ele>829.0</ele><time>2026-05-01T14:19:26Z</time></trkpt><trkpt lat="44.310512517726536" lon="7.851912212389658"><ele>829.0</ele><time>2026-05-01T14:19:27Z</time></trkpt><trkpt lat="44.310409772784986" lon="7.851751789088106"><ele>821.6666666666666</ele><time>2026-05-01T14:19:28Z</time></trkpt><trkpt lat="44.31026911757821" lon="7.851612896510923"><ele>814.3333333333333</ele><time>2026-05-01T14:19:29Z</time></trkpt><trkpt lat="44.31012330708494" lon="7.851571529139015"><ele>807.0</ele><time>2026-05-01T14:19:30Z</time></trkpt><trkpt lat="44.30995540218162" lon="7.85156408962762"><ele>807.0</ele><time>2026-05-01T14:19:31Z</time></trkpt><trkpt lat="44.309755494983186" lon="7.851564711129465"><ele>807.0</ele><time>2026-05-01T14:19:32Z</time></trkpt><trkpt lat="44.30959772885535" lon="7.851466939608546"><ele>807.0</ele><time>2026-05-01T14:19:33Z</time></trkpt><trkpt lat="44.309479814896534" lon="7.85133985510368"><ele>807.4000000000001</ele><time>2026-05-01T14:19:34Z</time></trkpt><trkpt lat="44.309368707379285" lon="7.851222373381734"><ele>807.8000000000001</ele><time>2026-05-01T14:19:35Z</time></trkpt><trkpt lat="44.309302983243605" lon="7.851112304675892"><ele>808.2</ele><time>2026-05-01T14:19:36Z</time></trkpt><trkpt lat="44.30926124593851" lon="7.851005018760654"><ele>808.6</ele><time>2026-05-01T14:19:37Z</time></trkpt><trkpt lat="44.309323394364206" lon="7.850880015470595"><ele>809.0</ele><time>2026-05-01T14:19:38Z</time></trkpt><trkpt lat="44.30938126679138" lon="7.850772907303879"><ele>806.0</ele><time>2026-05-01T14:19:39Z</time></trkpt><trkpt lat="44.309449345415906" lon="7.850615715301407"><ele>803.0</ele><time>2026-05-01T14:19:40Z</time></trkpt><trkpt lat="44.30951653943201" lon="7.850423215644164"><ele>800.0</ele><time>2026-05-01T14:19:41Z</time></trkpt><trkpt lat="44.309596744246214" lon="7.850226645562159"><ele>797.0</ele><time>2026-05-01T14:19:42Z</time></trkpt><trkpt lat="44.30968491474591" lon="7.850010209550777"><ele>792.6666666666667</ele><time>2026-05-01T14:19:43Z</time></trkpt><trkpt lat="44.309753942281404" lon="7.8497652171084376"><ele>788.3333333333333</ele><time>2026-05-01T14:19:44Z</time></trkpt><trkpt lat="44.309809606898135" lon="7.849515560305966"><ele>784.0</ele><time>2026-05-01T14:19:45Z</time></trkpt><trkpt lat="44.309862301805744" lon="7.8492965668875305"><ele>783.4000000000001</ele><time>2026-05-01T14:19:46Z</time></trkpt><trkpt lat="44.30991448654274" lon="7.849130767560428"><ele>782.8</ele><time>2026-05-01T14:19:47Z</time></trkpt><trkpt lat="44.30993960116146" lon="7.849005331865368"><ele>782.2</ele><time>2026-05-01T14:19:48Z</time></trkpt><trkpt lat="44.30990786701663" lon="7.848914910484191"><ele>781.5999999999999</ele><time>2026-05-01T14:19:49Z</time></trkpt><trkpt lat="44.30985214637436" lon="7.848860415579357"><ele>781.0</ele><time>2026-05-01T14:19:50Z</time></trkpt><trkpt lat="44.30973460359457" lon="7.848904883926021"><ele>781.5</ele><time>2026-05-01T14:19:51Z</time></trkpt><trkpt lat="44.30964842498922" lon="7.849025004905004"><ele>782.0</ele><time>2026-05-01T14:19:52Z</time></trkpt><trkpt lat="44.309565670700096" lon="7.849204745657792"><ele>782.5</ele><time>2026-05-01T14:19:53Z</time></trkpt><trkpt lat="44.30948048033611" lon="7.8494115987111766"><ele>783.0</ele><time>2026-05-01T14:19:54Z</time></trkpt><trkpt lat="44.30936355879806" lon="7.849584438039333"><ele>783.0</ele><time>2026-05-01T14:19:55Z</time></trkpt><trkpt lat="44.30921883407885" lon="7.849728048244148"><ele>783.0</ele><time>2026-05-01T14:19:56Z</time></trkpt><trkpt lat="44.30907235596592" lon="7.849819722631628"><ele>783.0</ele><time>2026-05-01T14:19:57Z</time></trkpt><trkpt lat="44.30896159597608" lon="7.8498497258111755"><ele>785.0</ele><time>2026-05-01T14:19:58Z</time></trkpt><trkpt lat="44.308863050896015" lon="7.849844415066518"><ele>787.0</ele><time>2026-05-01T14:19:59Z</time></trkpt><trkpt lat="44.308763119657876" lon="7.849780557319381"><ele>789.0</ele><time>2026-05-01T14:20:00Z</time></trkpt><trkpt lat="44.308664034330526" lon="7.8496607650680215"><ele>791.0</ele><time>2026-05-01T14:20:01Z</time></trkpt><trkpt lat="44.30853747492586" lon="7.84951486146272"><ele>791.0</ele><time>2026-05-01T14:20:02Z</time></trkpt><trkpt lat="44.308392347578334" lon="7.849374282746487"><ele>791.0</ele><time>2026-05-01T14:20:03Z</time></trkpt><trkpt lat="44.30826443050657" lon="7.849200211494412"><ele>791.0</ele><time>2026-05-01T14:20:04Z</time></trkpt><trkpt lat="44.308147804290776" lon="7.849038191468988"><ele>787.75</ele><time>2026-05-01T14:20:05Z</time></trkpt><trkpt lat="44.30806121928839" lon="7.848890228332039"><ele>784.5</ele><time>2026-05-01T14:20:06Z</time></trkpt><trkpt lat="44.307976375972466" lon="7.848717817396176"><ele>781.25</ele><time>2026-05-01T14:20:07Z</time></trkpt><trkpt lat="44.30789703460554" lon="7.848555364666644"><ele>778.0</ele><time>2026-05-01T14:20:08Z</time></trkpt><trkpt lat="44.30780647110116" lon="7.848454717690397"><ele>778.0</ele><time>2026-05-01T14:20:09Z</time></trkpt><trkpt lat="44.30768542685834" lon="7.848410465525917"><ele>778.0</ele><time>2026-05-01T14:20:10Z</time></trkpt><trkpt lat="44.307526377799945" lon="7.8484315843083925"><ele>778.0</ele><time>2026-05-01T14:20:11Z</time></trkpt><trkpt lat="44.30736110942997" lon="7.8484781651489754"><ele>778.0</ele><time>2026-05-01T14:20:12Z</time></trkpt><trkpt lat="44.307215521594614" lon="7.848481707709392"><ele>778.0</ele><time>2026-05-01T14:20:13Z</time></trkpt><trkpt lat="44.307085156735575" lon="7.8483898060980515"><ele>778.0</ele><time>2026-05-01T14:20:14Z</time></trkpt><trkpt lat="44.306939891354766" lon="7.848320426572249"><ele>778.0</ele><time>2026-05-01T14:20:15Z</time></trkpt><trkpt lat="44.30679330878886" lon="7.848261689266833"><ele>767.6666666666666</ele><time>2026-05-01T14:20:16Z</time></trkpt><trkpt lat="44.306621060498586" lon="7.848261337190455"><ele>757.3333333333333</ele><time>2026-05-01T14:20:17Z</time></trkpt><trkpt lat="44.30643340514168" lon="7.848312315869591"><ele>747.0</ele><time>2026-05-01T14:20:18Z</time></trkpt><trkpt lat="44.30624658565579" lon="7.8483799000810555"><ele>746.25</ele><time>2026-05-01T14:20:19Z</time></trkpt><trkpt lat="44.30607915954652" lon="7.848428293074832"><ele>745.5</ele><time>2026-05-01T14:20:20Z</time></trkpt><trkpt lat="44.305944747157646" lon="7.848447570527232"><ele>744.75</ele><time>2026-05-01T14:20:21Z</time></trkpt><trkpt lat="44.3058364540219" lon="7.8484274543846535"><ele>744.0</ele><time>2026-05-01T14:20:22Z</time></trkpt><trkpt lat="44.30573699646685" lon="7.848337945535442"><ele>744.0</ele><time>2026-05-01T14:20:23Z</time></trkpt><trkpt lat="44.30571663935568" lon="7.848135248865455"><ele>744.0</ele><time>2026-05-01T14:20:24Z</time></trkpt><trkpt lat="44.305638181697134" lon="7.847953065468553"><ele>744.0</ele><time>2026-05-01T14:20:25Z</time></trkpt><trkpt lat="44.30555084068436" lon="7.8477921550807945"><ele>744.0</ele><time>2026-05-01T14:20:26Z</time></trkpt><trkpt lat="44.30539832725138" lon="7.847702362920335"><ele>740.6666666666666</ele><time>2026-05-01T14:20:27Z</time></trkpt><trkpt lat="44.30521512931884" lon="7.8476192919660015"><ele>737.3333333333333</ele><time>2026-05-01T14:20:28Z</time></trkpt><trkpt lat="44.30503518137779" lon="7.847519330964362"><ele>734.0</ele><time>2026-05-01T14:20:29Z</time></trkpt><trkpt lat="44.30486698423271" lon="7.847361013338956"><ele>741.3333333333333</ele><time>2026-05-01T14:20:30Z</time></trkpt><trkpt lat="44.30471724810316" lon="7.847196607804105"><ele>748.6666666666666</ele><time>2026-05-01T14:20:31Z</time></trkpt><trkpt lat="44.30456637485445" lon="7.847074702450847"><ele>756.0</ele><time>2026-05-01T14:20:32Z</time></trkpt><trkpt lat="44.3044076387141" lon="7.846996726768265"><ele>756.0</ele><time>2026-05-01T14:20:33Z</time></trkpt><trkpt lat="44.30424897067079" lon="7.84694192711801"><ele>756.0</ele><time>2026-05-01T14:20:34Z</time></trkpt><trkpt lat="44.30412266329053" lon="7.846872298125474"><ele>756.0</ele><time>2026-05-01T14:20:35Z</time></trkpt><trkpt lat="44.30400510791379" lon="7.846752184973459"><ele>756.0</ele><time>2026-05-01T14:20:36Z</time></trkpt><trkpt lat="44.303892199779455" lon="7.846597036701515"><ele>750.0</ele><time>2026-05-01T14:20:37Z</time></trkpt><trkpt lat="44.303788926980666" lon="7.8464522044823966"><ele>744.0</ele><time>2026-05-01T14:20:38Z</time></trkpt><trkpt lat="44.303685401626154" lon="7.846337615648451"><ele>738.0</ele><time>2026-05-01T14:20:39Z</time></trkpt><trkpt lat="44.30356708530446" lon="7.84628513053051"><ele>732.0</ele><time>2026-05-01T14:20:40Z</time></trkpt><trkpt lat="44.30343215666657" lon="7.846297712594188"><ele>732.0</ele><time>2026-05-01T14:20:41Z</time></trkpt><trkpt lat="44.30329422593917" lon="7.846374456135305"><ele>732.0</ele><time>2026-05-01T14:20:42Z</time></trkpt><trkpt lat="44.30315583143107" lon="7.846497763921029"><ele>732.0</ele><time>2026-05-01T14:20:43Z</time></trkpt><trkpt lat="44.30302500436805" lon="7.84659862638798"><ele>729.5</ele><time>2026-05-01T14:20:44Z</time></trkpt><trkpt lat="44.302896506352084" lon="7.8466416876451035"><ele>727.0</ele><time>2026-05-01T14:20:45Z</time></trkpt><trkpt lat="44.302776854565515" lon="7.8465813906372075"><ele>724.5</ele><time>2026-05-01T14:20:46Z</time></trkpt><trkpt lat="44.30267854481638" lon="7.8464895071332155"><ele>722.0</ele><time>2026-05-01T14:20:47Z</time></trkpt><trkpt lat="44.30257034810002" lon="7.846395893155355"><ele>722.0</ele><time>2026-05-01T14:20:48Z</time></trkpt><trkpt lat="44.302445998515374" lon="7.846301491283415"><ele>722.0</ele><time>2026-05-01T14:20:49Z</time></trkpt><trkpt lat="44.30230848381106" lon="7.846167854085364"><ele>722.0</ele><time>2026-05-01T14:20:50Z</time></trkpt><trkpt lat="44.30215500217808" lon="7.84604052574576"><ele>716.6666666666666</ele><time>2026-05-01T14:20:51Z</time></trkpt><trkpt lat="44.30198400925801" lon="7.8459216536105005"><ele>711.3333333333334</ele><time>2026-05-01T14:20:52Z</time></trkpt><trkpt lat="44.30178428409459" lon="7.845839559508956"><ele>706.0</ele><time>2026-05-01T14:20:53Z</time></trkpt><trkpt lat="44.301594347231216" lon="7.845787946664466"><ele>706.0</ele><time>2026-05-01T14:20:54Z</time></trkpt><trkpt lat="44.30145371969791" lon="7.845709580056651"><ele>706.0</ele><time>2026-05-01T14:20:55Z</time></trkpt><trkpt lat="44.30138553596275" lon="7.845542111048873"><ele>706.0</ele><time>2026-05-01T14:20:56Z</time></trkpt><trkpt lat="44.30133989552619" lon="7.845376718676587"><ele>706.0</ele><time>2026-05-01T14:20:57Z</time></trkpt><trkpt lat="44.30132915675508" lon="7.8451591154537414"><ele>705.0</ele><time>2026-05-01T14:20:58Z</time></trkpt><trkpt lat="44.30134339721011" lon="7.844919368573518"><ele>704.0</ele><time>2026-05-01T14:20:59Z</time></trkpt><trkpt lat="44.30134579296888" lon="7.84470769659095"><ele>703.0</ele><time>2026-05-01T14:21:00Z</time></trkpt><trkpt lat="44.301331407653535" lon="7.844510567529574"><ele>703.0</ele><time>2026-05-01T14:21:01Z</time></trkpt><trkpt lat="44.30127169536525" lon="7.844335870150557"><ele>703.0</ele><time>2026-05-01T14:21:02Z</time></trkpt><trkpt lat="44.30116891565527" lon="7.844209565721197"><ele>703.0</ele><time>2026-05-01T14:21:03Z</time></trkpt><trkpt lat="44.30104346168528" lon="7.844149407534559"><ele>703.0</ele><time>2026-05-01T14:21:04Z</time></trkpt><trkpt lat="44.30090234946953" lon="7.844127772672443"><ele>699.5</ele><time>2026-05-01T14:21:05Z</time></trkpt><trkpt lat="44.30075318739543" lon="7.844109880889425"><ele>696.0</ele><time>2026-05-01T14:21:06Z</time></trkpt><trkpt lat="44.300602241147665" lon="7.844087613512122"><ele>692.5</ele><time>2026-05-01T14:21:07Z</time></trkpt><trkpt lat="44.3004645178329" lon="7.844057927847991"><ele>689.0</ele><time>2026-05-01T14:21:08Z</time></trkpt><trkpt lat="44.300336134116314" lon="7.844025945585818"><ele>688.0</ele><time>2026-05-01T14:21:09Z</time></trkpt><trkpt lat="44.3002046487007" lon="7.844001306218801"><ele>687.0</ele><time>2026-05-01T14:21:10Z</time></trkpt><trkpt lat="44.300080329148614" lon="7.84399637772251"><ele>686.0</ele><time>2026-05-01T14:21:11Z</time></trkpt><trkpt lat="44.299957804198584" lon="7.84401109199355"><ele>685.0</ele><time>2026-05-01T14:21:12Z</time></trkpt><trkpt lat="44.299830629430964" lon="7.844044874161667"><ele>682.0</ele><time>2026-05-01T14:21:13Z</time></trkpt><trkpt lat="44.29969673097107" lon="7.844081199758425"><ele>679.0</ele><time>2026-05-01T14:21:14Z</time></trkpt><trkpt lat="44.29956362330511" lon="7.844099421553905"><ele>676.0</ele><time>2026-05-01T14:21:15Z</time></trkpt><trkpt lat="44.29943898789206" lon="7.844093436276181"><ele>673.0</ele><time>2026-05-01T14:21:16Z</time></trkpt><trkpt lat="44.299316645928286" lon="7.8440807208195835"><ele>673.0</ele><time>2026-05-01T14:21:17Z</time></trkpt><trkpt lat="44.29919473762965" lon="7.844118723873946"><ele>673.0</ele><time>2026-05-01T14:21:18Z</time></trkpt><trkpt lat="44.299074188682916" lon="7.844228544919435"><ele>673.0</ele><time>2026-05-01T14:21:19Z</time></trkpt><trkpt lat="44.298986644689606" lon="7.844389276903298"><ele>673.0</ele><time>2026-05-01T14:21:20Z</time></trkpt><trkpt lat="44.29891691599314" lon="7.84456253785092"><ele>669.6666666666667</ele><time>2026-05-01T14:21:21Z</time></trkpt><trkpt lat="44.298864024171856" lon="7.844773625877318"><ele>666.3333333333334</ele><time>2026-05-01T14:21:22Z</time></trkpt><trkpt lat="44.29877754821818" lon="7.845011702679293"><ele>663.0</ele><time>2026-05-01T14:21:23Z</time></trkpt><trkpt lat="44.2987255547439" lon="7.845291393196546"><ele>663.0</ele><time>2026-05-01T14:21:24Z</time></trkpt><trkpt lat="44.29866154965335" lon="7.84548764391915"><ele>663.0</ele><time>2026-05-01T14:21:25Z</time></trkpt><trkpt lat="44.298629074536095" lon="7.845588198052574"><ele>663.0</ele><time>2026-05-01T14:21:26Z</time></trkpt><trkpt lat="44.298509161921686" lon="7.84562431338948"><ele>663.0</ele><time>2026-05-01T14:21:28Z</time></trkpt><trkpt lat="44.298442883613916" lon="7.845507083143522"><ele>663.0</ele><time>2026-05-01T14:21:29Z</time></trkpt><trkpt lat="44.29843635552113" lon="7.845315403831531"><ele>663.0</ele><time>2026-05-01T14:21:30Z</time></trkpt><trkpt lat="44.29841867846668" lon="7.845091195034061"><ele>663.0</ele><time>2026-05-01T14:21:31Z</time></trkpt><trkpt lat="44.29840978285164" lon="7.844855189465437"><ele>663.0</ele><time>2026-05-01T14:21:32Z</time></trkpt><trkpt lat="44.29839999823236" lon="7.844619318509667"><ele>663.0</ele><time>2026-05-01T14:21:33Z</time></trkpt><trkpt lat="44.29844750918156" lon="7.84443458620978"><ele>663.0</ele><time>2026-05-01T14:21:34Z</time></trkpt><trkpt lat="44.29850047811819" lon="7.844282944796853"><ele>663.0</ele><time>2026-05-01T14:21:35Z</time></trkpt><trkpt lat="44.298570551063946" lon="7.844122671123929"><ele>661.0</ele><time>2026-05-01T14:21:36Z</time></trkpt><trkpt lat="44.29866194136943" lon="7.843935065324177"><ele>659.0</ele><time>2026-05-01T14:21:37Z</time></trkpt><trkpt lat="44.29878118176988" lon="7.84373967673609"><ele>657.0</ele><time>2026-05-01T14:21:38Z</time></trkpt><trkpt lat="44.298917112324915" lon="7.843519825307602"><ele>657.0</ele><time>2026-05-01T14:21:39Z</time></trkpt><trkpt lat="44.29905161160162" lon="7.843281301007022"><ele>657.0</ele><time>2026-05-01T14:21:40Z</time></trkpt><trkpt lat="44.29917082438437" lon="7.843101200557653"><ele>657.0</ele><time>2026-05-01T14:21:41Z</time></trkpt><trkpt lat="44.2993154795998" lon="7.84294095076151"><ele>657.0</ele><time>2026-05-01T14:21:42Z</time></trkpt><trkpt lat="44.29945099343847" lon="7.842821403900732"><ele>657.0</ele><time>2026-05-01T14:21:43Z</time></trkpt><trkpt lat="44.29960839141095" lon="7.842736944439602"><ele>657.0</ele><time>2026-05-01T14:21:44Z</time></trkpt><trkpt lat="44.29979192111502" lon="7.84266729793917"><ele>653.0</ele><time>2026-05-01T14:21:45Z</time></trkpt><trkpt lat="44.29995645504195" lon="7.842583183187834"><ele>649.0</ele><time>2026-05-01T14:21:46Z</time></trkpt><trkpt lat="44.300081494539" lon="7.842410060989125"><ele>645.0</ele><time>2026-05-01T14:21:47Z</time></trkpt><trkpt lat="44.30020764268353" lon="7.842198291808342"><ele>645.0</ele><time>2026-05-01T14:21:48Z</time></trkpt><trkpt lat="44.30032553383469" lon="7.842002979676997"><ele>645.0</ele><time>2026-05-01T14:21:49Z</time></trkpt><trkpt lat="44.300382502681984" lon="7.841851721839195"><ele>645.0</ele><time>2026-05-01T14:21:50Z</time></trkpt><trkpt lat="44.30034091108797" lon="7.841712765639159"><ele>645.0</ele><time>2026-05-01T14:21:52Z</time></trkpt><trkpt lat="44.300272135302826" lon="7.841674872305071"><ele>645.0</ele><time>2026-05-01T14:21:53Z</time></trkpt><trkpt lat="44.300169048091014" lon="7.841758438161341"><ele>645.0</ele><time>2026-05-01T14:21:54Z</time></trkpt><trkpt lat="44.30007386919487" lon="7.841893781722141"><ele>645.0</ele><time>2026-05-01T14:21:55Z</time></trkpt><trkpt lat="44.29997526871973" lon="7.842060110665405"><ele>645.0</ele><time>2026-05-01T14:21:56Z</time></trkpt><trkpt lat="44.2998452893178" lon="7.842135296483358"><ele>641.0</ele><time>2026-05-01T14:21:57Z</time></trkpt><trkpt lat="44.29969422117632" lon="7.842170634053333"><ele>637.0</ele><time>2026-05-01T14:21:58Z</time></trkpt><trkpt lat="44.2994899068279" lon="7.842190775335609"><ele>633.0</ele><time>2026-05-01T14:21:59Z</time></trkpt><trkpt lat="44.29928527595463" lon="7.84221181773243"><ele>633.0</ele><time>2026-05-01T14:22:00Z</time></trkpt><trkpt lat="44.29905974484765" lon="7.842257722387793"><ele>633.0</ele><time>2026-05-01T14:22:01Z</time></trkpt><trkpt lat="44.2988454200262" lon="7.842296796233097"><ele>633.0</ele><time>2026-05-01T14:22:02Z</time></trkpt><trkpt lat="44.298654503891065" lon="7.8423473820736085"><ele>627.3333333333334</ele><time>2026-05-01T14:22:03Z</time></trkpt><trkpt lat="44.29848144442386" lon="7.84238749672821"><ele>621.6666666666667</ele><time>2026-05-01T14:22:04Z</time></trkpt><trkpt lat="44.29831275612165" lon="7.842371225508379"><ele>616.0</ele><time>2026-05-01T14:22:05Z</time></trkpt><trkpt lat="44.29811627368497" lon="7.842347930711537"><ele>614.3333333333334</ele><time>2026-05-01T14:22:06Z</time></trkpt><trkpt lat="44.2979092857558" lon="7.842336420926312"><ele>612.6666666666666</ele><time>2026-05-01T14:22:07Z</time></trkpt><trkpt lat="44.29770900931343" lon="7.8422862309622285"><ele>611.0</ele><time>2026-05-01T14:22:08Z</time></trkpt><trkpt lat="44.29752846989684" lon="7.842218680103738"><ele>611.0</ele><time>2026-05-01T14:22:09Z</time></trkpt><trkpt lat="44.29736850348246" lon="7.842168948690752"><ele>611.0</ele><time>2026-05-01T14:22:10Z</time></trkpt><trkpt lat="44.29721944138386" lon="7.842080616130828"><ele>611.0</ele><time>2026-05-01T14:22:11Z</time></trkpt><trkpt lat="44.297092195102834" lon="7.841927797298339"><ele>609.6666666666666</ele><time>2026-05-01T14:22:12Z</time></trkpt><trkpt lat="44.29699945610015" lon="7.841717465982718"><ele>608.3333333333334</ele><time>2026-05-01T14:22:13Z</time></trkpt><trkpt lat="44.29688905002683" lon="7.8414983474059285"><ele>607.0</ele><time>2026-05-01T14:22:14Z</time></trkpt><trkpt lat="44.29680251100796" lon="7.841269598686409"><ele>607.0</ele><time>2026-05-01T14:22:15Z</time></trkpt><trkpt lat="44.29671113610551" lon="7.84107632517838"><ele>607.0</ele><time>2026-05-01T14:22:16Z</time></trkpt><trkpt lat="44.29662047382194" lon="7.840895099551079"><ele>607.0</ele><time>2026-05-01T14:22:17Z</time></trkpt><trkpt lat="44.29651120231706" lon="7.84071631632973"><ele>607.0</ele><time>2026-05-01T14:22:18Z</time></trkpt><trkpt lat="44.296396223313344" lon="7.8405544121779185"><ele>607.0</ele><time>2026-05-01T14:22:19Z</time></trkpt><trkpt lat="44.296270160463244" lon="7.840410951259557"><ele>607.0</ele><time>2026-05-01T14:22:20Z</time></trkpt><trkpt lat="44.296139068991536" lon="7.840269481439685"><ele>607.0</ele><time>2026-05-01T14:22:21Z</time></trkpt><trkpt lat="44.29603048735889" lon="7.840145446740747"><ele>607.0</ele><time>2026-05-01T14:22:22Z</time></trkpt><trkpt lat="44.29594658905492" lon="7.840024034581711"><ele>607.0</ele><time>2026-05-01T14:22:23Z</time></trkpt><trkpt lat="44.295882994382346" lon="7.839901189493718"><ele>607.0</ele><time>2026-05-01T14:22:24Z</time></trkpt><trkpt lat="44.29582529534187" lon="7.839806881897286"><ele>609.0</ele><time>2026-05-01T14:22:25Z</time></trkpt><trkpt lat="44.295796582905126" lon="7.839688341405618"><ele>611.0</ele><time>2026-05-01T14:22:28Z</time></trkpt><trkpt lat="44.295939070479776" lon="7.839595329424487"><ele>613.0</ele><time>2026-05-01T14:22:29Z</time></trkpt><trkpt lat="44.29601344059274" lon="7.839549598220777"><ele>615.0</ele><time>2026-05-01T14:22:31Z</time></trkpt><trkpt lat="44.29610958684958" lon="7.8395372245839186"><ele>617.0</ele><time>2026-05-01T14:22:32Z</time></trkpt><trkpt lat="44.296219757332665" lon="7.839606338680903"><ele>617.0</ele><time>2026-05-01T14:22:33Z</time></trkpt><trkpt lat="44.296347926933024" lon="7.839670228520563"><ele>617.0</ele><time>2026-05-01T14:22:34Z</time></trkpt><trkpt lat="44.296465304503926" lon="7.8397654446083145"><ele>617.0</ele><time>2026-05-01T14:22:35Z</time></trkpt><trkpt lat="44.2965934556059" lon="7.839877007290527"><ele>617.0</ele><time>2026-05-01T14:22:36Z</time></trkpt><trkpt lat="44.296711025186426" lon="7.840024124723952"><ele>615.0</ele><time>2026-05-01T14:22:37Z</time></trkpt><trkpt lat="44.296850043096796" lon="7.840146588879441"><ele>613.0</ele><time>2026-05-01T14:22:38Z</time></trkpt><trkpt lat="44.29696821140321" lon="7.84025506402299"><ele>611.0</ele><time>2026-05-01T14:22:39Z</time></trkpt><trkpt lat="44.297094031525546" lon="7.840324911072993"><ele>609.0</ele><time>2026-05-01T14:22:40Z</time></trkpt><trkpt lat="44.297227848495794" lon="7.840346258412927"><ele>608.6666666666666</ele><time>2026-05-01T14:22:41Z</time></trkpt><trkpt lat="44.29737803449179" lon="7.84031067884416"><ele>608.3333333333333</ele><time>2026-05-01T14:22:42Z</time></trkpt><trkpt lat="44.29753826649924" lon="7.840235238818915"><ele>608.0</ele><time>2026-05-01T14:22:43Z</time></trkpt><trkpt lat="44.297708019097975" lon="7.840143758765797"><ele>611.0</ele><time>2026-05-01T14:22:44Z</time></trkpt><trkpt lat="44.29787272440819" lon="7.840051033399909"><ele>614.0</ele><time>2026-05-01T14:22:45Z</time></trkpt><trkpt lat="44.29803798285123" lon="7.839924989162064"><ele>617.0</ele><time>2026-05-01T14:22:46Z</time></trkpt><trkpt lat="44.29820244235216" lon="7.8397915221520735"><ele>617.0</ele><time>2026-05-01T14:22:47Z</time></trkpt><trkpt lat="44.298383116158774" lon="7.839648342441576"><ele>617.0</ele><time>2026-05-01T14:22:48Z</time></trkpt><trkpt lat="44.29855690832207" lon="7.839531928792733"><ele>617.0</ele><time>2026-05-01T14:22:49Z</time></trkpt><trkpt lat="44.298724680336164" lon="7.8395076513734505"><ele>617.0</ele><time>2026-05-01T14:22:50Z</time></trkpt><trkpt lat="44.29888666600133" lon="7.83947859793909"><ele>617.0</ele><time>2026-05-01T14:22:51Z</time></trkpt><trkpt lat="44.29903316105075" lon="7.839462026348042"><ele>617.0</ele><time>2026-05-01T14:22:52Z</time></trkpt><trkpt lat="44.299169870143004" lon="7.839383607105536"><ele>622.0</ele><time>2026-05-01T14:22:53Z</time></trkpt><trkpt lat="44.29930462592465" lon="7.839239463192666"><ele>627.0</ele><time>2026-05-01T14:22:54Z</time></trkpt><trkpt lat="44.29943860786726" lon="7.839054281522312"><ele>632.0</ele><time>2026-05-01T14:22:55Z</time></trkpt><trkpt lat="44.29957650389713" lon="7.838850811595108"><ele>632.0</ele><time>2026-05-01T14:22:56Z</time></trkpt><trkpt lat="44.29970164445077" lon="7.838673227209716"><ele>632.0</ele><time>2026-05-01T14:22:57Z</time></trkpt><trkpt lat="44.29984711443731" lon="7.838575696808464"><ele>632.0</ele><time>2026-05-01T14:22:58Z</time></trkpt><trkpt lat="44.299984040923576" lon="7.838513575855944"><ele>628.3333333333333</ele><time>2026-05-01T14:22:59Z</time></trkpt><trkpt lat="44.30013905020573" lon="7.83849165694132"><ele>624.6666666666666</ele><time>2026-05-01T14:23:00Z</time></trkpt><trkpt lat="44.30030965661199" lon="7.838514464387832"><ele>621.0</ele><time>2026-05-01T14:23:01Z</time></trkpt><trkpt lat="44.30051401436118" lon="7.838518333243289"><ele>621.3333333333334</ele><time>2026-05-01T14:23:02Z</time></trkpt><trkpt lat="44.30072606400976" lon="7.8384695886976"><ele>621.6666666666667</ele><time>2026-05-01T14:23:03Z</time></trkpt><trkpt lat="44.300902413536704" lon="7.838378458370933"><ele>622.0</ele><time>2026-05-01T14:23:04Z</time></trkpt><trkpt lat="44.30105532829746" lon="7.838345147132362"><ele>622.0</ele><time>2026-05-01T14:23:05Z</time></trkpt><trkpt lat="44.301182284660804" lon="7.838435073672968"><ele>622.0</ele><time>2026-05-01T14:23:06Z</time></trkpt><trkpt lat="44.30131367302494" lon="7.838581981525618"><ele>622.0</ele><time>2026-05-01T14:23:07Z</time></trkpt><trkpt lat="44.301492201374124" lon="7.838705125707301"><ele>625.0</ele><time>2026-05-01T14:23:08Z</time></trkpt><trkpt lat="44.30168661891269" lon="7.838770174339314"><ele>628.0</ele><time>2026-05-01T14:23:09Z</time></trkpt><trkpt lat="44.30187546998116" lon="7.838815826067481"><ele>631.0</ele><time>2026-05-01T14:23:10Z</time></trkpt><trkpt lat="44.302099078910366" lon="7.838880985921396"><ele>634.0</ele><time>2026-05-01T14:23:11Z</time></trkpt><trkpt lat="44.302342950707754" lon="7.838956404793274"><ele>637.0</ele><time>2026-05-01T14:23:12Z</time></trkpt><trkpt lat="44.30255746268538" lon="7.8390184510078615"><ele>637.0</ele><time>2026-05-01T14:23:13Z</time></trkpt><trkpt lat="44.30275686715941" lon="7.839049923882415"><ele>637.0</ele><time>2026-05-01T14:23:14Z</time></trkpt><trkpt lat="44.30295108825313" lon="7.839066507377456"><ele>637.0</ele><time>2026-05-01T14:23:15Z</time></trkpt><trkpt lat="44.303167891473905" lon="7.839018965988311"><ele>638.0</ele><time>2026-05-01T14:23:16Z</time></trkpt><trkpt lat="44.303357337548334" lon="7.839008539839762"><ele>639.0</ele><time>2026-05-01T14:23:17Z</time></trkpt><trkpt lat="44.30353649732284" lon="7.839033039780113"><ele>640.0</ele><time>2026-05-01T14:23:18Z</time></trkpt><trkpt lat="44.303682148019064" lon="7.839063435526389"><ele>640.0</ele><time>2026-05-01T14:23:19Z</time></trkpt><trkpt lat="44.303802943502106" lon="7.838992551616925"><ele>640.0</ele><time>2026-05-01T14:23:20Z</time></trkpt><trkpt lat="44.30390996402787" lon="7.838835157979356"><ele>640.0</ele><time>2026-05-01T14:23:21Z</time></trkpt><trkpt lat="44.304025603587014" lon="7.838633955511846"><ele>644.0</ele><time>2026-05-01T14:23:22Z</time></trkpt><trkpt lat="44.30413610190944" lon="7.8384245133703745"><ele>648.0</ele><time>2026-05-01T14:23:23Z</time></trkpt><trkpt lat="44.30430534497917" lon="7.838301600519993"><ele>652.0</ele><time>2026-05-01T14:23:24Z</time></trkpt><trkpt lat="44.30448043928049" lon="7.838156476304859"><ele>652.0</ele><time>2026-05-01T14:23:25Z</time></trkpt><trkpt lat="44.30462542094288" lon="7.838065763395347"><ele>652.0</ele><time>2026-05-01T14:23:26Z</time></trkpt><trkpt lat="44.304780469818006" lon="7.838039664101305"><ele>652.0</ele><time>2026-05-01T14:23:27Z</time></trkpt><trkpt lat="44.30496382537146" lon="7.838020266548668"><ele>648.6666666666667</ele><time>2026-05-01T14:23:28Z</time></trkpt><trkpt lat="44.30516042475219" lon="7.838001007818814"><ele>645.3333333333334</ele><time>2026-05-01T14:23:29Z</time></trkpt><trkpt lat="44.305325156459006" lon="7.837945985422574"><ele>642.0</ele><time>2026-05-01T14:23:30Z</time></trkpt><trkpt lat="44.30547903946673" lon="7.837884578734211"><ele>638.6666666666666</ele><time>2026-05-01T14:23:31Z</time></trkpt><trkpt lat="44.30562237269841" lon="7.837752423356044"><ele>635.3333333333333</ele><time>2026-05-01T14:23:32Z</time></trkpt><trkpt lat="44.30574994627626" lon="7.837574211865244"><ele>632.0</ele><time>2026-05-01T14:23:33Z</time></trkpt><trkpt lat="44.30585828388442" lon="7.8373551483565755"><ele>638.6666666666666</ele><time>2026-05-01T14:23:34Z</time></trkpt><trkpt lat="44.305950483467186" lon="7.837104001359819"><ele>645.3333333333334</ele><time>2026-05-01T14:23:35Z</time></trkpt><trkpt lat="44.306045793615944" lon="7.836915063221119"><ele>652.0</ele><time>2026-05-01T14:23:36Z</time></trkpt><trkpt lat="44.306150719627645" lon="7.836802076919988"><ele>652.0</ele><time>2026-05-01T14:23:37Z</time></trkpt><trkpt lat="44.306285518602316" lon="7.836827610148548"><ele>652.0</ele><time>2026-05-01T14:23:38Z</time></trkpt><trkpt lat="44.306431786570464" lon="7.836862113380945"><ele>652.0</ele><time>2026-05-01T14:23:39Z</time></trkpt><trkpt lat="44.306603952765684" lon="7.836901078903267"><ele>648.6666666666667</ele><time>2026-05-01T14:23:40Z</time></trkpt><trkpt lat="44.30679115692642" lon="7.836932128728907"><ele>645.3333333333334</ele><time>2026-05-01T14:23:41Z</time></trkpt><trkpt lat="44.30699055774399" lon="7.836970862017552"><ele>642.0</ele><time>2026-05-01T14:23:42Z</time></trkpt><trkpt lat="44.3072113476598" lon="7.836931390086285"><ele>642.3333333333334</ele><time>2026-05-01T14:23:43Z</time></trkpt><trkpt lat="44.30741920168353" lon="7.836884994749891"><ele>642.6666666666667</ele><time>2026-05-01T14:23:44Z</time></trkpt><trkpt lat="44.30763297316196" lon="7.836786073618669"><ele>643.0</ele><time>2026-05-01T14:23:45Z</time></trkpt><trkpt lat="44.30781477858275" lon="7.836718073002621"><ele>649.6666666666667</ele><time>2026-05-01T14:23:46Z</time></trkpt><trkpt lat="44.30800158199075" lon="7.836641910695507"><ele>656.3333333333334</ele><time>2026-05-01T14:23:47Z</time></trkpt><trkpt lat="44.308196968351645" lon="7.83662490167045"><ele>663.0</ele><time>2026-05-01T14:23:48Z</time></trkpt><trkpt lat="44.30837959702824" lon="7.836645888838649"><ele>663.0</ele><time>2026-05-01T14:23:49Z</time></trkpt><trkpt lat="44.308510889280385" lon="7.836697960296613"><ele>663.0</ele><time>2026-05-01T14:23:50Z</time></trkpt><trkpt lat="44.30860752749449" lon="7.83674116613192"><ele>663.0</ele><time>2026-05-01T14:23:51Z</time></trkpt><trkpt lat="44.30870876812643" lon="7.836712882477168"><ele>663.0</ele><time>2026-05-01T14:23:52Z</time></trkpt><trkpt lat="44.308816694567916" lon="7.836607806122418"><ele>664.25</ele><time>2026-05-01T14:23:53Z</time></trkpt><trkpt lat="44.30893243945668" lon="7.836471409265035"><ele>665.5</ele><time>2026-05-01T14:23:54Z</time></trkpt><trkpt lat="44.30905088018006" lon="7.83637247057767"><ele>666.75</ele><time>2026-05-01T14:23:55Z</time></trkpt><trkpt lat="44.30917513803343" lon="7.836366710630321"><ele>668.0</ele><time>2026-05-01T14:23:56Z</time></trkpt><trkpt lat="44.309251685870194" lon="7.836459178337993"><ele>668.0</ele><time>2026-05-01T14:23:57Z</time></trkpt><trkpt lat="44.30929969611182" lon="7.836594623609527"><ele>668.0</ele><time>2026-05-01T14:23:58Z</time></trkpt><trkpt lat="44.309336635867716" lon="7.836787691536757"><ele>668.0</ele><time>2026-05-01T14:23:59Z</time></trkpt><trkpt lat="44.30942784196553" lon="7.837002385247925"><ele>668.0</ele><time>2026-05-01T14:24:00Z</time></trkpt><trkpt lat="44.309532162197435" lon="7.837202458634291"><ele>668.3333333333333</ele><time>2026-05-01T14:24:01Z</time></trkpt><trkpt lat="44.30967894801201" lon="7.837380273763237"><ele>668.6666666666666</ele><time>2026-05-01T14:24:02Z</time></trkpt><trkpt lat="44.309821480576666" lon="7.837543989545443"><ele>669.0</ele><time>2026-05-01T14:24:03Z</time></trkpt><trkpt lat="44.309954519860014" lon="7.837628553876492"><ele>669.0</ele><time>2026-05-01T14:24:04Z</time></trkpt><trkpt lat="44.31006350395898" lon="7.837697539432773"><ele>669.0</ele><time>2026-05-01T14:24:05Z</time></trkpt><trkpt lat="44.31016095032604" lon="7.8377212295930345"><ele>669.0</ele><time>2026-05-01T14:24:06Z</time></trkpt><trkpt lat="44.310268115557705" lon="7.837681494002559"><ele>669.0</ele><time>2026-05-01T14:24:07Z</time></trkpt><trkpt lat="44.310398386904055" lon="7.83761789204736"><ele>669.0</ele><time>2026-05-01T14:24:08Z</time></trkpt><trkpt lat="44.31051646166864" lon="7.837523591316646"><ele>669.0</ele><time>2026-05-01T14:24:09Z</time></trkpt><trkpt lat="44.31062878922574" lon="7.8374608658996285"><ele>669.0</ele><time>2026-05-01T14:24:10Z</time></trkpt><trkpt lat="44.31075720447691" lon="7.837404218315851"><ele>669.0</ele><time>2026-05-01T14:24:11Z</time></trkpt><trkpt lat="44.31088890714852" lon="7.83735339186536"><ele>667.0</ele><time>2026-05-01T14:24:12Z</time></trkpt><trkpt lat="44.31102538534052" lon="7.837295831239704"><ele>665.0</ele><time>2026-05-01T14:24:13Z</time></trkpt><trkpt lat="44.31114526165395" lon="7.837253990924107"><ele>663.0</ele><time>2026-05-01T14:24:14Z</time></trkpt><trkpt lat="44.31126141207" lon="7.8371975540975924"><ele>661.0</ele><time>2026-05-01T14:24:15Z</time></trkpt><trkpt lat="44.31138556972596" lon="7.837135110110749"><ele>659.75</ele><time>2026-05-01T14:24:16Z</time></trkpt><trkpt lat="44.31150682475848" lon="7.837074800778677"><ele>658.5</ele><time>2026-05-01T14:24:17Z</time></trkpt><trkpt lat="44.311630104613485" lon="7.8370763429027255"><ele>657.25</ele><time>2026-05-01T14:24:18Z</time></trkpt><trkpt lat="44.31175889221772" lon="7.837069290395536"><ele>656.0</ele><time>2026-05-01T14:24:19Z</time></trkpt><trkpt lat="44.311882714639715" lon="7.837054083962899"><ele>656.0</ele><time>2026-05-01T14:24:20Z</time></trkpt><trkpt lat="44.31200737478203" lon="7.836978862408772"><ele>656.0</ele><time>2026-05-01T14:24:21Z</time></trkpt><trkpt lat="44.31210103946187" lon="7.836890405253007"><ele>656.0</ele><time>2026-05-01T14:24:22Z</time></trkpt><trkpt lat="44.31217242926035" lon="7.8368129957145625"><ele>656.0</ele><time>2026-05-01T14:24:23Z</time></trkpt><trkpt lat="44.31226681635743" lon="7.836785477692626"><ele>656.0</ele><time>2026-05-01T14:24:24Z</time></trkpt><trkpt lat="44.31238327678023" lon="7.83682144501896"><ele>659.0</ele><time>2026-05-01T14:24:25Z</time></trkpt><trkpt lat="44.31249315343207" lon="7.836903903905909"><ele>662.0</ele><time>2026-05-01T14:24:26Z</time></trkpt><trkpt lat="44.312602964533546" lon="7.837000946455765"><ele>665.0</ele><time>2026-05-01T14:24:27Z</time></trkpt><trkpt lat="44.31269614206453" lon="7.837099518742421"><ele>668.0</ele><time>2026-05-01T14:24:28Z</time></trkpt><trkpt lat="44.31276768579124" lon="7.837199989893982"><ele>668.0</ele><time>2026-05-01T14:24:29Z</time></trkpt><trkpt lat="44.312817664448005" lon="7.83732782965684"><ele>668.0</ele><time>2026-05-01T14:24:30Z</time></trkpt><trkpt lat="44.312873216455664" lon="7.837471085257602"><ele>668.0</ele><time>2026-05-01T14:24:31Z</time></trkpt><trkpt lat="44.31295849283147" lon="7.8376097476586555"><ele>668.0</ele><time>2026-05-01T14:24:32Z</time></trkpt><trkpt lat="44.31301970470509" lon="7.837744412975992"><ele>666.5999999999999</ele><time>2026-05-01T14:24:33Z</time></trkpt><trkpt lat="44.31307395648553" lon="7.837860630951136"><ele>665.1999999999999</ele><time>2026-05-01T14:24:34Z</time></trkpt><trkpt lat="44.31314807038024" lon="7.837941799294462"><ele>663.8</ele><time>2026-05-01T14:24:35Z</time></trkpt><trkpt lat="44.313259675966606" lon="7.837959246176502"><ele>662.4</ele><time>2026-05-01T14:24:36Z</time></trkpt><trkpt lat="44.31340082677831" lon="7.837949321368909"><ele>661.0</ele><time>2026-05-01T14:24:37Z</time></trkpt><trkpt lat="44.31356687436178" lon="7.837888161864152"><ele>661.0</ele><time>2026-05-01T14:24:38Z</time></trkpt><trkpt lat="44.313754159519306" lon="7.837835230927563"><ele>661.0</ele><time>2026-05-01T14:24:39Z</time></trkpt><trkpt lat="44.313958165302296" lon="7.837760658516082"><ele>661.0</ele><time>2026-05-01T14:24:40Z</time></trkpt><trkpt lat="44.31415713224179" lon="7.837656304764627"><ele>674.0</ele><time>2026-05-01T14:24:41Z</time></trkpt><trkpt lat="44.31432741169432" lon="7.837563540889227"><ele>687.0</ele><time>2026-05-01T14:24:42Z</time></trkpt><trkpt lat="44.31453200438396" lon="7.837580071631733"><ele>700.0</ele><time>2026-05-01T14:24:43Z</time></trkpt><trkpt lat="44.31473782649513" lon="7.837535057460584"><ele>700.25</ele><time>2026-05-01T14:24:44Z</time></trkpt><trkpt lat="44.314939642277494" lon="7.837531305421849"><ele>700.5</ele><time>2026-05-01T14:24:45Z</time></trkpt><trkpt lat="44.31508134772398" lon="7.837571937886224"><ele>700.75</ele><time>2026-05-01T14:24:46Z</time></trkpt><trkpt lat="44.315159848410616" lon="7.837632658176158"><ele>701.0</ele><time>2026-05-01T14:24:47Z</time></trkpt><trkpt lat="44.315189023993916" lon="7.837720074719697"><ele>694.3333333333333</ele><time>2026-05-01T14:24:48Z</time></trkpt><trkpt lat="44.315198045067106" lon="7.83787921887301"><ele>687.6666666666666</ele><time>2026-05-01T14:24:49Z</time></trkpt><trkpt lat="44.31522190502282" lon="7.838105102837089"><ele>681.0</ele><time>2026-05-01T14:24:50Z</time></trkpt><trkpt lat="44.31527545297963" lon="7.838367541147522"><ele>681.3333333333334</ele><time>2026-05-01T14:24:51Z</time></trkpt><trkpt lat="44.315290411074876" lon="7.838616884856607"><ele>681.6666666666667</ele><time>2026-05-01T14:24:52Z</time></trkpt><trkpt lat="44.315286276592715" lon="7.838844625582343"><ele>682.0</ele><time>2026-05-01T14:24:53Z</time></trkpt><trkpt lat="44.315240355806715" lon="7.839024526895049"><ele>682.0</ele><time>2026-05-01T14:24:54Z</time></trkpt><trkpt lat="44.31518913031775" lon="7.839191185532916"><ele>682.0</ele><time>2026-05-01T14:24:55Z</time></trkpt><trkpt lat="44.31516962890356" lon="7.839342988082184"><ele>682.0</ele><time>2026-05-01T14:24:56Z</time></trkpt><trkpt lat="44.31517103043937" lon="7.839469859060178"><ele>682.0</ele><time>2026-05-01T14:24:57Z</time></trkpt><trkpt lat="44.315207886212455" lon="7.839575529338717"><ele>682.0</ele><time>2026-05-01T14:24:58Z</time></trkpt><trkpt lat="44.3152639898756" lon="7.839643346050184"><ele>679.4000000000001</ele><time>2026-05-01T14:24:59Z</time></trkpt><trkpt lat="44.31535919012518" lon="7.83970964915976"><ele>676.8000000000001</ele><time>2026-05-01T14:25:01Z</time></trkpt><trkpt lat="44.315466379761205" lon="7.839829521519441"><ele>674.2</ele><time>2026-05-01T14:25:03Z</time></trkpt><trkpt lat="44.31550130395719" lon="7.839918724217297"><ele>671.6</ele><time>2026-05-01T14:25:04Z</time></trkpt><trkpt lat="44.31552961042092" lon="7.840039637276473"><ele>669.0</ele><time>2026-05-01T14:25:05Z</time></trkpt><trkpt lat="44.31552191610323" lon="7.840161349943771"><ele>666.25</ele><time>2026-05-01T14:25:06Z</time></trkpt><trkpt lat="44.31545552646001" lon="7.840307951694539"><ele>663.5</ele><time>2026-05-01T14:25:07Z</time></trkpt><trkpt lat="44.315407423162846" lon="7.840497287523853"><ele>660.75</ele><time>2026-05-01T14:25:08Z</time></trkpt><trkpt lat="44.315356591501164" lon="7.840682011469667"><ele>658.0</ele><time>2026-05-01T14:25:09Z</time></trkpt><trkpt lat="44.315409400425125" lon="7.840792196490865"><ele>658.0</ele><time>2026-05-01T14:25:11Z</time></trkpt><trkpt lat="44.31546104736202" lon="7.84087824577744"><ele>658.0</ele><time>2026-05-01T14:25:12Z</time></trkpt><trkpt lat="44.31553243684253" lon="7.84096432722242"><ele>658.0</ele><time>2026-05-01T14:25:13Z</time></trkpt><trkpt lat="44.315592097686135" lon="7.841031817928574"><ele>658.0</ele><time>2026-05-01T14:25:14Z</time></trkpt><trkpt lat="44.315647031999276" lon="7.841086415698107"><ele>658.0</ele><time>2026-05-01T14:25:16Z</time></trkpt><trkpt lat="44.31558836641919" lon="7.840981820574825"><ele>658.0</ele><time>2026-05-01T14:25:40Z</time></trkpt><trkpt lat="44.315535251912706" lon="7.84085788257657"><ele>658.0</ele><time>2026-05-01T14:25:41Z</time></trkpt><trkpt lat="44.31545758425065" lon="7.84078557313145"><ele>658.0</ele><time>2026-05-01T14:25:42Z</time></trkpt><trkpt lat="44.31542171398519" lon="7.840692228300239"><ele>658.0</ele><time>2026-05-01T14:25:43Z</time></trkpt><trkpt lat="44.31541351316192" lon="7.840596580102466"><ele>658.0</ele><time>2026-05-01T14:25:44Z</time></trkpt><trkpt lat="44.315436389551536" lon="7.840509919454731"><ele>658.0</ele><time>2026-05-01T14:25:45Z</time></trkpt><trkpt lat="44.31548008484758" lon="7.84041035178699"><ele>658.0</ele><time>2026-05-01T14:25:46Z</time></trkpt><trkpt lat="44.315514800523" lon="7.840267696640469"><ele>660.2</ele><time>2026-05-01T14:25:47Z</time></trkpt><trkpt lat="44.3155647813817" lon="7.8401148611732765"><ele>662.4</ele><time>2026-05-01T14:25:48Z</time></trkpt><trkpt lat="44.31557172687031" lon="7.839964791020221"><ele>664.6</ele><time>2026-05-01T14:25:49Z</time></trkpt><trkpt lat="44.315527969032665" lon="7.83986782223333"><ele>666.8000000000001</ele><time>2026-05-01T14:25:50Z</time></trkpt><trkpt lat="44.3154637816103" lon="7.839790532506022"><ele>669.0</ele><time>2026-05-01T14:25:51Z</time></trkpt><trkpt lat="44.31539262797286" lon="7.8397229268812785"><ele>669.0</ele><time>2026-05-01T14:25:52Z</time></trkpt><trkpt lat="44.315339407499316" lon="7.839670078323851"><ele>669.0</ele><time>2026-05-01T14:25:53Z</time></trkpt><trkpt lat="44.31530283026704" lon="7.839587418096765"><ele>669.0</ele><time>2026-05-01T14:25:56Z</time></trkpt><trkpt lat="44.31523512894923" lon="7.839503366085831"><ele>669.0</ele><time>2026-05-01T14:25:57Z</time></trkpt><trkpt lat="44.31533775680236" lon="7.839380689307401"><ele>669.0</ele><time>2026-05-01T14:25:58Z</time></trkpt><trkpt lat="44.31535077005117" lon="7.839281976550648"><ele>669.0</ele><time>2026-05-01T14:25:59Z</time></trkpt><trkpt lat="44.315399385158344" lon="7.839171906538236"><ele>671.6</ele><time>2026-05-01T14:26:00Z</time></trkpt><trkpt lat="44.3154726452301" lon="7.839068103105339"><ele>674.2</ele><time>2026-05-01T14:26:01Z</time></trkpt><trkpt lat="44.31553756584994" lon="7.8389659047220706"><ele>676.8000000000001</ele><time>2026-05-01T14:26:02Z</time></trkpt><trkpt lat="44.31559318983669" lon="7.838838888521081"><ele>679.4000000000001</ele><time>2026-05-01T14:26:03Z</time></trkpt><trkpt lat="44.315652729694314" lon="7.838690768850429"><ele>682.0</ele><time>2026-05-01T14:26:04Z</time></trkpt><trkpt lat="44.31570040516144" lon="7.838529909658623"><ele>689.0</ele><time>2026-05-01T14:26:05Z</time></trkpt><trkpt lat="44.315726112022794" lon="7.838370208106192"><ele>696.0</ele><time>2026-05-01T14:26:06Z</time></trkpt><trkpt lat="44.31572557118684" lon="7.838248616135404"><ele>703.0</ele><time>2026-05-01T14:26:07Z</time></trkpt><trkpt lat="44.315740667947374" lon="7.838128950322502"><ele>710.0</ele><time>2026-05-01T14:26:09Z</time></trkpt><trkpt lat="44.31583048374511" lon="7.838013287852527"><ele>717.0</ele><time>2026-05-01T14:26:11Z</time></trkpt><trkpt lat="44.31589629447098" lon="7.837926996262758"><ele>717.0</ele><time>2026-05-01T14:26:12Z</time></trkpt><trkpt lat="44.31595791565139" lon="7.837845781193149"><ele>717.0</ele><time>2026-05-01T14:26:13Z</time></trkpt><trkpt lat="44.316012853909335" lon="7.837763799907185"><ele>717.0</ele><time>2026-05-01T14:26:14Z</time></trkpt><trkpt lat="44.316054653459375" lon="7.837677080483553"><ele>717.0</ele><time>2026-05-01T14:26:15Z</time></trkpt><trkpt lat="44.31608546040356" lon="7.837571285000944"><ele>717.0</ele><time>2026-05-01T14:26:16Z</time></trkpt><trkpt lat="44.316103775081395" lon="7.837439362102763"><ele>717.0</ele><time>2026-05-01T14:26:17Z</time></trkpt><trkpt lat="44.31611358280445" lon="7.837292112088674"><ele>717.0</ele><time>2026-05-01T14:26:18Z</time></trkpt><trkpt lat="44.31611966595251" lon="7.837140544223017"><ele>717.0</ele><time>2026-05-01T14:26:19Z</time></trkpt><trkpt lat="44.316126710202106" lon="7.836980615287464"><ele>717.0</ele><time>2026-05-01T14:26:20Z</time></trkpt><trkpt lat="44.31612982043601" lon="7.836840115982143"><ele>717.0</ele><time>2026-05-01T14:26:21Z</time></trkpt><trkpt lat="44.316127468427695" lon="7.836743655118781"><ele>717.0</ele><time>2026-05-01T14:26:22Z</time></trkpt><trkpt lat="44.316151200046576" lon="7.836618780421308"><ele>721.25</ele><time>2026-05-01T14:26:24Z</time></trkpt><trkpt lat="44.31621555779313" lon="7.83648799200332"><ele>725.5</ele><time>2026-05-01T14:26:29Z</time></trkpt><trkpt lat="44.31622671219701" lon="7.836320509479167"><ele>729.75</ele><time>2026-05-01T14:26:31Z</time></trkpt><trkpt lat="44.316237252903434" lon="7.836147566050719"><ele>734.0</ele><time>2026-05-01T14:26:32Z</time></trkpt><trkpt lat="44.316241286735426" lon="7.835952638941003"><ele>738.75</ele><time>2026-05-01T14:26:33Z</time></trkpt><trkpt lat="44.31624559025192" lon="7.835757153020067"><ele>743.5</ele><time>2026-05-01T14:26:34Z</time></trkpt><trkpt lat="44.31625239027309" lon="7.835571164108808"><ele>748.25</ele><time>2026-05-01T14:26:35Z</time></trkpt><trkpt lat="44.31625732355735" lon="7.835393753808725"><ele>753.0</ele><time>2026-05-01T14:26:36Z</time></trkpt><trkpt lat="44.3163002364731" lon="7.835218993179048"><ele>755.5</ele><time>2026-05-01T14:26:37Z</time></trkpt><trkpt lat="44.31635379254847" lon="7.83503803897063"><ele>758.0</ele><time>2026-05-01T14:26:38Z</time></trkpt><trkpt lat="44.316406899227616" lon="7.834856139880093"><ele>760.5</ele><time>2026-05-01T14:26:39Z</time></trkpt><trkpt lat="44.316454345426436" lon="7.834669035178598"><ele>763.0</ele><time>2026-05-01T14:26:40Z</time></trkpt><trkpt lat="44.31648728846704" lon="7.834482266329003"><ele>764.2</ele><time>2026-05-01T14:26:41Z</time></trkpt><trkpt lat="44.31650102258274" lon="7.8343115553206655"><ele>765.4</ele><time>2026-05-01T14:26:42Z</time></trkpt><trkpt lat="44.31650448967713" lon="7.834173127470397"><ele>766.6</ele><time>2026-05-01T14:26:43Z</time></trkpt><trkpt lat="44.31649184785963" lon="7.8340583081464885"><ele>767.8000000000001</ele><time>2026-05-01T14:26:44Z</time></trkpt><trkpt lat="44.31645227737124" lon="7.833946458970948"><ele>769.0</ele><time>2026-05-01T14:26:45Z</time></trkpt><trkpt lat="44.31640291895858" lon="7.833840229847508"><ele>769.0</ele><time>2026-05-01T14:26:46Z</time></trkpt><trkpt lat="44.316340740026554" lon="7.833728158675615"><ele>769.0</ele><time>2026-05-01T14:26:47Z</time></trkpt><trkpt lat="44.31629046862437" lon="7.8335696659989935"><ele>769.0</ele><time>2026-05-01T14:26:48Z</time></trkpt><trkpt lat="44.316212906344674" lon="7.833433101029306"><ele>769.0</ele><time>2026-05-01T14:26:49Z</time></trkpt><trkpt lat="44.31614677768613" lon="7.8333195997076706"><ele>766.6</ele><time>2026-05-01T14:26:50Z</time></trkpt><trkpt lat="44.316096448667366" lon="7.833225377112356"><ele>764.2</ele><time>2026-05-01T14:26:51Z</time></trkpt><trkpt lat="44.31603674726135" lon="7.833159715884226"><ele>761.8000000000001</ele><time>2026-05-01T14:26:52Z</time></trkpt><trkpt lat="44.3159567399047" lon="7.833130633545809"><ele>759.4000000000001</ele><time>2026-05-01T14:26:53Z</time></trkpt><trkpt lat="44.315854341658245" lon="7.833126890459132"><ele>757.0</ele><time>2026-05-01T14:26:54Z</time></trkpt><trkpt lat="44.31573753233915" lon="7.833152646531046"><ele>757.0</ele><time>2026-05-01T14:26:55Z</time></trkpt><trkpt lat="44.31561667302308" lon="7.8331503890239835"><ele>757.0</ele><time>2026-05-01T14:26:56Z</time></trkpt><trkpt lat="44.315523845138635" lon="7.833139305854635"><ele>757.0</ele><time>2026-05-01T14:26:57Z</time></trkpt><trkpt lat="44.315438414100996" lon="7.833074407693373"><ele>757.0</ele><time>2026-05-01T14:26:59Z</time></trkpt><trkpt lat="44.31548518267634" lon="7.832875893588009"><ele>762.75</ele><time>2026-05-01T14:27:01Z</time></trkpt><trkpt lat="44.31550902988736" lon="7.832692628847238"><ele>768.5</ele><time>2026-05-01T14:27:02Z</time></trkpt><trkpt lat="44.31552333365608" lon="7.832521919538783"><ele>774.25</ele><time>2026-05-01T14:27:03Z</time></trkpt><trkpt lat="44.315515673139075" lon="7.832353218655103"><ele>780.0</ele><time>2026-05-01T14:27:04Z</time></trkpt><trkpt lat="44.31546258480698" lon="7.832164920491544"><ele>780.0</ele><time>2026-05-01T14:27:05Z</time></trkpt><trkpt lat="44.3153931663776" lon="7.831974697952985"><ele>780.0</ele><time>2026-05-01T14:27:06Z</time></trkpt><trkpt lat="44.31531394184807" lon="7.831794550389167"><ele>780.0</ele><time>2026-05-01T14:27:07Z</time></trkpt><trkpt lat="44.31522026396998" lon="7.831607760033588"><ele>777.3333333333333</ele><time>2026-05-01T14:27:08Z</time></trkpt><trkpt lat="44.315104359036475" lon="7.831443645429974"><ele>774.6666666666666</ele><time>2026-05-01T14:27:09Z</time></trkpt><trkpt lat="44.314980437797715" lon="7.831264314853657"><ele>772.0</ele><time>2026-05-01T14:27:10Z</time></trkpt><trkpt lat="44.31486915535742" lon="7.831104586112097"><ele>770.75</ele><time>2026-05-01T14:27:11Z</time></trkpt><trkpt lat="44.31475260928649" lon="7.830940894797718"><ele>769.5</ele><time>2026-05-01T14:27:12Z</time></trkpt><trkpt lat="44.31465506642116" lon="7.830814471475416"><ele>768.25</ele><time>2026-05-01T14:27:13Z</time></trkpt><trkpt lat="44.31459822219742" lon="7.8307115123618045"><ele>767.0</ele><time>2026-05-01T14:27:14Z</time></trkpt><trkpt lat="44.31456164708866" lon="7.830629639939708"><ele>767.0</ele><time>2026-05-01T14:27:15Z</time></trkpt><trkpt lat="44.31462095486627" lon="7.830511122351175"><ele>767.0</ele><time>2026-05-01T14:27:17Z</time></trkpt><trkpt lat="44.31472317061407" lon="7.830452868024096"><ele>767.0</ele><time>2026-05-01T14:27:18Z</time></trkpt><trkpt lat="44.31483656063664" lon="7.830325641961263"><ele>767.0</ele><time>2026-05-01T14:27:19Z</time></trkpt><trkpt lat="44.31497500737569" lon="7.830235042117823"><ele>769.4000000000001</ele><time>2026-05-01T14:27:20Z</time></trkpt><trkpt lat="44.315092552744424" lon="7.8301129628007216"><ele>771.8000000000001</ele><time>2026-05-01T14:27:21Z</time></trkpt><trkpt lat="44.31517605506481" lon="7.830002102894679"><ele>774.2</ele><time>2026-05-01T14:27:22Z</time></trkpt><trkpt lat="44.31525048858607" lon="7.8299113647521725"><ele>776.6</ele><time>2026-05-01T14:27:23Z</time></trkpt><trkpt lat="44.31530197418271" lon="7.829823033962811"><ele>779.0</ele><time>2026-05-01T14:27:24Z</time></trkpt><trkpt lat="44.31535529947015" lon="7.829686967395965"><ele>779.0</ele><time>2026-05-01T14:27:26Z</time></trkpt><trkpt lat="44.31537638342779" lon="7.829586521928211"><ele>779.0</ele><time>2026-05-01T14:27:29Z</time></trkpt><trkpt lat="44.315370911931325" lon="7.829436819032384"><ele>779.0</ele><time>2026-05-01T14:27:31Z</time></trkpt><trkpt lat="44.315345585675765" lon="7.82932440692546"><ele>779.0</ele><time>2026-05-01T14:27:32Z</time></trkpt><trkpt lat="44.31532459848924" lon="7.829183300445479"><ele>779.0</ele><time>2026-05-01T14:27:33Z</time></trkpt><trkpt lat="44.31530615939243" lon="7.829015325340522"><ele>780.2</ele><time>2026-05-01T14:27:34Z</time></trkpt><trkpt lat="44.315244986723656" lon="7.828879000120393"><ele>781.4000000000001</ele><time>2026-05-01T14:27:35Z</time></trkpt><trkpt lat="44.31523033273996" lon="7.828766081524194"><ele>782.6</ele><time>2026-05-01T14:27:36Z</time></trkpt><trkpt lat="44.31523132176956" lon="7.828654855908441"><ele>783.8</ele><time>2026-05-01T14:27:37Z</time></trkpt><trkpt lat="44.31526901802314" lon="7.828566235559469"><ele>785.0</ele><time>2026-05-01T14:27:38Z</time></trkpt><trkpt lat="44.315331776959574" lon="7.828432984970028"><ele>785.0</ele><time>2026-05-01T14:27:39Z</time></trkpt><trkpt lat="44.31538431863544" lon="7.828313844189905"><ele>785.0</ele><time>2026-05-01T14:27:40Z</time></trkpt><trkpt lat="44.31542221739692" lon="7.828186152703797"><ele>785.0</ele><time>2026-05-01T14:27:41Z</time></trkpt><trkpt lat="44.3154586743034" lon="7.828036735395544"><ele>785.0</ele><time>2026-05-01T14:27:42Z</time></trkpt><trkpt lat="44.31548764291848" lon="7.827866426292681"><ele>785.0</ele><time>2026-05-01T14:27:43Z</time></trkpt><trkpt lat="44.31551038711204" lon="7.827702150239063"><ele>785.2</ele><time>2026-05-01T14:27:44Z</time></trkpt><trkpt lat="44.31552910647259" lon="7.827543767452431"><ele>785.4</ele><time>2026-05-01T14:27:45Z</time></trkpt><trkpt lat="44.31554348926016" lon="7.827388055761135"><ele>785.5999999999999</ele><time>2026-05-01T14:27:46Z</time></trkpt><trkpt lat="44.315557436025586" lon="7.827232478088649"><ele>785.8</ele><time>2026-05-01T14:27:47Z</time></trkpt><trkpt lat="44.31557059091752" lon="7.827080370492131"><ele>786.0</ele><time>2026-05-01T14:27:48Z</time></trkpt><trkpt lat="44.31558426414704" lon="7.8269607359021185"><ele>783.0</ele><time>2026-05-01T14:27:49Z</time></trkpt><trkpt lat="44.31561348493168" lon="7.826862407531962"><ele>780.0</ele><time>2026-05-01T14:27:50Z</time></trkpt><trkpt lat="44.315662560649095" lon="7.826789752541552"><ele>777.0</ele><time>2026-05-01T14:27:51Z</time></trkpt><trkpt lat="44.31572090117004" lon="7.826732329462076"><ele>774.0</ele><time>2026-05-01T14:27:52Z</time></trkpt><trkpt lat="44.315785823813364" lon="7.826698979456949"><ele>771.0</ele><time>2026-05-01T14:27:53Z</time></trkpt><trkpt lat="44.31585845216855" lon="7.826692778134259"><ele>768.0</ele><time>2026-05-01T14:27:54Z</time></trkpt><trkpt lat="44.31595385431072" lon="7.826713090297194"><ele>768.0</ele><time>2026-05-01T14:27:55Z</time></trkpt><trkpt lat="44.31606310280217" lon="7.826755585463261"><ele>768.0</ele><time>2026-05-01T14:27:56Z</time></trkpt><trkpt lat="44.31615943805264" lon="7.826812189442344"><ele>768.0</ele><time>2026-05-01T14:27:57Z</time></trkpt><trkpt lat="44.316228399531056" lon="7.8268821637841635"><ele>768.0</ele><time>2026-05-01T14:27:58Z</time></trkpt><trkpt lat="44.31629429828929" lon="7.826937234883719"><ele>768.0</ele><time>2026-05-01T14:27:59Z</time></trkpt><trkpt lat="44.316365055758226" lon="7.82697987291131"><ele>763.3333333333334</ele><time>2026-05-01T14:28:00Z</time></trkpt><trkpt lat="44.316437832490585" lon="7.827012214083739"><ele>758.6666666666666</ele><time>2026-05-01T14:28:01Z</time></trkpt><trkpt lat="44.31651789130919" lon="7.827038357189199"><ele>754.0</ele><time>2026-05-01T14:28:02Z</time></trkpt><trkpt lat="44.31660401446838" lon="7.827044595057006"><ele>749.3333333333333</ele><time>2026-05-01T14:28:03Z</time></trkpt><trkpt lat="44.31669539933736" lon="7.827029334029741"><ele>744.6666666666666</ele><time>2026-05-01T14:28:04Z</time></trkpt><trkpt lat="44.31679559611917" lon="7.82700702701395"><ele>740.0</ele><time>2026-05-01T14:28:05Z</time></trkpt><trkpt lat="44.31689849125996" lon="7.826985845468616"><ele>740.0</ele><time>2026-05-01T14:28:06Z</time></trkpt><trkpt lat="44.316997795671845" lon="7.826966713093128"><ele>740.0</ele><time>2026-05-01T14:28:07Z</time></trkpt><trkpt lat="44.3170880188382" lon="7.826926507089482"><ele>740.0</ele><time>2026-05-01T14:28:08Z</time></trkpt><trkpt lat="44.31717607277957" lon="7.826856774068792"><ele>740.0</ele><time>2026-05-01T14:28:09Z</time></trkpt><trkpt lat="44.317278477617855" lon="7.826761060605446"><ele>740.0</ele><time>2026-05-01T14:28:10Z</time></trkpt><trkpt lat="44.317391183209295" lon="7.826655155252554"><ele>740.4</ele><time>2026-05-01T14:28:11Z</time></trkpt><trkpt lat="44.317495567174426" lon="7.8265666472878195"><ele>740.8</ele><time>2026-05-01T14:28:12Z</time></trkpt><trkpt lat="44.31758063770316" lon="7.826492701356538"><ele>741.2</ele><time>2026-05-01T14:28:13Z</time></trkpt><trkpt lat="44.317643941752834" lon="7.826407150269012"><ele>741.6</ele><time>2026-05-01T14:28:14Z</time></trkpt><trkpt lat="44.317688474118604" lon="7.826303759254359"><ele>742.0</ele><time>2026-05-01T14:28:15Z</time></trkpt><trkpt lat="44.317712012515514" lon="7.826158481897148"><ele>743.75</ele><time>2026-05-01T14:28:16Z</time></trkpt><trkpt lat="44.31770377144105" lon="7.8259771475946325"><ele>745.5</ele><time>2026-05-01T14:28:17Z</time></trkpt><trkpt lat="44.317680549501624" lon="7.8257769008360345"><ele>747.25</ele><time>2026-05-01T14:28:18Z</time></trkpt><trkpt lat="44.31764351435067" lon="7.82558315497501"><ele>749.0</ele><time>2026-05-01T14:28:19Z</time></trkpt><trkpt lat="44.31760405917553" lon="7.825421508043726"><ele>749.0</ele><time>2026-05-01T14:28:20Z</time></trkpt><trkpt lat="44.31758416873225" lon="7.825294992618297"><ele>749.0</ele><time>2026-05-01T14:28:21Z</time></trkpt><trkpt lat="44.31761063382835" lon="7.8251728634792626"><ele>749.0</ele><time>2026-05-01T14:28:22Z</time></trkpt><trkpt lat="44.317673799795195" lon="7.825022635638567"><ele>749.0</ele><time>2026-05-01T14:28:23Z</time></trkpt><trkpt lat="44.31774887827855" lon="7.8248493999994215"><ele>749.6</ele><time>2026-05-01T14:28:24Z</time></trkpt><trkpt lat="44.31783564226661" lon="7.824707262317403"><ele>750.2</ele><time>2026-05-01T14:28:25Z</time></trkpt><trkpt lat="44.3178924282352" lon="7.8245823640867185"><ele>750.8000000000001</ele><time>2026-05-01T14:28:26Z</time></trkpt><trkpt lat="44.31793798327602" lon="7.824463721891867"><ele>751.4000000000001</ele><time>2026-05-01T14:28:27Z</time></trkpt><trkpt lat="44.317964861876845" lon="7.824358752909127"><ele>752.0</ele><time>2026-05-01T14:28:28Z</time></trkpt><trkpt lat="44.317971762150755" lon="7.824252424491901"><ele>752.75</ele><time>2026-05-01T14:28:29Z</time></trkpt><trkpt lat="44.31798668290932" lon="7.824093023363807"><ele>753.5</ele><time>2026-05-01T14:28:30Z</time></trkpt><trkpt lat="44.31798087788272" lon="7.823922065249374"><ele>754.25</ele><time>2026-05-01T14:28:31Z</time></trkpt><trkpt lat="44.31799294700768" lon="7.823726271015319"><ele>755.0</ele><time>2026-05-01T14:28:32Z</time></trkpt><trkpt lat="44.317991158121615" lon="7.82352339779012"><ele>753.6</ele><time>2026-05-01T14:28:33Z</time></trkpt><trkpt lat="44.31800234359758" lon="7.8233342304341535"><ele>752.2</ele><time>2026-05-01T14:28:34Z</time></trkpt><trkpt lat="44.31803147669993" lon="7.823192239075929"><ele>750.8</ele><time>2026-05-01T14:28:35Z</time></trkpt><trkpt lat="44.3180481026834" lon="7.82306342174605"><ele>749.4</ele><time>2026-05-01T14:28:36Z</time></trkpt><trkpt lat="44.31804674701436" lon="7.822965915335526"><ele>748.0</ele><time>2026-05-01T14:28:37Z</time></trkpt><trkpt lat="44.31803059850957" lon="7.822879504384215"><ele>748.0</ele><time>2026-05-01T14:28:38Z</time></trkpt><trkpt lat="44.317953063162584" lon="7.822784445444936"><ele>748.0</ele><time>2026-05-01T14:28:39Z</time></trkpt><trkpt lat="44.317894811091065" lon="7.822667968477773"><ele>748.0</ele><time>2026-05-01T14:28:40Z</time></trkpt><trkpt lat="44.317819490104675" lon="7.8225639887201135"><ele>748.0</ele><time>2026-05-01T14:28:41Z</time></trkpt><trkpt lat="44.317741016052686" lon="7.822459356335283"><ele>748.0</ele><time>2026-05-01T14:28:42Z</time></trkpt><trkpt lat="44.317697711609895" lon="7.822395281755343"><ele>745.0</ele><time>2026-05-01T14:28:43Z</time></trkpt><trkpt lat="44.317664105269024" lon="7.822285574224493"><ele>742.0</ele><time>2026-05-01T14:28:45Z</time></trkpt><trkpt lat="44.31772236248467" lon="7.822121996873033"><ele>739.0</ele><time>2026-05-01T14:28:47Z</time></trkpt><trkpt lat="44.317802766867764" lon="7.82202751506266"><ele>736.0</ele><time>2026-05-01T14:28:48Z</time></trkpt><trkpt lat="44.31792282892234" lon="7.821937633998789"><ele>736.0</ele><time>2026-05-01T14:28:49Z</time></trkpt><trkpt lat="44.31803406499783" lon="7.821853134721479"><ele>736.0</ele><time>2026-05-01T14:28:50Z</time></trkpt><trkpt lat="44.31810374223783" lon="7.8217861513368865"><ele>736.0</ele><time>2026-05-01T14:28:51Z</time></trkpt><trkpt lat="44.31817481540637" lon="7.82170038909875"><ele>736.0</ele><time>2026-05-01T14:28:53Z</time></trkpt><trkpt lat="44.3181864171761" lon="7.821605079530206"><ele>736.0</ele><time>2026-05-01T14:28:54Z</time></trkpt><trkpt lat="44.31820105735726" lon="7.821511049128917"><ele>736.0</ele><time>2026-05-01T14:28:55Z</time></trkpt><trkpt lat="44.31819443033189" lon="7.821408334050107"><ele>734.1666666666667</ele><time>2026-05-01T14:28:56Z</time></trkpt><trkpt lat="44.31815841630552" lon="7.821319434319534"><ele>732.3333333333334</ele><time>2026-05-01T14:28:57Z</time></trkpt><trkpt lat="44.31812850699638" lon="7.821205864419151"><ele>730.5</ele><time>2026-05-01T14:28:58Z</time></trkpt><trkpt lat="44.318043432789864" lon="7.821139922002966"><ele>728.6666666666666</ele><time>2026-05-01T14:28:59Z</time></trkpt><trkpt lat="44.31794532159589" lon="7.821132667370226"><ele>726.8333333333333</ele><time>2026-05-01T14:29:00Z</time></trkpt><trkpt lat="44.317880022528215" lon="7.821127755455774"><ele>725.0</ele><time>2026-05-01T14:29:01Z</time></trkpt><trkpt lat="44.31780786532638" lon="7.821132053683825"><ele>725.0</ele><time>2026-05-01T14:29:02Z</time></trkpt><trkpt lat="44.317740998093505" lon="7.821135602986858"><ele>725.0</ele><time>2026-05-01T14:29:03Z</time></trkpt><trkpt lat="44.31767195618382" lon="7.821138490700605"><ele>725.0</ele><time>2026-05-01T14:29:04Z</time></trkpt><trkpt lat="44.31760274543618" lon="7.821137821994733"><ele>725.0</ele><time>2026-05-01T14:29:05Z</time></trkpt><trkpt lat="44.31752440682526" lon="7.821137065088894"><ele>725.0</ele><time>2026-05-01T14:29:06Z</time></trkpt><trkpt lat="44.31742723334925" lon="7.821122851673994"><ele>725.0</ele><time>2026-05-01T14:29:07Z</time></trkpt><trkpt lat="44.31733927541203" lon="7.821088381969073"><ele>725.0</ele><time>2026-05-01T14:29:08Z</time></trkpt><trkpt lat="44.31729942704071" lon="7.820995117305817"><ele>725.0</ele><time>2026-05-01T14:29:10Z</time></trkpt><trkpt lat="44.3173719119361" lon="7.820979219581227"><ele>725.0</ele><time>2026-05-01T14:29:11Z</time></trkpt><trkpt lat="44.31741871122756" lon="7.8207784112860725"><ele>725.0</ele><time>2026-05-01T14:29:13Z</time></trkpt><trkpt lat="44.31752620835616" lon="7.820660674392501"><ele>725.0</ele><time>2026-05-01T14:29:14Z</time></trkpt><trkpt lat="44.317644775907226" lon="7.820542653028241"><ele>722.25</ele><time>2026-05-01T14:29:15Z</time></trkpt><trkpt lat="44.31776728333892" lon="7.82041576156782"><ele>719.5</ele><time>2026-05-01T14:29:16Z</time></trkpt><trkpt lat="44.3178749546791" lon="7.820293439463539"><ele>716.75</ele><time>2026-05-01T14:29:17Z</time></trkpt><trkpt lat="44.31796903876917" lon="7.820178151220194"><ele>714.0</ele><time>2026-05-01T14:29:18Z</time></trkpt><trkpt lat="44.31806734480061" lon="7.8201182165705845"><ele>710.5</ele><time>2026-05-01T14:29:19Z</time></trkpt><trkpt lat="44.31816950742042" lon="7.820066467839489"><ele>707.0</ele><time>2026-05-01T14:29:20Z</time></trkpt><trkpt lat="44.3182855816784" lon="7.820003103612747"><ele>703.5</ele><time>2026-05-01T14:29:21Z</time></trkpt><trkpt lat="44.318413596073995" lon="7.819963816984068"><ele>700.0</ele><time>2026-05-01T14:29:22Z</time></trkpt><trkpt lat="44.31854440744076" lon="7.819918117623599"><ele>700.0</ele><time>2026-05-01T14:29:23Z</time></trkpt><trkpt lat="44.31867693021942" lon="7.819853719340176"><ele>700.0</ele><time>2026-05-01T14:29:24Z</time></trkpt><trkpt lat="44.318818439283355" lon="7.819761921113929"><ele>700.0</ele><time>2026-05-01T14:29:25Z</time></trkpt><trkpt lat="44.31896063378744" lon="7.819691956967123"><ele>700.0</ele><time>2026-05-01T14:29:26Z</time></trkpt><trkpt lat="44.31909378210726" lon="7.8196454234728625"><ele>699.25</ele><time>2026-05-01T14:29:27Z</time></trkpt><trkpt lat="44.319200971553286" lon="7.819595403709977"><ele>698.5</ele><time>2026-05-01T14:29:28Z</time></trkpt><trkpt lat="44.319286120019804" lon="7.819495419176151"><ele>697.75</ele><time>2026-05-01T14:29:29Z</time></trkpt><trkpt lat="44.319352791976144" lon="7.819335430452853"><ele>697.0</ele><time>2026-05-01T14:29:30Z</time></trkpt><trkpt lat="44.31939841004216" lon="7.819148585207209"><ele>696.0</ele><time>2026-05-01T14:29:31Z</time></trkpt><trkpt lat="44.31943136669109" lon="7.8189868541623895"><ele>695.0</ele><time>2026-05-01T14:29:32Z</time></trkpt><trkpt lat="44.31947557047549" lon="7.818856902829184"><ele>694.0</ele><time>2026-05-01T14:29:33Z</time></trkpt><trkpt lat="44.31953548414497" lon="7.818735778373359"><ele>693.0</ele><time>2026-05-01T14:29:34Z</time></trkpt><trkpt lat="44.31961715273975" lon="7.818595836256297"><ele>691.6666666666666</ele><time>2026-05-01T14:29:35Z</time></trkpt><trkpt lat="44.31971215341644" lon="7.81844019275104"><ele>690.3333333333333</ele><time>2026-05-01T14:29:36Z</time></trkpt><trkpt lat="44.31980833915775" lon="7.818274491042801"><ele>689.0</ele><time>2026-05-01T14:29:37Z</time></trkpt><trkpt lat="44.319906049224684" lon="7.818098504208113"><ele>689.0</ele><time>2026-05-01T14:29:38Z</time></trkpt><trkpt lat="44.319997306044" lon="7.817928044925606"><ele>689.0</ele><time>2026-05-01T14:29:39Z</time></trkpt><trkpt lat="44.32008139365276" lon="7.817773825039342"><ele>689.0</ele><time>2026-05-01T14:29:40Z</time></trkpt><trkpt lat="44.320160805987" lon="7.817627079188331"><ele>689.0</ele><time>2026-05-01T14:29:41Z</time></trkpt><trkpt lat="44.320242280706964" lon="7.817509321905455"><ele>688.5</ele><time>2026-05-01T14:29:42Z</time></trkpt><trkpt lat="44.32031228838306" lon="7.817360092463258"><ele>688.0</ele><time>2026-05-01T14:29:43Z</time></trkpt><trkpt lat="44.32040590410168" lon="7.817222360460363"><ele>687.5</ele><time>2026-05-01T14:29:44Z</time></trkpt><trkpt lat="44.32050378103565" lon="7.817093336462989"><ele>687.0</ele><time>2026-05-01T14:29:45Z</time></trkpt><trkpt lat="44.32059364066607" lon="7.816974691655623"><ele>688.5</ele><time>2026-05-01T14:29:46Z</time></trkpt><trkpt lat="44.32067846652586" lon="7.816870941032536"><ele>690.0</ele><time>2026-05-01T14:29:47Z</time></trkpt><trkpt lat="44.320764087879525" lon="7.816776069113804"><ele>691.5</ele><time>2026-05-01T14:29:48Z</time></trkpt><trkpt lat="44.32084128492493" lon="7.816666179769521"><ele>693.0</ele><time>2026-05-01T14:29:49Z</time></trkpt><trkpt lat="44.32090558588732" lon="7.816523117272193"><ele>690.2</ele><time>2026-05-01T14:29:50Z</time></trkpt><trkpt lat="44.32096094493451" lon="7.816368447440891"><ele>687.4</ele><time>2026-05-01T14:29:51Z</time></trkpt><trkpt lat="44.32100457434081" lon="7.816241231906668"><ele>684.6</ele><time>2026-05-01T14:29:52Z</time></trkpt><trkpt lat="44.32104211724126" lon="7.816132559586385"><ele>681.8000000000001</ele><time>2026-05-01T14:29:53Z</time></trkpt><trkpt lat="44.32106761106666" lon="7.816042636668529"><ele>679.0</ele><time>2026-05-01T14:29:54Z</time></trkpt><trkpt lat="44.32109865856111" lon="7.815914507821992"><ele>677.4000000000001</ele><time>2026-05-01T14:29:56Z</time></trkpt><trkpt lat="44.32106889144046" lon="7.815789640499636"><ele>675.8</ele><time>2026-05-01T14:29:58Z</time></trkpt><trkpt lat="44.32104233002441" lon="7.815652659602697"><ele>674.2</ele><time>2026-05-01T14:30:00Z</time></trkpt><trkpt lat="44.32101974531638" lon="7.815554002474264"><ele>672.5999999999999</ele><time>2026-05-01T14:30:01Z</time></trkpt><trkpt lat="44.320994864050576" lon="7.815427280377154"><ele>671.0</ele><time>2026-05-01T14:30:02Z</time></trkpt><trkpt lat="44.32096216464269" lon="7.815285250678309"><ele>668.4</ele><time>2026-05-01T14:30:03Z</time></trkpt><trkpt lat="44.32091520468006" lon="7.815152882938673"><ele>665.8</ele><time>2026-05-01T14:30:04Z</time></trkpt><trkpt lat="44.320871150924475" lon="7.8150172531066975"><ele>663.1999999999999</ele><time>2026-05-01T14:30:05Z</time></trkpt><trkpt lat="44.320787130031874" lon="7.814910313505648"><ele>660.5999999999999</ele><time>2026-05-01T14:30:06Z</time></trkpt><trkpt lat="44.32068198966217" lon="7.814829839792476"><ele>658.0</ele><time>2026-05-01T14:30:07Z</time></trkpt><trkpt lat="44.32057544260699" lon="7.814745457743914"><ele>660.25</ele><time>2026-05-01T14:30:08Z</time></trkpt><trkpt lat="44.3204652039163" lon="7.814668572581112"><ele>662.5</ele><time>2026-05-01T14:30:09Z</time></trkpt><trkpt lat="44.320346134076594" lon="7.814601783399987"><ele>664.75</ele><time>2026-05-01T14:30:10Z</time></trkpt><trkpt lat="44.32021618723727" lon="7.814561122552204"><ele>667.0</ele><time>2026-05-01T14:30:11Z</time></trkpt><trkpt lat="44.32011243112402" lon="7.814503998889927"><ele>667.0</ele><time>2026-05-01T14:30:12Z</time></trkpt><trkpt lat="44.320025387845234" lon="7.814482554024477"><ele>667.0</ele><time>2026-05-01T14:30:13Z</time></trkpt><trkpt lat="44.319930907648555" lon="7.814489564690076"><ele>667.0</ele><time>2026-05-01T14:30:14Z</time></trkpt><trkpt lat="44.31980865816053" lon="7.81448955158457"><ele>667.0</ele><time>2026-05-01T14:30:15Z</time></trkpt><trkpt lat="44.31970005548792" lon="7.81450053149234"><ele>667.0</ele><time>2026-05-01T14:30:16Z</time></trkpt><trkpt lat="44.31962952525837" lon="7.814499439816295"><ele>666.8</ele><time>2026-05-01T14:30:17Z</time></trkpt><trkpt lat="44.319562942848705" lon="7.814442431377604"><ele>666.6</ele><time>2026-05-01T14:30:19Z</time></trkpt><trkpt lat="44.31961240191937" lon="7.814278713415685"><ele>666.4</ele><time>2026-05-01T14:30:21Z</time></trkpt><trkpt lat="44.31969863983219" lon="7.814200305260555"><ele>666.1999999999999</ele><time>2026-05-01T14:30:22Z</time></trkpt><trkpt lat="44.319814968995395" lon="7.8140917931405856"><ele>666.0</ele><time>2026-05-01T14:30:23Z</time></trkpt><trkpt lat="44.319941352862514" lon="7.813982522102409"><ele>663.75</ele><time>2026-05-01T14:30:24Z</time></trkpt><trkpt lat="44.32007991150453" lon="7.813948366612711"><ele>661.5</ele><time>2026-05-01T14:30:25Z</time></trkpt><trkpt lat="44.32022196598679" lon="7.813875519286876"><ele>659.25</ele><time>2026-05-01T14:30:26Z</time></trkpt><trkpt lat="44.32036248095727" lon="7.813795062124058"><ele>657.0</ele><time>2026-05-01T14:30:27Z</time></trkpt><trkpt lat="44.32049590392689" lon="7.813686746284861"><ele>656.5</ele><time>2026-05-01T14:30:28Z</time></trkpt><trkpt lat="44.320623095578256" lon="7.813595772708359"><ele>656.0</ele><time>2026-05-01T14:30:29Z</time></trkpt><trkpt lat="44.32072032032925" lon="7.8135191841655836"><ele>655.5</ele><time>2026-05-01T14:30:30Z</time></trkpt><trkpt lat="44.32080172299468" lon="7.813441790441478"><ele>655.0</ele><time>2026-05-01T14:30:31Z</time></trkpt><trkpt lat="44.32087564571717" lon="7.813339819997861"><ele>655.0</ele><time>2026-05-01T14:30:32Z</time></trkpt><trkpt lat="44.32094387235354" lon="7.8131833086423885"><ele>655.0</ele><time>2026-05-01T14:30:33Z</time></trkpt><trkpt lat="44.32102768635609" lon="7.813012617134148"><ele>655.0</ele><time>2026-05-01T14:30:34Z</time></trkpt><trkpt lat="44.32112582474509" lon="7.812889235814302"><ele>655.0</ele><time>2026-05-01T14:30:35Z</time></trkpt><trkpt lat="44.32122236684564" lon="7.812801320463393"><ele>655.0</ele><time>2026-05-01T14:30:36Z</time></trkpt><trkpt lat="44.32130244722683" lon="7.812697093948769"><ele>655.0</ele><time>2026-05-01T14:30:37Z</time></trkpt><trkpt lat="44.32136126544967" lon="7.812557807620126"><ele>655.0</ele><time>2026-05-01T14:30:38Z</time></trkpt><trkpt lat="44.3214166976054" lon="7.812416949358579"><ele>655.0</ele><time>2026-05-01T14:30:39Z</time></trkpt><trkpt lat="44.321496174300584" lon="7.812278239863404"><ele>654.0</ele><time>2026-05-01T14:30:40Z</time></trkpt><trkpt lat="44.32157076199547" lon="7.812145492424727"><ele>653.0</ele><time>2026-05-01T14:30:41Z</time></trkpt><trkpt lat="44.32164633697962" lon="7.812018868918241"><ele>652.0</ele><time>2026-05-01T14:30:42Z</time></trkpt><trkpt lat="44.32171726480655" lon="7.81190797559674"><ele>651.0</ele><time>2026-05-01T14:30:43Z</time></trkpt><trkpt lat="44.32177504159364" lon="7.811816642721479"><ele>650.0</ele><time>2026-05-01T14:30:44Z</time></trkpt><trkpt lat="44.321830547890585" lon="7.811735997238283"><ele>652.8</ele><time>2026-05-01T14:30:45Z</time></trkpt><trkpt lat="44.32188041099565" lon="7.811630112685055"><ele>655.6</ele><time>2026-05-01T14:30:46Z</time></trkpt><trkpt lat="44.32194541017667" lon="7.8115025318069895"><ele>658.4000000000001</ele><time>2026-05-01T14:30:47Z</time></trkpt><trkpt lat="44.32198261343644" lon="7.811406466156088"><ele>661.2</ele><time>2026-05-01T14:30:48Z</time></trkpt><trkpt lat="44.3220035624832" lon="7.811288514439618"><ele>664.0</ele><time>2026-05-01T14:30:49Z</time></trkpt><trkpt lat="44.32203294698277" lon="7.811163025278333"><ele>664.0</ele><time>2026-05-01T14:30:50Z</time></trkpt><trkpt lat="44.322052065527956" lon="7.811032208312189"><ele>664.0</ele><time>2026-05-01T14:30:51Z</time></trkpt><trkpt lat="44.32206520661253" lon="7.810870827009192"><ele>664.0</ele><time>2026-05-01T14:30:52Z</time></trkpt><trkpt lat="44.32207034491351" lon="7.810698365176015"><ele>664.0</ele><time>2026-05-01T14:30:53Z</time></trkpt><trkpt lat="44.32206345895955" lon="7.810488120035197"><ele>667.25</ele><time>2026-05-01T14:30:54Z</time></trkpt><trkpt lat="44.32205493991958" lon="7.810248974057931"><ele>670.5</ele><time>2026-05-01T14:30:55Z</time></trkpt><trkpt lat="44.32206971977606" lon="7.81007563865929"><ele>673.75</ele><time>2026-05-01T14:30:56Z</time></trkpt><trkpt lat="44.32210627438738" lon="7.809926580579767"><ele>677.0</ele><time>2026-05-01T14:30:57Z</time></trkpt><trkpt lat="44.32215489968478" lon="7.8097942936080385"><ele>677.4000000000001</ele><time>2026-05-01T14:30:58Z</time></trkpt><trkpt lat="44.32221013176761" lon="7.809645376934256"><ele>677.8000000000001</ele><time>2026-05-01T14:30:59Z</time></trkpt><trkpt lat="44.32226636621376" lon="7.809515444644413"><ele>678.2</ele><time>2026-05-01T14:31:00Z</time></trkpt><trkpt lat="44.32233291933548" lon="7.809405788589847"><ele>678.6</ele><time>2026-05-01T14:31:01Z</time></trkpt><trkpt lat="44.32238532371599" lon="7.809339366537737"><ele>679.0</ele><time>2026-05-01T14:31:02Z</time></trkpt><trkpt lat="44.322436262042785" lon="7.8092582309838985"><ele>677.5</ele><time>2026-05-01T14:31:04Z</time></trkpt><trkpt lat="44.322375504907164" lon="7.8091499108726845"><ele>676.0</ele><time>2026-05-01T14:31:07Z</time></trkpt><trkpt lat="44.32230997857934" lon="7.809156495809994"><ele>674.5</ele><time>2026-05-01T14:31:08Z</time></trkpt><trkpt lat="44.32220098261822" lon="7.80914831580444"><ele>673.0</ele><time>2026-05-01T14:31:09Z</time></trkpt><trkpt lat="44.32210733528926" lon="7.809161514790353"><ele>671.5</ele><time>2026-05-01T14:31:10Z</time></trkpt><trkpt lat="44.32203590295548" lon="7.809145112395528"><ele>670.0</ele><time>2026-05-01T14:31:11Z</time></trkpt><trkpt lat="44.321931451154114" lon="7.809153676647873"><ele>670.0</ele><time>2026-05-01T14:31:13Z</time></trkpt><trkpt lat="44.321862415291925" lon="7.809153713211338"><ele>670.0</ele><time>2026-05-01T14:31:15Z</time></trkpt><trkpt lat="44.32179294039851" lon="7.80914349888332"><ele>670.0</ele><time>2026-05-01T14:31:18Z</time></trkpt><trkpt lat="44.32173340869526" lon="7.809103018269911"><ele>670.0</ele><time>2026-05-01T14:31:26Z</time></trkpt><trkpt lat="44.32163405737208" lon="7.809011869515563"><ele>670.0</ele><time>2026-05-01T14:31:28Z</time></trkpt><trkpt lat="44.321556763904375" lon="7.809009458269359"><ele>670.0</ele><time>2026-05-01T14:31:29Z</time></trkpt><trkpt lat="44.3214757231037" lon="7.80900042918269"><ele>671.0</ele><time>2026-05-01T14:31:30Z</time></trkpt><trkpt lat="44.32139025652689" lon="7.808944070196657"><ele>672.0</ele><time>2026-05-01T14:31:31Z</time></trkpt><trkpt lat="44.32129933641317" lon="7.808906199400745"><ele>673.0</ele><time>2026-05-01T14:31:32Z</time></trkpt><trkpt lat="44.321229961814296" lon="7.808830892931213"><ele>674.0</ele><time>2026-05-01T14:31:33Z</time></trkpt><trkpt lat="44.32116185015954" lon="7.808754156158027"><ele>675.0</ele><time>2026-05-01T14:31:34Z</time></trkpt><trkpt lat="44.3210993494925" lon="7.808697482799008"><ele>676.0</ele><time>2026-05-01T14:31:35Z</time></trkpt><trkpt lat="44.321033218566456" lon="7.808637373765299"><ele>676.0</ele><time>2026-05-01T14:31:36Z</time></trkpt><trkpt lat="44.32096628566908" lon="7.808584036431064"><ele>676.0</ele><time>2026-05-01T14:31:37Z</time></trkpt><trkpt lat="44.32090230210768" lon="7.808537862875595"><ele>676.0</ele><time>2026-05-01T14:31:38Z</time></trkpt><trkpt lat="44.32085140622317" lon="7.808455293577469"><ele>676.0</ele><time>2026-05-01T14:31:41Z</time></trkpt><trkpt lat="44.320977147247696" lon="7.808349904871195"><ele>676.0</ele><time>2026-05-01T14:31:44Z</time></trkpt><trkpt lat="44.32106853310117" lon="7.80831246107149"><ele>672.0</ele><time>2026-05-01T14:31:45Z</time></trkpt><trkpt lat="44.321144836171136" lon="7.808263281412324"><ele>668.0</ele><time>2026-05-01T14:31:46Z</time></trkpt><trkpt lat="44.32124896772297" lon="7.808187561187216"><ele>664.0</ele><time>2026-05-01T14:31:47Z</time></trkpt><trkpt lat="44.32133620120555" lon="7.808116206102817"><ele>660.0</ele><time>2026-05-01T14:31:48Z</time></trkpt><trkpt lat="44.32141838671944" lon="7.808052713420311"><ele>656.0</ele><time>2026-05-01T14:31:49Z</time></trkpt><trkpt lat="44.32151058421127" lon="7.808000794878961"><ele>655.5999999999999</ele><time>2026-05-01T14:31:50Z</time></trkpt><trkpt lat="44.32162815706188" lon="7.807955470544455"><ele>655.2</ele><time>2026-05-01T14:31:51Z</time></trkpt><trkpt lat="44.32173780513012" lon="7.807922539055623"><ele>654.8</ele><time>2026-05-01T14:31:52Z</time></trkpt><trkpt lat="44.32182014470843" lon="7.8078414158867115"><ele>654.4000000000001</ele><time>2026-05-01T14:31:53Z</time></trkpt><trkpt lat="44.321906899309994" lon="7.807756561825506"><ele>654.0</ele><time>2026-05-01T14:31:54Z</time></trkpt><trkpt lat="44.32199585403678" lon="7.807690072982961"><ele>651.6</ele><time>2026-05-01T14:31:55Z</time></trkpt><trkpt lat="44.32206012931215" lon="7.807633969141331"><ele>649.2</ele><time>2026-05-01T14:31:56Z</time></trkpt><trkpt lat="44.32212964440354" lon="7.807597914303536"><ele>646.8000000000001</ele><time>2026-05-01T14:31:57Z</time></trkpt><trkpt lat="44.322228984270176" lon="7.8075749816742785"><ele>644.4000000000001</ele><time>2026-05-01T14:31:58Z</time></trkpt><trkpt lat="44.322337468341985" lon="7.807559483787957"><ele>642.0</ele><time>2026-05-01T14:31:59Z</time></trkpt><trkpt lat="44.32244751106192" lon="7.807595286449255"><ele>642.0</ele><time>2026-05-01T14:32:00Z</time></trkpt><trkpt lat="44.32255549890687" lon="7.807651729668415"><ele>642.0</ele><time>2026-05-01T14:32:01Z</time></trkpt><trkpt lat="44.32265750426148" lon="7.807685472595832"><ele>642.0</ele><time>2026-05-01T14:32:02Z</time></trkpt><trkpt lat="44.32275363790042" lon="7.807684312487715"><ele>642.0</ele><time>2026-05-01T14:32:03Z</time></trkpt><trkpt lat="44.322856378498976" lon="7.807642090373036"><ele>642.0</ele><time>2026-05-01T14:32:04Z</time></trkpt><trkpt lat="44.32296074394249" lon="7.807602627402616"><ele>642.0</ele><time>2026-05-01T14:32:05Z</time></trkpt><trkpt lat="44.32304774161054" lon="7.807559909543091"><ele>642.0</ele><time>2026-05-01T14:32:06Z</time></trkpt><trkpt lat="44.32311404726722" lon="7.807541520820578"><ele>642.0</ele><time>2026-05-01T14:32:07Z</time></trkpt><trkpt lat="44.32316962406428" lon="7.807478553162312"><ele>642.0</ele><time>2026-05-01T14:32:08Z</time></trkpt><trkpt lat="44.32322618239214" lon="7.807409316759733"><ele>642.0</ele><time>2026-05-01T14:32:09Z</time></trkpt><trkpt lat="44.32329405870081" lon="7.807330469179639"><ele>642.0</ele><time>2026-05-01T14:32:10Z</time></trkpt><trkpt lat="44.323369406147656" lon="7.807253728766993"><ele>643.0</ele><time>2026-05-01T14:32:11Z</time></trkpt><trkpt lat="44.3234740391563" lon="7.807175079906808"><ele>644.0</ele><time>2026-05-01T14:32:12Z</time></trkpt><trkpt lat="44.32359314858775" lon="7.807084635804906"><ele>645.0</ele><time>2026-05-01T14:32:13Z</time></trkpt><trkpt lat="44.32369490748738" lon="7.8069868371099"><ele>646.0</ele><time>2026-05-01T14:32:14Z</time></trkpt><trkpt lat="44.32377433690973" lon="7.806871707166334"><ele>645.1999999999999</ele><time>2026-05-01T14:32:15Z</time></trkpt><trkpt lat="44.323866769169214" lon="7.8068184213952545"><ele>644.4</ele><time>2026-05-01T14:32:16Z</time></trkpt><trkpt lat="44.32393652446196" lon="7.806747941065345"><ele>643.6</ele><time>2026-05-01T14:32:17Z</time></trkpt><trkpt lat="44.32398529823295" lon="7.806639734933385"><ele>642.8</ele><time>2026-05-01T14:32:18Z</time></trkpt><trkpt lat="44.324017488264914" lon="7.806507734659106"><ele>642.0</ele><time>2026-05-01T14:32:19Z</time></trkpt><trkpt lat="44.32403762907818" lon="7.806371534749789"><ele>642.0</ele><time>2026-05-01T14:32:20Z</time></trkpt><trkpt lat="44.32408715176946" lon="7.80625517015751"><ele>642.0</ele><time>2026-05-01T14:32:21Z</time></trkpt><trkpt lat="44.324121725341406" lon="7.806153723161358"><ele>642.0</ele><time>2026-05-01T14:32:22Z</time></trkpt><trkpt lat="44.32416404004633" lon="7.806072680879851"><ele>642.0</ele><time>2026-05-01T14:32:23Z</time></trkpt><trkpt lat="44.32427629611548" lon="7.806037377396008"><ele>642.0</ele><time>2026-05-01T14:32:25Z</time></trkpt><trkpt lat="44.324349320215916" lon="7.806047577297167"><ele>642.0</ele><time>2026-05-01T14:32:26Z</time></trkpt><trkpt lat="44.32444450644248" lon="7.806049273360779"><ele>642.0</ele><time>2026-05-01T14:32:27Z</time></trkpt><trkpt lat="44.324514784400364" lon="7.806073227723446"><ele>642.0</ele><time>2026-05-01T14:32:28Z</time></trkpt><trkpt lat="44.32457881708881" lon="7.806122383093332"><ele>642.0</ele><time>2026-05-01T14:32:29Z</time></trkpt><trkpt lat="44.32467940545524" lon="7.8061959944118815"><ele>642.0</ele><time>2026-05-01T14:32:30Z</time></trkpt><trkpt lat="44.32479657960254" lon="7.80624601089175"><ele>642.0</ele><time>2026-05-01T14:32:31Z</time></trkpt><trkpt lat="44.32489232635657" lon="7.8062894796605145"><ele>642.0</ele><time>2026-05-01T14:32:32Z</time></trkpt><trkpt lat="44.324962836076786" lon="7.8063391294382924"><ele>642.0</ele><time>2026-05-01T14:32:33Z</time></trkpt><trkpt lat="44.32502561818876" lon="7.806379729659204"><ele>642.0</ele><time>2026-05-01T14:32:34Z</time></trkpt><trkpt lat="44.32518998783489" lon="7.806210265208445"><ele>642.0</ele><time>2026-05-01T14:32:37Z</time></trkpt><trkpt lat="44.325183147259075" lon="7.806065629011288"><ele>639.0</ele><time>2026-05-01T14:32:38Z</time></trkpt><trkpt lat="44.325173802739414" lon="7.80592346443727"><ele>636.0</ele><time>2026-05-01T14:32:39Z</time></trkpt><trkpt lat="44.325136233064605" lon="7.805777999622666"><ele>633.0</ele><time>2026-05-01T14:32:40Z</time></trkpt><trkpt lat="44.32507295645342" lon="7.805629136830962"><ele>630.0</ele><time>2026-05-01T14:32:41Z</time></trkpt><trkpt lat="44.32494608195813" lon="7.805514977710096"><ele>630.0</ele><time>2026-05-01T14:32:42Z</time></trkpt><trkpt lat="44.32484883621996" lon="7.805413285916412"><ele>630.0</ele><time>2026-05-01T14:32:43Z</time></trkpt><trkpt lat="44.3247694849727" lon="7.805361790497302"><ele>630.0</ele><time>2026-05-01T14:32:44Z</time></trkpt><trkpt lat="44.32471390903878" lon="7.805313709959123"><ele>630.0</ele><time>2026-05-01T14:32:45Z</time></trkpt><trkpt lat="44.32470546325732" lon="7.805201476674919"><ele>630.0</ele><time>2026-05-01T14:32:46Z</time></trkpt><trkpt lat="44.32469805024353" lon="7.805039544398234"><ele>624.8</ele><time>2026-05-01T14:32:48Z</time></trkpt><trkpt lat="44.32469433650321" lon="7.804882206727094"><ele>619.6</ele><time>2026-05-01T14:32:49Z</time></trkpt><trkpt lat="44.32466470177621" lon="7.8047400746010185"><ele>614.4</ele><time>2026-05-01T14:32:50Z</time></trkpt><trkpt lat="44.32459346869201" lon="7.804628219399117"><ele>609.2</ele><time>2026-05-01T14:32:51Z</time></trkpt><trkpt lat="44.324509562189405" lon="7.804501692543624"><ele>604.0</ele><time>2026-05-01T14:32:52Z</time></trkpt><trkpt lat="44.32445876101855" lon="7.8043733430500675"><ele>603.0</ele><time>2026-05-01T14:32:53Z</time></trkpt><trkpt lat="44.32443395694143" lon="7.804257920104301"><ele>602.0</ele><time>2026-05-01T14:32:54Z</time></trkpt><trkpt lat="44.324432899629315" lon="7.804150948597314"><ele>601.0</ele><time>2026-05-01T14:32:55Z</time></trkpt><trkpt lat="44.32441153573277" lon="7.804038889886995"><ele>600.0</ele><time>2026-05-01T14:32:56Z</time></trkpt><trkpt lat="44.324391282496684" lon="7.803923080459803"><ele>599.0</ele><time>2026-05-01T14:32:57Z</time></trkpt><trkpt lat="44.32434617551217" lon="7.8038054998585"><ele>598.0</ele><time>2026-05-01T14:32:58Z</time></trkpt><trkpt lat="44.3242852976062" lon="7.803697463212498"><ele>598.0</ele><time>2026-05-01T14:32:59Z</time></trkpt><trkpt lat="44.32425169901343" lon="7.8035451292591125"><ele>598.0</ele><time>2026-05-01T14:33:01Z</time></trkpt><trkpt lat="44.32423592348206" lon="7.803432864179572"><ele>598.0</ele><time>2026-05-01T14:33:03Z</time></trkpt><trkpt lat="44.324158592403286" lon="7.803053950465824"><ele>596.25</ele><time>2026-05-01T14:33:04Z</time></trkpt><trkpt lat="44.32411056629344" lon="7.802923227695559"><ele>594.5</ele><time>2026-05-01T14:33:05Z</time></trkpt><trkpt lat="44.32405063404207" lon="7.802781146986832"><ele>592.75</ele><time>2026-05-01T14:33:06Z</time></trkpt><trkpt lat="44.32398038163714" lon="7.8026265452073345"><ele>591.0</ele><time>2026-05-01T14:33:07Z</time></trkpt><trkpt lat="44.32391272181294" lon="7.802503741865978"><ele>590.0</ele><time>2026-05-01T14:33:08Z</time></trkpt><trkpt lat="44.323852613667896" lon="7.802424866855282"><ele>589.0</ele><time>2026-05-01T14:33:09Z</time></trkpt><trkpt lat="44.32376534547019" lon="7.802378027622205"><ele>588.0</ele><time>2026-05-01T14:33:11Z</time></trkpt><trkpt lat="44.32365618398231" lon="7.80247973175815"><ele>587.0</ele><time>2026-05-01T14:33:13Z</time></trkpt><trkpt lat="44.32360659896723" lon="7.802567539953494"><ele>586.0</ele><time>2026-05-01T14:33:14Z</time></trkpt><trkpt lat="44.323576191615054" lon="7.802686802726806"><ele>586.0</ele><time>2026-05-01T14:33:15Z</time></trkpt><trkpt lat="44.32356897923449" lon="7.802797372382224"><ele>586.0</ele><time>2026-05-01T14:33:16Z</time></trkpt><trkpt lat="44.32350791551475" lon="7.802848163489349"><ele>586.0</ele><time>2026-05-01T14:33:18Z</time></trkpt><trkpt lat="44.323500503066974" lon="7.802632669069642"><ele>586.0</ele><time>2026-05-01T14:33:21Z</time></trkpt><trkpt lat="44.323521295371535" lon="7.8025124112703335"><ele>586.0</ele><time>2026-05-01T14:33:22Z</time></trkpt><trkpt lat="44.32356371714519" lon="7.80240335197358"><ele>583.0</ele><time>2026-05-01T14:33:23Z</time></trkpt><trkpt lat="44.32362121633147" lon="7.802296030791448"><ele>580.0</ele><time>2026-05-01T14:33:24Z</time></trkpt><trkpt lat="44.32366557147491" lon="7.802191448349189"><ele>577.0</ele><time>2026-05-01T14:33:25Z</time></trkpt><trkpt lat="44.32369925391452" lon="7.802069152135617"><ele>574.0</ele><time>2026-05-01T14:33:26Z</time></trkpt><trkpt lat="44.32374281712347" lon="7.801980956675455"><ele>571.0</ele><time>2026-05-01T14:33:27Z</time></trkpt><trkpt lat="44.32380769804098" lon="7.801933501636859"><ele>568.0</ele><time>2026-05-01T14:33:28Z</time></trkpt><trkpt lat="44.32386246747586" lon="7.8018763119861925"><ele>567.6</ele><time>2026-05-01T14:33:29Z</time></trkpt><trkpt lat="44.32392801895858" lon="7.8018473520050335"><ele>567.1999999999999</ele><time>2026-05-01T14:33:30Z</time></trkpt><trkpt lat="44.323987932432736" lon="7.801808661892941"><ele>566.8</ele><time>2026-05-01T14:33:31Z</time></trkpt><trkpt lat="44.3240486454944" lon="7.80165288514279"><ele>566.4</ele><time>2026-05-01T14:33:33Z</time></trkpt><trkpt lat="44.324084535053956" lon="7.801578384665193"><ele>566.0</ele><time>2026-05-01T14:33:35Z</time></trkpt><trkpt lat="44.32399399632974" lon="7.801455443086905"><ele>566.0</ele><time>2026-05-01T14:33:38Z</time></trkpt><trkpt lat="44.32393596878687" lon="7.801411686242978"><ele>566.0</ele><time>2026-05-01T14:33:39Z</time></trkpt><trkpt lat="44.32399829987549" lon="7.801248188786751"><ele>566.0</ele><time>2026-05-01T14:33:42Z</time></trkpt><trkpt lat="44.32406032002639" lon="7.801146667141529"><ele>566.0</ele><time>2026-05-01T14:33:43Z</time></trkpt><trkpt lat="44.324136312851394" lon="7.801007244774223"><ele>566.0</ele><time>2026-05-01T14:33:44Z</time></trkpt><trkpt lat="44.324210839626154" lon="7.800855014009489"><ele>564.0</ele><time>2026-05-01T14:33:45Z</time></trkpt><trkpt lat="44.324303552985135" lon="7.800697767975922"><ele>562.0</ele><time>2026-05-01T14:33:46Z</time></trkpt><trkpt lat="44.32442901261175" lon="7.800592346551159"><ele>560.0</ele><time>2026-05-01T14:33:47Z</time></trkpt><trkpt lat="44.32456179020084" lon="7.800475365848951"><ele>558.0</ele><time>2026-05-01T14:33:48Z</time></trkpt><trkpt lat="44.324721014066796" lon="7.800382875401437"><ele>558.0</ele><time>2026-05-01T14:33:49Z</time></trkpt><trkpt lat="44.32488585296254" lon="7.800275568896595"><ele>558.0</ele><time>2026-05-01T14:33:50Z</time></trkpt><trkpt lat="44.3250391104171" lon="7.800183756581024"><ele>558.0</ele><time>2026-05-01T14:33:51Z</time></trkpt><trkpt lat="44.325191577774994" lon="7.8000729926232735"><ele>558.0</ele><time>2026-05-01T14:33:52Z</time></trkpt><trkpt lat="44.32532300462638" lon="7.799928055647147"><ele>558.0</ele><time>2026-05-01T14:33:53Z</time></trkpt><trkpt lat="44.32542225300108" lon="7.79973947758326"><ele>558.0</ele><time>2026-05-01T14:33:54Z</time></trkpt><trkpt lat="44.325505130702986" lon="7.799529289064777"><ele>558.3333333333334</ele><time>2026-05-01T14:33:55Z</time></trkpt><trkpt lat="44.325588669321824" lon="7.799318529069065"><ele>558.6666666666667</ele><time>2026-05-01T14:33:56Z</time></trkpt><trkpt lat="44.3256796159595" lon="7.7991241403769695"><ele>559.0</ele><time>2026-05-01T14:33:57Z</time></trkpt><trkpt lat="44.32577593636694" lon="7.798918565850899"><ele>559.0</ele><time>2026-05-01T14:33:58Z</time></trkpt><trkpt lat="44.32586363614644" lon="7.798710185242813"><ele>559.0</ele><time>2026-05-01T14:33:59Z</time></trkpt><trkpt lat="44.32594248192019" lon="7.798491677652822"><ele>559.0</ele><time>2026-05-01T14:34:00Z</time></trkpt><trkpt lat="44.326008932375196" lon="7.798281303112605"><ele>556.6666666666667</ele><time>2026-05-01T14:34:01Z</time></trkpt><trkpt lat="44.32607042798546" lon="7.798074289881525"><ele>554.3333333333334</ele><time>2026-05-01T14:34:02Z</time></trkpt><trkpt lat="44.32613515127917" lon="7.797871187617272"><ele>552.0</ele><time>2026-05-01T14:34:03Z</time></trkpt><trkpt lat="44.32620462354848" lon="7.79766999639117"><ele>550.0</ele><time>2026-05-01T14:34:04Z</time></trkpt><trkpt lat="44.32627484897549" lon="7.797471408742385"><ele>548.0</ele><time>2026-05-01T14:34:05Z</time></trkpt><trkpt lat="44.32633911965855" lon="7.797268285331751"><ele>546.0</ele><time>2026-05-01T14:34:06Z</time></trkpt><trkpt lat="44.326401388774364" lon="7.797061078260403"><ele>549.3333333333334</ele><time>2026-05-01T14:34:07Z</time></trkpt><trkpt lat="44.3264567044257" lon="7.796860764403924"><ele>552.6666666666667</ele><time>2026-05-01T14:34:08Z</time></trkpt><trkpt lat="44.3265117460188" lon="7.796660441152768"><ele>556.0</ele><time>2026-05-01T14:34:09Z</time></trkpt><trkpt lat="44.326566951229765" lon="7.796461775336904"><ele>556.0</ele><time>2026-05-01T14:34:10Z</time></trkpt><trkpt lat="44.326618631998066" lon="7.796264021558549"><ele>556.0</ele><time>2026-05-01T14:34:11Z</time></trkpt><trkpt lat="44.32666584573135" lon="7.7960605010131365"><ele>556.0</ele><time>2026-05-01T14:34:12Z</time></trkpt><trkpt lat="44.326708458097414" lon="7.795857459733661"><ele>553.6666666666667</ele><time>2026-05-01T14:34:13Z</time></trkpt><trkpt lat="44.3267506135457" lon="7.795656395510254"><ele>551.3333333333334</ele><time>2026-05-01T14:34:14Z</time></trkpt><trkpt lat="44.326795359809346" lon="7.795453253871392"><ele>549.0</ele><time>2026-05-01T14:34:15Z</time></trkpt><trkpt lat="44.32683885021223" lon="7.795249985991807"><ele>547.75</ele><time>2026-05-01T14:34:16Z</time></trkpt><trkpt lat="44.3268776841318" lon="7.795053908599587"><ele>546.5</ele><time>2026-05-01T14:34:17Z</time></trkpt><trkpt lat="44.32692074238518" lon="7.79485805806994"><ele>545.25</ele><time>2026-05-01T14:34:18Z</time></trkpt><trkpt lat="44.32696876730759" lon="7.794666574042653"><ele>544.0</ele><time>2026-05-01T14:34:19Z</time></trkpt><trkpt lat="44.32702445109013" lon="7.794480891279907"><ele>544.25</ele><time>2026-05-01T14:34:20Z</time></trkpt><trkpt lat="44.327089308783904" lon="7.7943105625296525"><ele>544.5</ele><time>2026-05-01T14:34:21Z</time></trkpt><trkpt lat="44.32716672876285" lon="7.7941348014770515"><ele>544.75</ele><time>2026-05-01T14:34:22Z</time></trkpt><trkpt lat="44.32723385827546" lon="7.793956853861631"><ele>545.0</ele><time>2026-05-01T14:34:23Z</time></trkpt><trkpt lat="44.32729619011948" lon="7.793766321377503"><ele>545.0</ele><time>2026-05-01T14:34:24Z</time></trkpt><trkpt lat="44.3273541372364" lon="7.7935737279439135"><ele>545.0</ele><time>2026-05-01T14:34:25Z</time></trkpt><trkpt lat="44.32741646975645" lon="7.793380451885964"><ele>545.0</ele><time>2026-05-01T14:34:26Z</time></trkpt><trkpt lat="44.327487934876814" lon="7.793186558414715"><ele>544.0</ele><time>2026-05-01T14:34:27Z</time></trkpt><trkpt lat="44.32756570018172" lon="7.7929912487879935"><ele>543.0</ele><time>2026-05-01T14:34:28Z</time></trkpt><trkpt lat="44.327644708105694" lon="7.792800853794846"><ele>542.0</ele><time>2026-05-01T14:34:29Z</time></trkpt><trkpt lat="44.327725965816704" lon="7.792609616774734"><ele>540.6666666666666</ele><time>2026-05-01T14:34:30Z</time></trkpt><trkpt lat="44.32780535725069" lon="7.792417865092299"><ele>539.3333333333334</ele><time>2026-05-01T14:34:31Z</time></trkpt><trkpt lat="44.327884566000726" lon="7.792232751661949"><ele>538.0</ele><time>2026-05-01T14:34:32Z</time></trkpt><trkpt lat="44.32796258755625" lon="7.792042843762581"><ele>538.0</ele><time>2026-05-01T14:34:33Z</time></trkpt><trkpt lat="44.328039132313826" lon="7.7918476219888495"><ele>538.0</ele><time>2026-05-01T14:34:34Z</time></trkpt><trkpt lat="44.328113370259146" lon="7.791651990413393"><ele>538.0</ele><time>2026-05-01T14:34:35Z</time></trkpt><trkpt lat="44.32820287622148" lon="7.791463514706333"><ele>537.3333333333334</ele><time>2026-05-01T14:34:36Z</time></trkpt><trkpt lat="44.328287600062815" lon="7.791261437724082"><ele>536.6666666666666</ele><time>2026-05-01T14:34:37Z</time></trkpt><trkpt lat="44.32837348105237" lon="7.791053086673148"><ele>536.0</ele><time>2026-05-01T14:34:38Z</time></trkpt><trkpt lat="44.328464248909086" lon="7.790833376155261"><ele>535.6666666666666</ele><time>2026-05-01T14:34:39Z</time></trkpt><trkpt lat="44.32853725956986" lon="7.7906131980443325"><ele>535.3333333333334</ele><time>2026-05-01T14:34:40Z</time></trkpt><trkpt lat="44.328592190834" lon="7.790377378062516"><ele>535.0</ele><time>2026-05-01T14:34:41Z</time></trkpt><trkpt lat="44.328618463906786" lon="7.790130979207675"><ele>534.3333333333334</ele><time>2026-05-01T14:34:42Z</time></trkpt><trkpt lat="44.328628644423056" lon="7.789880203753915"><ele>533.6666666666666</ele><time>2026-05-01T14:34:43Z</time></trkpt><trkpt lat="44.32862679570774" lon="7.789618342462406"><ele>533.0</ele><time>2026-05-01T14:34:44Z</time></trkpt><trkpt lat="44.32861707031107" lon="7.789372065287971"><ele>536.0</ele><time>2026-05-01T14:34:45Z</time></trkpt><trkpt lat="44.328632862656754" lon="7.7891423308049665"><ele>539.0</ele><time>2026-05-01T14:34:46Z</time></trkpt><trkpt lat="44.3286980071178" lon="7.788924963279376"><ele>542.0</ele><time>2026-05-01T14:34:47Z</time></trkpt><trkpt lat="44.328798978177815" lon="7.7886921732849155"><ele>539.3333333333333</ele><time>2026-05-01T14:34:48Z</time></trkpt><trkpt lat="44.32890462248933" lon="7.7884718579095376"><ele>536.6666666666666</ele><time>2026-05-01T14:34:49Z</time></trkpt><trkpt lat="44.32900383859194" lon="7.78821955325403"><ele>534.0</ele><time>2026-05-01T14:34:50Z</time></trkpt><trkpt lat="44.32909910369037" lon="7.787980474531062"><ele>534.0</ele><time>2026-05-01T14:34:51Z</time></trkpt><trkpt lat="44.329209317059515" lon="7.787750073317189"><ele>534.0</ele><time>2026-05-01T14:34:52Z</time></trkpt><trkpt lat="44.32933433347414" lon="7.787550293857776"><ele>534.0</ele><time>2026-05-01T14:34:53Z</time></trkpt><trkpt lat="44.329476248178025" lon="7.7873562753825665"><ele>532.6666666666666</ele><time>2026-05-01T14:34:54Z</time></trkpt><trkpt lat="44.329615146331506" lon="7.787170834627963"><ele>531.3333333333333</ele><time>2026-05-01T14:34:55Z</time></trkpt><trkpt lat="44.32974915848662" lon="7.7869872278036505"><ele>530.0</ele><time>2026-05-01T14:34:56Z</time></trkpt><trkpt lat="44.32988232738034" lon="7.786803556457415"><ele>530.0</ele><time>2026-05-01T14:34:57Z</time></trkpt><trkpt lat="44.3300226901919" lon="7.786631904397841"><ele>530.0</ele><time>2026-05-01T14:34:58Z</time></trkpt><trkpt lat="44.33018259314542" lon="7.7864873866233495"><ele>530.0</ele><time>2026-05-01T14:34:59Z</time></trkpt><trkpt lat="44.330349493959574" lon="7.786374058744228"><ele>530.0</ele><time>2026-05-01T14:35:00Z</time></trkpt><trkpt lat="44.330515732974874" lon="7.786262482919013"><ele>530.0</ele><time>2026-05-01T14:35:01Z</time></trkpt><trkpt lat="44.33067931820774" lon="7.786152988476147"><ele>530.0</ele><time>2026-05-01T14:35:02Z</time></trkpt><trkpt lat="44.33084223313313" lon="7.786040536249538"><ele>529.3333333333333</ele><time>2026-05-01T14:35:03Z</time></trkpt><trkpt lat="44.33100540249488" lon="7.785932998152197"><ele>528.6666666666666</ele><time>2026-05-01T14:35:04Z</time></trkpt><trkpt lat="44.33116442291359" lon="7.785821775120687"><ele>528.0</ele><time>2026-05-01T14:35:05Z</time></trkpt><trkpt lat="44.33132245797873" lon="7.785712248194352"><ele>525.6666666666666</ele><time>2026-05-01T14:35:06Z</time></trkpt><trkpt lat="44.33148176172507" lon="7.785599871163167"><ele>523.3333333333333</ele><time>2026-05-01T14:35:07Z</time></trkpt><trkpt lat="44.33163304867934" lon="7.7854879709761935"><ele>521.0</ele><time>2026-05-01T14:35:08Z</time></trkpt><trkpt lat="44.33178645815632" lon="7.785366878108424"><ele>521.0</ele><time>2026-05-01T14:35:09Z</time></trkpt><trkpt lat="44.3319383598077" lon="7.785238451836152"><ele>521.0</ele><time>2026-05-01T14:35:10Z</time></trkpt><trkpt lat="44.332081460649114" lon="7.785115147184844"><ele>521.0</ele><time>2026-05-01T14:35:11Z</time></trkpt><trkpt lat="44.332220838352" lon="7.784967803466209"><ele>520.3333333333333</ele><time>2026-05-01T14:35:12Z</time></trkpt><trkpt lat="44.332353969552145" lon="7.784787280927673"><ele>519.6666666666666</ele><time>2026-05-01T14:35:13Z</time></trkpt><trkpt lat="44.332483357519145" lon="7.784587133482019"><ele>519.0</ele><time>2026-05-01T14:35:14Z</time></trkpt><trkpt lat="44.332610144308006" lon="7.784382673499005"><ele>519.6666666666666</ele><time>2026-05-01T14:35:15Z</time></trkpt><trkpt lat="44.33273857105328" lon="7.784144932588232"><ele>520.3333333333333</ele><time>2026-05-01T14:35:16Z</time></trkpt><trkpt lat="44.332868650549884" lon="7.783913233679043"><ele>521.0</ele><time>2026-05-01T14:35:17Z</time></trkpt><trkpt lat="44.33300454046112" lon="7.7836858972418685"><ele>520.0</ele><time>2026-05-01T14:35:18Z</time></trkpt><trkpt lat="44.33314917845025" lon="7.783458219817592"><ele>519.0</ele><time>2026-05-01T14:35:19Z</time></trkpt><trkpt lat="44.3332997986718" lon="7.783232565208356"><ele>518.0</ele><time>2026-05-01T14:35:20Z</time></trkpt><trkpt lat="44.333456591200246" lon="7.7830101887714935"><ele>518.0</ele><time>2026-05-01T14:35:21Z</time></trkpt><trkpt lat="44.333617593770605" lon="7.782795825453775"><ele>518.0</ele><time>2026-05-01T14:35:22Z</time></trkpt><trkpt lat="44.33378656692407" lon="7.782582842766512"><ele>516.5</ele><time>2026-05-01T14:35:23Z</time></trkpt><trkpt lat="44.33396124169745" lon="7.7823840198192995"><ele>515.0</ele><time>2026-05-01T14:35:24Z</time></trkpt><trkpt lat="44.33414317820124" lon="7.7821946639740265"><ele>515.0</ele><time>2026-05-01T14:35:25Z</time></trkpt><trkpt lat="44.334329124560256" lon="7.781997315160114"><ele>515.0</ele><time>2026-05-01T14:35:26Z</time></trkpt><trkpt lat="44.334506664300854" lon="7.781768148440298"><ele>513.5</ele><time>2026-05-01T14:35:27Z</time></trkpt><trkpt lat="44.33467307057639" lon="7.781526457610246"><ele>512.0</ele><time>2026-05-01T14:35:28Z</time></trkpt><trkpt lat="44.33483977067092" lon="7.781292116331133"><ele>512.0</ele><time>2026-05-01T14:35:29Z</time></trkpt><trkpt lat="44.33503072217215" lon="7.781108774165224"><ele>512.0</ele><time>2026-05-01T14:35:30Z</time></trkpt><trkpt lat="44.33522985679665" lon="7.7809376445635445"><ele>512.0</ele><time>2026-05-01T14:35:31Z</time></trkpt><trkpt lat="44.335466653395514" lon="7.78080479834231"><ele>512.0</ele><time>2026-05-01T14:35:32Z</time></trkpt><trkpt lat="44.335701274662824" lon="7.780673026705728"><ele>512.0</ele><time>2026-05-01T14:35:33Z</time></trkpt><trkpt lat="44.33593146351081" lon="7.780537324994127"><ele>512.0</ele><time>2026-05-01T14:35:34Z</time></trkpt><trkpt lat="44.3361629667493" lon="7.780404095090057"><ele>512.0</ele><time>2026-05-01T14:35:35Z</time></trkpt><trkpt lat="44.33639310598122" lon="7.780281029067836"><ele>512.0</ele><time>2026-05-01T14:35:36Z</time></trkpt><trkpt lat="44.33660506908326" lon="7.780177518136712"><ele>512.0</ele><time>2026-05-01T14:35:37Z</time></trkpt><trkpt lat="44.33680197027345" lon="7.780090116673063"><ele>512.0</ele><time>2026-05-01T14:35:38Z</time></trkpt><trkpt lat="44.33697411061695" lon="7.780019130788454"><ele>512.0</ele><time>2026-05-01T14:35:39Z</time></trkpt><trkpt lat="44.33712467986856" lon="7.779960556595478"><ele>510.0</ele><time>2026-05-01T14:35:40Z</time></trkpt><trkpt lat="44.33727518326421" lon="7.779897315548025"><ele>508.0</ele><time>2026-05-01T14:35:41Z</time></trkpt><trkpt lat="44.337421094687116" lon="7.779825743782487"><ele>506.0</ele><time>2026-05-01T14:35:42Z</time></trkpt><trkpt lat="44.33756419815394" lon="7.779742497663716"><ele>506.0</ele><time>2026-05-01T14:35:43Z</time></trkpt><trkpt lat="44.33771283487168" lon="7.779640663437559"><ele>506.0</ele><time>2026-05-01T14:35:44Z</time></trkpt><trkpt lat="44.33786103663031" lon="7.77953463049608"><ele>506.0</ele><time>2026-05-01T14:35:45Z</time></trkpt><trkpt lat="44.33799766293487" lon="7.77942905923416"><ele>505.0</ele><time>2026-05-01T14:35:46Z</time></trkpt><trkpt lat="44.33812785042681" lon="7.779327084086699"><ele>504.0</ele><time>2026-05-01T14:35:47Z</time></trkpt><trkpt lat="44.338252202247006" lon="7.779224683103299"><ele>503.0</ele><time>2026-05-01T14:35:48Z</time></trkpt><trkpt lat="44.3383788890366" lon="7.779149365957132"><ele>502.0</ele><time>2026-05-01T14:35:49Z</time></trkpt><trkpt lat="44.33848367564106" lon="7.77901616649978"><ele>502.0</ele><time>2026-05-01T14:35:50Z</time></trkpt><trkpt lat="44.338596927766304" lon="7.778917564362113"><ele>502.0</ele><time>2026-05-01T14:35:51Z</time></trkpt><trkpt lat="44.338709930262915" lon="7.778830034069223"><ele>502.0</ele><time>2026-05-01T14:35:52Z</time></trkpt><trkpt lat="44.338821566549576" lon="7.77874376079483"><ele>502.0</ele><time>2026-05-01T14:35:53Z</time></trkpt><trkpt lat="44.338940125165884" lon="7.778648919757003"><ele>500.0</ele><time>2026-05-01T14:35:54Z</time></trkpt><trkpt lat="44.33907366824727" lon="7.778542931615392"><ele>498.0</ele><time>2026-05-01T14:35:55Z</time></trkpt><trkpt lat="44.33923054748318" lon="7.778433276402446"><ele>496.0</ele><time>2026-05-01T14:35:56Z</time></trkpt><trkpt lat="44.33937882039253" lon="7.77834135614376"><ele>495.25</ele><time>2026-05-01T14:35:57Z</time></trkpt><trkpt lat="44.33951081639062" lon="7.778279339829311"><ele>494.5</ele><time>2026-05-01T14:35:58Z</time></trkpt><trkpt lat="44.339642939307396" lon="7.778269706454554"><ele>493.75</ele><time>2026-05-01T14:35:59Z</time></trkpt><trkpt lat="44.339761703969245" lon="7.778297677708108"><ele>493.0</ele><time>2026-05-01T14:36:00Z</time></trkpt><trkpt lat="44.339869243494" lon="7.778306844825632"><ele>492.75</ele><time>2026-05-01T14:36:01Z</time></trkpt><trkpt lat="44.339977632143565" lon="7.778254878861451"><ele>492.5</ele><time>2026-05-01T14:36:02Z</time></trkpt><trkpt lat="44.34008233442333" lon="7.778126496230019"><ele>492.25</ele><time>2026-05-01T14:36:03Z</time></trkpt><trkpt lat="44.340212993278634" lon="7.777988620546167"><ele>492.0</ele><time>2026-05-01T14:36:04Z</time></trkpt><trkpt lat="44.34039261227128" lon="7.777898309523426"><ele>491.0</ele><time>2026-05-01T14:36:05Z</time></trkpt><trkpt lat="44.340596122333736" lon="7.777858173732796"><ele>490.0</ele><time>2026-05-01T14:36:06Z</time></trkpt><trkpt lat="44.340827749172846" lon="7.777821274777856"><ele>489.0</ele><time>2026-05-01T14:36:07Z</time></trkpt><trkpt lat="44.34106700535751" lon="7.777785888291945"><ele>489.0</ele><time>2026-05-01T14:36:08Z</time></trkpt><trkpt lat="44.341306618300116" lon="7.7777537513185315"><ele>489.0</ele><time>2026-05-01T14:36:09Z</time></trkpt><trkpt lat="44.34154963647482" lon="7.7777244894392865"><ele>488.0</ele><time>2026-05-01T14:36:10Z</time></trkpt><trkpt lat="44.34179340302356" lon="7.777687893833367"><ele>487.0</ele><time>2026-05-01T14:36:11Z</time></trkpt><trkpt lat="44.34203769175188" lon="7.777651900459151"><ele>491.5</ele><time>2026-05-01T14:36:12Z</time></trkpt><trkpt lat="44.342286897792924" lon="7.777615967953037"><ele>496.0</ele><time>2026-05-01T14:36:13Z</time></trkpt><trkpt lat="44.34253422225996" lon="7.7775823927218095"><ele>496.0</ele><time>2026-05-01T14:36:14Z</time></trkpt><trkpt lat="44.34277224044381" lon="7.777547228754118"><ele>496.0</ele><time>2026-05-01T14:36:15Z</time></trkpt><trkpt lat="44.34299400097428" lon="7.777511526555016"><ele>495.6666666666667</ele><time>2026-05-01T14:36:16Z</time></trkpt><trkpt lat="44.34320229390906" lon="7.777478745444564"><ele>495.33333333333337</ele><time>2026-05-01T14:36:17Z</time></trkpt><trkpt lat="44.343394979997875" lon="7.77744806797138"><ele>495.0</ele><time>2026-05-01T14:36:18Z</time></trkpt><trkpt lat="44.34357559732323" lon="7.777409438320727"><ele>495.0</ele><time>2026-05-01T14:36:19Z</time></trkpt><trkpt lat="44.343750216637595" lon="7.7773496317567625"><ele>495.0</ele><time>2026-05-01T14:36:20Z</time></trkpt><trkpt lat="44.343926313424106" lon="7.777279333451201"><ele>495.0</ele><time>2026-05-01T14:36:21Z</time></trkpt><trkpt lat="44.344097895222035" lon="7.777205518583724"><ele>496.0</ele><time>2026-05-01T14:36:22Z</time></trkpt><trkpt lat="44.34426510090071" lon="7.777123319380045"><ele>497.0</ele><time>2026-05-01T14:36:23Z</time></trkpt><trkpt lat="44.34442399257599" lon="7.777031790738048"><ele>498.0</ele><time>2026-05-01T14:36:24Z</time></trkpt><trkpt lat="44.344576838481835" lon="7.7769347280228"><ele>500.66666666666663</ele><time>2026-05-01T14:36:25Z</time></trkpt><trkpt lat="44.3447235952567" lon="7.776825358154169"><ele>503.3333333333333</ele><time>2026-05-01T14:36:26Z</time></trkpt><trkpt lat="44.34486247446268" lon="7.776722785481241"><ele>506.0</ele><time>2026-05-01T14:36:27Z</time></trkpt><trkpt lat="44.34498569298509" lon="7.776623702077398"><ele>506.0</ele><time>2026-05-01T14:36:28Z</time></trkpt><trkpt lat="44.345108390475346" lon="7.776522685145001"><ele>506.0</ele><time>2026-05-01T14:36:29Z</time></trkpt><trkpt lat="44.34523100704384" lon="7.776419003438738"><ele>506.0</ele><time>2026-05-01T14:36:30Z</time></trkpt><trkpt lat="44.34534997873989" lon="7.776322145568426"><ele>506.0</ele><time>2026-05-01T14:36:31Z</time></trkpt><trkpt lat="44.34547287413811" lon="7.7762175437218115"><ele>505.66666666666663</ele><time>2026-05-01T14:36:32Z</time></trkpt><trkpt lat="44.34559983295291" lon="7.77610542427902"><ele>505.33333333333337</ele><time>2026-05-01T14:36:33Z</time></trkpt><trkpt lat="44.34573428093976" lon="7.775982395663983"><ele>505.0</ele><time>2026-05-01T14:36:34Z</time></trkpt><trkpt lat="44.345867706600266" lon="7.775858852742784"><ele>506.0</ele><time>2026-05-01T14:36:35Z</time></trkpt><trkpt lat="44.345998999343344" lon="7.775733468446713"><ele>507.0</ele><time>2026-05-01T14:36:36Z</time></trkpt><trkpt lat="44.34612622530684" lon="7.775606286215068"><ele>508.0</ele><time>2026-05-01T14:36:37Z</time></trkpt><trkpt lat="44.346251205915046" lon="7.775471159302406"><ele>508.0</ele><time>2026-05-01T14:36:38Z</time></trkpt><trkpt lat="44.346368201341605" lon="7.7753326574937125"><ele>508.0</ele><time>2026-05-01T14:36:39Z</time></trkpt><trkpt lat="44.34648079796669" lon="7.775181857365514"><ele>508.0</ele><time>2026-05-01T14:36:40Z</time></trkpt><trkpt lat="44.34659548554621" lon="7.775010914452806"><ele>507.6666666666667</ele><time>2026-05-01T14:36:41Z</time></trkpt><trkpt lat="44.34670302276747" lon="7.774828366974733"><ele>507.33333333333337</ele><time>2026-05-01T14:36:42Z</time></trkpt><trkpt lat="44.346801148850446" lon="7.774648219232277"><ele>507.0</ele><time>2026-05-01T14:36:43Z</time></trkpt><trkpt lat="44.346888833127935" lon="7.77447543323995"><ele>507.5</ele><time>2026-05-01T14:36:44Z</time></trkpt><trkpt lat="44.34696792824492" lon="7.774299273942841"><ele>508.0</ele><time>2026-05-01T14:36:45Z</time></trkpt><trkpt lat="44.34703826774712" lon="7.774119516367983"><ele>508.5</ele><time>2026-05-01T14:36:46Z</time></trkpt><trkpt lat="44.3471044571439" lon="7.773928993593321"><ele>509.0</ele><time>2026-05-01T14:36:47Z</time></trkpt><trkpt lat="44.347168779015746" lon="7.773721022382622"><ele>508.3333333333333</ele><time>2026-05-01T14:36:48Z</time></trkpt><trkpt lat="44.3472335394817" lon="7.773500601772435"><ele>507.66666666666663</ele><time>2026-05-01T14:36:49Z</time></trkpt><trkpt lat="44.34729821225652" lon="7.773263773121661"><ele>507.0</ele><time>2026-05-01T14:36:50Z</time></trkpt><trkpt lat="44.34736198423163" lon="7.773022867003182"><ele>507.0</ele><time>2026-05-01T14:36:51Z</time></trkpt><trkpt lat="44.34742364494893" lon="7.7727828977200275"><ele>507.0</ele><time>2026-05-01T14:36:52Z</time></trkpt><trkpt lat="44.34748315522511" lon="7.7725666651734695"><ele>507.0</ele><time>2026-05-01T14:36:53Z</time></trkpt><trkpt lat="44.34753823635199" lon="7.772375893095682"><ele>507.25</ele><time>2026-05-01T14:36:54Z</time></trkpt><trkpt lat="44.34758919493475" lon="7.7721988492552825"><ele>507.5</ele><time>2026-05-01T14:36:55Z</time></trkpt><trkpt lat="44.34763636668025" lon="7.772038625431076"><ele>507.75</ele><time>2026-05-01T14:36:56Z</time></trkpt><trkpt lat="44.34768206765776" lon="7.771898640505077"><ele>508.0</ele><time>2026-05-01T14:36:57Z</time></trkpt><trkpt lat="44.34772682675133" lon="7.7717798514471985"><ele>508.1666666666667</ele><time>2026-05-01T14:36:58Z</time></trkpt><trkpt lat="44.34777767097842" lon="7.771688393290771"><ele>508.33333333333337</ele><time>2026-05-01T14:36:59Z</time></trkpt><trkpt lat="44.34784083154757" lon="7.771624551394267"><ele>508.5</ele><time>2026-05-01T14:37:00Z</time></trkpt><trkpt lat="44.34791719452028" lon="7.771587010996803"><ele>508.66666666666663</ele><time>2026-05-01T14:37:01Z</time></trkpt><trkpt lat="44.34800209128835" lon="7.77152727900941"><ele>508.8333333333333</ele><time>2026-05-01T14:37:02Z</time></trkpt><trkpt lat="44.34805632476036" lon="7.771429401315657"><ele>509.0</ele><time>2026-05-01T14:37:03Z</time></trkpt><trkpt lat="44.34806253930255" lon="7.771311787710217"><ele>509.0</ele><time>2026-05-01T14:37:04Z</time></trkpt><trkpt lat="44.34801936064904" lon="7.771198379269443"><ele>509.0</ele><time>2026-05-01T14:37:05Z</time></trkpt><trkpt lat="44.34792808285271" lon="7.771086480465516"><ele>509.0</ele><time>2026-05-01T14:37:06Z</time></trkpt><trkpt lat="44.34782487746913" lon="7.770962657783339"><ele>509.0</ele><time>2026-05-01T14:37:07Z</time></trkpt><trkpt lat="44.34775716245543" lon="7.770766226956898"><ele>510.0</ele><time>2026-05-01T14:37:08Z</time></trkpt><trkpt lat="44.347730053313214" lon="7.770594942415078"><ele>511.0</ele><time>2026-05-01T14:37:09Z</time></trkpt><trkpt lat="44.34773173215021" lon="7.770447556710002"><ele>512.0</ele><time>2026-05-01T14:37:10Z</time></trkpt><trkpt lat="44.34775354517489" lon="7.770291199678164"><ele>513.0</ele><time>2026-05-01T14:37:11Z</time></trkpt><trkpt lat="44.34778426752183" lon="7.7700903034977085"><ele>514.0</ele><time>2026-05-01T14:37:12Z</time></trkpt><trkpt lat="44.347820308526806" lon="7.769855479287865"><ele>515.0</ele><time>2026-05-01T14:37:13Z</time></trkpt><trkpt lat="44.34785515389369" lon="7.769613680782073"><ele>516.0</ele><time>2026-05-01T14:37:14Z</time></trkpt><trkpt lat="44.34788675998988" lon="7.769388231804863"><ele>516.75</ele><time>2026-05-01T14:37:15Z</time></trkpt><trkpt lat="44.34791491153093" lon="7.769196161657692"><ele>517.5</ele><time>2026-05-01T14:37:16Z</time></trkpt><trkpt lat="44.347944141118546" lon="7.768998751394442"><ele>518.25</ele><time>2026-05-01T14:37:17Z</time></trkpt><trkpt lat="44.34797567280904" lon="7.768794549864653"><ele>519.0</ele><time>2026-05-01T14:37:18Z</time></trkpt><trkpt lat="44.34801073070502" lon="7.768586273009149"><ele>520.5</ele><time>2026-05-01T14:37:19Z</time></trkpt><trkpt lat="44.34804621692622" lon="7.768380960107088"><ele>522.0</ele><time>2026-05-01T14:37:20Z</time></trkpt><trkpt lat="44.348080997835645" lon="7.768181228470068"><ele>523.5</ele><time>2026-05-01T14:37:21Z</time></trkpt><trkpt lat="44.34811697504664" lon="7.7679854690134595"><ele>525.0</ele><time>2026-05-01T14:37:22Z</time></trkpt><trkpt lat="44.34814639179566" lon="7.767805972921438"><ele>525.8</ele><time>2026-05-01T14:37:23Z</time></trkpt><trkpt lat="44.34816877170497" lon="7.767652195092062"><ele>526.6</ele><time>2026-05-01T14:37:24Z</time></trkpt><trkpt lat="44.34818982746524" lon="7.767524111167593"><ele>527.4</ele><time>2026-05-01T14:37:25Z</time></trkpt><trkpt lat="44.34821111211606" lon="7.767419136807464"><ele>528.2</ele><time>2026-05-01T14:37:26Z</time></trkpt><trkpt lat="44.34824026983979" lon="7.76733436035611"><ele>529.0</ele><time>2026-05-01T14:37:27Z</time></trkpt><trkpt lat="44.348314265848515" lon="7.767239254860864"><ele>529.0</ele><time>2026-05-01T14:37:29Z</time></trkpt><trkpt lat="44.3483949322216" lon="7.767199198495915"><ele>529.0</ele><time>2026-05-01T14:37:32Z</time></trkpt><trkpt lat="44.34844505259195" lon="7.76714170619062"><ele>529.0</ele><time>2026-05-01T14:37:33Z</time></trkpt><trkpt lat="44.348488775877144" lon="7.767029250897013"><ele>529.0</ele><time>2026-05-01T14:37:34Z</time></trkpt><trkpt lat="44.34848864016136" lon="7.7668953763147535"><ele>529.0</ele><time>2026-05-01T14:37:35Z</time></trkpt><trkpt lat="44.34844972096244" lon="7.766747307664068"><ele>529.4</ele><time>2026-05-01T14:37:36Z</time></trkpt><trkpt lat="44.348401189282306" lon="7.766577360961768"><ele>529.8</ele><time>2026-05-01T14:37:37Z</time></trkpt><trkpt lat="44.34839728572926" lon="7.766427993505268"><ele>530.2</ele><time>2026-05-01T14:37:38Z</time></trkpt><trkpt lat="44.34839915461284" lon="7.766297354779277"><ele>530.6</ele><time>2026-05-01T14:37:39Z</time></trkpt><trkpt lat="44.348399207989594" lon="7.766180943950083"><ele>531.0</ele><time>2026-05-01T14:37:40Z</time></trkpt><trkpt lat="44.34841453028864" lon="7.766084530265023"><ele>531.5</ele><time>2026-05-01T14:37:41Z</time></trkpt><trkpt lat="44.34845138609976" lon="7.765851405622861"><ele>532.0</ele><time>2026-05-01T14:37:43Z</time></trkpt><trkpt lat="44.348471930981106" lon="7.76572059509674"><ele>532.5</ele><time>2026-05-01T14:37:44Z</time></trkpt><trkpt lat="44.34848977435577" lon="7.765570297039149"><ele>533.0</ele><time>2026-05-01T14:37:45Z</time></trkpt><trkpt lat="44.34852517422618" lon="7.765408075225081"><ele>533.0</ele><time>2026-05-01T14:37:46Z</time></trkpt><trkpt lat="44.34855149930218" lon="7.7652358735986935"><ele>533.0</ele><time>2026-05-01T14:37:47Z</time></trkpt><trkpt lat="44.34857443656669" lon="7.765067145653068"><ele>533.0</ele><time>2026-05-01T14:37:48Z</time></trkpt><trkpt lat="44.34860289225705" lon="7.7649041284694285"><ele>533.0</ele><time>2026-05-01T14:37:49Z</time></trkpt><trkpt lat="44.348628833437864" lon="7.7647352509754395"><ele>532.75</ele><time>2026-05-01T14:37:50Z</time></trkpt><trkpt lat="44.34865839844306" lon="7.764548235723421"><ele>532.5</ele><time>2026-05-01T14:37:51Z</time></trkpt><trkpt lat="44.34869256850928" lon="7.7643534038143835"><ele>532.25</ele><time>2026-05-01T14:37:52Z</time></trkpt><trkpt lat="44.348723016501395" lon="7.764149700330801"><ele>532.0</ele><time>2026-05-01T14:37:53Z</time></trkpt><trkpt lat="44.34875102200217" lon="7.763950612636882"><ele>532.5</ele><time>2026-05-01T14:37:54Z</time></trkpt><trkpt lat="44.34877098305603" lon="7.763752885906294"><ele>533.0</ele><time>2026-05-01T14:37:55Z</time></trkpt><trkpt lat="44.34877708047993" lon="7.763551767047586"><ele>533.5</ele><time>2026-05-01T14:37:56Z</time></trkpt><trkpt lat="44.34876698745627" lon="7.763346368556433"><ele>534.0</ele><time>2026-05-01T14:37:57Z</time></trkpt><trkpt lat="44.34874704657357" lon="7.763132552648243"><ele>534.6666666666666</ele><time>2026-05-01T14:37:58Z</time></trkpt><trkpt lat="44.34871302569225" lon="7.762917413129091"><ele>535.3333333333333</ele><time>2026-05-01T14:37:59Z</time></trkpt><trkpt lat="44.348668216261146" lon="7.762708207237512"><ele>536.0</ele><time>2026-05-01T14:38:00Z</time></trkpt><trkpt lat="44.348611672377935" lon="7.762509082024374"><ele>537.0</ele><time>2026-05-01T14:38:01Z</time></trkpt><trkpt lat="44.348542003000915" lon="7.762318450218924"><ele>538.0</ele><time>2026-05-01T14:38:02Z</time></trkpt><trkpt lat="44.348462985550235" lon="7.762146324746292"><ele>539.0</ele><time>2026-05-01T14:38:03Z</time></trkpt><trkpt lat="44.34838005014614" lon="7.761987870013939"><ele>540.0</ele><time>2026-05-01T14:38:04Z</time></trkpt><trkpt lat="44.34827730067114" lon="7.7618509021519415"><ele>541.0</ele><time>2026-05-01T14:38:05Z</time></trkpt><trkpt lat="44.34815617857893" lon="7.761693206906122"><ele>542.0</ele><time>2026-05-01T14:38:06Z</time></trkpt><trkpt lat="44.34800974667197" lon="7.761541967057251"><ele>543.0</ele><time>2026-05-01T14:38:07Z</time></trkpt><trkpt lat="44.347842575399405" lon="7.761374325272671"><ele>543.0</ele><time>2026-05-01T14:38:08Z</time></trkpt><trkpt lat="44.34766935932425" lon="7.761202076167978"><ele>543.0</ele><time>2026-05-01T14:38:09Z</time></trkpt><trkpt lat="44.34748809284798" lon="7.761015597568722"><ele>543.0</ele><time>2026-05-01T14:38:10Z</time></trkpt><trkpt lat="44.3473005469408" lon="7.760831321578697"><ele>543.6666666666666</ele><time>2026-05-01T14:38:11Z</time></trkpt><trkpt lat="44.34711363455416" lon="7.7606426935776005"><ele>544.3333333333333</ele><time>2026-05-01T14:38:12Z</time></trkpt><trkpt lat="44.346950778354426" lon="7.760471944131086"><ele>545.0</ele><time>2026-05-01T14:38:13Z</time></trkpt><trkpt lat="44.346801405200395" lon="7.7603162325704025"><ele>545.0</ele><time>2026-05-01T14:38:14Z</time></trkpt><trkpt lat="44.3466626920969" lon="7.760183496860864"><ele>545.0</ele><time>2026-05-01T14:38:15Z</time></trkpt><trkpt lat="44.346526968368934" lon="7.7600418885650475"><ele>545.0</ele><time>2026-05-01T14:38:16Z</time></trkpt><trkpt lat="44.34640952579119" lon="7.759885602934455"><ele>550.0</ele><time>2026-05-01T14:38:17Z</time></trkpt><trkpt lat="44.34631069660993" lon="7.759704910615727"><ele>555.0</ele><time>2026-05-01T14:38:18Z</time></trkpt><trkpt lat="44.346245123562475" lon="7.759495118598634"><ele>560.0</ele><time>2026-05-01T14:38:19Z</time></trkpt><trkpt lat="44.34621355075335" lon="7.759280262390352"><ele>561.3333333333333</ele><time>2026-05-01T14:38:20Z</time></trkpt><trkpt lat="44.346219036814865" lon="7.759041002848586"><ele>562.6666666666666</ele><time>2026-05-01T14:38:21Z</time></trkpt><trkpt lat="44.346228020915255" lon="7.758785386887053"><ele>564.0</ele><time>2026-05-01T14:38:22Z</time></trkpt><trkpt lat="44.34624108398186" lon="7.758486595418368"><ele>565.5</ele><time>2026-05-01T14:38:23Z</time></trkpt><trkpt lat="44.34625565294624" lon="7.758155920615505"><ele>567.0</ele><time>2026-05-01T14:38:24Z</time></trkpt><trkpt lat="44.34627068524704" lon="7.757805869214572"><ele>569.5</ele><time>2026-05-01T14:38:25Z</time></trkpt><trkpt lat="44.346279602140534" lon="7.7574486862625305"><ele>572.0</ele><time>2026-05-01T14:38:26Z</time></trkpt><trkpt lat="44.346303244604705" lon="7.757087626906254"><ele>572.0</ele><time>2026-05-01T14:38:27Z</time></trkpt><trkpt lat="44.346319835276404" lon="7.756717037318539"><ele>572.0</ele><time>2026-05-01T14:38:28Z</time></trkpt><trkpt lat="44.34633771004896" lon="7.756338884590634"><ele>573.0</ele><time>2026-05-01T14:38:29Z</time></trkpt><trkpt lat="44.34635963700075" lon="7.755965121809494"><ele>574.0</ele><time>2026-05-01T14:38:30Z</time></trkpt><trkpt lat="44.346385070934495" lon="7.75559194594035"><ele>568.5</ele><time>2026-05-01T14:38:31Z</time></trkpt><trkpt lat="44.34641370400836" lon="7.755241232275712"><ele>563.0</ele><time>2026-05-01T14:38:32Z</time></trkpt><trkpt lat="44.346438023978806" lon="7.754898728395192"><ele>563.0</ele><time>2026-05-01T14:38:33Z</time></trkpt><trkpt lat="44.346461133483835" lon="7.754583899281692"><ele>563.0</ele><time>2026-05-01T14:38:34Z</time></trkpt><trkpt lat="44.34649064588056" lon="7.754275360640859"><ele>563.0</ele><time>2026-05-01T14:38:35Z</time></trkpt><trkpt lat="44.3465244201089" lon="7.753951391761952"><ele>563.6666666666666</ele><time>2026-05-01T14:38:36Z</time></trkpt><trkpt lat="44.346554101943795" lon="7.753632683467232"><ele>564.3333333333334</ele><time>2026-05-01T14:38:37Z</time></trkpt><trkpt lat="44.34657177150646" lon="7.753333343383276"><ele>565.0</ele><time>2026-05-01T14:38:38Z</time></trkpt><trkpt lat="44.346560981768555" lon="7.7530617798405705"><ele>566.0</ele><time>2026-05-01T14:38:39Z</time></trkpt><trkpt lat="44.34652154004654" lon="7.752814371818613"><ele>567.0</ele><time>2026-05-01T14:38:40Z</time></trkpt><trkpt lat="44.34647483097366" lon="7.752590321036344"><ele>568.0</ele><time>2026-05-01T14:38:41Z</time></trkpt><trkpt lat="44.34644046068046" lon="7.752400508177553"><ele>568.25</ele><time>2026-05-01T14:38:42Z</time></trkpt><trkpt lat="44.346427541969966" lon="7.752233719480786"><ele>568.5</ele><time>2026-05-01T14:38:43Z</time></trkpt><trkpt lat="44.346442992853184" lon="7.752085176237552"><ele>568.75</ele><time>2026-05-01T14:38:44Z</time></trkpt><trkpt lat="44.346501102279035" lon="7.751917384694744"><ele>569.0</ele><time>2026-05-01T14:38:45Z</time></trkpt><trkpt lat="44.34662903813956" lon="7.751767749784814"><ele>570.6666666666666</ele><time>2026-05-01T14:38:46Z</time></trkpt><trkpt lat="44.34678857640125" lon="7.751633257818684"><ele>572.3333333333334</ele><time>2026-05-01T14:38:47Z</time></trkpt><trkpt lat="44.34694995028442" lon="7.751610809693408"><ele>574.0</ele><time>2026-05-01T14:38:48Z</time></trkpt><trkpt lat="44.347105677270434" lon="7.751657170137591"><ele>575.6666666666667</ele><time>2026-05-01T14:38:49Z</time></trkpt><trkpt lat="44.34723747608785" lon="7.751768125725436"><ele>577.3333333333334</ele><time>2026-05-01T14:38:50Z</time></trkpt><trkpt lat="44.34732939100515" lon="7.751974172453342"><ele>579.0</ele><time>2026-05-01T14:38:51Z</time></trkpt><trkpt lat="44.34742040304055" lon="7.7522256767377895"><ele>579.0</ele><time>2026-05-01T14:38:52Z</time></trkpt><trkpt lat="44.34751186527731" lon="7.752429378280285"><ele>579.0</ele><time>2026-05-01T14:38:53Z</time></trkpt><trkpt lat="44.347591033705136" lon="7.752557714590061"><ele>579.0</ele><time>2026-05-01T14:38:54Z</time></trkpt><trkpt lat="44.34770614224689" lon="7.752607323597239"><ele>579.0</ele><time>2026-05-01T14:38:55Z</time></trkpt><trkpt lat="44.34784112396993" lon="7.752577489134981"><ele>579.0</ele><time>2026-05-01T14:38:56Z</time></trkpt><trkpt lat="44.34797275982144" lon="7.752505320201432"><ele>579.0</ele><time>2026-05-01T14:38:57Z</time></trkpt><trkpt lat="44.34807890726737" lon="7.752438542543974"><ele>579.0</ele><time>2026-05-01T14:38:58Z</time></trkpt><trkpt lat="44.34816093820328" lon="7.752394276112745"><ele>579.0</ele><time>2026-05-01T14:38:59Z</time></trkpt><trkpt lat="44.34823836506096" lon="7.752363938253961"><ele>579.0</ele><time>2026-05-01T14:39:00Z</time></trkpt><trkpt lat="44.348325974179104" lon="7.752349087101426"><ele>581.25</ele><time>2026-05-01T14:39:01Z</time></trkpt><trkpt lat="44.34843836248873" lon="7.752375966195839"><ele>583.5</ele><time>2026-05-01T14:39:02Z</time></trkpt><trkpt lat="44.348569636866806" lon="7.752346365514458"><ele>585.75</ele><time>2026-05-01T14:39:03Z</time></trkpt><trkpt lat="44.34872098358606" lon="7.7523096111602845"><ele>588.0</ele><time>2026-05-01T14:39:04Z</time></trkpt><trkpt lat="44.34889113004086" lon="7.752262503158228"><ele>588.25</ele><time>2026-05-01T14:39:05Z</time></trkpt><trkpt lat="44.349051912888356" lon="7.7522222508617"><ele>588.5</ele><time>2026-05-01T14:39:06Z</time></trkpt><trkpt lat="44.349196471189536" lon="7.752188444559122"><ele>588.75</ele><time>2026-05-01T14:39:07Z</time></trkpt><trkpt lat="44.34932995919153" lon="7.75214547397515"><ele>589.0</ele><time>2026-05-01T14:39:08Z</time></trkpt><trkpt lat="44.349449887260576" lon="7.752097524006818"><ele>589.0</ele><time>2026-05-01T14:39:09Z</time></trkpt><trkpt lat="44.34956310891741" lon="7.752038433482239"><ele>589.0</ele><time>2026-05-01T14:39:10Z</time></trkpt><trkpt lat="44.34966718370211" lon="7.751972414648938"><ele>589.0</ele><time>2026-05-01T14:39:11Z</time></trkpt><trkpt lat="44.34976640053451" lon="7.751907873226583"><ele>589.0</ele><time>2026-05-01T14:39:12Z</time></trkpt><trkpt lat="44.34986577256763" lon="7.75184512157459"><ele>587.75</ele><time>2026-05-01T14:39:13Z</time></trkpt><trkpt lat="44.3499678007214" lon="7.751787899493077"><ele>586.5</ele><time>2026-05-01T14:39:14Z</time></trkpt><trkpt lat="44.350075422533834" lon="7.751717426177541"><ele>585.25</ele><time>2026-05-01T14:39:15Z</time></trkpt><trkpt lat="44.350190003470445" lon="7.751631159187374"><ele>584.0</ele><time>2026-05-01T14:39:16Z</time></trkpt><trkpt lat="44.350317222172926" lon="7.7515290177336125"><ele>584.0</ele><time>2026-05-01T14:39:17Z</time></trkpt><trkpt lat="44.35046237117384" lon="7.751415463814467"><ele>584.0</ele><time>2026-05-01T14:39:18Z</time></trkpt><trkpt lat="44.350617580495964" lon="7.751293708438462"><ele>584.0</ele><time>2026-05-01T14:39:19Z</time></trkpt><trkpt lat="44.35078939617837" lon="7.7511620309604625"><ele>581.0</ele><time>2026-05-01T14:39:20Z</time></trkpt><trkpt lat="44.35098525304359" lon="7.75101572934399"><ele>578.0</ele><time>2026-05-01T14:39:21Z</time></trkpt><trkpt lat="44.351193912422524" lon="7.750855737470561"><ele>578.5</ele><time>2026-05-01T14:39:22Z</time></trkpt><trkpt lat="44.3514061120932" lon="7.750695862215953"><ele>579.0</ele><time>2026-05-01T14:39:23Z</time></trkpt><trkpt lat="44.35161558786717" lon="7.75053092756715"><ele>579.0</ele><time>2026-05-01T14:39:24Z</time></trkpt><trkpt lat="44.35183655426557" lon="7.750357255799624"><ele>579.0</ele><time>2026-05-01T14:39:25Z</time></trkpt><trkpt lat="44.35205929610815" lon="7.75018184935673"><ele>574.5</ele><time>2026-05-01T14:39:26Z</time></trkpt><trkpt lat="44.35228619187064" lon="7.750005542200166"><ele>570.0</ele><time>2026-05-01T14:39:27Z</time></trkpt><trkpt lat="44.352514399604686" lon="7.749830352064389"><ele>570.0</ele><time>2026-05-01T14:39:28Z</time></trkpt><trkpt lat="44.3527432553352" lon="7.749656595944601"><ele>570.0</ele><time>2026-05-01T14:39:29Z</time></trkpt><trkpt lat="44.35297793114814" lon="7.749488876348174"><ele>569.5</ele><time>2026-05-01T14:39:30Z</time></trkpt><trkpt lat="44.353217214312096" lon="7.749336738243515"><ele>569.0</ele><time>2026-05-01T14:39:31Z</time></trkpt><trkpt lat="44.353472202531094" lon="7.749201575026254"><ele>569.0</ele><time>2026-05-01T14:39:32Z</time></trkpt><trkpt lat="44.35372412823995" lon="7.749081574428058"><ele>569.0</ele><time>2026-05-01T14:39:33Z</time></trkpt><trkpt lat="44.353979212630016" lon="7.748967848281284"><ele>569.0</ele><time>2026-05-01T14:39:34Z</time></trkpt><trkpt lat="44.35423749072146" lon="7.748855757263135"><ele>569.0</ele><time>2026-05-01T14:39:35Z</time></trkpt><trkpt lat="44.35449314811284" lon="7.7487468009453515"><ele>569.0</ele><time>2026-05-01T14:39:36Z</time></trkpt><trkpt lat="44.354739422667876" lon="7.7486366291296"><ele>569.0</ele><time>2026-05-01T14:39:37Z</time></trkpt><trkpt lat="44.35498480995865" lon="7.748513101299195"><ele>569.0</ele><time>2026-05-01T14:39:38Z</time></trkpt><trkpt lat="44.35521537627861" lon="7.74836062171569"><ele>569.0</ele><time>2026-05-01T14:39:39Z</time></trkpt><trkpt lat="44.3554482728516" lon="7.748173874519427"><ele>569.0</ele><time>2026-05-01T14:39:40Z</time></trkpt><trkpt lat="44.355645277257004" lon="7.74797092264058"><ele>569.0</ele><time>2026-05-01T14:39:41Z</time></trkpt><trkpt lat="44.3558393214829" lon="7.747729887920109"><ele>567.5</ele><time>2026-05-01T14:39:42Z</time></trkpt><trkpt lat="44.356021617596916" lon="7.7474543004329455"><ele>566.0</ele><time>2026-05-01T14:39:43Z</time></trkpt><trkpt lat="44.35618554773592" lon="7.74715861222665"><ele>565.5</ele><time>2026-05-01T14:39:44Z</time></trkpt><trkpt lat="44.35633607699296" lon="7.746861398121717"><ele>565.0</ele><time>2026-05-01T14:39:45Z</time></trkpt><trkpt lat="44.35648564739147" lon="7.7465588844341005"><ele>565.0</ele><time>2026-05-01T14:39:46Z</time></trkpt><trkpt lat="44.35663482070438" lon="7.746262935431768"><ele>565.0</ele><time>2026-05-01T14:39:47Z</time></trkpt><trkpt lat="44.35679120784" lon="7.745963487970515"><ele>565.0</ele><time>2026-05-01T14:39:48Z</time></trkpt><trkpt lat="44.35694107967606" lon="7.745679222033594"><ele>565.0</ele><time>2026-05-01T14:39:49Z</time></trkpt><trkpt lat="44.35708699358091" lon="7.7453972775180295"><ele>564.5</ele><time>2026-05-01T14:39:50Z</time></trkpt><trkpt lat="44.35722548540384" lon="7.745137336158442"><ele>564.0</ele><time>2026-05-01T14:39:51Z</time></trkpt><trkpt lat="44.35737171970429" lon="7.744872754043279"><ele>564.0</ele><time>2026-05-01T14:39:52Z</time></trkpt><trkpt lat="44.35751556303442" lon="7.744607912837976"><ele>564.0</ele><time>2026-05-01T14:39:53Z</time></trkpt><trkpt lat="44.35766768110422" lon="7.744314918769527"><ele>564.0</ele><time>2026-05-01T14:39:54Z</time></trkpt><trkpt lat="44.35781513717938" lon="7.7440264600197795"><ele>564.0</ele><time>2026-05-01T14:39:55Z</time></trkpt><trkpt lat="44.35796893333389" lon="7.743734109522256"><ele>564.5</ele><time>2026-05-01T14:39:56Z</time></trkpt><trkpt lat="44.358122599000644" lon="7.743439865528571"><ele>565.0</ele><time>2026-05-01T14:39:57Z</time></trkpt><trkpt lat="44.35827645449169" lon="7.743148557178033"><ele>565.0</ele><time>2026-05-01T14:39:58Z</time></trkpt><trkpt lat="44.358429921353874" lon="7.742857235716756"><ele>565.0</ele><time>2026-05-01T14:39:59Z</time></trkpt><trkpt lat="44.35858532878174" lon="7.742561700211638"><ele>564.0</ele><time>2026-05-01T14:40:00Z</time></trkpt><trkpt lat="44.35873795392062" lon="7.742273712725896"><ele>563.0</ele><time>2026-05-01T14:40:01Z</time></trkpt><trkpt lat="44.35889304740775" lon="7.741979598694296"><ele>560.0</ele><time>2026-05-01T14:40:02Z</time></trkpt><trkpt lat="44.35904609224228" lon="7.741696807457269"><ele>557.0</ele><time>2026-05-01T14:40:03Z</time></trkpt><trkpt lat="44.35919534723807" lon="7.741429547756475"><ele>557.0</ele><time>2026-05-01T14:40:04Z</time></trkpt><trkpt lat="44.359329567420666" lon="7.741168456522905"><ele>557.0</ele><time>2026-05-01T14:40:05Z</time></trkpt><trkpt lat="44.35944200854384" lon="7.740875218302086"><ele>554.0</ele><time>2026-05-01T14:40:06Z</time></trkpt><trkpt lat="44.3595036912074" lon="7.7405367445300275"><ele>551.0</ele><time>2026-05-01T14:40:07Z</time></trkpt><trkpt lat="44.35950703581518" lon="7.740205596982276"><ele>548.5</ele><time>2026-05-01T14:40:08Z</time></trkpt><trkpt lat="44.359457584789006" lon="7.739889644379806"><ele>546.0</ele><time>2026-05-01T14:40:09Z</time></trkpt><trkpt lat="44.35937560574728" lon="7.73958237386237"><ele>546.5</ele><time>2026-05-01T14:40:10Z</time></trkpt><trkpt lat="44.35925136751274" lon="7.73928492425198"><ele>547.0</ele><time>2026-05-01T14:40:11Z</time></trkpt><trkpt lat="44.35914074818938" lon="7.739000948763414"><ele>547.0</ele><time>2026-05-01T14:40:12Z</time></trkpt><trkpt lat="44.35909007971587" lon="7.738728797890387"><ele>547.0</ele><time>2026-05-01T14:40:13Z</time></trkpt><trkpt lat="44.35908294735316" lon="7.738490138878653"><ele>547.0</ele><time>2026-05-01T14:40:14Z</time></trkpt><trkpt lat="44.35912388807045" lon="7.738281945128378"><ele>546.3333333333334</ele><time>2026-05-01T14:40:15Z</time></trkpt><trkpt lat="44.35922908291664" lon="7.738064122147984"><ele>545.6666666666666</ele><time>2026-05-01T14:40:16Z</time></trkpt><trkpt lat="44.3593863358032" lon="7.7378764199022365"><ele>545.0</ele><time>2026-05-01T14:40:17Z</time></trkpt><trkpt lat="44.35959833279002" lon="7.737709608509134"><ele>542.5</ele><time>2026-05-01T14:40:18Z</time></trkpt><trkpt lat="44.35981735388554" lon="7.737534041520519"><ele>540.0</ele><time>2026-05-01T14:40:19Z</time></trkpt><trkpt lat="44.360045145383474" lon="7.737337722128569"><ele>540.0</ele><time>2026-05-01T14:40:20Z</time></trkpt><trkpt lat="44.360270512659056" lon="7.737113631127466"><ele>540.0</ele><time>2026-05-01T14:40:21Z</time></trkpt><trkpt lat="44.360490090931215" lon="7.736879764772924"><ele>536.5</ele><time>2026-05-01T14:40:22Z</time></trkpt><trkpt lat="44.36070555880309" lon="7.7366463556658545"><ele>533.0</ele><time>2026-05-01T14:40:23Z</time></trkpt><trkpt lat="44.360920979706876" lon="7.736420071378984"><ele>533.0</ele><time>2026-05-01T14:40:24Z</time></trkpt><trkpt lat="44.36114320350184" lon="7.736199678546159"><ele>533.0</ele><time>2026-05-01T14:40:25Z</time></trkpt><trkpt lat="44.36134654952938" lon="7.735979891749883"><ele>531.0</ele><time>2026-05-01T14:40:26Z</time></trkpt><trkpt lat="44.36155467964381" lon="7.7357454990573125"><ele>529.0</ele><time>2026-05-01T14:40:27Z</time></trkpt><trkpt lat="44.361753484525146" lon="7.735504572408506"><ele>529.0</ele><time>2026-05-01T14:40:28Z</time></trkpt><trkpt lat="44.36194230940229" lon="7.735254594425801"><ele>529.0</ele><time>2026-05-01T14:40:29Z</time></trkpt><trkpt lat="44.36213461008388" lon="7.734974098584659"><ele>527.5</ele><time>2026-05-01T14:40:30Z</time></trkpt><trkpt lat="44.36232374915324" lon="7.734679596739037"><ele>526.0</ele><time>2026-05-01T14:40:31Z</time></trkpt><trkpt lat="44.36253157537429" lon="7.734402187760225"><ele>519.5</ele><time>2026-05-01T14:40:32Z</time></trkpt><trkpt lat="44.36275321061979" lon="7.734151699155379"><ele>513.0</ele><time>2026-05-01T14:40:33Z</time></trkpt><trkpt lat="44.36298699445805" lon="7.733933676111075"><ele>511.0</ele><time>2026-05-01T14:40:34Z</time></trkpt><trkpt lat="44.36320732725179" lon="7.733697800046503"><ele>509.0</ele><time>2026-05-01T14:40:35Z</time></trkpt><trkpt lat="44.36344790747378" lon="7.733505984658769"><ele>509.0</ele><time>2026-05-01T14:40:36Z</time></trkpt><trkpt lat="44.36366356943418" lon="7.733278947675177"><ele>509.0</ele><time>2026-05-01T14:40:37Z</time></trkpt><trkpt lat="44.36385951063406" lon="7.7330242985728095"><ele>509.5</ele><time>2026-05-01T14:40:38Z</time></trkpt><trkpt lat="44.3640222228287" lon="7.732724953137877"><ele>510.0</ele><time>2026-05-01T14:40:39Z</time></trkpt><trkpt lat="44.36418493844796" lon="7.732415541528166"><ele>510.0</ele><time>2026-05-01T14:40:40Z</time></trkpt><trkpt lat="44.36434037052199" lon="7.732111302309112"><ele>510.0</ele><time>2026-05-01T14:40:41Z</time></trkpt><trkpt lat="44.36449883467436" lon="7.731796554969825"><ele>512.0</ele><time>2026-05-01T14:40:42Z</time></trkpt><trkpt lat="44.36465976475859" lon="7.731486784129196"><ele>514.0</ele><time>2026-05-01T14:40:43Z</time></trkpt><trkpt lat="44.36482036114686" lon="7.73118302379081"><ele>508.0</ele><time>2026-05-01T14:40:44Z</time></trkpt><trkpt lat="44.364983746174005" lon="7.730870199749902"><ele>502.0</ele><time>2026-05-01T14:40:45Z</time></trkpt><trkpt lat="44.36514436099549" lon="7.730557974023723"><ele>502.0</ele><time>2026-05-01T14:40:46Z</time></trkpt><trkpt lat="44.365296515118544" lon="7.730253025457097"><ele>502.0</ele><time>2026-05-01T14:40:47Z</time></trkpt><trkpt lat="44.36543022280682" lon="7.729929099733485"><ele>502.0</ele><time>2026-05-01T14:40:48Z</time></trkpt><trkpt lat="44.365541668180306" lon="7.729581811777952"><ele>502.0</ele><time>2026-05-01T14:40:49Z</time></trkpt><trkpt lat="44.36564289241132" lon="7.729222868249424"><ele>502.0</ele><time>2026-05-01T14:40:50Z</time></trkpt><trkpt lat="44.3657452395745" lon="7.728869585221956"><ele>502.0</ele><time>2026-05-01T14:40:51Z</time></trkpt><trkpt lat="44.365852486833774" lon="7.728513279506276"><ele>498.5</ele><time>2026-05-01T14:40:52Z</time></trkpt><trkpt lat="44.36596206471127" lon="7.728178468742887"><ele>495.0</ele><time>2026-05-01T14:40:53Z</time></trkpt><trkpt lat="44.36607049648351" lon="7.727861355300934"><ele>495.5</ele><time>2026-05-01T14:40:54Z</time></trkpt><trkpt lat="44.36620446313806" lon="7.727549842640012"><ele>496.0</ele><time>2026-05-01T14:40:55Z</time></trkpt><trkpt lat="44.366379838259874" lon="7.72727105296522"><ele>496.0</ele><time>2026-05-01T14:40:56Z</time></trkpt><trkpt lat="44.366583714828955" lon="7.727022087799508"><ele>496.0</ele><time>2026-05-01T14:40:57Z</time></trkpt><trkpt lat="44.36681026176391" lon="7.726793440977301"><ele>496.5</ele><time>2026-05-01T14:40:58Z</time></trkpt><trkpt lat="44.36703014159317" lon="7.726566493027807"><ele>497.0</ele><time>2026-05-01T14:40:59Z</time></trkpt><trkpt lat="44.367246573314006" lon="7.72633815813647"><ele>497.0</ele><time>2026-05-01T14:41:00Z</time></trkpt><trkpt lat="44.367460034109946" lon="7.726112613015245"><ele>497.0</ele><time>2026-05-01T14:41:01Z</time></trkpt><trkpt lat="44.36765264828306" lon="7.7259027192883005"><ele>496.3333333333333</ele><time>2026-05-01T14:41:02Z</time></trkpt><trkpt lat="44.367831732954244" lon="7.725711293025942"><ele>495.66666666666663</ele><time>2026-05-01T14:41:03Z</time></trkpt><trkpt lat="44.36799549075937" lon="7.725509920084453"><ele>495.0</ele><time>2026-05-01T14:41:04Z</time></trkpt><trkpt lat="44.36812427621441" lon="7.72527303756977"><ele>491.5</ele><time>2026-05-01T14:41:05Z</time></trkpt><trkpt lat="44.36820180308299" lon="7.724981594361715"><ele>488.0</ele><time>2026-05-01T14:41:06Z</time></trkpt><trkpt lat="44.368235387668754" lon="7.724635289144262"><ele>485.5</ele><time>2026-05-01T14:41:07Z</time></trkpt><trkpt lat="44.3682403863278" lon="7.7242579990744105"><ele>483.0</ele><time>2026-05-01T14:41:08Z</time></trkpt><trkpt lat="44.36822942400692" lon="7.723875388027391"><ele>482.5</ele><time>2026-05-01T14:41:09Z</time></trkpt><trkpt lat="44.36822356585943" lon="7.723475572541361"><ele>482.0</ele><time>2026-05-01T14:41:10Z</time></trkpt><trkpt lat="44.36822535486897" lon="7.723082065907756"><ele>482.0</ele><time>2026-05-01T14:41:11Z</time></trkpt><trkpt lat="44.36822036966707" lon="7.722737857986201"><ele>482.0</ele><time>2026-05-01T14:41:12Z</time></trkpt><trkpt lat="44.36818560690692" lon="7.7223986772369875"><ele>482.0</ele><time>2026-05-01T14:41:13Z</time></trkpt><trkpt lat="44.36809087329821" lon="7.722070122212317"><ele>482.0</ele><time>2026-05-01T14:41:14Z</time></trkpt><trkpt lat="44.36795587397041" lon="7.72173955182928"><ele>486.0</ele><time>2026-05-01T14:41:15Z</time></trkpt><trkpt lat="44.367813008276194" lon="7.721400383670715"><ele>490.0</ele><time>2026-05-01T14:41:16Z</time></trkpt><trkpt lat="44.367671688434974" lon="7.721058459268647"><ele>491.5</ele><time>2026-05-01T14:41:17Z</time></trkpt><trkpt lat="44.367529650738554" lon="7.720726447673692"><ele>493.0</ele><time>2026-05-01T14:41:18Z</time></trkpt><trkpt lat="44.36739250147644" lon="7.720406675592767"><ele>495.5</ele><time>2026-05-01T14:41:19Z</time></trkpt><trkpt lat="44.3672769144511" lon="7.720108596671095"><ele>498.0</ele><time>2026-05-01T14:41:20Z</time></trkpt><trkpt lat="44.367190365145426" lon="7.719778267088431"><ele>498.0</ele><time>2026-05-01T14:41:21Z</time></trkpt><trkpt lat="44.36717607185946" lon="7.71949934468924"><ele>498.0</ele><time>2026-05-01T14:41:22Z</time></trkpt><trkpt lat="44.3672103684928" lon="7.719228052650008"><ele>498.0</ele><time>2026-05-01T14:41:23Z</time></trkpt><trkpt lat="44.3672939234374" lon="7.718901387673179"><ele>499.5</ele><time>2026-05-01T14:41:24Z</time></trkpt><trkpt lat="44.36737508688682" lon="7.718546656654777"><ele>501.0</ele><time>2026-05-01T14:41:25Z</time></trkpt><trkpt lat="44.367457131545756" lon="7.718195275231038"><ele>501.0</ele><time>2026-05-01T14:41:26Z</time></trkpt><trkpt lat="44.36753881410467" lon="7.71782844491993"><ele>501.0</ele><time>2026-05-01T14:41:27Z</time></trkpt><trkpt lat="44.3676204972121" lon="7.717470169587797"><ele>500.5</ele><time>2026-05-01T14:41:28Z</time></trkpt><trkpt lat="44.36769985275842" lon="7.717115459709476"><ele>500.0</ele><time>2026-05-01T14:41:29Z</time></trkpt><trkpt lat="44.36777837845741" lon="7.716756232889518"><ele>500.0</ele><time>2026-05-01T14:41:30Z</time></trkpt><trkpt lat="44.36785658292537" lon="7.716405188670382"><ele>500.0</ele><time>2026-05-01T14:41:31Z</time></trkpt><trkpt lat="44.36793662184395" lon="7.7160564630516015"><ele>500.0</ele><time>2026-05-01T14:41:32Z</time></trkpt><trkpt lat="44.36801140746354" lon="7.715736519469696"><ele>500.0</ele><time>2026-05-01T14:41:33Z</time></trkpt><trkpt lat="44.36807834391051" lon="7.715431164442884"><ele>500.66666666666663</ele><time>2026-05-01T14:41:34Z</time></trkpt><trkpt lat="44.368144296217324" lon="7.715136205846832"><ele>501.33333333333337</ele><time>2026-05-01T14:41:35Z</time></trkpt><trkpt lat="44.36821078052932" lon="7.714830760544513"><ele>502.0</ele><time>2026-05-01T14:41:36Z</time></trkpt><trkpt lat="44.36828008095152" lon="7.714520982153483"><ele>502.0</ele><time>2026-05-01T14:41:37Z</time></trkpt><trkpt lat="44.36835058508247" lon="7.714211952642924"><ele>502.0</ele><time>2026-05-01T14:41:38Z</time></trkpt><trkpt lat="44.36841025958633" lon="7.713953099954589"><ele>502.0</ele><time>2026-05-01T14:41:39Z</time></trkpt><trkpt lat="44.368455704480894" lon="7.7137543286128745"><ele>502.0</ele><time>2026-05-01T14:41:40Z</time></trkpt><trkpt lat="44.368499851353604" lon="7.713558726385639"><ele>502.0</ele><time>2026-05-01T14:41:41Z</time></trkpt><trkpt lat="44.368541254258034" lon="7.713367311490008"><ele>502.0</ele><time>2026-05-01T14:41:42Z</time></trkpt><trkpt lat="44.368586873409704" lon="7.713150606366822"><ele>502.0</ele><time>2026-05-01T14:41:43Z</time></trkpt><trkpt lat="44.368633533539665" lon="7.712919249501572"><ele>502.0</ele><time>2026-05-01T14:41:44Z</time></trkpt><trkpt lat="44.368680453435715" lon="7.7126926956462265"><ele>502.0</ele><time>2026-05-01T14:41:45Z</time></trkpt><trkpt lat="44.368730421238844" lon="7.712494927623656"><ele>502.0</ele><time>2026-05-01T14:41:46Z</time></trkpt><trkpt lat="44.368781111047234" lon="7.712327949749197"><ele>502.0</ele><time>2026-05-01T14:41:47Z</time></trkpt><trkpt lat="44.36883016837348" lon="7.712191647932766"><ele>502.0</ele><time>2026-05-01T14:41:48Z</time></trkpt><trkpt lat="44.36889139886565" lon="7.71206987391475"><ele>502.0</ele><time>2026-05-01T14:41:49Z</time></trkpt><trkpt lat="44.36895788614199" lon="7.711940597033415"><ele>502.0</ele><time>2026-05-01T14:41:50Z</time></trkpt><trkpt lat="44.36899421990046" lon="7.711777974010793"><ele>502.0</ele><time>2026-05-01T14:41:51Z</time></trkpt><trkpt lat="44.36900090501803" lon="7.7115755784489775"><ele>502.0</ele><time>2026-05-01T14:41:52Z</time></trkpt><trkpt lat="44.36903392392153" lon="7.711356154287205"><ele>502.0</ele><time>2026-05-01T14:41:53Z</time></trkpt><trkpt lat="44.36911465709301" lon="7.7111436561234195"><ele>502.0</ele><time>2026-05-01T14:41:54Z</time></trkpt><trkpt lat="44.36920687704555" lon="7.7109912327206365"><ele>502.0</ele><time>2026-05-01T14:41:55Z</time></trkpt><trkpt lat="44.36928424248023" lon="7.710875909963469"><ele>502.0</ele><time>2026-05-01T14:41:56Z</time></trkpt><trkpt lat="44.36935257615244" lon="7.71077396441205"><ele>502.0</ele><time>2026-05-01T14:41:57Z</time></trkpt><trkpt lat="44.3694169347284" lon="7.7106709274968415"><ele>502.0</ele><time>2026-05-01T14:41:58Z</time></trkpt><trkpt lat="44.3694774357892" lon="7.71057521269518"><ele>502.00000000000006</ele><time>2026-05-01T14:41:59Z</time></trkpt><trkpt lat="44.36954228668823" lon="7.710497489005358"><ele>502.00000000000006</ele><time>2026-05-01T14:42:00Z</time></trkpt><trkpt lat="44.369606884033814" lon="7.710399911365408"><ele>502.0</ele><time>2026-05-01T14:42:01Z</time></trkpt><trkpt lat="44.3696791410377" lon="7.710290981628451"><ele>502.0</ele><time>2026-05-01T14:42:02Z</time></trkpt><trkpt lat="44.36974551500786" lon="7.710163720416188"><ele>502.5</ele><time>2026-05-01T14:42:03Z</time></trkpt><trkpt lat="44.369834195777784" lon="7.710049467306795"><ele>503.0</ele><time>2026-05-01T14:42:04Z</time></trkpt><trkpt lat="44.369923203952304" lon="7.709922371365146"><ele>503.5</ele><time>2026-05-01T14:42:05Z</time></trkpt><trkpt lat="44.370009590087854" lon="7.709772801480977"><ele>504.0</ele><time>2026-05-01T14:42:06Z</time></trkpt><trkpt lat="44.37009452419781" lon="7.7096114642375975"><ele>504.0</ele><time>2026-05-01T14:42:07Z</time></trkpt><trkpt lat="44.37016556363551" lon="7.709444792569163"><ele>504.0</ele><time>2026-05-01T14:42:08Z</time></trkpt><trkpt lat="44.37022860073522" lon="7.709265603187995"><ele>504.0</ele><time>2026-05-01T14:42:09Z</time></trkpt><trkpt lat="44.37028626595324" lon="7.709072846158355"><ele>504.0</ele><time>2026-05-01T14:42:10Z</time></trkpt><trkpt lat="44.37034351611924" lon="7.708877562687511"><ele>504.25</ele><time>2026-05-01T14:42:11Z</time></trkpt><trkpt lat="44.370396863412665" lon="7.708689060398117"><ele>504.5</ele><time>2026-05-01T14:42:12Z</time></trkpt><trkpt lat="44.37044820161331" lon="7.708501964981627"><ele>504.75</ele><time>2026-05-01T14:42:13Z</time></trkpt><trkpt lat="44.370494511331486" lon="7.708328068287767"><ele>505.0</ele><time>2026-05-01T14:42:14Z</time></trkpt><trkpt lat="44.370539516887554" lon="7.70818772076407"><ele>504.6</ele><time>2026-05-01T14:42:15Z</time></trkpt><trkpt lat="44.37061646898714" lon="7.7081062500983615"><ele>504.2</ele><time>2026-05-01T14:42:16Z</time></trkpt><trkpt lat="44.37068951081587" lon="7.70803969839367"><ele>503.79999999999995</ele><time>2026-05-01T14:42:17Z</time></trkpt><trkpt lat="44.37078843995761" lon="7.708091664050018"><ele>503.4</ele><time>2026-05-01T14:42:18Z</time></trkpt><trkpt lat="44.37089818120063" lon="7.708112019655815"><ele>503.0</ele><time>2026-05-01T14:42:19Z</time></trkpt><trkpt lat="44.371048335837344" lon="7.708140434223787"><ele>503.0</ele><time>2026-05-01T14:42:20Z</time></trkpt><trkpt lat="44.37120581822833" lon="7.7081598897053505"><ele>503.0</ele><time>2026-05-01T14:42:21Z</time></trkpt><trkpt lat="44.371369893277176" lon="7.70820434625474"><ele>503.0</ele><time>2026-05-01T14:42:22Z</time></trkpt><trkpt lat="44.37152563697856" lon="7.708296810901151"><ele>503.0</ele><time>2026-05-01T14:42:23Z</time></trkpt><trkpt lat="44.37169339290991" lon="7.708414914751878"><ele>503.0</ele><time>2026-05-01T14:42:24Z</time></trkpt><trkpt lat="44.37186498284162" lon="7.708572789852511"><ele>503.0</ele><time>2026-05-01T14:42:25Z</time></trkpt><trkpt lat="44.372067133290344" lon="7.7086947557768015"><ele>501.66666666666663</ele><time>2026-05-01T14:42:26Z</time></trkpt><trkpt lat="44.37225903357525" lon="7.708766793963513"><ele>500.33333333333337</ele><time>2026-05-01T14:42:27Z</time></trkpt><trkpt lat="44.37244445719743" lon="7.708807090989894"><ele>499.0</ele><time>2026-05-01T14:42:28Z</time></trkpt><trkpt lat="44.37262059255163" lon="7.708794653269539"><ele>499.0</ele><time>2026-05-01T14:42:29Z</time></trkpt><trkpt lat="44.37280583574221" lon="7.708756104017947"><ele>499.0</ele><time>2026-05-01T14:42:30Z</time></trkpt><trkpt lat="44.37299098876467" lon="7.708751435200683"><ele>499.0</ele><time>2026-05-01T14:42:31Z</time></trkpt><trkpt lat="44.373136038486436" lon="7.708814586818704"><ele>498.0</ele><time>2026-05-01T14:42:32Z</time></trkpt><trkpt lat="44.373256051879544" lon="7.7088547856823295"><ele>497.0</ele><time>2026-05-01T14:42:33Z</time></trkpt><trkpt lat="44.373346760901626" lon="7.708891877315397"><ele>496.0</ele><time>2026-05-01T14:42:34Z</time></trkpt><trkpt lat="44.37340292172731" lon="7.708846651455793"><ele>495.0</ele><time>2026-05-01T14:42:35Z</time></trkpt><trkpt lat="44.37342482079012" lon="7.708725962546091"><ele>494.0</ele><time>2026-05-01T14:42:36Z</time></trkpt><trkpt lat="44.37336963133207" lon="7.70858891959284"><ele>491.5</ele><time>2026-05-01T14:42:37Z</time></trkpt><trkpt lat="44.37324409440331" lon="7.70853416036688"><ele>489.0</ele><time>2026-05-01T14:42:38Z</time></trkpt><trkpt lat="44.37309130831709" lon="7.70852478570732"><ele>486.5</ele><time>2026-05-01T14:42:39Z</time></trkpt><trkpt lat="44.37293738036413" lon="7.7085151003809225"><ele>484.0</ele><time>2026-05-01T14:42:40Z</time></trkpt><trkpt lat="44.37275683719688" lon="7.708483974034187"><ele>484.0</ele><time>2026-05-01T14:42:41Z</time></trkpt><trkpt lat="44.37257476776552" lon="7.708446077760041"><ele>484.0</ele><time>2026-05-01T14:42:42Z</time></trkpt><trkpt lat="44.37242698889732" lon="7.70841963184157"><ele>484.0</ele><time>2026-05-01T14:42:43Z</time></trkpt><trkpt lat="44.37232453970117" lon="7.708369557754054"><ele>484.0</ele><time>2026-05-01T14:42:44Z</time></trkpt><trkpt lat="44.37225999302875" lon="7.708303433472189"><ele>484.0</ele><time>2026-05-01T14:42:46Z</time></trkpt><trkpt lat="44.372307954571674" lon="7.708228990071474"><ele>484.0</ele><time>2026-05-01T14:42:47Z</time></trkpt><trkpt lat="44.37239762967803" lon="7.708210566077582"><ele>484.0</ele><time>2026-05-01T14:42:48Z</time></trkpt><trkpt lat="44.37252883067735" lon="7.708245199135352"><ele>484.0</ele><time>2026-05-01T14:42:49Z</time></trkpt><trkpt lat="44.37268693988793" lon="7.7082823981298025"><ele>484.0</ele><time>2026-05-01T14:42:50Z</time></trkpt><trkpt lat="44.372855277029835" lon="7.708304962025933"><ele>484.0</ele><time>2026-05-01T14:42:51Z</time></trkpt><trkpt lat="44.373026927615506" lon="7.7083157598125815"><ele>484.0</ele><time>2026-05-01T14:42:52Z</time></trkpt><trkpt lat="44.37320809331397" lon="7.708329877678894"><ele>483.0</ele><time>2026-05-01T14:42:53Z</time></trkpt><trkpt lat="44.37337924187931" lon="7.708347699983417"><ele>482.0</ele><time>2026-05-01T14:42:54Z</time></trkpt><trkpt lat="44.3735349241139" lon="7.708349503282361"><ele>481.0</ele><time>2026-05-01T14:42:55Z</time></trkpt><trkpt lat="44.373691619115824" lon="7.708289738236139"><ele>481.0</ele><time>2026-05-01T14:42:56Z</time></trkpt><trkpt lat="44.373840178997526" lon="7.7081530227812065"><ele>481.0</ele><time>2026-05-01T14:42:57Z</time></trkpt><trkpt lat="44.3739778245594" lon="7.707948888531084"><ele>481.0</ele><time>2026-05-01T14:42:58Z</time></trkpt><trkpt lat="44.37410112617247" lon="7.707730684319743"><ele>475.33333333333337</ele><time>2026-05-01T14:42:59Z</time></trkpt><trkpt lat="44.37420638674941" lon="7.707532124271315"><ele>469.66666666666663</ele><time>2026-05-01T14:43:00Z</time></trkpt><trkpt lat="44.37431607203971" lon="7.707365478654099"><ele>464.0</ele><time>2026-05-01T14:43:01Z</time></trkpt><trkpt lat="44.374437219172904" lon="7.707247415455554"><ele>464.0</ele><time>2026-05-01T14:43:02Z</time></trkpt><trkpt lat="44.37456335109919" lon="7.707161477573732"><ele>464.0</ele><time>2026-05-01T14:43:03Z</time></trkpt><trkpt lat="44.374674083916155" lon="7.707075860639047"><ele>464.0</ele><time>2026-05-01T14:43:04Z</time></trkpt><trkpt lat="44.37476111855037" lon="7.706950407481117"><ele>464.0</ele><time>2026-05-01T14:43:05Z</time></trkpt><trkpt lat="44.374783434529036" lon="7.706780965905922"><ele>463.66666666666663</ele><time>2026-05-01T14:43:06Z</time></trkpt><trkpt lat="44.37482411447085" lon="7.7065930373076625"><ele>463.33333333333337</ele><time>2026-05-01T14:43:07Z</time></trkpt><trkpt lat="44.37486515259464" lon="7.706412678725894"><ele>463.0</ele><time>2026-05-01T14:43:08Z</time></trkpt><trkpt lat="44.37497938362263" lon="7.706182501398518"><ele>463.0</ele><time>2026-05-01T14:43:09Z</time></trkpt><trkpt lat="44.37512491477035" lon="7.70595461281527"><ele>463.0</ele><time>2026-05-01T14:43:10Z</time></trkpt><trkpt lat="44.37527438169435" lon="7.705720045882869"><ele>463.0</ele><time>2026-05-01T14:43:11Z</time></trkpt><trkpt lat="44.37542135964465" lon="7.705477926315385"><ele>462.33333333333337</ele><time>2026-05-01T14:43:12Z</time></trkpt><trkpt lat="44.37556201523932" lon="7.705247985454925"><ele>461.66666666666663</ele><time>2026-05-01T14:43:13Z</time></trkpt><trkpt lat="44.37569693807483" lon="7.704995277396024"><ele>461.0</ele><time>2026-05-01T14:43:14Z</time></trkpt><trkpt lat="44.375794566592624" lon="7.704732920966172"><ele>462.66666666666663</ele><time>2026-05-01T14:43:15Z</time></trkpt><trkpt lat="44.375850597600135" lon="7.704432776661952"><ele>464.33333333333337</ele><time>2026-05-01T14:43:16Z</time></trkpt><trkpt lat="44.37586171907158" lon="7.704116454723805"><ele>466.0</ele><time>2026-05-01T14:43:17Z</time></trkpt><trkpt lat="44.37587117442417" lon="7.70378560686652"><ele>469.5</ele><time>2026-05-01T14:43:18Z</time></trkpt><trkpt lat="44.37589416278197" lon="7.703469363034018"><ele>473.0</ele><time>2026-05-01T14:43:19Z</time></trkpt><trkpt lat="44.37592359045047" lon="7.7031530688846095"><ele>473.0</ele><time>2026-05-01T14:43:20Z</time></trkpt><trkpt lat="44.37595137827104" lon="7.702834501420565"><ele>473.0</ele><time>2026-05-01T14:43:21Z</time></trkpt><trkpt lat="44.37597680701854" lon="7.702507781763605"><ele>473.0</ele><time>2026-05-01T14:43:22Z</time></trkpt><trkpt lat="44.37600142684982" lon="7.7021900584839535"><ele>473.0</ele><time>2026-05-01T14:43:23Z</time></trkpt><trkpt lat="44.37602593114972" lon="7.701856940070888"><ele>473.0</ele><time>2026-05-01T14:43:24Z</time></trkpt><trkpt lat="44.37604878273827" lon="7.70154341582886"><ele>473.0</ele><time>2026-05-01T14:43:25Z</time></trkpt><trkpt lat="44.37607471249316" lon="7.701217518947581"><ele>472.5</ele><time>2026-05-01T14:43:26Z</time></trkpt><trkpt lat="44.37610097240264" lon="7.700902431348384"><ele>472.0</ele><time>2026-05-01T14:43:27Z</time></trkpt><trkpt lat="44.37612349154483" lon="7.70058406428039"><ele>472.0</ele><time>2026-05-01T14:43:28Z</time></trkpt><trkpt lat="44.37614508818428" lon="7.7002800017753605"><ele>472.0</ele><time>2026-05-01T14:43:29Z</time></trkpt><trkpt lat="44.37616843227843" lon="7.699979711400167"><ele>472.0</ele><time>2026-05-01T14:43:30Z</time></trkpt><trkpt lat="44.3761886533929" lon="7.6997035412899795"><ele>472.0</ele><time>2026-05-01T14:43:31Z</time></trkpt><trkpt lat="44.37620679101863" lon="7.69945919386912"><ele>472.0</ele><time>2026-05-01T14:43:32Z</time></trkpt><trkpt lat="44.37622734533593" lon="7.699274430172932"><ele>472.0</ele><time>2026-05-01T14:43:33Z</time></trkpt><trkpt lat="44.37626047632002" lon="7.699107395852581"><ele>472.0</ele><time>2026-05-01T14:43:34Z</time></trkpt><trkpt lat="44.37633013021428" lon="7.698944096650879"><ele>471.75</ele><time>2026-05-01T14:43:35Z</time></trkpt><trkpt lat="44.37642608557821" lon="7.69878756991463"><ele>471.5</ele><time>2026-05-01T14:43:36Z</time></trkpt><trkpt lat="44.37653272942754" lon="7.698689966709515"><ele>471.25</ele><time>2026-05-01T14:43:37Z</time></trkpt><trkpt lat="44.37664724158306" lon="7.698643110336444"><ele>471.0</ele><time>2026-05-01T14:43:38Z</time></trkpt><trkpt lat="44.37678565641877" lon="7.6986236772702545"><ele>471.5</ele><time>2026-05-01T14:43:39Z</time></trkpt><trkpt lat="44.37690894815497" lon="7.698577827402333"><ele>472.0</ele><time>2026-05-01T14:43:40Z</time></trkpt><trkpt lat="44.37699171591474" lon="7.698470395128137"><ele>472.5</ele><time>2026-05-01T14:43:41Z</time></trkpt><trkpt lat="44.377018191801575" lon="7.698319599979928"><ele>473.0</ele><time>2026-05-01T14:43:42Z</time></trkpt><trkpt lat="44.37698942353416" lon="7.698159598406874"><ele>473.0</ele><time>2026-05-01T14:43:43Z</time></trkpt><trkpt lat="44.37692165070654" lon="7.698017656646551"><ele>473.0</ele><time>2026-05-01T14:43:44Z</time></trkpt><trkpt lat="44.376801885033025" lon="7.697925796517261"><ele>473.0</ele><time>2026-05-01T14:43:45Z</time></trkpt><trkpt lat="44.376657788834045" lon="7.697824112062698"><ele>473.0</ele><time>2026-05-01T14:43:46Z</time></trkpt><trkpt lat="44.37653657908921" lon="7.69768118328046"><ele>472.66666666666663</ele><time>2026-05-01T14:43:47Z</time></trkpt><trkpt lat="44.376525558929636" lon="7.6973661948828"><ele>472.33333333333337</ele><time>2026-05-01T14:43:48Z</time></trkpt><trkpt lat="44.376481766065" lon="7.6970961161123945"><ele>472.0</ele><time>2026-05-01T14:43:49Z</time></trkpt><trkpt lat="44.37644392651807" lon="7.696838089449007"><ele>471.6666666666667</ele><time>2026-05-01T14:43:50Z</time></trkpt><trkpt lat="44.376455941464535" lon="7.696546561517697"><ele>471.33333333333337</ele><time>2026-05-01T14:43:51Z</time></trkpt><trkpt lat="44.376447023531696" lon="7.696329753290507"><ele>471.0</ele><time>2026-05-01T14:43:52Z</time></trkpt><trkpt lat="44.37646735538842" lon="7.696136285244466"><ele>471.75</ele><time>2026-05-01T14:43:53Z</time></trkpt><trkpt lat="44.37647812893699" lon="7.695953493093153"><ele>472.5</ele><time>2026-05-01T14:43:54Z</time></trkpt><trkpt lat="44.37648830696831" lon="7.695758867268562"><ele>473.25</ele><time>2026-05-01T14:43:55Z</time></trkpt><trkpt lat="44.37650203946167" lon="7.695554300363059"><ele>474.0</ele><time>2026-05-01T14:43:56Z</time></trkpt><trkpt lat="44.37651826159446" lon="7.695350130995531"><ele>473.66666666666663</ele><time>2026-05-01T14:43:57Z</time></trkpt><trkpt lat="44.37653578258149" lon="7.695140886305032"><ele>473.3333333333333</ele><time>2026-05-01T14:43:58Z</time></trkpt><trkpt lat="44.37655311805634" lon="7.694917931536552"><ele>473.0</ele><time>2026-05-01T14:43:59Z</time></trkpt><trkpt lat="44.37657306063466" lon="7.694674426080186"><ele>473.0</ele><time>2026-05-01T14:44:00Z</time></trkpt><trkpt lat="44.37659274780035" lon="7.694458316905929"><ele>473.0</ele><time>2026-05-01T14:44:01Z</time></trkpt><trkpt lat="44.37660579736932" lon="7.6941445464860365"><ele>473.0</ele><time>2026-05-01T14:44:02Z</time></trkpt><trkpt lat="44.37664621018749" lon="7.6938335834004254"><ele>471.0</ele><time>2026-05-01T14:44:03Z</time></trkpt><trkpt lat="44.3766602836324" lon="7.693491631262433"><ele>469.0</ele><time>2026-05-01T14:44:04Z</time></trkpt><trkpt lat="44.376693621618465" lon="7.693170313949757"><ele>469.0</ele><time>2026-05-01T14:44:05Z</time></trkpt><trkpt lat="44.376724018482726" lon="7.692842006534671"><ele>469.0</ele><time>2026-05-01T14:44:06Z</time></trkpt><trkpt lat="44.37674835803781" lon="7.692513492070166"><ele>469.5</ele><time>2026-05-01T14:44:07Z</time></trkpt><trkpt lat="44.37676512919606" lon="7.692174230709461"><ele>470.0</ele><time>2026-05-01T14:44:08Z</time></trkpt><trkpt lat="44.376801043757354" lon="7.691816696406553"><ele>471.0</ele><time>2026-05-01T14:44:09Z</time></trkpt><trkpt lat="44.37683045147547" lon="7.691437880201341"><ele>472.0</ele><time>2026-05-01T14:44:10Z</time></trkpt><trkpt lat="44.376846674693844" lon="7.691047358400512"><ele>472.0</ele><time>2026-05-01T14:44:11Z</time></trkpt><trkpt lat="44.376885819268864" lon="7.690687450615646"><ele>472.0</ele><time>2026-05-01T14:44:12Z</time></trkpt><trkpt lat="44.37691847559812" lon="7.690338885443906"><ele>471.5</ele><time>2026-05-01T14:44:13Z</time></trkpt><trkpt lat="44.376942809724376" lon="7.690006356830806"><ele>471.0</ele><time>2026-05-01T14:44:14Z</time></trkpt><trkpt lat="44.376966665591645" lon="7.689702298590962"><ele>471.33333333333337</ele><time>2026-05-01T14:44:15Z</time></trkpt><trkpt lat="44.37699075909926" lon="7.689416114882802"><ele>471.6666666666667</ele><time>2026-05-01T14:44:16Z</time></trkpt><trkpt lat="44.377011208318244" lon="7.689138180876389"><ele>472.0</ele><time>2026-05-01T14:44:17Z</time></trkpt><trkpt lat="44.377030320824055" lon="7.688861531718156"><ele>472.0</ele><time>2026-05-01T14:44:18Z</time></trkpt><trkpt lat="44.37704897493272" lon="7.688592397305013"><ele>472.0</ele><time>2026-05-01T14:44:19Z</time></trkpt><trkpt lat="44.37706836162011" lon="7.688307091573263"><ele>472.0</ele><time>2026-05-01T14:44:20Z</time></trkpt><trkpt lat="44.37708914799962" lon="7.688008954520553"><ele>472.0</ele><time>2026-05-01T14:44:21Z</time></trkpt><trkpt lat="44.37711004057909" lon="7.687719592608181"><ele>472.0</ele><time>2026-05-01T14:44:22Z</time></trkpt><trkpt lat="44.377132342763" lon="7.687456641884509"><ele>472.0</ele><time>2026-05-01T14:44:23Z</time></trkpt><trkpt lat="44.37715288984929" lon="7.687210913064408"><ele>472.0</ele><time>2026-05-01T14:44:24Z</time></trkpt><trkpt lat="44.37717403528937" lon="7.686957312979486"><ele>472.0</ele><time>2026-05-01T14:44:25Z</time></trkpt><trkpt lat="44.377195020633664" lon="7.6867033527215245"><ele>472.0</ele><time>2026-05-01T14:44:26Z</time></trkpt><trkpt lat="44.37721283824602" lon="7.686476068397182"><ele>472.0</ele><time>2026-05-01T14:44:27Z</time></trkpt><trkpt lat="44.377231367898084" lon="7.686260995603796"><ele>472.0</ele><time>2026-05-01T14:44:28Z</time></trkpt><trkpt lat="44.3772474421205" lon="7.686064175158129"><ele>472.0</ele><time>2026-05-01T14:44:29Z</time></trkpt><trkpt lat="44.37726594788101" lon="7.685894355649964"><ele>472.0</ele><time>2026-05-01T14:44:30Z</time></trkpt><trkpt lat="44.37728185837499" lon="7.68573766327808"><ele>472.00000000000006</ele><time>2026-05-01T14:44:31Z</time></trkpt><trkpt lat="44.37729701497526" lon="7.685617749158634"><ele>472.0</ele><time>2026-05-01T14:44:32Z</time></trkpt><trkpt lat="44.3773223010467" lon="7.685512206950339"><ele>472.0</ele><time>2026-05-01T14:44:33Z</time></trkpt><trkpt lat="44.37735479742371" lon="7.685417172122837"><ele>472.0</ele><time>2026-05-01T14:44:34Z</time></trkpt><trkpt lat="44.37738947637291" lon="7.685323654191362"><ele>472.00000000000006</ele><time>2026-05-01T14:44:35Z</time></trkpt><trkpt lat="44.37739645344614" lon="7.685159580557771"><ele>472.0</ele><time>2026-05-01T14:44:37Z</time></trkpt><trkpt lat="44.37736017480119" lon="7.685008302131718"><ele>472.20000000000005</ele><time>2026-05-01T14:44:39Z</time></trkpt><trkpt lat="44.37735326386429" lon="7.684917962751205"><ele>472.40000000000003</ele><time>2026-05-01T14:44:40Z</time></trkpt><trkpt lat="44.37735125167094" lon="7.684793927278894"><ele>472.59999999999997</ele><time>2026-05-01T14:44:41Z</time></trkpt><trkpt lat="44.377353214386474" lon="7.684640291492203"><ele>472.79999999999995</ele><time>2026-05-01T14:44:42Z</time></trkpt><trkpt lat="44.377359503085415" lon="7.684485233461406"><ele>473.0</ele><time>2026-05-01T14:44:43Z</time></trkpt><trkpt lat="44.37736708800869" lon="7.684360990552492"><ele>473.0</ele><time>2026-05-01T14:44:44Z</time></trkpt><trkpt lat="44.377373878180414" lon="7.684184649636424"><ele>473.0</ele><time>2026-05-01T14:44:45Z</time></trkpt><trkpt lat="44.3774091488173" lon="7.683941595213197"><ele>473.0</ele><time>2026-05-01T14:44:46Z</time></trkpt><trkpt lat="44.377421019466645" lon="7.683692509527787"><ele>473.3333333333333</ele><time>2026-05-01T14:44:47Z</time></trkpt><trkpt lat="44.37745611621217" lon="7.683427918022515"><ele>473.66666666666663</ele><time>2026-05-01T14:44:48Z</time></trkpt><trkpt lat="44.37747863270897" lon="7.683132276609123"><ele>474.0</ele><time>2026-05-01T14:44:49Z</time></trkpt><trkpt lat="44.377480721374404" lon="7.682810139351142"><ele>473.5</ele><time>2026-05-01T14:44:50Z</time></trkpt><trkpt lat="44.377467994393704" lon="7.682487583036715"><ele>473.0</ele><time>2026-05-01T14:44:51Z</time></trkpt><trkpt lat="44.37744353454836" lon="7.682147033499722"><ele>472.5</ele><time>2026-05-01T14:44:52Z</time></trkpt><trkpt lat="44.37740267158062" lon="7.681798451975061"><ele>472.0</ele><time>2026-05-01T14:44:53Z</time></trkpt><trkpt lat="44.37734994409954" lon="7.681438019531693"><ele>470.5</ele><time>2026-05-01T14:44:54Z</time></trkpt><trkpt lat="44.377275160428304" lon="7.681095033075846"><ele>469.0</ele><time>2026-05-01T14:44:55Z</time></trkpt><trkpt lat="44.37718789667813" lon="7.6807534166751354"><ele>470.0</ele><time>2026-05-01T14:44:56Z</time></trkpt><trkpt lat="44.377087705560236" lon="7.6804203406727405"><ele>471.0</ele><time>2026-05-01T14:44:57Z</time></trkpt><trkpt lat="44.37698216360051" lon="7.680088971290934"><ele>471.0</ele><time>2026-05-01T14:44:58Z</time></trkpt><trkpt lat="44.3768732398753" lon="7.679747743007335"><ele>471.0</ele><time>2026-05-01T14:44:59Z</time></trkpt><trkpt lat="44.376764556554704" lon="7.679403937673901"><ele>469.5</ele><time>2026-05-01T14:45:00Z</time></trkpt><trkpt lat="44.37665628920691" lon="7.679063798257805"><ele>468.0</ele><time>2026-05-01T14:45:01Z</time></trkpt><trkpt lat="44.376547038466" lon="7.678718640109646"><ele>467.5</ele><time>2026-05-01T14:45:02Z</time></trkpt><trkpt lat="44.37644016332767" lon="7.6783795620574455"><ele>467.0</ele><time>2026-05-01T14:45:03Z</time></trkpt><trkpt lat="44.376331314460174" lon="7.678035641904961"><ele>468.5</ele><time>2026-05-01T14:45:04Z</time></trkpt><trkpt lat="44.376222440063415" lon="7.677701018236396"><ele>470.0</ele><time>2026-05-01T14:45:05Z</time></trkpt><trkpt lat="44.37611258958966" lon="7.677355601322564"><ele>470.0</ele><time>2026-05-01T14:45:06Z</time></trkpt><trkpt lat="44.37600342588004" lon="7.677003345748618"><ele>470.0</ele><time>2026-05-01T14:45:07Z</time></trkpt><trkpt lat="44.375893415553655" lon="7.676651486598224"><ele>469.5</ele><time>2026-05-01T14:45:08Z</time></trkpt><trkpt lat="44.375782529055435" lon="7.676295441272876"><ele>469.0</ele><time>2026-05-01T14:45:09Z</time></trkpt><trkpt lat="44.375670223411" lon="7.675943738456715"><ele>469.0</ele><time>2026-05-01T14:45:10Z</time></trkpt><trkpt lat="44.375559425158606" lon="7.675593845283517"><ele>469.0</ele><time>2026-05-01T14:45:11Z</time></trkpt><trkpt lat="44.37544851147776" lon="7.675246078243838"><ele>469.0</ele><time>2026-05-01T14:45:12Z</time></trkpt><trkpt lat="44.37533865019424" lon="7.674889750519443"><ele>469.0</ele><time>2026-05-01T14:45:13Z</time></trkpt><trkpt lat="44.375227782786425" lon="7.67453851126115"><ele>468.0</ele><time>2026-05-01T14:45:14Z</time></trkpt><trkpt lat="44.37511500658238" lon="7.674191715788032"><ele>467.0</ele><time>2026-05-01T14:45:15Z</time></trkpt><trkpt lat="44.37500303490313" lon="7.67384648687369"><ele>468.5</ele><time>2026-05-01T14:45:16Z</time></trkpt><trkpt lat="44.37489524856334" lon="7.6735000253481624"><ele>470.0</ele><time>2026-05-01T14:45:17Z</time></trkpt><trkpt lat="44.3747890838625" lon="7.673159304549779"><ele>470.0</ele><time>2026-05-01T14:45:18Z</time></trkpt><trkpt lat="44.374680015282266" lon="7.672823458734067"><ele>470.0</ele><time>2026-05-01T14:45:19Z</time></trkpt><trkpt lat="44.374561041416975" lon="7.672502589223766"><ele>470.5</ele><time>2026-05-01T14:45:20Z</time></trkpt><trkpt lat="44.37442935907164" lon="7.672198196808575"><ele>471.0</ele><time>2026-05-01T14:45:21Z</time></trkpt><trkpt lat="44.374293621241215" lon="7.671933645332863"><ele>471.0</ele><time>2026-05-01T14:45:22Z</time></trkpt><trkpt lat="44.374157088351105" lon="7.671697482713147"><ele>471.0</ele><time>2026-05-01T14:45:23Z</time></trkpt><trkpt lat="44.3740199741322" lon="7.671489244646826"><ele>471.0</ele><time>2026-05-01T14:45:24Z</time></trkpt><trkpt lat="44.373886186512955" lon="7.671301745525137"><ele>470.66666666666663</ele><time>2026-05-01T14:45:25Z</time></trkpt><trkpt lat="44.373762301984" lon="7.671124793026077"><ele>470.3333333333333</ele><time>2026-05-01T14:45:26Z</time></trkpt><trkpt lat="44.37364646994507" lon="7.670940526642348"><ele>470.0</ele><time>2026-05-01T14:45:27Z</time></trkpt><trkpt lat="44.37352720319504" lon="7.670762984903171"><ele>470.0</ele><time>2026-05-01T14:45:28Z</time></trkpt><trkpt lat="44.3734062219672" lon="7.67058071640441"><ele>470.0</ele><time>2026-05-01T14:45:29Z</time></trkpt><trkpt lat="44.373276619288205" lon="7.670396037618015"><ele>470.0</ele><time>2026-05-01T14:45:30Z</time></trkpt><trkpt lat="44.373143891464714" lon="7.67019743750815"><ele>472.0</ele><time>2026-05-01T14:45:31Z</time></trkpt><trkpt lat="44.37300456741258" lon="7.6699792652635255"><ele>474.0</ele><time>2026-05-01T14:45:32Z</time></trkpt><trkpt lat="44.37285945606101" lon="7.669760051351921"><ele>476.0</ele><time>2026-05-01T14:45:33Z</time></trkpt><trkpt lat="44.372708334400166" lon="7.669535903012015"><ele>475.0</ele><time>2026-05-01T14:45:34Z</time></trkpt><trkpt lat="44.37254655741834" lon="7.669301563815186"><ele>474.0</ele><time>2026-05-01T14:45:35Z</time></trkpt><trkpt lat="44.3723912686778" lon="7.669078870173941"><ele>474.0</ele><time>2026-05-01T14:45:36Z</time></trkpt><trkpt lat="44.37225774587356" lon="7.668872538329678"><ele>474.0</ele><time>2026-05-01T14:45:37Z</time></trkpt><trkpt lat="44.37213686071128" lon="7.668674562354979"><ele>474.0</ele><time>2026-05-01T14:45:38Z</time></trkpt><trkpt lat="44.372033378650045" lon="7.668485088423905"><ele>475.0</ele><time>2026-05-01T14:45:39Z</time></trkpt><trkpt lat="44.371964188306535" lon="7.66830548174249"><ele>476.0</ele><time>2026-05-01T14:45:40Z</time></trkpt><trkpt lat="44.37193186706395" lon="7.668140226838771"><ele>477.0</ele><time>2026-05-01T14:45:41Z</time></trkpt><trkpt lat="44.371925243509764" lon="7.667994831403987"><ele>478.0</ele><time>2026-05-01T14:45:42Z</time></trkpt><trkpt lat="44.37193344340649" lon="7.667864395299388"><ele>478.00000000000006</ele><time>2026-05-01T14:45:43Z</time></trkpt><trkpt lat="44.3719572773399" lon="7.667749247154598"><ele>478.0</ele><time>2026-05-01T14:45:44Z</time></trkpt><trkpt lat="44.37199671732694" lon="7.667638430956749"><ele>478.0</ele><time>2026-05-01T14:45:45Z</time></trkpt><trkpt lat="44.372027325972155" lon="7.667526399458759"><ele>478.0</ele><time>2026-05-01T14:45:46Z</time></trkpt><trkpt lat="44.37203322274715" lon="7.667414227765973"><ele>478.00000000000006</ele><time>2026-05-01T14:45:47Z</time></trkpt><trkpt lat="44.37201607065047" lon="7.667327250174345"><ele>478.0</ele><time>2026-05-01T14:45:48Z</time></trkpt><trkpt lat="44.37192237123823" lon="7.667205821424022"><ele>478.0</ele><time>2026-05-01T14:45:50Z</time></trkpt><trkpt lat="44.371806712913305" lon="7.66715287481505"><ele>477.99999999999994</ele><time>2026-05-01T14:45:52Z</time></trkpt><trkpt lat="44.37174024791488" lon="7.667113569704704"><ele>477.99999999999994</ele><time>2026-05-01T14:45:53Z</time></trkpt><trkpt lat="44.37167082970602" lon="7.667035161978581"><ele>478.0</ele><time>2026-05-01T14:45:54Z</time></trkpt><trkpt lat="44.37159997198663" lon="7.666922028448275"><ele>478.0</ele><time>2026-05-01T14:45:55Z</time></trkpt><trkpt lat="44.37154533916307" lon="7.666786449225341"><ele>477.5</ele><time>2026-05-01T14:45:56Z</time></trkpt><trkpt lat="44.37149805649349" lon="7.666626557901624"><ele>477.0</ele><time>2026-05-01T14:45:57Z</time></trkpt><trkpt lat="44.371468267988746" lon="7.666463814788299"><ele>476.5</ele><time>2026-05-01T14:45:58Z</time></trkpt><trkpt lat="44.37144259201757" lon="7.666293679664105"><ele>476.0</ele><time>2026-05-01T14:45:59Z</time></trkpt><trkpt lat="44.371415272041276" lon="7.666103071633753"><ele>476.0</ele><time>2026-05-01T14:46:00Z</time></trkpt><trkpt lat="44.371381134789665" lon="7.66587557398928"><ele>476.0</ele><time>2026-05-01T14:46:01Z</time></trkpt><trkpt lat="44.371348526918226" lon="7.665622423871711"><ele>476.0</ele><time>2026-05-01T14:46:02Z</time></trkpt><trkpt lat="44.37131859742274" lon="7.665334516441389"><ele>475.5</ele><time>2026-05-01T14:46:03Z</time></trkpt><trkpt lat="44.37128478265473" lon="7.6650164167957815"><ele>475.0</ele><time>2026-05-01T14:46:04Z</time></trkpt><trkpt lat="44.37124937921034" lon="7.664684820432053"><ele>475.0</ele><time>2026-05-01T14:46:05Z</time></trkpt><trkpt lat="44.37121288441633" lon="7.664384891728085"><ele>475.0</ele><time>2026-05-01T14:46:06Z</time></trkpt><trkpt lat="44.37117283395589" lon="7.664040990036909"><ele>475.0</ele><time>2026-05-01T14:46:07Z</time></trkpt><trkpt lat="44.37113340532841" lon="7.66368404617852"><ele>475.0</ele><time>2026-05-01T14:46:08Z</time></trkpt><trkpt lat="44.37109426132305" lon="7.6633329870577525"><ele>474.0</ele><time>2026-05-01T14:46:09Z</time></trkpt><trkpt lat="44.371051933296044" lon="7.66299075539972"><ele>473.0</ele><time>2026-05-01T14:46:10Z</time></trkpt><trkpt lat="44.371005765731255" lon="7.662647359718577"><ele>472.5</ele><time>2026-05-01T14:46:11Z</time></trkpt><trkpt lat="44.37096528708708" lon="7.662297795986456"><ele>472.0</ele><time>2026-05-01T14:46:12Z</time></trkpt><trkpt lat="44.370947224313944" lon="7.661950734823003"><ele>472.5</ele><time>2026-05-01T14:46:13Z</time></trkpt><trkpt lat="44.37095615975201" lon="7.661603941831825"><ele>473.0</ele><time>2026-05-01T14:46:14Z</time></trkpt><trkpt lat="44.37098858796648" lon="7.6612798562756685"><ele>473.66666666666663</ele><time>2026-05-01T14:46:15Z</time></trkpt><trkpt lat="44.37103428827328" lon="7.660975045245706"><ele>474.33333333333337</ele><time>2026-05-01T14:46:16Z</time></trkpt><trkpt lat="44.3710890527322" lon="7.660689843269789"><ele>475.0</ele><time>2026-05-01T14:46:17Z</time></trkpt><trkpt lat="44.37114546023278" lon="7.660406187242138"><ele>477.5</ele><time>2026-05-01T14:46:18Z</time></trkpt><trkpt lat="44.37120105863177" lon="7.660109400444269"><ele>480.0</ele><time>2026-05-01T14:46:19Z</time></trkpt><trkpt lat="44.3712583327546" lon="7.659790447681852"><ele>480.0</ele><time>2026-05-01T14:46:20Z</time></trkpt><trkpt lat="44.37131950642036" lon="7.659458113916607"><ele>480.0</ele><time>2026-05-01T14:46:21Z</time></trkpt><trkpt lat="44.37138654852025" lon="7.65910700796592"><ele>479.0</ele><time>2026-05-01T14:46:22Z</time></trkpt><trkpt lat="44.37145686719469" lon="7.658751783943832"><ele>478.0</ele><time>2026-05-01T14:46:23Z</time></trkpt><trkpt lat="44.37152191001581" lon="7.658364646354709"><ele>478.0</ele><time>2026-05-01T14:46:24Z</time></trkpt><trkpt lat="44.37158815637759" lon="7.657975441879156"><ele>478.0</ele><time>2026-05-01T14:46:25Z</time></trkpt><trkpt lat="44.371651245743685" lon="7.657575536790082"><ele>477.5</ele><time>2026-05-01T14:46:26Z</time></trkpt><trkpt lat="44.37170290488257" lon="7.657189157394865"><ele>477.0</ele><time>2026-05-01T14:46:27Z</time></trkpt><trkpt lat="44.37173550188079" lon="7.656802080389717"><ele>477.0</ele><time>2026-05-01T14:46:28Z</time></trkpt><trkpt lat="44.37175856663802" lon="7.656409754361879"><ele>477.0</ele><time>2026-05-01T14:46:29Z</time></trkpt><trkpt lat="44.371775748550355" lon="7.6560462371560645"><ele>477.5</ele><time>2026-05-01T14:46:30Z</time></trkpt><trkpt lat="44.37178806650071" lon="7.655680395415474"><ele>478.0</ele><time>2026-05-01T14:46:31Z</time></trkpt><trkpt lat="44.37179007020968" lon="7.655311847869237"><ele>478.0</ele><time>2026-05-01T14:46:32Z</time></trkpt><trkpt lat="44.37178057495446" lon="7.654947103955964"><ele>478.0</ele><time>2026-05-01T14:46:33Z</time></trkpt><trkpt lat="44.37175625705997" lon="7.654561405576971"><ele>478.5</ele><time>2026-05-01T14:46:34Z</time></trkpt><trkpt lat="44.37173075854309" lon="7.654175138008683"><ele>479.0</ele><time>2026-05-01T14:46:35Z</time></trkpt><trkpt lat="44.371703337660286" lon="7.65377481488878"><ele>480.0</ele><time>2026-05-01T14:46:36Z</time></trkpt><trkpt lat="44.37166935734037" lon="7.653381212793199"><ele>481.0</ele><time>2026-05-01T14:46:37Z</time></trkpt><trkpt lat="44.371631251249504" lon="7.65298763860989"><ele>480.5</ele><time>2026-05-01T14:46:38Z</time></trkpt><trkpt lat="44.37159527875552" lon="7.652598492966059"><ele>480.0</ele><time>2026-05-01T14:46:39Z</time></trkpt><trkpt lat="44.37156064405985" lon="7.652206746994432"><ele>480.0</ele><time>2026-05-01T14:46:40Z</time></trkpt><trkpt lat="44.37152725809193" lon="7.6518167442660685"><ele>480.0</ele><time>2026-05-01T14:46:41Z</time></trkpt><trkpt lat="44.37149770357667" lon="7.65143186906778"><ele>481.0</ele><time>2026-05-01T14:46:42Z</time></trkpt><trkpt lat="44.3714704556408" lon="7.651048457079527"><ele>482.0</ele><time>2026-05-01T14:46:43Z</time></trkpt><trkpt lat="44.371438607415215" lon="7.65066527797066"><ele>481.5</ele><time>2026-05-01T14:46:44Z</time></trkpt><trkpt lat="44.37140211363219" lon="7.650283199197897"><ele>481.0</ele><time>2026-05-01T14:46:45Z</time></trkpt><trkpt lat="44.37136332554703" lon="7.649915743070222"><ele>481.5</ele><time>2026-05-01T14:46:46Z</time></trkpt><trkpt lat="44.37132443216897" lon="7.649538410255259"><ele>482.0</ele><time>2026-05-01T14:46:47Z</time></trkpt><trkpt lat="44.371286925694015" lon="7.649150509554936"><ele>482.0</ele><time>2026-05-01T14:46:48Z</time></trkpt><trkpt lat="44.37124601754736" lon="7.648763112843795"><ele>482.0</ele><time>2026-05-01T14:46:49Z</time></trkpt><trkpt lat="44.37123023676237" lon="7.648408521623007"><ele>481.5</ele><time>2026-05-01T14:46:50Z</time></trkpt><trkpt lat="44.37120353609824" lon="7.648122411311081"><ele>481.0</ele><time>2026-05-01T14:46:51Z</time></trkpt><trkpt lat="44.37114618182" lon="7.64765980563813"><ele>481.75</ele><time>2026-05-01T14:46:52Z</time></trkpt><trkpt lat="44.37113576288347" lon="7.647413525723505"><ele>482.5</ele><time>2026-05-01T14:46:53Z</time></trkpt><trkpt lat="44.37113086693375" lon="7.647221304437394"><ele>483.25</ele><time>2026-05-01T14:46:54Z</time></trkpt><trkpt lat="44.37115003798502" lon="7.647035008701132"><ele>484.0</ele><time>2026-05-01T14:46:55Z</time></trkpt><trkpt lat="44.371182016157455" lon="7.646881573490051"><ele>484.5</ele><time>2026-05-01T14:46:56Z</time></trkpt><trkpt lat="44.371161003904014" lon="7.6467378287493295"><ele>485.0</ele><time>2026-05-01T14:46:57Z</time></trkpt><trkpt lat="44.37108017765689" lon="7.646593031482446"><ele>485.5</ele><time>2026-05-01T14:46:58Z</time></trkpt><trkpt lat="44.37097060077822" lon="7.646423967927991"><ele>486.0</ele><time>2026-05-01T14:46:59Z</time></trkpt><trkpt lat="44.37090254199391" lon="7.646198816988958"><ele>485.66666666666663</ele><time>2026-05-01T14:47:00Z</time></trkpt><trkpt lat="44.37091646427907" lon="7.645925568433189"><ele>485.3333333333333</ele><time>2026-05-01T14:47:01Z</time></trkpt><trkpt lat="44.370897662389325" lon="7.645624939095091"><ele>485.0</ele><time>2026-05-01T14:47:02Z</time></trkpt><trkpt lat="44.37086446612062" lon="7.645303973743085"><ele>486.0</ele><time>2026-05-01T14:47:03Z</time></trkpt><trkpt lat="44.37085175436929" lon="7.64498791022143"><ele>487.0</ele><time>2026-05-01T14:47:04Z</time></trkpt><trkpt lat="44.370829832784366" lon="7.6446576343214"><ele>486.5</ele><time>2026-05-01T14:47:05Z</time></trkpt><trkpt lat="44.370800389610196" lon="7.644316740397076"><ele>486.0</ele><time>2026-05-01T14:47:06Z</time></trkpt><trkpt lat="44.37075860278165" lon="7.643967054522415"><ele>486.5</ele><time>2026-05-01T14:47:07Z</time></trkpt><trkpt lat="44.370711468554454" lon="7.643618922612751"><ele>487.0</ele><time>2026-05-01T14:47:08Z</time></trkpt><trkpt lat="44.37065814411951" lon="7.643272989635266"><ele>487.0</ele><time>2026-05-01T14:47:09Z</time></trkpt><trkpt lat="44.370604838517515" lon="7.642919985761297"><ele>487.0</ele><time>2026-05-01T14:47:10Z</time></trkpt><trkpt lat="44.37055126044836" lon="7.642558710459225"><ele>487.5</ele><time>2026-05-01T14:47:11Z</time></trkpt><trkpt lat="44.37049935231882" lon="7.642192420921501"><ele>488.0</ele><time>2026-05-01T14:47:12Z</time></trkpt><trkpt lat="44.370450680649554" lon="7.64181806418249"><ele>488.0</ele><time>2026-05-01T14:47:13Z</time></trkpt><trkpt lat="44.370405591333075" lon="7.64143540510771"><ele>488.0</ele><time>2026-05-01T14:47:14Z</time></trkpt><trkpt lat="44.37036639646001" lon="7.6410472723719725"><ele>488.5</ele><time>2026-05-01T14:47:15Z</time></trkpt><trkpt lat="44.37033132267443" lon="7.640653740441528"><ele>489.0</ele><time>2026-05-01T14:47:16Z</time></trkpt><trkpt lat="44.37030028937939" lon="7.640252398290788"><ele>489.5</ele><time>2026-05-01T14:47:17Z</time></trkpt><trkpt lat="44.37027668145745" lon="7.639843200336947"><ele>490.0</ele><time>2026-05-01T14:47:18Z</time></trkpt><trkpt lat="44.37025835734193" lon="7.639432433064671"><ele>491.0</ele><time>2026-05-01T14:47:19Z</time></trkpt><trkpt lat="44.37024258294013" lon="7.639023593974816"><ele>492.0</ele><time>2026-05-01T14:47:20Z</time></trkpt><trkpt lat="44.37022193726085" lon="7.63861532255767"><ele>492.0</ele><time>2026-05-01T14:47:21Z</time></trkpt><trkpt lat="44.370209431296196" lon="7.638198971930788"><ele>492.0</ele><time>2026-05-01T14:47:22Z</time></trkpt><trkpt lat="44.37019652914197" lon="7.637784867917949"><ele>491.5</ele><time>2026-05-01T14:47:23Z</time></trkpt><trkpt lat="44.37019276436929" lon="7.63737668585688"><ele>491.0</ele><time>2026-05-01T14:47:24Z</time></trkpt><trkpt lat="44.370184563887896" lon="7.636973301955508"><ele>491.0</ele><time>2026-05-01T14:47:25Z</time></trkpt><trkpt lat="44.37016417148126" lon="7.636574870024704"><ele>491.0</ele><time>2026-05-01T14:47:26Z</time></trkpt><trkpt lat="44.37014080263238" lon="7.636153511801312"><ele>491.5</ele><time>2026-05-01T14:47:27Z</time></trkpt><trkpt lat="44.37012103159504" lon="7.6357456693297685"><ele>492.0</ele><time>2026-05-01T14:47:28Z</time></trkpt><trkpt lat="44.37010619886799" lon="7.63534063277031"><ele>492.0</ele><time>2026-05-01T14:47:29Z</time></trkpt><trkpt lat="44.37010716233563" lon="7.634944724409472"><ele>492.0</ele><time>2026-05-01T14:47:30Z</time></trkpt><trkpt lat="44.370102523495035" lon="7.634556241889841"><ele>493.0</ele><time>2026-05-01T14:47:31Z</time></trkpt><trkpt lat="44.3701031211945" lon="7.634162712744116"><ele>494.0</ele><time>2026-05-01T14:47:32Z</time></trkpt><trkpt lat="44.37011006013996" lon="7.633775431964618"><ele>495.0</ele><time>2026-05-01T14:47:33Z</time></trkpt><trkpt lat="44.37012013289225" lon="7.633389589893021"><ele>496.0</ele><time>2026-05-01T14:47:34Z</time></trkpt><trkpt lat="44.370126729273295" lon="7.633006511170267"><ele>496.0</ele><time>2026-05-01T14:47:35Z</time></trkpt><trkpt lat="44.37013025000114" lon="7.632625116382845"><ele>496.0</ele><time>2026-05-01T14:47:36Z</time></trkpt><trkpt lat="44.37013464698993" lon="7.632239610468216"><ele>496.5</ele><time>2026-05-01T14:47:37Z</time></trkpt><trkpt lat="44.37014197823227" lon="7.631859135000795"><ele>497.0</ele><time>2026-05-01T14:47:38Z</time></trkpt><trkpt lat="44.37014838953093" lon="7.631492986592236"><ele>497.0</ele><time>2026-05-01T14:47:39Z</time></trkpt><trkpt lat="44.370158903396884" lon="7.631158744481429"><ele>497.0</ele><time>2026-05-01T14:47:40Z</time></trkpt><trkpt lat="44.37017020701138" lon="7.63086857431015"><ele>497.0</ele><time>2026-05-01T14:47:41Z</time></trkpt><trkpt lat="44.37019146894023" lon="7.630639040639632"><ele>497.25</ele><time>2026-05-01T14:47:42Z</time></trkpt><trkpt lat="44.37024372122445" lon="7.6304445085008545"><ele>497.5</ele><time>2026-05-01T14:47:43Z</time></trkpt><trkpt lat="44.37032449267471" lon="7.630307245409798"><ele>497.75</ele><time>2026-05-01T14:47:44Z</time></trkpt><trkpt lat="44.37042850304149" lon="7.630223685804177"><ele>498.0</ele><time>2026-05-01T14:47:45Z</time></trkpt><trkpt lat="44.37050371833976" lon="7.630132945273699"><ele>498.0</ele><time>2026-05-01T14:47:46Z</time></trkpt><trkpt lat="44.37053389777111" lon="7.629971560180293"><ele>498.0</ele><time>2026-05-01T14:47:47Z</time></trkpt><trkpt lat="44.3705124884511" lon="7.629791041023084"><ele>498.0</ele><time>2026-05-01T14:47:48Z</time></trkpt><trkpt lat="44.37044654774587" lon="7.62962527790347"><ele>498.0</ele><time>2026-05-01T14:47:49Z</time></trkpt><trkpt lat="44.37032997562092" lon="7.629459169550284"><ele>498.0</ele><time>2026-05-01T14:47:50Z</time></trkpt><trkpt lat="44.370244272051316" lon="7.629266664031499"><ele>498.0</ele><time>2026-05-01T14:47:51Z</time></trkpt><trkpt lat="44.37022632320203" lon="7.629032120625573"><ele>498.0</ele><time>2026-05-01T14:47:52Z</time></trkpt><trkpt lat="44.37024891553405" lon="7.628764891934677"><ele>498.33333333333337</ele><time>2026-05-01T14:47:53Z</time></trkpt><trkpt lat="44.37028166826364" lon="7.628461491402083"><ele>498.6666666666667</ele><time>2026-05-01T14:47:54Z</time></trkpt><trkpt lat="44.3703068865205" lon="7.628143317749056"><ele>499.0</ele><time>2026-05-01T14:47:55Z</time></trkpt><trkpt lat="44.37032972806655" lon="7.627854020013871"><ele>499.0</ele><time>2026-05-01T14:47:56Z</time></trkpt><trkpt lat="44.370355332745014" lon="7.627595685111537"><ele>499.0</ele><time>2026-05-01T14:47:57Z</time></trkpt><trkpt lat="44.370386123458694" lon="7.627323372285991"><ele>499.0</ele><time>2026-05-01T14:47:58Z</time></trkpt><trkpt lat="44.37043051914626" lon="7.627020726973169"><ele>499.5</ele><time>2026-05-01T14:47:59Z</time></trkpt><trkpt lat="44.37050578070064" lon="7.626701124806713"><ele>500.0</ele><time>2026-05-01T14:48:00Z</time></trkpt><trkpt lat="44.37061112781954" lon="7.626373545997247"><ele>500.0</ele><time>2026-05-01T14:48:01Z</time></trkpt><trkpt lat="44.37073352789531" lon="7.626035961255508"><ele>500.0</ele><time>2026-05-01T14:48:02Z</time></trkpt><trkpt lat="44.370868532363765" lon="7.625697983738774"><ele>500.0</ele><time>2026-05-01T14:48:03Z</time></trkpt><trkpt lat="44.37101666175199" lon="7.625374509734215"><ele>500.0</ele><time>2026-05-01T14:48:04Z</time></trkpt><trkpt lat="44.37119278283847" lon="7.6250537893444355"><ele>500.5</ele><time>2026-05-01T14:48:05Z</time></trkpt><trkpt lat="44.371349377255044" lon="7.624741529118678"><ele>501.0</ele><time>2026-05-01T14:48:06Z</time></trkpt><trkpt lat="44.371506570156285" lon="7.624417198126962"><ele>501.5</ele><time>2026-05-01T14:48:07Z</time></trkpt><trkpt lat="44.37165721712073" lon="7.624094520967925"><ele>502.0</ele><time>2026-05-01T14:48:08Z</time></trkpt><trkpt lat="44.371797254015924" lon="7.623768022403289"><ele>501.5</ele><time>2026-05-01T14:48:09Z</time></trkpt><trkpt lat="44.3719254527084" lon="7.623436924563764"><ele>501.0</ele><time>2026-05-01T14:48:10Z</time></trkpt><trkpt lat="44.37203488404535" lon="7.623097554227423"><ele>502.0</ele><time>2026-05-01T14:48:11Z</time></trkpt><trkpt lat="44.37213204190496" lon="7.622743935166583"><ele>503.0</ele><time>2026-05-01T14:48:12Z</time></trkpt><trkpt lat="44.37222834455206" lon="7.622393504391419"><ele>503.0</ele><time>2026-05-01T14:48:13Z</time></trkpt><trkpt lat="44.37233392286272" lon="7.622042361334289"><ele>503.0</ele><time>2026-05-01T14:48:14Z</time></trkpt><trkpt lat="44.372442709616486" lon="7.6217018787450375"><ele>503.0</ele><time>2026-05-01T14:48:15Z</time></trkpt><trkpt lat="44.37254897463881" lon="7.621369576734554"><ele>503.0</ele><time>2026-05-01T14:48:16Z</time></trkpt><trkpt lat="44.3726519911029" lon="7.621037628244032"><ele>503.0</ele><time>2026-05-01T14:48:17Z</time></trkpt><trkpt lat="44.37275454956586" lon="7.620690886451434"><ele>503.0</ele><time>2026-05-01T14:48:18Z</time></trkpt><trkpt lat="44.37285686182291" lon="7.620342540746065"><ele>503.0</ele><time>2026-05-01T14:48:19Z</time></trkpt><trkpt lat="44.37296003509702" lon="7.6199983460985745"><ele>503.0</ele><time>2026-05-01T14:48:20Z</time></trkpt><trkpt lat="44.37306013554328" lon="7.6196615063682245"><ele>503.5</ele><time>2026-05-01T14:48:21Z</time></trkpt><trkpt lat="44.37316225550792" lon="7.619320808648571"><ele>504.0</ele><time>2026-05-01T14:48:22Z</time></trkpt><trkpt lat="44.37326463341631" lon="7.6189946250159775"><ele>503.5</ele><time>2026-05-01T14:48:23Z</time></trkpt><trkpt lat="44.37336831364629" lon="7.618650520012765"><ele>503.0</ele><time>2026-05-01T14:48:24Z</time></trkpt><trkpt lat="44.37346864923888" lon="7.618317806617394"><ele>503.0</ele><time>2026-05-01T14:48:25Z</time></trkpt><trkpt lat="44.373566056265226" lon="7.617996822470847"><ele>503.0</ele><time>2026-05-01T14:48:26Z</time></trkpt><trkpt lat="44.37366299964484" lon="7.6176799062487355"><ele>504.5</ele><time>2026-05-01T14:48:27Z</time></trkpt><trkpt lat="44.373756777875826" lon="7.617367029313365"><ele>506.0</ele><time>2026-05-01T14:48:28Z</time></trkpt><trkpt lat="44.373849174484576" lon="7.617060531432428"><ele>506.0</ele><time>2026-05-01T14:48:29Z</time></trkpt><trkpt lat="44.373934846529565" lon="7.616779821338664"><ele>506.0</ele><time>2026-05-01T14:48:30Z</time></trkpt><trkpt lat="44.374016204085535" lon="7.616504491790626"><ele>506.0</ele><time>2026-05-01T14:48:31Z</time></trkpt><trkpt lat="44.37409434277965" lon="7.616233422496104"><ele>506.0</ele><time>2026-05-01T14:48:32Z</time></trkpt><trkpt lat="44.37417310416017" lon="7.615960652825368"><ele>506.0</ele><time>2026-05-01T14:48:33Z</time></trkpt><trkpt lat="44.37425384879685" lon="7.615697639572872"><ele>506.0</ele><time>2026-05-01T14:48:34Z</time></trkpt><trkpt lat="44.374331907641" lon="7.615457278375548"><ele>506.3333333333333</ele><time>2026-05-01T14:48:35Z</time></trkpt><trkpt lat="44.37440264859547" lon="7.615228240072806"><ele>506.66666666666663</ele><time>2026-05-01T14:48:36Z</time></trkpt><trkpt lat="44.37447405658389" lon="7.614993294663619"><ele>507.0</ele><time>2026-05-01T14:48:37Z</time></trkpt><trkpt lat="44.37454603648654" lon="7.61475736866371"><ele>507.0</ele><time>2026-05-01T14:48:38Z</time></trkpt><trkpt lat="44.37461717408773" lon="7.614522777632916"><ele>507.0</ele><time>2026-05-01T14:48:39Z</time></trkpt><trkpt lat="44.37469062951015" lon="7.614285108349397"><ele>507.0</ele><time>2026-05-01T14:48:40Z</time></trkpt><trkpt lat="44.37476470986616" lon="7.614043179756786"><ele>507.33333333333337</ele><time>2026-05-01T14:48:41Z</time></trkpt><trkpt lat="44.37483422358228" lon="7.613811896831078"><ele>507.6666666666667</ele><time>2026-05-01T14:48:42Z</time></trkpt><trkpt lat="44.374903711299254" lon="7.613579617685959"><ele>508.0</ele><time>2026-05-01T14:48:43Z</time></trkpt><trkpt lat="44.37497863272258" lon="7.613337492427886"><ele>508.0</ele><time>2026-05-01T14:48:44Z</time></trkpt><trkpt lat="44.375050666360245" lon="7.613097100668093"><ele>508.0</ele><time>2026-05-01T14:48:45Z</time></trkpt><trkpt lat="44.37512166682448" lon="7.612847102405466"><ele>508.0</ele><time>2026-05-01T14:48:46Z</time></trkpt><trkpt lat="44.37519312227201" lon="7.612599810553204"><ele>508.0</ele><time>2026-05-01T14:48:47Z</time></trkpt><trkpt lat="44.375265566315555" lon="7.612357995605991"><ele>508.0</ele><time>2026-05-01T14:48:48Z</time></trkpt><trkpt lat="44.375340476918176" lon="7.612119831426164"><ele>508.0</ele><time>2026-05-01T14:48:49Z</time></trkpt><trkpt lat="44.37541215104173" lon="7.611891464028143"><ele>508.0</ele><time>2026-05-01T14:48:50Z</time></trkpt><trkpt lat="44.37547957227841" lon="7.611665966353015"><ele>508.0</ele><time>2026-05-01T14:48:51Z</time></trkpt><trkpt lat="44.37554647195392" lon="7.611448063318686"><ele>508.0</ele><time>2026-05-01T14:48:52Z</time></trkpt><trkpt lat="44.375613005502984" lon="7.611226888298409"><ele>508.6666666666667</ele><time>2026-05-01T14:48:53Z</time></trkpt><trkpt lat="44.3756782952393" lon="7.611014374470661"><ele>509.33333333333337</ele><time>2026-05-01T14:48:54Z</time></trkpt><trkpt lat="44.375741395148594" lon="7.610802367812683"><ele>510.0</ele><time>2026-05-01T14:48:55Z</time></trkpt><trkpt lat="44.37580403074484" lon="7.610594907679462"><ele>510.0</ele><time>2026-05-01T14:48:56Z</time></trkpt><trkpt lat="44.37586607847145" lon="7.6103840823983075"><ele>510.0</ele><time>2026-05-01T14:48:57Z</time></trkpt><trkpt lat="44.37593184399769" lon="7.610175737184361"><ele>510.0</ele><time>2026-05-01T14:48:58Z</time></trkpt><trkpt lat="44.37599772413416" lon="7.609966309338911"><ele>510.0</ele><time>2026-05-01T14:48:59Z</time></trkpt><trkpt lat="44.376064689585284" lon="7.609758021771558"><ele>510.0</ele><time>2026-05-01T14:49:00Z</time></trkpt><trkpt lat="44.37613367765107" lon="7.609557479222491"><ele>510.0</ele><time>2026-05-01T14:49:01Z</time></trkpt><trkpt lat="44.37620905850982" lon="7.6093567756865665"><ele>510.33333333333337</ele><time>2026-05-01T14:49:02Z</time></trkpt><trkpt lat="44.37629052373884" lon="7.6091618103097485"><ele>510.6666666666667</ele><time>2026-05-01T14:49:03Z</time></trkpt><trkpt lat="44.37637663632956" lon="7.608976339503838"><ele>511.0</ele><time>2026-05-01T14:49:04Z</time></trkpt><trkpt lat="44.3764752856038" lon="7.608775237582909"><ele>511.33333333333337</ele><time>2026-05-01T14:49:05Z</time></trkpt><trkpt lat="44.3765781777943" lon="7.608573856474898"><ele>511.66666666666663</ele><time>2026-05-01T14:49:06Z</time></trkpt><trkpt lat="44.376680669707895" lon="7.608369956393594"><ele>512.0</ele><time>2026-05-01T14:49:07Z</time></trkpt><trkpt lat="44.37678510519211" lon="7.608165414951935"><ele>512.0</ele><time>2026-05-01T14:49:08Z</time></trkpt><trkpt lat="44.37689291799135" lon="7.607955125366379"><ele>512.0</ele><time>2026-05-01T14:49:09Z</time></trkpt><trkpt lat="44.37700157977704" lon="7.607739102043329"><ele>512.0</ele><time>2026-05-01T14:49:10Z</time></trkpt><trkpt lat="44.37710869626017" lon="7.607520736205009"><ele>511.66666666666663</ele><time>2026-05-01T14:49:11Z</time></trkpt><trkpt lat="44.377216738439635" lon="7.60730411205594"><ele>511.33333333333337</ele><time>2026-05-01T14:49:12Z</time></trkpt><trkpt lat="44.37732554040218" lon="7.607091169828234"><ele>511.0</ele><time>2026-05-01T14:49:13Z</time></trkpt><trkpt lat="44.3774337271643" lon="7.606880620740371"><ele>511.6666666666667</ele><time>2026-05-01T14:49:14Z</time></trkpt><trkpt lat="44.37753927402574" lon="7.606664342032021"><ele>512.3333333333334</ele><time>2026-05-01T14:49:15Z</time></trkpt><trkpt lat="44.37764639438818" lon="7.606449395596853"><ele>513.0</ele><time>2026-05-01T14:49:16Z</time></trkpt><trkpt lat="44.37775401953239" lon="7.60623755077973"><ele>512.6666666666666</ele><time>2026-05-01T14:49:17Z</time></trkpt><trkpt lat="44.37786070120067" lon="7.606022196266005"><ele>512.3333333333333</ele><time>2026-05-01T14:49:18Z</time></trkpt><trkpt lat="44.3779649991459" lon="7.605812786808"><ele>512.0</ele><time>2026-05-01T14:49:19Z</time></trkpt><trkpt lat="44.378071763965494" lon="7.60560428069751"><ele>512.0</ele><time>2026-05-01T14:49:20Z</time></trkpt><trkpt lat="44.378177980145054" lon="7.605393178345406"><ele>512.0</ele><time>2026-05-01T14:49:21Z</time></trkpt><trkpt lat="44.37828011603931" lon="7.605183597998333"><ele>512.0</ele><time>2026-05-01T14:49:22Z</time></trkpt><trkpt lat="44.378373934223674" lon="7.604992644712763"><ele>511.75</ele><time>2026-05-01T14:49:23Z</time></trkpt><trkpt lat="44.37845967727461" lon="7.604822984984666"><ele>511.5</ele><time>2026-05-01T14:49:24Z</time></trkpt><trkpt lat="44.37853846203714" lon="7.604665528653483"><ele>511.25</ele><time>2026-05-01T14:49:25Z</time></trkpt><trkpt lat="44.37861492478097" lon="7.6045166662671555"><ele>511.0</ele><time>2026-05-01T14:49:26Z</time></trkpt><trkpt lat="44.378683605230805" lon="7.6043613108712655"><ele>510.75</ele><time>2026-05-01T14:49:27Z</time></trkpt><trkpt lat="44.37874740464886" lon="7.604239946654689"><ele>510.5</ele><time>2026-05-01T14:49:28Z</time></trkpt><trkpt lat="44.37882075007548" lon="7.60413628996954"><ele>510.25</ele><time>2026-05-01T14:49:30Z</time></trkpt><trkpt lat="44.378914953450575" lon="7.604047892998414"><ele>510.0</ele><time>2026-05-01T14:49:32Z</time></trkpt><trkpt lat="44.37903224571596" lon="7.603957805029674"><ele>510.0</ele><time>2026-05-01T14:49:34Z</time></trkpt><trkpt lat="44.37907825471897" lon="7.603883541781464"><ele>510.0</ele><time>2026-05-01T14:49:35Z</time></trkpt><trkpt lat="44.37910953665756" lon="7.603718728587566"><ele>510.0</ele><time>2026-05-01T14:49:37Z</time></trkpt><trkpt lat="44.37909671025877" lon="7.603621119666013"><ele>510.0</ele><time>2026-05-01T14:49:38Z</time></trkpt><trkpt lat="44.379080505439006" lon="7.603511287796818"><ele>510.0</ele><time>2026-05-01T14:49:39Z</time></trkpt><trkpt lat="44.379076947800435" lon="7.60338654620378"><ele>510.0</ele><time>2026-05-01T14:49:40Z</time></trkpt><trkpt lat="44.37914746898466" lon="7.603288219900755"><ele>510.5</ele><time>2026-05-01T14:49:41Z</time></trkpt><trkpt lat="44.379184251137204" lon="7.603166158782395"><ele>511.0</ele><time>2026-05-01T14:49:42Z</time></trkpt><trkpt lat="44.37925096595465" lon="7.603017736346327"><ele>511.5</ele><time>2026-05-01T14:49:43Z</time></trkpt><trkpt lat="44.379319992527805" lon="7.6028652551594575"><ele>512.0</ele><time>2026-05-01T14:49:44Z</time></trkpt><trkpt lat="44.379372862792806" lon="7.6027128666116575"><ele>512.0</ele><time>2026-05-01T14:49:45Z</time></trkpt><trkpt lat="44.37942667141429" lon="7.602542271825236"><ele>512.0</ele><time>2026-05-01T14:49:46Z</time></trkpt><trkpt lat="44.379489395784475" lon="7.602330745397422"><ele>512.0</ele><time>2026-05-01T14:49:47Z</time></trkpt><trkpt lat="44.37956299049331" lon="7.602070896227031"><ele>512.0</ele><time>2026-05-01T14:49:48Z</time></trkpt><trkpt lat="44.37964911558437" lon="7.6017832071939395"><ele>512.0</ele><time>2026-05-01T14:49:49Z</time></trkpt><trkpt lat="44.37972550870059" lon="7.601475099221635"><ele>512.0</ele><time>2026-05-01T14:49:50Z</time></trkpt><trkpt lat="44.3797999094221" lon="7.601176835985381"><ele>512.0</ele><time>2026-05-01T14:49:51Z</time></trkpt><trkpt lat="44.379877082432166" lon="7.600884298204109"><ele>512.0</ele><time>2026-05-01T14:49:52Z</time></trkpt><trkpt lat="44.37995205245479" lon="7.600598896637067"><ele>512.3333333333333</ele><time>2026-05-01T14:49:53Z</time></trkpt><trkpt lat="44.38002109275349" lon="7.600320152214266"><ele>512.6666666666666</ele><time>2026-05-01T14:49:54Z</time></trkpt><trkpt lat="44.380091969573634" lon="7.600041954106624"><ele>513.0</ele><time>2026-05-01T14:49:55Z</time></trkpt><trkpt lat="44.38016036980659" lon="7.599772019665963"><ele>513.0</ele><time>2026-05-01T14:49:56Z</time></trkpt><trkpt lat="44.3802294170141" lon="7.5995084415341765"><ele>513.0</ele><time>2026-05-01T14:49:57Z</time></trkpt><trkpt lat="44.380297725730045" lon="7.599236636376537"><ele>513.0</ele><time>2026-05-01T14:49:58Z</time></trkpt><trkpt lat="44.38036717131462" lon="7.598965594846087"><ele>513.3333333333334</ele><time>2026-05-01T14:49:59Z</time></trkpt><trkpt lat="44.38043692133852" lon="7.598692568286019"><ele>513.6666666666667</ele><time>2026-05-01T14:50:00Z</time></trkpt><trkpt lat="44.380504524763765" lon="7.598417673174434"><ele>514.0</ele><time>2026-05-01T14:50:01Z</time></trkpt><trkpt lat="44.3805773274938" lon="7.598143856463146"><ele>514.3333333333334</ele><time>2026-05-01T14:50:02Z</time></trkpt><trkpt lat="44.380648690010965" lon="7.597858254757693"><ele>514.6666666666666</ele><time>2026-05-01T14:50:03Z</time></trkpt><trkpt lat="44.38072264196615" lon="7.5975626444075575"><ele>515.0</ele><time>2026-05-01T14:50:04Z</time></trkpt><trkpt lat="44.380797461194845" lon="7.59726573928025"><ele>515.0</ele><time>2026-05-01T14:50:05Z</time></trkpt><trkpt lat="44.38087660187859" lon="7.59696193960377"><ele>515.0</ele><time>2026-05-01T14:50:06Z</time></trkpt><trkpt lat="44.380956561225666" lon="7.596656805843489"><ele>515.0</ele><time>2026-05-01T14:50:07Z</time></trkpt><trkpt lat="44.38103465766214" lon="7.596346632978115"><ele>515.0</ele><time>2026-05-01T14:50:08Z</time></trkpt><trkpt lat="44.381111180911184" lon="7.5960302319171165"><ele>515.0</ele><time>2026-05-01T14:50:09Z</time></trkpt><trkpt lat="44.381191788160486" lon="7.595711099313112"><ele>515.0</ele><time>2026-05-01T14:50:10Z</time></trkpt><trkpt lat="44.38127926906224" lon="7.5953784935797835"><ele>515.0</ele><time>2026-05-01T14:50:11Z</time></trkpt><trkpt lat="44.38136331551728" lon="7.595078294729731"><ele>515.0</ele><time>2026-05-01T14:50:12Z</time></trkpt><trkpt lat="44.38143181556401" lon="7.594793046498016"><ele>515.0</ele><time>2026-05-01T14:50:13Z</time></trkpt><trkpt lat="44.38149827204494" lon="7.594537390571144"><ele>515.3333333333333</ele><time>2026-05-01T14:50:14Z</time></trkpt><trkpt lat="44.3815677733125" lon="7.594301658647698"><ele>515.6666666666666</ele><time>2026-05-01T14:50:15Z</time></trkpt><trkpt lat="44.38164152887119" lon="7.59408845178964"><ele>516.0</ele><time>2026-05-01T14:50:16Z</time></trkpt><trkpt lat="44.381724782734416" lon="7.5938840537129915"><ele>516.0</ele><time>2026-05-01T14:50:17Z</time></trkpt><trkpt lat="44.38181796605764" lon="7.593675618369498"><ele>516.0</ele><time>2026-05-01T14:50:18Z</time></trkpt><trkpt lat="44.38191076107748" lon="7.59348503604088"><ele>516.0</ele><time>2026-05-01T14:50:19Z</time></trkpt><trkpt lat="44.38199904325693" lon="7.593328956824155"><ele>516.25</ele><time>2026-05-01T14:50:20Z</time></trkpt><trkpt lat="44.38209159798564" lon="7.593171134847361"><ele>516.5</ele><time>2026-05-01T14:50:21Z</time></trkpt><trkpt lat="44.382186381497505" lon="7.593014017603741"><ele>516.75</ele><time>2026-05-01T14:50:22Z</time></trkpt><trkpt lat="44.38228321291603" lon="7.592843589857339"><ele>517.0</ele><time>2026-05-01T14:50:23Z</time></trkpt><trkpt lat="44.38238987747055" lon="7.59265702821597"><ele>517.6666666666667</ele><time>2026-05-01T14:50:24Z</time></trkpt><trkpt lat="44.38250745070518" lon="7.592457267323345"><ele>518.3333333333334</ele><time>2026-05-01T14:50:25Z</time></trkpt><trkpt lat="44.3826333950256" lon="7.5922402848071355"><ele>519.0</ele><time>2026-05-01T14:50:26Z</time></trkpt><trkpt lat="44.38277730712903" lon="7.592008543656631"><ele>519.0</ele><time>2026-05-01T14:50:27Z</time></trkpt><trkpt lat="44.38292069463985" lon="7.5917635861085175"><ele>519.0</ele><time>2026-05-01T14:50:28Z</time></trkpt><trkpt lat="44.38306316907878" lon="7.591511763273159"><ele>518.6666666666666</ele><time>2026-05-01T14:50:29Z</time></trkpt><trkpt lat="44.38319767894589" lon="7.591267431497828"><ele>518.3333333333333</ele><time>2026-05-01T14:50:30Z</time></trkpt><trkpt lat="44.38334252263998" lon="7.591023426582792"><ele>518.0</ele><time>2026-05-01T14:50:31Z</time></trkpt><trkpt lat="44.38349248085048" lon="7.590787484272124"><ele>518.0</ele><time>2026-05-01T14:50:32Z</time></trkpt><trkpt lat="44.38363640122847" lon="7.590547420929261"><ele>518.0</ele><time>2026-05-01T14:50:33Z</time></trkpt><trkpt lat="44.383770551008205" lon="7.5903197626123085"><ele>518.0</ele><time>2026-05-01T14:50:34Z</time></trkpt><trkpt lat="44.383896589257105" lon="7.590107910572693"><ele>518.0</ele><time>2026-05-01T14:50:35Z</time></trkpt><trkpt lat="44.38402071476294" lon="7.589889087896973"><ele>518.0</ele><time>2026-05-01T14:50:36Z</time></trkpt><trkpt lat="44.38415851631989" lon="7.5896728413617724"><ele>518.0</ele><time>2026-05-01T14:50:37Z</time></trkpt><trkpt lat="44.38429173562582" lon="7.58946848980848"><ele>519.0</ele><time>2026-05-01T14:50:38Z</time></trkpt><trkpt lat="44.38440214009612" lon="7.589267347200557"><ele>520.0</ele><time>2026-05-01T14:50:39Z</time></trkpt><trkpt lat="44.38451244032603" lon="7.589068866539348"><ele>521.0</ele><time>2026-05-01T14:50:40Z</time></trkpt><trkpt lat="44.38463154945815" lon="7.588866045661302"><ele>520.0</ele><time>2026-05-01T14:50:41Z</time></trkpt><trkpt lat="44.384757585777685" lon="7.588673266172173"><ele>519.0</ele><time>2026-05-01T14:50:42Z</time></trkpt><trkpt lat="44.38487044874626" lon="7.588495869576328"><ele>518.0</ele><time>2026-05-01T14:50:43Z</time></trkpt><trkpt lat="44.38497385504732" lon="7.588322164480515"><ele>518.0</ele><time>2026-05-01T14:50:44Z</time></trkpt><trkpt lat="44.385082009277916" lon="7.588141785896042"><ele>518.0</ele><time>2026-05-01T14:50:45Z</time></trkpt><trkpt lat="44.38518364036067" lon="7.587968145455846"><ele>518.0</ele><time>2026-05-01T14:50:46Z</time></trkpt><trkpt lat="44.385279291832546" lon="7.587804868809067"><ele>518.3333333333333</ele><time>2026-05-01T14:50:47Z</time></trkpt><trkpt lat="44.38537571124995" lon="7.587627260228059"><ele>518.6666666666666</ele><time>2026-05-01T14:50:48Z</time></trkpt><trkpt lat="44.38548627655118" lon="7.5874234382400765"><ele>519.0</ele><time>2026-05-01T14:50:49Z</time></trkpt><trkpt lat="44.385611632333266" lon="7.587214409483012"><ele>519.3333333333334</ele><time>2026-05-01T14:50:50Z</time></trkpt><trkpt lat="44.385740497796405" lon="7.5869948319344696"><ele>519.6666666666667</ele><time>2026-05-01T14:50:51Z</time></trkpt><trkpt lat="44.385876602828084" lon="7.586773943475804"><ele>520.0</ele><time>2026-05-01T14:50:52Z</time></trkpt><trkpt lat="44.386020102729766" lon="7.586551199974446"><ele>520.0</ele><time>2026-05-01T14:50:53Z</time></trkpt><trkpt lat="44.38616630739288" lon="7.58632205009276"><ele>520.0</ele><time>2026-05-01T14:50:54Z</time></trkpt><trkpt lat="44.38630960562903" lon="7.58608572854997"><ele>520.0</ele><time>2026-05-01T14:50:55Z</time></trkpt><trkpt lat="44.38644553028271" lon="7.5858567862801305"><ele>520.0</ele><time>2026-05-01T14:50:56Z</time></trkpt><trkpt lat="44.386580210138675" lon="7.585623447389072"><ele>520.0</ele><time>2026-05-01T14:50:57Z</time></trkpt><trkpt lat="44.38671791005995" lon="7.585396129983735"><ele>520.0</ele><time>2026-05-01T14:50:58Z</time></trkpt><trkpt lat="44.38685512767117" lon="7.585169964127635"><ele>520.0</ele><time>2026-05-01T14:50:59Z</time></trkpt><trkpt lat="44.38698944974897" lon="7.584943681971986"><ele>520.0</ele><time>2026-05-01T14:51:00Z</time></trkpt><trkpt lat="44.38712247015595" lon="7.584717389283217"><ele>520.0</ele><time>2026-05-01T14:51:01Z</time></trkpt><trkpt lat="44.38725287867625" lon="7.584495689852418"><ele>520.0</ele><time>2026-05-01T14:51:02Z</time></trkpt><trkpt lat="44.387380024058736" lon="7.584274806256688"><ele>520.0</ele><time>2026-05-01T14:51:03Z</time></trkpt><trkpt lat="44.387497666203494" lon="7.584053446507302"><ele>520.0</ele><time>2026-05-01T14:51:04Z</time></trkpt><trkpt lat="44.387602822146384" lon="7.583840899481012"><ele>520.0</ele><time>2026-05-01T14:51:05Z</time></trkpt><trkpt lat="44.38769388869728" lon="7.583636985293289"><ele>520.0</ele><time>2026-05-01T14:51:06Z</time></trkpt><trkpt lat="44.3877795408907" lon="7.583436695557567"><ele>520.0</ele><time>2026-05-01T14:51:07Z</time></trkpt><trkpt lat="44.387877547415094" lon="7.5832369895405805"><ele>520.0</ele><time>2026-05-01T14:51:08Z</time></trkpt><trkpt lat="44.387979920453375" lon="7.583046817678986"><ele>520.0</ele><time>2026-05-01T14:51:09Z</time></trkpt><trkpt lat="44.388078270137335" lon="7.5828503516120085"><ele>520.0</ele><time>2026-05-01T14:51:10Z</time></trkpt><trkpt lat="44.3881506260994" lon="7.5827006468454545"><ele>520.0000000000001</ele><time>2026-05-01T14:51:11Z</time></trkpt><trkpt lat="44.38820570112419" lon="7.582607859245316"><ele>520.0</ele><time>2026-05-01T14:51:12Z</time></trkpt><trkpt lat="44.38824532287873" lon="7.582521759278792"><ele>520.0</ele><time>2026-05-01T14:51:13Z</time></trkpt><trkpt lat="44.388283655787795" lon="7.582436971415531"><ele>520.0</ele><time>2026-05-01T14:51:14Z</time></trkpt><trkpt lat="44.388324062908524" lon="7.582348858539932"><ele>520.0</ele><time>2026-05-01T14:51:15Z</time></trkpt><trkpt lat="44.388360326191105" lon="7.5822658172954975"><ele>520.0000000000001</ele><time>2026-05-01T14:51:16Z</time></trkpt><trkpt lat="44.38840675548802" lon="7.582189000239937"><ele>520.0</ele><time>2026-05-01T14:51:17Z</time></trkpt><trkpt lat="44.3885215250752" lon="7.582126128463229"><ele>520.0</ele><time>2026-05-01T14:51:19Z</time></trkpt><trkpt lat="44.38858776878878" lon="7.582123467055104"><ele>520.0</ele><time>2026-05-01T14:51:20Z</time></trkpt><trkpt lat="44.38865505693727" lon="7.582113009786072"><ele>520.0</ele><time>2026-05-01T14:51:21Z</time></trkpt><trkpt lat="44.38874321338632" lon="7.582006815391578"><ele>520.0</ele><time>2026-05-01T14:51:23Z</time></trkpt><trkpt lat="44.388731575715" lon="7.581848016150862"><ele>520.0</ele><time>2026-05-01T14:51:25Z</time></trkpt><trkpt lat="44.3886903675914" lon="7.581580629703833"><ele>519.75</ele><time>2026-05-01T14:51:28Z</time></trkpt><trkpt lat="44.38870356601227" lon="7.581431170040417"><ele>519.5</ele><time>2026-05-01T14:51:29Z</time></trkpt><trkpt lat="44.388742362396016" lon="7.581246407369673"><ele>519.25</ele><time>2026-05-01T14:51:30Z</time></trkpt><trkpt lat="44.38878636654249" lon="7.581042273596452"><ele>519.0</ele><time>2026-05-01T14:51:31Z</time></trkpt><trkpt lat="44.388844257458686" lon="7.580823122556849"><ele>518.6666666666666</ele><time>2026-05-01T14:51:32Z</time></trkpt><trkpt lat="44.388893655260716" lon="7.580604499980294"><ele>518.3333333333333</ele><time>2026-05-01T14:51:33Z</time></trkpt><trkpt lat="44.388941535064994" lon="7.5804011214900955"><ele>518.0</ele><time>2026-05-01T14:51:34Z</time></trkpt><trkpt lat="44.38899391639202" lon="7.580201473189"><ele>519.0</ele><time>2026-05-01T14:51:35Z</time></trkpt><trkpt lat="44.38904646921038" lon="7.5800021021178345"><ele>520.0</ele><time>2026-05-01T14:51:36Z</time></trkpt><trkpt lat="44.3890950172407" lon="7.579802696194996"><ele>521.0</ele><time>2026-05-01T14:51:37Z</time></trkpt><trkpt lat="44.3891455424729" lon="7.579596491215746"><ele>520.6666666666666</ele><time>2026-05-01T14:51:38Z</time></trkpt><trkpt lat="44.38919432485022" lon="7.5793953875840225"><ele>520.3333333333334</ele><time>2026-05-01T14:51:39Z</time></trkpt><trkpt lat="44.389246683196674" lon="7.579192496984826"><ele>520.0</ele><time>2026-05-01T14:51:40Z</time></trkpt><trkpt lat="44.389300100061455" lon="7.578992997716326"><ele>520.0</ele><time>2026-05-01T14:51:41Z</time></trkpt><trkpt lat="44.389354323942555" lon="7.5787852392406325"><ele>520.0</ele><time>2026-05-01T14:51:42Z</time></trkpt><trkpt lat="44.389409688504685" lon="7.578560152859018"><ele>520.0</ele><time>2026-05-01T14:51:43Z</time></trkpt><trkpt lat="44.38947521442089" lon="7.57830211163949"><ele>520.0</ele><time>2026-05-01T14:51:44Z</time></trkpt><trkpt lat="44.389543332680844" lon="7.578016964566123"><ele>520.0</ele><time>2026-05-01T14:51:45Z</time></trkpt><trkpt lat="44.38961027036924" lon="7.5777196262073225"><ele>520.0</ele><time>2026-05-01T14:51:46Z</time></trkpt><trkpt lat="44.389700790400774" lon="7.5773955320993585"><ele>520.5</ele><time>2026-05-01T14:51:47Z</time></trkpt><trkpt lat="44.38978143701874" lon="7.577098819348129"><ele>521.0</ele><time>2026-05-01T14:51:48Z</time></trkpt><trkpt lat="44.38986420370793" lon="7.576798244166469"><ele>521.0</ele><time>2026-05-01T14:51:49Z</time></trkpt><trkpt lat="44.38994496906582" lon="7.57649429821485"><ele>521.0</ele><time>2026-05-01T14:51:50Z</time></trkpt><trkpt lat="44.39001561690068" lon="7.576220574947148"><ele>521.0</ele><time>2026-05-01T14:51:51Z</time></trkpt><trkpt lat="44.39007890330243" lon="7.57596718649419"><ele>520.6666666666666</ele><time>2026-05-01T14:51:52Z</time></trkpt><trkpt lat="44.390144721916606" lon="7.57571506750956"><ele>520.3333333333334</ele><time>2026-05-01T14:51:53Z</time></trkpt><trkpt lat="44.39021257203632" lon="7.575480110795461"><ele>520.0</ele><time>2026-05-01T14:51:54Z</time></trkpt><trkpt lat="44.39027873009791" lon="7.575277566374318"><ele>520.0</ele><time>2026-05-01T14:51:55Z</time></trkpt><trkpt lat="44.390337052614306" lon="7.575105885911923"><ele>520.0</ele><time>2026-05-01T14:51:56Z</time></trkpt><trkpt lat="44.390402413493" lon="7.575006986288277"><ele>520.0</ele><time>2026-05-01T14:51:57Z</time></trkpt><trkpt lat="44.39047437843991" lon="7.5748667997787535"><ele>520.0</ele><time>2026-05-01T14:51:59Z</time></trkpt><trkpt lat="44.39054784079554" lon="7.574806991913075"><ele>520.0</ele><time>2026-05-01T14:52:00Z</time></trkpt><trkpt lat="44.39063624757983" lon="7.574817417231322"><ele>519.8333333333334</ele><time>2026-05-01T14:52:01Z</time></trkpt><trkpt lat="44.39071064534802" lon="7.574787343911727"><ele>519.6666666666667</ele><time>2026-05-01T14:52:02Z</time></trkpt><trkpt lat="44.39077297799694" lon="7.5747163681913685"><ele>519.5</ele><time>2026-05-01T14:52:03Z</time></trkpt><trkpt lat="44.390845237538485" lon="7.574686435769967"><ele>519.3333333333334</ele><time>2026-05-01T14:52:04Z</time></trkpt><trkpt lat="44.390884902224826" lon="7.574594589254085"><ele>519.1666666666666</ele><time>2026-05-01T14:52:05Z</time></trkpt><trkpt lat="44.39091118175971" lon="7.574508785892142"><ele>519.0</ele><time>2026-05-01T14:52:06Z</time></trkpt><trkpt lat="44.39093962418614" lon="7.574307341570252"><ele>518.6</ele><time>2026-05-01T14:52:08Z</time></trkpt><trkpt lat="44.39092617075035" lon="7.574149378548806"><ele>518.2</ele><time>2026-05-01T14:52:09Z</time></trkpt><trkpt lat="44.390851807338926" lon="7.574009016845299"><ele>517.8000000000001</ele><time>2026-05-01T14:52:10Z</time></trkpt><trkpt lat="44.39079532909227" lon="7.573900229656499"><ele>517.4</ele><time>2026-05-01T14:52:11Z</time></trkpt><trkpt lat="44.390705978751285" lon="7.573845573333125"><ele>517.0</ele><time>2026-05-01T14:52:12Z</time></trkpt><trkpt lat="44.39061210761799" lon="7.573791062197165"><ele>517.6666666666667</ele><time>2026-05-01T14:52:13Z</time></trkpt><trkpt lat="44.39048820455689" lon="7.573735142878998"><ele>518.3333333333334</ele><time>2026-05-01T14:52:14Z</time></trkpt><trkpt lat="44.39034346595061" lon="7.573652987035153"><ele>519.0</ele><time>2026-05-01T14:52:15Z</time></trkpt><trkpt lat="44.390210761923385" lon="7.573515161924"><ele>517.6666666666666</ele><time>2026-05-01T14:52:16Z</time></trkpt><trkpt lat="44.39009699115297" lon="7.573318863711655"><ele>516.3333333333333</ele><time>2026-05-01T14:52:17Z</time></trkpt><trkpt lat="44.389988687615556" lon="7.5730833461700975"><ele>515.0</ele><time>2026-05-01T14:52:18Z</time></trkpt><trkpt lat="44.389878602310915" lon="7.572833147030629"><ele>514.6666666666666</ele><time>2026-05-01T14:52:19Z</time></trkpt><trkpt lat="44.389756288253494" lon="7.572588248942827"><ele>514.3333333333334</ele><time>2026-05-01T14:52:20Z</time></trkpt><trkpt lat="44.389619929863535" lon="7.572340441872647"><ele>514.0</ele><time>2026-05-01T14:52:21Z</time></trkpt><trkpt lat="44.38946523250752" lon="7.572078694256434"><ele>513.0</ele><time>2026-05-01T14:52:22Z</time></trkpt><trkpt lat="44.38929575843262" lon="7.571831361624585"><ele>512.0</ele><time>2026-05-01T14:52:23Z</time></trkpt><trkpt lat="44.38911020685231" lon="7.5715996224232995"><ele>512.0</ele><time>2026-05-01T14:52:24Z</time></trkpt><trkpt lat="44.388915381889994" lon="7.571375271853073"><ele>512.0</ele><time>2026-05-01T14:52:25Z</time></trkpt><trkpt lat="44.388713726947145" lon="7.571154025496103"><ele>513.0</ele><time>2026-05-01T14:52:26Z</time></trkpt><trkpt lat="44.388505278712046" lon="7.570936715072807"><ele>514.0</ele><time>2026-05-01T14:52:27Z</time></trkpt><trkpt lat="44.38829349021732" lon="7.570713242949378"><ele>514.0</ele><time>2026-05-01T14:52:28Z</time></trkpt><trkpt lat="44.38809092907371" lon="7.570492300708144"><ele>514.0</ele><time>2026-05-01T14:52:29Z</time></trkpt><trkpt lat="44.387883189884995" lon="7.57025955514409"><ele>514.0</ele><time>2026-05-01T14:52:30Z</time></trkpt><trkpt lat="44.38768125552515" lon="7.5700374214033985"><ele>514.0</ele><time>2026-05-01T14:52:31Z</time></trkpt><trkpt lat="44.38746953497334" lon="7.569807854041123"><ele>514.0</ele><time>2026-05-01T14:52:32Z</time></trkpt><trkpt lat="44.38726147283342" lon="7.569587113849638"><ele>514.0</ele><time>2026-05-01T14:52:33Z</time></trkpt><trkpt lat="44.387054647557036" lon="7.569366381845668"><ele>515.0</ele><time>2026-05-01T14:52:34Z</time></trkpt><trkpt lat="44.38685334298373" lon="7.569148183078833"><ele>516.0</ele><time>2026-05-01T14:52:35Z</time></trkpt><trkpt lat="44.38663648902801" lon="7.56890653220474"><ele>515.0</ele><time>2026-05-01T14:52:36Z</time></trkpt><trkpt lat="44.38643399168476" lon="7.568679341152053"><ele>514.0</ele><time>2026-05-01T14:52:37Z</time></trkpt><trkpt lat="44.386228470725456" lon="7.568449795772022"><ele>513.5</ele><time>2026-05-01T14:52:38Z</time></trkpt><trkpt lat="44.38601489537544" lon="7.568216649351722"><ele>513.0</ele><time>2026-05-01T14:52:39Z</time></trkpt><trkpt lat="44.385804279849566" lon="7.567993421633761"><ele>513.0</ele><time>2026-05-01T14:52:40Z</time></trkpt><trkpt lat="44.38559888116772" lon="7.567776155995736"><ele>513.0</ele><time>2026-05-01T14:52:41Z</time></trkpt><trkpt lat="44.38538430328176" lon="7.567552576158731"><ele>513.0</ele><time>2026-05-01T14:52:42Z</time></trkpt><trkpt lat="44.38516980048912" lon="7.567326518767964"><ele>513.0</ele><time>2026-05-01T14:52:43Z</time></trkpt><trkpt lat="44.384980085771" lon="7.567125542240945"><ele>513.3333333333334</ele><time>2026-05-01T14:52:44Z</time></trkpt><trkpt lat="44.38480418688331" lon="7.566927583125442"><ele>513.6666666666667</ele><time>2026-05-01T14:52:45Z</time></trkpt><trkpt lat="44.38467165033852" lon="7.566750853579079"><ele>514.0</ele><time>2026-05-01T14:52:46Z</time></trkpt><trkpt lat="44.38457780740698" lon="7.566571401661898"><ele>514.3333333333334</ele><time>2026-05-01T14:52:47Z</time></trkpt><trkpt lat="44.384526675380094" lon="7.566368056839461"><ele>514.6666666666666</ele><time>2026-05-01T14:52:48Z</time></trkpt><trkpt lat="44.38447530960378" lon="7.5661599485527375"><ele>515.0</ele><time>2026-05-01T14:52:49Z</time></trkpt><trkpt lat="44.3843686520777" lon="7.566005297587124"><ele>515.0</ele><time>2026-05-01T14:52:50Z</time></trkpt><trkpt lat="44.38422268742577" lon="7.565914491347557"><ele>515.0</ele><time>2026-05-01T14:52:51Z</time></trkpt><trkpt lat="44.384052074638376" lon="7.5658358595958575"><ele>515.0</ele><time>2026-05-01T14:52:52Z</time></trkpt><trkpt lat="44.38391645474586" lon="7.565693430202348"><ele>515.3333333333333</ele><time>2026-05-01T14:52:53Z</time></trkpt><trkpt lat="44.38384156784808" lon="7.565480501504203"><ele>515.6666666666666</ele><time>2026-05-01T14:52:54Z</time></trkpt><trkpt lat="44.38375746604433" lon="7.565264875717176"><ele>516.0</ele><time>2026-05-01T14:52:55Z</time></trkpt><trkpt lat="44.38368196860679" lon="7.565049355632992"><ele>516.0</ele><time>2026-05-01T14:52:56Z</time></trkpt><trkpt lat="44.38362816135782" lon="7.5648319441703205"><ele>516.0</ele><time>2026-05-01T14:52:57Z</time></trkpt><trkpt lat="44.38357454457339" lon="7.5646148460639075"><ele>516.0</ele><time>2026-05-01T14:52:58Z</time></trkpt><trkpt lat="44.3835331188502" lon="7.564356833733217"><ele>515.3333333333334</ele><time>2026-05-01T14:52:59Z</time></trkpt><trkpt lat="44.38346279355908" lon="7.564066842236489"><ele>514.6666666666667</ele><time>2026-05-01T14:53:00Z</time></trkpt><trkpt lat="44.38340460328778" lon="7.563754978018715"><ele>514.0</ele><time>2026-05-01T14:53:01Z</time></trkpt><trkpt lat="44.38334600806142" lon="7.563458684483369"><ele>514.0</ele><time>2026-05-01T14:53:02Z</time></trkpt><trkpt lat="44.38328219052125" lon="7.563143013041982"><ele>514.0</ele><time>2026-05-01T14:53:03Z</time></trkpt><trkpt lat="44.38321843456897" lon="7.562834564789341"><ele>515.5</ele><time>2026-05-01T14:53:04Z</time></trkpt><trkpt lat="44.38315073775853" lon="7.562519996260062"><ele>517.0</ele><time>2026-05-01T14:53:05Z</time></trkpt><trkpt lat="44.38308094296419" lon="7.562200265639387"><ele>517.0</ele><time>2026-05-01T14:53:06Z</time></trkpt><trkpt lat="44.38301063708879" lon="7.561885748238865"><ele>517.0</ele><time>2026-05-01T14:53:07Z</time></trkpt><trkpt lat="44.38295151111576" lon="7.561607307393695"><ele>517.0</ele><time>2026-05-01T14:53:08Z</time></trkpt><trkpt lat="44.38291735651737" lon="7.561345489826698"><ele>516.75</ele><time>2026-05-01T14:53:09Z</time></trkpt><trkpt lat="44.382935817298154" lon="7.561131049199546"><ele>516.5</ele><time>2026-05-01T14:53:10Z</time></trkpt><trkpt lat="44.38301702330005" lon="7.560940495139863"><ele>516.25</ele><time>2026-05-01T14:53:11Z</time></trkpt><trkpt lat="44.38304011365538" lon="7.560752183478605"><ele>516.0</ele><time>2026-05-01T14:53:12Z</time></trkpt><trkpt lat="44.383042888200976" lon="7.5605930468295774"><ele>516.0</ele><time>2026-05-01T14:53:13Z</time></trkpt><trkpt lat="44.38298804522577" lon="7.560455906674092"><ele>516.0</ele><time>2026-05-01T14:53:14Z</time></trkpt><trkpt lat="44.38291567519466" lon="7.560339394609098"><ele>516.0</ele><time>2026-05-01T14:53:15Z</time></trkpt><trkpt lat="44.38278553372813" lon="7.560303409816469"><ele>516.0</ele><time>2026-05-01T14:53:16Z</time></trkpt><trkpt lat="44.382644657362405" lon="7.5602951368821945"><ele>515.6666666666666</ele><time>2026-05-01T14:53:17Z</time></trkpt><trkpt lat="44.38247622606316" lon="7.5603159996699"><ele>515.3333333333333</ele><time>2026-05-01T14:53:18Z</time></trkpt><trkpt lat="44.38230527484512" lon="7.560319538194293"><ele>515.0</ele><time>2026-05-01T14:53:19Z</time></trkpt><trkpt lat="44.38213077592087" lon="7.560308749589941"><ele>516.3333333333333</ele><time>2026-05-01T14:53:20Z</time></trkpt><trkpt lat="44.38195825691818" lon="7.560074640241986"><ele>517.6666666666666</ele><time>2026-05-01T14:53:21Z</time></trkpt><trkpt lat="44.38178950158009" lon="7.559950474855659"><ele>519.0</ele><time>2026-05-01T14:53:22Z</time></trkpt><trkpt lat="44.3816296899631" lon="7.559824354912012"><ele>519.0</ele><time>2026-05-01T14:53:23Z</time></trkpt><trkpt lat="44.38145042591632" lon="7.559681284111643"><ele>519.0</ele><time>2026-05-01T14:53:24Z</time></trkpt><trkpt lat="44.38126650399752" lon="7.559496794684785"><ele>519.0</ele><time>2026-05-01T14:53:25Z</time></trkpt><trkpt lat="44.38105621650851" lon="7.559315461377299"><ele>520.0</ele><time>2026-05-01T14:53:26Z</time></trkpt><trkpt lat="44.38084466415464" lon="7.559147644264777"><ele>521.0</ele><time>2026-05-01T14:53:27Z</time></trkpt><trkpt lat="44.380638456692886" lon="7.558989892749181"><ele>521.0</ele><time>2026-05-01T14:53:28Z</time></trkpt><trkpt lat="44.380431523308275" lon="7.558830223912372"><ele>521.0</ele><time>2026-05-01T14:53:29Z</time></trkpt><trkpt lat="44.38022938425265" lon="7.558662081761674"><ele>520.5</ele><time>2026-05-01T14:53:30Z</time></trkpt><trkpt lat="44.38003374342029" lon="7.5584920475030515"><ele>520.0</ele><time>2026-05-01T14:53:31Z</time></trkpt><trkpt lat="44.3798434580436" lon="7.558325180684332"><ele>520.6666666666667</ele><time>2026-05-01T14:53:32Z</time></trkpt><trkpt lat="44.379670038355094" lon="7.558180579190176"><ele>521.3333333333334</ele><time>2026-05-01T14:53:33Z</time></trkpt><trkpt lat="44.37950488759127" lon="7.558044902963653"><ele>522.0</ele><time>2026-05-01T14:53:34Z</time></trkpt><trkpt lat="44.37935275758431" lon="7.557921229215889"><ele>522.0</ele><time>2026-05-01T14:53:35Z</time></trkpt><trkpt lat="44.37920974680172" lon="7.557804431024771"><ele>522.0</ele><time>2026-05-01T14:53:36Z</time></trkpt><trkpt lat="44.3790812574163" lon="7.557699951595857"><ele>522.0</ele><time>2026-05-01T14:53:37Z</time></trkpt><trkpt lat="44.37899176421691" lon="7.557627531637934"><ele>522.0</ele><time>2026-05-01T14:53:38Z</time></trkpt><trkpt lat="44.378898437214104" lon="7.55756688884033"><ele>522.3333333333334</ele><time>2026-05-01T14:53:40Z</time></trkpt><trkpt lat="44.37884338068713" lon="7.557522380908304"><ele>522.6666666666666</ele><time>2026-05-01T14:53:41Z</time></trkpt><trkpt lat="44.37878434686541" lon="7.557470438863527"><ele>523.0</ele><time>2026-05-01T14:53:42Z</time></trkpt><trkpt lat="44.37872908859939" lon="7.557415865924547"><ele>523.3333333333333</ele><time>2026-05-01T14:53:43Z</time></trkpt><trkpt lat="44.378658447382236" lon="7.557353541067077"><ele>523.6666666666666</ele><time>2026-05-01T14:53:45Z</time></trkpt><trkpt lat="44.37859195146963" lon="7.557300865690612"><ele>524.0</ele><time>2026-05-01T14:53:46Z</time></trkpt><trkpt lat="44.37848775308628" lon="7.557230452389169"><ele>524.0</ele><time>2026-05-01T14:53:47Z</time></trkpt><trkpt lat="44.37832909722594" lon="7.557114919299961"><ele>524.0</ele><time>2026-05-01T14:53:48Z</time></trkpt><trkpt lat="44.378193602720735" lon="7.556983591126537"><ele>524.0</ele><time>2026-05-01T14:53:49Z</time></trkpt><trkpt lat="44.37803178852538" lon="7.556837269853386"><ele>523.3333333333333</ele><time>2026-05-01T14:53:50Z</time></trkpt><trkpt lat="44.37786434520505" lon="7.556717294224715"><ele>522.6666666666666</ele><time>2026-05-01T14:53:51Z</time></trkpt><trkpt lat="44.37765821015361" lon="7.556562973265851"><ele>522.0</ele><time>2026-05-01T14:53:52Z</time></trkpt><trkpt lat="44.37744854353944" lon="7.556374111300313"><ele>521.5</ele><time>2026-05-01T14:53:53Z</time></trkpt><trkpt lat="44.37723900343709" lon="7.556191207676612"><ele>521.0</ele><time>2026-05-01T14:53:54Z</time></trkpt><trkpt lat="44.377015751165295" lon="7.556010837122988"><ele>524.0</ele><time>2026-05-01T14:53:55Z</time></trkpt><trkpt lat="44.37656320227893" lon="7.555669065975046"><ele>524.5</ele><time>2026-05-01T14:53:57Z</time></trkpt><trkpt lat="44.376329113711556" lon="7.555502914445552"><ele>525.0</ele><time>2026-05-01T14:53:58Z</time></trkpt><trkpt lat="44.37609092165026" lon="7.555340801214809"><ele>525.0</ele><time>2026-05-01T14:53:59Z</time></trkpt><trkpt lat="44.37584865543186" lon="7.55517684465805"><ele>525.0</ele><time>2026-05-01T14:54:00Z</time></trkpt><trkpt lat="44.37560604537544" lon="7.555024865782466"><ele>525.5</ele><time>2026-05-01T14:54:01Z</time></trkpt><trkpt lat="44.37536215508097" lon="7.554882232075999"><ele>526.0</ele><time>2026-05-01T14:54:02Z</time></trkpt><trkpt lat="44.375119595521575" lon="7.554739448835332"><ele>526.0</ele><time>2026-05-01T14:54:03Z</time></trkpt><trkpt lat="44.374874736547625" lon="7.554598786400774"><ele>526.0</ele><time>2026-05-01T14:54:04Z</time></trkpt><trkpt lat="44.37463169788193" lon="7.5544664513497555"><ele>527.0</ele><time>2026-05-01T14:54:05Z</time></trkpt><trkpt lat="44.374382505801954" lon="7.55434055386133"><ele>528.0</ele><time>2026-05-01T14:54:06Z</time></trkpt><trkpt lat="44.37413523998274" lon="7.554215950472056"><ele>528.0</ele><time>2026-05-01T14:54:07Z</time></trkpt><trkpt lat="44.373887286409804" lon="7.5541005858272126"><ele>528.0</ele><time>2026-05-01T14:54:08Z</time></trkpt><trkpt lat="44.373634886282" lon="7.553990518087752"><ele>529.0</ele><time>2026-05-01T14:54:09Z</time></trkpt><trkpt lat="44.373381647138665" lon="7.553883422294179"><ele>530.0</ele><time>2026-05-01T14:54:10Z</time></trkpt><trkpt lat="44.37312466926705" lon="7.553782658463517"><ele>530.5</ele><time>2026-05-01T14:54:11Z</time></trkpt><trkpt lat="44.372867686661984" lon="7.553693266731356"><ele>531.0</ele><time>2026-05-01T14:54:12Z</time></trkpt><trkpt lat="44.37261664589721" lon="7.553600452752248"><ele>531.0</ele><time>2026-05-01T14:54:13Z</time></trkpt><trkpt lat="44.37235812668483" lon="7.553514976915534"><ele>531.0</ele><time>2026-05-01T14:54:14Z</time></trkpt><trkpt lat="44.37209567880434" lon="7.553430018274457"><ele>530.5</ele><time>2026-05-01T14:54:15Z</time></trkpt><trkpt lat="44.37183542599549" lon="7.553335119315338"><ele>530.0</ele><time>2026-05-01T14:54:16Z</time></trkpt><trkpt lat="44.37157363913627" lon="7.553235346433382"><ele>532.5</ele><time>2026-05-01T14:54:17Z</time></trkpt><trkpt lat="44.37130739296285" lon="7.553123233522842"><ele>535.0</ele><time>2026-05-01T14:54:18Z</time></trkpt><trkpt lat="44.37103834018435" lon="7.5530071112627954"><ele>535.0</ele><time>2026-05-01T14:54:19Z</time></trkpt><trkpt lat="44.37076772891603" lon="7.55289613772316"><ele>535.0</ele><time>2026-05-01T14:54:20Z</time></trkpt><trkpt lat="44.37049839150326" lon="7.552798593842901"><ele>534.0</ele><time>2026-05-01T14:54:21Z</time></trkpt><trkpt lat="44.37023207082957" lon="7.552709008614588"><ele>533.0</ele><time>2026-05-01T14:54:22Z</time></trkpt><trkpt lat="44.3699661305007" lon="7.552622317147378"><ele>533.0</ele><time>2026-05-01T14:54:23Z</time></trkpt><trkpt lat="44.36970929034035" lon="7.552545270429147"><ele>533.0</ele><time>2026-05-01T14:54:24Z</time></trkpt><trkpt lat="44.369479611494704" lon="7.552463038054896"><ele>534.6666666666666</ele><time>2026-05-01T14:54:25Z</time></trkpt><trkpt lat="44.3692781317506" lon="7.552392633095871"><ele>536.3333333333334</ele><time>2026-05-01T14:54:26Z</time></trkpt><trkpt lat="44.36911682466242" lon="7.552316293728121"><ele>538.0</ele><time>2026-05-01T14:54:27Z</time></trkpt><trkpt lat="44.36899481757006" lon="7.55224692469171"><ele>538.0</ele><time>2026-05-01T14:54:28Z</time></trkpt><trkpt lat="44.36889484145265" lon="7.552211981519145"><ele>538.0</ele><time>2026-05-01T14:54:29Z</time></trkpt><trkpt lat="44.36882094578108" lon="7.552179056155088"><ele>538.0</ele><time>2026-05-01T14:54:30Z</time></trkpt><trkpt lat="44.3687493267568" lon="7.552125404270469"><ele>538.0</ele><time>2026-05-01T14:54:32Z</time></trkpt><trkpt lat="44.36866716636587" lon="7.552057607477828"><ele>538.0</ele><time>2026-05-01T14:54:35Z</time></trkpt><trkpt lat="44.368586564886854" lon="7.551953416481829"><ele>538.0</ele><time>2026-05-01T14:54:37Z</time></trkpt><trkpt lat="44.36853133347212" lon="7.5518753283254965"><ele>538.0</ele><time>2026-05-01T14:54:38Z</time></trkpt><trkpt lat="44.36847068146961" lon="7.551791930590555"><ele>538.0</ele><time>2026-05-01T14:54:39Z</time></trkpt><trkpt lat="44.36841220485192" lon="7.551730091510201"><ele>538.0</ele><time>2026-05-01T14:54:40Z</time></trkpt><trkpt lat="44.368425912200564" lon="7.55155797194343"><ele>538.0</ele><time>2026-05-01T14:54:41Z</time></trkpt><trkpt lat="44.36842011223913" lon="7.551425541401703"><ele>538.0</ele><time>2026-05-01T14:54:42Z</time></trkpt><trkpt lat="44.36843840304312" lon="7.551299111881311"><ele>538.0</ele><time>2026-05-01T14:54:43Z</time></trkpt><trkpt lat="44.36848051525428" lon="7.551152868579044"><ele>538.0</ele><time>2026-05-01T14:54:44Z</time></trkpt><trkpt lat="44.368537557717836" lon="7.551002186156387"><ele>538.0</ele><time>2026-05-01T14:54:45Z</time></trkpt><trkpt lat="44.36863032662735" lon="7.550829662115445"><ele>537.0</ele><time>2026-05-01T14:54:46Z</time></trkpt><trkpt lat="44.36872869069436" lon="7.5506442937440905"><ele>536.0</ele><time>2026-05-01T14:54:47Z</time></trkpt><trkpt lat="44.3688411690006" lon="7.550410260061845"><ele>535.0</ele><time>2026-05-01T14:54:48Z</time></trkpt><trkpt lat="44.3689684106637" lon="7.550205018458072"><ele>533.0</ele><time>2026-05-01T14:54:49Z</time></trkpt><trkpt lat="44.36910020145029" lon="7.5499800522532405"><ele>531.0</ele><time>2026-05-01T14:54:50Z</time></trkpt><trkpt lat="44.3692317636892" lon="7.54974978207847"><ele>529.0</ele><time>2026-05-01T14:54:51Z</time></trkpt><trkpt lat="44.36936017913859" lon="7.549508209871828"><ele>529.0</ele><time>2026-05-01T14:54:52Z</time></trkpt><trkpt lat="44.36949524425543" lon="7.54926069878458"><ele>529.0</ele><time>2026-05-01T14:54:53Z</time></trkpt><trkpt lat="44.36963856845904" lon="7.548980107277487"><ele>529.5</ele><time>2026-05-01T14:54:54Z</time></trkpt><trkpt lat="44.36979151080985" lon="7.548685817572668"><ele>530.0</ele><time>2026-05-01T14:54:55Z</time></trkpt><trkpt lat="44.36997656232049" lon="7.5483438720222376"><ele>530.0</ele><time>2026-05-01T14:54:56Z</time></trkpt><trkpt lat="44.37016550960677" lon="7.54797974939623"><ele>530.0</ele><time>2026-05-01T14:54:57Z</time></trkpt><trkpt lat="44.37022465750347" lon="7.547858805032358"><ele>530.0</ele><time>2026-05-01T14:54:58Z</time></trkpt><trkpt lat="44.370379626487164" lon="7.5475767494718"><ele>528.5</ele><time>2026-05-01T14:54:59Z</time></trkpt><trkpt lat="44.370533477197306" lon="7.547289447195374"><ele>527.0</ele><time>2026-05-01T14:55:00Z</time></trkpt><trkpt lat="44.37068418183441" lon="7.54700374843015"><ele>526.5</ele><time>2026-05-01T14:55:01Z</time></trkpt><trkpt lat="44.370833246786965" lon="7.546720846386918"><ele>526.0</ele><time>2026-05-01T14:55:02Z</time></trkpt><trkpt lat="44.37098008441989" lon="7.54644035151931"><ele>526.0</ele><time>2026-05-01T14:55:03Z</time></trkpt><trkpt lat="44.371132694236955" lon="7.546160745459807"><ele>526.0</ele><time>2026-05-01T14:55:04Z</time></trkpt><trkpt lat="44.37128480740246" lon="7.545880996828269"><ele>525.5</ele><time>2026-05-01T14:55:05Z</time></trkpt><trkpt lat="44.371434109589465" lon="7.5455993949753735"><ele>525.0</ele><time>2026-05-01T14:55:06Z</time></trkpt><trkpt lat="44.37158480126305" lon="7.545313662240974"><ele>526.0</ele><time>2026-05-01T14:55:07Z</time></trkpt><trkpt lat="44.37173458939911" lon="7.545026041555721"><ele>527.0</ele><time>2026-05-01T14:55:08Z</time></trkpt><trkpt lat="44.37188291420851" lon="7.544736272803043"><ele>529.0</ele><time>2026-05-01T14:55:09Z</time></trkpt><trkpt lat="44.37203369301659" lon="7.544446463766951"><ele>531.0</ele><time>2026-05-01T14:55:10Z</time></trkpt><trkpt lat="44.372184481967345" lon="7.544140288035918"><ele>532.0</ele><time>2026-05-01T14:55:11Z</time></trkpt><trkpt lat="44.372363968983194" lon="7.543842697541658"><ele>533.0</ele><time>2026-05-01T14:55:12Z</time></trkpt><trkpt lat="44.37253061533529" lon="7.543530393861734"><ele>534.5</ele><time>2026-05-01T14:55:13Z</time></trkpt><trkpt lat="44.37269081293941" lon="7.543224535560544"><ele>536.0</ele><time>2026-05-01T14:55:14Z</time></trkpt><trkpt lat="44.372848242830216" lon="7.54293867385202"><ele>541.0</ele><time>2026-05-01T14:55:15Z</time></trkpt><trkpt lat="44.3730008644505" lon="7.542656116950829"><ele>546.0</ele><time>2026-05-01T14:55:16Z</time></trkpt><trkpt lat="44.37315293736012" lon="7.542380408894833"><ele>551.0</ele><time>2026-05-01T14:55:17Z</time></trkpt><trkpt lat="44.37329541130631" lon="7.542107773186908"><ele>556.0</ele><time>2026-05-01T14:55:18Z</time></trkpt><trkpt lat="44.373449698773456" lon="7.541826520830448"><ele>558.0</ele><time>2026-05-01T14:55:19Z</time></trkpt><trkpt lat="44.373614461191686" lon="7.5415961384321575"><ele>560.0</ele><time>2026-05-01T14:55:20Z</time></trkpt><trkpt lat="44.37392574421557" lon="7.541063856311532"><ele>561.5</ele><time>2026-05-01T14:55:22Z</time></trkpt><trkpt lat="44.374096089101585" lon="7.540776947408156"><ele>563.0</ele><time>2026-05-01T14:55:23.026Z</time></trkpt><trkpt lat="44.3742609790543" lon="7.540503160710881"><ele>562.0</ele><time>2026-05-01T14:55:24.026Z</time></trkpt><trkpt lat="44.37441776025049" lon="7.540247904422691"><ele>561.0</ele><time>2026-05-01T14:55:25.026Z</time></trkpt><trkpt lat="44.374570848073134" lon="7.539994299804699"><ele>561.0</ele><time>2026-05-01T14:55:26.024Z</time></trkpt><trkpt lat="44.37471911638271" lon="7.539745677081024"><ele>561.0</ele><time>2026-05-01T14:55:26.975Z</time></trkpt><trkpt lat="44.3749542" lon="7.5391521"><ele>556.0</ele><time>2026-05-01T14:55:30.923Z</time></trkpt><trkpt lat="44.37628228091388" lon="7.536750820920585"><ele>557.6666666666667</ele><time>2026-05-01T14:55:43.35Z</time></trkpt><trkpt lat="44.376403812231494" lon="7.536503723006265"><ele>559.3333333333334</ele><time>2026-05-01T14:55:44.3Z</time></trkpt><trkpt lat="44.37651726842184" lon="7.536256396614032"><ele>561.0</ele><time>2026-05-01T14:55:45.25Z</time></trkpt><trkpt lat="44.37662850162021" lon="7.536006644115175"><ele>562.0</ele><time>2026-05-01T14:55:46.2Z</time></trkpt><trkpt lat="44.37672796473166" lon="7.535768097086121"><ele>563.0</ele><time>2026-05-01T14:55:47.15Z</time></trkpt><trkpt lat="44.37682115000127" lon="7.535551360218064"><ele>564.0</ele><time>2026-05-01T14:55:48.1Z</time></trkpt><trkpt lat="44.37689190023876" lon="7.535398765966224"><ele>564.0</ele><time>2026-05-01T14:55:49.05Z</time></trkpt><trkpt lat="44.37697503113459" lon="7.535248509776365"><ele>564.0</ele><time>2026-05-01T14:55:50Z</time></trkpt><trkpt lat="44.37703583519021" lon="7.535183815809355"><ele>564.0</ele><time>2026-05-01T14:55:51Z</time></trkpt><trkpt lat="44.37719013983094" lon="7.5350889606016604"><ele>564.0</ele><time>2026-05-01T14:55:54Z</time></trkpt><trkpt lat="44.377199620860466" lon="7.534983430191585"><ele>564.0</ele><time>2026-05-01T14:55:55Z</time></trkpt><trkpt lat="44.3771616386798" lon="7.534896677594309"><ele>564.0</ele><time>2026-05-01T14:55:56Z</time></trkpt><trkpt lat="44.37709434610618" lon="7.534834087760091"><ele>564.0</ele><time>2026-05-01T14:55:57Z</time></trkpt><trkpt lat="44.376978272400905" lon="7.534788997498387"><ele>564.0</ele><time>2026-05-01T14:55:58Z</time></trkpt><trkpt lat="44.37683547970815" lon="7.534737698083261"><ele>564.0</ele><time>2026-05-01T14:55:59Z</time></trkpt><trkpt lat="44.376715806847095" lon="7.534650619574339"><ele>564.0</ele><time>2026-05-01T14:56:00Z</time></trkpt><trkpt lat="44.37658354961037" lon="7.534514261671019"><ele>564.0</ele><time>2026-05-01T14:56:01Z</time></trkpt><trkpt lat="44.37643266500315" lon="7.534359942611854"><ele>564.0</ele><time>2026-05-01T14:56:02Z</time></trkpt><trkpt lat="44.37630437783154" lon="7.534229566550701"><ele>563.3333333333334</ele><time>2026-05-01T14:56:03Z</time></trkpt><trkpt lat="44.37619482641391" lon="7.534103857316777"><ele>562.6666666666667</ele><time>2026-05-01T14:56:04Z</time></trkpt><trkpt lat="44.376083052833636" lon="7.533967750455996"><ele>562.0</ele><time>2026-05-01T14:56:05Z</time></trkpt><trkpt lat="44.37594432229429" lon="7.533842442841086"><ele>563.0</ele><time>2026-05-01T14:56:06Z</time></trkpt><trkpt lat="44.37579445164749" lon="7.533706357633211"><ele>564.0</ele><time>2026-05-01T14:56:07Z</time></trkpt><trkpt lat="44.37565236381571" lon="7.533557604171507"><ele>565.0</ele><time>2026-05-01T14:56:08Z</time></trkpt><trkpt lat="44.375493070409206" lon="7.5334047396210675"><ele>565.0</ele><time>2026-05-01T14:56:09Z</time></trkpt><trkpt lat="44.37531249037662" lon="7.533219298692981"><ele>565.0</ele><time>2026-05-01T14:56:10Z</time></trkpt><trkpt lat="44.375133989683825" lon="7.5330210185316036"><ele>564.6666666666667</ele><time>2026-05-01T14:56:11Z</time></trkpt><trkpt lat="44.3749446926388" lon="7.53283353570409"><ele>564.3333333333334</ele><time>2026-05-01T14:56:12Z</time></trkpt><trkpt lat="44.3747940515076" lon="7.532677162923566"><ele>564.0</ele><time>2026-05-01T14:56:13Z</time></trkpt><trkpt lat="44.374654043560994" lon="7.53253183827692"><ele>564.4</ele><time>2026-05-01T14:56:14Z</time></trkpt><trkpt lat="44.37453944781956" lon="7.53240622403698"><ele>564.8</ele><time>2026-05-01T14:56:15Z</time></trkpt><trkpt lat="44.374457826079876" lon="7.5322968437417765"><ele>565.2</ele><time>2026-05-01T14:56:16Z</time></trkpt><trkpt lat="44.37441690286589" lon="7.5321837610936635"><ele>565.6</ele><time>2026-05-01T14:56:17Z</time></trkpt><trkpt lat="44.374376396802056" lon="7.532109771363427"><ele>566.0</ele><time>2026-05-01T14:56:18Z</time></trkpt><trkpt lat="44.37431237671212" lon="7.53209824625651"><ele>566.0</ele><time>2026-05-01T14:56:19Z</time></trkpt><trkpt lat="44.37425310424087" lon="7.532150239936071"><ele>566.0</ele><time>2026-05-01T14:56:20Z</time></trkpt><trkpt lat="44.3742160200108" lon="7.532269086429743"><ele>566.0</ele><time>2026-05-01T14:56:21Z</time></trkpt><trkpt lat="44.374201424477434" lon="7.532434684883922"><ele>566.0</ele><time>2026-05-01T14:56:22Z</time></trkpt><trkpt lat="44.37415888845623" lon="7.532605782796932"><ele>566.0</ele><time>2026-05-01T14:56:23Z</time></trkpt><trkpt lat="44.37407344671087" lon="7.532775611383506"><ele>566.0</ele><time>2026-05-01T14:56:24Z</time></trkpt><trkpt lat="44.37396821980676" lon="7.532947077768501"><ele>566.0</ele><time>2026-05-01T14:56:25Z</time></trkpt><trkpt lat="44.373864111757044" lon="7.533128194989937"><ele>566.0</ele><time>2026-05-01T14:56:26Z</time></trkpt><trkpt lat="44.3737600140027" lon="7.533321071915321"><ele>566.0</ele><time>2026-05-01T14:56:27Z</time></trkpt><trkpt lat="44.37365070079291" lon="7.533533964848737"><ele>566.0</ele><time>2026-05-01T14:56:28Z</time></trkpt><trkpt lat="44.373538304527855" lon="7.533754677633586"><ele>566.0</ele><time>2026-05-01T14:56:29Z</time></trkpt><trkpt lat="44.37341570335543" lon="7.53398835224024"><ele>566.0</ele><time>2026-05-01T14:56:30Z</time></trkpt><trkpt lat="44.37329179128533" lon="7.534221320757409"><ele>566.0</ele><time>2026-05-01T14:56:31Z</time></trkpt><trkpt lat="44.37317046492243" lon="7.534449119166902"><ele>566.0</ele><time>2026-05-01T14:56:32Z</time></trkpt><trkpt lat="44.37306287844464" lon="7.534650924855282"><ele>565.0</ele><time>2026-05-01T14:56:33Z</time></trkpt><trkpt lat="44.37296634197297" lon="7.534836210169447"><ele>564.0</ele><time>2026-05-01T14:56:34Z</time></trkpt><trkpt lat="44.37287770982147" lon="7.535007404843233"><ele>563.0</ele><time>2026-05-01T14:56:35Z</time></trkpt><trkpt lat="44.372792451142125" lon="7.535169247002135"><ele>563.0</ele><time>2026-05-01T14:56:36Z</time></trkpt><trkpt lat="44.372688651222944" lon="7.535319105052977"><ele>563.0</ele><time>2026-05-01T14:56:37Z</time></trkpt><trkpt lat="44.37254516836554" lon="7.535435352755155"><ele>563.0</ele><time>2026-05-01T14:56:38Z</time></trkpt><trkpt lat="44.37239143411686" lon="7.535483603767477"><ele>563.25</ele><time>2026-05-01T14:56:39Z</time></trkpt><trkpt lat="44.37225966353791" lon="7.535491266507975"><ele>563.5</ele><time>2026-05-01T14:56:40Z</time></trkpt><trkpt lat="44.372159145375456" lon="7.53549098246753"><ele>563.75</ele><time>2026-05-01T14:56:41Z</time></trkpt><trkpt lat="44.372097164972004" lon="7.535511597882494"><ele>564.0</ele><time>2026-05-01T14:56:43Z</time></trkpt><trkpt lat="44.372067662331055" lon="7.5352764815117474"><ele>564.5</ele><time>2026-05-01T14:56:45Z</time></trkpt><trkpt lat="44.37201998354391" lon="7.535143235099131"><ele>565.0</ele><time>2026-05-01T14:56:46Z</time></trkpt><trkpt lat="44.371960679301544" lon="7.534983257647529"><ele>565.5</ele><time>2026-05-01T14:56:47Z</time></trkpt><trkpt lat="44.371861061007785" lon="7.534853652393719"><ele>566.0</ele><time>2026-05-01T14:56:48Z</time></trkpt><trkpt lat="44.371728336744596" lon="7.534741505715238"><ele>566.0</ele><time>2026-05-01T14:56:49Z</time></trkpt><trkpt lat="44.371600915134145" lon="7.534632747537122"><ele>566.0</ele><time>2026-05-01T14:56:50Z</time></trkpt><trkpt lat="44.371478386080724" lon="7.534511478288275"><ele>566.0</ele><time>2026-05-01T14:56:51Z</time></trkpt><trkpt lat="44.371348391328254" lon="7.534374746589802"><ele>566.5</ele><time>2026-05-01T14:56:52Z</time></trkpt><trkpt lat="44.37122173705239" lon="7.534244702862496"><ele>567.0</ele><time>2026-05-01T14:56:53Z</time></trkpt><trkpt lat="44.37111440702415" lon="7.534130727018977"><ele>567.5</ele><time>2026-05-01T14:56:54Z</time></trkpt><trkpt lat="44.371018243177765" lon="7.534029324183112"><ele>568.0</ele><time>2026-05-01T14:56:55Z</time></trkpt><trkpt lat="44.37092454728311" lon="7.533932390890299"><ele>568.0</ele><time>2026-05-01T14:56:56Z</time></trkpt><trkpt lat="44.37083938599633" lon="7.533840307102921"><ele>568.0</ele><time>2026-05-01T14:56:57Z</time></trkpt><trkpt lat="44.37076630596636" lon="7.5337649424576725"><ele>568.0</ele><time>2026-05-01T14:56:58Z</time></trkpt><trkpt lat="44.37069488495269" lon="7.533690447712692"><ele>568.0</ele><time>2026-05-01T14:56:59Z</time></trkpt><trkpt lat="44.37061670498021" lon="7.533607919614095"><ele>568.0</ele><time>2026-05-01T14:57:00Z</time></trkpt><trkpt lat="44.370540015651024" lon="7.533530914981925"><ele>568.4</ele><time>2026-05-01T14:57:01Z</time></trkpt><trkpt lat="44.37046651978519" lon="7.5334610108573585"><ele>568.8</ele><time>2026-05-01T14:57:02Z</time></trkpt><trkpt lat="44.370403426234496" lon="7.5333964862260565"><ele>569.2</ele><time>2026-05-01T14:57:03Z</time></trkpt><trkpt lat="44.370316047286" lon="7.533317686241056"><ele>569.6</ele><time>2026-05-01T14:57:05Z</time></trkpt><trkpt lat="44.37038240641485" lon="7.533149376554079"><ele>570.0</ele><time>2026-05-01T14:57:11Z</time></trkpt><trkpt lat="44.37043472213047" lon="7.533074352940083"><ele>570.0</ele><time>2026-05-01T14:57:14Z</time></trkpt><trkpt lat="44.37047299128365" lon="7.533002747695257"><ele>570.0</ele><time>2026-05-01T14:57:16Z</time></trkpt><trkpt lat="44.37050054721565" lon="7.532916515157299"><ele>570.0</ele><time>2026-05-01T14:57:20Z</time></trkpt><trkpt lat="44.37050085750762" lon="7.532812637067201"><ele>572.0</ele><time>2026-05-01T14:57:24Z</time></trkpt></trkseg></trk></gpx>